<?xml version="1.0" encoding="UTF-8" standalone="no" ?>
<gpx xmlns="http://www.topografix.com/GPX/1/1" xmlns:gpxtpx="http://www.garmin.com/xmlschemas/TrackPointExtension/v1" creator="OruxMaps v.6.0.10 Donate" version="1.1" xmlns:xsi="http://www.w3.org/2001/XMLSchema-instance" xsi:schemaLocation="http://www.topografix.com/GPX/1/1 http://www.topografix.com/GPX/1/1/gpx.xsd">
<metadata>
<name><![CDATA[2015-11-22 07:11]]></name>
<desc><![CDATA[]]></desc>
<link href="http://www.oruxmaps.com">
<text>OruxMaps</text>
</link>
<time>2015-11-22T05:11:05Z</time><bounds maxlat="31.1803702" maxlon="35.7707093" minlat="30.6541401" minlon="35.6102621"/>
</metadata>
<trk>
<name><![CDATA[2015-11-22 07:11]]></name>
<desc><![CDATA[<h1>OruxMaps</h1><br /><hr align="center" width="480" style="height: 2px; width: 517px"/><h2>Name: 2015-11-22 07:11</h2><br /><p>Start time: 11/22/2015 07:11</p><p>Finish time: 11/22/2015 18:52</p><p>Distance: 97.4km (11:40)</p><p>Moving time: 07:24</p><p>Average speed: 8.3km/h</p><p>Avg. Speed Mov.: 13.1km/h</p><p>Max. Speed: 65.4km/h</p><p>Minimum altitude: 410m</p><p>Maximum altitude: 1548m</p><p>Ascent speed: 579.7m/h</p><p>Descent speed: -726.6m/h</p><p>Elevation gain: 3220m</p><p>Elevation loss: -2814m</p><p>Ascent time: 05:33</p><p>Descent time: 03:52</p><hr align="center" width="480" style="height: 2px; width: 517px"/>]]></desc>
<type>Undefined</type>
<extensions>
<om:oruxmapsextensions xmlns:om="http://www.oruxmaps.com/oruxmapsextensions/1/0">
<om:ext type="TYPE" subtype="0">0</om:ext>
</om:oruxmapsextensions>
</extensions>
<trkseg>
<trkpt lat="31.1800006" lon="35.7093524">
<ele>994.40</ele>
<time>2015-11-22T05:11:07Z</time>
</trkpt>
<trkpt lat="31.1799999" lon="35.7095657">
<ele>995.40</ele>
<time>2015-11-22T05:11:36Z</time>
</trkpt>
<trkpt lat="31.1799765" lon="35.7094682">
<ele>994.90</ele>
<time>2015-11-22T05:11:38Z</time>
</trkpt>
<trkpt lat="31.1799451" lon="35.7095093">
<ele>980.46</ele>
<time>2015-11-22T05:15:51Z</time>
</trkpt>
<trkpt lat="31.1798996" lon="35.7095404">
<ele>982.59</ele>
<time>2015-11-22T05:15:55Z</time>
</trkpt>
<trkpt lat="31.1798894" lon="35.7094812">
<ele>975.92</ele>
<time>2015-11-22T05:16:26Z</time>
</trkpt>
<trkpt lat="31.1799260" lon="35.7094260">
<ele>973.53</ele>
<time>2015-11-22T05:16:28Z</time>
</trkpt>
<trkpt lat="31.1799747" lon="35.7093521">
<ele>973.18</ele>
<time>2015-11-22T05:16:30Z</time>
</trkpt>
<trkpt lat="31.1800020" lon="35.7093083">
<ele>972.29</ele>
<time>2015-11-22T05:16:31Z</time>
</trkpt>
<trkpt lat="31.1800493" lon="35.7092119">
<ele>972.34</ele>
<time>2015-11-22T05:16:32Z</time>
</trkpt>
<trkpt lat="31.1800780" lon="35.7091620">
<ele>971.87</ele>
<time>2015-11-22T05:16:33Z</time>
</trkpt>
<trkpt lat="31.1801153" lon="35.7091176">
<ele>971.13</ele>
<time>2015-11-22T05:16:34Z</time>
</trkpt>
<trkpt lat="31.1801432" lon="35.7090660">
<ele>970.77</ele>
<time>2015-11-22T05:16:35Z</time>
</trkpt>
<trkpt lat="31.1801728" lon="35.7090147">
<ele>969.58</ele>
<time>2015-11-22T05:16:36Z</time>
</trkpt>
<trkpt lat="31.1801908" lon="35.7089547">
<ele>970.49</ele>
<time>2015-11-22T05:16:37Z</time>
</trkpt>
<trkpt lat="31.1802152" lon="35.7088991">
<ele>970.94</ele>
<time>2015-11-22T05:16:38Z</time>
</trkpt>
<trkpt lat="31.1802481" lon="35.7088327">
<ele>971.17</ele>
<time>2015-11-22T05:16:39Z</time>
</trkpt>
<trkpt lat="31.1802669" lon="35.7087572">
<ele>972.28</ele>
<time>2015-11-22T05:16:40Z</time>
</trkpt>
<trkpt lat="31.1802904" lon="35.7086887">
<ele>972.34</ele>
<time>2015-11-22T05:16:41Z</time>
</trkpt>
<trkpt lat="31.1803142" lon="35.7086197">
<ele>971.87</ele>
<time>2015-11-22T05:16:42Z</time>
</trkpt>
<trkpt lat="31.1803292" lon="35.7085384">
<ele>971.13</ele>
<time>2015-11-22T05:16:43Z</time>
</trkpt>
<trkpt lat="31.1803503" lon="35.7084551">
<ele>970.26</ele>
<time>2015-11-22T05:16:44Z</time>
</trkpt>
<trkpt lat="31.1803656" lon="35.7083666">
<ele>969.83</ele>
<time>2015-11-22T05:16:45Z</time>
</trkpt>
<trkpt lat="31.1803702" lon="35.7082610">
<ele>969.11</ele>
<time>2015-11-22T05:16:46Z</time>
</trkpt>
<trkpt lat="31.1803673" lon="35.7081549">
<ele>967.76</ele>
<time>2015-11-22T05:16:47Z</time>
</trkpt>
<trkpt lat="31.1803560" lon="35.7080559">
<ele>966.08</ele>
<time>2015-11-22T05:16:48Z</time>
</trkpt>
<trkpt lat="31.1803462" lon="35.7079463">
<ele>964.74</ele>
<time>2015-11-22T05:16:49Z</time>
</trkpt>
<trkpt lat="31.1803382" lon="35.7078355">
<ele>963.57</ele>
<time>2015-11-22T05:16:50Z</time>
</trkpt>
<trkpt lat="31.1803238" lon="35.7077222">
<ele>962.48</ele>
<time>2015-11-22T05:16:51Z</time>
</trkpt>
<trkpt lat="31.1803048" lon="35.7076045">
<ele>960.94</ele>
<time>2015-11-22T05:16:52Z</time>
</trkpt>
<trkpt lat="31.1802837" lon="35.7074851">
<ele>960.67</ele>
<time>2015-11-22T05:16:53Z</time>
</trkpt>
<trkpt lat="31.1802631" lon="35.7073678">
<ele>959.53</ele>
<time>2015-11-22T05:16:54Z</time>
</trkpt>
<trkpt lat="31.1802377" lon="35.7072484">
<ele>958.46</ele>
<time>2015-11-22T05:16:55Z</time>
</trkpt>
<trkpt lat="31.1802111" lon="35.7071375">
<ele>957.43</ele>
<time>2015-11-22T05:16:56Z</time>
</trkpt>
<trkpt lat="31.1801839" lon="35.7070204">
<ele>965.41</ele>
<time>2015-11-22T05:16:57Z</time>
</trkpt>
<trkpt lat="31.1801448" lon="35.7069099">
<ele>969.41</ele>
<time>2015-11-22T05:16:58Z</time>
</trkpt>
<trkpt lat="31.1800973" lon="35.7068081">
<ele>970.90</ele>
<time>2015-11-22T05:16:59Z</time>
</trkpt>
<trkpt lat="31.1800544" lon="35.7067131">
<ele>971.15</ele>
<time>2015-11-22T05:17:00Z</time>
</trkpt>
<trkpt lat="31.1800100" lon="35.7066185">
<ele>971.27</ele>
<time>2015-11-22T05:17:01Z</time>
</trkpt>
<trkpt lat="31.1799682" lon="35.7065163">
<ele>971.84</ele>
<time>2015-11-22T05:17:02Z</time>
</trkpt>
<trkpt lat="31.1799310" lon="35.7064168">
<ele>971.62</ele>
<time>2015-11-22T05:17:03Z</time>
</trkpt>
<trkpt lat="31.1798878" lon="35.7063228">
<ele>971.51</ele>
<time>2015-11-22T05:17:04Z</time>
</trkpt>
<trkpt lat="31.1798524" lon="35.7062288">
<ele>971.45</ele>
<time>2015-11-22T05:17:05Z</time>
</trkpt>
<trkpt lat="31.1798164" lon="35.7061216">
<ele>971.92</ele>
<time>2015-11-22T05:17:06Z</time>
</trkpt>
<trkpt lat="31.1797798" lon="35.7060149">
<ele>971.66</ele>
<time>2015-11-22T05:17:07Z</time>
</trkpt>
<trkpt lat="31.1797542" lon="35.7059070">
<ele>971.53</ele>
<time>2015-11-22T05:17:08Z</time>
</trkpt>
<trkpt lat="31.1797333" lon="35.7057980">
<ele>971.46</ele>
<time>2015-11-22T05:17:09Z</time>
</trkpt>
<trkpt lat="31.1797268" lon="35.7056833">
<ele>971.43</ele>
<time>2015-11-22T05:17:10Z</time>
</trkpt>
<trkpt lat="31.1797223" lon="35.7055644">
<ele>971.91</ele>
<time>2015-11-22T05:17:11Z</time>
</trkpt>
<trkpt lat="31.1797287" lon="35.7054264">
<ele>972.66</ele>
<time>2015-11-22T05:17:12Z</time>
</trkpt>
<trkpt lat="31.1797381" lon="35.7053043">
<ele>973.03</ele>
<time>2015-11-22T05:17:13Z</time>
</trkpt>
<trkpt lat="31.1797381" lon="35.7051950">
<ele>973.71</ele>
<time>2015-11-22T05:17:14Z</time>
</trkpt>
<trkpt lat="31.1797419" lon="35.7050890">
<ele>974.05</ele>
<time>2015-11-22T05:17:15Z</time>
</trkpt>
<trkpt lat="31.1797437" lon="35.7049843">
<ele>974.73</ele>
<time>2015-11-22T05:17:16Z</time>
</trkpt>
<trkpt lat="31.1797358" lon="35.7048990">
<ele>975.56</ele>
<time>2015-11-22T05:17:17Z</time>
</trkpt>
<trkpt lat="31.1797334" lon="35.7048176">
<ele>975.48</ele>
<time>2015-11-22T05:17:18Z</time>
</trkpt>
<trkpt lat="31.1797338" lon="35.7047322">
<ele>974.94</ele>
<time>2015-11-22T05:17:19Z</time>
</trkpt>
<trkpt lat="31.1797293" lon="35.7046471">
<ele>974.67</ele>
<time>2015-11-22T05:17:20Z</time>
</trkpt>
<trkpt lat="31.1797266" lon="35.7045554">
<ele>975.03</ele>
<time>2015-11-22T05:17:21Z</time>
</trkpt>
<trkpt lat="31.1797158" lon="35.7044688">
<ele>974.21</ele>
<time>2015-11-22T05:17:22Z</time>
</trkpt>
<trkpt lat="31.1797022" lon="35.7043758">
<ele>973.31</ele>
<time>2015-11-22T05:17:23Z</time>
</trkpt>
<trkpt lat="31.1796880" lon="35.7042821">
<ele>972.85</ele>
<time>2015-11-22T05:17:24Z</time>
</trkpt>
<trkpt lat="31.1796747" lon="35.7041787">
<ele>972.12</ele>
<time>2015-11-22T05:17:25Z</time>
</trkpt>
<trkpt lat="31.1796611" lon="35.7040874">
<ele>970.76</ele>
<time>2015-11-22T05:17:26Z</time>
</trkpt>
<trkpt lat="31.1796454" lon="35.7039936">
<ele>969.58</ele>
<time>2015-11-22T05:17:27Z</time>
</trkpt>
<trkpt lat="31.1796308" lon="35.7039132">
<ele>967.99</ele>
<time>2015-11-22T05:17:28Z</time>
</trkpt>
<trkpt lat="31.1796117" lon="35.7038305">
<ele>966.19</ele>
<time>2015-11-22T05:17:29Z</time>
</trkpt>
<trkpt lat="31.1795937" lon="35.7037511">
<ele>963.79</ele>
<time>2015-11-22T05:17:30Z</time>
</trkpt>
<trkpt lat="31.1795797" lon="35.7036777">
<ele>962.60</ele>
<time>2015-11-22T05:17:31Z</time>
</trkpt>
<trkpt lat="31.1795707" lon="35.7036252">
<ele>962.00</ele>
<time>2015-11-22T05:17:32Z</time>
</trkpt>
<trkpt lat="31.1795523" lon="35.7035505">
<ele>965.05</ele>
<time>2015-11-22T05:17:34Z</time>
</trkpt>
<trkpt lat="31.1795488" lon="35.7034949">
<ele>962.75</ele>
<time>2015-11-22T05:17:38Z</time>
</trkpt>
<trkpt lat="31.1795303" lon="35.7034355">
<ele>956.60</ele>
<time>2015-11-22T05:18:06Z</time>
</trkpt>
<trkpt lat="31.1795219" lon="35.7033763">
<ele>960.30</ele>
<time>2015-11-22T05:18:09Z</time>
</trkpt>
<trkpt lat="31.1794908" lon="35.7033086">
<ele>962.87</ele>
<time>2015-11-22T05:18:11Z</time>
</trkpt>
<trkpt lat="31.1794409" lon="35.7032481">
<ele>969.02</ele>
<time>2015-11-22T05:18:13Z</time>
</trkpt>
<trkpt lat="31.1793752" lon="35.7032150">
<ele>974.30</ele>
<time>2015-11-22T05:18:15Z</time>
</trkpt>
<trkpt lat="31.1793038" lon="35.7032089">
<ele>976.37</ele>
<time>2015-11-22T05:18:17Z</time>
</trkpt>
<trkpt lat="31.1792360" lon="35.7032085">
<ele>977.89</ele>
<time>2015-11-22T05:18:19Z</time>
</trkpt>
<trkpt lat="31.1791780" lon="35.7032018">
<ele>977.52</ele>
<time>2015-11-22T05:18:21Z</time>
</trkpt>
<trkpt lat="31.1792033" lon="35.7031540">
<ele>942.09</ele>
<time>2015-11-22T05:18:28Z</time>
</trkpt>
<trkpt lat="31.1792483" lon="35.7031597">
<ele>935.76</ele>
<time>2015-11-22T05:18:47Z</time>
</trkpt>
<trkpt lat="31.1792912" lon="35.7031396">
<ele>934.40</ele>
<time>2015-11-22T05:26:32Z</time>
</trkpt>
<trkpt lat="31.1792491" lon="35.7031198">
<ele>936.61</ele>
<time>2015-11-22T05:26:39Z</time>
</trkpt>
<trkpt lat="31.1791937" lon="35.7031299">
<ele>939.72</ele>
<time>2015-11-22T05:26:44Z</time>
</trkpt>
<trkpt lat="31.1791522" lon="35.7031542">
<ele>940.60</ele>
<time>2015-11-22T05:26:48Z</time>
</trkpt>
<trkpt lat="31.1791066" lon="35.7031440">
<ele>941.35</ele>
<time>2015-11-22T05:27:00Z</time>
</trkpt>
<trkpt lat="31.1790593" lon="35.7031354">
<ele>942.14</ele>
<time>2015-11-22T05:27:03Z</time>
</trkpt>
<trkpt lat="31.1790052" lon="35.7031659">
<ele>943.49</ele>
<time>2015-11-22T05:27:06Z</time>
</trkpt>
<trkpt lat="31.1789452" lon="35.7031872">
<ele>943.41</ele>
<time>2015-11-22T05:27:09Z</time>
</trkpt>
<trkpt lat="31.1788801" lon="35.7031987">
<ele>942.02</ele>
<time>2015-11-22T05:27:12Z</time>
</trkpt>
<trkpt lat="31.1788341" lon="35.7032075">
<ele>941.55</ele>
<time>2015-11-22T05:27:14Z</time>
</trkpt>
<trkpt lat="31.1787827" lon="35.7032137">
<ele>940.69</ele>
<time>2015-11-22T05:27:16Z</time>
</trkpt>
<trkpt lat="31.1787280" lon="35.7032178">
<ele>939.72</ele>
<time>2015-11-22T05:27:18Z</time>
</trkpt>
<trkpt lat="31.1786723" lon="35.7032280">
<ele>939.48</ele>
<time>2015-11-22T05:27:20Z</time>
</trkpt>
<trkpt lat="31.1786144" lon="35.7032350">
<ele>940.17</ele>
<time>2015-11-22T05:27:22Z</time>
</trkpt>
<trkpt lat="31.1785552" lon="35.7032419">
<ele>940.34</ele>
<time>2015-11-22T05:27:24Z</time>
</trkpt>
<trkpt lat="31.1784952" lon="35.7032497">
<ele>940.38</ele>
<time>2015-11-22T05:27:26Z</time>
</trkpt>
<trkpt lat="31.1784346" lon="35.7032564">
<ele>940.39</ele>
<time>2015-11-22T05:27:28Z</time>
</trkpt>
<trkpt lat="31.1783757" lon="35.7032667">
<ele>941.15</ele>
<time>2015-11-22T05:27:30Z</time>
</trkpt>
<trkpt lat="31.1783192" lon="35.7032790">
<ele>941.33</ele>
<time>2015-11-22T05:27:32Z</time>
</trkpt>
<trkpt lat="31.1782643" lon="35.7032905">
<ele>941.38</ele>
<time>2015-11-22T05:27:34Z</time>
</trkpt>
<trkpt lat="31.1782133" lon="35.7032948">
<ele>940.89</ele>
<time>2015-11-22T05:27:36Z</time>
</trkpt>
<trkpt lat="31.1781630" lon="35.7033075">
<ele>938.48</ele>
<time>2015-11-22T05:27:55Z</time>
</trkpt>
<trkpt lat="31.1781111" lon="35.7033181">
<ele>938.16</ele>
<time>2015-11-22T05:27:58Z</time>
</trkpt>
<trkpt lat="31.1780609" lon="35.7033257">
<ele>939.74</ele>
<time>2015-11-22T05:28:01Z</time>
</trkpt>
<trkpt lat="31.1780148" lon="35.7033364">
<ele>940.23</ele>
<time>2015-11-22T05:28:03Z</time>
</trkpt>
<trkpt lat="31.1779526" lon="35.7033537">
<ele>940.38</ele>
<time>2015-11-22T05:28:06Z</time>
</trkpt>
<trkpt lat="31.1778936" lon="35.7033701">
<ele>940.39</ele>
<time>2015-11-22T05:28:09Z</time>
</trkpt>
<trkpt lat="31.1778362" lon="35.7033886">
<ele>941.15</ele>
<time>2015-11-22T05:28:12Z</time>
</trkpt>
<trkpt lat="31.1777838" lon="35.7033991">
<ele>940.49</ele>
<time>2015-11-22T05:28:15Z</time>
</trkpt>
<trkpt lat="31.1777316" lon="35.7034040">
<ele>940.41</ele>
<time>2015-11-22T05:28:18Z</time>
</trkpt>
<trkpt lat="31.1776849" lon="35.7034143">
<ele>940.65</ele>
<time>2015-11-22T05:28:21Z</time>
</trkpt>
<trkpt lat="31.1776373" lon="35.7034175">
<ele>940.43</ele>
<time>2015-11-22T05:28:24Z</time>
</trkpt>
<trkpt lat="31.1775898" lon="35.7034140">
<ele>940.65</ele>
<time>2015-11-22T05:28:27Z</time>
</trkpt>
<trkpt lat="31.1775371" lon="35.7034185">
<ele>939.93</ele>
<time>2015-11-22T05:28:30Z</time>
</trkpt>
<trkpt lat="31.1774835" lon="35.7034247">
<ele>939.71</ele>
<time>2015-11-22T05:28:33Z</time>
</trkpt>
<trkpt lat="31.1774279" lon="35.7034263">
<ele>938.56</ele>
<time>2015-11-22T05:28:36Z</time>
</trkpt>
<trkpt lat="31.1773751" lon="35.7034303">
<ele>938.42</ele>
<time>2015-11-22T05:28:39Z</time>
</trkpt>
<trkpt lat="31.1773241" lon="35.7034427">
<ele>937.52</ele>
<time>2015-11-22T05:28:42Z</time>
</trkpt>
<trkpt lat="31.1772708" lon="35.7034433">
<ele>938.16</ele>
<time>2015-11-22T05:28:45Z</time>
</trkpt>
<trkpt lat="31.1772149" lon="35.7034377">
<ele>939.24</ele>
<time>2015-11-22T05:28:48Z</time>
</trkpt>
<trkpt lat="31.1771595" lon="35.7034340">
<ele>938.50</ele>
<time>2015-11-22T05:28:51Z</time>
</trkpt>
<trkpt lat="31.1771045" lon="35.7034337">
<ele>939.04</ele>
<time>2015-11-22T05:28:54Z</time>
</trkpt>
<trkpt lat="31.1770487" lon="35.7034353">
<ele>939.73</ele>
<time>2015-11-22T05:28:57Z</time>
</trkpt>
<trkpt lat="31.1769924" lon="35.7034395">
<ele>939.44</ele>
<time>2015-11-22T05:29:00Z</time>
</trkpt>
<trkpt lat="31.1769350" lon="35.7034390">
<ele>939.53</ele>
<time>2015-11-22T05:29:03Z</time>
</trkpt>
<trkpt lat="31.1768811" lon="35.7034370">
<ele>940.04</ele>
<time>2015-11-22T05:29:06Z</time>
</trkpt>
<trkpt lat="31.1768286" lon="35.7034367">
<ele>939.98</ele>
<time>2015-11-22T05:29:09Z</time>
</trkpt>
<trkpt lat="31.1767706" lon="35.7034335">
<ele>939.47</ele>
<time>2015-11-22T05:29:12Z</time>
</trkpt>
<trkpt lat="31.1767096" lon="35.7034333">
<ele>939.66</ele>
<time>2015-11-22T05:29:15Z</time>
</trkpt>
<trkpt lat="31.1766469" lon="35.7034388">
<ele>939.93</ele>
<time>2015-11-22T05:29:18Z</time>
</trkpt>
<trkpt lat="31.1765803" lon="35.7034384">
<ele>940.34</ele>
<time>2015-11-22T05:29:21Z</time>
</trkpt>
<trkpt lat="31.1765324" lon="35.7034406">
<ele>940.38</ele>
<time>2015-11-22T05:29:23Z</time>
</trkpt>
<trkpt lat="31.1764813" lon="35.7034344">
<ele>940.39</ele>
<time>2015-11-22T05:29:25Z</time>
</trkpt>
<trkpt lat="31.1764304" lon="35.7034302">
<ele>940.90</ele>
<time>2015-11-22T05:29:27Z</time>
</trkpt>
<trkpt lat="31.1763795" lon="35.7034322">
<ele>941.27</ele>
<time>2015-11-22T05:29:29Z</time>
</trkpt>
<trkpt lat="31.1763317" lon="35.7034377">
<ele>941.37</ele>
<time>2015-11-22T05:29:31Z</time>
</trkpt>
<trkpt lat="31.1762845" lon="35.7034456">
<ele>940.89</ele>
<time>2015-11-22T05:29:33Z</time>
</trkpt>
<trkpt lat="31.1762368" lon="35.7034534">
<ele>940.52</ele>
<time>2015-11-22T05:29:35Z</time>
</trkpt>
<trkpt lat="31.1761895" lon="35.7034506">
<ele>941.18</ele>
<time>2015-11-22T05:29:37Z</time>
</trkpt>
<trkpt lat="31.1761444" lon="35.7034468">
<ele>941.34</ele>
<time>2015-11-22T05:29:39Z</time>
</trkpt>
<trkpt lat="31.1760833" lon="35.7034434">
<ele>941.39</ele>
<time>2015-11-22T05:29:42Z</time>
</trkpt>
<trkpt lat="31.1760217" lon="35.7034412">
<ele>941.40</ele>
<time>2015-11-22T05:29:45Z</time>
</trkpt>
<trkpt lat="31.1759609" lon="35.7034390">
<ele>941.40</ele>
<time>2015-11-22T05:29:48Z</time>
</trkpt>
<trkpt lat="31.1759024" lon="35.7034364">
<ele>941.40</ele>
<time>2015-11-22T05:29:51Z</time>
</trkpt>
<trkpt lat="31.1758424" lon="35.7034325">
<ele>941.65</ele>
<time>2015-11-22T05:29:54Z</time>
</trkpt>
<trkpt lat="31.1757848" lon="35.7034315">
<ele>942.30</ele>
<time>2015-11-22T05:29:57Z</time>
</trkpt>
<trkpt lat="31.1757281" lon="35.7034433">
<ele>941.89</ele>
<time>2015-11-22T05:30:00Z</time>
</trkpt>
<trkpt lat="31.1756704" lon="35.7034506">
<ele>941.46</ele>
<time>2015-11-22T05:30:03Z</time>
</trkpt>
<trkpt lat="31.1756116" lon="35.7034491">
<ele>942.28</ele>
<time>2015-11-22T05:30:06Z</time>
</trkpt>
<trkpt lat="31.1755522" lon="35.7034488">
<ele>942.38</ele>
<time>2015-11-22T05:30:09Z</time>
</trkpt>
<trkpt lat="31.1754949" lon="35.7034510">
<ele>942.40</ele>
<time>2015-11-22T05:30:12Z</time>
</trkpt>
<trkpt lat="31.1754406" lon="35.7034445">
<ele>942.40</ele>
<time>2015-11-22T05:30:15Z</time>
</trkpt>
<trkpt lat="31.1753860" lon="35.7034447">
<ele>942.40</ele>
<time>2015-11-22T05:30:18Z</time>
</trkpt>
<trkpt lat="31.1753304" lon="35.7034433">
<ele>943.27</ele>
<time>2015-11-22T05:30:21Z</time>
</trkpt>
<trkpt lat="31.1752763" lon="35.7034484">
<ele>942.88</ele>
<time>2015-11-22T05:30:24Z</time>
</trkpt>
<trkpt lat="31.1752211" lon="35.7034488">
<ele>943.33</ele>
<time>2015-11-22T05:30:27Z</time>
</trkpt>
<trkpt lat="31.1751660" lon="35.7034498">
<ele>943.39</ele>
<time>2015-11-22T05:30:30Z</time>
</trkpt>
<trkpt lat="31.1751103" lon="35.7034515">
<ele>943.52</ele>
<time>2015-11-22T05:30:33Z</time>
</trkpt>
<trkpt lat="31.1750527" lon="35.7034545">
<ele>944.29</ele>
<time>2015-11-22T05:30:36Z</time>
</trkpt>
<trkpt lat="31.1749960" lon="35.7034516">
<ele>943.51</ele>
<time>2015-11-22T05:30:39Z</time>
</trkpt>
<trkpt lat="31.1749419" lon="35.7034520">
<ele>943.41</ele>
<time>2015-11-22T05:30:42Z</time>
</trkpt>
<trkpt lat="31.1748862" lon="35.7034504">
<ele>943.40</ele>
<time>2015-11-22T05:30:45Z</time>
</trkpt>
<trkpt lat="31.1748296" lon="35.7034587">
<ele>943.40</ele>
<time>2015-11-22T05:30:48Z</time>
</trkpt>
<trkpt lat="31.1747736" lon="35.7034619">
<ele>943.90</ele>
<time>2015-11-22T05:30:51Z</time>
</trkpt>
<trkpt lat="31.1747218" lon="35.7034643">
<ele>944.33</ele>
<time>2015-11-22T05:30:54Z</time>
</trkpt>
<trkpt lat="31.1746738" lon="35.7034658">
<ele>944.14</ele>
<time>2015-11-22T05:30:57Z</time>
</trkpt>
<trkpt lat="31.1746261" lon="35.7034609">
<ele>944.36</ele>
<time>2015-11-22T05:31:00Z</time>
</trkpt>
<trkpt lat="31.1745769" lon="35.7034454">
<ele>945.14</ele>
<time>2015-11-22T05:31:03Z</time>
</trkpt>
<trkpt lat="31.1745364" lon="35.7034164">
<ele>944.87</ele>
<time>2015-11-22T05:31:06Z</time>
</trkpt>
<trkpt lat="31.1744886" lon="35.7034126">
<ele>945.21</ele>
<time>2015-11-22T05:31:09Z</time>
</trkpt>
<trkpt lat="31.1744316" lon="35.7034201">
<ele>945.12</ele>
<time>2015-11-22T05:31:12Z</time>
</trkpt>
<trkpt lat="31.1743926" lon="35.7034592">
<ele>942.65</ele>
<time>2015-11-22T05:31:33Z</time>
</trkpt>
<trkpt lat="31.1743464" lon="35.7034938">
<ele>942.41</ele>
<time>2015-11-22T05:31:37Z</time>
</trkpt>
<trkpt lat="31.1742991" lon="35.7035033">
<ele>942.40</ele>
<time>2015-11-22T05:31:40Z</time>
</trkpt>
<trkpt lat="31.1742519" lon="35.7035044">
<ele>949.27</ele>
<time>2015-11-22T05:32:08Z</time>
</trkpt>
<trkpt lat="31.1742121" lon="35.7035385">
<ele>948.92</ele>
<time>2015-11-22T05:32:13Z</time>
</trkpt>
<trkpt lat="31.1741635" lon="35.7035624">
<ele>949.71</ele>
<time>2015-11-22T05:32:16Z</time>
</trkpt>
<trkpt lat="31.1741197" lon="35.7035800">
<ele>948.23</ele>
<time>2015-11-22T05:32:18Z</time>
</trkpt>
<trkpt lat="31.1740616" lon="35.7036154">
<ele>947.63</ele>
<time>2015-11-22T05:32:21Z</time>
</trkpt>
<trkpt lat="31.1740081" lon="35.7036504">
<ele>947.43</ele>
<time>2015-11-22T05:32:24Z</time>
</trkpt>
<trkpt lat="31.1739566" lon="35.7036877">
<ele>948.28</ele>
<time>2015-11-22T05:32:27Z</time>
</trkpt>
<trkpt lat="31.1739073" lon="35.7037232">
<ele>949.13</ele>
<time>2015-11-22T05:32:30Z</time>
</trkpt>
<trkpt lat="31.1738570" lon="35.7037565">
<ele>949.33</ele>
<time>2015-11-22T05:32:33Z</time>
</trkpt>
<trkpt lat="31.1738057" lon="35.7037892">
<ele>949.39</ele>
<time>2015-11-22T05:32:36Z</time>
</trkpt>
<trkpt lat="31.1737502" lon="35.7038233">
<ele>948.40</ele>
<time>2015-11-22T05:32:39Z</time>
</trkpt>
<trkpt lat="31.1737002" lon="35.7038627">
<ele>947.65</ele>
<time>2015-11-22T05:32:42Z</time>
</trkpt>
<trkpt lat="31.1736543" lon="35.7039056">
<ele>947.43</ele>
<time>2015-11-22T05:32:45Z</time>
</trkpt>
<trkpt lat="31.1736090" lon="35.7039426">
<ele>948.28</ele>
<time>2015-11-22T05:32:48Z</time>
</trkpt>
<trkpt lat="31.1735585" lon="35.7039724">
<ele>948.88</ele>
<time>2015-11-22T05:32:51Z</time>
</trkpt>
<trkpt lat="31.1735125" lon="35.7040096">
<ele>949.33</ele>
<time>2015-11-22T05:32:54Z</time>
</trkpt>
<trkpt lat="31.1734647" lon="35.7040480">
<ele>949.39</ele>
<time>2015-11-22T05:32:57Z</time>
</trkpt>
<trkpt lat="31.1734196" lon="35.7040730">
<ele>949.40</ele>
<time>2015-11-22T05:33:00Z</time>
</trkpt>
<trkpt lat="31.1733721" lon="35.7041082">
<ele>950.27</ele>
<time>2015-11-22T05:33:03Z</time>
</trkpt>
<trkpt lat="31.1733252" lon="35.7041485">
<ele>951.26</ele>
<time>2015-11-22T05:33:06Z</time>
</trkpt>
<trkpt lat="31.1732839" lon="35.7041813">
<ele>951.38</ele>
<time>2015-11-22T05:33:09Z</time>
</trkpt>
<trkpt lat="31.1732438" lon="35.7042052">
<ele>951.39</ele>
<time>2015-11-22T05:33:12Z</time>
</trkpt>
<trkpt lat="31.1732055" lon="35.7042395">
<ele>950.65</ele>
<time>2015-11-22T05:33:15Z</time>
</trkpt>
<trkpt lat="31.1731538" lon="35.7042620">
<ele>950.93</ele>
<time>2015-11-22T05:33:18Z</time>
</trkpt>
<trkpt lat="31.1730982" lon="35.7042915">
<ele>951.34</ele>
<time>2015-11-22T05:33:21Z</time>
</trkpt>
<trkpt lat="31.1730408" lon="35.7043258">
<ele>951.39</ele>
<time>2015-11-22T05:33:24Z</time>
</trkpt>
<trkpt lat="31.1729858" lon="35.7043641">
<ele>951.40</ele>
<time>2015-11-22T05:33:27Z</time>
</trkpt>
<trkpt lat="31.1729322" lon="35.7043977">
<ele>951.90</ele>
<time>2015-11-22T05:33:30Z</time>
</trkpt>
<trkpt lat="31.1728758" lon="35.7044254">
<ele>952.33</ele>
<time>2015-11-22T05:33:33Z</time>
</trkpt>
<trkpt lat="31.1728179" lon="35.7044470">
<ele>952.39</ele>
<time>2015-11-22T05:33:36Z</time>
</trkpt>
<trkpt lat="31.1727589" lon="35.7044713">
<ele>951.90</ele>
<time>2015-11-22T05:33:39Z</time>
</trkpt>
<trkpt lat="31.1727018" lon="35.7044980">
<ele>953.58</ele>
<time>2015-11-22T05:33:42Z</time>
</trkpt>
<trkpt lat="31.1726395" lon="35.7045042">
<ele>956.30</ele>
<time>2015-11-22T05:33:45Z</time>
</trkpt>
<trkpt lat="31.1725798" lon="35.7044935">
<ele>958.51</ele>
<time>2015-11-22T05:33:48Z</time>
</trkpt>
<trkpt lat="31.1725301" lon="35.7044714">
<ele>959.29</ele>
<time>2015-11-22T05:33:51Z</time>
</trkpt>
<trkpt lat="31.1724877" lon="35.7044433">
<ele>960.26</ele>
<time>2015-11-22T05:33:54Z</time>
</trkpt>
<trkpt lat="31.1724440" lon="35.7044215">
<ele>961.50</ele>
<time>2015-11-22T05:33:57Z</time>
</trkpt>
<trkpt lat="31.1723978" lon="35.7044002">
<ele>960.66</ele>
<time>2015-11-22T05:34:00Z</time>
</trkpt>
<trkpt lat="31.1723478" lon="35.7043716">
<ele>961.68</ele>
<time>2015-11-22T05:34:03Z</time>
</trkpt>
<trkpt lat="31.1722955" lon="35.7043402">
<ele>964.56</ele>
<time>2015-11-22T05:34:06Z</time>
</trkpt>
<trkpt lat="31.1722453" lon="35.7043089">
<ele>965.04</ele>
<time>2015-11-22T05:34:09Z</time>
</trkpt>
<trkpt lat="31.1722052" lon="35.7042721">
<ele>966.10</ele>
<time>2015-11-22T05:34:12Z</time>
</trkpt>
<trkpt lat="31.1721602" lon="35.7042459">
<ele>966.36</ele>
<time>2015-11-22T05:34:15Z</time>
</trkpt>
<trkpt lat="31.1721109" lon="35.7042225">
<ele>966.77</ele>
<time>2015-11-22T05:34:18Z</time>
</trkpt>
<trkpt lat="31.1720666" lon="35.7041957">
<ele>966.32</ele>
<time>2015-11-22T05:34:21Z</time>
</trkpt>
<trkpt lat="31.1720198" lon="35.7041644">
<ele>967.26</ele>
<time>2015-11-22T05:34:24Z</time>
</trkpt>
<trkpt lat="31.1719730" lon="35.7041330">
<ele>967.38</ele>
<time>2015-11-22T05:34:27Z</time>
</trkpt>
<trkpt lat="31.1719256" lon="35.7041044">
<ele>968.27</ele>
<time>2015-11-22T05:34:30Z</time>
</trkpt>
<trkpt lat="31.1718769" lon="35.7040798">
<ele>967.13</ele>
<time>2015-11-22T05:34:33Z</time>
</trkpt>
<trkpt lat="31.1718234" lon="35.7040629">
<ele>966.49</ele>
<time>2015-11-22T05:34:36Z</time>
</trkpt>
<trkpt lat="31.1717668" lon="35.7040393">
<ele>966.41</ele>
<time>2015-11-22T05:34:39Z</time>
</trkpt>
<trkpt lat="31.1717054" lon="35.7040175">
<ele>966.27</ele>
<time>2015-11-22T05:34:42Z</time>
</trkpt>
<trkpt lat="31.1716613" lon="35.7040031">
<ele>967.62</ele>
<time>2015-11-22T05:34:44Z</time>
</trkpt>
<trkpt lat="31.1716147" lon="35.7039911">
<ele>968.20</ele>
<time>2015-11-22T05:34:46Z</time>
</trkpt>
<trkpt lat="31.1715681" lon="35.7039824">
<ele>967.60</ele>
<time>2015-11-22T05:34:48Z</time>
</trkpt>
<trkpt lat="31.1715204" lon="35.7039702">
<ele>967.45</ele>
<time>2015-11-22T05:34:50Z</time>
</trkpt>
<trkpt lat="31.1714734" lon="35.7039577">
<ele>968.16</ele>
<time>2015-11-22T05:34:52Z</time>
</trkpt>
<trkpt lat="31.1714283" lon="35.7039478">
<ele>967.59</ele>
<time>2015-11-22T05:34:54Z</time>
</trkpt>
<trkpt lat="31.1713636" lon="35.7039374">
<ele>967.42</ele>
<time>2015-11-22T05:34:57Z</time>
</trkpt>
<trkpt lat="31.1713185" lon="35.7039289">
<ele>967.40</ele>
<time>2015-11-22T05:34:59Z</time>
</trkpt>
<trkpt lat="31.1712730" lon="35.7039132">
<ele>967.90</ele>
<time>2015-11-22T05:35:01Z</time>
</trkpt>
<trkpt lat="31.1712293" lon="35.7039001">
<ele>963.02</ele>
<time>2015-11-22T05:35:03Z</time>
</trkpt>
<trkpt lat="31.1711841" lon="35.7038848">
<ele>959.05</ele>
<time>2015-11-22T05:35:05Z</time>
</trkpt>
<trkpt lat="31.1711368" lon="35.7038701">
<ele>957.06</ele>
<time>2015-11-22T05:35:07Z</time>
</trkpt>
<trkpt lat="31.1710878" lon="35.7038627">
<ele>956.56</ele>
<time>2015-11-22T05:35:09Z</time>
</trkpt>
<trkpt lat="31.1710373" lon="35.7038617">
<ele>956.44</ele>
<time>2015-11-22T05:35:11Z</time>
</trkpt>
<trkpt lat="31.1709854" lon="35.7038628">
<ele>956.41</ele>
<time>2015-11-22T05:35:13Z</time>
</trkpt>
<trkpt lat="31.1709334" lon="35.7038566">
<ele>957.15</ele>
<time>2015-11-22T05:35:15Z</time>
</trkpt>
<trkpt lat="31.1708828" lon="35.7038540">
<ele>957.34</ele>
<time>2015-11-22T05:35:17Z</time>
</trkpt>
<trkpt lat="31.1708344" lon="35.7038564">
<ele>957.13</ele>
<time>2015-11-22T05:35:19Z</time>
</trkpt>
<trkpt lat="31.1707875" lon="35.7038567">
<ele>957.33</ele>
<time>2015-11-22T05:35:21Z</time>
</trkpt>
<trkpt lat="31.1707411" lon="35.7038557">
<ele>957.63</ele>
<time>2015-11-22T05:35:23Z</time>
</trkpt>
<trkpt lat="31.1706940" lon="35.7038590">
<ele>957.46</ele>
<time>2015-11-22T05:35:25Z</time>
</trkpt>
<trkpt lat="31.1706453" lon="35.7038642">
<ele>957.91</ele>
<time>2015-11-22T05:35:27Z</time>
</trkpt>
<trkpt lat="31.1705956" lon="35.7038685">
<ele>957.53</ele>
<time>2015-11-22T05:35:29Z</time>
</trkpt>
<trkpt lat="31.1705438" lon="35.7038727">
<ele>956.68</ele>
<time>2015-11-22T05:35:31Z</time>
</trkpt>
<trkpt lat="31.1704922" lon="35.7038783">
<ele>956.22</ele>
<time>2015-11-22T05:35:33Z</time>
</trkpt>
<trkpt lat="31.1704407" lon="35.7038807">
<ele>956.35</ele>
<time>2015-11-22T05:35:35Z</time>
</trkpt>
<trkpt lat="31.1703893" lon="35.7038823">
<ele>956.64</ele>
<time>2015-11-22T05:35:37Z</time>
</trkpt>
<trkpt lat="31.1703368" lon="35.7038848">
<ele>957.21</ele>
<time>2015-11-22T05:35:39Z</time>
</trkpt>
<trkpt lat="31.1702838" lon="35.7038824">
<ele>958.10</ele>
<time>2015-11-22T05:35:41Z</time>
</trkpt>
<trkpt lat="31.1702294" lon="35.7038816">
<ele>957.82</ele>
<time>2015-11-22T05:35:43Z</time>
</trkpt>
<trkpt lat="31.1701758" lon="35.7038796">
<ele>958.25</ele>
<time>2015-11-22T05:35:45Z</time>
</trkpt>
<trkpt lat="31.1701200" lon="35.7038766">
<ele>959.11</ele>
<time>2015-11-22T05:35:47Z</time>
</trkpt>
<trkpt lat="31.1700660" lon="35.7038786">
<ele>958.58</ele>
<time>2015-11-22T05:35:49Z</time>
</trkpt>
<trkpt lat="31.1700125" lon="35.7038848">
<ele>957.94</ele>
<time>2015-11-22T05:35:51Z</time>
</trkpt>
<trkpt lat="31.1699574" lon="35.7038908">
<ele>958.28</ele>
<time>2015-11-22T05:35:53Z</time>
</trkpt>
<trkpt lat="31.1699025" lon="35.7038948">
<ele>958.37</ele>
<time>2015-11-22T05:35:55Z</time>
</trkpt>
<trkpt lat="31.1698511" lon="35.7038947">
<ele>958.89</ele>
<time>2015-11-22T05:35:57Z</time>
</trkpt>
<trkpt lat="31.1698005" lon="35.7038970">
<ele>958.52</ele>
<time>2015-11-22T05:35:59Z</time>
</trkpt>
<trkpt lat="31.1697516" lon="35.7038974">
<ele>958.43</ele>
<time>2015-11-22T05:36:01Z</time>
</trkpt>
<trkpt lat="31.1697033" lon="35.7038971">
<ele>959.15</ele>
<time>2015-11-22T05:36:03Z</time>
</trkpt>
<trkpt lat="31.1696546" lon="35.7038909">
<ele>958.84</ele>
<time>2015-11-22T05:36:05Z</time>
</trkpt>
<trkpt lat="31.1696056" lon="35.7038876">
<ele>957.76</ele>
<time>2015-11-22T05:36:07Z</time>
</trkpt>
<trkpt lat="31.1695577" lon="35.7038895">
<ele>957.49</ele>
<time>2015-11-22T05:36:09Z</time>
</trkpt>
<trkpt lat="31.1695092" lon="35.7038938">
<ele>956.67</ele>
<time>2015-11-22T05:36:11Z</time>
</trkpt>
<trkpt lat="31.1694595" lon="35.7038907">
<ele>956.47</ele>
<time>2015-11-22T05:36:13Z</time>
</trkpt>
<trkpt lat="31.1694116" lon="35.7038836">
<ele>956.91</ele>
<time>2015-11-22T05:36:15Z</time>
</trkpt>
<trkpt lat="31.1693644" lon="35.7038772">
<ele>957.28</ele>
<time>2015-11-22T05:36:17Z</time>
</trkpt>
<trkpt lat="31.1693177" lon="35.7038673">
<ele>957.37</ele>
<time>2015-11-22T05:36:19Z</time>
</trkpt>
<trkpt lat="31.1692705" lon="35.7038585">
<ele>958.14</ele>
<time>2015-11-22T05:36:21Z</time>
</trkpt>
<trkpt lat="31.1692244" lon="35.7038522">
<ele>958.33</ele>
<time>2015-11-22T05:36:23Z</time>
</trkpt>
<trkpt lat="31.1691783" lon="35.7038380">
<ele>957.63</ele>
<time>2015-11-22T05:36:25Z</time>
</trkpt>
<trkpt lat="31.1691328" lon="35.7038245">
<ele>958.21</ele>
<time>2015-11-22T05:36:27Z</time>
</trkpt>
<trkpt lat="31.1690873" lon="35.7038096">
<ele>958.35</ele>
<time>2015-11-22T05:36:29Z</time>
</trkpt>
<trkpt lat="31.1690425" lon="35.7037894">
<ele>958.14</ele>
<time>2015-11-22T05:36:31Z</time>
</trkpt>
<trkpt lat="31.1689973" lon="35.7037783">
<ele>957.58</ele>
<time>2015-11-22T05:36:33Z</time>
</trkpt>
<trkpt lat="31.1689324" lon="35.7037626">
<ele>957.55</ele>
<time>2015-11-22T05:36:36Z</time>
</trkpt>
<trkpt lat="31.1688809" lon="35.7037464">
<ele>956.42</ele>
<time>2015-11-22T05:36:39Z</time>
</trkpt>
<trkpt lat="31.1688325" lon="35.7037273">
<ele>957.27</ele>
<time>2015-11-22T05:36:42Z</time>
</trkpt>
<trkpt lat="31.1687826" lon="35.7037076">
<ele>958.01</ele>
<time>2015-11-22T05:36:45Z</time>
</trkpt>
<trkpt lat="31.1687390" lon="35.7036848">
<ele>957.60</ele>
<time>2015-11-22T05:36:48Z</time>
</trkpt>
<trkpt lat="31.1686927" lon="35.7036612">
<ele>956.92</ele>
<time>2015-11-22T05:36:51Z</time>
</trkpt>
<trkpt lat="31.1686433" lon="35.7036385">
<ele>956.96</ele>
<time>2015-11-22T05:36:54Z</time>
</trkpt>
<trkpt lat="31.1685930" lon="35.7036111">
<ele>959.47</ele>
<time>2015-11-22T05:36:57Z</time>
</trkpt>
<trkpt lat="31.1685421" lon="35.7035764">
<ele>961.03</ele>
<time>2015-11-22T05:37:00Z</time>
</trkpt>
<trkpt lat="31.1684913" lon="35.7035506">
<ele>962.10</ele>
<time>2015-11-22T05:37:03Z</time>
</trkpt>
<trkpt lat="31.1684423" lon="35.7035293">
<ele>962.36</ele>
<time>2015-11-22T05:37:06Z</time>
</trkpt>
<trkpt lat="31.1683962" lon="35.7035042">
<ele>962.14</ele>
<time>2015-11-22T05:37:09Z</time>
</trkpt>
<trkpt lat="31.1683443" lon="35.7034798">
<ele>961.12</ele>
<time>2015-11-22T05:37:12Z</time>
</trkpt>
<trkpt lat="31.1682932" lon="35.7034581">
<ele>960.61</ele>
<time>2015-11-22T05:37:15Z</time>
</trkpt>
<trkpt lat="31.1682407" lon="35.7034379">
<ele>960.17</ele>
<time>2015-11-22T05:37:18Z</time>
</trkpt>
<trkpt lat="31.1681862" lon="35.7034150">
<ele>961.99</ele>
<time>2015-11-22T05:37:21Z</time>
</trkpt>
<trkpt lat="31.1681335" lon="35.7033914">
<ele>963.10</ele>
<time>2015-11-22T05:37:24Z</time>
</trkpt>
<trkpt lat="31.1680824" lon="35.7033779">
<ele>962.23</ele>
<time>2015-11-22T05:37:27Z</time>
</trkpt>
<trkpt lat="31.1680326" lon="35.7033601">
<ele>964.25</ele>
<time>2015-11-22T05:37:30Z</time>
</trkpt>
<trkpt lat="31.1679836" lon="35.7033520">
<ele>964.88</ele>
<time>2015-11-22T05:37:33Z</time>
</trkpt>
<trkpt lat="31.1679336" lon="35.7033435">
<ele>964.33</ele>
<time>2015-11-22T05:37:36Z</time>
</trkpt>
<trkpt lat="31.1678833" lon="35.7033271">
<ele>961.26</ele>
<time>2015-11-22T05:37:39Z</time>
</trkpt>
<trkpt lat="31.1678290" lon="35.7033119">
<ele>960.38</ele>
<time>2015-11-22T05:37:42Z</time>
</trkpt>
<trkpt lat="31.1677707" lon="35.7032953">
<ele>960.39</ele>
<time>2015-11-22T05:37:45Z</time>
</trkpt>
<trkpt lat="31.1677075" lon="35.7032785">
<ele>960.27</ele>
<time>2015-11-22T05:37:48Z</time>
</trkpt>
<trkpt lat="31.1676626" lon="35.7032633">
<ele>960.37</ele>
<time>2015-11-22T05:37:50Z</time>
</trkpt>
<trkpt lat="31.1676169" lon="35.7032497">
<ele>960.89</ele>
<time>2015-11-22T05:37:52Z</time>
</trkpt>
<trkpt lat="31.1675688" lon="35.7032377">
<ele>962.02</ele>
<time>2015-11-22T05:37:54Z</time>
</trkpt>
<trkpt lat="31.1675228" lon="35.7032279">
<ele>960.80</ele>
<time>2015-11-22T05:37:56Z</time>
</trkpt>
<trkpt lat="31.1674746" lon="35.7032138">
<ele>962.00</ele>
<time>2015-11-22T05:37:58Z</time>
</trkpt>
<trkpt lat="31.1674280" lon="35.7031976">
<ele>961.55</ele>
<time>2015-11-22T05:38:00Z</time>
</trkpt>
<trkpt lat="31.1673816" lon="35.7031866">
<ele>960.93</ele>
<time>2015-11-22T05:38:02Z</time>
</trkpt>
<trkpt lat="31.1673337" lon="35.7031738">
<ele>961.78</ele>
<time>2015-11-22T05:38:04Z</time>
</trkpt>
<trkpt lat="31.1672869" lon="35.7031588">
<ele>961.74</ele>
<time>2015-11-22T05:38:06Z</time>
</trkpt>
<trkpt lat="31.1672416" lon="35.7031453">
<ele>963.48</ele>
<time>2015-11-22T05:38:08Z</time>
</trkpt>
<trkpt lat="31.1671973" lon="35.7031310">
<ele>963.17</ele>
<time>2015-11-22T05:38:10Z</time>
</trkpt>
<trkpt lat="31.1671509" lon="35.7031176">
<ele>963.34</ele>
<time>2015-11-22T05:38:12Z</time>
</trkpt>
<trkpt lat="31.1671041" lon="35.7031038">
<ele>964.38</ele>
<time>2015-11-22T05:38:14Z</time>
</trkpt>
<trkpt lat="31.1670568" lon="35.7030848">
<ele>964.14</ele>
<time>2015-11-22T05:38:16Z</time>
</trkpt>
<trkpt lat="31.1670104" lon="35.7030715">
<ele>962.83</ele>
<time>2015-11-22T05:38:18Z</time>
</trkpt>
<trkpt lat="31.1669468" lon="35.7030543">
<ele>962.20</ele>
<time>2015-11-22T05:38:21Z</time>
</trkpt>
<trkpt lat="31.1668882" lon="35.7030429">
<ele>964.37</ele>
<time>2015-11-22T05:38:24Z</time>
</trkpt>
<trkpt lat="31.1668301" lon="35.7030340">
<ele>963.27</ele>
<time>2015-11-22T05:38:27Z</time>
</trkpt>
<trkpt lat="31.1667741" lon="35.7030187">
<ele>962.26</ele>
<time>2015-11-22T05:38:30Z</time>
</trkpt>
<trkpt lat="31.1667174" lon="35.7029962">
<ele>963.63</ele>
<time>2015-11-22T05:38:33Z</time>
</trkpt>
<trkpt lat="31.1666593" lon="35.7029810">
<ele>963.55</ele>
<time>2015-11-22T05:38:36Z</time>
</trkpt>
<trkpt lat="31.1666007" lon="35.7029546">
<ele>962.42</ele>
<time>2015-11-22T05:38:39Z</time>
</trkpt>
<trkpt lat="31.1665592" lon="35.7029298">
<ele>961.90</ele>
<time>2015-11-22T05:38:41Z</time>
</trkpt>
<trkpt lat="31.1664947" lon="35.7029116">
<ele>977.21</ele>
<time>2015-11-22T05:38:44Z</time>
</trkpt>
<trkpt lat="31.1664314" lon="35.7028922">
<ele>988.87</ele>
<time>2015-11-22T05:38:47Z</time>
</trkpt>
<trkpt lat="31.1663715" lon="35.7028821">
<ele>993.33</ele>
<time>2015-11-22T05:38:50Z</time>
</trkpt>
<trkpt lat="31.1663125" lon="35.7028580">
<ele>996.39</ele>
<time>2015-11-22T05:38:53Z</time>
</trkpt>
<trkpt lat="31.1662530" lon="35.7028394">
<ele>996.40</ele>
<time>2015-11-22T05:38:56Z</time>
</trkpt>
<trkpt lat="31.1661951" lon="35.7028309">
<ele>996.40</ele>
<time>2015-11-22T05:38:59Z</time>
</trkpt>
<trkpt lat="31.1661360" lon="35.7028206">
<ele>997.27</ele>
<time>2015-11-22T05:39:02Z</time>
</trkpt>
<trkpt lat="31.1660756" lon="35.7028058">
<ele>998.13</ele>
<time>2015-11-22T05:39:05Z</time>
</trkpt>
<trkpt lat="31.1660174" lon="35.7027884">
<ele>998.74</ele>
<time>2015-11-22T05:39:08Z</time>
</trkpt>
<trkpt lat="31.1659578" lon="35.7027827">
<ele>999.19</ele>
<time>2015-11-22T05:39:11Z</time>
</trkpt>
<trkpt lat="31.1658999" lon="35.7027744">
<ele>979.37</ele>
<time>2015-11-22T05:39:14Z</time>
</trkpt>
<trkpt lat="31.1658417" lon="35.7027586">
<ele>972.27</ele>
<time>2015-11-22T05:39:17Z</time>
</trkpt>
<trkpt lat="31.1657870" lon="35.7027438">
<ele>972.88</ele>
<time>2015-11-22T05:39:20Z</time>
</trkpt>
<trkpt lat="31.1657313" lon="35.7027309">
<ele>973.58</ele>
<time>2015-11-22T05:39:23Z</time>
</trkpt>
<trkpt lat="31.1656776" lon="35.7027230">
<ele>976.30</ele>
<time>2015-11-22T05:39:26Z</time>
</trkpt>
<trkpt lat="31.1656265" lon="35.7027114">
<ele>975.63</ele>
<time>2015-11-22T05:39:29Z</time>
</trkpt>
<trkpt lat="31.1655783" lon="35.7026964">
<ele>974.68</ele>
<time>2015-11-22T05:39:32Z</time>
</trkpt>
<trkpt lat="31.1655281" lon="35.7026830">
<ele>973.93</ele>
<time>2015-11-22T05:39:35Z</time>
</trkpt>
<trkpt lat="31.1654788" lon="35.7026676">
<ele>973.46</ele>
<time>2015-11-22T05:39:38Z</time>
</trkpt>
<trkpt lat="31.1654307" lon="35.7026534">
<ele>973.91</ele>
<time>2015-11-22T05:39:41Z</time>
</trkpt>
<trkpt lat="31.1653806" lon="35.7026450">
<ele>974.09</ele>
<time>2015-11-22T05:39:44Z</time>
</trkpt>
<trkpt lat="31.1653313" lon="35.7026385">
<ele>973.36</ele>
<time>2015-11-22T05:39:47Z</time>
</trkpt>
<trkpt lat="31.1652807" lon="35.7026217">
<ele>972.89</ele>
<time>2015-11-22T05:39:50Z</time>
</trkpt>
<trkpt lat="31.1652299" lon="35.7025997">
<ele>974.33</ele>
<time>2015-11-22T05:39:53Z</time>
</trkpt>
<trkpt lat="31.1651783" lon="35.7025889">
<ele>974.01</ele>
<time>2015-11-22T05:39:56Z</time>
</trkpt>
<trkpt lat="31.1651259" lon="35.7025729">
<ele>971.85</ele>
<time>2015-11-22T05:39:59Z</time>
</trkpt>
<trkpt lat="31.1650744" lon="35.7025515">
<ele>972.83</ele>
<time>2015-11-22T05:40:02Z</time>
</trkpt>
<trkpt lat="31.1650195" lon="35.7025282">
<ele>974.08</ele>
<time>2015-11-22T05:40:05Z</time>
</trkpt>
<trkpt lat="31.1649637" lon="35.7025076">
<ele>975.48</ele>
<time>2015-11-22T05:40:08Z</time>
</trkpt>
<trkpt lat="31.1649115" lon="35.7024832">
<ele>975.78</ele>
<time>2015-11-22T05:40:11Z</time>
</trkpt>
<trkpt lat="31.1648573" lon="35.7024617">
<ele>975.57</ele>
<time>2015-11-22T05:40:14Z</time>
</trkpt>
<trkpt lat="31.1648023" lon="35.7024400">
<ele>976.42</ele>
<time>2015-11-22T05:40:17Z</time>
</trkpt>
<trkpt lat="31.1647466" lon="35.7024135">
<ele>974.77</ele>
<time>2015-11-22T05:40:20Z</time>
</trkpt>
<trkpt lat="31.1646894" lon="35.7023872">
<ele>975.19</ele>
<time>2015-11-22T05:40:23Z</time>
</trkpt>
<trkpt lat="31.1646325" lon="35.7023590">
<ele>977.00</ele>
<time>2015-11-22T05:40:26Z</time>
</trkpt>
<trkpt lat="31.1645732" lon="35.7023313">
<ele>977.22</ele>
<time>2015-11-22T05:40:29Z</time>
</trkpt>
<trkpt lat="31.1645189" lon="35.7022962">
<ele>978.13</ele>
<time>2015-11-22T05:40:32Z</time>
</trkpt>
<trkpt lat="31.1644637" lon="35.7022685">
<ele>978.11</ele>
<time>2015-11-22T05:40:35Z</time>
</trkpt>
<trkpt lat="31.1644132" lon="35.7022284">
<ele>980.74</ele>
<time>2015-11-22T05:40:38Z</time>
</trkpt>
<trkpt lat="31.1643605" lon="35.7021862">
<ele>981.81</ele>
<time>2015-11-22T05:40:41Z</time>
</trkpt>
<trkpt lat="31.1643266" lon="35.7021510">
<ele>981.00</ele>
<time>2015-11-22T05:40:43Z</time>
</trkpt>
<trkpt lat="31.1642909" lon="35.7021152">
<ele>981.80</ele>
<time>2015-11-22T05:40:45Z</time>
</trkpt>
<trkpt lat="31.1642561" lon="35.7020780">
<ele>982.75</ele>
<time>2015-11-22T05:40:47Z</time>
</trkpt>
<trkpt lat="31.1642203" lon="35.7020371">
<ele>983.98</ele>
<time>2015-11-22T05:40:49Z</time>
</trkpt>
<trkpt lat="31.1641830" lon="35.7019965">
<ele>985.04</ele>
<time>2015-11-22T05:40:51Z</time>
</trkpt>
<trkpt lat="31.1641451" lon="35.7019526">
<ele>987.06</ele>
<time>2015-11-22T05:40:53Z</time>
</trkpt>
<trkpt lat="31.1641054" lon="35.7019076">
<ele>986.06</ele>
<time>2015-11-22T05:40:55Z</time>
</trkpt>
<trkpt lat="31.1640600" lon="35.7018631">
<ele>985.31</ele>
<time>2015-11-22T05:40:57Z</time>
</trkpt>
<trkpt lat="31.1640160" lon="35.7018173">
<ele>984.63</ele>
<time>2015-11-22T05:40:59Z</time>
</trkpt>
<trkpt lat="31.1639723" lon="35.7017704">
<ele>984.70</ele>
<time>2015-11-22T05:41:01Z</time>
</trkpt>
<trkpt lat="31.1639270" lon="35.7017259">
<ele>985.47</ele>
<time>2015-11-22T05:41:03Z</time>
</trkpt>
<trkpt lat="31.1638848" lon="35.7016810">
<ele>985.17</ele>
<time>2015-11-22T05:41:05Z</time>
</trkpt>
<trkpt lat="31.1638452" lon="35.7016329">
<ele>984.34</ele>
<time>2015-11-22T05:41:07Z</time>
</trkpt>
<trkpt lat="31.1638047" lon="35.7015845">
<ele>983.13</ele>
<time>2015-11-22T05:41:09Z</time>
</trkpt>
<trkpt lat="31.1637628" lon="35.7015348">
<ele>983.33</ele>
<time>2015-11-22T05:41:11Z</time>
</trkpt>
<trkpt lat="31.1637203" lon="35.7014822">
<ele>983.63</ele>
<time>2015-11-22T05:41:13Z</time>
</trkpt>
<trkpt lat="31.1636788" lon="35.7014307">
<ele>982.21</ele>
<time>2015-11-22T05:41:15Z</time>
</trkpt>
<trkpt lat="31.1636362" lon="35.7013773">
<ele>984.60</ele>
<time>2015-11-22T05:41:17Z</time>
</trkpt>
<trkpt lat="31.1635926" lon="35.7013298">
<ele>983.70</ele>
<time>2015-11-22T05:41:19Z</time>
</trkpt>
<trkpt lat="31.1635550" lon="35.7012820">
<ele>980.72</ele>
<time>2015-11-22T05:41:21Z</time>
</trkpt>
<trkpt lat="31.1635196" lon="35.7012327">
<ele>981.73</ele>
<time>2015-11-22T05:41:23Z</time>
</trkpt>
<trkpt lat="31.1634792" lon="35.7011888">
<ele>981.98</ele>
<time>2015-11-22T05:41:25Z</time>
</trkpt>
<trkpt lat="31.1634394" lon="35.7011488">
<ele>984.29</ele>
<time>2015-11-22T05:41:27Z</time>
</trkpt>
<trkpt lat="31.1634048" lon="35.7011092">
<ele>985.37</ele>
<time>2015-11-22T05:41:29Z</time>
</trkpt>
<trkpt lat="31.1633699" lon="35.7010665">
<ele>984.64</ele>
<time>2015-11-22T05:41:31Z</time>
</trkpt>
<trkpt lat="31.1633294" lon="35.7010281">
<ele>983.96</ele>
<time>2015-11-22T05:41:33Z</time>
</trkpt>
<trkpt lat="31.1632828" lon="35.7009946">
<ele>983.79</ele>
<time>2015-11-22T05:41:35Z</time>
</trkpt>
<trkpt lat="31.1632395" lon="35.7009527">
<ele>985.74</ele>
<time>2015-11-22T05:41:37Z</time>
</trkpt>
<trkpt lat="31.1631969" lon="35.7009074">
<ele>987.73</ele>
<time>2015-11-22T05:41:39Z</time>
</trkpt>
<trkpt lat="31.1631540" lon="35.7008635">
<ele>989.98</ele>
<time>2015-11-22T05:41:41Z</time>
</trkpt>
<trkpt lat="31.1631125" lon="35.7008206">
<ele>986.79</ele>
<time>2015-11-22T05:41:43Z</time>
</trkpt>
<trkpt lat="31.1630753" lon="35.7007801">
<ele>985.50</ele>
<time>2015-11-22T05:41:45Z</time>
</trkpt>
<trkpt lat="31.1630397" lon="35.7007431">
<ele>983.92</ele>
<time>2015-11-22T05:41:47Z</time>
</trkpt>
<trkpt lat="31.1630074" lon="35.7007021">
<ele>983.53</ele>
<time>2015-11-22T05:41:49Z</time>
</trkpt>
<trkpt lat="31.1629741" lon="35.7006649">
<ele>981.68</ele>
<time>2015-11-22T05:41:51Z</time>
</trkpt>
<trkpt lat="31.1629424" lon="35.7006230">
<ele>979.47</ele>
<time>2015-11-22T05:41:53Z</time>
</trkpt>
<trkpt lat="31.1629136" lon="35.7005786">
<ele>978.16</ele>
<time>2015-11-22T05:41:55Z</time>
</trkpt>
<trkpt lat="31.1628813" lon="35.7005366">
<ele>977.59</ele>
<time>2015-11-22T05:41:57Z</time>
</trkpt>
<trkpt lat="31.1628451" lon="35.7005008">
<ele>978.99</ele>
<time>2015-11-22T05:41:59Z</time>
</trkpt>
<trkpt lat="31.1628093" lon="35.7004655">
<ele>982.55</ele>
<time>2015-11-22T05:42:01Z</time>
</trkpt>
<trkpt lat="31.1627747" lon="35.7004252">
<ele>986.68</ele>
<time>2015-11-22T05:42:03Z</time>
</trkpt>
<trkpt lat="31.1627394" lon="35.7003843">
<ele>990.22</ele>
<time>2015-11-22T05:42:05Z</time>
</trkpt>
<trkpt lat="31.1627035" lon="35.7003442">
<ele>987.85</ele>
<time>2015-11-22T05:42:07Z</time>
</trkpt>
<trkpt lat="31.1626668" lon="35.7003094">
<ele>985.26</ele>
<time>2015-11-22T05:42:09Z</time>
</trkpt>
<trkpt lat="31.1626181" lon="35.7002563">
<ele>984.63</ele>
<time>2015-11-22T05:42:12Z</time>
</trkpt>
<trkpt lat="31.1625685" lon="35.7002129">
<ele>983.93</ele>
<time>2015-11-22T05:42:15Z</time>
</trkpt>
<trkpt lat="31.1625176" lon="35.7001690">
<ele>987.96</ele>
<time>2015-11-22T05:42:18Z</time>
</trkpt>
<trkpt lat="31.1624661" lon="35.7001225">
<ele>988.59</ele>
<time>2015-11-22T05:42:21Z</time>
</trkpt>
<trkpt lat="31.1624282" lon="35.7000868">
<ele>989.45</ele>
<time>2015-11-22T05:42:23Z</time>
</trkpt>
<trkpt lat="31.1623905" lon="35.7000473">
<ele>990.91</ele>
<time>2015-11-22T05:42:25Z</time>
</trkpt>
<trkpt lat="31.1623536" lon="35.7000070">
<ele>988.53</ele>
<time>2015-11-22T05:42:27Z</time>
</trkpt>
<trkpt lat="31.1623163" lon="35.6999712">
<ele>987.43</ele>
<time>2015-11-22T05:42:29Z</time>
</trkpt>
<trkpt lat="31.1622737" lon="35.6999412">
<ele>985.91</ele>
<time>2015-11-22T05:42:31Z</time>
</trkpt>
<trkpt lat="31.1622326" lon="35.6999145">
<ele>984.27</ele>
<time>2015-11-22T05:42:33Z</time>
</trkpt>
<trkpt lat="31.1621905" lon="35.6998878">
<ele>982.87</ele>
<time>2015-11-22T05:42:35Z</time>
</trkpt>
<trkpt lat="31.1621487" lon="35.6998625">
<ele>980.76</ele>
<time>2015-11-22T05:42:37Z</time>
</trkpt>
<trkpt lat="31.1621062" lon="35.6998377">
<ele>981.49</ele>
<time>2015-11-22T05:42:39Z</time>
</trkpt>
<trkpt lat="31.1620623" lon="35.6998144">
<ele>980.67</ele>
<time>2015-11-22T05:42:41Z</time>
</trkpt>
<trkpt lat="31.1620183" lon="35.6997949">
<ele>980.22</ele>
<time>2015-11-22T05:42:43Z</time>
</trkpt>
<trkpt lat="31.1619729" lon="35.6997748">
<ele>980.60</ele>
<time>2015-11-22T05:42:45Z</time>
</trkpt>
<trkpt lat="31.1619258" lon="35.6997587">
<ele>980.95</ele>
<time>2015-11-22T05:42:47Z</time>
</trkpt>
<trkpt lat="31.1618807" lon="35.6997412">
<ele>982.53</ele>
<time>2015-11-22T05:42:49Z</time>
</trkpt>
<trkpt lat="31.1618362" lon="35.6997247">
<ele>984.68</ele>
<time>2015-11-22T05:42:51Z</time>
</trkpt>
<trkpt lat="31.1617903" lon="35.6997074">
<ele>986.22</ele>
<time>2015-11-22T05:42:53Z</time>
</trkpt>
<trkpt lat="31.1617438" lon="35.6996882">
<ele>983.85</ele>
<time>2015-11-22T05:42:55Z</time>
</trkpt>
<trkpt lat="31.1616967" lon="35.6996685">
<ele>981.51</ele>
<time>2015-11-22T05:42:57Z</time>
</trkpt>
<trkpt lat="31.1616505" lon="35.6996490">
<ele>979.68</ele>
<time>2015-11-22T05:42:59Z</time>
</trkpt>
<trkpt lat="31.1616033" lon="35.6996299">
<ele>982.22</ele>
<time>2015-11-22T05:43:01Z</time>
</trkpt>
<trkpt lat="31.1615564" lon="35.6996117">
<ele>982.35</ele>
<time>2015-11-22T05:43:03Z</time>
</trkpt>
<trkpt lat="31.1615093" lon="35.6995939">
<ele>983.14</ele>
<time>2015-11-22T05:43:05Z</time>
</trkpt>
<trkpt lat="31.1614636" lon="35.6995817">
<ele>984.08</ele>
<time>2015-11-22T05:43:07Z</time>
</trkpt>
<trkpt lat="31.1614181" lon="35.6995698">
<ele>985.07</ele>
<time>2015-11-22T05:43:09Z</time>
</trkpt>
<trkpt lat="31.1613724" lon="35.6995574">
<ele>986.56</ele>
<time>2015-11-22T05:43:11Z</time>
</trkpt>
<trkpt lat="31.1613256" lon="35.6995459">
<ele>989.19</ele>
<time>2015-11-22T05:43:13Z</time>
</trkpt>
<trkpt lat="31.1612812" lon="35.6995358">
<ele>992.34</ele>
<time>2015-11-22T05:43:15Z</time>
</trkpt>
<trkpt lat="31.1612361" lon="35.6995353">
<ele>993.88</ele>
<time>2015-11-22T05:43:17Z</time>
</trkpt>
<trkpt lat="31.1611908" lon="35.6995248">
<ele>996.02</ele>
<time>2015-11-22T05:43:19Z</time>
</trkpt>
<trkpt lat="31.1611452" lon="35.6995072">
<ele>992.80</ele>
<time>2015-11-22T05:43:21Z</time>
</trkpt>
<trkpt lat="31.1610976" lon="35.6994898">
<ele>993.25</ele>
<time>2015-11-22T05:43:23Z</time>
</trkpt>
<trkpt lat="31.1610493" lon="35.6994788">
<ele>992.86</ele>
<time>2015-11-22T05:43:25Z</time>
</trkpt>
<trkpt lat="31.1610021" lon="35.6994753">
<ele>992.76</ele>
<time>2015-11-22T05:43:27Z</time>
</trkpt>
<trkpt lat="31.1609376" lon="35.6994640">
<ele>993.07</ele>
<time>2015-11-22T05:43:30Z</time>
</trkpt>
<trkpt lat="31.1608935" lon="35.6994537">
<ele>989.06</ele>
<time>2015-11-22T05:43:32Z</time>
</trkpt>
<trkpt lat="31.1608299" lon="35.6994360">
<ele>991.23</ele>
<time>2015-11-22T05:43:35Z</time>
</trkpt>
<trkpt lat="31.1607646" lon="35.6994181">
<ele>992.25</ele>
<time>2015-11-22T05:43:38Z</time>
</trkpt>
<trkpt lat="31.1607186" lon="35.6994089">
<ele>994.61</ele>
<time>2015-11-22T05:43:40Z</time>
</trkpt>
<trkpt lat="31.1606737" lon="35.6993967">
<ele>1002.20</ele>
<time>2015-11-22T05:43:42Z</time>
</trkpt>
<trkpt lat="31.1606299" lon="35.6993834">
<ele>1011.60</ele>
<time>2015-11-22T05:43:44Z</time>
</trkpt>
<trkpt lat="31.1605654" lon="35.6993616">
<ele>1010.55</ele>
<time>2015-11-22T05:43:47Z</time>
</trkpt>
<trkpt lat="31.1605215" lon="35.6993487">
<ele>1010.93</ele>
<time>2015-11-22T05:43:49Z</time>
</trkpt>
<trkpt lat="31.1604567" lon="35.6993318">
<ele>1008.59</ele>
<time>2015-11-22T05:43:52Z</time>
</trkpt>
<trkpt lat="31.1604120" lon="35.6993267">
<ele>1008.95</ele>
<time>2015-11-22T05:43:54Z</time>
</trkpt>
<trkpt lat="31.1603480" lon="35.6993174">
<ele>1008.59</ele>
<time>2015-11-22T05:43:57Z</time>
</trkpt>
<trkpt lat="31.1602832" lon="35.6993013">
<ele>1009.67</ele>
<time>2015-11-22T05:44:00Z</time>
</trkpt>
<trkpt lat="31.1602185" lon="35.6992881">
<ele>1010.56</ele>
<time>2015-11-22T05:44:03Z</time>
</trkpt>
<trkpt lat="31.1601546" lon="35.6992782">
<ele>1010.29</ele>
<time>2015-11-22T05:44:06Z</time>
</trkpt>
<trkpt lat="31.1600931" lon="35.6992626">
<ele>1011.51</ele>
<time>2015-11-22T05:44:09Z</time>
</trkpt>
<trkpt lat="31.1600293" lon="35.6992482">
<ele>1011.91</ele>
<time>2015-11-22T05:44:12Z</time>
</trkpt>
<trkpt lat="31.1599847" lon="35.6992403">
<ele>1012.53</ele>
<time>2015-11-22T05:44:14Z</time>
</trkpt>
<trkpt lat="31.1599178" lon="35.6992266">
<ele>1014.91</ele>
<time>2015-11-22T05:44:17Z</time>
</trkpt>
<trkpt lat="31.1598544" lon="35.6992106">
<ele>1018.21</ele>
<time>2015-11-22T05:44:20Z</time>
</trkpt>
<trkpt lat="31.1597928" lon="35.6991930">
<ele>1019.25</ele>
<time>2015-11-22T05:44:23Z</time>
</trkpt>
<trkpt lat="31.1597314" lon="35.6991750">
<ele>1020.75</ele>
<time>2015-11-22T05:44:26Z</time>
</trkpt>
<trkpt lat="31.1596672" lon="35.6991573">
<ele>1020.44</ele>
<time>2015-11-22T05:44:29Z</time>
</trkpt>
<trkpt lat="31.1596072" lon="35.6991399">
<ele>1020.53</ele>
<time>2015-11-22T05:44:32Z</time>
</trkpt>
<trkpt lat="31.1595456" lon="35.6991271">
<ele>1020.66</ele>
<time>2015-11-22T05:44:35Z</time>
</trkpt>
<trkpt lat="31.1594835" lon="35.6991153">
<ele>1021.06</ele>
<time>2015-11-22T05:44:38Z</time>
</trkpt>
<trkpt lat="31.1594277" lon="35.6991016">
<ele>1020.48</ele>
<time>2015-11-22T05:44:41Z</time>
</trkpt>
<trkpt lat="31.1593752" lon="35.6990892">
<ele>1018.41</ele>
<time>2015-11-22T05:44:44Z</time>
</trkpt>
<trkpt lat="31.1593198" lon="35.6990740">
<ele>1019.77</ele>
<time>2015-11-22T05:44:47Z</time>
</trkpt>
<trkpt lat="31.1592614" lon="35.6990635">
<ele>1017.94</ele>
<time>2015-11-22T05:44:50Z</time>
</trkpt>
<trkpt lat="31.1592038" lon="35.6990511">
<ele>1018.84</ele>
<time>2015-11-22T05:44:53Z</time>
</trkpt>
<trkpt lat="31.1591477" lon="35.6990382">
<ele>1021.45</ele>
<time>2015-11-22T05:44:56Z</time>
</trkpt>
<trkpt lat="31.1590916" lon="35.6990309">
<ele>1019.78</ele>
<time>2015-11-22T05:44:59Z</time>
</trkpt>
<trkpt lat="31.1590342" lon="35.6990150">
<ele>1021.69</ele>
<time>2015-11-22T05:45:02Z</time>
</trkpt>
<trkpt lat="31.1589773" lon="35.6989983">
<ele>1021.06</ele>
<time>2015-11-22T05:45:05Z</time>
</trkpt>
<trkpt lat="31.1589191" lon="35.6989836">
<ele>1019.73</ele>
<time>2015-11-22T05:45:08Z</time>
</trkpt>
<trkpt lat="31.1588652" lon="35.6989726">
<ele>1018.81</ele>
<time>2015-11-22T05:45:11Z</time>
</trkpt>
<trkpt lat="31.1588108" lon="35.6989597">
<ele>1018.57</ele>
<time>2015-11-22T05:45:14Z</time>
</trkpt>
<trkpt lat="31.1587569" lon="35.6989469">
<ele>1018.92</ele>
<time>2015-11-22T05:45:17Z</time>
</trkpt>
<trkpt lat="31.1587025" lon="35.6989322">
<ele>1020.96</ele>
<time>2015-11-22T05:45:20Z</time>
</trkpt>
<trkpt lat="31.1586458" lon="35.6989165">
<ele>1022.59</ele>
<time>2015-11-22T05:45:23Z</time>
</trkpt>
<trkpt lat="31.1585899" lon="35.6989028">
<ele>1025.30</ele>
<time>2015-11-22T05:45:26Z</time>
</trkpt>
<trkpt lat="31.1585356" lon="35.6988856">
<ele>1026.01</ele>
<time>2015-11-22T05:45:29Z</time>
</trkpt>
<trkpt lat="31.1584818" lon="35.6988653">
<ele>1024.47</ele>
<time>2015-11-22T05:45:32Z</time>
</trkpt>
<trkpt lat="31.1584237" lon="35.6988454">
<ele>1019.53</ele>
<time>2015-11-22T05:45:35Z</time>
</trkpt>
<trkpt lat="31.1583676" lon="35.6988297">
<ele>1017.16</ele>
<time>2015-11-22T05:45:38Z</time>
</trkpt>
<trkpt lat="31.1583137" lon="35.6988071">
<ele>1019.37</ele>
<time>2015-11-22T05:45:41Z</time>
</trkpt>
<trkpt lat="31.1582605" lon="35.6987879">
<ele>1018.89</ele>
<time>2015-11-22T05:45:44Z</time>
</trkpt>
<trkpt lat="31.1582085" lon="35.6987668">
<ele>1016.21</ele>
<time>2015-11-22T05:45:47Z</time>
</trkpt>
<trkpt lat="31.1581543" lon="35.6987456">
<ele>1018.50</ele>
<time>2015-11-22T05:45:50Z</time>
</trkpt>
<trkpt lat="31.1580977" lon="35.6987283">
<ele>1021.28</ele>
<time>2015-11-22T05:45:53Z</time>
</trkpt>
<trkpt lat="31.1580404" lon="35.6987087">
<ele>1025.63</ele>
<time>2015-11-22T05:45:56Z</time>
</trkpt>
<trkpt lat="31.1579814" lon="35.6986907">
<ele>1028.80</ele>
<time>2015-11-22T05:45:59Z</time>
</trkpt>
<trkpt lat="31.1579295" lon="35.6986630">
<ele>1026.95</ele>
<time>2015-11-22T05:46:02Z</time>
</trkpt>
<trkpt lat="31.1578784" lon="35.6986363">
<ele>1024.97</ele>
<time>2015-11-22T05:46:05Z</time>
</trkpt>
<trkpt lat="31.1578289" lon="35.6986070">
<ele>1025.84</ele>
<time>2015-11-22T05:46:08Z</time>
</trkpt>
<trkpt lat="31.1577758" lon="35.6985831">
<ele>1024.83</ele>
<time>2015-11-22T05:46:11Z</time>
</trkpt>
<trkpt lat="31.1577220" lon="35.6985576">
<ele>1024.20</ele>
<time>2015-11-22T05:46:14Z</time>
</trkpt>
<trkpt lat="31.1576712" lon="35.6985306">
<ele>1023.87</ele>
<time>2015-11-22T05:46:17Z</time>
</trkpt>
<trkpt lat="31.1576158" lon="35.6985066">
<ele>1023.71</ele>
<time>2015-11-22T05:46:20Z</time>
</trkpt>
<trkpt lat="31.1575575" lon="35.6984825">
<ele>1024.44</ele>
<time>2015-11-22T05:46:23Z</time>
</trkpt>
<trkpt lat="31.1574961" lon="35.6984574">
<ele>1024.28</ele>
<time>2015-11-22T05:46:26Z</time>
</trkpt>
<trkpt lat="31.1574326" lon="35.6984344">
<ele>1028.26</ele>
<time>2015-11-22T05:46:29Z</time>
</trkpt>
<trkpt lat="31.1573907" lon="35.6984146">
<ele>1026.86</ele>
<time>2015-11-22T05:46:31Z</time>
</trkpt>
<trkpt lat="31.1573462" lon="35.6983946">
<ele>1023.01</ele>
<time>2015-11-22T05:46:33Z</time>
</trkpt>
<trkpt lat="31.1573020" lon="35.6983744">
<ele>1022.80</ele>
<time>2015-11-22T05:46:35Z</time>
</trkpt>
<trkpt lat="31.1572550" lon="35.6983603">
<ele>1023.50</ele>
<time>2015-11-22T05:46:37Z</time>
</trkpt>
<trkpt lat="31.1572088" lon="35.6983463">
<ele>1028.42</ele>
<time>2015-11-22T05:46:39Z</time>
</trkpt>
<trkpt lat="31.1571662" lon="35.6983256">
<ele>1028.40</ele>
<time>2015-11-22T05:46:41Z</time>
</trkpt>
<trkpt lat="31.1571046" lon="35.6982990">
<ele>1028.52</ele>
<time>2015-11-22T05:46:44Z</time>
</trkpt>
<trkpt lat="31.1570434" lon="35.6982755">
<ele>1027.16</ele>
<time>2015-11-22T05:46:47Z</time>
</trkpt>
<trkpt lat="31.1569831" lon="35.6982486">
<ele>1029.12</ele>
<time>2015-11-22T05:46:50Z</time>
</trkpt>
<trkpt lat="31.1569231" lon="35.6982193">
<ele>1032.61</ele>
<time>2015-11-22T05:46:53Z</time>
</trkpt>
<trkpt lat="31.1568655" lon="35.6981913">
<ele>1032.42</ele>
<time>2015-11-22T05:46:56Z</time>
</trkpt>
<trkpt lat="31.1568046" lon="35.6981650">
<ele>1034.53</ele>
<time>2015-11-22T05:46:59Z</time>
</trkpt>
<trkpt lat="31.1567618" lon="35.6981434">
<ele>1036.68</ele>
<time>2015-11-22T05:47:01Z</time>
</trkpt>
<trkpt lat="31.1567189" lon="35.6981227">
<ele>1037.22</ele>
<time>2015-11-22T05:47:03Z</time>
</trkpt>
<trkpt lat="31.1566585" lon="35.6980908">
<ele>1037.37</ele>
<time>2015-11-22T05:47:06Z</time>
</trkpt>
<trkpt lat="31.1565999" lon="35.6980598">
<ele>1036.89</ele>
<time>2015-11-22T05:47:09Z</time>
</trkpt>
<trkpt lat="31.1565380" lon="35.6980346">
<ele>1036.21</ele>
<time>2015-11-22T05:47:12Z</time>
</trkpt>
<trkpt lat="31.1564745" lon="35.6980244">
<ele>1026.12</ele>
<time>2015-11-22T05:47:15Z</time>
</trkpt>
<trkpt lat="31.1564107" lon="35.6980132">
<ele>1022.24</ele>
<time>2015-11-22T05:47:18Z</time>
</trkpt>
<trkpt lat="31.1563454" lon="35.6980098">
<ele>1022.63</ele>
<time>2015-11-22T05:47:21Z</time>
</trkpt>
<trkpt lat="31.1562788" lon="35.6980081">
<ele>1023.55</ele>
<time>2015-11-22T05:47:24Z</time>
</trkpt>
<trkpt lat="31.1562119" lon="35.6980100">
<ele>1021.29</ele>
<time>2015-11-22T05:47:27Z</time>
</trkpt>
<trkpt lat="31.1561668" lon="35.6980126">
<ele>1021.37</ele>
<time>2015-11-22T05:47:29Z</time>
</trkpt>
<trkpt lat="31.1561002" lon="35.6980143">
<ele>1021.14</ele>
<time>2015-11-22T05:47:32Z</time>
</trkpt>
<trkpt lat="31.1560379" lon="35.6980153">
<ele>1021.37</ele>
<time>2015-11-22T05:47:35Z</time>
</trkpt>
<trkpt lat="31.1559764" lon="35.6980286">
<ele>1019.89</ele>
<time>2015-11-22T05:47:38Z</time>
</trkpt>
<trkpt lat="31.1559146" lon="35.6980560">
<ele>1020.21</ele>
<time>2015-11-22T05:47:41Z</time>
</trkpt>
<trkpt lat="31.1558537" lon="35.6980814">
<ele>1022.50</ele>
<time>2015-11-22T05:47:44Z</time>
</trkpt>
<trkpt lat="31.1557927" lon="35.6981192">
<ele>1022.66</ele>
<time>2015-11-22T05:47:47Z</time>
</trkpt>
<trkpt lat="31.1557521" lon="35.6981447">
<ele>1022.71</ele>
<time>2015-11-22T05:47:49Z</time>
</trkpt>
<trkpt lat="31.1556918" lon="35.6981783">
<ele>1029.56</ele>
<time>2015-11-22T05:47:52Z</time>
</trkpt>
<trkpt lat="31.1556321" lon="35.6982070">
<ele>1030.54</ele>
<time>2015-11-22T05:47:55Z</time>
</trkpt>
<trkpt lat="31.1555771" lon="35.6982240">
<ele>1032.42</ele>
<time>2015-11-22T05:47:58Z</time>
</trkpt>
<trkpt lat="31.1555298" lon="35.6982433">
<ele>1031.15</ele>
<time>2015-11-22T05:48:01Z</time>
</trkpt>
<trkpt lat="31.1554837" lon="35.6982536">
<ele>1023.99</ele>
<time>2015-11-22T05:48:04Z</time>
</trkpt>
<trkpt lat="31.1554268" lon="35.6982694">
<ele>1028.12</ele>
<time>2015-11-22T05:48:08Z</time>
</trkpt>
<trkpt lat="31.1553724" lon="35.6982963">
<ele>1034.19</ele>
<time>2015-11-22T05:48:12Z</time>
</trkpt>
<trkpt lat="31.1553292" lon="35.6983216">
<ele>1031.37</ele>
<time>2015-11-22T05:48:15Z</time>
</trkpt>
<trkpt lat="31.1552849" lon="35.6983396">
<ele>1028.64</ele>
<time>2015-11-22T05:48:18Z</time>
</trkpt>
<trkpt lat="31.1552305" lon="35.6983685">
<ele>1030.54</ele>
<time>2015-11-22T05:48:22Z</time>
</trkpt>
<trkpt lat="31.1551734" lon="35.6983922">
<ele>1030.22</ele>
<time>2015-11-22T05:48:26Z</time>
</trkpt>
<trkpt lat="31.1551203" lon="35.6984113">
<ele>1031.70</ele>
<time>2015-11-22T05:48:30Z</time>
</trkpt>
<trkpt lat="31.1550685" lon="35.6984352">
<ele>1025.79</ele>
<time>2015-11-22T05:48:34Z</time>
</trkpt>
<trkpt lat="31.1550249" lon="35.6984576">
<ele>1025.95</ele>
<time>2015-11-22T05:48:37Z</time>
</trkpt>
<trkpt lat="31.1549829" lon="35.6984803">
<ele>1030.97</ele>
<time>2015-11-22T05:48:40Z</time>
</trkpt>
<trkpt lat="31.1549366" lon="35.6984992">
<ele>1042.97</ele>
<time>2015-11-22T05:48:43Z</time>
</trkpt>
<trkpt lat="31.1548866" lon="35.6985171">
<ele>1061.72</ele>
<time>2015-11-22T05:48:46Z</time>
</trkpt>
<trkpt lat="31.1548359" lon="35.6985369">
<ele>1068.81</ele>
<time>2015-11-22T05:48:49Z</time>
</trkpt>
<trkpt lat="31.1547865" lon="35.6985581">
<ele>1072.82</ele>
<time>2015-11-22T05:48:52Z</time>
</trkpt>
<trkpt lat="31.1547389" lon="35.6985772">
<ele>1074.70</ele>
<time>2015-11-22T05:48:55Z</time>
</trkpt>
<trkpt lat="31.1546935" lon="35.6985950">
<ele>1076.68</ele>
<time>2015-11-22T05:48:58Z</time>
</trkpt>
<trkpt lat="31.1546434" lon="35.6986137">
<ele>1077.06</ele>
<time>2015-11-22T05:49:01Z</time>
</trkpt>
<trkpt lat="31.1545910" lon="35.6986333">
<ele>1078.73</ele>
<time>2015-11-22T05:49:04Z</time>
</trkpt>
<trkpt lat="31.1545365" lon="35.6986600">
<ele>1079.19</ele>
<time>2015-11-22T05:49:07Z</time>
</trkpt>
<trkpt lat="31.1544836" lon="35.6986879">
<ele>1079.25</ele>
<time>2015-11-22T05:49:10Z</time>
</trkpt>
<trkpt lat="31.1544306" lon="35.6987119">
<ele>1080.75</ele>
<time>2015-11-22T05:49:13Z</time>
</trkpt>
<trkpt lat="31.1543787" lon="35.6987352">
<ele>1080.57</ele>
<time>2015-11-22T05:49:16Z</time>
</trkpt>
<trkpt lat="31.1543234" lon="35.6987564">
<ele>1081.79</ele>
<time>2015-11-22T05:49:19Z</time>
</trkpt>
<trkpt lat="31.1542723" lon="35.6987855">
<ele>1082.20</ele>
<time>2015-11-22T05:49:22Z</time>
</trkpt>
<trkpt lat="31.1542227" lon="35.6988109">
<ele>1082.37</ele>
<time>2015-11-22T05:49:25Z</time>
</trkpt>
<trkpt lat="31.1541768" lon="35.6988297">
<ele>1082.52</ele>
<time>2015-11-22T05:49:28Z</time>
</trkpt>
<trkpt lat="31.1541271" lon="35.6988481">
<ele>1082.66</ele>
<time>2015-11-22T05:49:31Z</time>
</trkpt>
<trkpt lat="31.1540725" lon="35.6988676">
<ele>1082.56</ele>
<time>2015-11-22T05:49:34Z</time>
</trkpt>
<trkpt lat="31.1540235" lon="35.6988951">
<ele>1082.42</ele>
<time>2015-11-22T05:49:37Z</time>
</trkpt>
<trkpt lat="31.1539802" lon="35.6989175">
<ele>1082.40</ele>
<time>2015-11-22T05:49:40Z</time>
</trkpt>
<trkpt lat="31.1539386" lon="35.6989454">
<ele>1081.52</ele>
<time>2015-11-22T05:49:43Z</time>
</trkpt>
<trkpt lat="31.1538941" lon="35.6989676">
<ele>1081.41</ele>
<time>2015-11-22T05:49:46Z</time>
</trkpt>
<trkpt lat="31.1538436" lon="35.6989818">
<ele>1081.40</ele>
<time>2015-11-22T05:49:49Z</time>
</trkpt>
<trkpt lat="31.1537945" lon="35.6990048">
<ele>1080.15</ele>
<time>2015-11-22T05:49:52Z</time>
</trkpt>
<trkpt lat="31.1537456" lon="35.6990372">
<ele>1079.74</ele>
<time>2015-11-22T05:49:55Z</time>
</trkpt>
<trkpt lat="31.1536981" lon="35.6990643">
<ele>1080.31</ele>
<time>2015-11-22T05:49:58Z</time>
</trkpt>
<trkpt lat="31.1536491" lon="35.6990891">
<ele>1082.89</ele>
<time>2015-11-22T05:50:01Z</time>
</trkpt>
<trkpt lat="31.1535964" lon="35.6991118">
<ele>1083.33</ele>
<time>2015-11-22T05:50:04Z</time>
</trkpt>
<trkpt lat="31.1535421" lon="35.6991362">
<ele>1084.64</ele>
<time>2015-11-22T05:50:07Z</time>
</trkpt>
<trkpt lat="31.1534921" lon="35.6991642">
<ele>1083.18</ele>
<time>2015-11-22T05:50:10Z</time>
</trkpt>
<trkpt lat="31.1534438" lon="35.6991907">
<ele>1084.24</ele>
<time>2015-11-22T05:50:13Z</time>
</trkpt>
<trkpt lat="31.1533860" lon="35.6992076">
<ele>1085.50</ele>
<time>2015-11-22T05:50:16Z</time>
</trkpt>
<trkpt lat="31.1533311" lon="35.6992286">
<ele>1085.91</ele>
<time>2015-11-22T05:50:19Z</time>
</trkpt>
<trkpt lat="31.1532816" lon="35.6992484">
<ele>1085.59</ele>
<time>2015-11-22T05:50:22Z</time>
</trkpt>
<trkpt lat="31.1532369" lon="35.6992635">
<ele>1086.30</ele>
<time>2015-11-22T05:50:25Z</time>
</trkpt>
<trkpt lat="31.1531913" lon="35.6992760">
<ele>1087.26</ele>
<time>2015-11-22T05:50:28Z</time>
</trkpt>
<trkpt lat="31.1531449" lon="35.6992854">
<ele>1090.25</ele>
<time>2015-11-22T05:50:31Z</time>
</trkpt>
<trkpt lat="31.1530995" lon="35.6993039">
<ele>1091.75</ele>
<time>2015-11-22T05:50:34Z</time>
</trkpt>
<trkpt lat="31.1530545" lon="35.6993282">
<ele>1091.44</ele>
<time>2015-11-22T05:50:37Z</time>
</trkpt>
<trkpt lat="31.1530045" lon="35.6993522">
<ele>1092.03</ele>
<time>2015-11-22T05:50:40Z</time>
</trkpt>
<trkpt lat="31.1529603" lon="35.6993781">
<ele>1093.73</ele>
<time>2015-11-22T05:50:43Z</time>
</trkpt>
<trkpt lat="31.1529148" lon="35.6993939">
<ele>1095.06</ele>
<time>2015-11-22T05:50:46Z</time>
</trkpt>
<trkpt lat="31.1528668" lon="35.6994148">
<ele>1094.48</ele>
<time>2015-11-22T05:50:49Z</time>
</trkpt>
<trkpt lat="31.1528150" lon="35.6994400">
<ele>1094.41</ele>
<time>2015-11-22T05:50:52Z</time>
</trkpt>
<trkpt lat="31.1527674" lon="35.6994679">
<ele>1093.52</ele>
<time>2015-11-22T05:50:55Z</time>
</trkpt>
<trkpt lat="31.1527200" lon="35.6994944">
<ele>1091.79</ele>
<time>2015-11-22T05:50:58Z</time>
</trkpt>
<trkpt lat="31.1526787" lon="35.6995182">
<ele>1090.82</ele>
<time>2015-11-22T05:51:01Z</time>
</trkpt>
<trkpt lat="31.1526328" lon="35.6995433">
<ele>1092.07</ele>
<time>2015-11-22T05:51:04Z</time>
</trkpt>
<trkpt lat="31.1525839" lon="35.6995636">
<ele>1093.23</ele>
<time>2015-11-22T05:51:07Z</time>
</trkpt>
<trkpt lat="31.1525368" lon="35.6995849">
<ele>1092.88</ele>
<time>2015-11-22T05:51:10Z</time>
</trkpt>
<trkpt lat="31.1524928" lon="35.6996069">
<ele>1092.96</ele>
<time>2015-11-22T05:51:13Z</time>
</trkpt>
<trkpt lat="31.1524477" lon="35.6996210">
<ele>1092.47</ele>
<time>2015-11-22T05:51:16Z</time>
</trkpt>
<trkpt lat="31.1524014" lon="35.6996447">
<ele>1093.16</ele>
<time>2015-11-22T05:51:19Z</time>
</trkpt>
<trkpt lat="31.1523516" lon="35.6996620">
<ele>1094.12</ele>
<time>2015-11-22T05:51:22Z</time>
</trkpt>
<trkpt lat="31.1522974" lon="35.6996793">
<ele>1095.24</ele>
<time>2015-11-22T05:51:25Z</time>
</trkpt>
<trkpt lat="31.1522541" lon="35.6997078">
<ele>1095.50</ele>
<time>2015-11-22T05:51:28Z</time>
</trkpt>
<trkpt lat="31.1522081" lon="35.6997322">
<ele>1097.54</ele>
<time>2015-11-22T05:51:31Z</time>
</trkpt>
<trkpt lat="31.1521585" lon="35.6997581">
<ele>1097.91</ele>
<time>2015-11-22T05:51:34Z</time>
</trkpt>
<trkpt lat="31.1521091" lon="35.6997808">
<ele>1098.84</ele>
<time>2015-11-22T05:51:37Z</time>
</trkpt>
<trkpt lat="31.1520580" lon="35.6997992">
<ele>1098.95</ele>
<time>2015-11-22T05:51:40Z</time>
</trkpt>
<trkpt lat="31.1520072" lon="35.6998146">
<ele>1099.97</ele>
<time>2015-11-22T05:51:43Z</time>
</trkpt>
<trkpt lat="31.1519586" lon="35.6998395">
<ele>1101.22</ele>
<time>2015-11-22T05:51:46Z</time>
</trkpt>
<trkpt lat="31.1519067" lon="35.6998584">
<ele>1101.00</ele>
<time>2015-11-22T05:51:49Z</time>
</trkpt>
<trkpt lat="31.1518557" lon="35.6998740">
<ele>1101.60</ele>
<time>2015-11-22T05:51:52Z</time>
</trkpt>
<trkpt lat="31.1518095" lon="35.6999021">
<ele>1102.30</ele>
<time>2015-11-22T05:51:55Z</time>
</trkpt>
<trkpt lat="31.1517610" lon="35.6999253">
<ele>1103.13</ele>
<time>2015-11-22T05:51:58Z</time>
</trkpt>
<trkpt lat="31.1517161" lon="35.6999549">
<ele>1104.24</ele>
<time>2015-11-22T05:52:01Z</time>
</trkpt>
<trkpt lat="31.1516736" lon="35.6999832">
<ele>1104.75</ele>
<time>2015-11-22T05:52:04Z</time>
</trkpt>
<trkpt lat="31.1516351" lon="35.7000126">
<ele>1104.57</ele>
<time>2015-11-22T05:52:07Z</time>
</trkpt>
<trkpt lat="31.1515900" lon="35.7000356">
<ele>1105.29</ele>
<time>2015-11-22T05:52:10Z</time>
</trkpt>
<trkpt lat="31.1515475" lon="35.7000576">
<ele>1104.01</ele>
<time>2015-11-22T05:52:13Z</time>
</trkpt>
<trkpt lat="31.1514998" lon="35.7000706">
<ele>1102.60</ele>
<time>2015-11-22T05:52:16Z</time>
</trkpt>
<trkpt lat="31.1514548" lon="35.7000887">
<ele>1101.55</ele>
<time>2015-11-22T05:52:19Z</time>
</trkpt>
<trkpt lat="31.1514118" lon="35.7001136">
<ele>1101.79</ele>
<time>2015-11-22T05:52:22Z</time>
</trkpt>
<trkpt lat="31.1513669" lon="35.7001407">
<ele>1102.82</ele>
<time>2015-11-22T05:52:25Z</time>
</trkpt>
<trkpt lat="31.1513141" lon="35.7001635">
<ele>1104.95</ele>
<time>2015-11-22T05:52:28Z</time>
</trkpt>
<trkpt lat="31.1512602" lon="35.7001924">
<ele>1106.72</ele>
<time>2015-11-22T05:52:31Z</time>
</trkpt>
<trkpt lat="31.1512062" lon="35.7002219">
<ele>1106.81</ele>
<time>2015-11-22T05:52:34Z</time>
</trkpt>
<trkpt lat="31.1511492" lon="35.7002473">
<ele>1106.82</ele>
<time>2015-11-22T05:52:37Z</time>
</trkpt>
<trkpt lat="31.1510952" lon="35.7002721">
<ele>1108.70</ele>
<time>2015-11-22T05:52:40Z</time>
</trkpt>
<trkpt lat="31.1510454" lon="35.7002937">
<ele>1109.31</ele>
<time>2015-11-22T05:52:43Z</time>
</trkpt>
<trkpt lat="31.1509974" lon="35.7003170">
<ele>1108.51</ele>
<time>2015-11-22T05:52:46Z</time>
</trkpt>
<trkpt lat="31.1509523" lon="35.7003399">
<ele>1108.41</ele>
<time>2015-11-22T05:52:49Z</time>
</trkpt>
<trkpt lat="31.1509031" lon="35.7003588">
<ele>1108.90</ele>
<time>2015-11-22T05:52:52Z</time>
</trkpt>
<trkpt lat="31.1508544" lon="35.7003810">
<ele>1109.83</ele>
<time>2015-11-22T05:52:55Z</time>
</trkpt>
<trkpt lat="31.1508081" lon="35.7004011">
<ele>1110.83</ele>
<time>2015-11-22T05:52:58Z</time>
</trkpt>
<trkpt lat="31.1507619" lon="35.7004153">
<ele>1111.83</ele>
<time>2015-11-22T05:53:01Z</time>
</trkpt>
<trkpt lat="31.1507128" lon="35.7004335">
<ele>1112.33</ele>
<time>2015-11-22T05:53:04Z</time>
</trkpt>
<trkpt lat="31.1506669" lon="35.7004509">
<ele>1112.39</ele>
<time>2015-11-22T05:53:07Z</time>
</trkpt>
<trkpt lat="31.1506151" lon="35.7004661">
<ele>1112.40</ele>
<time>2015-11-22T05:53:10Z</time>
</trkpt>
<trkpt lat="31.1505638" lon="35.7004772">
<ele>1112.65</ele>
<time>2015-11-22T05:53:13Z</time>
</trkpt>
<trkpt lat="31.1505117" lon="35.7004925">
<ele>1112.43</ele>
<time>2015-11-22T05:53:16Z</time>
</trkpt>
<trkpt lat="31.1504623" lon="35.7005088">
<ele>1112.28</ele>
<time>2015-11-22T05:53:19Z</time>
</trkpt>
<trkpt lat="31.1504138" lon="35.7005338">
<ele>1111.51</ele>
<time>2015-11-22T05:53:22Z</time>
</trkpt>
<trkpt lat="31.1503635" lon="35.7005413">
<ele>1110.91</ele>
<time>2015-11-22T05:53:25Z</time>
</trkpt>
<trkpt lat="31.1503161" lon="35.7005453">
<ele>1111.21</ele>
<time>2015-11-22T05:53:28Z</time>
</trkpt>
<trkpt lat="31.1502690" lon="35.7005526">
<ele>1111.50</ele>
<time>2015-11-22T05:53:31Z</time>
</trkpt>
<trkpt lat="31.1502176" lon="35.7005589">
<ele>1114.53</ele>
<time>2015-11-22T05:53:34Z</time>
</trkpt>
<trkpt lat="31.1501687" lon="35.7005644">
<ele>1113.16</ele>
<time>2015-11-22T05:53:37Z</time>
</trkpt>
<trkpt lat="31.1501181" lon="35.7005694">
<ele>1113.12</ele>
<time>2015-11-22T05:53:40Z</time>
</trkpt>
<trkpt lat="31.1500667" lon="35.7005668">
<ele>1113.36</ele>
<time>2015-11-22T05:53:43Z</time>
</trkpt>
<trkpt lat="31.1500131" lon="35.7005683">
<ele>1114.64</ele>
<time>2015-11-22T05:53:46Z</time>
</trkpt>
<trkpt lat="31.1499645" lon="35.7005562">
<ele>1114.93</ele>
<time>2015-11-22T05:53:49Z</time>
</trkpt>
<trkpt lat="31.1499138" lon="35.7005547">
<ele>1116.34</ele>
<time>2015-11-22T05:53:52Z</time>
</trkpt>
<trkpt lat="31.1498633" lon="35.7005455">
<ele>1116.26</ele>
<time>2015-11-22T05:53:55Z</time>
</trkpt>
<trkpt lat="31.1498116" lon="35.7005242">
<ele>1118.38</ele>
<time>2015-11-22T05:53:58Z</time>
</trkpt>
<trkpt lat="31.1497654" lon="35.7005062">
<ele>1119.27</ele>
<time>2015-11-22T05:54:01Z</time>
</trkpt>
<trkpt lat="31.1497234" lon="35.7004827">
<ele>1118.88</ele>
<time>2015-11-22T05:54:04Z</time>
</trkpt>
<trkpt lat="31.1496869" lon="35.7004436">
<ele>1119.21</ele>
<time>2015-11-22T05:54:07Z</time>
</trkpt>
<trkpt lat="31.1496508" lon="35.7003937">
<ele>1118.00</ele>
<time>2015-11-22T05:54:10Z</time>
</trkpt>
<trkpt lat="31.1496203" lon="35.7003536">
<ele>1117.27</ele>
<time>2015-11-22T05:54:38Z</time>
</trkpt>
<trkpt lat="31.1495694" lon="35.7003354">
<ele>1115.95</ele>
<time>2015-11-22T05:54:42Z</time>
</trkpt>
<trkpt lat="31.1495249" lon="35.7002884">
<ele>1117.62</ele>
<time>2015-11-22T05:54:46Z</time>
</trkpt>
<trkpt lat="31.1494801" lon="35.7002637">
<ele>1118.05</ele>
<time>2015-11-22T05:54:49Z</time>
</trkpt>
<trkpt lat="31.1494344" lon="35.7002412">
<ele>1117.60</ele>
<time>2015-11-22T05:54:52Z</time>
</trkpt>
<trkpt lat="31.1493890" lon="35.7002297">
<ele>1118.42</ele>
<time>2015-11-22T05:54:55Z</time>
</trkpt>
<trkpt lat="31.1493396" lon="35.7002082">
<ele>1117.52</ele>
<time>2015-11-22T05:54:59Z</time>
</trkpt>
<trkpt lat="31.1492853" lon="35.7001865">
<ele>1117.87</ele>
<time>2015-11-22T05:55:04Z</time>
</trkpt>
<trkpt lat="31.1492328" lon="35.7001686">
<ele>1119.83</ele>
<time>2015-11-22T05:55:07Z</time>
</trkpt>
<trkpt lat="31.1492301" lon="35.7001127">
<ele>1119.79</ele>
<time>2015-11-22T05:55:21Z</time>
</trkpt>
<trkpt lat="31.1492352" lon="35.7001683">
<ele>1116.66</ele>
<time>2015-11-22T05:59:41Z</time>
</trkpt>
<trkpt lat="31.1492425" lon="35.7002228">
<ele>1117.43</ele>
<time>2015-11-22T05:59:49Z</time>
</trkpt>
<trkpt lat="31.1492834" lon="35.7001996">
<ele>1111.15</ele>
<time>2015-11-22T06:02:01Z</time>
</trkpt>
<trkpt lat="31.1492494" lon="35.7002436">
<ele>1116.84</ele>
<time>2015-11-22T06:16:33Z</time>
</trkpt>
<trkpt lat="31.1492005" lon="35.7002322">
<ele>1117.17</ele>
<time>2015-11-22T06:16:37Z</time>
</trkpt>
<trkpt lat="31.1491450" lon="35.7002155">
<ele>1118.99</ele>
<time>2015-11-22T06:16:40Z</time>
</trkpt>
<trkpt lat="31.1491015" lon="35.7001987">
<ele>1119.80</ele>
<time>2015-11-22T06:16:42Z</time>
</trkpt>
<trkpt lat="31.1490579" lon="35.7001807">
<ele>1121.00</ele>
<time>2015-11-22T06:16:44Z</time>
</trkpt>
<trkpt lat="31.1490112" lon="35.7001618">
<ele>1121.30</ele>
<time>2015-11-22T06:16:46Z</time>
</trkpt>
<trkpt lat="31.1489652" lon="35.7001432">
<ele>1121.37</ele>
<time>2015-11-22T06:16:48Z</time>
</trkpt>
<trkpt lat="31.1489190" lon="35.7001247">
<ele>1121.39</ele>
<time>2015-11-22T06:16:50Z</time>
</trkpt>
<trkpt lat="31.1488738" lon="35.7001118">
<ele>1122.65</ele>
<time>2015-11-22T06:16:52Z</time>
</trkpt>
<trkpt lat="31.1488108" lon="35.7000835">
<ele>1122.96</ele>
<time>2015-11-22T06:16:55Z</time>
</trkpt>
<trkpt lat="31.1487477" lon="35.7000593">
<ele>1123.34</ele>
<time>2015-11-22T06:16:58Z</time>
</trkpt>
<trkpt lat="31.1486889" lon="35.7000286">
<ele>1122.64</ele>
<time>2015-11-22T06:17:01Z</time>
</trkpt>
<trkpt lat="31.1486456" lon="35.7000102">
<ele>1122.96</ele>
<time>2015-11-22T06:17:03Z</time>
</trkpt>
<trkpt lat="31.1486003" lon="35.6999882">
<ele>1123.29</ele>
<time>2015-11-22T06:17:05Z</time>
</trkpt>
<trkpt lat="31.1485547" lon="35.6999638">
<ele>1122.62</ele>
<time>2015-11-22T06:17:07Z</time>
</trkpt>
<trkpt lat="31.1485072" lon="35.6999423">
<ele>1122.45</ele>
<time>2015-11-22T06:17:09Z</time>
</trkpt>
<trkpt lat="31.1484582" lon="35.6999212">
<ele>1122.16</ele>
<time>2015-11-22T06:17:11Z</time>
</trkpt>
<trkpt lat="31.1484065" lon="35.6999031">
<ele>1122.34</ele>
<time>2015-11-22T06:17:13Z</time>
</trkpt>
<trkpt lat="31.1483520" lon="35.6998796">
<ele>1122.88</ele>
<time>2015-11-22T06:17:15Z</time>
</trkpt>
<trkpt lat="31.1482971" lon="35.6998562">
<ele>1124.02</ele>
<time>2015-11-22T06:17:17Z</time>
</trkpt>
<trkpt lat="31.1482390" lon="35.6998332">
<ele>1124.30</ele>
<time>2015-11-22T06:17:19Z</time>
</trkpt>
<trkpt lat="31.1481781" lon="35.6998072">
<ele>1124.62</ele>
<time>2015-11-22T06:17:21Z</time>
</trkpt>
<trkpt lat="31.1481116" lon="35.6997779">
<ele>1123.95</ele>
<time>2015-11-22T06:17:23Z</time>
</trkpt>
<trkpt lat="31.1480450" lon="35.6997487">
<ele>1123.54</ele>
<time>2015-11-22T06:17:25Z</time>
</trkpt>
<trkpt lat="31.1479826" lon="35.6997141">
<ele>1123.43</ele>
<time>2015-11-22T06:17:27Z</time>
</trkpt>
<trkpt lat="31.1479206" lon="35.6996826">
<ele>1122.91</ele>
<time>2015-11-22T06:17:29Z</time>
</trkpt>
<trkpt lat="31.1478247" lon="35.6996412">
<ele>1123.77</ele>
<time>2015-11-22T06:17:32Z</time>
</trkpt>
<trkpt lat="31.1477616" lon="35.6996108">
<ele>1124.24</ele>
<time>2015-11-22T06:17:34Z</time>
</trkpt>
<trkpt lat="31.1477016" lon="35.6995808">
<ele>1123.86</ele>
<time>2015-11-22T06:17:36Z</time>
</trkpt>
<trkpt lat="31.1476430" lon="35.6995535">
<ele>1123.51</ele>
<time>2015-11-22T06:17:38Z</time>
</trkpt>
<trkpt lat="31.1475796" lon="35.6995294">
<ele>1124.18</ele>
<time>2015-11-22T06:17:40Z</time>
</trkpt>
<trkpt lat="31.1475121" lon="35.6995090">
<ele>1124.34</ele>
<time>2015-11-22T06:17:42Z</time>
</trkpt>
<trkpt lat="31.1474494" lon="35.6994844">
<ele>1124.38</ele>
<time>2015-11-22T06:17:44Z</time>
</trkpt>
<trkpt lat="31.1473873" lon="35.6994645">
<ele>1125.64</ele>
<time>2015-11-22T06:17:46Z</time>
</trkpt>
<trkpt lat="31.1473246" lon="35.6994520">
<ele>1127.71</ele>
<time>2015-11-22T06:17:48Z</time>
</trkpt>
<trkpt lat="31.1472545" lon="35.6994436">
<ele>1126.72</ele>
<time>2015-11-22T06:17:50Z</time>
</trkpt>
<trkpt lat="31.1471812" lon="35.6994365">
<ele>1126.23</ele>
<time>2015-11-22T06:17:52Z</time>
</trkpt>
<trkpt lat="31.1471068" lon="35.6994273">
<ele>1125.60</ele>
<time>2015-11-22T06:17:54Z</time>
</trkpt>
<trkpt lat="31.1470312" lon="35.6994204">
<ele>1126.20</ele>
<time>2015-11-22T06:17:56Z</time>
</trkpt>
<trkpt lat="31.1469572" lon="35.6994135">
<ele>1126.35</ele>
<time>2015-11-22T06:17:58Z</time>
</trkpt>
<trkpt lat="31.1468835" lon="35.6994066">
<ele>1126.38</ele>
<time>2015-11-22T06:18:00Z</time>
</trkpt>
<trkpt lat="31.1468114" lon="35.6994038">
<ele>1126.14</ele>
<time>2015-11-22T06:18:02Z</time>
</trkpt>
<trkpt lat="31.1467384" lon="35.6994014">
<ele>1126.08</ele>
<time>2015-11-22T06:18:04Z</time>
</trkpt>
<trkpt lat="31.1466642" lon="35.6993975">
<ele>1126.07</ele>
<time>2015-11-22T06:18:06Z</time>
</trkpt>
<trkpt lat="31.1465909" lon="35.6993906">
<ele>1126.31</ele>
<time>2015-11-22T06:18:08Z</time>
</trkpt>
<trkpt lat="31.1465198" lon="35.6993867">
<ele>1126.38</ele>
<time>2015-11-22T06:18:10Z</time>
</trkpt>
<trkpt lat="31.1464494" lon="35.6993860">
<ele>1126.64</ele>
<time>2015-11-22T06:18:12Z</time>
</trkpt>
<trkpt lat="31.1463756" lon="35.6993780">
<ele>1128.21</ele>
<time>2015-11-22T06:18:14Z</time>
</trkpt>
<trkpt lat="31.1463005" lon="35.6993724">
<ele>1128.85</ele>
<time>2015-11-22T06:18:16Z</time>
</trkpt>
<trkpt lat="31.1462274" lon="35.6993687">
<ele>1129.26</ele>
<time>2015-11-22T06:18:18Z</time>
</trkpt>
<trkpt lat="31.1461559" lon="35.6993669">
<ele>1130.11</ele>
<time>2015-11-22T06:18:20Z</time>
</trkpt>
<trkpt lat="31.1460882" lon="35.6993668">
<ele>1131.08</ele>
<time>2015-11-22T06:18:22Z</time>
</trkpt>
<trkpt lat="31.1460220" lon="35.6993635">
<ele>1130.82</ele>
<time>2015-11-22T06:18:24Z</time>
</trkpt>
<trkpt lat="31.1459606" lon="35.6993598">
<ele>1130.00</ele>
<time>2015-11-22T06:18:26Z</time>
</trkpt>
<trkpt lat="31.1459039" lon="35.6993604">
<ele>1129.05</ele>
<time>2015-11-22T06:18:28Z</time>
</trkpt>
<trkpt lat="31.1458582" lon="35.6993581">
<ele>1129.31</ele>
<time>2015-11-22T06:18:30Z</time>
</trkpt>
<trkpt lat="31.1457964" lon="35.6993541">
<ele>1129.51</ele>
<time>2015-11-22T06:18:33Z</time>
</trkpt>
<trkpt lat="31.1457379" lon="35.6993522">
<ele>1129.41</ele>
<time>2015-11-22T06:18:36Z</time>
</trkpt>
<trkpt lat="31.1456822" lon="35.6993468">
<ele>1129.40</ele>
<time>2015-11-22T06:18:39Z</time>
</trkpt>
<trkpt lat="31.1456251" lon="35.6993381">
<ele>1128.77</ele>
<time>2015-11-22T06:18:42Z</time>
</trkpt>
<trkpt lat="31.1455656" lon="35.6993363">
<ele>1129.32</ele>
<time>2015-11-22T06:18:45Z</time>
</trkpt>
<trkpt lat="31.1455034" lon="35.6993406">
<ele>1129.89</ele>
<time>2015-11-22T06:18:48Z</time>
</trkpt>
<trkpt lat="31.1454417" lon="35.6993411">
<ele>1130.33</ele>
<time>2015-11-22T06:18:51Z</time>
</trkpt>
<trkpt lat="31.1453808" lon="35.6993438">
<ele>1130.89</ele>
<time>2015-11-22T06:18:54Z</time>
</trkpt>
<trkpt lat="31.1453204" lon="35.6993445">
<ele>1131.33</ele>
<time>2015-11-22T06:18:57Z</time>
</trkpt>
<trkpt lat="31.1452569" lon="35.6993388">
<ele>1131.39</ele>
<time>2015-11-22T06:19:00Z</time>
</trkpt>
<trkpt lat="31.1451938" lon="35.6993420">
<ele>1131.90</ele>
<time>2015-11-22T06:19:03Z</time>
</trkpt>
<trkpt lat="31.1451301" lon="35.6993401">
<ele>1131.46</ele>
<time>2015-11-22T06:19:06Z</time>
</trkpt>
<trkpt lat="31.1450668" lon="35.6993369">
<ele>1132.15</ele>
<time>2015-11-22T06:19:09Z</time>
</trkpt>
<trkpt lat="31.1450015" lon="35.6993329">
<ele>1132.37</ele>
<time>2015-11-22T06:19:12Z</time>
</trkpt>
<trkpt lat="31.1449546" lon="35.6993301">
<ele>1132.89</ele>
<time>2015-11-22T06:19:14Z</time>
</trkpt>
<trkpt lat="31.1449081" lon="35.6993315">
<ele>1132.52</ele>
<time>2015-11-22T06:19:16Z</time>
</trkpt>
<trkpt lat="31.1448629" lon="35.6993320">
<ele>1133.18</ele>
<time>2015-11-22T06:19:18Z</time>
</trkpt>
<trkpt lat="31.1447958" lon="35.6993334">
<ele>1133.37</ele>
<time>2015-11-22T06:19:21Z</time>
</trkpt>
<trkpt lat="31.1447302" lon="35.6993270">
<ele>1134.14</ele>
<time>2015-11-22T06:19:24Z</time>
</trkpt>
<trkpt lat="31.1446651" lon="35.6993192">
<ele>1134.74</ele>
<time>2015-11-22T06:19:27Z</time>
</trkpt>
<trkpt lat="31.1445987" lon="35.6993150">
<ele>1136.06</ele>
<time>2015-11-22T06:19:30Z</time>
</trkpt>
<trkpt lat="31.1445520" lon="35.6993129">
<ele>1136.56</ele>
<time>2015-11-22T06:19:32Z</time>
</trkpt>
<trkpt lat="31.1445056" lon="35.6993136">
<ele>1136.94</ele>
<time>2015-11-22T06:19:34Z</time>
</trkpt>
<trkpt lat="31.1444586" lon="35.6993132">
<ele>1137.28</ele>
<time>2015-11-22T06:19:36Z</time>
</trkpt>
<trkpt lat="31.1444130" lon="35.6993064">
<ele>1137.37</ele>
<time>2015-11-22T06:19:38Z</time>
</trkpt>
<trkpt lat="31.1443680" lon="35.6993037">
<ele>1137.39</ele>
<time>2015-11-22T06:19:40Z</time>
</trkpt>
<trkpt lat="31.1443209" lon="35.6993019">
<ele>1137.40</ele>
<time>2015-11-22T06:19:42Z</time>
</trkpt>
<trkpt lat="31.1442742" lon="35.6993020">
<ele>1138.15</ele>
<time>2015-11-22T06:19:44Z</time>
</trkpt>
<trkpt lat="31.1442291" lon="35.6993055">
<ele>1138.33</ele>
<time>2015-11-22T06:19:46Z</time>
</trkpt>
<trkpt lat="31.1441641" lon="35.6993069">
<ele>1138.14</ele>
<time>2015-11-22T06:19:49Z</time>
</trkpt>
<trkpt lat="31.1440969" lon="35.6993002">
<ele>1138.36</ele>
<time>2015-11-22T06:19:52Z</time>
</trkpt>
<trkpt lat="31.1440312" lon="35.6992965">
<ele>1138.39</ele>
<time>2015-11-22T06:19:55Z</time>
</trkpt>
<trkpt lat="31.1439659" lon="35.6992926">
<ele>1138.40</ele>
<time>2015-11-22T06:19:58Z</time>
</trkpt>
<trkpt lat="31.1439202" lon="35.6992910">
<ele>1138.15</ele>
<time>2015-11-22T06:20:00Z</time>
</trkpt>
<trkpt lat="31.1438731" lon="35.6992917">
<ele>1138.83</ele>
<time>2015-11-22T06:20:02Z</time>
</trkpt>
<trkpt lat="31.1438243" lon="35.6992964">
<ele>1139.26</ele>
<time>2015-11-22T06:20:04Z</time>
</trkpt>
<trkpt lat="31.1437743" lon="35.6992987">
<ele>1139.36</ele>
<time>2015-11-22T06:20:06Z</time>
</trkpt>
<trkpt lat="31.1437228" lon="35.6992949">
<ele>1139.89</ele>
<time>2015-11-22T06:20:08Z</time>
</trkpt>
<trkpt lat="31.1436707" lon="35.6992932">
<ele>1140.77</ele>
<time>2015-11-22T06:20:10Z</time>
</trkpt>
<trkpt lat="31.1436176" lon="35.6992933">
<ele>1141.24</ele>
<time>2015-11-22T06:20:12Z</time>
</trkpt>
<trkpt lat="31.1435614" lon="35.6992963">
<ele>1141.36</ele>
<time>2015-11-22T06:20:14Z</time>
</trkpt>
<trkpt lat="31.1435003" lon="35.6992935">
<ele>1141.89</ele>
<time>2015-11-22T06:20:16Z</time>
</trkpt>
<trkpt lat="31.1434389" lon="35.6992916">
<ele>1142.27</ele>
<time>2015-11-22T06:20:18Z</time>
</trkpt>
<trkpt lat="31.1433790" lon="35.6992928">
<ele>1143.12</ele>
<time>2015-11-22T06:20:20Z</time>
</trkpt>
<trkpt lat="31.1433182" lon="35.6992911">
<ele>1143.33</ele>
<time>2015-11-22T06:20:22Z</time>
</trkpt>
<trkpt lat="31.1432551" lon="35.6992892">
<ele>1143.38</ele>
<time>2015-11-22T06:20:24Z</time>
</trkpt>
<trkpt lat="31.1431912" lon="35.6992868">
<ele>1143.89</ele>
<time>2015-11-22T06:20:26Z</time>
</trkpt>
<trkpt lat="31.1431270" lon="35.6992874">
<ele>1143.52</ele>
<time>2015-11-22T06:20:28Z</time>
</trkpt>
<trkpt lat="31.1430651" lon="35.6992832">
<ele>1143.43</ele>
<time>2015-11-22T06:20:30Z</time>
</trkpt>
<trkpt lat="31.1430048" lon="35.6992784">
<ele>1143.40</ele>
<time>2015-11-22T06:20:32Z</time>
</trkpt>
<trkpt lat="31.1429458" lon="35.6992774">
<ele>1143.40</ele>
<time>2015-11-22T06:20:34Z</time>
</trkpt>
<trkpt lat="31.1428858" lon="35.6992748">
<ele>1143.40</ele>
<time>2015-11-22T06:20:36Z</time>
</trkpt>
<trkpt lat="31.1428227" lon="35.6992755">
<ele>1144.65</ele>
<time>2015-11-22T06:20:38Z</time>
</trkpt>
<trkpt lat="31.1427577" lon="35.6992785">
<ele>1145.21</ele>
<time>2015-11-22T06:20:40Z</time>
</trkpt>
<trkpt lat="31.1426913" lon="35.6992811">
<ele>1146.10</ele>
<time>2015-11-22T06:20:42Z</time>
</trkpt>
<trkpt lat="31.1426223" lon="35.6992830">
<ele>1145.82</ele>
<time>2015-11-22T06:20:44Z</time>
</trkpt>
<trkpt lat="31.1425536" lon="35.6992794">
<ele>1145.50</ele>
<time>2015-11-22T06:20:46Z</time>
</trkpt>
<trkpt lat="31.1424858" lon="35.6992764">
<ele>1144.92</ele>
<time>2015-11-22T06:20:48Z</time>
</trkpt>
<trkpt lat="31.1424180" lon="35.6992731">
<ele>1145.28</ele>
<time>2015-11-22T06:20:50Z</time>
</trkpt>
<trkpt lat="31.1423483" lon="35.6992683">
<ele>1144.87</ele>
<time>2015-11-22T06:20:52Z</time>
</trkpt>
<trkpt lat="31.1422782" lon="35.6992635">
<ele>1145.01</ele>
<time>2015-11-22T06:20:54Z</time>
</trkpt>
<trkpt lat="31.1422095" lon="35.6992561">
<ele>1145.05</ele>
<time>2015-11-22T06:20:56Z</time>
</trkpt>
<trkpt lat="31.1421402" lon="35.6992468">
<ele>1145.31</ele>
<time>2015-11-22T06:20:58Z</time>
</trkpt>
<trkpt lat="31.1420712" lon="35.6992342">
<ele>1146.13</ele>
<time>2015-11-22T06:21:00Z</time>
</trkpt>
<trkpt lat="31.1420023" lon="35.6992204">
<ele>1146.08</ele>
<time>2015-11-22T06:21:02Z</time>
</trkpt>
<trkpt lat="31.1419317" lon="35.6992040">
<ele>1145.82</ele>
<time>2015-11-22T06:21:04Z</time>
</trkpt>
<trkpt lat="31.1418613" lon="35.6991834">
<ele>1136.75</ele>
<time>2015-11-22T06:21:06Z</time>
</trkpt>
<trkpt lat="31.1417914" lon="35.6991634">
<ele>1130.24</ele>
<time>2015-11-22T06:21:08Z</time>
</trkpt>
<trkpt lat="31.1417234" lon="35.6991389">
<ele>1128.11</ele>
<time>2015-11-22T06:21:10Z</time>
</trkpt>
<trkpt lat="31.1416542" lon="35.6991170">
<ele>1126.57</ele>
<time>2015-11-22T06:21:12Z</time>
</trkpt>
<trkpt lat="31.1415819" lon="35.6991007">
<ele>1126.94</ele>
<time>2015-11-22T06:21:14Z</time>
</trkpt>
<trkpt lat="31.1415072" lon="35.6990791">
<ele>1125.78</ele>
<time>2015-11-22T06:21:16Z</time>
</trkpt>
<trkpt lat="31.1414333" lon="35.6990551">
<ele>1122.74</ele>
<time>2015-11-22T06:21:18Z</time>
</trkpt>
<trkpt lat="31.1413601" lon="35.6990296">
<ele>1120.98</ele>
<time>2015-11-22T06:21:20Z</time>
</trkpt>
<trkpt lat="31.1412839" lon="35.6990101">
<ele>1122.29</ele>
<time>2015-11-22T06:21:22Z</time>
</trkpt>
<trkpt lat="31.1412070" lon="35.6989904">
<ele>1125.12</ele>
<time>2015-11-22T06:21:24Z</time>
</trkpt>
<trkpt lat="31.1411278" lon="35.6989670">
<ele>1124.58</ele>
<time>2015-11-22T06:21:26Z</time>
</trkpt>
<trkpt lat="31.1410500" lon="35.6989414">
<ele>1125.44</ele>
<time>2015-11-22T06:21:28Z</time>
</trkpt>
<trkpt lat="31.1409783" lon="35.6989161">
<ele>1126.16</ele>
<time>2015-11-22T06:21:30Z</time>
</trkpt>
<trkpt lat="31.1409141" lon="35.6988938">
<ele>1126.09</ele>
<time>2015-11-22T06:21:32Z</time>
</trkpt>
<trkpt lat="31.1408750" lon="35.6988460">
<ele>1124.82</ele>
<time>2015-11-22T06:21:34Z</time>
</trkpt>
<trkpt lat="31.1408711" lon="35.6987833">
<ele>1125.75</ele>
<time>2015-11-22T06:21:36Z</time>
</trkpt>
<trkpt lat="31.1408788" lon="35.6987306">
<ele>1127.49</ele>
<time>2015-11-22T06:21:38Z</time>
</trkpt>
<trkpt lat="31.1408674" lon="35.6986576">
<ele>1127.53</ele>
<time>2015-11-22T06:21:41Z</time>
</trkpt>
<trkpt lat="31.1408433" lon="35.6986070">
<ele>1125.54</ele>
<time>2015-11-22T06:21:44Z</time>
</trkpt>
<trkpt lat="31.1407966" lon="35.6986066">
<ele>1115.96</ele>
<time>2015-11-22T06:21:59Z</time>
</trkpt>
<trkpt lat="31.1407421" lon="35.6986173">
<ele>1119.80</ele>
<time>2015-11-22T06:22:18Z</time>
</trkpt>
<trkpt lat="31.1407002" lon="35.6986541">
<ele>1119.07</ele>
<time>2015-11-22T06:22:21Z</time>
</trkpt>
<trkpt lat="31.1406465" lon="35.6986898">
<ele>1120.23</ele>
<time>2015-11-22T06:22:24Z</time>
</trkpt>
<trkpt lat="31.1405988" lon="35.6986940">
<ele>1118.11</ele>
<time>2015-11-22T06:22:26Z</time>
</trkpt>
<trkpt lat="31.1405495" lon="35.6987043">
<ele>1117.57</ele>
<time>2015-11-22T06:22:28Z</time>
</trkpt>
<trkpt lat="31.1404971" lon="35.6987173">
<ele>1119.19</ele>
<time>2015-11-22T06:22:30Z</time>
</trkpt>
<trkpt lat="31.1404463" lon="35.6987145">
<ele>1121.10</ele>
<time>2015-11-22T06:22:32Z</time>
</trkpt>
<trkpt lat="31.1403998" lon="35.6987052">
<ele>1123.32</ele>
<time>2015-11-22T06:22:34Z</time>
</trkpt>
<trkpt lat="31.1403354" lon="35.6987002">
<ele>1124.64</ele>
<time>2015-11-22T06:22:37Z</time>
</trkpt>
<trkpt lat="31.1402710" lon="35.6987061">
<ele>1124.43</ele>
<time>2015-11-22T06:22:40Z</time>
</trkpt>
<trkpt lat="31.1402240" lon="35.6987000">
<ele>1122.90</ele>
<time>2015-11-22T06:22:42Z</time>
</trkpt>
<trkpt lat="31.1401726" lon="35.6986858">
<ele>1122.52</ele>
<time>2015-11-22T06:22:44Z</time>
</trkpt>
<trkpt lat="31.1401226" lon="35.6986614">
<ele>1123.18</ele>
<time>2015-11-22T06:22:46Z</time>
</trkpt>
<trkpt lat="31.1400712" lon="35.6986425">
<ele>1123.34</ele>
<time>2015-11-22T06:22:48Z</time>
</trkpt>
<trkpt lat="31.1400176" lon="35.6986230">
<ele>1124.38</ele>
<time>2015-11-22T06:22:50Z</time>
</trkpt>
<trkpt lat="31.1399564" lon="35.6985976">
<ele>1125.89</ele>
<time>2015-11-22T06:22:52Z</time>
</trkpt>
<trkpt lat="31.1398820" lon="35.6985641">
<ele>1125.02</ele>
<time>2015-11-22T06:22:54Z</time>
</trkpt>
<trkpt lat="31.1398019" lon="35.6985334">
<ele>1125.30</ele>
<time>2015-11-22T06:22:56Z</time>
</trkpt>
<trkpt lat="31.1397183" lon="35.6985044">
<ele>1124.62</ele>
<time>2015-11-22T06:22:58Z</time>
</trkpt>
<trkpt lat="31.1396346" lon="35.6984760">
<ele>1123.70</ele>
<time>2015-11-22T06:23:00Z</time>
</trkpt>
<trkpt lat="31.1395484" lon="35.6984503">
<ele>1123.22</ele>
<time>2015-11-22T06:23:02Z</time>
</trkpt>
<trkpt lat="31.1394921" lon="35.6984302">
<ele>1123.31</ele>
<time>2015-11-22T06:23:03Z</time>
</trkpt>
<trkpt lat="31.1394451" lon="35.6984097">
<ele>1123.85</ele>
<time>2015-11-22T06:23:04Z</time>
</trkpt>
<trkpt lat="31.1393980" lon="35.6983911">
<ele>1123.63</ele>
<time>2015-11-22T06:23:05Z</time>
</trkpt>
<trkpt lat="31.1393391" lon="35.6983769">
<ele>1123.01</ele>
<time>2015-11-22T06:23:06Z</time>
</trkpt>
<trkpt lat="31.1392525" lon="35.6983550">
<ele>1122.80</ele>
<time>2015-11-22T06:23:08Z</time>
</trkpt>
<trkpt lat="31.1391708" lon="35.6983286">
<ele>1121.25</ele>
<time>2015-11-22T06:23:10Z</time>
</trkpt>
<trkpt lat="31.1390872" lon="35.6983004">
<ele>1121.36</ele>
<time>2015-11-22T06:23:12Z</time>
</trkpt>
<trkpt lat="31.1390394" lon="35.6982803">
<ele>1121.88</ele>
<time>2015-11-22T06:23:13Z</time>
</trkpt>
<trkpt lat="31.1389942" lon="35.6982707">
<ele>1122.14</ele>
<time>2015-11-22T06:23:14Z</time>
</trkpt>
<trkpt lat="31.1389466" lon="35.6982577">
<ele>1122.77</ele>
<time>2015-11-22T06:23:15Z</time>
</trkpt>
<trkpt lat="31.1388876" lon="35.6982462">
<ele>1123.08</ele>
<time>2015-11-22T06:23:16Z</time>
</trkpt>
<trkpt lat="31.1388396" lon="35.6982362">
<ele>1123.74</ele>
<time>2015-11-22T06:23:17Z</time>
</trkpt>
<trkpt lat="31.1387948" lon="35.6982230">
<ele>1125.07</ele>
<time>2015-11-22T06:23:18Z</time>
</trkpt>
<trkpt lat="31.1387499" lon="35.6982089">
<ele>1125.73</ele>
<time>2015-11-22T06:23:19Z</time>
</trkpt>
<trkpt lat="31.1387008" lon="35.6981978">
<ele>1127.06</ele>
<time>2015-11-22T06:23:20Z</time>
</trkpt>
<trkpt lat="31.1386452" lon="35.6981858">
<ele>1127.23</ele>
<time>2015-11-22T06:23:21Z</time>
</trkpt>
<trkpt lat="31.1385570" lon="35.6981628">
<ele>1126.61</ele>
<time>2015-11-22T06:23:23Z</time>
</trkpt>
<trkpt lat="31.1384766" lon="35.6981363">
<ele>1123.95</ele>
<time>2015-11-22T06:23:25Z</time>
</trkpt>
<trkpt lat="31.1384287" lon="35.6981202">
<ele>1122.17</ele>
<time>2015-11-22T06:23:26Z</time>
</trkpt>
<trkpt lat="31.1383832" lon="35.6981016">
<ele>1121.29</ele>
<time>2015-11-22T06:23:27Z</time>
</trkpt>
<trkpt lat="31.1383294" lon="35.6980839">
<ele>1121.34</ele>
<time>2015-11-22T06:23:28Z</time>
</trkpt>
<trkpt lat="31.1382700" lon="35.6980709">
<ele>1120.37</ele>
<time>2015-11-22T06:23:29Z</time>
</trkpt>
<trkpt lat="31.1382220" lon="35.6980527">
<ele>1119.88</ele>
<time>2015-11-22T06:23:30Z</time>
</trkpt>
<trkpt lat="31.1381706" lon="35.6980331">
<ele>1119.14</ele>
<time>2015-11-22T06:23:31Z</time>
</trkpt>
<trkpt lat="31.1381222" lon="35.6979922">
<ele>1119.27</ele>
<time>2015-11-22T06:23:32Z</time>
</trkpt>
<trkpt lat="31.1380682" lon="35.6979700">
<ele>1119.83</ele>
<time>2015-11-22T06:23:33Z</time>
</trkpt>
<trkpt lat="31.1380154" lon="35.6979623">
<ele>1120.11</ele>
<time>2015-11-22T06:23:34Z</time>
</trkpt>
<trkpt lat="31.1379623" lon="35.6979488">
<ele>1119.76</ele>
<time>2015-11-22T06:23:35Z</time>
</trkpt>
<trkpt lat="31.1379089" lon="35.6979269">
<ele>1119.58</ele>
<time>2015-11-22T06:23:36Z</time>
</trkpt>
<trkpt lat="31.1378529" lon="35.6979044">
<ele>1119.49</ele>
<time>2015-11-22T06:23:37Z</time>
</trkpt>
<trkpt lat="31.1377956" lon="35.6978834">
<ele>1119.44</ele>
<time>2015-11-22T06:23:38Z</time>
</trkpt>
<trkpt lat="31.1377356" lon="35.6978720">
<ele>1119.92</ele>
<time>2015-11-22T06:23:39Z</time>
</trkpt>
<trkpt lat="31.1376908" lon="35.6978618">
<ele>1120.16</ele>
<time>2015-11-22T06:23:40Z</time>
</trkpt>
<trkpt lat="31.1376321" lon="35.6978430">
<ele>1119.78</ele>
<time>2015-11-22T06:23:41Z</time>
</trkpt>
<trkpt lat="31.1375744" lon="35.6978147">
<ele>1119.59</ele>
<time>2015-11-22T06:23:42Z</time>
</trkpt>
<trkpt lat="31.1375115" lon="35.6977992">
<ele>1119.99</ele>
<time>2015-11-22T06:23:43Z</time>
</trkpt>
<trkpt lat="31.1374619" lon="35.6977883">
<ele>1120.19</ele>
<time>2015-11-22T06:23:44Z</time>
</trkpt>
<trkpt lat="31.1374098" lon="35.6977682">
<ele>1120.30</ele>
<time>2015-11-22T06:23:45Z</time>
</trkpt>
<trkpt lat="31.1373532" lon="35.6977487">
<ele>1121.35</ele>
<time>2015-11-22T06:23:46Z</time>
</trkpt>
<trkpt lat="31.1373031" lon="35.6977337">
<ele>1120.87</ele>
<time>2015-11-22T06:23:47Z</time>
</trkpt>
<trkpt lat="31.1372492" lon="35.6977339">
<ele>1119.63</ele>
<time>2015-11-22T06:23:48Z</time>
</trkpt>
<trkpt lat="31.1371969" lon="35.6977150">
<ele>1119.52</ele>
<time>2015-11-22T06:23:49Z</time>
</trkpt>
<trkpt lat="31.1371397" lon="35.6976754">
<ele>1119.46</ele>
<time>2015-11-22T06:23:50Z</time>
</trkpt>
<trkpt lat="31.1370815" lon="35.6976448">
<ele>1118.43</ele>
<time>2015-11-22T06:23:51Z</time>
</trkpt>
<trkpt lat="31.1370296" lon="35.6976330">
<ele>1117.91</ele>
<time>2015-11-22T06:23:52Z</time>
</trkpt>
<trkpt lat="31.1369712" lon="35.6976245">
<ele>1118.15</ele>
<time>2015-11-22T06:23:53Z</time>
</trkpt>
<trkpt lat="31.1368931" lon="35.6976155">
<ele>1118.28</ele>
<time>2015-11-22T06:23:54Z</time>
</trkpt>
<trkpt lat="31.1368292" lon="35.6976108">
<ele>1118.34</ele>
<time>2015-11-22T06:23:55Z</time>
</trkpt>
<trkpt lat="31.1367599" lon="35.6976066">
<ele>1117.87</ele>
<time>2015-11-22T06:23:56Z</time>
</trkpt>
<trkpt lat="31.1366800" lon="35.6976055">
<ele>1117.63</ele>
<time>2015-11-22T06:23:57Z</time>
</trkpt>
<trkpt lat="31.1366028" lon="35.6975972">
<ele>1117.51</ele>
<time>2015-11-22T06:23:58Z</time>
</trkpt>
<trkpt lat="31.1365268" lon="35.6975987">
<ele>1116.96</ele>
<time>2015-11-22T06:23:59Z</time>
</trkpt>
<trkpt lat="31.1364448" lon="35.6975986">
<ele>1116.68</ele>
<time>2015-11-22T06:24:00Z</time>
</trkpt>
<trkpt lat="31.1363706" lon="35.6976205">
<ele>1116.54</ele>
<time>2015-11-22T06:24:01Z</time>
</trkpt>
<trkpt lat="31.1362920" lon="35.6976438">
<ele>1116.47</ele>
<time>2015-11-22T06:24:02Z</time>
</trkpt>
<trkpt lat="31.1362038" lon="35.6976801">
<ele>1115.93</ele>
<time>2015-11-22T06:24:03Z</time>
</trkpt>
<trkpt lat="31.1361229" lon="35.6976952">
<ele>1116.16</ele>
<time>2015-11-22T06:24:04Z</time>
</trkpt>
<trkpt lat="31.1360428" lon="35.6977357">
<ele>1116.28</ele>
<time>2015-11-22T06:24:05Z</time>
</trkpt>
<trkpt lat="31.1359642" lon="35.6977537">
<ele>1116.34</ele>
<time>2015-11-22T06:24:06Z</time>
</trkpt>
<trkpt lat="31.1358864" lon="35.6977746">
<ele>1116.37</ele>
<time>2015-11-22T06:24:07Z</time>
</trkpt>
<trkpt lat="31.1358044" lon="35.6978001">
<ele>1116.88</ele>
<time>2015-11-22T06:24:08Z</time>
</trkpt>
<trkpt lat="31.1357371" lon="35.6978322">
<ele>1117.14</ele>
<time>2015-11-22T06:24:09Z</time>
</trkpt>
<trkpt lat="31.1356735" lon="35.6978546">
<ele>1117.27</ele>
<time>2015-11-22T06:24:10Z</time>
</trkpt>
<trkpt lat="31.1356065" lon="35.6978805">
<ele>1117.33</ele>
<time>2015-11-22T06:24:11Z</time>
</trkpt>
<trkpt lat="31.1355415" lon="35.6978930">
<ele>1120.86</ele>
<time>2015-11-22T06:24:12Z</time>
</trkpt>
<trkpt lat="31.1354913" lon="35.6979332">
<ele>1125.13</ele>
<time>2015-11-22T06:24:13Z</time>
</trkpt>
<trkpt lat="31.1354333" lon="35.6979488">
<ele>1129.26</ele>
<time>2015-11-22T06:24:14Z</time>
</trkpt>
<trkpt lat="31.1353731" lon="35.6979783">
<ele>1131.33</ele>
<time>2015-11-22T06:24:15Z</time>
</trkpt>
<trkpt lat="31.1353195" lon="35.6979916">
<ele>1132.36</ele>
<time>2015-11-22T06:24:16Z</time>
</trkpt>
<trkpt lat="31.1352680" lon="35.6980116">
<ele>1132.88</ele>
<time>2015-11-22T06:24:17Z</time>
</trkpt>
<trkpt lat="31.1351956" lon="35.6980434">
<ele>1134.02</ele>
<time>2015-11-22T06:24:19Z</time>
</trkpt>
<trkpt lat="31.1351260" lon="35.6980667">
<ele>1134.30</ele>
<time>2015-11-22T06:24:21Z</time>
</trkpt>
<trkpt lat="31.1350595" lon="35.6980977">
<ele>1136.37</ele>
<time>2015-11-22T06:24:23Z</time>
</trkpt>
<trkpt lat="31.1349944" lon="35.6981158">
<ele>1136.64</ele>
<time>2015-11-22T06:24:25Z</time>
</trkpt>
<trkpt lat="31.1349467" lon="35.6981126">
<ele>1135.71</ele>
<time>2015-11-22T06:24:27Z</time>
</trkpt>
<trkpt lat="31.1348927" lon="35.6981392">
<ele>1134.97</ele>
<time>2015-11-22T06:24:29Z</time>
</trkpt>
<trkpt lat="31.1348439" lon="35.6981586">
<ele>1135.04</ele>
<time>2015-11-22T06:24:31Z</time>
</trkpt>
<trkpt lat="31.1347981" lon="35.6981867">
<ele>1135.31</ele>
<time>2015-11-22T06:24:33Z</time>
</trkpt>
<trkpt lat="31.1347527" lon="35.6982155">
<ele>1136.12</ele>
<time>2015-11-22T06:24:35Z</time>
</trkpt>
<trkpt lat="31.1347042" lon="35.6982603">
<ele>1137.24</ele>
<time>2015-11-22T06:24:38Z</time>
</trkpt>
<trkpt lat="31.1346437" lon="35.6982864">
<ele>1136.63</ele>
<time>2015-11-22T06:24:41Z</time>
</trkpt>
<trkpt lat="31.1345899" lon="35.6983019">
<ele>1135.18</ele>
<time>2015-11-22T06:24:44Z</time>
</trkpt>
<trkpt lat="31.1345303" lon="35.6983216">
<ele>1137.74</ele>
<time>2015-11-22T06:24:47Z</time>
</trkpt>
<trkpt lat="31.1344841" lon="35.6983550">
<ele>1139.44</ele>
<time>2015-11-22T06:24:50Z</time>
</trkpt>
<trkpt lat="31.1344360" lon="35.6983879">
<ele>1141.40</ele>
<time>2015-11-22T06:24:53Z</time>
</trkpt>
<trkpt lat="31.1343823" lon="35.6984122">
<ele>1142.65</ele>
<time>2015-11-22T06:24:56Z</time>
</trkpt>
<trkpt lat="31.1343236" lon="35.6984359">
<ele>1144.05</ele>
<time>2015-11-22T06:24:59Z</time>
</trkpt>
<trkpt lat="31.1342641" lon="35.6984678">
<ele>1143.85</ele>
<time>2015-11-22T06:25:02Z</time>
</trkpt>
<trkpt lat="31.1342053" lon="35.6985022">
<ele>1144.83</ele>
<time>2015-11-22T06:25:05Z</time>
</trkpt>
<trkpt lat="31.1341477" lon="35.6985282">
<ele>1145.08</ele>
<time>2015-11-22T06:25:08Z</time>
</trkpt>
<trkpt lat="31.1340930" lon="35.6985467">
<ele>1144.98</ele>
<time>2015-11-22T06:25:11Z</time>
</trkpt>
<trkpt lat="31.1340330" lon="35.6985597">
<ele>1146.22</ele>
<time>2015-11-22T06:25:14Z</time>
</trkpt>
<trkpt lat="31.1339786" lon="35.6985730">
<ele>1145.62</ele>
<time>2015-11-22T06:25:17Z</time>
</trkpt>
<trkpt lat="31.1339258" lon="35.6985919">
<ele>1144.93</ele>
<time>2015-11-22T06:25:20Z</time>
</trkpt>
<trkpt lat="31.1338702" lon="35.6986118">
<ele>1145.21</ele>
<time>2015-11-22T06:25:23Z</time>
</trkpt>
<trkpt lat="31.1338123" lon="35.6986423">
<ele>1146.25</ele>
<time>2015-11-22T06:25:26Z</time>
</trkpt>
<trkpt lat="31.1337709" lon="35.6986677">
<ele>1147.11</ele>
<time>2015-11-22T06:25:28Z</time>
</trkpt>
<trkpt lat="31.1337294" lon="35.6986884">
<ele>1148.08</ele>
<time>2015-11-22T06:25:30Z</time>
</trkpt>
<trkpt lat="31.1336702" lon="35.6987187">
<ele>1142.11</ele>
<time>2015-11-22T06:25:33Z</time>
</trkpt>
<trkpt lat="31.1336132" lon="35.6987448">
<ele>1137.99</ele>
<time>2015-11-22T06:25:36Z</time>
</trkpt>
<trkpt lat="31.1335581" lon="35.6987692">
<ele>1136.35</ele>
<time>2015-11-22T06:25:39Z</time>
</trkpt>
<trkpt lat="31.1335032" lon="35.6987905">
<ele>1134.64</ele>
<time>2015-11-22T06:25:42Z</time>
</trkpt>
<trkpt lat="31.1334389" lon="35.6988012">
<ele>1135.55</ele>
<time>2015-11-22T06:25:45Z</time>
</trkpt>
<trkpt lat="31.1333856" lon="35.6988079">
<ele>1136.69</ele>
<time>2015-11-22T06:25:47Z</time>
</trkpt>
<trkpt lat="31.1333190" lon="35.6988195">
<ele>1137.22</ele>
<time>2015-11-22T06:25:49Z</time>
</trkpt>
<trkpt lat="31.1332385" lon="35.6988299">
<ele>1136.10</ele>
<time>2015-11-22T06:25:51Z</time>
</trkpt>
<trkpt lat="31.1331281" lon="35.6988243">
<ele>1137.32</ele>
<time>2015-11-22T06:25:53Z</time>
</trkpt>
<trkpt lat="31.1330735" lon="35.6988221">
<ele>1137.86</ele>
<time>2015-11-22T06:25:54Z</time>
</trkpt>
<trkpt lat="31.1330176" lon="35.6988128">
<ele>1137.63</ele>
<time>2015-11-22T06:25:55Z</time>
</trkpt>
<trkpt lat="31.1329640" lon="35.6988064">
<ele>1137.51</ele>
<time>2015-11-22T06:25:56Z</time>
</trkpt>
<trkpt lat="31.1328990" lon="35.6987911">
<ele>1137.45</ele>
<time>2015-11-22T06:25:57Z</time>
</trkpt>
<trkpt lat="31.1328329" lon="35.6987816">
<ele>1137.43</ele>
<time>2015-11-22T06:25:58Z</time>
</trkpt>
<trkpt lat="31.1327669" lon="35.6987671">
<ele>1137.41</ele>
<time>2015-11-22T06:25:59Z</time>
</trkpt>
<trkpt lat="31.1326932" lon="35.6987561">
<ele>1136.90</ele>
<time>2015-11-22T06:26:00Z</time>
</trkpt>
<trkpt lat="31.1326161" lon="35.6987404">
<ele>1137.15</ele>
<time>2015-11-22T06:26:01Z</time>
</trkpt>
<trkpt lat="31.1325364" lon="35.6987251">
<ele>1136.77</ele>
<time>2015-11-22T06:26:02Z</time>
</trkpt>
<trkpt lat="31.1324554" lon="35.6987050">
<ele>1136.59</ele>
<time>2015-11-22T06:26:03Z</time>
</trkpt>
<trkpt lat="31.1323813" lon="35.6986808">
<ele>1135.99</ele>
<time>2015-11-22T06:26:04Z</time>
</trkpt>
<trkpt lat="31.1323009" lon="35.6986568">
<ele>1134.69</ele>
<time>2015-11-22T06:26:05Z</time>
</trkpt>
<trkpt lat="31.1322242" lon="35.6986371">
<ele>1134.05</ele>
<time>2015-11-22T06:26:06Z</time>
</trkpt>
<trkpt lat="31.1321435" lon="35.6986260">
<ele>1132.72</ele>
<time>2015-11-22T06:26:07Z</time>
</trkpt>
<trkpt lat="31.1320768" lon="35.6986045">
<ele>1131.56</ele>
<time>2015-11-22T06:26:08Z</time>
</trkpt>
<trkpt lat="31.1319975" lon="35.6985949">
<ele>1130.98</ele>
<time>2015-11-22T06:26:09Z</time>
</trkpt>
<trkpt lat="31.1319194" lon="35.6985748">
<ele>1130.69</ele>
<time>2015-11-22T06:26:10Z</time>
</trkpt>
<trkpt lat="31.1318405" lon="35.6985782">
<ele>1130.04</ele>
<time>2015-11-22T06:26:11Z</time>
</trkpt>
<trkpt lat="31.1317609" lon="35.6985694">
<ele>1129.22</ele>
<time>2015-11-22T06:26:12Z</time>
</trkpt>
<trkpt lat="31.1316763" lon="35.6985646">
<ele>1129.31</ele>
<time>2015-11-22T06:26:13Z</time>
</trkpt>
<trkpt lat="31.1315880" lon="35.6985755">
<ele>1129.85</ele>
<time>2015-11-22T06:26:14Z</time>
</trkpt>
<trkpt lat="31.1315132" lon="35.6985932">
<ele>1130.62</ele>
<time>2015-11-22T06:26:15Z</time>
</trkpt>
<trkpt lat="31.1314318" lon="35.6986167">
<ele>1131.01</ele>
<time>2015-11-22T06:26:16Z</time>
</trkpt>
<trkpt lat="31.1313572" lon="35.6986407">
<ele>1131.70</ele>
<time>2015-11-22T06:26:17Z</time>
</trkpt>
<trkpt lat="31.1312792" lon="35.6986709">
<ele>1132.05</ele>
<time>2015-11-22T06:26:18Z</time>
</trkpt>
<trkpt lat="31.1311996" lon="35.6987073">
<ele>1133.22</ele>
<time>2015-11-22T06:26:19Z</time>
</trkpt>
<trkpt lat="31.1311173" lon="35.6987426">
<ele>1134.31</ele>
<time>2015-11-22T06:26:20Z</time>
</trkpt>
<trkpt lat="31.1310386" lon="35.6987796">
<ele>1134.85</ele>
<time>2015-11-22T06:26:21Z</time>
</trkpt>
<trkpt lat="31.1309582" lon="35.6988181">
<ele>1133.13</ele>
<time>2015-11-22T06:26:22Z</time>
</trkpt>
<trkpt lat="31.1308772" lon="35.6988571">
<ele>1131.76</ele>
<time>2015-11-22T06:26:23Z</time>
</trkpt>
<trkpt lat="31.1307949" lon="35.6988979">
<ele>1130.58</ele>
<time>2015-11-22T06:26:24Z</time>
</trkpt>
<trkpt lat="31.1307089" lon="35.6989467">
<ele>1130.49</ele>
<time>2015-11-22T06:26:25Z</time>
</trkpt>
<trkpt lat="31.1306174" lon="35.6989946">
<ele>1129.44</ele>
<time>2015-11-22T06:26:26Z</time>
</trkpt>
<trkpt lat="31.1305308" lon="35.6990440">
<ele>1127.92</ele>
<time>2015-11-22T06:26:27Z</time>
</trkpt>
<trkpt lat="31.1304559" lon="35.6990926">
<ele>1127.16</ele>
<time>2015-11-22T06:26:28Z</time>
</trkpt>
<trkpt lat="31.1303732" lon="35.6991483">
<ele>1126.28</ele>
<time>2015-11-22T06:26:29Z</time>
</trkpt>
<trkpt lat="31.1302880" lon="35.6991992">
<ele>1126.34</ele>
<time>2015-11-22T06:26:30Z</time>
</trkpt>
<trkpt lat="31.1301949" lon="35.6992435">
<ele>1126.37</ele>
<time>2015-11-22T06:26:31Z</time>
</trkpt>
<trkpt lat="31.1301051" lon="35.6992950">
<ele>1126.88</ele>
<time>2015-11-22T06:26:32Z</time>
</trkpt>
<trkpt lat="31.1300189" lon="35.6993438">
<ele>1127.14</ele>
<time>2015-11-22T06:26:33Z</time>
</trkpt>
<trkpt lat="31.1299205" lon="35.6993789">
<ele>1126.77</ele>
<time>2015-11-22T06:26:34Z</time>
</trkpt>
<trkpt lat="31.1298437" lon="35.6994254">
<ele>1126.58</ele>
<time>2015-11-22T06:26:35Z</time>
</trkpt>
<trkpt lat="31.1297593" lon="35.6994756">
<ele>1126.49</ele>
<time>2015-11-22T06:26:36Z</time>
</trkpt>
<trkpt lat="31.1296801" lon="35.6995340">
<ele>1126.44</ele>
<time>2015-11-22T06:26:37Z</time>
</trkpt>
<trkpt lat="31.1295996" lon="35.6995778">
<ele>1126.92</ele>
<time>2015-11-22T06:26:38Z</time>
</trkpt>
<trkpt lat="31.1295194" lon="35.6996158">
<ele>1127.66</ele>
<time>2015-11-22T06:26:39Z</time>
</trkpt>
<trkpt lat="31.1294406" lon="35.6996501">
<ele>1128.03</ele>
<time>2015-11-22T06:26:40Z</time>
</trkpt>
<trkpt lat="31.1293627" lon="35.6996884">
<ele>1128.71</ele>
<time>2015-11-22T06:26:41Z</time>
</trkpt>
<trkpt lat="31.1292785" lon="35.6997292">
<ele>1129.05</ele>
<time>2015-11-22T06:26:42Z</time>
</trkpt>
<trkpt lat="31.1291965" lon="35.6997769">
<ele>1129.73</ele>
<time>2015-11-22T06:26:43Z</time>
</trkpt>
<trkpt lat="31.1291197" lon="35.6998286">
<ele>1130.56</ele>
<time>2015-11-22T06:26:44Z</time>
</trkpt>
<trkpt lat="31.1290333" lon="35.6998822">
<ele>1131.48</ele>
<time>2015-11-22T06:26:45Z</time>
</trkpt>
<trkpt lat="31.1289543" lon="35.6999318">
<ele>1131.44</ele>
<time>2015-11-22T06:26:46Z</time>
</trkpt>
<trkpt lat="31.1288811" lon="35.6999659">
<ele>1130.42</ele>
<time>2015-11-22T06:26:47Z</time>
</trkpt>
<trkpt lat="31.1287884" lon="35.7000090">
<ele>1130.41</ele>
<time>2015-11-22T06:26:48Z</time>
</trkpt>
<trkpt lat="31.1287005" lon="35.7000461">
<ele>1130.40</ele>
<time>2015-11-22T06:26:49Z</time>
</trkpt>
<trkpt lat="31.1286102" lon="35.7000843">
<ele>1130.90</ele>
<time>2015-11-22T06:26:50Z</time>
</trkpt>
<trkpt lat="31.1285211" lon="35.7001258">
<ele>1130.65</ele>
<time>2015-11-22T06:26:51Z</time>
</trkpt>
<trkpt lat="31.1284316" lon="35.7001732">
<ele>1130.52</ele>
<time>2015-11-22T06:26:52Z</time>
</trkpt>
<trkpt lat="31.1283597" lon="35.7002244">
<ele>1129.96</ele>
<time>2015-11-22T06:26:53Z</time>
</trkpt>
<trkpt lat="31.1282776" lon="35.7002666">
<ele>1130.68</ele>
<time>2015-11-22T06:26:54Z</time>
</trkpt>
<trkpt lat="31.1281973" lon="35.7003265">
<ele>1131.04</ele>
<time>2015-11-22T06:26:55Z</time>
</trkpt>
<trkpt lat="31.1281211" lon="35.7003702">
<ele>1130.72</ele>
<time>2015-11-22T06:26:56Z</time>
</trkpt>
<trkpt lat="31.1280404" lon="35.7003963">
<ele>1130.06</ele>
<time>2015-11-22T06:26:57Z</time>
</trkpt>
<trkpt lat="31.1279485" lon="35.7004189">
<ele>1129.23</ele>
<time>2015-11-22T06:26:58Z</time>
</trkpt>
<trkpt lat="31.1278702" lon="35.7004563">
<ele>1129.31</ele>
<time>2015-11-22T06:26:59Z</time>
</trkpt>
<trkpt lat="31.1277949" lon="35.7004817">
<ele>1128.85</ele>
<time>2015-11-22T06:27:00Z</time>
</trkpt>
<trkpt lat="31.1277234" lon="35.7005242">
<ele>1128.63</ele>
<time>2015-11-22T06:27:01Z</time>
</trkpt>
<trkpt lat="31.1276524" lon="35.7005707">
<ele>1128.01</ele>
<time>2015-11-22T06:27:02Z</time>
</trkpt>
<trkpt lat="31.1275808" lon="35.7006065">
<ele>1128.20</ele>
<time>2015-11-22T06:27:03Z</time>
</trkpt>
<trkpt lat="31.1275041" lon="35.7006465">
<ele>1128.30</ele>
<time>2015-11-22T06:27:04Z</time>
</trkpt>
<trkpt lat="31.1274292" lon="35.7006775">
<ele>1128.35</ele>
<time>2015-11-22T06:27:05Z</time>
</trkpt>
<trkpt lat="31.1273602" lon="35.7007127">
<ele>1129.87</ele>
<time>2015-11-22T06:27:06Z</time>
</trkpt>
<trkpt lat="31.1273023" lon="35.7007427">
<ele>1130.14</ele>
<time>2015-11-22T06:27:07Z</time>
</trkpt>
<trkpt lat="31.1272446" lon="35.7007752">
<ele>1130.27</ele>
<time>2015-11-22T06:27:08Z</time>
</trkpt>
<trkpt lat="31.1271808" lon="35.7008076">
<ele>1130.83</ele>
<time>2015-11-22T06:27:09Z</time>
</trkpt>
<trkpt lat="31.1271292" lon="35.7008462">
<ele>1131.11</ele>
<time>2015-11-22T06:27:10Z</time>
</trkpt>
<trkpt lat="31.1270792" lon="35.7008708">
<ele>1131.26</ele>
<time>2015-11-22T06:27:11Z</time>
</trkpt>
<trkpt lat="31.1270284" lon="35.7008788">
<ele>1131.33</ele>
<time>2015-11-22T06:27:12Z</time>
</trkpt>
<trkpt lat="31.1269853" lon="35.7009027">
<ele>1131.86</ele>
<time>2015-11-22T06:27:13Z</time>
</trkpt>
<trkpt lat="31.1269446" lon="35.7009314">
<ele>1132.13</ele>
<time>2015-11-22T06:27:14Z</time>
</trkpt>
<trkpt lat="31.1269027" lon="35.7009577">
<ele>1132.76</ele>
<time>2015-11-22T06:27:15Z</time>
</trkpt>
<trkpt lat="31.1268618" lon="35.7009812">
<ele>1133.08</ele>
<time>2015-11-22T06:27:16Z</time>
</trkpt>
<trkpt lat="31.1267873" lon="35.7010346">
<ele>1134.57</ele>
<time>2015-11-22T06:27:18Z</time>
</trkpt>
<trkpt lat="31.1267241" lon="35.7010702">
<ele>1133.69</ele>
<time>2015-11-22T06:27:20Z</time>
</trkpt>
<trkpt lat="31.1266476" lon="35.7011148">
<ele>1132.22</ele>
<time>2015-11-22T06:27:22Z</time>
</trkpt>
<trkpt lat="31.1265829" lon="35.7011419">
<ele>1130.85</ele>
<time>2015-11-22T06:27:24Z</time>
</trkpt>
<trkpt lat="31.1265085" lon="35.7011811">
<ele>1131.76</ele>
<time>2015-11-22T06:27:26Z</time>
</trkpt>
<trkpt lat="31.1264323" lon="35.7012193">
<ele>1132.49</ele>
<time>2015-11-22T06:27:28Z</time>
</trkpt>
<trkpt lat="31.1263568" lon="35.7012545">
<ele>1133.17</ele>
<time>2015-11-22T06:27:30Z</time>
</trkpt>
<trkpt lat="31.1262850" lon="35.7012931">
<ele>1133.34</ele>
<time>2015-11-22T06:27:32Z</time>
</trkpt>
<trkpt lat="31.1262116" lon="35.7013365">
<ele>1132.88</ele>
<time>2015-11-22T06:27:34Z</time>
</trkpt>
<trkpt lat="31.1261378" lon="35.7013785">
<ele>1133.02</ele>
<time>2015-11-22T06:27:36Z</time>
</trkpt>
<trkpt lat="31.1260616" lon="35.7014165">
<ele>1133.80</ele>
<time>2015-11-22T06:27:38Z</time>
</trkpt>
<trkpt lat="31.1259866" lon="35.7014530">
<ele>1133.50</ele>
<time>2015-11-22T06:27:40Z</time>
</trkpt>
<trkpt lat="31.1259117" lon="35.7014902">
<ele>1132.42</ele>
<time>2015-11-22T06:27:42Z</time>
</trkpt>
<trkpt lat="31.1258696" lon="35.7015193">
<ele>1132.41</ele>
<time>2015-11-22T06:27:43Z</time>
</trkpt>
<trkpt lat="31.1257931" lon="35.7015635">
<ele>1133.40</ele>
<time>2015-11-22T06:27:45Z</time>
</trkpt>
<trkpt lat="31.1257489" lon="35.7015848">
<ele>1134.40</ele>
<time>2015-11-22T06:27:46Z</time>
</trkpt>
<trkpt lat="31.1256806" lon="35.7016225">
<ele>1138.65</ele>
<time>2015-11-22T06:27:48Z</time>
</trkpt>
<trkpt lat="31.1256167" lon="35.7016725">
<ele>1139.46</ele>
<time>2015-11-22T06:27:50Z</time>
</trkpt>
<trkpt lat="31.1255671" lon="35.7016970">
<ele>1141.41</ele>
<time>2015-11-22T06:27:52Z</time>
</trkpt>
<trkpt lat="31.1255077" lon="35.7017329">
<ele>1141.15</ele>
<time>2015-11-22T06:27:54Z</time>
</trkpt>
<trkpt lat="31.1254475" lon="35.7017642">
<ele>1140.34</ele>
<time>2015-11-22T06:27:56Z</time>
</trkpt>
<trkpt lat="31.1253826" lon="35.7017869">
<ele>1140.38</ele>
<time>2015-11-22T06:27:58Z</time>
</trkpt>
<trkpt lat="31.1253150" lon="35.7018108">
<ele>1140.39</ele>
<time>2015-11-22T06:28:00Z</time>
</trkpt>
<trkpt lat="31.1252414" lon="35.7018453">
<ele>1140.65</ele>
<time>2015-11-22T06:28:02Z</time>
</trkpt>
<trkpt lat="31.1251690" lon="35.7018759">
<ele>1140.21</ele>
<time>2015-11-22T06:28:04Z</time>
</trkpt>
<trkpt lat="31.1250955" lon="35.7019051">
<ele>1139.60</ele>
<time>2015-11-22T06:28:06Z</time>
</trkpt>
<trkpt lat="31.1250181" lon="35.7019372">
<ele>1140.70</ele>
<time>2015-11-22T06:28:08Z</time>
</trkpt>
<trkpt lat="31.1249153" lon="35.7019840">
<ele>1141.22</ele>
<time>2015-11-22T06:28:10Z</time>
</trkpt>
<trkpt lat="31.1248731" lon="35.7020073">
<ele>1141.31</ele>
<time>2015-11-22T06:28:11Z</time>
</trkpt>
<trkpt lat="31.1248256" lon="35.7020326">
<ele>1141.35</ele>
<time>2015-11-22T06:28:12Z</time>
</trkpt>
<trkpt lat="31.1247802" lon="35.7020512">
<ele>1141.38</ele>
<time>2015-11-22T06:28:13Z</time>
</trkpt>
<trkpt lat="31.1247255" lon="35.7020790">
<ele>1141.39</ele>
<time>2015-11-22T06:28:14Z</time>
</trkpt>
<trkpt lat="31.1246770" lon="35.7020993">
<ele>1141.39</ele>
<time>2015-11-22T06:28:15Z</time>
</trkpt>
<trkpt lat="31.1246219" lon="35.7021215">
<ele>1141.89</ele>
<time>2015-11-22T06:28:16Z</time>
</trkpt>
<trkpt lat="31.1245703" lon="35.7021328">
<ele>1142.15</ele>
<time>2015-11-22T06:28:17Z</time>
</trkpt>
<trkpt lat="31.1245252" lon="35.7021387">
<ele>1141.27</ele>
<time>2015-11-22T06:28:18Z</time>
</trkpt>
<trkpt lat="31.1244666" lon="35.7021556">
<ele>1140.33</ele>
<time>2015-11-22T06:28:19Z</time>
</trkpt>
<trkpt lat="31.1244056" lon="35.7021690">
<ele>1139.87</ele>
<time>2015-11-22T06:28:20Z</time>
</trkpt>
<trkpt lat="31.1243501" lon="35.7021770">
<ele>1140.13</ele>
<time>2015-11-22T06:28:21Z</time>
</trkpt>
<trkpt lat="31.1242909" lon="35.7021824">
<ele>1139.76</ele>
<time>2015-11-22T06:28:22Z</time>
</trkpt>
<trkpt lat="31.1242363" lon="35.7021843">
<ele>1139.08</ele>
<time>2015-11-22T06:28:23Z</time>
</trkpt>
<trkpt lat="31.1241763" lon="35.7021858">
<ele>1138.24</ele>
<time>2015-11-22T06:28:24Z</time>
</trkpt>
<trkpt lat="31.1241151" lon="35.7021957">
<ele>1136.82</ele>
<time>2015-11-22T06:28:25Z</time>
</trkpt>
<trkpt lat="31.1240610" lon="35.7021990">
<ele>1137.11</ele>
<time>2015-11-22T06:28:26Z</time>
</trkpt>
<trkpt lat="31.1239975" lon="35.7021917">
<ele>1137.25</ele>
<time>2015-11-22T06:28:27Z</time>
</trkpt>
<trkpt lat="31.1239401" lon="35.7021941">
<ele>1138.32</ele>
<time>2015-11-22T06:28:28Z</time>
</trkpt>
<trkpt lat="31.1238800" lon="35.7021937">
<ele>1138.36</ele>
<time>2015-11-22T06:28:29Z</time>
</trkpt>
<trkpt lat="31.1238226" lon="35.7021877">
<ele>1138.38</ele>
<time>2015-11-22T06:28:30Z</time>
</trkpt>
<trkpt lat="31.1237626" lon="35.7021824">
<ele>1137.89</ele>
<time>2015-11-22T06:28:31Z</time>
</trkpt>
<trkpt lat="31.1237026" lon="35.7021772">
<ele>1137.64</ele>
<time>2015-11-22T06:28:32Z</time>
</trkpt>
<trkpt lat="31.1236375" lon="35.7021682">
<ele>1137.02</ele>
<time>2015-11-22T06:28:33Z</time>
</trkpt>
<trkpt lat="31.1235657" lon="35.7021574">
<ele>1136.71</ele>
<time>2015-11-22T06:28:34Z</time>
</trkpt>
<trkpt lat="31.1235061" lon="35.7021410">
<ele>1135.55</ele>
<time>2015-11-22T06:28:35Z</time>
</trkpt>
<trkpt lat="31.1234394" lon="35.7021303">
<ele>1134.97</ele>
<time>2015-11-22T06:28:36Z</time>
</trkpt>
<trkpt lat="31.1233733" lon="35.7021180">
<ele>1135.19</ele>
<time>2015-11-22T06:28:37Z</time>
</trkpt>
<trkpt lat="31.1233073" lon="35.7021038">
<ele>1135.79</ele>
<time>2015-11-22T06:28:38Z</time>
</trkpt>
<trkpt lat="31.1232398" lon="35.7020948">
<ele>1136.59</ele>
<time>2015-11-22T06:28:39Z</time>
</trkpt>
<trkpt lat="31.1231726" lon="35.7020816">
<ele>1137.00</ele>
<time>2015-11-22T06:28:40Z</time>
</trkpt>
<trkpt lat="31.1231054" lon="35.7020722">
<ele>1137.20</ele>
<time>2015-11-22T06:28:41Z</time>
</trkpt>
<trkpt lat="31.1230387" lon="35.7020636">
<ele>1137.30</ele>
<time>2015-11-22T06:28:42Z</time>
</trkpt>
<trkpt lat="31.1229656" lon="35.7020550">
<ele>1136.85</ele>
<time>2015-11-22T06:28:43Z</time>
</trkpt>
<trkpt lat="31.1229026" lon="35.7020374">
<ele>1136.62</ele>
<time>2015-11-22T06:28:44Z</time>
</trkpt>
<trkpt lat="31.1228379" lon="35.7020253">
<ele>1136.51</ele>
<time>2015-11-22T06:28:45Z</time>
</trkpt>
<trkpt lat="31.1227785" lon="35.7020022">
<ele>1136.45</ele>
<time>2015-11-22T06:28:46Z</time>
</trkpt>
<trkpt lat="31.1227079" lon="35.7019859">
<ele>1135.93</ele>
<time>2015-11-22T06:28:47Z</time>
</trkpt>
<trkpt lat="31.1226392" lon="35.7019666">
<ele>1135.66</ele>
<time>2015-11-22T06:28:48Z</time>
</trkpt>
<trkpt lat="31.1225682" lon="35.7019575">
<ele>1136.03</ele>
<time>2015-11-22T06:28:49Z</time>
</trkpt>
<trkpt lat="31.1225015" lon="35.7019432">
<ele>1136.21</ele>
<time>2015-11-22T06:28:50Z</time>
</trkpt>
<trkpt lat="31.1224222" lon="35.7019320">
<ele>1135.81</ele>
<time>2015-11-22T06:28:51Z</time>
</trkpt>
<trkpt lat="31.1223588" lon="35.7019188">
<ele>1135.60</ele>
<time>2015-11-22T06:28:52Z</time>
</trkpt>
<trkpt lat="31.1222979" lon="35.7019120">
<ele>1135.00</ele>
<time>2015-11-22T06:28:53Z</time>
</trkpt>
<trkpt lat="31.1222352" lon="35.7019026">
<ele>1135.20</ele>
<time>2015-11-22T06:28:54Z</time>
</trkpt>
<trkpt lat="31.1221708" lon="35.7018880">
<ele>1135.30</ele>
<time>2015-11-22T06:28:55Z</time>
</trkpt>
<trkpt lat="31.1221108" lon="35.7018836">
<ele>1135.35</ele>
<time>2015-11-22T06:28:56Z</time>
</trkpt>
<trkpt lat="31.1220460" lon="35.7018717">
<ele>1134.87</ele>
<time>2015-11-22T06:28:57Z</time>
</trkpt>
<trkpt lat="31.1219847" lon="35.7018607">
<ele>1135.13</ele>
<time>2015-11-22T06:28:58Z</time>
</trkpt>
<trkpt lat="31.1219270" lon="35.7018537">
<ele>1135.27</ele>
<time>2015-11-22T06:28:59Z</time>
</trkpt>
<trkpt lat="31.1218719" lon="35.7018368">
<ele>1134.83</ele>
<time>2015-11-22T06:29:00Z</time>
</trkpt>
<trkpt lat="31.1218044" lon="35.7018191">
<ele>1134.11</ele>
<time>2015-11-22T06:29:01Z</time>
</trkpt>
<trkpt lat="31.1217374" lon="35.7018098">
<ele>1133.76</ele>
<time>2015-11-22T06:29:02Z</time>
</trkpt>
<trkpt lat="31.1216780" lon="35.7017884">
<ele>1133.58</ele>
<time>2015-11-22T06:29:03Z</time>
</trkpt>
<trkpt lat="31.1216221" lon="35.7017757">
<ele>1133.49</ele>
<time>2015-11-22T06:29:04Z</time>
</trkpt>
<trkpt lat="31.1215652" lon="35.7017724">
<ele>1133.94</ele>
<time>2015-11-22T06:29:05Z</time>
</trkpt>
<trkpt lat="31.1215081" lon="35.7017642">
<ele>1135.17</ele>
<time>2015-11-22T06:29:06Z</time>
</trkpt>
<trkpt lat="31.1214530" lon="35.7017566">
<ele>1135.78</ele>
<time>2015-11-22T06:29:07Z</time>
</trkpt>
<trkpt lat="31.1213954" lon="35.7017424">
<ele>1136.09</ele>
<time>2015-11-22T06:29:08Z</time>
</trkpt>
<trkpt lat="31.1213479" lon="35.7017326">
<ele>1135.74</ele>
<time>2015-11-22T06:29:09Z</time>
</trkpt>
<trkpt lat="31.1213032" lon="35.7017201">
<ele>1136.07</ele>
<time>2015-11-22T06:29:10Z</time>
</trkpt>
<trkpt lat="31.1212524" lon="35.7017094">
<ele>1136.73</ele>
<time>2015-11-22T06:29:11Z</time>
</trkpt>
<trkpt lat="31.1212073" lon="35.7017012">
<ele>1137.07</ele>
<time>2015-11-22T06:29:12Z</time>
</trkpt>
<trkpt lat="31.1211573" lon="35.7016904">
<ele>1136.23</ele>
<time>2015-11-22T06:29:13Z</time>
</trkpt>
<trkpt lat="31.1211073" lon="35.7016823">
<ele>1135.81</ele>
<time>2015-11-22T06:29:14Z</time>
</trkpt>
<trkpt lat="31.1210592" lon="35.7016710">
<ele>1136.11</ele>
<time>2015-11-22T06:29:15Z</time>
</trkpt>
<trkpt lat="31.1209825" lon="35.7016611">
<ele>1136.32</ele>
<time>2015-11-22T06:29:17Z</time>
</trkpt>
<trkpt lat="31.1209089" lon="35.7016474">
<ele>1137.13</ele>
<time>2015-11-22T06:29:19Z</time>
</trkpt>
<trkpt lat="31.1208627" lon="35.7016448">
<ele>1137.26</ele>
<time>2015-11-22T06:29:20Z</time>
</trkpt>
<trkpt lat="31.1208172" lon="35.7016373">
<ele>1137.83</ele>
<time>2015-11-22T06:29:21Z</time>
</trkpt>
<trkpt lat="31.1207370" lon="35.7016304">
<ele>1138.26</ele>
<time>2015-11-22T06:29:23Z</time>
</trkpt>
<trkpt lat="31.1206665" lon="35.7016144">
<ele>1138.86</ele>
<time>2015-11-22T06:29:25Z</time>
</trkpt>
<trkpt lat="31.1206014" lon="35.7016029">
<ele>1138.51</ele>
<time>2015-11-22T06:29:27Z</time>
</trkpt>
<trkpt lat="31.1205326" lon="35.7015933">
<ele>1138.68</ele>
<time>2015-11-22T06:29:29Z</time>
</trkpt>
<trkpt lat="31.1204693" lon="35.7015871">
<ele>1138.47</ele>
<time>2015-11-22T06:29:31Z</time>
</trkpt>
<trkpt lat="31.1204034" lon="35.7015811">
<ele>1137.91</ele>
<time>2015-11-22T06:29:33Z</time>
</trkpt>
<trkpt lat="31.1203373" lon="35.7015671">
<ele>1138.03</ele>
<time>2015-11-22T06:29:35Z</time>
</trkpt>
<trkpt lat="31.1202678" lon="35.7015497">
<ele>1138.30</ele>
<time>2015-11-22T06:29:37Z</time>
</trkpt>
<trkpt lat="31.1201997" lon="35.7015319">
<ele>1139.37</ele>
<time>2015-11-22T06:29:39Z</time>
</trkpt>
<trkpt lat="31.1201318" lon="35.7015198">
<ele>1139.39</ele>
<time>2015-11-22T06:29:41Z</time>
</trkpt>
<trkpt lat="31.1200629" lon="35.7015127">
<ele>1140.65</ele>
<time>2015-11-22T06:29:43Z</time>
</trkpt>
<trkpt lat="31.1199970" lon="35.7015021">
<ele>1140.71</ele>
<time>2015-11-22T06:29:45Z</time>
</trkpt>
<trkpt lat="31.1199322" lon="35.7014859">
<ele>1136.22</ele>
<time>2015-11-22T06:29:47Z</time>
</trkpt>
<trkpt lat="31.1198676" lon="35.7014702">
<ele>1136.60</ele>
<time>2015-11-22T06:29:49Z</time>
</trkpt>
<trkpt lat="31.1198032" lon="35.7014584">
<ele>1137.95</ele>
<time>2015-11-22T06:29:51Z</time>
</trkpt>
<trkpt lat="31.1197378" lon="35.7014455">
<ele>1138.03</ele>
<time>2015-11-22T06:29:53Z</time>
</trkpt>
<trkpt lat="31.1196699" lon="35.7014337">
<ele>1136.81</ele>
<time>2015-11-22T06:29:55Z</time>
</trkpt>
<trkpt lat="31.1195994" lon="35.7014203">
<ele>1136.50</ele>
<time>2015-11-22T06:29:57Z</time>
</trkpt>
<trkpt lat="31.1195329" lon="35.7014038">
<ele>1137.17</ele>
<time>2015-11-22T06:29:59Z</time>
</trkpt>
<trkpt lat="31.1194649" lon="35.7013860">
<ele>1137.09</ele>
<time>2015-11-22T06:30:01Z</time>
</trkpt>
<trkpt lat="31.1194014" lon="35.7013769">
<ele>1139.07</ele>
<time>2015-11-22T06:30:03Z</time>
</trkpt>
<trkpt lat="31.1193446" lon="35.7013671">
<ele>1139.82</ele>
<time>2015-11-22T06:30:05Z</time>
</trkpt>
<trkpt lat="31.1192929" lon="35.7013554">
<ele>1140.75</ele>
<time>2015-11-22T06:30:07Z</time>
</trkpt>
<trkpt lat="31.1192404" lon="35.7013465">
<ele>1143.24</ele>
<time>2015-11-22T06:30:09Z</time>
</trkpt>
<trkpt lat="31.1191862" lon="35.7013403">
<ele>1143.61</ele>
<time>2015-11-22T06:30:11Z</time>
</trkpt>
<trkpt lat="31.1191358" lon="35.7013298">
<ele>1144.95</ele>
<time>2015-11-22T06:30:13Z</time>
</trkpt>
<trkpt lat="31.1190822" lon="35.7013204">
<ele>1144.79</ele>
<time>2015-11-22T06:30:15Z</time>
</trkpt>
<trkpt lat="31.1190268" lon="35.7013088">
<ele>1145.74</ele>
<time>2015-11-22T06:30:17Z</time>
</trkpt>
<trkpt lat="31.1189752" lon="35.7012954">
<ele>1145.23</ele>
<time>2015-11-22T06:30:19Z</time>
</trkpt>
<trkpt lat="31.1189240" lon="35.7012842">
<ele>1146.86</ele>
<time>2015-11-22T06:30:21Z</time>
</trkpt>
<trkpt lat="31.1188757" lon="35.7012680">
<ele>1148.51</ele>
<time>2015-11-22T06:30:23Z</time>
</trkpt>
<trkpt lat="31.1188267" lon="35.7012552">
<ele>1148.68</ele>
<time>2015-11-22T06:30:25Z</time>
</trkpt>
<trkpt lat="31.1187751" lon="35.7012475">
<ele>1147.72</ele>
<time>2015-11-22T06:30:27Z</time>
</trkpt>
<trkpt lat="31.1187184" lon="35.7012370">
<ele>1148.73</ele>
<time>2015-11-22T06:30:29Z</time>
</trkpt>
<trkpt lat="31.1186595" lon="35.7012284">
<ele>1150.98</ele>
<time>2015-11-22T06:30:31Z</time>
</trkpt>
<trkpt lat="31.1185985" lon="35.7012172">
<ele>1152.29</ele>
<time>2015-11-22T06:30:33Z</time>
</trkpt>
<trkpt lat="31.1185382" lon="35.7012058">
<ele>1152.62</ele>
<time>2015-11-22T06:30:35Z</time>
</trkpt>
<trkpt lat="31.1184763" lon="35.7011928">
<ele>1151.20</ele>
<time>2015-11-22T06:30:37Z</time>
</trkpt>
<trkpt lat="31.1184154" lon="35.7011779">
<ele>1150.60</ele>
<time>2015-11-22T06:30:39Z</time>
</trkpt>
<trkpt lat="31.1183519" lon="35.7011558">
<ele>1149.70</ele>
<time>2015-11-22T06:30:41Z</time>
</trkpt>
<trkpt lat="31.1182854" lon="35.7011294">
<ele>1151.72</ele>
<time>2015-11-22T06:30:43Z</time>
</trkpt>
<trkpt lat="31.1182187" lon="35.7011049">
<ele>1154.98</ele>
<time>2015-11-22T06:30:45Z</time>
</trkpt>
<trkpt lat="31.1181509" lon="35.7010880">
<ele>1156.79</ele>
<time>2015-11-22T06:30:47Z</time>
</trkpt>
<trkpt lat="31.1180856" lon="35.7010741">
<ele>1157.25</ele>
<time>2015-11-22T06:30:49Z</time>
</trkpt>
<trkpt lat="31.1180242" lon="35.7010634">
<ele>1158.11</ele>
<time>2015-11-22T06:30:51Z</time>
</trkpt>
<trkpt lat="31.1179678" lon="35.7010517">
<ele>1158.33</ele>
<time>2015-11-22T06:30:53Z</time>
</trkpt>
<trkpt lat="31.1179133" lon="35.7010367">
<ele>1158.38</ele>
<time>2015-11-22T06:30:55Z</time>
</trkpt>
<trkpt lat="31.1178552" lon="35.7010188">
<ele>1157.64</ele>
<time>2015-11-22T06:30:57Z</time>
</trkpt>
<trkpt lat="31.1177930" lon="35.7010046">
<ele>1156.96</ele>
<time>2015-11-22T06:30:59Z</time>
</trkpt>
<trkpt lat="31.1177234" lon="35.7009908">
<ele>1156.54</ele>
<time>2015-11-22T06:31:01Z</time>
</trkpt>
<trkpt lat="31.1176494" lon="35.7009748">
<ele>1156.43</ele>
<time>2015-11-22T06:31:03Z</time>
</trkpt>
<trkpt lat="31.1175733" lon="35.7009612">
<ele>1157.16</ele>
<time>2015-11-22T06:31:05Z</time>
</trkpt>
<trkpt lat="31.1174988" lon="35.7009446">
<ele>1157.34</ele>
<time>2015-11-22T06:31:07Z</time>
</trkpt>
<trkpt lat="31.1174256" lon="35.7009234">
<ele>1157.38</ele>
<time>2015-11-22T06:31:09Z</time>
</trkpt>
<trkpt lat="31.1173565" lon="35.7008969">
<ele>1156.64</ele>
<time>2015-11-22T06:31:11Z</time>
</trkpt>
<trkpt lat="31.1172877" lon="35.7008739">
<ele>1156.96</ele>
<time>2015-11-22T06:31:13Z</time>
</trkpt>
<trkpt lat="31.1172164" lon="35.7008542">
<ele>1157.29</ele>
<time>2015-11-22T06:31:15Z</time>
</trkpt>
<trkpt lat="31.1171440" lon="35.7008327">
<ele>1157.87</ele>
<time>2015-11-22T06:31:17Z</time>
</trkpt>
<trkpt lat="31.1170658" lon="35.7008094">
<ele>1158.27</ele>
<time>2015-11-22T06:31:19Z</time>
</trkpt>
<trkpt lat="31.1169829" lon="35.7007795">
<ele>1158.36</ele>
<time>2015-11-22T06:31:21Z</time>
</trkpt>
<trkpt lat="31.1168999" lon="35.7007468">
<ele>1158.14</ele>
<time>2015-11-22T06:31:23Z</time>
</trkpt>
<trkpt lat="31.1167985" lon="35.7007168">
<ele>1157.83</ele>
<time>2015-11-22T06:31:25Z</time>
</trkpt>
<trkpt lat="31.1167503" lon="35.7007005">
<ele>1158.61</ele>
<time>2015-11-22T06:31:26Z</time>
</trkpt>
<trkpt lat="31.1167052" lon="35.7006922">
<ele>1159.51</ele>
<time>2015-11-22T06:31:27Z</time>
</trkpt>
<trkpt lat="31.1166573" lon="35.7006816">
<ele>1159.95</ele>
<time>2015-11-22T06:31:28Z</time>
</trkpt>
<trkpt lat="31.1166068" lon="35.7006715">
<ele>1159.67</ele>
<time>2015-11-22T06:31:29Z</time>
</trkpt>
<trkpt lat="31.1165601" lon="35.7006595">
<ele>1160.04</ele>
<time>2015-11-22T06:31:30Z</time>
</trkpt>
<trkpt lat="31.1165038" lon="35.7006485">
<ele>1160.22</ele>
<time>2015-11-22T06:31:31Z</time>
</trkpt>
<trkpt lat="31.1164511" lon="35.7006333">
<ele>1160.31</ele>
<time>2015-11-22T06:31:32Z</time>
</trkpt>
<trkpt lat="31.1163645" lon="35.7006140">
<ele>1160.37</ele>
<time>2015-11-22T06:31:34Z</time>
</trkpt>
<trkpt lat="31.1163099" lon="35.7006039">
<ele>1160.89</ele>
<time>2015-11-22T06:31:35Z</time>
</trkpt>
<trkpt lat="31.1162585" lon="35.7005894">
<ele>1160.64</ele>
<time>2015-11-22T06:31:36Z</time>
</trkpt>
<trkpt lat="31.1162054" lon="35.7005719">
<ele>1160.52</ele>
<time>2015-11-22T06:31:37Z</time>
</trkpt>
<trkpt lat="31.1161582" lon="35.7005582">
<ele>1160.46</ele>
<time>2015-11-22T06:31:38Z</time>
</trkpt>
<trkpt lat="31.1160959" lon="35.7005492">
<ele>1160.43</ele>
<time>2015-11-22T06:31:39Z</time>
</trkpt>
<trkpt lat="31.1160389" lon="35.7005382">
<ele>1160.91</ele>
<time>2015-11-22T06:31:40Z</time>
</trkpt>
<trkpt lat="31.1159846" lon="35.7005286">
<ele>1160.65</ele>
<time>2015-11-22T06:31:41Z</time>
</trkpt>
<trkpt lat="31.1159309" lon="35.7005294">
<ele>1161.03</ele>
<time>2015-11-22T06:31:42Z</time>
</trkpt>
<trkpt lat="31.1158733" lon="35.7005187">
<ele>1161.21</ele>
<time>2015-11-22T06:31:43Z</time>
</trkpt>
<trkpt lat="31.1158213" lon="35.7005105">
<ele>1161.30</ele>
<time>2015-11-22T06:31:44Z</time>
</trkpt>
<trkpt lat="31.1157638" lon="35.7004966">
<ele>1160.85</ele>
<time>2015-11-22T06:31:45Z</time>
</trkpt>
<trkpt lat="31.1157098" lon="35.7004895">
<ele>1160.62</ele>
<time>2015-11-22T06:31:46Z</time>
</trkpt>
<trkpt lat="31.1156586" lon="35.7004748">
<ele>1160.51</ele>
<time>2015-11-22T06:31:47Z</time>
</trkpt>
<trkpt lat="31.1156052" lon="35.7004685">
<ele>1160.45</ele>
<time>2015-11-22T06:31:48Z</time>
</trkpt>
<trkpt lat="31.1155510" lon="35.7004585">
<ele>1160.43</ele>
<time>2015-11-22T06:31:49Z</time>
</trkpt>
<trkpt lat="31.1154968" lon="35.7004365">
<ele>1160.41</ele>
<time>2015-11-22T06:31:50Z</time>
</trkpt>
<trkpt lat="31.1154336" lon="35.7004209">
<ele>1160.90</ele>
<time>2015-11-22T06:31:51Z</time>
</trkpt>
<trkpt lat="31.1153760" lon="35.7004050">
<ele>1161.15</ele>
<time>2015-11-22T06:31:52Z</time>
</trkpt>
<trkpt lat="31.1153108" lon="35.7003889">
<ele>1160.77</ele>
<time>2015-11-22T06:31:53Z</time>
</trkpt>
<trkpt lat="31.1152410" lon="35.7003714">
<ele>1160.59</ele>
<time>2015-11-22T06:31:54Z</time>
</trkpt>
<trkpt lat="31.1151719" lon="35.7003573">
<ele>1159.99</ele>
<time>2015-11-22T06:31:55Z</time>
</trkpt>
<trkpt lat="31.1151048" lon="35.7003430">
<ele>1159.19</ele>
<time>2015-11-22T06:31:56Z</time>
</trkpt>
<trkpt lat="31.1150341" lon="35.7003298">
<ele>1158.80</ele>
<time>2015-11-22T06:31:57Z</time>
</trkpt>
<trkpt lat="31.1149712" lon="35.7003217">
<ele>1158.60</ele>
<time>2015-11-22T06:31:58Z</time>
</trkpt>
<trkpt lat="31.1149070" lon="35.7003141">
<ele>1158.00</ele>
<time>2015-11-22T06:31:59Z</time>
</trkpt>
<trkpt lat="31.1148400" lon="35.7003074">
<ele>1157.70</ele>
<time>2015-11-22T06:32:00Z</time>
</trkpt>
<trkpt lat="31.1147742" lon="35.7002946">
<ele>1157.55</ele>
<time>2015-11-22T06:32:01Z</time>
</trkpt>
<trkpt lat="31.1147017" lon="35.7002878">
<ele>1157.47</ele>
<time>2015-11-22T06:32:02Z</time>
</trkpt>
<trkpt lat="31.1146455" lon="35.7002806">
<ele>1157.43</ele>
<time>2015-11-22T06:32:03Z</time>
</trkpt>
<trkpt lat="31.1145823" lon="35.7002698">
<ele>1157.42</ele>
<time>2015-11-22T06:32:04Z</time>
</trkpt>
<trkpt lat="31.1145198" lon="35.7002584">
<ele>1157.41</ele>
<time>2015-11-22T06:32:05Z</time>
</trkpt>
<trkpt lat="31.1144658" lon="35.7002394">
<ele>1156.90</ele>
<time>2015-11-22T06:32:06Z</time>
</trkpt>
<trkpt lat="31.1144001" lon="35.7002226">
<ele>1156.65</ele>
<time>2015-11-22T06:32:07Z</time>
</trkpt>
<trkpt lat="31.1143337" lon="35.7002069">
<ele>1156.02</ele>
<time>2015-11-22T06:32:08Z</time>
</trkpt>
<trkpt lat="31.1142694" lon="35.7001996">
<ele>1155.71</ele>
<time>2015-11-22T06:32:09Z</time>
</trkpt>
<trkpt lat="31.1142119" lon="35.7001806">
<ele>1155.05</ele>
<time>2015-11-22T06:32:10Z</time>
</trkpt>
<trkpt lat="31.1141523" lon="35.7001771">
<ele>1154.73</ele>
<time>2015-11-22T06:32:11Z</time>
</trkpt>
<trkpt lat="31.1140916" lon="35.7001659">
<ele>1154.56</ele>
<time>2015-11-22T06:32:12Z</time>
</trkpt>
<trkpt lat="31.1140291" lon="35.7001534">
<ele>1154.98</ele>
<time>2015-11-22T06:32:13Z</time>
</trkpt>
<trkpt lat="31.1139635" lon="35.7001382">
<ele>1154.69</ele>
<time>2015-11-22T06:32:14Z</time>
</trkpt>
<trkpt lat="31.1139120" lon="35.7001240">
<ele>1154.54</ele>
<time>2015-11-22T06:32:15Z</time>
</trkpt>
<trkpt lat="31.1138468" lon="35.7001154">
<ele>1154.47</ele>
<time>2015-11-22T06:32:16Z</time>
</trkpt>
<trkpt lat="31.1137883" lon="35.7001116">
<ele>1154.43</ele>
<time>2015-11-22T06:32:17Z</time>
</trkpt>
<trkpt lat="31.1137297" lon="35.7001001">
<ele>1154.42</ele>
<time>2015-11-22T06:32:18Z</time>
</trkpt>
<trkpt lat="31.1136726" lon="35.7000882">
<ele>1154.91</ele>
<time>2015-11-22T06:32:19Z</time>
</trkpt>
<trkpt lat="31.1136099" lon="35.7000842">
<ele>1155.65</ele>
<time>2015-11-22T06:32:20Z</time>
</trkpt>
<trkpt lat="31.1135478" lon="35.7000817">
<ele>1156.52</ele>
<time>2015-11-22T06:32:21Z</time>
</trkpt>
<trkpt lat="31.1134827" lon="35.7000669">
<ele>1155.96</ele>
<time>2015-11-22T06:32:22Z</time>
</trkpt>
<trkpt lat="31.1134284" lon="35.7000485">
<ele>1155.68</ele>
<time>2015-11-22T06:32:23Z</time>
</trkpt>
<trkpt lat="31.1133784" lon="35.7000431">
<ele>1156.04</ele>
<time>2015-11-22T06:32:24Z</time>
</trkpt>
<trkpt lat="31.1133248" lon="35.7000282">
<ele>1156.22</ele>
<time>2015-11-22T06:32:25Z</time>
</trkpt>
<trkpt lat="31.1132574" lon="35.7000210">
<ele>1155.81</ele>
<time>2015-11-22T06:32:26Z</time>
</trkpt>
<trkpt lat="31.1131951" lon="35.7000150">
<ele>1155.10</ele>
<time>2015-11-22T06:32:27Z</time>
</trkpt>
<trkpt lat="31.1131397" lon="35.6999998">
<ele>1154.25</ele>
<time>2015-11-22T06:32:28Z</time>
</trkpt>
<trkpt lat="31.1130802" lon="35.6999776">
<ele>1153.32</ele>
<time>2015-11-22T06:32:29Z</time>
</trkpt>
<trkpt lat="31.1130185" lon="35.6999637">
<ele>1152.86</ele>
<time>2015-11-22T06:32:30Z</time>
</trkpt>
<trkpt lat="31.1129568" lon="35.6999522">
<ele>1152.13</ele>
<time>2015-11-22T06:32:31Z</time>
</trkpt>
<trkpt lat="31.1128987" lon="35.6999391">
<ele>1151.26</ele>
<time>2015-11-22T06:32:32Z</time>
</trkpt>
<trkpt lat="31.1128340" lon="35.6999259">
<ele>1151.33</ele>
<time>2015-11-22T06:32:33Z</time>
</trkpt>
<trkpt lat="31.1127734" lon="35.6999105">
<ele>1151.36</ele>
<time>2015-11-22T06:32:34Z</time>
</trkpt>
<trkpt lat="31.1127084" lon="35.6999011">
<ele>1150.88</ele>
<time>2015-11-22T06:32:35Z</time>
</trkpt>
<trkpt lat="31.1126402" lon="35.6998955">
<ele>1150.64</ele>
<time>2015-11-22T06:32:36Z</time>
</trkpt>
<trkpt lat="31.1125745" lon="35.6998878">
<ele>1150.52</ele>
<time>2015-11-22T06:32:37Z</time>
</trkpt>
<trkpt lat="31.1125064" lon="35.6998793">
<ele>1150.46</ele>
<time>2015-11-22T06:32:38Z</time>
</trkpt>
<trkpt lat="31.1124484" lon="35.6998765">
<ele>1150.93</ele>
<time>2015-11-22T06:32:39Z</time>
</trkpt>
<trkpt lat="31.1123933" lon="35.6998668">
<ele>1151.66</ele>
<time>2015-11-22T06:32:40Z</time>
</trkpt>
<trkpt lat="31.1123245" lon="35.6998580">
<ele>1152.03</ele>
<time>2015-11-22T06:32:41Z</time>
</trkpt>
<trkpt lat="31.1122498" lon="35.6998379">
<ele>1152.21</ele>
<time>2015-11-22T06:32:42Z</time>
</trkpt>
<trkpt lat="31.1121732" lon="35.6998319">
<ele>1151.81</ele>
<time>2015-11-22T06:32:43Z</time>
</trkpt>
<trkpt lat="31.1121100" lon="35.6998223">
<ele>1151.10</ele>
<time>2015-11-22T06:32:44Z</time>
</trkpt>
<trkpt lat="31.1120472" lon="35.6998161">
<ele>1151.25</ele>
<time>2015-11-22T06:32:45Z</time>
</trkpt>
<trkpt lat="31.1119788" lon="35.6998050">
<ele>1151.32</ele>
<time>2015-11-22T06:32:46Z</time>
</trkpt>
<trkpt lat="31.1119102" lon="35.6997975">
<ele>1151.36</ele>
<time>2015-11-22T06:32:47Z</time>
</trkpt>
<trkpt lat="31.1118482" lon="35.6997950">
<ele>1151.38</ele>
<time>2015-11-22T06:32:48Z</time>
</trkpt>
<trkpt lat="31.1117807" lon="35.6997739">
<ele>1150.89</ele>
<time>2015-11-22T06:32:49Z</time>
</trkpt>
<trkpt lat="31.1117242" lon="35.6997632">
<ele>1151.14</ele>
<time>2015-11-22T06:32:50Z</time>
</trkpt>
<trkpt lat="31.1116669" lon="35.6997540">
<ele>1151.27</ele>
<time>2015-11-22T06:32:51Z</time>
</trkpt>
<trkpt lat="31.1116181" lon="35.6997392">
<ele>1150.83</ele>
<time>2015-11-22T06:32:52Z</time>
</trkpt>
<trkpt lat="31.1115636" lon="35.6997332">
<ele>1150.62</ele>
<time>2015-11-22T06:32:53Z</time>
</trkpt>
<trkpt lat="31.1115077" lon="35.6997295">
<ele>1150.51</ele>
<time>2015-11-22T06:32:54Z</time>
</trkpt>
<trkpt lat="31.1114504" lon="35.6997230">
<ele>1150.95</ele>
<time>2015-11-22T06:32:55Z</time>
</trkpt>
<trkpt lat="31.1113961" lon="35.6997164">
<ele>1151.17</ele>
<time>2015-11-22T06:32:56Z</time>
</trkpt>
<trkpt lat="31.1113380" lon="35.6997012">
<ele>1151.29</ele>
<time>2015-11-22T06:32:57Z</time>
</trkpt>
<trkpt lat="31.1112844" lon="35.6996931">
<ele>1151.34</ele>
<time>2015-11-22T06:32:58Z</time>
</trkpt>
<trkpt lat="31.1112307" lon="35.6996866">
<ele>1151.87</ele>
<time>2015-11-22T06:32:59Z</time>
</trkpt>
<trkpt lat="31.1111798" lon="35.6996821">
<ele>1152.13</ele>
<time>2015-11-22T06:33:00Z</time>
</trkpt>
<trkpt lat="31.1111195" lon="35.6996691">
<ele>1152.27</ele>
<time>2015-11-22T06:33:01Z</time>
</trkpt>
<trkpt lat="31.1110678" lon="35.6996586">
<ele>1152.83</ele>
<time>2015-11-22T06:33:02Z</time>
</trkpt>
<trkpt lat="31.1110087" lon="35.6996522">
<ele>1153.61</ele>
<time>2015-11-22T06:33:03Z</time>
</trkpt>
<trkpt lat="31.1109538" lon="35.6996433">
<ele>1154.01</ele>
<time>2015-11-22T06:33:04Z</time>
</trkpt>
<trkpt lat="31.1108971" lon="35.6996277">
<ele>1154.20</ele>
<time>2015-11-22T06:33:05Z</time>
</trkpt>
<trkpt lat="31.1108415" lon="35.6996113">
<ele>1153.80</ele>
<time>2015-11-22T06:33:06Z</time>
</trkpt>
<trkpt lat="31.1107846" lon="35.6995998">
<ele>1153.10</ele>
<time>2015-11-22T06:33:07Z</time>
</trkpt>
<trkpt lat="31.1107382" lon="35.6995796">
<ele>1153.25</ele>
<time>2015-11-22T06:33:08Z</time>
</trkpt>
<trkpt lat="31.1106818" lon="35.6995695">
<ele>1153.32</ele>
<time>2015-11-22T06:33:09Z</time>
</trkpt>
<trkpt lat="31.1106216" lon="35.6995622">
<ele>1154.36</ele>
<time>2015-11-22T06:33:10Z</time>
</trkpt>
<trkpt lat="31.1105666" lon="35.6995556">
<ele>1154.38</ele>
<time>2015-11-22T06:33:11Z</time>
</trkpt>
<trkpt lat="31.1105025" lon="35.6995460">
<ele>1154.39</ele>
<time>2015-11-22T06:33:12Z</time>
</trkpt>
<trkpt lat="31.1104466" lon="35.6995368">
<ele>1154.89</ele>
<time>2015-11-22T06:33:13Z</time>
</trkpt>
<trkpt lat="31.1103834" lon="35.6995281">
<ele>1154.14</ele>
<time>2015-11-22T06:33:14Z</time>
</trkpt>
<trkpt lat="31.1103279" lon="35.6995229">
<ele>1154.27</ele>
<time>2015-11-22T06:33:15Z</time>
</trkpt>
<trkpt lat="31.1102674" lon="35.6995123">
<ele>1154.83</ele>
<time>2015-11-22T06:33:16Z</time>
</trkpt>
<trkpt lat="31.1102046" lon="35.6995019">
<ele>1154.62</ele>
<time>2015-11-22T06:33:17Z</time>
</trkpt>
<trkpt lat="31.1101462" lon="35.6994912">
<ele>1154.51</ele>
<time>2015-11-22T06:33:18Z</time>
</trkpt>
<trkpt lat="31.1100771" lon="35.6994789">
<ele>1154.45</ele>
<time>2015-11-22T06:33:19Z</time>
</trkpt>
<trkpt lat="31.1100074" lon="35.6994666">
<ele>1153.42</ele>
<time>2015-11-22T06:33:20Z</time>
</trkpt>
<trkpt lat="31.1099442" lon="35.6994542">
<ele>1153.91</ele>
<time>2015-11-22T06:33:21Z</time>
</trkpt>
<trkpt lat="31.1098813" lon="35.6994353">
<ele>1154.65</ele>
<time>2015-11-22T06:33:22Z</time>
</trkpt>
<trkpt lat="31.1098103" lon="35.6994322">
<ele>1154.53</ele>
<time>2015-11-22T06:33:23Z</time>
</trkpt>
<trkpt lat="31.1097472" lon="35.6994194">
<ele>1154.96</ele>
<time>2015-11-22T06:33:24Z</time>
</trkpt>
<trkpt lat="31.1096761" lon="35.6994087">
<ele>1155.18</ele>
<time>2015-11-22T06:33:25Z</time>
</trkpt>
<trkpt lat="31.1096106" lon="35.6994039">
<ele>1155.29</ele>
<time>2015-11-22T06:33:26Z</time>
</trkpt>
<trkpt lat="31.1095340" lon="35.6993935">
<ele>1155.34</ele>
<time>2015-11-22T06:33:27Z</time>
</trkpt>
<trkpt lat="31.1094546" lon="35.6993772">
<ele>1155.37</ele>
<time>2015-11-22T06:33:28Z</time>
</trkpt>
<trkpt lat="31.1093863" lon="35.6993715">
<ele>1155.38</ele>
<time>2015-11-22T06:33:29Z</time>
</trkpt>
<trkpt lat="31.1093180" lon="35.6993651">
<ele>1155.39</ele>
<time>2015-11-22T06:33:30Z</time>
</trkpt>
<trkpt lat="31.1092436" lon="35.6993539">
<ele>1155.39</ele>
<time>2015-11-22T06:33:31Z</time>
</trkpt>
<trkpt lat="31.1091704" lon="35.6993448">
<ele>1155.90</ele>
<time>2015-11-22T06:33:32Z</time>
</trkpt>
<trkpt lat="31.1091010" lon="35.6993313">
<ele>1156.15</ele>
<time>2015-11-22T06:33:33Z</time>
</trkpt>
<trkpt lat="31.1090345" lon="35.6993250">
<ele>1155.77</ele>
<time>2015-11-22T06:33:34Z</time>
</trkpt>
<trkpt lat="31.1089679" lon="35.6993191">
<ele>1155.58</ele>
<time>2015-11-22T06:33:35Z</time>
</trkpt>
<trkpt lat="31.1088988" lon="35.6993016">
<ele>1154.99</ele>
<time>2015-11-22T06:33:36Z</time>
</trkpt>
<trkpt lat="31.1088296" lon="35.6992959">
<ele>1155.19</ele>
<time>2015-11-22T06:33:37Z</time>
</trkpt>
<trkpt lat="31.1087657" lon="35.6992917">
<ele>1155.30</ele>
<time>2015-11-22T06:33:38Z</time>
</trkpt>
<trkpt lat="31.1087034" lon="35.6992841">
<ele>1155.35</ele>
<time>2015-11-22T06:33:39Z</time>
</trkpt>
<trkpt lat="31.1086278" lon="35.6992738">
<ele>1155.37</ele>
<time>2015-11-22T06:33:40Z</time>
</trkpt>
<trkpt lat="31.1085654" lon="35.6992550">
<ele>1155.38</ele>
<time>2015-11-22T06:33:41Z</time>
</trkpt>
<trkpt lat="31.1084990" lon="35.6992323">
<ele>1155.39</ele>
<time>2015-11-22T06:33:42Z</time>
</trkpt>
<trkpt lat="31.1084318" lon="35.6992160">
<ele>1155.39</ele>
<time>2015-11-22T06:33:43Z</time>
</trkpt>
<trkpt lat="31.1083664" lon="35.6991964">
<ele>1154.90</ele>
<time>2015-11-22T06:33:44Z</time>
</trkpt>
<trkpt lat="31.1082982" lon="35.6991878">
<ele>1154.65</ele>
<time>2015-11-22T06:33:45Z</time>
</trkpt>
<trkpt lat="31.1082270" lon="35.6991790">
<ele>1154.52</ele>
<time>2015-11-22T06:33:46Z</time>
</trkpt>
<trkpt lat="31.1081630" lon="35.6991630">
<ele>1154.46</ele>
<time>2015-11-22T06:33:47Z</time>
</trkpt>
<trkpt lat="31.1080920" lon="35.6991439">
<ele>1153.93</ele>
<time>2015-11-22T06:33:48Z</time>
</trkpt>
<trkpt lat="31.1080281" lon="35.6991293">
<ele>1153.66</ele>
<time>2015-11-22T06:33:49Z</time>
</trkpt>
<trkpt lat="31.1079608" lon="35.6991275">
<ele>1153.53</ele>
<time>2015-11-22T06:33:50Z</time>
</trkpt>
<trkpt lat="31.1079036" lon="35.6991174">
<ele>1153.96</ele>
<time>2015-11-22T06:33:51Z</time>
</trkpt>
<trkpt lat="31.1078483" lon="35.6991063">
<ele>1154.18</ele>
<time>2015-11-22T06:33:52Z</time>
</trkpt>
<trkpt lat="31.1077877" lon="35.6990959">
<ele>1154.29</ele>
<time>2015-11-22T06:33:53Z</time>
</trkpt>
<trkpt lat="31.1077381" lon="35.6990760">
<ele>1153.84</ele>
<time>2015-11-22T06:33:54Z</time>
</trkpt>
<trkpt lat="31.1076822" lon="35.6990650">
<ele>1154.12</ele>
<time>2015-11-22T06:33:55Z</time>
</trkpt>
<trkpt lat="31.1076220" lon="35.6990479">
<ele>1153.26</ele>
<time>2015-11-22T06:33:56Z</time>
</trkpt>
<trkpt lat="31.1075631" lon="35.6990360">
<ele>1153.33</ele>
<time>2015-11-22T06:33:57Z</time>
</trkpt>
<trkpt lat="31.1075093" lon="35.6990070">
<ele>1154.36</ele>
<time>2015-11-22T06:33:58Z</time>
</trkpt>
<trkpt lat="31.1074403" lon="35.6989891">
<ele>1154.88</ele>
<time>2015-11-22T06:33:59Z</time>
</trkpt>
<trkpt lat="31.1073801" lon="35.6989748">
<ele>1154.64</ele>
<time>2015-11-22T06:34:00Z</time>
</trkpt>
<trkpt lat="31.1073155" lon="35.6989608">
<ele>1155.02</ele>
<time>2015-11-22T06:34:01Z</time>
</trkpt>
<trkpt lat="31.1072510" lon="35.6989475">
<ele>1154.71</ele>
<time>2015-11-22T06:34:02Z</time>
</trkpt>
<trkpt lat="31.1071934" lon="35.6989356">
<ele>1155.05</ele>
<time>2015-11-22T06:34:03Z</time>
</trkpt>
<trkpt lat="31.1071268" lon="35.6989093">
<ele>1154.22</ele>
<time>2015-11-22T06:34:04Z</time>
</trkpt>
<trkpt lat="31.1070686" lon="35.6988875">
<ele>1153.81</ele>
<time>2015-11-22T06:34:05Z</time>
</trkpt>
<trkpt lat="31.1070029" lon="35.6988666">
<ele>1153.60</ele>
<time>2015-11-22T06:34:06Z</time>
</trkpt>
<trkpt lat="31.1069368" lon="35.6988525">
<ele>1154.00</ele>
<time>2015-11-22T06:34:07Z</time>
</trkpt>
<trkpt lat="31.1068752" lon="35.6988322">
<ele>1154.20</ele>
<time>2015-11-22T06:34:08Z</time>
</trkpt>
<trkpt lat="31.1068141" lon="35.6988147">
<ele>1154.30</ele>
<time>2015-11-22T06:34:09Z</time>
</trkpt>
<trkpt lat="31.1067534" lon="35.6987983">
<ele>1153.85</ele>
<time>2015-11-22T06:34:10Z</time>
</trkpt>
<trkpt lat="31.1066960" lon="35.6987781">
<ele>1153.62</ele>
<time>2015-11-22T06:34:11Z</time>
</trkpt>
<trkpt lat="31.1066384" lon="35.6987622">
<ele>1154.01</ele>
<time>2015-11-22T06:34:12Z</time>
</trkpt>
<trkpt lat="31.1065765" lon="35.6987428">
<ele>1154.70</ele>
<time>2015-11-22T06:34:13Z</time>
</trkpt>
<trkpt lat="31.1065223" lon="35.6987230">
<ele>1154.55</ele>
<time>2015-11-22T06:34:14Z</time>
</trkpt>
<trkpt lat="31.1064659" lon="35.6987085">
<ele>1155.47</ele>
<time>2015-11-22T06:34:15Z</time>
</trkpt>
<trkpt lat="31.1064172" lon="35.6986857">
<ele>1155.94</ele>
<time>2015-11-22T06:34:16Z</time>
</trkpt>
<trkpt lat="31.1063685" lon="35.6986626">
<ele>1156.17</ele>
<time>2015-11-22T06:34:17Z</time>
</trkpt>
<trkpt lat="31.1063176" lon="35.6986453">
<ele>1156.28</ele>
<time>2015-11-22T06:34:18Z</time>
</trkpt>
<trkpt lat="31.1062614" lon="35.6986266">
<ele>1155.84</ele>
<time>2015-11-22T06:34:19Z</time>
</trkpt>
<trkpt lat="31.1062047" lon="35.6986036">
<ele>1155.12</ele>
<time>2015-11-22T06:34:20Z</time>
</trkpt>
<trkpt lat="31.1061504" lon="35.6985848">
<ele>1154.26</ele>
<time>2015-11-22T06:34:21Z</time>
</trkpt>
<trkpt lat="31.1060949" lon="35.6985639">
<ele>1153.83</ele>
<time>2015-11-22T06:34:22Z</time>
</trkpt>
<trkpt lat="31.1060348" lon="35.6985479">
<ele>1153.61</ele>
<time>2015-11-22T06:34:23Z</time>
</trkpt>
<trkpt lat="31.1059712" lon="35.6985340">
<ele>1153.00</ele>
<time>2015-11-22T06:34:24Z</time>
</trkpt>
<trkpt lat="31.1059105" lon="35.6985154">
<ele>1152.20</ele>
<time>2015-11-22T06:34:25Z</time>
</trkpt>
<trkpt lat="31.1058479" lon="35.6984983">
<ele>1151.80</ele>
<time>2015-11-22T06:34:26Z</time>
</trkpt>
<trkpt lat="31.1057805" lon="35.6984835">
<ele>1151.10</ele>
<time>2015-11-22T06:34:27Z</time>
</trkpt>
<trkpt lat="31.1057244" lon="35.6984659">
<ele>1151.25</ele>
<time>2015-11-22T06:34:28Z</time>
</trkpt>
<trkpt lat="31.1056671" lon="35.6984491">
<ele>1151.32</ele>
<time>2015-11-22T06:34:29Z</time>
</trkpt>
<trkpt lat="31.1056013" lon="35.6984241">
<ele>1151.36</ele>
<time>2015-11-22T06:34:30Z</time>
</trkpt>
<trkpt lat="31.1055398" lon="35.6984146">
<ele>1150.88</ele>
<time>2015-11-22T06:34:31Z</time>
</trkpt>
<trkpt lat="31.1054882" lon="35.6983962">
<ele>1151.14</ele>
<time>2015-11-22T06:34:32Z</time>
</trkpt>
<trkpt lat="31.1054327" lon="35.6983706">
<ele>1150.77</ele>
<time>2015-11-22T06:34:33Z</time>
</trkpt>
<trkpt lat="31.1053714" lon="35.6983529">
<ele>1150.58</ele>
<time>2015-11-22T06:34:34Z</time>
</trkpt>
<trkpt lat="31.1053155" lon="35.6983267">
<ele>1150.99</ele>
<time>2015-11-22T06:34:35Z</time>
</trkpt>
<trkpt lat="31.1052544" lon="35.6983111">
<ele>1150.69</ele>
<time>2015-11-22T06:34:36Z</time>
</trkpt>
<trkpt lat="31.1051940" lon="35.6982939">
<ele>1150.55</ele>
<time>2015-11-22T06:34:37Z</time>
</trkpt>
<trkpt lat="31.1051314" lon="35.6982708">
<ele>1149.97</ele>
<time>2015-11-22T06:34:38Z</time>
</trkpt>
<trkpt lat="31.1050702" lon="35.6982513">
<ele>1149.18</ele>
<time>2015-11-22T06:34:39Z</time>
</trkpt>
<trkpt lat="31.1050110" lon="35.6982338">
<ele>1148.79</ele>
<time>2015-11-22T06:34:40Z</time>
</trkpt>
<trkpt lat="31.1049469" lon="35.6982204">
<ele>1148.59</ele>
<time>2015-11-22T06:34:41Z</time>
</trkpt>
<trkpt lat="31.1048828" lon="35.6981995">
<ele>1148.50</ele>
<time>2015-11-22T06:34:42Z</time>
</trkpt>
<trkpt lat="31.1048182" lon="35.6981797">
<ele>1148.95</ele>
<time>2015-11-22T06:34:43Z</time>
</trkpt>
<trkpt lat="31.1047556" lon="35.6981573">
<ele>1149.17</ele>
<time>2015-11-22T06:34:44Z</time>
</trkpt>
<trkpt lat="31.1046983" lon="35.6981409">
<ele>1149.78</ele>
<time>2015-11-22T06:34:45Z</time>
</trkpt>
<trkpt lat="31.1046406" lon="35.6981244">
<ele>1150.09</ele>
<time>2015-11-22T06:34:46Z</time>
</trkpt>
<trkpt lat="31.1045802" lon="35.6981115">
<ele>1150.24</ele>
<time>2015-11-22T06:34:47Z</time>
</trkpt>
<trkpt lat="31.1045221" lon="35.6980973">
<ele>1150.82</ele>
<time>2015-11-22T06:34:48Z</time>
</trkpt>
<trkpt lat="31.1044749" lon="35.6980870">
<ele>1150.61</ele>
<time>2015-11-22T06:34:49Z</time>
</trkpt>
<trkpt lat="31.1044205" lon="35.6980694">
<ele>1151.00</ele>
<time>2015-11-22T06:34:50Z</time>
</trkpt>
<trkpt lat="31.1043668" lon="35.6980499">
<ele>1151.20</ele>
<time>2015-11-22T06:34:51Z</time>
</trkpt>
<trkpt lat="31.1043177" lon="35.6980385">
<ele>1151.30</ele>
<time>2015-11-22T06:34:52Z</time>
</trkpt>
<trkpt lat="31.1042705" lon="35.6980199">
<ele>1151.35</ele>
<time>2015-11-22T06:34:53Z</time>
</trkpt>
<trkpt lat="31.1042203" lon="35.6979960">
<ele>1151.87</ele>
<time>2015-11-22T06:34:54Z</time>
</trkpt>
<trkpt lat="31.1041599" lon="35.6979728">
<ele>1152.63</ele>
<time>2015-11-22T06:34:55Z</time>
</trkpt>
<trkpt lat="31.1041140" lon="35.6979534">
<ele>1153.52</ele>
<time>2015-11-22T06:34:56Z</time>
</trkpt>
<trkpt lat="31.1040592" lon="35.6979419">
<ele>1153.96</ele>
<time>2015-11-22T06:34:57Z</time>
</trkpt>
<trkpt lat="31.1040085" lon="35.6979345">
<ele>1154.18</ele>
<time>2015-11-22T06:34:58Z</time>
</trkpt>
<trkpt lat="31.1039438" lon="35.6979152">
<ele>1153.79</ele>
<time>2015-11-22T06:34:59Z</time>
</trkpt>
<trkpt lat="31.1038875" lon="35.6978949">
<ele>1153.59</ele>
<time>2015-11-22T06:35:00Z</time>
</trkpt>
<trkpt lat="31.1038259" lon="35.6978673">
<ele>1153.49</ele>
<time>2015-11-22T06:35:01Z</time>
</trkpt>
<trkpt lat="31.1037670" lon="35.6978447">
<ele>1153.45</ele>
<time>2015-11-22T06:35:02Z</time>
</trkpt>
<trkpt lat="31.1037129" lon="35.6978111">
<ele>1153.42</ele>
<time>2015-11-22T06:35:03Z</time>
</trkpt>
<trkpt lat="31.1036580" lon="35.6977931">
<ele>1153.41</ele>
<time>2015-11-22T06:35:04Z</time>
</trkpt>
<trkpt lat="31.1036045" lon="35.6977801">
<ele>1152.90</ele>
<time>2015-11-22T06:35:05Z</time>
</trkpt>
<trkpt lat="31.1035551" lon="35.6977589">
<ele>1152.15</ele>
<time>2015-11-22T06:35:06Z</time>
</trkpt>
<trkpt lat="31.1035022" lon="35.6977408">
<ele>1151.77</ele>
<time>2015-11-22T06:35:07Z</time>
</trkpt>
<trkpt lat="31.1034493" lon="35.6977191">
<ele>1151.59</ele>
<time>2015-11-22T06:35:08Z</time>
</trkpt>
<trkpt lat="31.1034035" lon="35.6976949">
<ele>1151.99</ele>
<time>2015-11-22T06:35:09Z</time>
</trkpt>
<trkpt lat="31.1033085" lon="35.6976605">
<ele>1152.05</ele>
<time>2015-11-22T06:35:11Z</time>
</trkpt>
<trkpt lat="31.1032266" lon="35.6976462">
<ele>1153.06</ele>
<time>2015-11-22T06:35:13Z</time>
</trkpt>
<trkpt lat="31.1031811" lon="35.6976272">
<ele>1152.73</ele>
<time>2015-11-22T06:35:14Z</time>
</trkpt>
<trkpt lat="31.1030996" lon="35.6976111">
<ele>1153.23</ele>
<time>2015-11-22T06:35:16Z</time>
</trkpt>
<trkpt lat="31.1030547" lon="35.6975922">
<ele>1153.31</ele>
<time>2015-11-22T06:35:17Z</time>
</trkpt>
<trkpt lat="31.1030096" lon="35.6975770">
<ele>1152.86</ele>
<time>2015-11-22T06:35:18Z</time>
</trkpt>
<trkpt lat="31.1029567" lon="35.6975604">
<ele>1153.13</ele>
<time>2015-11-22T06:35:19Z</time>
</trkpt>
<trkpt lat="31.1029063" lon="35.6975507">
<ele>1153.26</ele>
<time>2015-11-22T06:35:20Z</time>
</trkpt>
<trkpt lat="31.1028580" lon="35.6975374">
<ele>1153.33</ele>
<time>2015-11-22T06:35:21Z</time>
</trkpt>
<trkpt lat="31.1028073" lon="35.6975270">
<ele>1153.36</ele>
<time>2015-11-22T06:35:22Z</time>
</trkpt>
<trkpt lat="31.1027560" lon="35.6975174">
<ele>1152.88</ele>
<time>2015-11-22T06:35:23Z</time>
</trkpt>
<trkpt lat="31.1027033" lon="35.6975059">
<ele>1153.64</ele>
<time>2015-11-22T06:35:24Z</time>
</trkpt>
<trkpt lat="31.1026402" lon="35.6974863">
<ele>1154.02</ele>
<time>2015-11-22T06:35:25Z</time>
</trkpt>
<trkpt lat="31.1025876" lon="35.6974714">
<ele>1153.71</ele>
<time>2015-11-22T06:35:26Z</time>
</trkpt>
<trkpt lat="31.1025388" lon="35.6974461">
<ele>1154.05</ele>
<time>2015-11-22T06:35:27Z</time>
</trkpt>
<trkpt lat="31.1024847" lon="35.6974261">
<ele>1154.22</ele>
<time>2015-11-22T06:35:28Z</time>
</trkpt>
<trkpt lat="31.1024324" lon="35.6974088">
<ele>1154.31</ele>
<time>2015-11-22T06:35:29Z</time>
</trkpt>
<trkpt lat="31.1023763" lon="35.6973899">
<ele>1154.35</ele>
<time>2015-11-22T06:35:30Z</time>
</trkpt>
<trkpt lat="31.1023223" lon="35.6973708">
<ele>1154.88</ele>
<time>2015-11-22T06:35:31Z</time>
</trkpt>
<trkpt lat="31.1022740" lon="35.6973554">
<ele>1155.14</ele>
<time>2015-11-22T06:35:32Z</time>
</trkpt>
<trkpt lat="31.1022132" lon="35.6973435">
<ele>1155.27</ele>
<time>2015-11-22T06:35:33Z</time>
</trkpt>
<trkpt lat="31.1021593" lon="35.6973284">
<ele>1154.83</ele>
<time>2015-11-22T06:35:34Z</time>
</trkpt>
<trkpt lat="31.1021023" lon="35.6973076">
<ele>1155.11</ele>
<time>2015-11-22T06:35:35Z</time>
</trkpt>
<trkpt lat="31.1020459" lon="35.6972889">
<ele>1155.26</ele>
<time>2015-11-22T06:35:36Z</time>
</trkpt>
<trkpt lat="31.1019960" lon="35.6972691">
<ele>1155.83</ele>
<time>2015-11-22T06:35:37Z</time>
</trkpt>
<trkpt lat="31.1019419" lon="35.6972568">
<ele>1156.11</ele>
<time>2015-11-22T06:35:38Z</time>
</trkpt>
<trkpt lat="31.1018917" lon="35.6972426">
<ele>1156.25</ele>
<time>2015-11-22T06:35:39Z</time>
</trkpt>
<trkpt lat="31.1018395" lon="35.6972326">
<ele>1156.33</ele>
<time>2015-11-22T06:35:40Z</time>
</trkpt>
<trkpt lat="31.1017880" lon="35.6972060">
<ele>1156.86</ele>
<time>2015-11-22T06:35:41Z</time>
</trkpt>
<trkpt lat="31.1017370" lon="35.6971837">
<ele>1156.63</ele>
<time>2015-11-22T06:35:42Z</time>
</trkpt>
<trkpt lat="31.1016909" lon="35.6971696">
<ele>1156.51</ele>
<time>2015-11-22T06:35:43Z</time>
</trkpt>
<trkpt lat="31.1016446" lon="35.6971536">
<ele>1156.96</ele>
<time>2015-11-22T06:35:44Z</time>
</trkpt>
<trkpt lat="31.1015653" lon="35.6971188">
<ele>1156.79</ele>
<time>2015-11-22T06:35:46Z</time>
</trkpt>
<trkpt lat="31.1015212" lon="35.6971023">
<ele>1156.09</ele>
<time>2015-11-22T06:35:47Z</time>
</trkpt>
<trkpt lat="31.1014287" lon="35.6970705">
<ele>1155.07</ele>
<time>2015-11-22T06:35:49Z</time>
</trkpt>
<trkpt lat="31.1013792" lon="35.6970586">
<ele>1154.73</ele>
<time>2015-11-22T06:35:50Z</time>
</trkpt>
<trkpt lat="31.1013314" lon="35.6970491">
<ele>1154.57</ele>
<time>2015-11-22T06:35:51Z</time>
</trkpt>
<trkpt lat="31.1012859" lon="35.6970309">
<ele>1154.48</ele>
<time>2015-11-22T06:35:52Z</time>
</trkpt>
<trkpt lat="31.1012374" lon="35.6970190">
<ele>1154.44</ele>
<time>2015-11-22T06:35:53Z</time>
</trkpt>
<trkpt lat="31.1011908" lon="35.6970071">
<ele>1154.92</ele>
<time>2015-11-22T06:35:54Z</time>
</trkpt>
<trkpt lat="31.1011464" lon="35.6969963">
<ele>1154.66</ele>
<time>2015-11-22T06:35:55Z</time>
</trkpt>
<trkpt lat="31.1011022" lon="35.6969863">
<ele>1154.53</ele>
<time>2015-11-22T06:35:56Z</time>
</trkpt>
<trkpt lat="31.1010532" lon="35.6969732">
<ele>1153.96</ele>
<time>2015-11-22T06:35:57Z</time>
</trkpt>
<trkpt lat="31.1010094" lon="35.6969608">
<ele>1153.68</ele>
<time>2015-11-22T06:35:58Z</time>
</trkpt>
<trkpt lat="31.1009195" lon="35.6969552">
<ele>1153.47</ele>
<time>2015-11-22T06:36:00Z</time>
</trkpt>
<trkpt lat="31.1008451" lon="35.6969318">
<ele>1153.91</ele>
<time>2015-11-22T06:36:02Z</time>
</trkpt>
<trkpt lat="31.1007797" lon="35.6969095">
<ele>1154.28</ele>
<time>2015-11-22T06:36:04Z</time>
</trkpt>
<trkpt lat="31.1007215" lon="35.6968812">
<ele>1153.87</ele>
<time>2015-11-22T06:36:06Z</time>
</trkpt>
<trkpt lat="31.1006528" lon="35.6968546">
<ele>1154.26</ele>
<time>2015-11-22T06:36:08Z</time>
</trkpt>
<trkpt lat="31.1005891" lon="35.6968289">
<ele>1154.86</ele>
<time>2015-11-22T06:36:10Z</time>
</trkpt>
<trkpt lat="31.1005231" lon="35.6968026">
<ele>1155.51</ele>
<time>2015-11-22T06:36:12Z</time>
</trkpt>
<trkpt lat="31.1004583" lon="35.6967717">
<ele>1154.68</ele>
<time>2015-11-22T06:36:14Z</time>
</trkpt>
<trkpt lat="31.1003938" lon="35.6967376">
<ele>1154.47</ele>
<time>2015-11-22T06:36:16Z</time>
</trkpt>
<trkpt lat="31.1003304" lon="35.6967035">
<ele>1153.41</ele>
<time>2015-11-22T06:36:18Z</time>
</trkpt>
<trkpt lat="31.1002659" lon="35.6966680">
<ele>1151.90</ele>
<time>2015-11-22T06:36:20Z</time>
</trkpt>
<trkpt lat="31.1002002" lon="35.6966354">
<ele>1152.27</ele>
<time>2015-11-22T06:36:22Z</time>
</trkpt>
<trkpt lat="31.1001326" lon="35.6966142">
<ele>1153.62</ele>
<time>2015-11-22T06:36:24Z</time>
</trkpt>
<trkpt lat="31.1000648" lon="35.6965991">
<ele>1154.95</ele>
<time>2015-11-22T06:36:26Z</time>
</trkpt>
<trkpt lat="31.0999955" lon="35.6965801">
<ele>1155.54</ele>
<time>2015-11-22T06:36:28Z</time>
</trkpt>
<trkpt lat="31.0999320" lon="35.6965675">
<ele>1156.68</ele>
<time>2015-11-22T06:36:30Z</time>
</trkpt>
<trkpt lat="31.0998931" lon="35.6965992">
<ele>1158.73</ele>
<time>2015-11-22T06:36:44Z</time>
</trkpt>
<trkpt lat="31.0998332" lon="35.6965636">
<ele>1159.31</ele>
<time>2015-11-22T06:36:47Z</time>
</trkpt>
<trkpt lat="31.0997798" lon="35.6965396">
<ele>1158.63</ele>
<time>2015-11-22T06:36:49Z</time>
</trkpt>
<trkpt lat="31.0997242" lon="35.6965220">
<ele>1156.95</ele>
<time>2015-11-22T06:36:51Z</time>
</trkpt>
<trkpt lat="31.0996666" lon="35.6965060">
<ele>1157.04</ele>
<time>2015-11-22T06:36:53Z</time>
</trkpt>
<trkpt lat="31.0996071" lon="35.6964887">
<ele>1157.31</ele>
<time>2015-11-22T06:36:55Z</time>
</trkpt>
<trkpt lat="31.0995446" lon="35.6964751">
<ele>1157.87</ele>
<time>2015-11-22T06:36:57Z</time>
</trkpt>
<trkpt lat="31.0994819" lon="35.6964655">
<ele>1158.77</ele>
<time>2015-11-22T06:36:59Z</time>
</trkpt>
<trkpt lat="31.0994175" lon="35.6964550">
<ele>1160.24</ele>
<time>2015-11-22T06:37:01Z</time>
</trkpt>
<trkpt lat="31.0993532" lon="35.6964402">
<ele>1162.36</ele>
<time>2015-11-22T06:37:03Z</time>
</trkpt>
<trkpt lat="31.0992888" lon="35.6964246">
<ele>1163.14</ele>
<time>2015-11-22T06:37:05Z</time>
</trkpt>
<trkpt lat="31.0992250" lon="35.6964104">
<ele>1163.33</ele>
<time>2015-11-22T06:37:07Z</time>
</trkpt>
<trkpt lat="31.0991617" lon="35.6963998">
<ele>1163.13</ele>
<time>2015-11-22T06:37:09Z</time>
</trkpt>
<trkpt lat="31.0990934" lon="35.6963906">
<ele>1163.08</ele>
<time>2015-11-22T06:37:11Z</time>
</trkpt>
<trkpt lat="31.0990229" lon="35.6963800">
<ele>1164.07</ele>
<time>2015-11-22T06:37:13Z</time>
</trkpt>
<trkpt lat="31.0989512" lon="35.6963745">
<ele>1165.06</ele>
<time>2015-11-22T06:37:15Z</time>
</trkpt>
<trkpt lat="31.0988806" lon="35.6963683">
<ele>1165.31</ele>
<time>2015-11-22T06:37:17Z</time>
</trkpt>
<trkpt lat="31.0988087" lon="35.6963587">
<ele>1165.13</ele>
<time>2015-11-22T06:37:19Z</time>
</trkpt>
<trkpt lat="31.0987386" lon="35.6963486">
<ele>1165.33</ele>
<time>2015-11-22T06:37:21Z</time>
</trkpt>
<trkpt lat="31.0986667" lon="35.6963392">
<ele>1165.88</ele>
<time>2015-11-22T06:37:23Z</time>
</trkpt>
<trkpt lat="31.0985927" lon="35.6963265">
<ele>1167.02</ele>
<time>2015-11-22T06:37:25Z</time>
</trkpt>
<trkpt lat="31.0985166" lon="35.6963149">
<ele>1167.30</ele>
<time>2015-11-22T06:37:27Z</time>
</trkpt>
<trkpt lat="31.0984380" lon="35.6963115">
<ele>1166.62</ele>
<time>2015-11-22T06:37:29Z</time>
</trkpt>
<trkpt lat="31.0983566" lon="35.6963073">
<ele>1166.45</ele>
<time>2015-11-22T06:37:31Z</time>
</trkpt>
<trkpt lat="31.0982752" lon="35.6962945">
<ele>1165.41</ele>
<time>2015-11-22T06:37:33Z</time>
</trkpt>
<trkpt lat="31.0982050" lon="35.6962827">
<ele>1164.90</ele>
<time>2015-11-22T06:37:34Z</time>
</trkpt>
<trkpt lat="31.0981212" lon="35.6962803">
<ele>1164.52</ele>
<time>2015-11-22T06:37:36Z</time>
</trkpt>
<trkpt lat="31.0980420" lon="35.6962710">
<ele>1165.68</ele>
<time>2015-11-22T06:37:38Z</time>
</trkpt>
<trkpt lat="31.0979659" lon="35.6962658">
<ele>1165.97</ele>
<time>2015-11-22T06:37:40Z</time>
</trkpt>
<trkpt lat="31.0978925" lon="35.6962508">
<ele>1165.79</ele>
<time>2015-11-22T06:37:42Z</time>
</trkpt>
<trkpt lat="31.0978173" lon="35.6962467">
<ele>1165.75</ele>
<time>2015-11-22T06:37:44Z</time>
</trkpt>
<trkpt lat="31.0977384" lon="35.6962346">
<ele>1165.48</ele>
<time>2015-11-22T06:37:46Z</time>
</trkpt>
<trkpt lat="31.0976560" lon="35.6962318">
<ele>1165.92</ele>
<time>2015-11-22T06:37:48Z</time>
</trkpt>
<trkpt lat="31.0976017" lon="35.6962358">
<ele>1165.66</ele>
<time>2015-11-22T06:37:49Z</time>
</trkpt>
<trkpt lat="31.0975510" lon="35.6962316">
<ele>1165.53</ele>
<time>2015-11-22T06:37:50Z</time>
</trkpt>
<trkpt lat="31.0975032" lon="35.6962205">
<ele>1165.96</ele>
<time>2015-11-22T06:37:51Z</time>
</trkpt>
<trkpt lat="31.0974250" lon="35.6962093">
<ele>1167.54</ele>
<time>2015-11-22T06:37:53Z</time>
</trkpt>
<trkpt lat="31.0973742" lon="35.6962025">
<ele>1167.47</ele>
<time>2015-11-22T06:37:54Z</time>
</trkpt>
<trkpt lat="31.0972794" lon="35.6961877">
<ele>1166.91</ele>
<time>2015-11-22T06:37:56Z</time>
</trkpt>
<trkpt lat="31.0972347" lon="35.6961718">
<ele>1165.66</ele>
<time>2015-11-22T06:37:57Z</time>
</trkpt>
<trkpt lat="31.0971857" lon="35.6961652">
<ele>1165.03</ele>
<time>2015-11-22T06:37:58Z</time>
</trkpt>
<trkpt lat="31.0971417" lon="35.6961538">
<ele>1164.71</ele>
<time>2015-11-22T06:37:59Z</time>
</trkpt>
<trkpt lat="31.0970894" lon="35.6961492">
<ele>1165.05</ele>
<time>2015-11-22T06:38:00Z</time>
</trkpt>
<trkpt lat="31.0970432" lon="35.6961412">
<ele>1165.23</ele>
<time>2015-11-22T06:38:01Z</time>
</trkpt>
<trkpt lat="31.0969957" lon="35.6961409">
<ele>1165.31</ele>
<time>2015-11-22T06:38:02Z</time>
</trkpt>
<trkpt lat="31.0969502" lon="35.6961374">
<ele>1165.35</ele>
<time>2015-11-22T06:38:03Z</time>
</trkpt>
<trkpt lat="31.0968661" lon="35.6961337">
<ele>1166.14</ele>
<time>2015-11-22T06:38:05Z</time>
</trkpt>
<trkpt lat="31.0968145" lon="35.6961251">
<ele>1166.77</ele>
<time>2015-11-22T06:38:06Z</time>
</trkpt>
<trkpt lat="31.0967669" lon="35.6961150">
<ele>1167.08</ele>
<time>2015-11-22T06:38:07Z</time>
</trkpt>
<trkpt lat="31.0967177" lon="35.6961075">
<ele>1166.74</ele>
<time>2015-11-22T06:38:08Z</time>
</trkpt>
<trkpt lat="31.0966712" lon="35.6961115">
<ele>1167.07</ele>
<time>2015-11-22T06:38:09Z</time>
</trkpt>
<trkpt lat="31.0966243" lon="35.6961093">
<ele>1167.23</ele>
<time>2015-11-22T06:38:10Z</time>
</trkpt>
<trkpt lat="31.0965788" lon="35.6961062">
<ele>1167.31</ele>
<time>2015-11-22T06:38:11Z</time>
</trkpt>
<trkpt lat="31.0965323" lon="35.6960871">
<ele>1167.36</ele>
<time>2015-11-22T06:38:12Z</time>
</trkpt>
<trkpt lat="31.0964441" lon="35.6960708">
<ele>1167.39</ele>
<time>2015-11-22T06:38:14Z</time>
</trkpt>
<trkpt lat="31.0963625" lon="35.6960486">
<ele>1168.14</ele>
<time>2015-11-22T06:38:16Z</time>
</trkpt>
<trkpt lat="31.0963168" lon="35.6960470">
<ele>1168.27</ele>
<time>2015-11-22T06:38:17Z</time>
</trkpt>
<trkpt lat="31.0962708" lon="35.6960450">
<ele>1168.33</ele>
<time>2015-11-22T06:38:18Z</time>
</trkpt>
<trkpt lat="31.0962223" lon="35.6960452">
<ele>1167.87</ele>
<time>2015-11-22T06:38:19Z</time>
</trkpt>
<trkpt lat="31.0961422" lon="35.6960354">
<ele>1167.26</ele>
<time>2015-11-22T06:38:21Z</time>
</trkpt>
<trkpt lat="31.0960420" lon="35.6960399">
<ele>1166.86</ele>
<time>2015-11-22T06:38:23Z</time>
</trkpt>
<trkpt lat="31.0959956" lon="35.6960428">
<ele>1167.13</ele>
<time>2015-11-22T06:38:24Z</time>
</trkpt>
<trkpt lat="31.0959139" lon="35.6960496">
<ele>1168.58</ele>
<time>2015-11-22T06:38:26Z</time>
</trkpt>
<trkpt lat="31.0958581" lon="35.6960522">
<ele>1168.49</ele>
<time>2015-11-22T06:38:27Z</time>
</trkpt>
<trkpt lat="31.0957675" lon="35.6960633">
<ele>1166.42</ele>
<time>2015-11-22T06:38:29Z</time>
</trkpt>
<trkpt lat="31.0957198" lon="35.6960666">
<ele>1165.91</ele>
<time>2015-11-22T06:38:30Z</time>
</trkpt>
<trkpt lat="31.0956635" lon="35.6960770">
<ele>1165.65</ele>
<time>2015-11-22T06:38:31Z</time>
</trkpt>
<trkpt lat="31.0955705" lon="35.6960949">
<ele>1164.21</ele>
<time>2015-11-22T06:38:33Z</time>
</trkpt>
<trkpt lat="31.0955190" lon="35.6960991">
<ele>1163.80</ele>
<time>2015-11-22T06:38:34Z</time>
</trkpt>
<trkpt lat="31.0954357" lon="35.6961129">
<ele>1164.50</ele>
<time>2015-11-22T06:38:36Z</time>
</trkpt>
<trkpt lat="31.0953888" lon="35.6961177">
<ele>1164.45</ele>
<time>2015-11-22T06:38:37Z</time>
</trkpt>
<trkpt lat="31.0953004" lon="35.6961070">
<ele>1165.16</ele>
<time>2015-11-22T06:38:39Z</time>
</trkpt>
<trkpt lat="31.0952206" lon="35.6961350">
<ele>1166.34</ele>
<time>2015-11-22T06:38:41Z</time>
</trkpt>
<trkpt lat="31.0951269" lon="35.6961533">
<ele>1165.38</ele>
<time>2015-11-22T06:38:43Z</time>
</trkpt>
<trkpt lat="31.0950395" lon="35.6961683">
<ele>1165.64</ele>
<time>2015-11-22T06:38:45Z</time>
</trkpt>
<trkpt lat="31.0949562" lon="35.6961907">
<ele>1165.46</ele>
<time>2015-11-22T06:38:47Z</time>
</trkpt>
<trkpt lat="31.0949053" lon="35.6962036">
<ele>1165.66</ele>
<time>2015-11-22T06:38:49Z</time>
</trkpt>
<trkpt lat="31.0948600" lon="35.6962049">
<ele>1163.92</ele>
<time>2015-11-22T06:38:59Z</time>
</trkpt>
<trkpt lat="31.0948136" lon="35.6961998">
<ele>1162.91</ele>
<time>2015-11-22T06:39:06Z</time>
</trkpt>
<trkpt lat="31.0947661" lon="35.6962147">
<ele>1162.62</ele>
<time>2015-11-22T06:39:10Z</time>
</trkpt>
<trkpt lat="31.0947159" lon="35.6962302">
<ele>1162.67</ele>
<time>2015-11-22T06:39:13Z</time>
</trkpt>
<trkpt lat="31.0946615" lon="35.6962433">
<ele>1163.47</ele>
<time>2015-11-22T06:39:15Z</time>
</trkpt>
<trkpt lat="31.0945842" lon="35.6962617">
<ele>1162.91</ele>
<time>2015-11-22T06:39:17Z</time>
</trkpt>
<trkpt lat="31.0944538" lon="35.6962980">
<ele>1161.28</ele>
<time>2015-11-22T06:39:19Z</time>
</trkpt>
<trkpt lat="31.0944073" lon="35.6963004">
<ele>1160.84</ele>
<time>2015-11-22T06:39:20Z</time>
</trkpt>
<trkpt lat="31.0943599" lon="35.6963056">
<ele>1161.12</ele>
<time>2015-11-22T06:39:21Z</time>
</trkpt>
<trkpt lat="31.0943002" lon="35.6963257">
<ele>1160.76</ele>
<time>2015-11-22T06:39:22Z</time>
</trkpt>
<trkpt lat="31.0942380" lon="35.6963390">
<ele>1160.08</ele>
<time>2015-11-22T06:39:23Z</time>
</trkpt>
<trkpt lat="31.0941764" lon="35.6963546">
<ele>1159.24</ele>
<time>2015-11-22T06:39:24Z</time>
</trkpt>
<trkpt lat="31.0941124" lon="35.6963645">
<ele>1158.82</ele>
<time>2015-11-22T06:39:25Z</time>
</trkpt>
<trkpt lat="31.0940488" lon="35.6963834">
<ele>1158.61</ele>
<time>2015-11-22T06:39:26Z</time>
</trkpt>
<trkpt lat="31.0939855" lon="35.6963911">
<ele>1158.50</ele>
<time>2015-11-22T06:39:27Z</time>
</trkpt>
<trkpt lat="31.0939178" lon="35.6964030">
<ele>1158.45</ele>
<time>2015-11-22T06:39:28Z</time>
</trkpt>
<trkpt lat="31.0938464" lon="35.6964224">
<ele>1157.92</ele>
<time>2015-11-22T06:39:29Z</time>
</trkpt>
<trkpt lat="31.0937659" lon="35.6964351">
<ele>1157.66</ele>
<time>2015-11-22T06:39:30Z</time>
</trkpt>
<trkpt lat="31.0936940" lon="35.6964415">
<ele>1157.53</ele>
<time>2015-11-22T06:39:31Z</time>
</trkpt>
<trkpt lat="31.0936262" lon="35.6964452">
<ele>1156.96</ele>
<time>2015-11-22T06:39:32Z</time>
</trkpt>
<trkpt lat="31.0935783" lon="35.6964665">
<ele>1156.68</ele>
<time>2015-11-22T06:39:33Z</time>
</trkpt>
<trkpt lat="31.0934987" lon="35.6964878">
<ele>1157.22</ele>
<time>2015-11-22T06:39:35Z</time>
</trkpt>
<trkpt lat="31.0934233" lon="35.6965053">
<ele>1157.85</ele>
<time>2015-11-22T06:39:37Z</time>
</trkpt>
<trkpt lat="31.0933780" lon="35.6965018">
<ele>1157.62</ele>
<time>2015-11-22T06:39:38Z</time>
</trkpt>
<trkpt lat="31.0933318" lon="35.6964988">
<ele>1157.51</ele>
<time>2015-11-22T06:39:39Z</time>
</trkpt>
<trkpt lat="31.0932596" lon="35.6964828">
<ele>1157.43</ele>
<time>2015-11-22T06:39:41Z</time>
</trkpt>
<trkpt lat="31.0931861" lon="35.6964754">
<ele>1156.90</ele>
<time>2015-11-22T06:39:43Z</time>
</trkpt>
<trkpt lat="31.0931181" lon="35.6964683">
<ele>1157.02</ele>
<time>2015-11-22T06:39:45Z</time>
</trkpt>
<trkpt lat="31.0930476" lon="35.6964567">
<ele>1157.55</ele>
<time>2015-11-22T06:39:47Z</time>
</trkpt>
<trkpt lat="31.0929743" lon="35.6964431">
<ele>1158.44</ele>
<time>2015-11-22T06:39:49Z</time>
</trkpt>
<trkpt lat="31.0929028" lon="35.6964241">
<ele>1157.16</ele>
<time>2015-11-22T06:39:51Z</time>
</trkpt>
<trkpt lat="31.0928413" lon="35.6964074">
<ele>1156.34</ele>
<time>2015-11-22T06:39:53Z</time>
</trkpt>
<trkpt lat="31.0927937" lon="35.6963907">
<ele>1157.38</ele>
<time>2015-11-22T06:39:55Z</time>
</trkpt>
<trkpt lat="31.0927486" lon="35.6963814">
<ele>1156.15</ele>
<time>2015-11-22T06:39:58Z</time>
</trkpt>
<trkpt lat="31.0926986" lon="35.6963741">
<ele>1156.69</ele>
<time>2015-11-22T06:40:02Z</time>
</trkpt>
<trkpt lat="31.0926536" lon="35.6963522">
<ele>1156.52</ele>
<time>2015-11-22T06:40:15Z</time>
</trkpt>
<trkpt lat="31.0926080" lon="35.6963523">
<ele>1155.66</ele>
<time>2015-11-22T06:40:18Z</time>
</trkpt>
<trkpt lat="31.0925502" lon="35.6963436">
<ele>1156.18</ele>
<time>2015-11-22T06:40:21Z</time>
</trkpt>
<trkpt lat="31.0924925" lon="35.6963364">
<ele>1157.24</ele>
<time>2015-11-22T06:40:24Z</time>
</trkpt>
<trkpt lat="31.0924362" lon="35.6963172">
<ele>1156.70</ele>
<time>2015-11-22T06:40:28Z</time>
</trkpt>
<trkpt lat="31.0923810" lon="35.6963063">
<ele>1156.18</ele>
<time>2015-11-22T06:40:31Z</time>
</trkpt>
<trkpt lat="31.0923140" lon="35.6963025">
<ele>1156.34</ele>
<time>2015-11-22T06:40:33Z</time>
</trkpt>
<trkpt lat="31.0922399" lon="35.6962924">
<ele>1157.38</ele>
<time>2015-11-22T06:40:35Z</time>
</trkpt>
<trkpt lat="31.0921732" lon="35.6962742">
<ele>1159.39</ele>
<time>2015-11-22T06:40:37Z</time>
</trkpt>
<trkpt lat="31.0921097" lon="35.6962494">
<ele>1159.40</ele>
<time>2015-11-22T06:40:39Z</time>
</trkpt>
<trkpt lat="31.0920478" lon="35.6962323">
<ele>1159.40</ele>
<time>2015-11-22T06:40:41Z</time>
</trkpt>
<trkpt lat="31.0919867" lon="35.6962219">
<ele>1159.40</ele>
<time>2015-11-22T06:40:43Z</time>
</trkpt>
<trkpt lat="31.0919210" lon="35.6962074">
<ele>1159.90</ele>
<time>2015-11-22T06:40:45Z</time>
</trkpt>
<trkpt lat="31.0918530" lon="35.6961909">
<ele>1159.52</ele>
<time>2015-11-22T06:40:47Z</time>
</trkpt>
<trkpt lat="31.0917837" lon="35.6961780">
<ele>1159.18</ele>
<time>2015-11-22T06:40:49Z</time>
</trkpt>
<trkpt lat="31.0917160" lon="35.6961627">
<ele>1159.34</ele>
<time>2015-11-22T06:40:51Z</time>
</trkpt>
<trkpt lat="31.0916520" lon="35.6961409">
<ele>1159.13</ele>
<time>2015-11-22T06:40:53Z</time>
</trkpt>
<trkpt lat="31.0915856" lon="35.6961250">
<ele>1160.83</ele>
<time>2015-11-22T06:40:55Z</time>
</trkpt>
<trkpt lat="31.0915220" lon="35.6961129">
<ele>1161.26</ele>
<time>2015-11-22T06:40:57Z</time>
</trkpt>
<trkpt lat="31.0914587" lon="35.6960970">
<ele>1162.11</ele>
<time>2015-11-22T06:40:59Z</time>
</trkpt>
<trkpt lat="31.0913954" lon="35.6960810">
<ele>1162.83</ele>
<time>2015-11-22T06:41:01Z</time>
</trkpt>
<trkpt lat="31.0913317" lon="35.6960730">
<ele>1164.00</ele>
<time>2015-11-22T06:41:03Z</time>
</trkpt>
<trkpt lat="31.0912714" lon="35.6960712">
<ele>1165.05</ele>
<time>2015-11-22T06:41:05Z</time>
</trkpt>
<trkpt lat="31.0912100" lon="35.6960631">
<ele>1166.06</ele>
<time>2015-11-22T06:41:07Z</time>
</trkpt>
<trkpt lat="31.0911493" lon="35.6960428">
<ele>1167.81</ele>
<time>2015-11-22T06:41:09Z</time>
</trkpt>
<trkpt lat="31.0910889" lon="35.6960260">
<ele>1168.75</ele>
<time>2015-11-22T06:41:11Z</time>
</trkpt>
<trkpt lat="31.0910298" lon="35.6960117">
<ele>1169.99</ele>
<time>2015-11-22T06:41:13Z</time>
</trkpt>
<trkpt lat="31.0909702" lon="35.6959991">
<ele>1170.79</ele>
<time>2015-11-22T06:41:15Z</time>
</trkpt>
<trkpt lat="31.0909101" lon="35.6959924">
<ele>1171.75</ele>
<time>2015-11-22T06:41:17Z</time>
</trkpt>
<trkpt lat="31.0908515" lon="35.6959804">
<ele>1172.23</ele>
<time>2015-11-22T06:41:19Z</time>
</trkpt>
<trkpt lat="31.0907884" lon="35.6959717">
<ele>1172.11</ele>
<time>2015-11-22T06:41:21Z</time>
</trkpt>
<trkpt lat="31.0907244" lon="35.6959593">
<ele>1170.32</ele>
<time>2015-11-22T06:41:23Z</time>
</trkpt>
<trkpt lat="31.0906585" lon="35.6959437">
<ele>1168.88</ele>
<time>2015-11-22T06:41:25Z</time>
</trkpt>
<trkpt lat="31.0905884" lon="35.6959298">
<ele>1167.27</ele>
<time>2015-11-22T06:41:27Z</time>
</trkpt>
<trkpt lat="31.0905257" lon="35.6959172">
<ele>1167.36</ele>
<time>2015-11-22T06:41:29Z</time>
</trkpt>
<trkpt lat="31.0904810" lon="35.6959017">
<ele>1167.58</ele>
<time>2015-11-22T06:41:35Z</time>
</trkpt>
<trkpt lat="31.0904353" lon="35.6958914">
<ele>1166.05</ele>
<time>2015-11-22T06:41:38Z</time>
</trkpt>
<trkpt lat="31.0903865" lon="35.6958908">
<ele>1165.06</ele>
<time>2015-11-22T06:41:40Z</time>
</trkpt>
<trkpt lat="31.0903213" lon="35.6959014">
<ele>1163.56</ele>
<time>2015-11-22T06:41:42Z</time>
</trkpt>
<trkpt lat="31.0902520" lon="35.6959120">
<ele>1161.94</ele>
<time>2015-11-22T06:41:44Z</time>
</trkpt>
<trkpt lat="31.0901819" lon="35.6959147">
<ele>1162.03</ele>
<time>2015-11-22T06:41:46Z</time>
</trkpt>
<trkpt lat="31.0901160" lon="35.6959149">
<ele>1162.81</ele>
<time>2015-11-22T06:41:48Z</time>
</trkpt>
<trkpt lat="31.0900344" lon="35.6959117">
<ele>1162.25</ele>
<time>2015-11-22T06:41:50Z</time>
</trkpt>
<trkpt lat="31.0899633" lon="35.6959008">
<ele>1163.61</ele>
<time>2015-11-22T06:41:52Z</time>
</trkpt>
<trkpt lat="31.0898972" lon="35.6958961">
<ele>1165.70</ele>
<time>2015-11-22T06:41:54Z</time>
</trkpt>
<trkpt lat="31.0898365" lon="35.6959022">
<ele>1167.72</ele>
<time>2015-11-22T06:41:56Z</time>
</trkpt>
<trkpt lat="31.0897816" lon="35.6958927">
<ele>1167.73</ele>
<time>2015-11-22T06:41:58Z</time>
</trkpt>
<trkpt lat="31.0897178" lon="35.6958808">
<ele>1166.06</ele>
<time>2015-11-22T06:42:01Z</time>
</trkpt>
<trkpt lat="31.0896699" lon="35.6958781">
<ele>1165.06</ele>
<time>2015-11-22T06:42:03Z</time>
</trkpt>
<trkpt lat="31.0896170" lon="35.6958736">
<ele>1163.56</ele>
<time>2015-11-22T06:42:05Z</time>
</trkpt>
<trkpt lat="31.0895614" lon="35.6958706">
<ele>1162.19</ele>
<time>2015-11-22T06:42:07Z</time>
</trkpt>
<trkpt lat="31.0895036" lon="35.6958699">
<ele>1161.09</ele>
<time>2015-11-22T06:42:09Z</time>
</trkpt>
<trkpt lat="31.0894482" lon="35.6958702">
<ele>1159.82</ele>
<time>2015-11-22T06:42:11Z</time>
</trkpt>
<trkpt lat="31.0894001" lon="35.6958733">
<ele>1160.25</ele>
<time>2015-11-22T06:42:13Z</time>
</trkpt>
<trkpt lat="31.0893542" lon="35.6958857">
<ele>1160.61</ele>
<time>2015-11-22T06:42:15Z</time>
</trkpt>
<trkpt lat="31.0893088" lon="35.6958893">
<ele>1161.95</ele>
<time>2015-11-22T06:42:17Z</time>
</trkpt>
<trkpt lat="31.0892624" lon="35.6958806">
<ele>1160.54</ele>
<time>2015-11-22T06:42:19Z</time>
</trkpt>
<trkpt lat="31.0892125" lon="35.6958639">
<ele>1160.18</ele>
<time>2015-11-22T06:42:21Z</time>
</trkpt>
<trkpt lat="31.0891616" lon="35.6958558">
<ele>1160.59</ele>
<time>2015-11-22T06:42:23Z</time>
</trkpt>
<trkpt lat="31.0891156" lon="35.6958580">
<ele>1160.95</ele>
<time>2015-11-22T06:42:25Z</time>
</trkpt>
<trkpt lat="31.0890695" lon="35.6958567">
<ele>1161.28</ele>
<time>2015-11-22T06:42:27Z</time>
</trkpt>
<trkpt lat="31.0890199" lon="35.6958519">
<ele>1161.87</ele>
<time>2015-11-22T06:42:29Z</time>
</trkpt>
<trkpt lat="31.0889651" lon="35.6958486">
<ele>1162.27</ele>
<time>2015-11-22T06:42:31Z</time>
</trkpt>
<trkpt lat="31.0889068" lon="35.6958402">
<ele>1162.36</ele>
<time>2015-11-22T06:42:33Z</time>
</trkpt>
<trkpt lat="31.0888493" lon="35.6958353">
<ele>1161.89</ele>
<time>2015-11-22T06:42:35Z</time>
</trkpt>
<trkpt lat="31.0887938" lon="35.6958413">
<ele>1162.27</ele>
<time>2015-11-22T06:42:37Z</time>
</trkpt>
<trkpt lat="31.0887393" lon="35.6958486">
<ele>1163.12</ele>
<time>2015-11-22T06:42:39Z</time>
</trkpt>
<trkpt lat="31.0886840" lon="35.6958440">
<ele>1162.83</ele>
<time>2015-11-22T06:42:41Z</time>
</trkpt>
<trkpt lat="31.0886286" lon="35.6958323">
<ele>1162.75</ele>
<time>2015-11-22T06:42:43Z</time>
</trkpt>
<trkpt lat="31.0885701" lon="35.6958282">
<ele>1162.49</ele>
<time>2015-11-22T06:42:45Z</time>
</trkpt>
<trkpt lat="31.0885138" lon="35.6958347">
<ele>1162.42</ele>
<time>2015-11-22T06:42:47Z</time>
</trkpt>
<trkpt lat="31.0884557" lon="35.6958410">
<ele>1161.90</ele>
<time>2015-11-22T06:42:49Z</time>
</trkpt>
<trkpt lat="31.0883950" lon="35.6958393">
<ele>1162.02</ele>
<time>2015-11-22T06:42:51Z</time>
</trkpt>
<trkpt lat="31.0883338" lon="35.6958357">
<ele>1161.55</ele>
<time>2015-11-22T06:42:53Z</time>
</trkpt>
<trkpt lat="31.0882738" lon="35.6958308">
<ele>1161.44</ele>
<time>2015-11-22T06:42:55Z</time>
</trkpt>
<trkpt lat="31.0882152" lon="35.6958286">
<ele>1161.41</ele>
<time>2015-11-22T06:42:57Z</time>
</trkpt>
<trkpt lat="31.0881561" lon="35.6958243">
<ele>1161.40</ele>
<time>2015-11-22T06:42:59Z</time>
</trkpt>
<trkpt lat="31.0880966" lon="35.6958176">
<ele>1161.90</ele>
<time>2015-11-22T06:43:01Z</time>
</trkpt>
<trkpt lat="31.0880369" lon="35.6958102">
<ele>1162.77</ele>
<time>2015-11-22T06:43:03Z</time>
</trkpt>
<trkpt lat="31.0879788" lon="35.6958057">
<ele>1164.74</ele>
<time>2015-11-22T06:43:05Z</time>
</trkpt>
<trkpt lat="31.0879214" lon="35.6958005">
<ele>1165.23</ele>
<time>2015-11-22T06:43:07Z</time>
</trkpt>
<trkpt lat="31.0878614" lon="35.6957914">
<ele>1165.61</ele>
<time>2015-11-22T06:43:09Z</time>
</trkpt>
<trkpt lat="31.0877987" lon="35.6957811">
<ele>1164.70</ele>
<time>2015-11-22T06:43:11Z</time>
</trkpt>
<trkpt lat="31.0877381" lon="35.6957706">
<ele>1163.97</ele>
<time>2015-11-22T06:43:13Z</time>
</trkpt>
<trkpt lat="31.0876768" lon="35.6957655">
<ele>1164.29</ele>
<time>2015-11-22T06:43:15Z</time>
</trkpt>
<trkpt lat="31.0876159" lon="35.6957632">
<ele>1164.37</ele>
<time>2015-11-22T06:43:17Z</time>
</trkpt>
<trkpt lat="31.0875564" lon="35.6957599">
<ele>1164.39</ele>
<time>2015-11-22T06:43:19Z</time>
</trkpt>
<trkpt lat="31.0874965" lon="35.6957570">
<ele>1163.65</ele>
<time>2015-11-22T06:43:21Z</time>
</trkpt>
<trkpt lat="31.0874388" lon="35.6957574">
<ele>1164.21</ele>
<time>2015-11-22T06:43:23Z</time>
</trkpt>
<trkpt lat="31.0873803" lon="35.6957526">
<ele>1164.85</ele>
<time>2015-11-22T06:43:25Z</time>
</trkpt>
<trkpt lat="31.0873241" lon="35.6957499">
<ele>1166.01</ele>
<time>2015-11-22T06:43:27Z</time>
</trkpt>
<trkpt lat="31.0872698" lon="35.6957429">
<ele>1167.55</ele>
<time>2015-11-22T06:43:29Z</time>
</trkpt>
<trkpt lat="31.0872148" lon="35.6957288">
<ele>1167.44</ele>
<time>2015-11-22T06:43:31Z</time>
</trkpt>
<trkpt lat="31.0871591" lon="35.6957244">
<ele>1166.66</ele>
<time>2015-11-22T06:43:33Z</time>
</trkpt>
<trkpt lat="31.0871022" lon="35.6957269">
<ele>1167.71</ele>
<time>2015-11-22T06:43:35Z</time>
</trkpt>
<trkpt lat="31.0870481" lon="35.6957294">
<ele>1168.23</ele>
<time>2015-11-22T06:43:37Z</time>
</trkpt>
<trkpt lat="31.0869956" lon="35.6957293">
<ele>1168.35</ele>
<time>2015-11-22T06:43:39Z</time>
</trkpt>
<trkpt lat="31.0869434" lon="35.6957258">
<ele>1168.39</ele>
<time>2015-11-22T06:43:41Z</time>
</trkpt>
<trkpt lat="31.0868916" lon="35.6957225">
<ele>1168.39</ele>
<time>2015-11-22T06:43:43Z</time>
</trkpt>
<trkpt lat="31.0868391" lon="35.6957201">
<ele>1168.15</ele>
<time>2015-11-22T06:43:45Z</time>
</trkpt>
<trkpt lat="31.0867816" lon="35.6957129">
<ele>1167.58</ele>
<time>2015-11-22T06:43:47Z</time>
</trkpt>
<trkpt lat="31.0867253" lon="35.6957090">
<ele>1166.69</ele>
<time>2015-11-22T06:43:49Z</time>
</trkpt>
<trkpt lat="31.0866713" lon="35.6957076">
<ele>1166.47</ele>
<time>2015-11-22T06:43:51Z</time>
</trkpt>
<trkpt lat="31.0866209" lon="35.6957031">
<ele>1165.67</ele>
<time>2015-11-22T06:43:53Z</time>
</trkpt>
<trkpt lat="31.0865700" lon="35.6957046">
<ele>1165.96</ele>
<time>2015-11-22T06:43:55Z</time>
</trkpt>
<trkpt lat="31.0865219" lon="35.6957065">
<ele>1167.54</ele>
<time>2015-11-22T06:43:57Z</time>
</trkpt>
<trkpt lat="31.0864750" lon="35.6957079">
<ele>1168.93</ele>
<time>2015-11-22T06:43:59Z</time>
</trkpt>
<trkpt lat="31.0864248" lon="35.6957062">
<ele>1168.53</ele>
<time>2015-11-22T06:44:01Z</time>
</trkpt>
<trkpt lat="31.0863783" lon="35.6957052">
<ele>1167.93</ele>
<time>2015-11-22T06:44:03Z</time>
</trkpt>
<trkpt lat="31.0863105" lon="35.6957008">
<ele>1168.34</ele>
<time>2015-11-22T06:44:06Z</time>
</trkpt>
<trkpt lat="31.0862626" lon="35.6956991">
<ele>1167.13</ele>
<time>2015-11-22T06:44:08Z</time>
</trkpt>
<trkpt lat="31.0862165" lon="35.6956904">
<ele>1166.58</ele>
<time>2015-11-22T06:44:10Z</time>
</trkpt>
<trkpt lat="31.0861515" lon="35.6956815">
<ele>1165.67</ele>
<time>2015-11-22T06:44:13Z</time>
</trkpt>
<trkpt lat="31.0860869" lon="35.6956807">
<ele>1166.68</ele>
<time>2015-11-22T06:44:16Z</time>
</trkpt>
<trkpt lat="31.0860260" lon="35.6956765">
<ele>1168.68</ele>
<time>2015-11-22T06:44:19Z</time>
</trkpt>
<trkpt lat="31.0859613" lon="35.6956751">
<ele>1170.18</ele>
<time>2015-11-22T06:44:22Z</time>
</trkpt>
<trkpt lat="31.0858997" lon="35.6956683">
<ele>1171.62</ele>
<time>2015-11-22T06:44:25Z</time>
</trkpt>
<trkpt lat="31.0858395" lon="35.6956592">
<ele>1172.17</ele>
<time>2015-11-22T06:44:28Z</time>
</trkpt>
<trkpt lat="31.0857778" lon="35.6956646">
<ele>1171.49</ele>
<time>2015-11-22T06:44:31Z</time>
</trkpt>
<trkpt lat="31.0857140" lon="35.6956713">
<ele>1171.28</ele>
<time>2015-11-22T06:44:34Z</time>
</trkpt>
<trkpt lat="31.0856561" lon="35.6956733">
<ele>1172.01</ele>
<time>2015-11-22T06:44:37Z</time>
</trkpt>
<trkpt lat="31.0856028" lon="35.6956938">
<ele>1173.60</ele>
<time>2015-11-22T06:44:40Z</time>
</trkpt>
<trkpt lat="31.0855426" lon="35.6957022">
<ele>1175.55</ele>
<time>2015-11-22T06:44:43Z</time>
</trkpt>
<trkpt lat="31.0854822" lon="35.6957083">
<ele>1176.17</ele>
<time>2015-11-22T06:44:46Z</time>
</trkpt>
<trkpt lat="31.0854233" lon="35.6956859">
<ele>1178.24</ele>
<time>2015-11-22T06:44:49Z</time>
</trkpt>
<trkpt lat="31.0853866" lon="35.6956544">
<ele>1179.86</ele>
<time>2015-11-22T06:44:51Z</time>
</trkpt>
<trkpt lat="31.0853610" lon="35.6955929">
<ele>1179.45</ele>
<time>2015-11-22T06:44:54Z</time>
</trkpt>
<trkpt lat="31.0854025" lon="35.6955665">
<ele>1182.38</ele>
<time>2015-11-22T06:56:49Z</time>
</trkpt>
<trkpt lat="31.0853584" lon="35.6955522">
<ele>1181.40</ele>
<time>2015-11-22T07:04:23Z</time>
</trkpt>
<trkpt lat="31.0853268" lon="35.6955901">
<ele>1176.90</ele>
<time>2015-11-22T07:06:43Z</time>
</trkpt>
<trkpt lat="31.0853679" lon="35.6956156">
<ele>1179.86</ele>
<time>2015-11-22T07:09:56Z</time>
</trkpt>
<trkpt lat="31.0853402" lon="35.6956644">
<ele>1181.27</ele>
<time>2015-11-22T07:10:03Z</time>
</trkpt>
<trkpt lat="31.0852889" lon="35.6956795">
<ele>1180.88</ele>
<time>2015-11-22T07:10:06Z</time>
</trkpt>
<trkpt lat="31.0852306" lon="35.6956879">
<ele>1178.21</ele>
<time>2015-11-22T07:10:09Z</time>
</trkpt>
<trkpt lat="31.0851684" lon="35.6956820">
<ele>1177.50</ele>
<time>2015-11-22T07:10:12Z</time>
</trkpt>
<trkpt lat="31.0851146" lon="35.6956749">
<ele>1177.42</ele>
<time>2015-11-22T07:10:14Z</time>
</trkpt>
<trkpt lat="31.0850623" lon="35.6956682">
<ele>1177.40</ele>
<time>2015-11-22T07:10:16Z</time>
</trkpt>
<trkpt lat="31.0850131" lon="35.6956587">
<ele>1177.40</ele>
<time>2015-11-22T07:10:18Z</time>
</trkpt>
<trkpt lat="31.0849647" lon="35.6956549">
<ele>1177.40</ele>
<time>2015-11-22T07:10:20Z</time>
</trkpt>
<trkpt lat="31.0849184" lon="35.6956485">
<ele>1177.40</ele>
<time>2015-11-22T07:10:22Z</time>
</trkpt>
<trkpt lat="31.0848668" lon="35.6956302">
<ele>1177.40</ele>
<time>2015-11-22T07:10:25Z</time>
</trkpt>
<trkpt lat="31.0848184" lon="35.6956337">
<ele>1177.40</ele>
<time>2015-11-22T07:10:28Z</time>
</trkpt>
<trkpt lat="31.0847692" lon="35.6956376">
<ele>1177.90</ele>
<time>2015-11-22T07:10:31Z</time>
</trkpt>
<trkpt lat="31.0847124" lon="35.6956354">
<ele>1177.46</ele>
<time>2015-11-22T07:10:34Z</time>
</trkpt>
<trkpt lat="31.0846536" lon="35.6956375">
<ele>1177.53</ele>
<time>2015-11-22T07:10:37Z</time>
</trkpt>
<trkpt lat="31.0845918" lon="35.6956366">
<ele>1177.79</ele>
<time>2015-11-22T07:10:40Z</time>
</trkpt>
<trkpt lat="31.0845308" lon="35.6956358">
<ele>1177.45</ele>
<time>2015-11-22T07:10:43Z</time>
</trkpt>
<trkpt lat="31.0844684" lon="35.6956394">
<ele>1177.40</ele>
<time>2015-11-22T07:10:46Z</time>
</trkpt>
<trkpt lat="31.0844026" lon="35.6956434">
<ele>1177.40</ele>
<time>2015-11-22T07:10:49Z</time>
</trkpt>
<trkpt lat="31.0843338" lon="35.6956436">
<ele>1177.40</ele>
<time>2015-11-22T07:10:52Z</time>
</trkpt>
<trkpt lat="31.0842857" lon="35.6956392">
<ele>1177.40</ele>
<time>2015-11-22T07:10:54Z</time>
</trkpt>
<trkpt lat="31.0842362" lon="35.6956368">
<ele>1177.40</ele>
<time>2015-11-22T07:10:56Z</time>
</trkpt>
<trkpt lat="31.0841873" lon="35.6956426">
<ele>1177.40</ele>
<time>2015-11-22T07:10:58Z</time>
</trkpt>
<trkpt lat="31.0841384" lon="35.6956431">
<ele>1177.40</ele>
<time>2015-11-22T07:11:00Z</time>
</trkpt>
<trkpt lat="31.0840908" lon="35.6956398">
<ele>1177.40</ele>
<time>2015-11-22T07:11:02Z</time>
</trkpt>
<trkpt lat="31.0840451" lon="35.6956335">
<ele>1177.40</ele>
<time>2015-11-22T07:11:04Z</time>
</trkpt>
<trkpt lat="31.0839988" lon="35.6956257">
<ele>1177.90</ele>
<time>2015-11-22T07:11:06Z</time>
</trkpt>
<trkpt lat="31.0839318" lon="35.6956178">
<ele>1178.33</ele>
<time>2015-11-22T07:11:09Z</time>
</trkpt>
<trkpt lat="31.0838852" lon="35.6956142">
<ele>1179.13</ele>
<time>2015-11-22T07:11:11Z</time>
</trkpt>
<trkpt lat="31.0838389" lon="35.6956117">
<ele>1178.83</ele>
<time>2015-11-22T07:11:13Z</time>
</trkpt>
<trkpt lat="31.0837928" lon="35.6956077">
<ele>1178.51</ele>
<time>2015-11-22T07:11:15Z</time>
</trkpt>
<trkpt lat="31.0837267" lon="35.6955993">
<ele>1179.16</ele>
<time>2015-11-22T07:11:18Z</time>
</trkpt>
<trkpt lat="31.0836587" lon="35.6955976">
<ele>1178.87</ele>
<time>2015-11-22T07:11:21Z</time>
</trkpt>
<trkpt lat="31.0836106" lon="35.6955995">
<ele>1179.01</ele>
<time>2015-11-22T07:11:23Z</time>
</trkpt>
<trkpt lat="31.0835634" lon="35.6955960">
<ele>1178.55</ele>
<time>2015-11-22T07:11:25Z</time>
</trkpt>
<trkpt lat="31.0835167" lon="35.6955970">
<ele>1178.44</ele>
<time>2015-11-22T07:11:27Z</time>
</trkpt>
<trkpt lat="31.0834703" lon="35.6955971">
<ele>1178.91</ele>
<time>2015-11-22T07:11:29Z</time>
</trkpt>
<trkpt lat="31.0834224" lon="35.6955930">
<ele>1178.77</ele>
<time>2015-11-22T07:11:31Z</time>
</trkpt>
<trkpt lat="31.0833751" lon="35.6955913">
<ele>1179.24</ele>
<time>2015-11-22T07:11:33Z</time>
</trkpt>
<trkpt lat="31.0833259" lon="35.6955924">
<ele>1180.11</ele>
<time>2015-11-22T07:11:35Z</time>
</trkpt>
<trkpt lat="31.0832763" lon="35.6955903">
<ele>1180.32</ele>
<time>2015-11-22T07:11:37Z</time>
</trkpt>
<trkpt lat="31.0832259" lon="35.6955881">
<ele>1180.38</ele>
<time>2015-11-22T07:11:39Z</time>
</trkpt>
<trkpt lat="31.0831743" lon="35.6955865">
<ele>1180.39</ele>
<time>2015-11-22T07:11:41Z</time>
</trkpt>
<trkpt lat="31.0831225" lon="35.6955843">
<ele>1180.40</ele>
<time>2015-11-22T07:11:43Z</time>
</trkpt>
<trkpt lat="31.0830705" lon="35.6955847">
<ele>1180.40</ele>
<time>2015-11-22T07:11:45Z</time>
</trkpt>
<trkpt lat="31.0830181" lon="35.6955865">
<ele>1181.15</ele>
<time>2015-11-22T07:11:47Z</time>
</trkpt>
<trkpt lat="31.0829655" lon="35.6955818">
<ele>1181.58</ele>
<time>2015-11-22T07:11:49Z</time>
</trkpt>
<trkpt lat="31.0829134" lon="35.6955765">
<ele>1182.19</ele>
<time>2015-11-22T07:11:51Z</time>
</trkpt>
<trkpt lat="31.0828605" lon="35.6955709">
<ele>1182.35</ele>
<time>2015-11-22T07:11:53Z</time>
</trkpt>
<trkpt lat="31.0828079" lon="35.6955647">
<ele>1182.38</ele>
<time>2015-11-22T07:11:55Z</time>
</trkpt>
<trkpt lat="31.0827572" lon="35.6955622">
<ele>1182.89</ele>
<time>2015-11-22T07:11:57Z</time>
</trkpt>
<trkpt lat="31.0827050" lon="35.6955579">
<ele>1182.52</ele>
<time>2015-11-22T07:11:59Z</time>
</trkpt>
<trkpt lat="31.0826515" lon="35.6955533">
<ele>1183.68</ele>
<time>2015-11-22T07:12:01Z</time>
</trkpt>
<trkpt lat="31.0825969" lon="35.6955476">
<ele>1183.47</ele>
<time>2015-11-22T07:12:03Z</time>
</trkpt>
<trkpt lat="31.0825429" lon="35.6955461">
<ele>1184.16</ele>
<time>2015-11-22T07:12:05Z</time>
</trkpt>
<trkpt lat="31.0824907" lon="35.6955505">
<ele>1184.34</ele>
<time>2015-11-22T07:12:07Z</time>
</trkpt>
<trkpt lat="31.0824405" lon="35.6955516">
<ele>1183.88</ele>
<time>2015-11-22T07:12:09Z</time>
</trkpt>
<trkpt lat="31.0823917" lon="35.6955476">
<ele>1183.77</ele>
<time>2015-11-22T07:12:11Z</time>
</trkpt>
<trkpt lat="31.0823417" lon="35.6955443">
<ele>1183.49</ele>
<time>2015-11-22T07:12:13Z</time>
</trkpt>
<trkpt lat="31.0822910" lon="35.6955432">
<ele>1182.67</ele>
<time>2015-11-22T07:12:15Z</time>
</trkpt>
<trkpt lat="31.0822417" lon="35.6955354">
<ele>1181.97</ele>
<time>2015-11-22T07:12:17Z</time>
</trkpt>
<trkpt lat="31.0821938" lon="35.6955297">
<ele>1182.29</ele>
<time>2015-11-22T07:12:19Z</time>
</trkpt>
<trkpt lat="31.0821453" lon="35.6955309">
<ele>1182.37</ele>
<time>2015-11-22T07:12:21Z</time>
</trkpt>
<trkpt lat="31.0820972" lon="35.6955300">
<ele>1181.89</ele>
<time>2015-11-22T07:12:23Z</time>
</trkpt>
<trkpt lat="31.0820464" lon="35.6955297">
<ele>1182.77</ele>
<time>2015-11-22T07:12:25Z</time>
</trkpt>
<trkpt lat="31.0819960" lon="35.6955274">
<ele>1183.24</ele>
<time>2015-11-22T07:12:27Z</time>
</trkpt>
<trkpt lat="31.0819439" lon="35.6955231">
<ele>1183.86</ele>
<time>2015-11-22T07:12:29Z</time>
</trkpt>
<trkpt lat="31.0818907" lon="35.6955186">
<ele>1184.26</ele>
<time>2015-11-22T07:12:31Z</time>
</trkpt>
<trkpt lat="31.0818376" lon="35.6955155">
<ele>1184.86</ele>
<time>2015-11-22T07:12:33Z</time>
</trkpt>
<trkpt lat="31.0817857" lon="35.6955092">
<ele>1185.26</ele>
<time>2015-11-22T07:12:35Z</time>
</trkpt>
<trkpt lat="31.0817352" lon="35.6954992">
<ele>1185.36</ele>
<time>2015-11-22T07:12:37Z</time>
</trkpt>
<trkpt lat="31.0816862" lon="35.6954926">
<ele>1185.39</ele>
<time>2015-11-22T07:12:39Z</time>
</trkpt>
<trkpt lat="31.0816358" lon="35.6954940">
<ele>1184.89</ele>
<time>2015-11-22T07:12:41Z</time>
</trkpt>
<trkpt lat="31.0815862" lon="35.6954945">
<ele>1185.02</ele>
<time>2015-11-22T07:12:43Z</time>
</trkpt>
<trkpt lat="31.0815362" lon="35.6954933">
<ele>1186.05</ele>
<time>2015-11-22T07:12:45Z</time>
</trkpt>
<trkpt lat="31.0814868" lon="35.6954937">
<ele>1186.31</ele>
<time>2015-11-22T07:12:47Z</time>
</trkpt>
<trkpt lat="31.0814362" lon="35.6954946">
<ele>1186.38</ele>
<time>2015-11-22T07:12:49Z</time>
</trkpt>
<trkpt lat="31.0813874" lon="35.6954918">
<ele>1186.39</ele>
<time>2015-11-22T07:12:51Z</time>
</trkpt>
<trkpt lat="31.0813385" lon="35.6954884">
<ele>1186.40</ele>
<time>2015-11-22T07:12:53Z</time>
</trkpt>
<trkpt lat="31.0812884" lon="35.6954897">
<ele>1186.40</ele>
<time>2015-11-22T07:12:55Z</time>
</trkpt>
<trkpt lat="31.0812379" lon="35.6954915">
<ele>1186.40</ele>
<time>2015-11-22T07:12:57Z</time>
</trkpt>
<trkpt lat="31.0811873" lon="35.6954920">
<ele>1186.40</ele>
<time>2015-11-22T07:12:59Z</time>
</trkpt>
<trkpt lat="31.0811371" lon="35.6954876">
<ele>1185.65</ele>
<time>2015-11-22T07:13:01Z</time>
</trkpt>
<trkpt lat="31.0810890" lon="35.6954836">
<ele>1184.96</ele>
<time>2015-11-22T07:13:03Z</time>
</trkpt>
<trkpt lat="31.0810400" lon="35.6954819">
<ele>1185.29</ele>
<time>2015-11-22T07:13:05Z</time>
</trkpt>
<trkpt lat="31.0809887" lon="35.6954773">
<ele>1183.87</ele>
<time>2015-11-22T07:13:07Z</time>
</trkpt>
<trkpt lat="31.0809364" lon="35.6954704">
<ele>1183.52</ele>
<time>2015-11-22T07:13:09Z</time>
</trkpt>
<trkpt lat="31.0808838" lon="35.6954675">
<ele>1183.93</ele>
<time>2015-11-22T07:13:11Z</time>
</trkpt>
<trkpt lat="31.0808317" lon="35.6954670">
<ele>1184.28</ele>
<time>2015-11-22T07:13:13Z</time>
</trkpt>
<trkpt lat="31.0807822" lon="35.6954626">
<ele>1184.12</ele>
<time>2015-11-22T07:13:15Z</time>
</trkpt>
<trkpt lat="31.0807343" lon="35.6954567">
<ele>1185.58</ele>
<time>2015-11-22T07:13:17Z</time>
</trkpt>
<trkpt lat="31.0806879" lon="35.6954580">
<ele>1186.94</ele>
<time>2015-11-22T07:13:19Z</time>
</trkpt>
<trkpt lat="31.0806403" lon="35.6954606">
<ele>1187.28</ele>
<time>2015-11-22T07:13:21Z</time>
</trkpt>
<trkpt lat="31.0805916" lon="35.6954584">
<ele>1187.87</ele>
<time>2015-11-22T07:13:23Z</time>
</trkpt>
<trkpt lat="31.0805423" lon="35.6954538">
<ele>1188.76</ele>
<time>2015-11-22T07:13:25Z</time>
</trkpt>
<trkpt lat="31.0804934" lon="35.6954488">
<ele>1189.74</ele>
<time>2015-11-22T07:13:27Z</time>
</trkpt>
<trkpt lat="31.0804438" lon="35.6954432">
<ele>1189.73</ele>
<time>2015-11-22T07:13:29Z</time>
</trkpt>
<trkpt lat="31.0803932" lon="35.6954402">
<ele>1188.73</ele>
<time>2015-11-22T07:13:31Z</time>
</trkpt>
<trkpt lat="31.0803436" lon="35.6954375">
<ele>1190.73</ele>
<time>2015-11-22T07:13:33Z</time>
</trkpt>
<trkpt lat="31.0802963" lon="35.6954335">
<ele>1190.48</ele>
<time>2015-11-22T07:13:35Z</time>
</trkpt>
<trkpt lat="31.0802496" lon="35.6954310">
<ele>1190.42</ele>
<time>2015-11-22T07:13:37Z</time>
</trkpt>
<trkpt lat="31.0801999" lon="35.6954253">
<ele>1189.90</ele>
<time>2015-11-22T07:13:39Z</time>
</trkpt>
<trkpt lat="31.0801495" lon="35.6954249">
<ele>1189.02</ele>
<time>2015-11-22T07:13:41Z</time>
</trkpt>
<trkpt lat="31.0801002" lon="35.6954237">
<ele>1188.30</ele>
<time>2015-11-22T07:13:43Z</time>
</trkpt>
<trkpt lat="31.0800507" lon="35.6954205">
<ele>1188.62</ele>
<time>2015-11-22T07:13:45Z</time>
</trkpt>
<trkpt lat="31.0800005" lon="35.6954162">
<ele>1188.45</ele>
<time>2015-11-22T07:13:47Z</time>
</trkpt>
<trkpt lat="31.0799501" lon="35.6954163">
<ele>1189.66</ele>
<time>2015-11-22T07:13:49Z</time>
</trkpt>
<trkpt lat="31.0799006" lon="35.6954128">
<ele>1190.46</ele>
<time>2015-11-22T07:13:51Z</time>
</trkpt>
<trkpt lat="31.0798518" lon="35.6954076">
<ele>1191.41</ele>
<time>2015-11-22T07:13:53Z</time>
</trkpt>
<trkpt lat="31.0798024" lon="35.6954015">
<ele>1192.65</ele>
<time>2015-11-22T07:13:55Z</time>
</trkpt>
<trkpt lat="31.0797521" lon="35.6953972">
<ele>1193.71</ele>
<time>2015-11-22T07:13:57Z</time>
</trkpt>
<trkpt lat="31.0797053" lon="35.6953950">
<ele>1194.73</ele>
<time>2015-11-22T07:13:59Z</time>
</trkpt>
<trkpt lat="31.0796457" lon="35.6953908">
<ele>1195.31</ele>
<time>2015-11-22T07:14:02Z</time>
</trkpt>
<trkpt lat="31.0795933" lon="35.6953870">
<ele>1194.51</ele>
<time>2015-11-22T07:14:05Z</time>
</trkpt>
<trkpt lat="31.0795441" lon="35.6953765">
<ele>1191.16</ele>
<time>2015-11-22T07:14:08Z</time>
</trkpt>
<trkpt lat="31.0794870" lon="35.6953655">
<ele>1190.94</ele>
<time>2015-11-22T07:14:12Z</time>
</trkpt>
<trkpt lat="31.0794313" lon="35.6953534">
<ele>1193.99</ele>
<time>2015-11-22T07:14:16Z</time>
</trkpt>
<trkpt lat="31.0793742" lon="35.6953517">
<ele>1193.31</ele>
<time>2015-11-22T07:14:20Z</time>
</trkpt>
<trkpt lat="31.0793295" lon="35.6953639">
<ele>1192.51</ele>
<time>2015-11-22T07:14:23Z</time>
</trkpt>
<trkpt lat="31.0792722" lon="35.6953468">
<ele>1191.47</ele>
<time>2015-11-22T07:14:27Z</time>
</trkpt>
<trkpt lat="31.0792269" lon="35.6953351">
<ele>1189.91</ele>
<time>2015-11-22T07:14:30Z</time>
</trkpt>
<trkpt lat="31.0791786" lon="35.6953349">
<ele>1190.46</ele>
<time>2015-11-22T07:14:33Z</time>
</trkpt>
<trkpt lat="31.0791298" lon="35.6953392">
<ele>1189.65</ele>
<time>2015-11-22T07:14:36Z</time>
</trkpt>
<trkpt lat="31.0790825" lon="35.6953348">
<ele>1191.93</ele>
<time>2015-11-22T07:14:39Z</time>
</trkpt>
<trkpt lat="31.0790319" lon="35.6953342">
<ele>1192.84</ele>
<time>2015-11-22T07:14:42Z</time>
</trkpt>
<trkpt lat="31.0789840" lon="35.6953365">
<ele>1194.08</ele>
<time>2015-11-22T07:14:45Z</time>
</trkpt>
<trkpt lat="31.0789389" lon="35.6953417">
<ele>1195.86</ele>
<time>2015-11-22T07:14:48Z</time>
</trkpt>
<trkpt lat="31.0788928" lon="35.6953407">
<ele>1197.45</ele>
<time>2015-11-22T07:14:51Z</time>
</trkpt>
<trkpt lat="31.0788443" lon="35.6953419">
<ele>1197.53</ele>
<time>2015-11-22T07:14:54Z</time>
</trkpt>
<trkpt lat="31.0787968" lon="35.6953374">
<ele>1197.91</ele>
<time>2015-11-22T07:14:57Z</time>
</trkpt>
<trkpt lat="31.0787512" lon="35.6953326">
<ele>1199.09</ele>
<time>2015-11-22T07:15:00Z</time>
</trkpt>
<trkpt lat="31.0787061" lon="35.6953379">
<ele>1199.36</ele>
<time>2015-11-22T07:15:03Z</time>
</trkpt>
<trkpt lat="31.0786599" lon="35.6953404">
<ele>1199.02</ele>
<time>2015-11-22T07:15:06Z</time>
</trkpt>
<trkpt lat="31.0786149" lon="35.6953413">
<ele>1200.10</ele>
<time>2015-11-22T07:15:09Z</time>
</trkpt>
<trkpt lat="31.0785681" lon="35.6953388">
<ele>1202.61</ele>
<time>2015-11-22T07:15:12Z</time>
</trkpt>
<trkpt lat="31.0785192" lon="35.6953352">
<ele>1202.67</ele>
<time>2015-11-22T07:15:15Z</time>
</trkpt>
<trkpt lat="31.0784712" lon="35.6953321">
<ele>1202.68</ele>
<time>2015-11-22T07:15:18Z</time>
</trkpt>
<trkpt lat="31.0784244" lon="35.6953236">
<ele>1200.31</ele>
<time>2015-11-22T07:15:21Z</time>
</trkpt>
<trkpt lat="31.0783773" lon="35.6953215">
<ele>1201.26</ele>
<time>2015-11-22T07:15:24Z</time>
</trkpt>
<trkpt lat="31.0783192" lon="35.6953244">
<ele>1198.89</ele>
<time>2015-11-22T07:15:28Z</time>
</trkpt>
<trkpt lat="31.0782610" lon="35.6953280">
<ele>1198.30</ele>
<time>2015-11-22T07:15:32Z</time>
</trkpt>
<trkpt lat="31.0782022" lon="35.6953279">
<ele>1200.70</ele>
<time>2015-11-22T07:15:36Z</time>
</trkpt>
<trkpt lat="31.0781567" lon="35.6953205">
<ele>1200.56</ele>
<time>2015-11-22T07:15:39Z</time>
</trkpt>
<trkpt lat="31.0781007" lon="35.6953159">
<ele>1202.59</ele>
<time>2015-11-22T07:15:43Z</time>
</trkpt>
<trkpt lat="31.0780474" lon="35.6953066">
<ele>1202.03</ele>
<time>2015-11-22T07:15:47Z</time>
</trkpt>
<trkpt lat="31.0779896" lon="35.6952948">
<ele>1198.87</ele>
<time>2015-11-22T07:15:51Z</time>
</trkpt>
<trkpt lat="31.0779438" lon="35.6952930">
<ele>1199.08</ele>
<time>2015-11-22T07:15:54Z</time>
</trkpt>
<trkpt lat="31.0778960" lon="35.6952956">
<ele>1202.36</ele>
<time>2015-11-22T07:15:57Z</time>
</trkpt>
<trkpt lat="31.0778470" lon="35.6953000">
<ele>1201.64</ele>
<time>2015-11-22T07:16:00Z</time>
</trkpt>
<trkpt lat="31.0777988" lon="35.6952946">
<ele>1203.18</ele>
<time>2015-11-22T07:16:03Z</time>
</trkpt>
<trkpt lat="31.0777535" lon="35.6952879">
<ele>1198.99</ele>
<time>2015-11-22T07:16:06Z</time>
</trkpt>
<trkpt lat="31.0776978" lon="35.6952789">
<ele>1197.75</ele>
<time>2015-11-22T07:16:10Z</time>
</trkpt>
<trkpt lat="31.0776494" lon="35.6952628">
<ele>1196.86</ele>
<time>2015-11-22T07:16:14Z</time>
</trkpt>
<trkpt lat="31.0775918" lon="35.6952594">
<ele>1196.93</ele>
<time>2015-11-22T07:16:18Z</time>
</trkpt>
<trkpt lat="31.0775464" lon="35.6952513">
<ele>1197.09</ele>
<time>2015-11-22T07:16:21Z</time>
</trkpt>
<trkpt lat="31.0775011" lon="35.6952455">
<ele>1198.86</ele>
<time>2015-11-22T07:16:24Z</time>
</trkpt>
<trkpt lat="31.0774417" lon="35.6952368">
<ele>1203.93</ele>
<time>2015-11-22T07:16:28Z</time>
</trkpt>
<trkpt lat="31.0773943" lon="35.6952396">
<ele>1206.09</ele>
<time>2015-11-22T07:16:31Z</time>
</trkpt>
<trkpt lat="31.0773491" lon="35.6952386">
<ele>1208.11</ele>
<time>2015-11-22T07:16:34Z</time>
</trkpt>
<trkpt lat="31.0773033" lon="35.6952344">
<ele>1206.74</ele>
<time>2015-11-22T07:16:37Z</time>
</trkpt>
<trkpt lat="31.0772563" lon="35.6952269">
<ele>1205.31</ele>
<time>2015-11-22T07:16:40Z</time>
</trkpt>
<trkpt lat="31.0771994" lon="35.6952330">
<ele>1205.70</ele>
<time>2015-11-22T07:16:44Z</time>
</trkpt>
<trkpt lat="31.0771458" lon="35.6952320">
<ele>1206.48</ele>
<time>2015-11-22T07:16:48Z</time>
</trkpt>
<trkpt lat="31.0770884" lon="35.6952262">
<ele>1205.90</ele>
<time>2015-11-22T07:16:52Z</time>
</trkpt>
<trkpt lat="31.0770408" lon="35.6952290">
<ele>1203.71</ele>
<time>2015-11-22T07:16:55Z</time>
</trkpt>
<trkpt lat="31.0769922" lon="35.6952233">
<ele>1201.06</ele>
<time>2015-11-22T07:16:58Z</time>
</trkpt>
<trkpt lat="31.0769443" lon="35.6952160">
<ele>1201.73</ele>
<time>2015-11-22T07:17:01Z</time>
</trkpt>
<trkpt lat="31.0768955" lon="35.6952152">
<ele>1205.06</ele>
<time>2015-11-22T07:17:04Z</time>
</trkpt>
<trkpt lat="31.0768466" lon="35.6952120">
<ele>1207.23</ele>
<time>2015-11-22T07:17:07Z</time>
</trkpt>
<trkpt lat="31.0768001" lon="35.6952003">
<ele>1209.50</ele>
<time>2015-11-22T07:17:10Z</time>
</trkpt>
<trkpt lat="31.0767505" lon="35.6951981">
<ele>1206.54</ele>
<time>2015-11-22T07:17:13Z</time>
</trkpt>
<trkpt lat="31.0767006" lon="35.6951889">
<ele>1205.91</ele>
<time>2015-11-22T07:17:16Z</time>
</trkpt>
<trkpt lat="31.0766532" lon="35.6951749">
<ele>1206.96</ele>
<time>2015-11-22T07:17:19Z</time>
</trkpt>
<trkpt lat="31.0766061" lon="35.6951653">
<ele>1209.72</ele>
<time>2015-11-22T07:17:22Z</time>
</trkpt>
<trkpt lat="31.0765562" lon="35.6951550">
<ele>1207.81</ele>
<time>2015-11-22T07:17:25Z</time>
</trkpt>
<trkpt lat="31.0765071" lon="35.6951390">
<ele>1210.95</ele>
<time>2015-11-22T07:17:28Z</time>
</trkpt>
<trkpt lat="31.0764640" lon="35.6951194">
<ele>1211.84</ele>
<time>2015-11-22T07:17:31Z</time>
</trkpt>
<trkpt lat="31.0764124" lon="35.6950893">
<ele>1215.11</ele>
<time>2015-11-22T07:17:35Z</time>
</trkpt>
<trkpt lat="31.0763577" lon="35.6950768">
<ele>1211.63</ele>
<time>2015-11-22T07:17:39Z</time>
</trkpt>
<trkpt lat="31.0763049" lon="35.6950601">
<ele>1211.10</ele>
<time>2015-11-22T07:17:43Z</time>
</trkpt>
<trkpt lat="31.0762541" lon="35.6950466">
<ele>1205.69</ele>
<time>2015-11-22T07:17:47Z</time>
</trkpt>
<trkpt lat="31.0762010" lon="35.6950308">
<ele>1208.92</ele>
<time>2015-11-22T07:17:51Z</time>
</trkpt>
<trkpt lat="31.0761462" lon="35.6950043">
<ele>1207.68</ele>
<time>2015-11-22T07:17:55Z</time>
</trkpt>
<trkpt lat="31.0761008" lon="35.6949872">
<ele>1211.31</ele>
<time>2015-11-22T07:17:58Z</time>
</trkpt>
<trkpt lat="31.0760597" lon="35.6949602">
<ele>1215.26</ele>
<time>2015-11-22T07:18:01Z</time>
</trkpt>
<trkpt lat="31.0760156" lon="35.6949377">
<ele>1216.38</ele>
<time>2015-11-22T07:18:04Z</time>
</trkpt>
<trkpt lat="31.0759682" lon="35.6949222">
<ele>1215.89</ele>
<time>2015-11-22T07:18:07Z</time>
</trkpt>
<trkpt lat="31.0759207" lon="35.6949021">
<ele>1218.21</ele>
<time>2015-11-22T07:18:10Z</time>
</trkpt>
<trkpt lat="31.0758753" lon="35.6948684">
<ele>1215.37</ele>
<time>2015-11-22T07:18:13Z</time>
</trkpt>
<trkpt lat="31.0758334" lon="35.6948273">
<ele>1210.39</ele>
<time>2015-11-22T07:18:16Z</time>
</trkpt>
<trkpt lat="31.0757873" lon="35.6947948">
<ele>1209.15</ele>
<time>2015-11-22T07:18:19Z</time>
</trkpt>
<trkpt lat="31.0757335" lon="35.6947699">
<ele>1207.99</ele>
<time>2015-11-22T07:18:22Z</time>
</trkpt>
<trkpt lat="31.0756791" lon="35.6947454">
<ele>1211.60</ele>
<time>2015-11-22T07:18:25Z</time>
</trkpt>
<trkpt lat="31.0756179" lon="35.6947274">
<ele>1214.17</ele>
<time>2015-11-22T07:18:28Z</time>
</trkpt>
<trkpt lat="31.0755530" lon="35.6947164">
<ele>1210.99</ele>
<time>2015-11-22T07:18:31Z</time>
</trkpt>
<trkpt lat="31.0754874" lon="35.6946969">
<ele>1212.22</ele>
<time>2015-11-22T07:18:34Z</time>
</trkpt>
<trkpt lat="31.0754272" lon="35.6946755">
<ele>1212.38</ele>
<time>2015-11-22T07:18:37Z</time>
</trkpt>
<trkpt lat="31.0753656" lon="35.6946618">
<ele>1213.02</ele>
<time>2015-11-22T07:18:40Z</time>
</trkpt>
<trkpt lat="31.0753119" lon="35.6946363">
<ele>1212.35</ele>
<time>2015-11-22T07:18:43Z</time>
</trkpt>
<trkpt lat="31.0752547" lon="35.6946200">
<ele>1208.89</ele>
<time>2015-11-22T07:18:46Z</time>
</trkpt>
<trkpt lat="31.0751993" lon="35.6945967">
<ele>1205.58</ele>
<time>2015-11-22T07:18:49Z</time>
</trkpt>
<trkpt lat="31.0751365" lon="35.6945803">
<ele>1198.55</ele>
<time>2015-11-22T07:18:52Z</time>
</trkpt>
<trkpt lat="31.0750762" lon="35.6945635">
<ele>1201.04</ele>
<time>2015-11-22T07:18:55Z</time>
</trkpt>
<trkpt lat="31.0750140" lon="35.6945321">
<ele>1206.35</ele>
<time>2015-11-22T07:18:58Z</time>
</trkpt>
<trkpt lat="31.0749636" lon="35.6945173">
<ele>1210.64</ele>
<time>2015-11-22T07:19:00Z</time>
</trkpt>
<trkpt lat="31.0749132" lon="35.6945046">
<ele>1210.46</ele>
<time>2015-11-22T07:19:02Z</time>
</trkpt>
<trkpt lat="31.0748607" lon="35.6944997">
<ele>1209.41</ele>
<time>2015-11-22T07:19:04Z</time>
</trkpt>
<trkpt lat="31.0748076" lon="35.6945038">
<ele>1205.40</ele>
<time>2015-11-22T07:19:06Z</time>
</trkpt>
<trkpt lat="31.0747577" lon="35.6945122">
<ele>1206.90</ele>
<time>2015-11-22T07:19:08Z</time>
</trkpt>
<trkpt lat="31.0747009" lon="35.6944942">
<ele>1212.21</ele>
<time>2015-11-22T07:19:11Z</time>
</trkpt>
<trkpt lat="31.0746512" lon="35.6944912">
<ele>1213.82</ele>
<time>2015-11-22T07:23:12Z</time>
</trkpt>
<trkpt lat="31.0745948" lon="35.6944858">
<ele>1216.50</ele>
<time>2015-11-22T07:23:14Z</time>
</trkpt>
<trkpt lat="31.0745329" lon="35.6944772">
<ele>1212.17</ele>
<time>2015-11-22T07:23:16Z</time>
</trkpt>
<trkpt lat="31.0744692" lon="35.6944659">
<ele>1209.84</ele>
<time>2015-11-22T07:23:18Z</time>
</trkpt>
<trkpt lat="31.0744099" lon="35.6944518">
<ele>1207.76</ele>
<time>2015-11-22T07:23:20Z</time>
</trkpt>
<trkpt lat="31.0743530" lon="35.6944392">
<ele>1207.74</ele>
<time>2015-11-22T07:23:22Z</time>
</trkpt>
<trkpt lat="31.0742983" lon="35.6944321">
<ele>1207.98</ele>
<time>2015-11-22T07:23:24Z</time>
</trkpt>
<trkpt lat="31.0742482" lon="35.6944260">
<ele>1211.04</ele>
<time>2015-11-22T07:23:26Z</time>
</trkpt>
<trkpt lat="31.0741980" lon="35.6944125">
<ele>1213.31</ele>
<time>2015-11-22T07:23:28Z</time>
</trkpt>
<trkpt lat="31.0741429" lon="35.6943985">
<ele>1212.62</ele>
<time>2015-11-22T07:23:30Z</time>
</trkpt>
<trkpt lat="31.0740854" lon="35.6943916">
<ele>1213.95</ele>
<time>2015-11-22T07:23:32Z</time>
</trkpt>
<trkpt lat="31.0740289" lon="35.6943862">
<ele>1214.54</ele>
<time>2015-11-22T07:23:34Z</time>
</trkpt>
<trkpt lat="31.0739690" lon="35.6943841">
<ele>1216.18</ele>
<time>2015-11-22T07:23:36Z</time>
</trkpt>
<trkpt lat="31.0739061" lon="35.6943813">
<ele>1216.09</ele>
<time>2015-11-22T07:23:38Z</time>
</trkpt>
<trkpt lat="31.0738392" lon="35.6943806">
<ele>1214.82</ele>
<time>2015-11-22T07:23:40Z</time>
</trkpt>
<trkpt lat="31.0737712" lon="35.6943826">
<ele>1215.00</ele>
<time>2015-11-22T07:23:42Z</time>
</trkpt>
<trkpt lat="31.0737057" lon="35.6943872">
<ele>1217.55</ele>
<time>2015-11-22T07:23:44Z</time>
</trkpt>
<trkpt lat="31.0736416" lon="35.6943918">
<ele>1214.43</ele>
<time>2015-11-22T07:23:46Z</time>
</trkpt>
<trkpt lat="31.0735799" lon="35.6943956">
<ele>1216.16</ele>
<time>2015-11-22T07:23:48Z</time>
</trkpt>
<trkpt lat="31.0735191" lon="35.6944009">
<ele>1218.34</ele>
<time>2015-11-22T07:23:50Z</time>
</trkpt>
<trkpt lat="31.0734565" lon="35.6944097">
<ele>1220.38</ele>
<time>2015-11-22T07:23:52Z</time>
</trkpt>
<trkpt lat="31.0733919" lon="35.6944204">
<ele>1220.89</ele>
<time>2015-11-22T07:23:54Z</time>
</trkpt>
<trkpt lat="31.0733266" lon="35.6944317">
<ele>1220.02</ele>
<time>2015-11-22T07:23:56Z</time>
</trkpt>
<trkpt lat="31.0732616" lon="35.6944439">
<ele>1220.30</ele>
<time>2015-11-22T07:23:58Z</time>
</trkpt>
<trkpt lat="31.0731973" lon="35.6944539">
<ele>1221.12</ele>
<time>2015-11-22T07:24:00Z</time>
</trkpt>
<trkpt lat="31.0731320" lon="35.6944651">
<ele>1218.83</ele>
<time>2015-11-22T07:24:02Z</time>
</trkpt>
<trkpt lat="31.0730659" lon="35.6944776">
<ele>1219.00</ele>
<time>2015-11-22T07:24:04Z</time>
</trkpt>
<trkpt lat="31.0729986" lon="35.6944944">
<ele>1220.55</ele>
<time>2015-11-22T07:24:06Z</time>
</trkpt>
<trkpt lat="31.0729304" lon="35.6945130">
<ele>1221.93</ele>
<time>2015-11-22T07:24:08Z</time>
</trkpt>
<trkpt lat="31.0728591" lon="35.6945296">
<ele>1220.78</ele>
<time>2015-11-22T07:24:10Z</time>
</trkpt>
<trkpt lat="31.0727847" lon="35.6945394">
<ele>1217.74</ele>
<time>2015-11-22T07:24:12Z</time>
</trkpt>
<trkpt lat="31.0727106" lon="35.6945501">
<ele>1219.48</ele>
<time>2015-11-22T07:24:14Z</time>
</trkpt>
<trkpt lat="31.0726354" lon="35.6945616">
<ele>1219.42</ele>
<time>2015-11-22T07:24:16Z</time>
</trkpt>
<trkpt lat="31.0725620" lon="35.6945682">
<ele>1216.15</ele>
<time>2015-11-22T07:24:18Z</time>
</trkpt>
<trkpt lat="31.0724860" lon="35.6945720">
<ele>1213.84</ele>
<time>2015-11-22T07:24:20Z</time>
</trkpt>
<trkpt lat="31.0724082" lon="35.6945785">
<ele>1212.51</ele>
<time>2015-11-22T07:24:22Z</time>
</trkpt>
<trkpt lat="31.0723311" lon="35.6945884">
<ele>1214.92</ele>
<time>2015-11-22T07:24:24Z</time>
</trkpt>
<trkpt lat="31.0722551" lon="35.6945958">
<ele>1216.53</ele>
<time>2015-11-22T07:24:26Z</time>
</trkpt>
<trkpt lat="31.0721845" lon="35.6946047">
<ele>1215.68</ele>
<time>2015-11-22T07:24:28Z</time>
</trkpt>
<trkpt lat="31.0721178" lon="35.6946123">
<ele>1216.47</ele>
<time>2015-11-22T07:24:30Z</time>
</trkpt>
<trkpt lat="31.0720555" lon="35.6946225">
<ele>1218.66</ele>
<time>2015-11-22T07:24:32Z</time>
</trkpt>
<trkpt lat="31.0719958" lon="35.6946301">
<ele>1219.46</ele>
<time>2015-11-22T07:24:34Z</time>
</trkpt>
<trkpt lat="31.0719361" lon="35.6946379">
<ele>1220.16</ele>
<time>2015-11-22T07:24:36Z</time>
</trkpt>
<trkpt lat="31.0718722" lon="35.6946420">
<ele>1222.84</ele>
<time>2015-11-22T07:24:38Z</time>
</trkpt>
<trkpt lat="31.0718025" lon="35.6946503">
<ele>1221.26</ele>
<time>2015-11-22T07:24:40Z</time>
</trkpt>
<trkpt lat="31.0717243" lon="35.6946636">
<ele>1221.11</ele>
<time>2015-11-22T07:24:42Z</time>
</trkpt>
<trkpt lat="31.0716576" lon="35.6946704">
<ele>1221.75</ele>
<time>2015-11-22T07:24:43Z</time>
</trkpt>
<trkpt lat="31.0716122" lon="35.6946797">
<ele>1221.08</ele>
<time>2015-11-22T07:24:44Z</time>
</trkpt>
<trkpt lat="31.0715671" lon="35.6946900">
<ele>1220.24</ele>
<time>2015-11-22T07:24:45Z</time>
</trkpt>
<trkpt lat="31.0715208" lon="35.6946949">
<ele>1220.82</ele>
<time>2015-11-22T07:24:46Z</time>
</trkpt>
<trkpt lat="31.0714754" lon="35.6946958">
<ele>1220.11</ele>
<time>2015-11-22T07:24:47Z</time>
</trkpt>
<trkpt lat="31.0714297" lon="35.6947018">
<ele>1219.75</ele>
<time>2015-11-22T07:24:48Z</time>
</trkpt>
<trkpt lat="31.0713799" lon="35.6947154">
<ele>1218.07</ele>
<time>2015-11-22T07:24:49Z</time>
</trkpt>
<trkpt lat="31.0713290" lon="35.6947223">
<ele>1217.74</ele>
<time>2015-11-22T07:24:50Z</time>
</trkpt>
<trkpt lat="31.0712300" lon="35.6947444">
<ele>1218.73</ele>
<time>2015-11-22T07:24:52Z</time>
</trkpt>
<trkpt lat="31.0711826" lon="35.6947600">
<ele>1219.06</ele>
<time>2015-11-22T07:24:53Z</time>
</trkpt>
<trkpt lat="31.0711312" lon="35.6947662">
<ele>1218.73</ele>
<time>2015-11-22T07:24:54Z</time>
</trkpt>
<trkpt lat="31.0710793" lon="35.6947724">
<ele>1218.06</ele>
<time>2015-11-22T07:24:55Z</time>
</trkpt>
<trkpt lat="31.0710344" lon="35.6947780">
<ele>1216.73</ele>
<time>2015-11-22T07:24:56Z</time>
</trkpt>
<trkpt lat="31.0709887" lon="35.6947985">
<ele>1215.56</ele>
<time>2015-11-22T07:24:57Z</time>
</trkpt>
<trkpt lat="31.0709402" lon="35.6948144">
<ele>1214.98</ele>
<time>2015-11-22T07:24:58Z</time>
</trkpt>
<trkpt lat="31.0708890" lon="35.6948302">
<ele>1212.19</ele>
<time>2015-11-22T07:24:59Z</time>
</trkpt>
<trkpt lat="31.0708409" lon="35.6948313">
<ele>1210.29</ele>
<time>2015-11-22T07:25:00Z</time>
</trkpt>
<trkpt lat="31.0707848" lon="35.6948318">
<ele>1211.34</ele>
<time>2015-11-22T07:25:01Z</time>
</trkpt>
<trkpt lat="31.0707352" lon="35.6948408">
<ele>1213.37</ele>
<time>2015-11-22T07:25:02Z</time>
</trkpt>
<trkpt lat="31.0706767" lon="35.6948450">
<ele>1214.38</ele>
<time>2015-11-22T07:25:03Z</time>
</trkpt>
<trkpt lat="31.0706231" lon="35.6948528">
<ele>1215.39</ele>
<time>2015-11-22T07:25:04Z</time>
</trkpt>
<trkpt lat="31.0705755" lon="35.6948623">
<ele>1216.39</ele>
<time>2015-11-22T07:25:05Z</time>
</trkpt>
<trkpt lat="31.0705252" lon="35.6948662">
<ele>1215.90</ele>
<time>2015-11-22T07:25:06Z</time>
</trkpt>
<trkpt lat="31.0704655" lon="35.6948779">
<ele>1213.65</ele>
<time>2015-11-22T07:25:07Z</time>
</trkpt>
<trkpt lat="31.0704202" lon="35.6948802">
<ele>1213.02</ele>
<time>2015-11-22T07:25:08Z</time>
</trkpt>
<trkpt lat="31.0703681" lon="35.6948954">
<ele>1213.71</ele>
<time>2015-11-22T07:25:09Z</time>
</trkpt>
<trkpt lat="31.0703200" lon="35.6949080">
<ele>1213.55</ele>
<time>2015-11-22T07:25:10Z</time>
</trkpt>
<trkpt lat="31.0702738" lon="35.6949170">
<ele>1211.98</ele>
<time>2015-11-22T07:25:11Z</time>
</trkpt>
<trkpt lat="31.0702143" lon="35.6949284">
<ele>1211.69</ele>
<time>2015-11-22T07:25:12Z</time>
</trkpt>
<trkpt lat="31.0701596" lon="35.6949397">
<ele>1210.04</ele>
<time>2015-11-22T07:25:13Z</time>
</trkpt>
<trkpt lat="31.0701033" lon="35.6949500">
<ele>1207.72</ele>
<time>2015-11-22T07:25:14Z</time>
</trkpt>
<trkpt lat="31.0700421" lon="35.6949618">
<ele>1204.06</ele>
<time>2015-11-22T07:25:15Z</time>
</trkpt>
<trkpt lat="31.0699820" lon="35.6949612">
<ele>1202.23</ele>
<time>2015-11-22T07:25:16Z</time>
</trkpt>
<trkpt lat="31.0699265" lon="35.6949599">
<ele>1202.81</ele>
<time>2015-11-22T07:25:17Z</time>
</trkpt>
<trkpt lat="31.0698711" lon="35.6949630">
<ele>1204.10</ele>
<time>2015-11-22T07:25:18Z</time>
</trkpt>
<trkpt lat="31.0698153" lon="35.6949562">
<ele>1205.25</ele>
<time>2015-11-22T07:25:19Z</time>
</trkpt>
<trkpt lat="31.0697623" lon="35.6949626">
<ele>1206.82</ele>
<time>2015-11-22T07:25:20Z</time>
</trkpt>
<trkpt lat="31.0697055" lon="35.6949725">
<ele>1211.61</ele>
<time>2015-11-22T07:25:21Z</time>
</trkpt>
<trkpt lat="31.0696569" lon="35.6949918">
<ele>1218.50</ele>
<time>2015-11-22T07:25:22Z</time>
</trkpt>
<trkpt lat="31.0696044" lon="35.6950035">
<ele>1224.95</ele>
<time>2015-11-22T07:25:23Z</time>
</trkpt>
<trkpt lat="31.0695529" lon="35.6950199">
<ele>1229.67</ele>
<time>2015-11-22T07:25:24Z</time>
</trkpt>
<trkpt lat="31.0695057" lon="35.6950434">
<ele>1233.54</ele>
<time>2015-11-22T07:25:25Z</time>
</trkpt>
<trkpt lat="31.0694506" lon="35.6950452">
<ele>1236.47</ele>
<time>2015-11-22T07:25:26Z</time>
</trkpt>
<trkpt lat="31.0694053" lon="35.6950474">
<ele>1237.93</ele>
<time>2015-11-22T07:25:27Z</time>
</trkpt>
<trkpt lat="31.0693500" lon="35.6950544">
<ele>1239.16</ele>
<time>2015-11-22T07:25:28Z</time>
</trkpt>
<trkpt lat="31.0692982" lon="35.6950596">
<ele>1240.28</ele>
<time>2015-11-22T07:25:29Z</time>
</trkpt>
<trkpt lat="31.0692455" lon="35.6950664">
<ele>1241.34</ele>
<time>2015-11-22T07:25:30Z</time>
</trkpt>
<trkpt lat="31.0691817" lon="35.6950824">
<ele>1241.37</ele>
<time>2015-11-22T07:25:31Z</time>
</trkpt>
<trkpt lat="31.0691266" lon="35.6950964">
<ele>1241.88</ele>
<time>2015-11-22T07:25:32Z</time>
</trkpt>
<trkpt lat="31.0690753" lon="35.6951128">
<ele>1242.14</ele>
<time>2015-11-22T07:25:33Z</time>
</trkpt>
<trkpt lat="31.0690100" lon="35.6951318">
<ele>1242.27</ele>
<time>2015-11-22T07:25:34Z</time>
</trkpt>
<trkpt lat="31.0689558" lon="35.6951466">
<ele>1242.33</ele>
<time>2015-11-22T07:25:35Z</time>
</trkpt>
<trkpt lat="31.0689014" lon="35.6951663">
<ele>1241.86</ele>
<time>2015-11-22T07:25:36Z</time>
</trkpt>
<trkpt lat="31.0688418" lon="35.6951767">
<ele>1242.13</ele>
<time>2015-11-22T07:25:37Z</time>
</trkpt>
<trkpt lat="31.0687783" lon="35.6951924">
<ele>1242.26</ele>
<time>2015-11-22T07:25:38Z</time>
</trkpt>
<trkpt lat="31.0687110" lon="35.6952028">
<ele>1241.83</ele>
<time>2015-11-22T07:25:39Z</time>
</trkpt>
<trkpt lat="31.0686460" lon="35.6952214">
<ele>1241.61</ele>
<time>2015-11-22T07:25:40Z</time>
</trkpt>
<trkpt lat="31.0685775" lon="35.6952246">
<ele>1241.51</ele>
<time>2015-11-22T07:25:41Z</time>
</trkpt>
<trkpt lat="31.0685189" lon="35.6952326">
<ele>1241.45</ele>
<time>2015-11-22T07:25:42Z</time>
</trkpt>
<trkpt lat="31.0684630" lon="35.6952397">
<ele>1241.42</ele>
<time>2015-11-22T07:25:43Z</time>
</trkpt>
<trkpt lat="31.0684062" lon="35.6952512">
<ele>1241.41</ele>
<time>2015-11-22T07:25:44Z</time>
</trkpt>
<trkpt lat="31.0683516" lon="35.6952592">
<ele>1241.40</ele>
<time>2015-11-22T07:25:45Z</time>
</trkpt>
<trkpt lat="31.0682938" lon="35.6952676">
<ele>1241.40</ele>
<time>2015-11-22T07:25:46Z</time>
</trkpt>
<trkpt lat="31.0682485" lon="35.6952667">
<ele>1240.40</ele>
<time>2015-11-22T07:25:47Z</time>
</trkpt>
<trkpt lat="31.0681825" lon="35.6952738">
<ele>1239.90</ele>
<time>2015-11-22T07:25:48Z</time>
</trkpt>
<trkpt lat="31.0681212" lon="35.6952841">
<ele>1239.65</ele>
<time>2015-11-22T07:25:49Z</time>
</trkpt>
<trkpt lat="31.0680646" lon="35.6952811">
<ele>1239.02</ele>
<time>2015-11-22T07:25:50Z</time>
</trkpt>
<trkpt lat="31.0680097" lon="35.6952866">
<ele>1238.71</ele>
<time>2015-11-22T07:25:51Z</time>
</trkpt>
<trkpt lat="31.0679508" lon="35.6952945">
<ele>1238.55</ele>
<time>2015-11-22T07:25:52Z</time>
</trkpt>
<trkpt lat="31.0678998" lon="35.6952914">
<ele>1237.98</ele>
<time>2015-11-22T07:25:53Z</time>
</trkpt>
<trkpt lat="31.0678510" lon="35.6952889">
<ele>1238.19</ele>
<time>2015-11-22T07:25:54Z</time>
</trkpt>
<trkpt lat="31.0678038" lon="35.6952845">
<ele>1237.79</ele>
<time>2015-11-22T07:25:55Z</time>
</trkpt>
<trkpt lat="31.0677395" lon="35.6952769">
<ele>1237.50</ele>
<time>2015-11-22T07:25:57Z</time>
</trkpt>
<trkpt lat="31.0676809" lon="35.6952587">
<ele>1238.28</ele>
<time>2015-11-22T07:26:00Z</time>
</trkpt>
<trkpt lat="31.0676240" lon="35.6952603">
<ele>1237.88</ele>
<time>2015-11-22T07:26:03Z</time>
</trkpt>
<trkpt lat="31.0676397" lon="35.6952057">
<ele>1237.68</ele>
<time>2015-11-22T07:26:07Z</time>
</trkpt>
<trkpt lat="31.0676800" lon="35.6952404">
<ele>1236.72</ele>
<time>2015-11-22T07:26:09Z</time>
</trkpt>
<trkpt lat="31.0676993" lon="35.6952964">
<ele>1236.48</ele>
<time>2015-11-22T07:26:11Z</time>
</trkpt>
<trkpt lat="31.0677256" lon="35.6953584">
<ele>1237.28</ele>
<time>2015-11-22T07:26:14Z</time>
</trkpt>
<trkpt lat="31.0677048" lon="35.6954087">
<ele>1237.38</ele>
<time>2015-11-22T07:26:17Z</time>
</trkpt>
<trkpt lat="31.0676709" lon="35.6954606">
<ele>1236.52</ele>
<time>2015-11-22T07:26:20Z</time>
</trkpt>
<trkpt lat="31.0676451" lon="35.6955231">
<ele>1236.16</ele>
<time>2015-11-22T07:26:23Z</time>
</trkpt>
<trkpt lat="31.0676334" lon="35.6955997">
<ele>1236.24</ele>
<time>2015-11-22T07:26:26Z</time>
</trkpt>
<trkpt lat="31.0676299" lon="35.6956558">
<ele>1236.86</ele>
<time>2015-11-22T07:26:28Z</time>
</trkpt>
<trkpt lat="31.0676331" lon="35.6957112">
<ele>1237.26</ele>
<time>2015-11-22T07:26:30Z</time>
</trkpt>
<trkpt lat="31.0676479" lon="35.6957819">
<ele>1237.88</ele>
<time>2015-11-22T07:26:33Z</time>
</trkpt>
<trkpt lat="31.0676658" lon="35.6957305">
<ele>1242.82</ele>
<time>2015-11-22T07:27:13Z</time>
</trkpt>
<trkpt lat="31.0676391" lon="35.6956810">
<ele>1243.82</ele>
<time>2015-11-22T07:27:16Z</time>
</trkpt>
<trkpt lat="31.0675986" lon="35.6956342">
<ele>1242.95</ele>
<time>2015-11-22T07:27:19Z</time>
</trkpt>
<trkpt lat="31.0676032" lon="35.6955755">
<ele>1239.53</ele>
<time>2015-11-22T07:27:29Z</time>
</trkpt>
<trkpt lat="31.0676446" lon="35.6955297">
<ele>1241.18</ele>
<time>2015-11-22T07:27:31Z</time>
</trkpt>
<trkpt lat="31.0676777" lon="35.6954762">
<ele>1242.09</ele>
<time>2015-11-22T07:27:33Z</time>
</trkpt>
<trkpt lat="31.0677067" lon="35.6954158">
<ele>1241.07</ele>
<time>2015-11-22T07:27:35Z</time>
</trkpt>
<trkpt lat="31.0677313" lon="35.6953521">
<ele>1240.57</ele>
<time>2015-11-22T07:27:37Z</time>
</trkpt>
<trkpt lat="31.0677201" lon="35.6952799">
<ele>1241.19</ele>
<time>2015-11-22T07:27:39Z</time>
</trkpt>
<trkpt lat="31.0676587" lon="35.6952315">
<ele>1241.34</ele>
<time>2015-11-22T07:27:41Z</time>
</trkpt>
<trkpt lat="31.0675796" lon="35.6952095">
<ele>1241.88</ele>
<time>2015-11-22T07:27:43Z</time>
</trkpt>
<trkpt lat="31.0675046" lon="35.6951810">
<ele>1241.52</ele>
<time>2015-11-22T07:27:45Z</time>
</trkpt>
<trkpt lat="31.0674348" lon="35.6951469">
<ele>1241.18</ele>
<time>2015-11-22T07:27:47Z</time>
</trkpt>
<trkpt lat="31.0673668" lon="35.6951114">
<ele>1241.34</ele>
<time>2015-11-22T07:27:49Z</time>
</trkpt>
<trkpt lat="31.0672928" lon="35.6950900">
<ele>1241.88</ele>
<time>2015-11-22T07:27:51Z</time>
</trkpt>
<trkpt lat="31.0672189" lon="35.6950676">
<ele>1241.52</ele>
<time>2015-11-22T07:27:53Z</time>
</trkpt>
<trkpt lat="31.0671485" lon="35.6950400">
<ele>1241.43</ele>
<time>2015-11-22T07:27:55Z</time>
</trkpt>
<trkpt lat="31.0670811" lon="35.6950116">
<ele>1241.15</ele>
<time>2015-11-22T07:27:57Z</time>
</trkpt>
<trkpt lat="31.0670161" lon="35.6949837">
<ele>1241.34</ele>
<time>2015-11-22T07:27:59Z</time>
</trkpt>
<trkpt lat="31.0669548" lon="35.6949578">
<ele>1241.38</ele>
<time>2015-11-22T07:28:01Z</time>
</trkpt>
<trkpt lat="31.0669055" lon="35.6949294">
<ele>1241.39</ele>
<time>2015-11-22T07:28:03Z</time>
</trkpt>
<trkpt lat="31.0668884" lon="35.6948725">
<ele>1240.65</ele>
<time>2015-11-22T07:28:06Z</time>
</trkpt>
<trkpt lat="31.0668330" lon="35.6948926">
<ele>1241.40</ele>
<time>2015-11-22T07:29:37Z</time>
</trkpt>
<trkpt lat="31.0667712" lon="35.6949064">
<ele>1241.40</ele>
<time>2015-11-22T07:29:39Z</time>
</trkpt>
<trkpt lat="31.0667062" lon="35.6949144">
<ele>1241.90</ele>
<time>2015-11-22T07:29:41Z</time>
</trkpt>
<trkpt lat="31.0666359" lon="35.6949217">
<ele>1241.77</ele>
<time>2015-11-22T07:29:43Z</time>
</trkpt>
<trkpt lat="31.0665531" lon="35.6949230">
<ele>1240.74</ele>
<time>2015-11-22T07:29:45Z</time>
</trkpt>
<trkpt lat="31.0664248" lon="35.6949075">
<ele>1239.98</ele>
<time>2015-11-22T07:29:48Z</time>
</trkpt>
<trkpt lat="31.0663458" lon="35.6949045">
<ele>1240.29</ele>
<time>2015-11-22T07:29:50Z</time>
</trkpt>
<trkpt lat="31.0662694" lon="35.6949000">
<ele>1240.37</ele>
<time>2015-11-22T07:29:52Z</time>
</trkpt>
<trkpt lat="31.0661908" lon="35.6948959">
<ele>1239.89</ele>
<time>2015-11-22T07:29:54Z</time>
</trkpt>
<trkpt lat="31.0661102" lon="35.6948928">
<ele>1239.52</ele>
<time>2015-11-22T07:29:56Z</time>
</trkpt>
<trkpt lat="31.0660336" lon="35.6948930">
<ele>1239.43</ele>
<time>2015-11-22T07:29:58Z</time>
</trkpt>
<trkpt lat="31.0659563" lon="35.6948876">
<ele>1238.65</ele>
<time>2015-11-22T07:30:00Z</time>
</trkpt>
<trkpt lat="31.0658823" lon="35.6948860">
<ele>1239.21</ele>
<time>2015-11-22T07:30:02Z</time>
</trkpt>
<trkpt lat="31.0658125" lon="35.6948863">
<ele>1239.35</ele>
<time>2015-11-22T07:30:04Z</time>
</trkpt>
<trkpt lat="31.0657448" lon="35.6948862">
<ele>1238.64</ele>
<time>2015-11-22T07:30:06Z</time>
</trkpt>
<trkpt lat="31.0656826" lon="35.6948841">
<ele>1237.71</ele>
<time>2015-11-22T07:30:08Z</time>
</trkpt>
<trkpt lat="31.0656320" lon="35.6948801">
<ele>1237.22</ele>
<time>2015-11-22T07:30:10Z</time>
</trkpt>
<trkpt lat="31.0655820" lon="35.6948746">
<ele>1237.85</ele>
<time>2015-11-22T07:30:12Z</time>
</trkpt>
<trkpt lat="31.0655281" lon="35.6948698">
<ele>1238.26</ele>
<time>2015-11-22T07:30:14Z</time>
</trkpt>
<trkpt lat="31.0654656" lon="35.6948678">
<ele>1238.36</ele>
<time>2015-11-22T07:30:16Z</time>
</trkpt>
<trkpt lat="31.0653972" lon="35.6948667">
<ele>1239.14</ele>
<time>2015-11-22T07:30:18Z</time>
</trkpt>
<trkpt lat="31.0653280" lon="35.6948630">
<ele>1239.33</ele>
<time>2015-11-22T07:30:20Z</time>
</trkpt>
<trkpt lat="31.0652597" lon="35.6948579">
<ele>1240.63</ele>
<time>2015-11-22T07:30:22Z</time>
</trkpt>
<trkpt lat="31.0651868" lon="35.6948565">
<ele>1241.21</ele>
<time>2015-11-22T07:30:24Z</time>
</trkpt>
<trkpt lat="31.0651132" lon="35.6948547">
<ele>1241.35</ele>
<time>2015-11-22T07:30:26Z</time>
</trkpt>
<trkpt lat="31.0650371" lon="35.6948521">
<ele>1241.14</ele>
<time>2015-11-22T07:30:28Z</time>
</trkpt>
<trkpt lat="31.0649637" lon="35.6948476">
<ele>1241.33</ele>
<time>2015-11-22T07:30:30Z</time>
</trkpt>
<trkpt lat="31.0648924" lon="35.6948429">
<ele>1241.38</ele>
<time>2015-11-22T07:30:32Z</time>
</trkpt>
<trkpt lat="31.0648242" lon="35.6948451">
<ele>1241.39</ele>
<time>2015-11-22T07:30:34Z</time>
</trkpt>
<trkpt lat="31.0647554" lon="35.6948488">
<ele>1240.90</ele>
<time>2015-11-22T07:30:36Z</time>
</trkpt>
<trkpt lat="31.0646845" lon="35.6948512">
<ele>1239.77</ele>
<time>2015-11-22T07:30:38Z</time>
</trkpt>
<trkpt lat="31.0646121" lon="35.6948520">
<ele>1239.99</ele>
<time>2015-11-22T07:30:40Z</time>
</trkpt>
<trkpt lat="31.0645440" lon="35.6948450">
<ele>1240.30</ele>
<time>2015-11-22T07:30:42Z</time>
</trkpt>
<trkpt lat="31.0644834" lon="35.6948237">
<ele>1240.37</ele>
<time>2015-11-22T07:30:44Z</time>
</trkpt>
<trkpt lat="31.0644209" lon="35.6948195">
<ele>1240.89</ele>
<time>2015-11-22T07:30:46Z</time>
</trkpt>
<trkpt lat="31.0643552" lon="35.6948226">
<ele>1241.27</ele>
<time>2015-11-22T07:30:48Z</time>
</trkpt>
<trkpt lat="31.0642862" lon="35.6948188">
<ele>1240.87</ele>
<time>2015-11-22T07:30:50Z</time>
</trkpt>
<trkpt lat="31.0642208" lon="35.6948126">
<ele>1240.51</ele>
<time>2015-11-22T07:30:52Z</time>
</trkpt>
<trkpt lat="31.0641561" lon="35.6948095">
<ele>1240.18</ele>
<time>2015-11-22T07:30:54Z</time>
</trkpt>
<trkpt lat="31.0640912" lon="35.6948085">
<ele>1240.34</ele>
<time>2015-11-22T07:30:56Z</time>
</trkpt>
<trkpt lat="31.0640281" lon="35.6948011">
<ele>1239.63</ele>
<time>2015-11-22T07:30:58Z</time>
</trkpt>
<trkpt lat="31.0639654" lon="35.6947964">
<ele>1239.46</ele>
<time>2015-11-22T07:31:00Z</time>
</trkpt>
<trkpt lat="31.0638990" lon="35.6947930">
<ele>1239.41</ele>
<time>2015-11-22T07:31:02Z</time>
</trkpt>
<trkpt lat="31.0638337" lon="35.6947879">
<ele>1238.90</ele>
<time>2015-11-22T07:31:04Z</time>
</trkpt>
<trkpt lat="31.0637641" lon="35.6947888">
<ele>1239.27</ele>
<time>2015-11-22T07:31:06Z</time>
</trkpt>
<trkpt lat="31.0636969" lon="35.6947893">
<ele>1239.87</ele>
<time>2015-11-22T07:31:08Z</time>
</trkpt>
<trkpt lat="31.0636282" lon="35.6947898">
<ele>1240.26</ele>
<time>2015-11-22T07:31:10Z</time>
</trkpt>
<trkpt lat="31.0635540" lon="35.6947956">
<ele>1240.86</ele>
<time>2015-11-22T07:31:12Z</time>
</trkpt>
<trkpt lat="31.0634754" lon="35.6948038">
<ele>1241.26</ele>
<time>2015-11-22T07:31:14Z</time>
</trkpt>
<trkpt lat="31.0633979" lon="35.6948070">
<ele>1241.36</ele>
<time>2015-11-22T07:31:16Z</time>
</trkpt>
<trkpt lat="31.0633291" lon="35.6947942">
<ele>1240.89</ele>
<time>2015-11-22T07:31:18Z</time>
</trkpt>
<trkpt lat="31.0632637" lon="35.6947704">
<ele>1240.52</ele>
<time>2015-11-22T07:31:20Z</time>
</trkpt>
<trkpt lat="31.0631994" lon="35.6947449">
<ele>1240.46</ele>
<time>2015-11-22T07:31:22Z</time>
</trkpt>
<trkpt lat="31.0631340" lon="35.6947410">
<ele>1241.16</ele>
<time>2015-11-22T07:31:24Z</time>
</trkpt>
<trkpt lat="31.0630735" lon="35.6947663">
<ele>1241.34</ele>
<time>2015-11-22T07:31:26Z</time>
</trkpt>
<trkpt lat="31.0630138" lon="35.6948141">
<ele>1241.38</ele>
<time>2015-11-22T07:31:28Z</time>
</trkpt>
<trkpt lat="31.0629536" lon="35.6948610">
<ele>1242.14</ele>
<time>2015-11-22T07:31:30Z</time>
</trkpt>
<trkpt lat="31.0628977" lon="35.6949052">
<ele>1242.83</ele>
<time>2015-11-22T07:31:32Z</time>
</trkpt>
<trkpt lat="31.0628510" lon="35.6949398">
<ele>1244.01</ele>
<time>2015-11-22T07:31:34Z</time>
</trkpt>
<trkpt lat="31.0627954" lon="35.6949647">
<ele>1244.35</ele>
<time>2015-11-22T07:31:37Z</time>
</trkpt>
<trkpt lat="31.0627488" lon="35.6949724">
<ele>1244.38</ele>
<time>2015-11-22T07:31:39Z</time>
</trkpt>
<trkpt lat="31.0626961" lon="35.6949773">
<ele>1244.39</ele>
<time>2015-11-22T07:31:41Z</time>
</trkpt>
<trkpt lat="31.0626422" lon="35.6949874">
<ele>1243.90</ele>
<time>2015-11-22T07:31:43Z</time>
</trkpt>
<trkpt lat="31.0625904" lon="35.6949971">
<ele>1244.77</ele>
<time>2015-11-22T07:31:45Z</time>
</trkpt>
<trkpt lat="31.0625357" lon="35.6950035">
<ele>1245.49</ele>
<time>2015-11-22T07:31:47Z</time>
</trkpt>
<trkpt lat="31.0624790" lon="35.6950090">
<ele>1246.67</ele>
<time>2015-11-22T07:31:49Z</time>
</trkpt>
<trkpt lat="31.0624234" lon="35.6950092">
<ele>1247.72</ele>
<time>2015-11-22T07:31:51Z</time>
</trkpt>
<trkpt lat="31.0623717" lon="35.6950036">
<ele>1247.48</ele>
<time>2015-11-22T07:31:53Z</time>
</trkpt>
<trkpt lat="31.0623216" lon="35.6949989">
<ele>1246.94</ele>
<time>2015-11-22T07:31:55Z</time>
</trkpt>
<trkpt lat="31.0622730" lon="35.6949949">
<ele>1247.28</ele>
<time>2015-11-22T07:31:57Z</time>
</trkpt>
<trkpt lat="31.0622258" lon="35.6949933">
<ele>1247.37</ele>
<time>2015-11-22T07:31:59Z</time>
</trkpt>
<trkpt lat="31.0621781" lon="35.6949910">
<ele>1247.39</ele>
<time>2015-11-22T07:32:01Z</time>
</trkpt>
<trkpt lat="31.0621297" lon="35.6949905">
<ele>1247.40</ele>
<time>2015-11-22T07:32:03Z</time>
</trkpt>
<trkpt lat="31.0620809" lon="35.6949936">
<ele>1247.90</ele>
<time>2015-11-22T07:32:05Z</time>
</trkpt>
<trkpt lat="31.0620314" lon="35.6949970">
<ele>1248.27</ele>
<time>2015-11-22T07:32:07Z</time>
</trkpt>
<trkpt lat="31.0619801" lon="35.6949983">
<ele>1248.37</ele>
<time>2015-11-22T07:32:09Z</time>
</trkpt>
<trkpt lat="31.0619273" lon="35.6950041">
<ele>1248.39</ele>
<time>2015-11-22T07:32:11Z</time>
</trkpt>
<trkpt lat="31.0618717" lon="35.6950100">
<ele>1247.90</ele>
<time>2015-11-22T07:32:13Z</time>
</trkpt>
<trkpt lat="31.0618184" lon="35.6950168">
<ele>1248.02</ele>
<time>2015-11-22T07:32:15Z</time>
</trkpt>
<trkpt lat="31.0617643" lon="35.6950168">
<ele>1247.05</ele>
<time>2015-11-22T07:32:17Z</time>
</trkpt>
<trkpt lat="31.0617097" lon="35.6950178">
<ele>1247.31</ele>
<time>2015-11-22T07:32:19Z</time>
</trkpt>
<trkpt lat="31.0616549" lon="35.6950257">
<ele>1248.13</ele>
<time>2015-11-22T07:32:21Z</time>
</trkpt>
<trkpt lat="31.0616012" lon="35.6950314">
<ele>1247.83</ele>
<time>2015-11-22T07:32:23Z</time>
</trkpt>
<trkpt lat="31.0615460" lon="35.6950285">
<ele>1247.51</ele>
<time>2015-11-22T07:32:25Z</time>
</trkpt>
<trkpt lat="31.0614913" lon="35.6950272">
<ele>1247.42</ele>
<time>2015-11-22T07:32:27Z</time>
</trkpt>
<trkpt lat="31.0614361" lon="35.6950254">
<ele>1247.40</ele>
<time>2015-11-22T07:32:29Z</time>
</trkpt>
<trkpt lat="31.0613800" lon="35.6950229">
<ele>1247.40</ele>
<time>2015-11-22T07:32:31Z</time>
</trkpt>
<trkpt lat="31.0613271" lon="35.6950205">
<ele>1247.40</ele>
<time>2015-11-22T07:32:33Z</time>
</trkpt>
<trkpt lat="31.0612656" lon="35.6950247">
<ele>1247.90</ele>
<time>2015-11-22T07:32:36Z</time>
</trkpt>
<trkpt lat="31.0612325" lon="35.6950796">
<ele>1247.46</ele>
<time>2015-11-22T07:32:39Z</time>
</trkpt>
<trkpt lat="31.0612187" lon="35.6951328">
<ele>1247.41</ele>
<time>2015-11-22T07:32:41Z</time>
</trkpt>
<trkpt lat="31.0612021" lon="35.6951910">
<ele>1247.40</ele>
<time>2015-11-22T07:32:43Z</time>
</trkpt>
<trkpt lat="31.0611842" lon="35.6952500">
<ele>1246.15</ele>
<time>2015-11-22T07:32:45Z</time>
</trkpt>
<trkpt lat="31.0611756" lon="35.6953086">
<ele>1246.33</ele>
<time>2015-11-22T07:32:47Z</time>
</trkpt>
<trkpt lat="31.0611686" lon="35.6953627">
<ele>1246.38</ele>
<time>2015-11-22T07:32:49Z</time>
</trkpt>
<trkpt lat="31.0611530" lon="35.6954356">
<ele>1246.77</ele>
<time>2015-11-22T07:32:52Z</time>
</trkpt>
<trkpt lat="31.0611259" lon="35.6955056">
<ele>1247.19</ele>
<time>2015-11-22T07:32:55Z</time>
</trkpt>
<trkpt lat="31.0611007" lon="35.6955537">
<ele>1247.35</ele>
<time>2015-11-22T07:32:57Z</time>
</trkpt>
<trkpt lat="31.0610748" lon="35.6956097">
<ele>1247.38</ele>
<time>2015-11-22T07:32:59Z</time>
</trkpt>
<trkpt lat="31.0610493" lon="35.6956747">
<ele>1247.39</ele>
<time>2015-11-22T07:33:01Z</time>
</trkpt>
<trkpt lat="31.0610206" lon="35.6957418">
<ele>1247.40</ele>
<time>2015-11-22T07:33:03Z</time>
</trkpt>
<trkpt lat="31.0609897" lon="35.6958129">
<ele>1247.40</ele>
<time>2015-11-22T07:33:05Z</time>
</trkpt>
<trkpt lat="31.0609590" lon="35.6958912">
<ele>1247.90</ele>
<time>2015-11-22T07:33:07Z</time>
</trkpt>
<trkpt lat="31.0609274" lon="35.6959677">
<ele>1248.27</ele>
<time>2015-11-22T07:33:09Z</time>
</trkpt>
<trkpt lat="31.0608967" lon="35.6960348">
<ele>1248.87</ele>
<time>2015-11-22T07:33:11Z</time>
</trkpt>
<trkpt lat="31.0608678" lon="35.6960968">
<ele>1249.26</ele>
<time>2015-11-22T07:33:13Z</time>
</trkpt>
<trkpt lat="31.0608425" lon="35.6961547">
<ele>1249.36</ele>
<time>2015-11-22T07:33:15Z</time>
</trkpt>
<trkpt lat="31.0608053" lon="35.6962405">
<ele>1249.89</ele>
<time>2015-11-22T07:33:18Z</time>
</trkpt>
<trkpt lat="31.0607781" lon="35.6962952">
<ele>1251.02</ele>
<time>2015-11-22T07:33:20Z</time>
</trkpt>
<trkpt lat="31.0607500" lon="35.6963510">
<ele>1251.21</ele>
<time>2015-11-22T07:33:22Z</time>
</trkpt>
<trkpt lat="31.0607170" lon="35.6964013">
<ele>1252.60</ele>
<time>2015-11-22T07:33:24Z</time>
</trkpt>
<trkpt lat="31.0606796" lon="35.6964456">
<ele>1253.20</ele>
<time>2015-11-22T07:33:26Z</time>
</trkpt>
<trkpt lat="31.0606405" lon="35.6964862">
<ele>1253.35</ele>
<time>2015-11-22T07:33:28Z</time>
</trkpt>
<trkpt lat="31.0606044" lon="35.6965299">
<ele>1254.13</ele>
<time>2015-11-22T07:33:30Z</time>
</trkpt>
<trkpt lat="31.0605708" lon="35.6965749">
<ele>1254.33</ele>
<time>2015-11-22T07:33:32Z</time>
</trkpt>
<trkpt lat="31.0605384" lon="35.6966201">
<ele>1253.63</ele>
<time>2015-11-22T07:33:34Z</time>
</trkpt>
<trkpt lat="31.0605079" lon="35.6966699">
<ele>1253.96</ele>
<time>2015-11-22T07:33:36Z</time>
</trkpt>
<trkpt lat="31.0604770" lon="35.6967196">
<ele>1254.29</ele>
<time>2015-11-22T07:33:38Z</time>
</trkpt>
<trkpt lat="31.0604471" lon="35.6967699">
<ele>1254.37</ele>
<time>2015-11-22T07:33:40Z</time>
</trkpt>
<trkpt lat="31.0604214" lon="35.6968245">
<ele>1254.39</ele>
<time>2015-11-22T07:33:42Z</time>
</trkpt>
<trkpt lat="31.0603998" lon="35.6968790">
<ele>1254.65</ele>
<time>2015-11-22T07:33:44Z</time>
</trkpt>
<trkpt lat="31.0603731" lon="35.6969298">
<ele>1255.46</ele>
<time>2015-11-22T07:33:46Z</time>
</trkpt>
<trkpt lat="31.0603455" lon="35.6969815">
<ele>1256.16</ele>
<time>2015-11-22T07:33:48Z</time>
</trkpt>
<trkpt lat="31.0603219" lon="35.6970383">
<ele>1256.34</ele>
<time>2015-11-22T07:33:50Z</time>
</trkpt>
<trkpt lat="31.0602942" lon="35.6970953">
<ele>1255.13</ele>
<time>2015-11-22T07:33:52Z</time>
</trkpt>
<trkpt lat="31.0602616" lon="35.6971521">
<ele>1254.58</ele>
<time>2015-11-22T07:33:54Z</time>
</trkpt>
<trkpt lat="31.0602271" lon="35.6972019">
<ele>1254.44</ele>
<time>2015-11-22T07:33:56Z</time>
</trkpt>
<trkpt lat="31.0601999" lon="35.6972557">
<ele>1253.41</ele>
<time>2015-11-22T07:33:58Z</time>
</trkpt>
<trkpt lat="31.0601751" lon="35.6973115">
<ele>1253.40</ele>
<time>2015-11-22T07:34:00Z</time>
</trkpt>
<trkpt lat="31.0601540" lon="35.6973680">
<ele>1252.65</ele>
<time>2015-11-22T07:34:02Z</time>
</trkpt>
<trkpt lat="31.0601320" lon="35.6974254">
<ele>1252.96</ele>
<time>2015-11-22T07:34:04Z</time>
</trkpt>
<trkpt lat="31.0601055" lon="35.6974835">
<ele>1253.29</ele>
<time>2015-11-22T07:34:06Z</time>
</trkpt>
<trkpt lat="31.0600757" lon="35.6975393">
<ele>1253.12</ele>
<time>2015-11-22T07:34:08Z</time>
</trkpt>
<trkpt lat="31.0600456" lon="35.6975949">
<ele>1254.08</ele>
<time>2015-11-22T07:34:10Z</time>
</trkpt>
<trkpt lat="31.0600132" lon="35.6976494">
<ele>1255.07</ele>
<time>2015-11-22T07:34:12Z</time>
</trkpt>
<trkpt lat="31.0599829" lon="35.6977002">
<ele>1254.56</ele>
<time>2015-11-22T07:34:14Z</time>
</trkpt>
<trkpt lat="31.0599527" lon="35.6977472">
<ele>1255.69</ele>
<time>2015-11-22T07:34:16Z</time>
</trkpt>
<trkpt lat="31.0599294" lon="35.6977969">
<ele>1256.22</ele>
<time>2015-11-22T07:34:18Z</time>
</trkpt>
<trkpt lat="31.0599074" lon="35.6978506">
<ele>1255.85</ele>
<time>2015-11-22T07:34:20Z</time>
</trkpt>
<trkpt lat="31.0598748" lon="35.6979012">
<ele>1255.51</ele>
<time>2015-11-22T07:34:22Z</time>
</trkpt>
<trkpt lat="31.0598335" lon="35.6979539">
<ele>1254.68</ele>
<time>2015-11-22T07:34:24Z</time>
</trkpt>
<trkpt lat="31.0597872" lon="35.6980183">
<ele>1253.72</ele>
<time>2015-11-22T07:34:26Z</time>
</trkpt>
<trkpt lat="31.0597510" lon="35.6980798">
<ele>1252.73</ele>
<time>2015-11-22T07:34:28Z</time>
</trkpt>
<trkpt lat="31.0597234" lon="35.6981272">
<ele>1255.61</ele>
<time>2015-11-22T07:46:56Z</time>
</trkpt>
<trkpt lat="31.0597006" lon="35.6981890">
<ele>1255.91</ele>
<time>2015-11-22T07:47:00Z</time>
</trkpt>
<trkpt lat="31.0596749" lon="35.6982562">
<ele>1255.78</ele>
<time>2015-11-22T07:47:02Z</time>
</trkpt>
<trkpt lat="31.0596328" lon="35.6983490">
<ele>1255.24</ele>
<time>2015-11-22T07:47:04Z</time>
</trkpt>
<trkpt lat="31.0596045" lon="35.6984264">
<ele>1254.32</ele>
<time>2015-11-22T07:47:05Z</time>
</trkpt>
<trkpt lat="31.0595758" lon="35.6984959">
<ele>1253.86</ele>
<time>2015-11-22T07:47:06Z</time>
</trkpt>
<trkpt lat="31.0595465" lon="35.6985565">
<ele>1253.63</ele>
<time>2015-11-22T07:47:07Z</time>
</trkpt>
<trkpt lat="31.0595187" lon="35.6986239">
<ele>1253.01</ele>
<time>2015-11-22T07:47:08Z</time>
</trkpt>
<trkpt lat="31.0594836" lon="35.6986998">
<ele>1252.70</ele>
<time>2015-11-22T07:47:09Z</time>
</trkpt>
<trkpt lat="31.0594392" lon="35.6987540">
<ele>1252.05</ele>
<time>2015-11-22T07:47:10Z</time>
</trkpt>
<trkpt lat="31.0593974" lon="35.6988401">
<ele>1251.22</ele>
<time>2015-11-22T07:47:11Z</time>
</trkpt>
<trkpt lat="31.0593557" lon="35.6989224">
<ele>1250.81</ele>
<time>2015-11-22T07:47:12Z</time>
</trkpt>
<trkpt lat="31.0593205" lon="35.6990166">
<ele>1250.10</ele>
<time>2015-11-22T07:47:13Z</time>
</trkpt>
<trkpt lat="31.0592861" lon="35.6991174">
<ele>1249.75</ele>
<time>2015-11-22T07:47:14Z</time>
</trkpt>
<trkpt lat="31.0592408" lon="35.6992127">
<ele>1249.57</ele>
<time>2015-11-22T07:47:15Z</time>
</trkpt>
<trkpt lat="31.0592035" lon="35.6993094">
<ele>1248.99</ele>
<time>2015-11-22T07:47:16Z</time>
</trkpt>
<trkpt lat="31.0591612" lon="35.6994133">
<ele>1248.19</ele>
<time>2015-11-22T07:47:17Z</time>
</trkpt>
<trkpt lat="31.0591151" lon="35.6995224">
<ele>1247.79</ele>
<time>2015-11-22T07:47:18Z</time>
</trkpt>
<trkpt lat="31.0590673" lon="35.6996285">
<ele>1247.60</ele>
<time>2015-11-22T07:47:19Z</time>
</trkpt>
<trkpt lat="31.0590263" lon="35.6997238">
<ele>1247.50</ele>
<time>2015-11-22T07:47:20Z</time>
</trkpt>
<trkpt lat="31.0589832" lon="35.6998254">
<ele>1246.95</ele>
<time>2015-11-22T07:47:21Z</time>
</trkpt>
<trkpt lat="31.0589429" lon="35.6999148">
<ele>1246.17</ele>
<time>2015-11-22T07:47:22Z</time>
</trkpt>
<trkpt lat="31.0589051" lon="35.7000135">
<ele>1245.78</ele>
<time>2015-11-22T07:47:23Z</time>
</trkpt>
<trkpt lat="31.0588646" lon="35.7001042">
<ele>1245.09</ele>
<time>2015-11-22T07:47:24Z</time>
</trkpt>
<trkpt lat="31.0588149" lon="35.7002012">
<ele>1244.74</ele>
<time>2015-11-22T07:47:25Z</time>
</trkpt>
<trkpt lat="31.0587680" lon="35.7002941">
<ele>1244.57</ele>
<time>2015-11-22T07:47:26Z</time>
</trkpt>
<trkpt lat="31.0587243" lon="35.7003839">
<ele>1243.98</ele>
<time>2015-11-22T07:47:27Z</time>
</trkpt>
<trkpt lat="31.0586780" lon="35.7004755">
<ele>1243.69</ele>
<time>2015-11-22T07:47:28Z</time>
</trkpt>
<trkpt lat="31.0586316" lon="35.7005685">
<ele>1243.54</ele>
<time>2015-11-22T07:47:29Z</time>
</trkpt>
<trkpt lat="31.0585892" lon="35.7006583">
<ele>1243.47</ele>
<time>2015-11-22T07:47:30Z</time>
</trkpt>
<trkpt lat="31.0585387" lon="35.7007503">
<ele>1243.43</ele>
<time>2015-11-22T07:47:31Z</time>
</trkpt>
<trkpt lat="31.0584998" lon="35.7008466">
<ele>1242.92</ele>
<time>2015-11-22T07:47:32Z</time>
</trkpt>
<trkpt lat="31.0584506" lon="35.7009374">
<ele>1242.66</ele>
<time>2015-11-22T07:47:33Z</time>
</trkpt>
<trkpt lat="31.0584043" lon="35.7010296">
<ele>1242.53</ele>
<time>2015-11-22T07:47:34Z</time>
</trkpt>
<trkpt lat="31.0583594" lon="35.7011290">
<ele>1241.96</ele>
<time>2015-11-22T07:47:35Z</time>
</trkpt>
<trkpt lat="31.0583164" lon="35.7012267">
<ele>1241.18</ele>
<time>2015-11-22T07:47:36Z</time>
</trkpt>
<trkpt lat="31.0582674" lon="35.7013304">
<ele>1240.79</ele>
<time>2015-11-22T07:47:37Z</time>
</trkpt>
<trkpt lat="31.0582189" lon="35.7014233">
<ele>1240.09</ele>
<time>2015-11-22T07:47:38Z</time>
</trkpt>
<trkpt lat="31.0581710" lon="35.7015240">
<ele>1239.74</ele>
<time>2015-11-22T07:47:39Z</time>
</trkpt>
<trkpt lat="31.0581230" lon="35.7016140">
<ele>1239.07</ele>
<time>2015-11-22T07:47:40Z</time>
</trkpt>
<trkpt lat="31.0580853" lon="35.7016828">
<ele>1238.73</ele>
<time>2015-11-22T07:47:41Z</time>
</trkpt>
<trkpt lat="31.0580443" lon="35.7017479">
<ele>1238.07</ele>
<time>2015-11-22T07:47:42Z</time>
</trkpt>
<trkpt lat="31.0580018" lon="35.7017985">
<ele>1237.73</ele>
<time>2015-11-22T07:47:43Z</time>
</trkpt>
<trkpt lat="31.0579602" lon="35.7018503">
<ele>1238.06</ele>
<time>2015-11-22T07:47:44Z</time>
</trkpt>
<trkpt lat="31.0579127" lon="35.7018930">
<ele>1237.73</ele>
<time>2015-11-22T07:47:45Z</time>
</trkpt>
<trkpt lat="31.0578637" lon="35.7019377">
<ele>1238.06</ele>
<time>2015-11-22T07:47:46Z</time>
</trkpt>
<trkpt lat="31.0577698" lon="35.7020215">
<ele>1238.23</ele>
<time>2015-11-22T07:47:48Z</time>
</trkpt>
<trkpt lat="31.0577287" lon="35.7020684">
<ele>1237.81</ele>
<time>2015-11-22T07:47:49Z</time>
</trkpt>
<trkpt lat="31.0576861" lon="35.7021080">
<ele>1237.61</ele>
<time>2015-11-22T07:47:50Z</time>
</trkpt>
<trkpt lat="31.0576325" lon="35.7021480">
<ele>1237.50</ele>
<time>2015-11-22T07:47:51Z</time>
</trkpt>
<trkpt lat="31.0575870" lon="35.7021909">
<ele>1237.45</ele>
<time>2015-11-22T07:47:52Z</time>
</trkpt>
<trkpt lat="31.0575394" lon="35.7022306">
<ele>1237.42</ele>
<time>2015-11-22T07:47:53Z</time>
</trkpt>
<trkpt lat="31.0574887" lon="35.7022695">
<ele>1237.41</ele>
<time>2015-11-22T07:47:54Z</time>
</trkpt>
<trkpt lat="31.0574382" lon="35.7023135">
<ele>1237.40</ele>
<time>2015-11-22T07:47:55Z</time>
</trkpt>
<trkpt lat="31.0573779" lon="35.7023512">
<ele>1237.90</ele>
<time>2015-11-22T07:47:56Z</time>
</trkpt>
<trkpt lat="31.0573204" lon="35.7023878">
<ele>1238.15</ele>
<time>2015-11-22T07:47:57Z</time>
</trkpt>
<trkpt lat="31.0572612" lon="35.7024410">
<ele>1238.27</ele>
<time>2015-11-22T07:47:58Z</time>
</trkpt>
<trkpt lat="31.0572060" lon="35.7024810">
<ele>1238.33</ele>
<time>2015-11-22T07:47:59Z</time>
</trkpt>
<trkpt lat="31.0571464" lon="35.7025249">
<ele>1238.87</ele>
<time>2015-11-22T07:48:00Z</time>
</trkpt>
<trkpt lat="31.0570920" lon="35.7025710">
<ele>1239.13</ele>
<time>2015-11-22T07:48:01Z</time>
</trkpt>
<trkpt lat="31.0570420" lon="35.7026038">
<ele>1238.76</ele>
<time>2015-11-22T07:48:02Z</time>
</trkpt>
<trkpt lat="31.0569897" lon="35.7026481">
<ele>1238.58</ele>
<time>2015-11-22T07:48:03Z</time>
</trkpt>
<trkpt lat="31.0569336" lon="35.7026888">
<ele>1238.49</ele>
<time>2015-11-22T07:48:04Z</time>
</trkpt>
<trkpt lat="31.0568651" lon="35.7027409">
<ele>1238.44</ele>
<time>2015-11-22T07:48:05Z</time>
</trkpt>
<trkpt lat="31.0568091" lon="35.7027847">
<ele>1238.42</ele>
<time>2015-11-22T07:48:06Z</time>
</trkpt>
<trkpt lat="31.0567519" lon="35.7028234">
<ele>1238.41</ele>
<time>2015-11-22T07:48:07Z</time>
</trkpt>
<trkpt lat="31.0566918" lon="35.7028660">
<ele>1238.40</ele>
<time>2015-11-22T07:48:08Z</time>
</trkpt>
<trkpt lat="31.0566378" lon="35.7029065">
<ele>1238.40</ele>
<time>2015-11-22T07:48:09Z</time>
</trkpt>
<trkpt lat="31.0565781" lon="35.7029582">
<ele>1238.40</ele>
<time>2015-11-22T07:48:10Z</time>
</trkpt>
<trkpt lat="31.0565058" lon="35.7030073">
<ele>1237.90</ele>
<time>2015-11-22T07:48:11Z</time>
</trkpt>
<trkpt lat="31.0564383" lon="35.7030576">
<ele>1237.65</ele>
<time>2015-11-22T07:48:12Z</time>
</trkpt>
<trkpt lat="31.0563620" lon="35.7031048">
<ele>1237.02</ele>
<time>2015-11-22T07:48:13Z</time>
</trkpt>
<trkpt lat="31.0562910" lon="35.7031541">
<ele>1236.21</ele>
<time>2015-11-22T07:48:14Z</time>
</trkpt>
<trkpt lat="31.0562081" lon="35.7032113">
<ele>1236.30</ele>
<time>2015-11-22T07:48:15Z</time>
</trkpt>
<trkpt lat="31.0561376" lon="35.7032755">
<ele>1235.85</ele>
<time>2015-11-22T07:48:16Z</time>
</trkpt>
<trkpt lat="31.0559761" lon="35.7033991">
<ele>1235.12</ele>
<time>2015-11-22T07:48:18Z</time>
</trkpt>
<trkpt lat="31.0558979" lon="35.7034611">
<ele>1234.76</ele>
<time>2015-11-22T07:48:19Z</time>
</trkpt>
<trkpt lat="31.0558158" lon="35.7035262">
<ele>1235.08</ele>
<time>2015-11-22T07:48:20Z</time>
</trkpt>
<trkpt lat="31.0557370" lon="35.7035839">
<ele>1234.74</ele>
<time>2015-11-22T07:48:21Z</time>
</trkpt>
<trkpt lat="31.0556581" lon="35.7036405">
<ele>1235.07</ele>
<time>2015-11-22T07:48:22Z</time>
</trkpt>
<trkpt lat="31.0555841" lon="35.7037018">
<ele>1235.73</ele>
<time>2015-11-22T07:48:23Z</time>
</trkpt>
<trkpt lat="31.0554949" lon="35.7037658">
<ele>1236.06</ele>
<time>2015-11-22T07:48:24Z</time>
</trkpt>
<trkpt lat="31.0554096" lon="35.7038327">
<ele>1236.23</ele>
<time>2015-11-22T07:48:25Z</time>
</trkpt>
<trkpt lat="31.0553150" lon="35.7039010">
<ele>1236.31</ele>
<time>2015-11-22T07:48:26Z</time>
</trkpt>
<trkpt lat="31.0552220" lon="35.7039727">
<ele>1235.86</ele>
<time>2015-11-22T07:48:27Z</time>
</trkpt>
<trkpt lat="31.0551335" lon="35.7040355">
<ele>1235.63</ele>
<time>2015-11-22T07:48:28Z</time>
</trkpt>
<trkpt lat="31.0550606" lon="35.7040888">
<ele>1235.01</ele>
<time>2015-11-22T07:48:29Z</time>
</trkpt>
<trkpt lat="31.0549614" lon="35.7041529">
<ele>1234.70</ele>
<time>2015-11-22T07:48:30Z</time>
</trkpt>
<trkpt lat="31.0548766" lon="35.7042165">
<ele>1234.55</ele>
<time>2015-11-22T07:48:31Z</time>
</trkpt>
<trkpt lat="31.0547829" lon="35.7042917">
<ele>1233.97</ele>
<time>2015-11-22T07:48:32Z</time>
</trkpt>
<trkpt lat="31.0546943" lon="35.7043594">
<ele>1234.19</ele>
<time>2015-11-22T07:48:33Z</time>
</trkpt>
<trkpt lat="31.0546068" lon="35.7044250">
<ele>1234.29</ele>
<time>2015-11-22T07:48:34Z</time>
</trkpt>
<trkpt lat="31.0545306" lon="35.7044783">
<ele>1233.84</ele>
<time>2015-11-22T07:48:35Z</time>
</trkpt>
<trkpt lat="31.0544587" lon="35.7045378">
<ele>1233.62</ele>
<time>2015-11-22T07:48:36Z</time>
</trkpt>
<trkpt lat="31.0543853" lon="35.7045957">
<ele>1233.51</ele>
<time>2015-11-22T07:48:37Z</time>
</trkpt>
<trkpt lat="31.0543214" lon="35.7046442">
<ele>1232.95</ele>
<time>2015-11-22T07:48:38Z</time>
</trkpt>
<trkpt lat="31.0542443" lon="35.7047059">
<ele>1232.17</ele>
<time>2015-11-22T07:48:39Z</time>
</trkpt>
<trkpt lat="31.0541736" lon="35.7047600">
<ele>1232.29</ele>
<time>2015-11-22T07:48:40Z</time>
</trkpt>
<trkpt lat="31.0541098" lon="35.7048155">
<ele>1232.84</ele>
<time>2015-11-22T07:48:41Z</time>
</trkpt>
<trkpt lat="31.0539810" lon="35.7049242">
<ele>1233.12</ele>
<time>2015-11-22T07:48:43Z</time>
</trkpt>
<trkpt lat="31.0539125" lon="35.7049728">
<ele>1233.26</ele>
<time>2015-11-22T07:48:44Z</time>
</trkpt>
<trkpt lat="31.0538376" lon="35.7050278">
<ele>1232.83</ele>
<time>2015-11-22T07:48:45Z</time>
</trkpt>
<trkpt lat="31.0537696" lon="35.7050869">
<ele>1232.61</ele>
<time>2015-11-22T07:48:46Z</time>
</trkpt>
<trkpt lat="31.0536965" lon="35.7051418">
<ele>1232.50</ele>
<time>2015-11-22T07:48:47Z</time>
</trkpt>
<trkpt lat="31.0536228" lon="35.7051919">
<ele>1232.45</ele>
<time>2015-11-22T07:48:48Z</time>
</trkpt>
<trkpt lat="31.0535494" lon="35.7052455">
<ele>1231.92</ele>
<time>2015-11-22T07:48:49Z</time>
</trkpt>
<trkpt lat="31.0534837" lon="35.7052962">
<ele>1231.66</ele>
<time>2015-11-22T07:48:50Z</time>
</trkpt>
<trkpt lat="31.0534144" lon="35.7053508">
<ele>1231.53</ele>
<time>2015-11-22T07:48:51Z</time>
</trkpt>
<trkpt lat="31.0533430" lon="35.7054052">
<ele>1231.46</ele>
<time>2015-11-22T07:48:52Z</time>
</trkpt>
<trkpt lat="31.0532658" lon="35.7054573">
<ele>1231.43</ele>
<time>2015-11-22T07:48:53Z</time>
</trkpt>
<trkpt lat="31.0531916" lon="35.7055134">
<ele>1231.41</ele>
<time>2015-11-22T07:48:54Z</time>
</trkpt>
<trkpt lat="31.0531230" lon="35.7055629">
<ele>1230.91</ele>
<time>2015-11-22T07:48:55Z</time>
</trkpt>
<trkpt lat="31.0530557" lon="35.7056153">
<ele>1230.65</ele>
<time>2015-11-22T07:48:56Z</time>
</trkpt>
<trkpt lat="31.0529866" lon="35.7056692">
<ele>1230.02</ele>
<time>2015-11-22T07:48:57Z</time>
</trkpt>
<trkpt lat="31.0529139" lon="35.7057183">
<ele>1229.21</ele>
<time>2015-11-22T07:48:58Z</time>
</trkpt>
<trkpt lat="31.0528419" lon="35.7057696">
<ele>1228.80</ele>
<time>2015-11-22T07:48:59Z</time>
</trkpt>
<trkpt lat="31.0527682" lon="35.7058234">
<ele>1228.60</ele>
<time>2015-11-22T07:49:00Z</time>
</trkpt>
<trkpt lat="31.0526952" lon="35.7058708">
<ele>1228.50</ele>
<time>2015-11-22T07:49:01Z</time>
</trkpt>
<trkpt lat="31.0526230" lon="35.7059318">
<ele>1227.95</ele>
<time>2015-11-22T07:49:02Z</time>
</trkpt>
<trkpt lat="31.0525530" lon="35.7059862">
<ele>1227.67</ele>
<time>2015-11-22T07:49:03Z</time>
</trkpt>
<trkpt lat="31.0524797" lon="35.7060371">
<ele>1228.03</ele>
<time>2015-11-22T07:49:04Z</time>
</trkpt>
<trkpt lat="31.0524120" lon="35.7060912">
<ele>1227.72</ele>
<time>2015-11-22T07:49:05Z</time>
</trkpt>
<trkpt lat="31.0523339" lon="35.7061469">
<ele>1227.56</ele>
<time>2015-11-22T07:49:06Z</time>
</trkpt>
<trkpt lat="31.0522614" lon="35.7062010">
<ele>1227.48</ele>
<time>2015-11-22T07:49:07Z</time>
</trkpt>
<trkpt lat="31.0521884" lon="35.7062585">
<ele>1227.44</ele>
<time>2015-11-22T07:49:08Z</time>
</trkpt>
<trkpt lat="31.0521174" lon="35.7063202">
<ele>1226.92</ele>
<time>2015-11-22T07:49:09Z</time>
</trkpt>
<trkpt lat="31.0520378" lon="35.7063833">
<ele>1226.66</ele>
<time>2015-11-22T07:49:10Z</time>
</trkpt>
<trkpt lat="31.0519626" lon="35.7064399">
<ele>1226.53</ele>
<time>2015-11-22T07:49:11Z</time>
</trkpt>
<trkpt lat="31.0518841" lon="35.7065058">
<ele>1225.96</ele>
<time>2015-11-22T07:49:12Z</time>
</trkpt>
<trkpt lat="31.0518094" lon="35.7065602">
<ele>1225.68</ele>
<time>2015-11-22T07:49:13Z</time>
</trkpt>
<trkpt lat="31.0517266" lon="35.7066156">
<ele>1226.04</ele>
<time>2015-11-22T07:49:14Z</time>
</trkpt>
<trkpt lat="31.0516513" lon="35.7066749">
<ele>1226.72</ele>
<time>2015-11-22T07:49:15Z</time>
</trkpt>
<trkpt lat="31.0515793" lon="35.7067362">
<ele>1227.06</ele>
<time>2015-11-22T07:49:16Z</time>
</trkpt>
<trkpt lat="31.0515028" lon="35.7067897">
<ele>1227.23</ele>
<time>2015-11-22T07:49:17Z</time>
</trkpt>
<trkpt lat="31.0514247" lon="35.7068495">
<ele>1227.31</ele>
<time>2015-11-22T07:49:18Z</time>
</trkpt>
<trkpt lat="31.0513460" lon="35.7069048">
<ele>1226.85</ele>
<time>2015-11-22T07:49:19Z</time>
</trkpt>
<trkpt lat="31.0512636" lon="35.7069616">
<ele>1226.13</ele>
<time>2015-11-22T07:49:20Z</time>
</trkpt>
<trkpt lat="31.0511905" lon="35.7070221">
<ele>1225.76</ele>
<time>2015-11-22T07:49:21Z</time>
</trkpt>
<trkpt lat="31.0511174" lon="35.7070800">
<ele>1225.58</ele>
<time>2015-11-22T07:49:22Z</time>
</trkpt>
<trkpt lat="31.0510431" lon="35.7071414">
<ele>1225.49</ele>
<time>2015-11-22T07:49:23Z</time>
</trkpt>
<trkpt lat="31.0509689" lon="35.7072001">
<ele>1225.94</ele>
<time>2015-11-22T07:49:24Z</time>
</trkpt>
<trkpt lat="31.0509026" lon="35.7072576">
<ele>1225.67</ele>
<time>2015-11-22T07:49:25Z</time>
</trkpt>
<trkpt lat="31.0508351" lon="35.7073150">
<ele>1225.03</ele>
<time>2015-11-22T07:49:26Z</time>
</trkpt>
<trkpt lat="31.0507620" lon="35.7073662">
<ele>1224.72</ele>
<time>2015-11-22T07:49:27Z</time>
</trkpt>
<trkpt lat="31.0506903" lon="35.7074217">
<ele>1224.56</ele>
<time>2015-11-22T07:49:28Z</time>
</trkpt>
<trkpt lat="31.0506212" lon="35.7074761">
<ele>1224.48</ele>
<time>2015-11-22T07:49:29Z</time>
</trkpt>
<trkpt lat="31.0505492" lon="35.7075220">
<ele>1223.94</ele>
<time>2015-11-22T07:49:30Z</time>
</trkpt>
<trkpt lat="31.0504854" lon="35.7075745">
<ele>1223.67</ele>
<time>2015-11-22T07:49:31Z</time>
</trkpt>
<trkpt lat="31.0504131" lon="35.7076277">
<ele>1223.53</ele>
<time>2015-11-22T07:49:32Z</time>
</trkpt>
<trkpt lat="31.0503419" lon="35.7076765">
<ele>1223.46</ele>
<time>2015-11-22T07:49:33Z</time>
</trkpt>
<trkpt lat="31.0502781" lon="35.7077189">
<ele>1223.43</ele>
<time>2015-11-22T07:49:34Z</time>
</trkpt>
<trkpt lat="31.0502082" lon="35.7077710">
<ele>1223.91</ele>
<time>2015-11-22T07:49:35Z</time>
</trkpt>
<trkpt lat="31.0501512" lon="35.7078171">
<ele>1224.16</ele>
<time>2015-11-22T07:49:36Z</time>
</trkpt>
<trkpt lat="31.0500891" lon="35.7078690">
<ele>1224.28</ele>
<time>2015-11-22T07:49:37Z</time>
</trkpt>
<trkpt lat="31.0500242" lon="35.7079242">
<ele>1223.84</ele>
<time>2015-11-22T07:49:38Z</time>
</trkpt>
<trkpt lat="31.0499583" lon="35.7079686">
<ele>1223.62</ele>
<time>2015-11-22T07:49:39Z</time>
</trkpt>
<trkpt lat="31.0498890" lon="35.7080109">
<ele>1223.51</ele>
<time>2015-11-22T07:49:40Z</time>
</trkpt>
<trkpt lat="31.0498225" lon="35.7080526">
<ele>1223.95</ele>
<time>2015-11-22T07:49:41Z</time>
</trkpt>
<trkpt lat="31.0497672" lon="35.7080989">
<ele>1224.17</ele>
<time>2015-11-22T07:49:42Z</time>
</trkpt>
<trkpt lat="31.0497071" lon="35.7081467">
<ele>1224.29</ele>
<time>2015-11-22T07:49:43Z</time>
</trkpt>
<trkpt lat="31.0496579" lon="35.7081780">
<ele>1223.34</ele>
<time>2015-11-22T07:49:44Z</time>
</trkpt>
<trkpt lat="31.0495983" lon="35.7082211">
<ele>1222.87</ele>
<time>2015-11-22T07:49:45Z</time>
</trkpt>
<trkpt lat="31.0495371" lon="35.7082689">
<ele>1222.63</ele>
<time>2015-11-22T07:49:46Z</time>
</trkpt>
<trkpt lat="31.0494799" lon="35.7083136">
<ele>1222.52</ele>
<time>2015-11-22T07:49:47Z</time>
</trkpt>
<trkpt lat="31.0494238" lon="35.7083651">
<ele>1222.46</ele>
<time>2015-11-22T07:49:48Z</time>
</trkpt>
<trkpt lat="31.0493629" lon="35.7084061">
<ele>1222.43</ele>
<time>2015-11-22T07:49:49Z</time>
</trkpt>
<trkpt lat="31.0493143" lon="35.7084478">
<ele>1222.91</ele>
<time>2015-11-22T07:49:50Z</time>
</trkpt>
<trkpt lat="31.0492620" lon="35.7084886">
<ele>1223.15</ele>
<time>2015-11-22T07:49:51Z</time>
</trkpt>
<trkpt lat="31.0492099" lon="35.7085295">
<ele>1223.28</ele>
<time>2015-11-22T07:49:52Z</time>
</trkpt>
<trkpt lat="31.0491634" lon="35.7085732">
<ele>1222.84</ele>
<time>2015-11-22T07:49:53Z</time>
</trkpt>
<trkpt lat="31.0491103" lon="35.7086111">
<ele>1222.12</ele>
<time>2015-11-22T07:49:54Z</time>
</trkpt>
<trkpt lat="31.0490614" lon="35.7086539">
<ele>1221.26</ele>
<time>2015-11-22T07:49:55Z</time>
</trkpt>
<trkpt lat="31.0490132" lon="35.7086919">
<ele>1220.83</ele>
<time>2015-11-22T07:49:56Z</time>
</trkpt>
<trkpt lat="31.0489690" lon="35.7087286">
<ele>1220.61</ele>
<time>2015-11-22T07:49:57Z</time>
</trkpt>
<trkpt lat="31.0489246" lon="35.7087600">
<ele>1220.50</ele>
<time>2015-11-22T07:49:58Z</time>
</trkpt>
<trkpt lat="31.0488771" lon="35.7087978">
<ele>1220.45</ele>
<time>2015-11-22T07:49:59Z</time>
</trkpt>
<trkpt lat="31.0488279" lon="35.7088289">
<ele>1220.42</ele>
<time>2015-11-22T07:50:00Z</time>
</trkpt>
<trkpt lat="31.0487801" lon="35.7088616">
<ele>1220.41</ele>
<time>2015-11-22T07:50:01Z</time>
</trkpt>
<trkpt lat="31.0487357" lon="35.7088882">
<ele>1220.90</ele>
<time>2015-11-22T07:50:02Z</time>
</trkpt>
<trkpt lat="31.0486620" lon="35.7089282">
<ele>1221.27</ele>
<time>2015-11-22T07:50:04Z</time>
</trkpt>
<trkpt lat="31.0485926" lon="35.7089709">
<ele>1220.62</ele>
<time>2015-11-22T07:50:06Z</time>
</trkpt>
<trkpt lat="31.0485480" lon="35.7089981">
<ele>1220.51</ele>
<time>2015-11-22T07:50:07Z</time>
</trkpt>
<trkpt lat="31.0484975" lon="35.7090292">
<ele>1219.95</ele>
<time>2015-11-22T07:50:08Z</time>
</trkpt>
<trkpt lat="31.0484463" lon="35.7090595">
<ele>1220.17</ele>
<time>2015-11-22T07:50:09Z</time>
</trkpt>
<trkpt lat="31.0484036" lon="35.7090923">
<ele>1220.29</ele>
<time>2015-11-22T07:50:10Z</time>
</trkpt>
<trkpt lat="31.0483599" lon="35.7091216">
<ele>1220.34</ele>
<time>2015-11-22T07:50:11Z</time>
</trkpt>
<trkpt lat="31.0483136" lon="35.7091529">
<ele>1220.37</ele>
<time>2015-11-22T07:50:12Z</time>
</trkpt>
<trkpt lat="31.0482616" lon="35.7091804">
<ele>1219.88</ele>
<time>2015-11-22T07:50:13Z</time>
</trkpt>
<trkpt lat="31.0482164" lon="35.7092139">
<ele>1219.64</ele>
<time>2015-11-22T07:50:14Z</time>
</trkpt>
<trkpt lat="31.0481592" lon="35.7092422">
<ele>1219.52</ele>
<time>2015-11-22T07:50:15Z</time>
</trkpt>
<trkpt lat="31.0481018" lon="35.7092650">
<ele>1218.96</ele>
<time>2015-11-22T07:50:16Z</time>
</trkpt>
<trkpt lat="31.0480437" lon="35.7092960">
<ele>1218.68</ele>
<time>2015-11-22T07:50:17Z</time>
</trkpt>
<trkpt lat="31.0479851" lon="35.7093225">
<ele>1218.54</ele>
<time>2015-11-22T07:50:18Z</time>
</trkpt>
<trkpt lat="31.0479231" lon="35.7093452">
<ele>1220.47</ele>
<time>2015-11-22T07:50:19Z</time>
</trkpt>
<trkpt lat="31.0478553" lon="35.7093671">
<ele>1221.43</ele>
<time>2015-11-22T07:50:20Z</time>
</trkpt>
<trkpt lat="31.0477943" lon="35.7093879">
<ele>1221.91</ele>
<time>2015-11-22T07:50:21Z</time>
</trkpt>
<trkpt lat="31.0477300" lon="35.7094164">
<ele>1222.16</ele>
<time>2015-11-22T07:50:22Z</time>
</trkpt>
<trkpt lat="31.0476698" lon="35.7094382">
<ele>1222.28</ele>
<time>2015-11-22T07:50:23Z</time>
</trkpt>
<trkpt lat="31.0476100" lon="35.7094533">
<ele>1222.34</ele>
<time>2015-11-22T07:50:24Z</time>
</trkpt>
<trkpt lat="31.0475483" lon="35.7094738">
<ele>1222.37</ele>
<time>2015-11-22T07:50:25Z</time>
</trkpt>
<trkpt lat="31.0474891" lon="35.7094915">
<ele>1222.38</ele>
<time>2015-11-22T07:50:26Z</time>
</trkpt>
<trkpt lat="31.0474339" lon="35.7095159">
<ele>1222.39</ele>
<time>2015-11-22T07:50:27Z</time>
</trkpt>
<trkpt lat="31.0473774" lon="35.7095323">
<ele>1222.39</ele>
<time>2015-11-22T07:50:28Z</time>
</trkpt>
<trkpt lat="31.0473213" lon="35.7095494">
<ele>1222.40</ele>
<time>2015-11-22T07:50:29Z</time>
</trkpt>
<trkpt lat="31.0472661" lon="35.7095646">
<ele>1221.90</ele>
<time>2015-11-22T07:50:30Z</time>
</trkpt>
<trkpt lat="31.0472116" lon="35.7095842">
<ele>1221.65</ele>
<time>2015-11-22T07:50:31Z</time>
</trkpt>
<trkpt lat="31.0471562" lon="35.7096136">
<ele>1221.52</ele>
<time>2015-11-22T07:50:32Z</time>
</trkpt>
<trkpt lat="31.0470954" lon="35.7096355">
<ele>1221.46</ele>
<time>2015-11-22T07:50:33Z</time>
</trkpt>
<trkpt lat="31.0470412" lon="35.7096535">
<ele>1221.43</ele>
<time>2015-11-22T07:50:34Z</time>
</trkpt>
<trkpt lat="31.0469834" lon="35.7096720">
<ele>1221.41</ele>
<time>2015-11-22T07:50:35Z</time>
</trkpt>
<trkpt lat="31.0469269" lon="35.7096919">
<ele>1221.40</ele>
<time>2015-11-22T07:50:36Z</time>
</trkpt>
<trkpt lat="31.0468662" lon="35.7097053">
<ele>1221.40</ele>
<time>2015-11-22T07:50:37Z</time>
</trkpt>
<trkpt lat="31.0468080" lon="35.7097316">
<ele>1221.40</ele>
<time>2015-11-22T07:50:38Z</time>
</trkpt>
<trkpt lat="31.0467427" lon="35.7097551">
<ele>1221.40</ele>
<time>2015-11-22T07:50:39Z</time>
</trkpt>
<trkpt lat="31.0466737" lon="35.7097752">
<ele>1221.40</ele>
<time>2015-11-22T07:50:40Z</time>
</trkpt>
<trkpt lat="31.0466098" lon="35.7097924">
<ele>1221.40</ele>
<time>2015-11-22T07:50:41Z</time>
</trkpt>
<trkpt lat="31.0465594" lon="35.7098103">
<ele>1221.40</ele>
<time>2015-11-22T07:50:42Z</time>
</trkpt>
<trkpt lat="31.0464947" lon="35.7098314">
<ele>1221.40</ele>
<time>2015-11-22T07:50:43Z</time>
</trkpt>
<trkpt lat="31.0464255" lon="35.7098554">
<ele>1221.40</ele>
<time>2015-11-22T07:50:44Z</time>
</trkpt>
<trkpt lat="31.0463718" lon="35.7098783">
<ele>1220.90</ele>
<time>2015-11-22T07:50:45Z</time>
</trkpt>
<trkpt lat="31.0463076" lon="35.7098998">
<ele>1221.15</ele>
<time>2015-11-22T07:50:46Z</time>
</trkpt>
<trkpt lat="31.0462451" lon="35.7099181">
<ele>1221.27</ele>
<time>2015-11-22T07:50:47Z</time>
</trkpt>
<trkpt lat="31.0461812" lon="35.7099392">
<ele>1221.33</ele>
<time>2015-11-22T07:50:48Z</time>
</trkpt>
<trkpt lat="31.0461159" lon="35.7099619">
<ele>1221.87</ele>
<time>2015-11-22T07:50:49Z</time>
</trkpt>
<trkpt lat="31.0460582" lon="35.7099851">
<ele>1221.63</ele>
<time>2015-11-22T07:50:50Z</time>
</trkpt>
<trkpt lat="31.0459922" lon="35.7100075">
<ele>1222.01</ele>
<time>2015-11-22T07:50:51Z</time>
</trkpt>
<trkpt lat="31.0459325" lon="35.7100292">
<ele>1222.21</ele>
<time>2015-11-22T07:50:52Z</time>
</trkpt>
<trkpt lat="31.0458673" lon="35.7100528">
<ele>1222.30</ele>
<time>2015-11-22T07:50:53Z</time>
</trkpt>
<trkpt lat="31.0458090" lon="35.7100646">
<ele>1222.35</ele>
<time>2015-11-22T07:50:54Z</time>
</trkpt>
<trkpt lat="31.0457458" lon="35.7100867">
<ele>1222.37</ele>
<time>2015-11-22T07:50:55Z</time>
</trkpt>
<trkpt lat="31.0456943" lon="35.7101077">
<ele>1221.89</ele>
<time>2015-11-22T07:50:56Z</time>
</trkpt>
<trkpt lat="31.0456465" lon="35.7101236">
<ele>1221.64</ele>
<time>2015-11-22T07:50:57Z</time>
</trkpt>
<trkpt lat="31.0455829" lon="35.7101394">
<ele>1222.02</ele>
<time>2015-11-22T07:50:58Z</time>
</trkpt>
<trkpt lat="31.0455192" lon="35.7101600">
<ele>1221.71</ele>
<time>2015-11-22T07:50:59Z</time>
</trkpt>
<trkpt lat="31.0454564" lon="35.7101726">
<ele>1222.05</ele>
<time>2015-11-22T07:51:00Z</time>
</trkpt>
<trkpt lat="31.0453892" lon="35.7101916">
<ele>1222.22</ele>
<time>2015-11-22T07:51:01Z</time>
</trkpt>
<trkpt lat="31.0453300" lon="35.7102173">
<ele>1222.31</ele>
<time>2015-11-22T07:51:02Z</time>
</trkpt>
<trkpt lat="31.0452670" lon="35.7102361">
<ele>1222.35</ele>
<time>2015-11-22T07:51:03Z</time>
</trkpt>
<trkpt lat="31.0452087" lon="35.7102461">
<ele>1221.88</ele>
<time>2015-11-22T07:51:04Z</time>
</trkpt>
<trkpt lat="31.0451534" lon="35.7102670">
<ele>1221.64</ele>
<time>2015-11-22T07:51:05Z</time>
</trkpt>
<trkpt lat="31.0450900" lon="35.7102938">
<ele>1222.02</ele>
<time>2015-11-22T07:51:06Z</time>
</trkpt>
<trkpt lat="31.0450301" lon="35.7103127">
<ele>1222.21</ele>
<time>2015-11-22T07:51:07Z</time>
</trkpt>
<trkpt lat="31.0449769" lon="35.7103292">
<ele>1222.30</ele>
<time>2015-11-22T07:51:08Z</time>
</trkpt>
<trkpt lat="31.0449170" lon="35.7103430">
<ele>1221.85</ele>
<time>2015-11-22T07:51:09Z</time>
</trkpt>
<trkpt lat="31.0448552" lon="35.7103596">
<ele>1222.12</ele>
<time>2015-11-22T07:51:10Z</time>
</trkpt>
<trkpt lat="31.0448001" lon="35.7103765">
<ele>1222.26</ele>
<time>2015-11-22T07:51:11Z</time>
</trkpt>
<trkpt lat="31.0447420" lon="35.7103943">
<ele>1221.83</ele>
<time>2015-11-22T07:51:12Z</time>
</trkpt>
<trkpt lat="31.0446805" lon="35.7104121">
<ele>1222.11</ele>
<time>2015-11-22T07:51:13Z</time>
</trkpt>
<trkpt lat="31.0446277" lon="35.7104280">
<ele>1222.25</ele>
<time>2015-11-22T07:51:14Z</time>
</trkpt>
<trkpt lat="31.0445706" lon="35.7104448">
<ele>1222.33</ele>
<time>2015-11-22T07:51:15Z</time>
</trkpt>
<trkpt lat="31.0445157" lon="35.7104545">
<ele>1222.36</ele>
<time>2015-11-22T07:51:16Z</time>
</trkpt>
<trkpt lat="31.0444520" lon="35.7104720">
<ele>1221.88</ele>
<time>2015-11-22T07:51:17Z</time>
</trkpt>
<trkpt lat="31.0443923" lon="35.7104958">
<ele>1221.64</ele>
<time>2015-11-22T07:51:18Z</time>
</trkpt>
<trkpt lat="31.0443275" lon="35.7105211">
<ele>1222.02</ele>
<time>2015-11-22T07:51:19Z</time>
</trkpt>
<trkpt lat="31.0442678" lon="35.7105402">
<ele>1222.21</ele>
<time>2015-11-22T07:51:20Z</time>
</trkpt>
<trkpt lat="31.0442110" lon="35.7105602">
<ele>1222.30</ele>
<time>2015-11-22T07:51:21Z</time>
</trkpt>
<trkpt lat="31.0441494" lon="35.7105883">
<ele>1222.35</ele>
<time>2015-11-22T07:51:22Z</time>
</trkpt>
<trkpt lat="31.0440960" lon="35.7106101">
<ele>1222.37</ele>
<time>2015-11-22T07:51:23Z</time>
</trkpt>
<trkpt lat="31.0440473" lon="35.7106329">
<ele>1222.39</ele>
<time>2015-11-22T07:51:24Z</time>
</trkpt>
<trkpt lat="31.0439682" lon="35.7106554">
<ele>1222.39</ele>
<time>2015-11-22T07:51:26Z</time>
</trkpt>
<trkpt lat="31.0439109" lon="35.7106814">
<ele>1222.40</ele>
<time>2015-11-22T07:51:27Z</time>
</trkpt>
<trkpt lat="31.0438581" lon="35.7106915">
<ele>1222.40</ele>
<time>2015-11-22T07:51:28Z</time>
</trkpt>
<trkpt lat="31.0438118" lon="35.7107098">
<ele>1222.40</ele>
<time>2015-11-22T07:51:29Z</time>
</trkpt>
<trkpt lat="31.0437201" lon="35.7107323">
<ele>1222.40</ele>
<time>2015-11-22T07:51:31Z</time>
</trkpt>
<trkpt lat="31.0436749" lon="35.7107518">
<ele>1221.90</ele>
<time>2015-11-22T07:51:32Z</time>
</trkpt>
<trkpt lat="31.0436224" lon="35.7107775">
<ele>1221.65</ele>
<time>2015-11-22T07:51:33Z</time>
</trkpt>
<trkpt lat="31.0435330" lon="35.7108028">
<ele>1221.46</ele>
<time>2015-11-22T07:51:35Z</time>
</trkpt>
<trkpt lat="31.0434492" lon="35.7108282">
<ele>1220.66</ele>
<time>2015-11-22T07:51:37Z</time>
</trkpt>
<trkpt lat="31.0434054" lon="35.7108453">
<ele>1220.53</ele>
<time>2015-11-22T07:51:38Z</time>
</trkpt>
<trkpt lat="31.0433328" lon="35.7108650">
<ele>1220.43</ele>
<time>2015-11-22T07:51:40Z</time>
</trkpt>
<trkpt lat="31.0432703" lon="35.7108890">
<ele>1220.41</ele>
<time>2015-11-22T07:51:42Z</time>
</trkpt>
<trkpt lat="31.0432124" lon="35.7108848">
<ele>1220.90</ele>
<time>2015-11-22T07:51:44Z</time>
</trkpt>
<trkpt lat="31.0431556" lon="35.7109134">
<ele>1221.27</ele>
<time>2015-11-22T07:51:46Z</time>
</trkpt>
<trkpt lat="31.0431083" lon="35.7109360">
<ele>1221.87</ele>
<time>2015-11-22T07:51:48Z</time>
</trkpt>
<trkpt lat="31.0430583" lon="35.7109489">
<ele>1222.01</ele>
<time>2015-11-22T07:51:50Z</time>
</trkpt>
<trkpt lat="31.0430042" lon="35.7109694">
<ele>1222.30</ele>
<time>2015-11-22T07:51:52Z</time>
</trkpt>
<trkpt lat="31.0429481" lon="35.7109908">
<ele>1222.37</ele>
<time>2015-11-22T07:51:54Z</time>
</trkpt>
<trkpt lat="31.0428909" lon="35.7110178">
<ele>1223.64</ele>
<time>2015-11-22T07:51:56Z</time>
</trkpt>
<trkpt lat="31.0428298" lon="35.7110434">
<ele>1223.96</ele>
<time>2015-11-22T07:51:58Z</time>
</trkpt>
<trkpt lat="31.0427636" lon="35.7110675">
<ele>1224.29</ele>
<time>2015-11-22T07:52:00Z</time>
</trkpt>
<trkpt lat="31.0426973" lon="35.7110924">
<ele>1223.62</ele>
<time>2015-11-22T07:52:02Z</time>
</trkpt>
<trkpt lat="31.0426335" lon="35.7111165">
<ele>1223.45</ele>
<time>2015-11-22T07:52:04Z</time>
</trkpt>
<trkpt lat="31.0425736" lon="35.7111305">
<ele>1223.41</ele>
<time>2015-11-22T07:52:06Z</time>
</trkpt>
<trkpt lat="31.0425231" lon="35.7111426">
<ele>1222.65</ele>
<time>2015-11-22T07:52:08Z</time>
</trkpt>
<trkpt lat="31.0424665" lon="35.7111560">
<ele>1222.43</ele>
<time>2015-11-22T07:52:11Z</time>
</trkpt>
<trkpt lat="31.0423772" lon="35.7111882">
<ele>1223.03</ele>
<time>2015-11-22T07:52:15Z</time>
</trkpt>
<trkpt lat="31.0423295" lon="35.7112085">
<ele>1223.05</ele>
<time>2015-11-22T07:52:17Z</time>
</trkpt>
<trkpt lat="31.0422861" lon="35.7112321">
<ele>1222.56</ele>
<time>2015-11-22T07:52:19Z</time>
</trkpt>
<trkpt lat="31.0422338" lon="35.7112477">
<ele>1222.44</ele>
<time>2015-11-22T07:52:21Z</time>
</trkpt>
<trkpt lat="31.0421716" lon="35.7112659">
<ele>1223.16</ele>
<time>2015-11-22T07:52:23Z</time>
</trkpt>
<trkpt lat="31.0420900" lon="35.7112955">
<ele>1223.34</ele>
<time>2015-11-22T07:52:25Z</time>
</trkpt>
<trkpt lat="31.0420461" lon="35.7113107">
<ele>1222.87</ele>
<time>2015-11-22T07:52:26Z</time>
</trkpt>
<trkpt lat="31.0419567" lon="35.7113410">
<ele>1222.63</ele>
<time>2015-11-22T07:52:28Z</time>
</trkpt>
<trkpt lat="31.0419107" lon="35.7113578">
<ele>1223.01</ele>
<time>2015-11-22T07:52:29Z</time>
</trkpt>
<trkpt lat="31.0418475" lon="35.7113767">
<ele>1223.21</ele>
<time>2015-11-22T07:52:30Z</time>
</trkpt>
<trkpt lat="31.0418065" lon="35.7113997">
<ele>1222.80</ele>
<time>2015-11-22T07:52:31Z</time>
</trkpt>
<trkpt lat="31.0417544" lon="35.7114167">
<ele>1222.60</ele>
<time>2015-11-22T07:52:32Z</time>
</trkpt>
<trkpt lat="31.0417064" lon="35.7114321">
<ele>1222.50</ele>
<time>2015-11-22T07:52:33Z</time>
</trkpt>
<trkpt lat="31.0416585" lon="35.7114505">
<ele>1222.45</ele>
<time>2015-11-22T07:52:34Z</time>
</trkpt>
<trkpt lat="31.0415628" lon="35.7114687">
<ele>1222.41</ele>
<time>2015-11-22T07:52:36Z</time>
</trkpt>
<trkpt lat="31.0415136" lon="35.7114840">
<ele>1222.40</ele>
<time>2015-11-22T07:52:37Z</time>
</trkpt>
<trkpt lat="31.0414612" lon="35.7115070">
<ele>1222.40</ele>
<time>2015-11-22T07:52:38Z</time>
</trkpt>
<trkpt lat="31.0414024" lon="35.7115255">
<ele>1221.90</ele>
<time>2015-11-22T07:52:39Z</time>
</trkpt>
<trkpt lat="31.0413441" lon="35.7115508">
<ele>1222.15</ele>
<time>2015-11-22T07:52:40Z</time>
</trkpt>
<trkpt lat="31.0412935" lon="35.7115656">
<ele>1221.77</ele>
<time>2015-11-22T07:52:41Z</time>
</trkpt>
<trkpt lat="31.0412431" lon="35.7115792">
<ele>1221.58</ele>
<time>2015-11-22T07:52:42Z</time>
</trkpt>
<trkpt lat="31.0411871" lon="35.7115969">
<ele>1221.49</ele>
<time>2015-11-22T07:52:43Z</time>
</trkpt>
<trkpt lat="31.0411351" lon="35.7116138">
<ele>1221.44</ele>
<time>2015-11-22T07:52:44Z</time>
</trkpt>
<trkpt lat="31.0410805" lon="35.7116346">
<ele>1221.42</ele>
<time>2015-11-22T07:52:45Z</time>
</trkpt>
<trkpt lat="31.0410296" lon="35.7116515">
<ele>1220.91</ele>
<time>2015-11-22T07:52:46Z</time>
</trkpt>
<trkpt lat="31.0409757" lon="35.7116691">
<ele>1221.15</ele>
<time>2015-11-22T07:52:47Z</time>
</trkpt>
<trkpt lat="31.0409192" lon="35.7116808">
<ele>1221.27</ele>
<time>2015-11-22T07:52:48Z</time>
</trkpt>
<trkpt lat="31.0408599" lon="35.7116996">
<ele>1221.34</ele>
<time>2015-11-22T07:52:49Z</time>
</trkpt>
<trkpt lat="31.0408060" lon="35.7117204">
<ele>1221.37</ele>
<time>2015-11-22T07:52:50Z</time>
</trkpt>
<trkpt lat="31.0407511" lon="35.7117405">
<ele>1221.38</ele>
<time>2015-11-22T07:52:51Z</time>
</trkpt>
<trkpt lat="31.0406954" lon="35.7117502">
<ele>1221.39</ele>
<time>2015-11-22T07:52:52Z</time>
</trkpt>
<trkpt lat="31.0406373" lon="35.7117696">
<ele>1221.39</ele>
<time>2015-11-22T07:52:53Z</time>
</trkpt>
<trkpt lat="31.0405844" lon="35.7117888">
<ele>1221.40</ele>
<time>2015-11-22T07:52:54Z</time>
</trkpt>
<trkpt lat="31.0405376" lon="35.7118021">
<ele>1221.40</ele>
<time>2015-11-22T07:52:55Z</time>
</trkpt>
<trkpt lat="31.0404773" lon="35.7118226">
<ele>1221.40</ele>
<time>2015-11-22T07:52:56Z</time>
</trkpt>
<trkpt lat="31.0404140" lon="35.7118379">
<ele>1220.90</ele>
<time>2015-11-22T07:52:57Z</time>
</trkpt>
<trkpt lat="31.0403509" lon="35.7118621">
<ele>1220.65</ele>
<time>2015-11-22T07:52:58Z</time>
</trkpt>
<trkpt lat="31.0402906" lon="35.7118819">
<ele>1220.52</ele>
<time>2015-11-22T07:52:59Z</time>
</trkpt>
<trkpt lat="31.0402272" lon="35.7119066">
<ele>1220.46</ele>
<time>2015-11-22T07:53:00Z</time>
</trkpt>
<trkpt lat="31.0401710" lon="35.7119221">
<ele>1220.43</ele>
<time>2015-11-22T07:53:01Z</time>
</trkpt>
<trkpt lat="31.0401101" lon="35.7119493">
<ele>1220.41</ele>
<time>2015-11-22T07:53:02Z</time>
</trkpt>
<trkpt lat="31.0400478" lon="35.7119730">
<ele>1220.40</ele>
<time>2015-11-22T07:53:03Z</time>
</trkpt>
<trkpt lat="31.0399900" lon="35.7119937">
<ele>1220.40</ele>
<time>2015-11-22T07:53:04Z</time>
</trkpt>
<trkpt lat="31.0399298" lon="35.7120056">
<ele>1220.40</ele>
<time>2015-11-22T07:53:05Z</time>
</trkpt>
<trkpt lat="31.0398772" lon="35.7120195">
<ele>1220.40</ele>
<time>2015-11-22T07:53:06Z</time>
</trkpt>
<trkpt lat="31.0398282" lon="35.7120406">
<ele>1220.40</ele>
<time>2015-11-22T07:53:07Z</time>
</trkpt>
<trkpt lat="31.0397728" lon="35.7120732">
<ele>1220.40</ele>
<time>2015-11-22T07:53:08Z</time>
</trkpt>
<trkpt lat="31.0396763" lon="35.7121004">
<ele>1220.40</ele>
<time>2015-11-22T07:53:10Z</time>
</trkpt>
<trkpt lat="31.0396111" lon="35.7121307">
<ele>1220.40</ele>
<time>2015-11-22T07:53:11Z</time>
</trkpt>
<trkpt lat="31.0395526" lon="35.7121456">
<ele>1220.40</ele>
<time>2015-11-22T07:53:12Z</time>
</trkpt>
<trkpt lat="31.0394995" lon="35.7121552">
<ele>1220.40</ele>
<time>2015-11-22T07:53:13Z</time>
</trkpt>
<trkpt lat="31.0394487" lon="35.7121539">
<ele>1220.40</ele>
<time>2015-11-22T07:53:14Z</time>
</trkpt>
<trkpt lat="31.0393906" lon="35.7121650">
<ele>1219.90</ele>
<time>2015-11-22T07:53:15Z</time>
</trkpt>
<trkpt lat="31.0393202" lon="35.7121812">
<ele>1219.65</ele>
<time>2015-11-22T07:53:16Z</time>
</trkpt>
<trkpt lat="31.0392592" lon="35.7121930">
<ele>1219.52</ele>
<time>2015-11-22T07:53:17Z</time>
</trkpt>
<trkpt lat="31.0392020" lon="35.7121990">
<ele>1219.46</ele>
<time>2015-11-22T07:53:18Z</time>
</trkpt>
<trkpt lat="31.0391256" lon="35.7122100">
<ele>1218.93</ele>
<time>2015-11-22T07:53:19Z</time>
</trkpt>
<trkpt lat="31.0390632" lon="35.7122145">
<ele>1218.66</ele>
<time>2015-11-22T07:53:20Z</time>
</trkpt>
<trkpt lat="31.0389833" lon="35.7122178">
<ele>1218.53</ele>
<time>2015-11-22T07:53:21Z</time>
</trkpt>
<trkpt lat="31.0389134" lon="35.7122225">
<ele>1218.46</ele>
<time>2015-11-22T07:53:22Z</time>
</trkpt>
<trkpt lat="31.0388362" lon="35.7122285">
<ele>1218.43</ele>
<time>2015-11-22T07:53:23Z</time>
</trkpt>
<trkpt lat="31.0387715" lon="35.7122309">
<ele>1218.41</ele>
<time>2015-11-22T07:53:24Z</time>
</trkpt>
<trkpt lat="31.0387008" lon="35.7122375">
<ele>1217.91</ele>
<time>2015-11-22T07:53:25Z</time>
</trkpt>
<trkpt lat="31.0386304" lon="35.7122433">
<ele>1217.65</ele>
<time>2015-11-22T07:53:26Z</time>
</trkpt>
<trkpt lat="31.0385572" lon="35.7122471">
<ele>1218.02</ele>
<time>2015-11-22T07:53:27Z</time>
</trkpt>
<trkpt lat="31.0384797" lon="35.7122610">
<ele>1217.71</ele>
<time>2015-11-22T07:53:28Z</time>
</trkpt>
<trkpt lat="31.0384056" lon="35.7122766">
<ele>1217.55</ele>
<time>2015-11-22T07:53:29Z</time>
</trkpt>
<trkpt lat="31.0383353" lon="35.7122949">
<ele>1217.98</ele>
<time>2015-11-22T07:53:30Z</time>
</trkpt>
<trkpt lat="31.0382671" lon="35.7123106">
<ele>1217.69</ele>
<time>2015-11-22T07:53:31Z</time>
</trkpt>
<trkpt lat="31.0381958" lon="35.7123178">
<ele>1217.54</ele>
<time>2015-11-22T07:53:32Z</time>
</trkpt>
<trkpt lat="31.0381262" lon="35.7123264">
<ele>1217.47</ele>
<time>2015-11-22T07:53:33Z</time>
</trkpt>
<trkpt lat="31.0380525" lon="35.7123334">
<ele>1218.43</ele>
<time>2015-11-22T07:53:34Z</time>
</trkpt>
<trkpt lat="31.0379701" lon="35.7123499">
<ele>1218.92</ele>
<time>2015-11-22T07:53:35Z</time>
</trkpt>
<trkpt lat="31.0378939" lon="35.7123631">
<ele>1219.16</ele>
<time>2015-11-22T07:53:36Z</time>
</trkpt>
<trkpt lat="31.0378220" lon="35.7123708">
<ele>1219.28</ele>
<time>2015-11-22T07:53:37Z</time>
</trkpt>
<trkpt lat="31.0377486" lon="35.7123763">
<ele>1219.34</ele>
<time>2015-11-22T07:53:38Z</time>
</trkpt>
<trkpt lat="31.0376749" lon="35.7123900">
<ele>1219.37</ele>
<time>2015-11-22T07:53:39Z</time>
</trkpt>
<trkpt lat="31.0376081" lon="35.7123933">
<ele>1219.88</ele>
<time>2015-11-22T07:53:40Z</time>
</trkpt>
<trkpt lat="31.0375306" lon="35.7124101">
<ele>1220.64</ele>
<time>2015-11-22T07:53:41Z</time>
</trkpt>
<trkpt lat="31.0374574" lon="35.7124188">
<ele>1221.02</ele>
<time>2015-11-22T07:53:42Z</time>
</trkpt>
<trkpt lat="31.0373871" lon="35.7124280">
<ele>1221.21</ele>
<time>2015-11-22T07:53:43Z</time>
</trkpt>
<trkpt lat="31.0373255" lon="35.7124414">
<ele>1221.30</ele>
<time>2015-11-22T07:53:44Z</time>
</trkpt>
<trkpt lat="31.0372621" lon="35.7124524">
<ele>1220.85</ele>
<time>2015-11-22T07:53:45Z</time>
</trkpt>
<trkpt lat="31.0371993" lon="35.7124540">
<ele>1220.62</ele>
<time>2015-11-22T07:53:46Z</time>
</trkpt>
<trkpt lat="31.0371423" lon="35.7124780">
<ele>1221.01</ele>
<time>2015-11-22T07:53:47Z</time>
</trkpt>
<trkpt lat="31.0370850" lon="35.7124903">
<ele>1221.20</ele>
<time>2015-11-22T07:53:48Z</time>
</trkpt>
<trkpt lat="31.0370250" lon="35.7124950">
<ele>1221.30</ele>
<time>2015-11-22T07:53:49Z</time>
</trkpt>
<trkpt lat="31.0369698" lon="35.7124962">
<ele>1221.35</ele>
<time>2015-11-22T07:53:50Z</time>
</trkpt>
<trkpt lat="31.0369112" lon="35.7125034">
<ele>1220.87</ele>
<time>2015-11-22T07:53:51Z</time>
</trkpt>
<trkpt lat="31.0368454" lon="35.7125069">
<ele>1221.13</ele>
<time>2015-11-22T07:53:52Z</time>
</trkpt>
<trkpt lat="31.0367769" lon="35.7125170">
<ele>1221.27</ele>
<time>2015-11-22T07:53:53Z</time>
</trkpt>
<trkpt lat="31.0367079" lon="35.7125168">
<ele>1221.33</ele>
<time>2015-11-22T07:53:54Z</time>
</trkpt>
<trkpt lat="31.0366355" lon="35.7125296">
<ele>1221.86</ele>
<time>2015-11-22T07:53:55Z</time>
</trkpt>
<trkpt lat="31.0365650" lon="35.7125374">
<ele>1222.13</ele>
<time>2015-11-22T07:53:56Z</time>
</trkpt>
<trkpt lat="31.0364959" lon="35.7125461">
<ele>1222.26</ele>
<time>2015-11-22T07:53:57Z</time>
</trkpt>
<trkpt lat="31.0364269" lon="35.7125602">
<ele>1222.33</ele>
<time>2015-11-22T07:53:58Z</time>
</trkpt>
<trkpt lat="31.0363647" lon="35.7125669">
<ele>1222.36</ele>
<time>2015-11-22T07:53:59Z</time>
</trkpt>
<trkpt lat="31.0363060" lon="35.7125731">
<ele>1222.38</ele>
<time>2015-11-22T07:54:00Z</time>
</trkpt>
<trkpt lat="31.0362423" lon="35.7125684">
<ele>1222.39</ele>
<time>2015-11-22T07:54:01Z</time>
</trkpt>
<trkpt lat="31.0361774" lon="35.7125573">
<ele>1222.39</ele>
<time>2015-11-22T07:54:02Z</time>
</trkpt>
<trkpt lat="31.0361158" lon="35.7125609">
<ele>1222.39</ele>
<time>2015-11-22T07:54:03Z</time>
</trkpt>
<trkpt lat="31.0360540" lon="35.7125688">
<ele>1222.40</ele>
<time>2015-11-22T07:54:04Z</time>
</trkpt>
<trkpt lat="31.0359873" lon="35.7125731">
<ele>1222.40</ele>
<time>2015-11-22T07:54:05Z</time>
</trkpt>
<trkpt lat="31.0359193" lon="35.7125754">
<ele>1221.90</ele>
<time>2015-11-22T07:54:06Z</time>
</trkpt>
<trkpt lat="31.0358564" lon="35.7125822">
<ele>1221.65</ele>
<time>2015-11-22T07:54:07Z</time>
</trkpt>
<trkpt lat="31.0357802" lon="35.7125922">
<ele>1222.02</ele>
<time>2015-11-22T07:54:08Z</time>
</trkpt>
<trkpt lat="31.0357109" lon="35.7126039">
<ele>1221.71</ele>
<time>2015-11-22T07:54:09Z</time>
</trkpt>
<trkpt lat="31.0356434" lon="35.7126155">
<ele>1222.05</ele>
<time>2015-11-22T07:54:10Z</time>
</trkpt>
<trkpt lat="31.0355904" lon="35.7126287">
<ele>1221.73</ele>
<time>2015-11-22T07:54:11Z</time>
</trkpt>
<trkpt lat="31.0355331" lon="35.7126495">
<ele>1221.56</ele>
<time>2015-11-22T07:54:12Z</time>
</trkpt>
<trkpt lat="31.0354406" lon="35.7126524">
<ele>1222.19</ele>
<time>2015-11-22T07:54:14Z</time>
</trkpt>
<trkpt lat="31.0353762" lon="35.7126707">
<ele>1222.29</ele>
<time>2015-11-22T07:54:15Z</time>
</trkpt>
<trkpt lat="31.0353196" lon="35.7126887">
<ele>1222.34</ele>
<time>2015-11-22T07:54:16Z</time>
</trkpt>
<trkpt lat="31.0352452" lon="35.7127055">
<ele>1222.37</ele>
<time>2015-11-22T07:54:17Z</time>
</trkpt>
<trkpt lat="31.0351839" lon="35.7127213">
<ele>1222.38</ele>
<time>2015-11-22T07:54:18Z</time>
</trkpt>
<trkpt lat="31.0351258" lon="35.7127306">
<ele>1222.39</ele>
<time>2015-11-22T07:54:19Z</time>
</trkpt>
<trkpt lat="31.0350674" lon="35.7127431">
<ele>1222.39</ele>
<time>2015-11-22T07:54:20Z</time>
</trkpt>
<trkpt lat="31.0350066" lon="35.7127509">
<ele>1221.90</ele>
<time>2015-11-22T07:54:21Z</time>
</trkpt>
<trkpt lat="31.0349513" lon="35.7127640">
<ele>1221.65</ele>
<time>2015-11-22T07:54:22Z</time>
</trkpt>
<trkpt lat="31.0348917" lon="35.7127749">
<ele>1221.52</ele>
<time>2015-11-22T07:54:23Z</time>
</trkpt>
<trkpt lat="31.0348280" lon="35.7127888">
<ele>1221.46</ele>
<time>2015-11-22T07:54:24Z</time>
</trkpt>
<trkpt lat="31.0347689" lon="35.7128127">
<ele>1221.43</ele>
<time>2015-11-22T07:54:25Z</time>
</trkpt>
<trkpt lat="31.0347135" lon="35.7128311">
<ele>1221.41</ele>
<time>2015-11-22T07:54:26Z</time>
</trkpt>
<trkpt lat="31.0346541" lon="35.7128592">
<ele>1220.90</ele>
<time>2015-11-22T07:54:27Z</time>
</trkpt>
<trkpt lat="31.0345911" lon="35.7128869">
<ele>1220.65</ele>
<time>2015-11-22T07:54:28Z</time>
</trkpt>
<trkpt lat="31.0345293" lon="35.7129044">
<ele>1221.02</ele>
<time>2015-11-22T07:54:29Z</time>
</trkpt>
<trkpt lat="31.0344641" lon="35.7129350">
<ele>1221.21</ele>
<time>2015-11-22T07:54:30Z</time>
</trkpt>
<trkpt lat="31.0343999" lon="35.7129594">
<ele>1220.80</ele>
<time>2015-11-22T07:54:31Z</time>
</trkpt>
<trkpt lat="31.0343375" lon="35.7129927">
<ele>1220.10</ele>
<time>2015-11-22T07:54:32Z</time>
</trkpt>
<trkpt lat="31.0342052" lon="35.7130586">
<ele>1218.75</ele>
<time>2015-11-22T07:54:34Z</time>
</trkpt>
<trkpt lat="31.0340721" lon="35.7131246">
<ele>1218.07</ele>
<time>2015-11-22T07:54:36Z</time>
</trkpt>
<trkpt lat="31.0340021" lon="35.7131587">
<ele>1217.23</ele>
<time>2015-11-22T07:54:37Z</time>
</trkpt>
<trkpt lat="31.0339333" lon="35.7131923">
<ele>1216.82</ele>
<time>2015-11-22T07:54:38Z</time>
</trkpt>
<trkpt lat="31.0338672" lon="35.7132320">
<ele>1216.61</ele>
<time>2015-11-22T07:54:39Z</time>
</trkpt>
<trkpt lat="31.0338040" lon="35.7132634">
<ele>1216.00</ele>
<time>2015-11-22T07:54:40Z</time>
</trkpt>
<trkpt lat="31.0337423" lon="35.7132985">
<ele>1215.70</ele>
<time>2015-11-22T07:54:41Z</time>
</trkpt>
<trkpt lat="31.0336143" lon="35.7133710">
<ele>1215.55</ele>
<time>2015-11-22T07:54:43Z</time>
</trkpt>
<trkpt lat="31.0334837" lon="35.7134310">
<ele>1215.47</ele>
<time>2015-11-22T07:54:45Z</time>
</trkpt>
<trkpt lat="31.0334182" lon="35.7134651">
<ele>1214.93</ele>
<time>2015-11-22T07:54:46Z</time>
</trkpt>
<trkpt lat="31.0333564" lon="35.7134958">
<ele>1214.67</ele>
<time>2015-11-22T07:54:47Z</time>
</trkpt>
<trkpt lat="31.0332905" lon="35.7135265">
<ele>1214.03</ele>
<time>2015-11-22T07:54:48Z</time>
</trkpt>
<trkpt lat="31.0332283" lon="35.7135556">
<ele>1213.71</ele>
<time>2015-11-22T07:54:49Z</time>
</trkpt>
<trkpt lat="31.0331627" lon="35.7135876">
<ele>1213.06</ele>
<time>2015-11-22T07:54:50Z</time>
</trkpt>
<trkpt lat="31.0330986" lon="35.7136169">
<ele>1212.73</ele>
<time>2015-11-22T07:54:51Z</time>
</trkpt>
<trkpt lat="31.0329709" lon="35.7136802">
<ele>1212.56</ele>
<time>2015-11-22T07:54:53Z</time>
</trkpt>
<trkpt lat="31.0329073" lon="35.7137105">
<ele>1212.48</ele>
<time>2015-11-22T07:54:54Z</time>
</trkpt>
<trkpt lat="31.0328460" lon="35.7137442">
<ele>1212.44</ele>
<time>2015-11-22T07:54:55Z</time>
</trkpt>
<trkpt lat="31.0327196" lon="35.7138098">
<ele>1211.92</ele>
<time>2015-11-22T07:54:57Z</time>
</trkpt>
<trkpt lat="31.0326598" lon="35.7138390">
<ele>1211.66</ele>
<time>2015-11-22T07:54:58Z</time>
</trkpt>
<trkpt lat="31.0326055" lon="35.7138695">
<ele>1212.03</ele>
<time>2015-11-22T07:54:59Z</time>
</trkpt>
<trkpt lat="31.0325504" lon="35.7138932">
<ele>1212.21</ele>
<time>2015-11-22T07:55:00Z</time>
</trkpt>
<trkpt lat="31.0324941" lon="35.7139204">
<ele>1212.80</ele>
<time>2015-11-22T07:55:01Z</time>
</trkpt>
<trkpt lat="31.0324343" lon="35.7139474">
<ele>1213.10</ele>
<time>2015-11-22T07:55:02Z</time>
</trkpt>
<trkpt lat="31.0323779" lon="35.7139763">
<ele>1212.75</ele>
<time>2015-11-22T07:55:03Z</time>
</trkpt>
<trkpt lat="31.0323182" lon="35.7139961">
<ele>1212.57</ele>
<time>2015-11-22T07:55:04Z</time>
</trkpt>
<trkpt lat="31.0322666" lon="35.7140217">
<ele>1212.48</ele>
<time>2015-11-22T07:55:05Z</time>
</trkpt>
<trkpt lat="31.0322155" lon="35.7140520">
<ele>1212.94</ele>
<time>2015-11-22T07:55:06Z</time>
</trkpt>
<trkpt lat="31.0321672" lon="35.7140717">
<ele>1212.67</ele>
<time>2015-11-22T07:55:07Z</time>
</trkpt>
<trkpt lat="31.0321165" lon="35.7141003">
<ele>1213.03</ele>
<time>2015-11-22T07:55:08Z</time>
</trkpt>
<trkpt lat="31.0320689" lon="35.7141239">
<ele>1213.71</ele>
<time>2015-11-22T07:55:09Z</time>
</trkpt>
<trkpt lat="31.0320166" lon="35.7141515">
<ele>1214.06</ele>
<time>2015-11-22T07:55:10Z</time>
</trkpt>
<trkpt lat="31.0319770" lon="35.7141782">
<ele>1213.73</ele>
<time>2015-11-22T07:55:11Z</time>
</trkpt>
<trkpt lat="31.0319323" lon="35.7142032">
<ele>1214.06</ele>
<time>2015-11-22T07:55:12Z</time>
</trkpt>
<trkpt lat="31.0318873" lon="35.7142304">
<ele>1214.23</ele>
<time>2015-11-22T07:55:13Z</time>
</trkpt>
<trkpt lat="31.0318423" lon="35.7142563">
<ele>1214.81</ele>
<time>2015-11-22T07:55:14Z</time>
</trkpt>
<trkpt lat="31.0317947" lon="35.7142744">
<ele>1214.61</ele>
<time>2015-11-22T07:55:15Z</time>
</trkpt>
<trkpt lat="31.0317486" lon="35.7142999">
<ele>1214.50</ele>
<time>2015-11-22T07:55:16Z</time>
</trkpt>
<trkpt lat="31.0316669" lon="35.7143477">
<ele>1214.42</ele>
<time>2015-11-22T07:55:18Z</time>
</trkpt>
<trkpt lat="31.0316228" lon="35.7143799">
<ele>1213.91</ele>
<time>2015-11-22T07:55:19Z</time>
</trkpt>
<trkpt lat="31.0315751" lon="35.7144035">
<ele>1213.65</ele>
<time>2015-11-22T07:55:20Z</time>
</trkpt>
<trkpt lat="31.0315265" lon="35.7144312">
<ele>1214.03</ele>
<time>2015-11-22T07:55:21Z</time>
</trkpt>
<trkpt lat="31.0314785" lon="35.7144491">
<ele>1214.21</ele>
<time>2015-11-22T07:55:22Z</time>
</trkpt>
<trkpt lat="31.0314290" lon="35.7144770">
<ele>1214.30</ele>
<time>2015-11-22T07:55:23Z</time>
</trkpt>
<trkpt lat="31.0313776" lon="35.7145028">
<ele>1214.85</ele>
<time>2015-11-22T07:55:24Z</time>
</trkpt>
<trkpt lat="31.0313313" lon="35.7145275">
<ele>1215.12</ele>
<time>2015-11-22T07:55:25Z</time>
</trkpt>
<trkpt lat="31.0312818" lon="35.7145462">
<ele>1215.26</ele>
<time>2015-11-22T07:55:26Z</time>
</trkpt>
<trkpt lat="31.0312310" lon="35.7145639">
<ele>1214.83</ele>
<time>2015-11-22T07:55:27Z</time>
</trkpt>
<trkpt lat="31.0311835" lon="35.7145946">
<ele>1215.11</ele>
<time>2015-11-22T07:55:28Z</time>
</trkpt>
<trkpt lat="31.0311289" lon="35.7146193">
<ele>1215.75</ele>
<time>2015-11-22T07:55:29Z</time>
</trkpt>
<trkpt lat="31.0310226" lon="35.7146646">
<ele>1215.58</ele>
<time>2015-11-22T07:55:31Z</time>
</trkpt>
<trkpt lat="31.0309724" lon="35.7146871">
<ele>1215.49</ele>
<time>2015-11-22T07:55:32Z</time>
</trkpt>
<trkpt lat="31.0309221" lon="35.7147133">
<ele>1215.44</ele>
<time>2015-11-22T07:55:33Z</time>
</trkpt>
<trkpt lat="31.0308668" lon="35.7147449">
<ele>1215.42</ele>
<time>2015-11-22T07:55:34Z</time>
</trkpt>
<trkpt lat="31.0308143" lon="35.7147762">
<ele>1215.41</ele>
<time>2015-11-22T07:55:35Z</time>
</trkpt>
<trkpt lat="31.0307558" lon="35.7147980">
<ele>1215.40</ele>
<time>2015-11-22T07:55:36Z</time>
</trkpt>
<trkpt lat="31.0307002" lon="35.7148260">
<ele>1215.90</ele>
<time>2015-11-22T07:55:37Z</time>
</trkpt>
<trkpt lat="31.0306457" lon="35.7148465">
<ele>1216.65</ele>
<time>2015-11-22T07:55:38Z</time>
</trkpt>
<trkpt lat="31.0305955" lon="35.7148591">
<ele>1216.52</ele>
<time>2015-11-22T07:55:39Z</time>
</trkpt>
<trkpt lat="31.0305387" lon="35.7148926">
<ele>1215.96</ele>
<time>2015-11-22T07:55:40Z</time>
</trkpt>
<trkpt lat="31.0304935" lon="35.7149278">
<ele>1216.18</ele>
<time>2015-11-22T07:55:41Z</time>
</trkpt>
<trkpt lat="31.0304081" lon="35.7149638">
<ele>1216.84</ele>
<time>2015-11-22T07:55:43Z</time>
</trkpt>
<trkpt lat="31.0303641" lon="35.7149913">
<ele>1216.62</ele>
<time>2015-11-22T07:55:44Z</time>
</trkpt>
<trkpt lat="31.0303144" lon="35.7150145">
<ele>1216.51</ele>
<time>2015-11-22T07:55:45Z</time>
</trkpt>
<trkpt lat="31.0302639" lon="35.7150391">
<ele>1216.95</ele>
<time>2015-11-22T07:55:46Z</time>
</trkpt>
<trkpt lat="31.0302175" lon="35.7150703">
<ele>1217.17</ele>
<time>2015-11-22T07:55:47Z</time>
</trkpt>
<trkpt lat="31.0301658" lon="35.7150925">
<ele>1217.79</ele>
<time>2015-11-22T07:55:48Z</time>
</trkpt>
<trkpt lat="31.0301130" lon="35.7151172">
<ele>1218.09</ele>
<time>2015-11-22T07:55:49Z</time>
</trkpt>
<trkpt lat="31.0300694" lon="35.7151333">
<ele>1217.74</ele>
<time>2015-11-22T07:55:50Z</time>
</trkpt>
<trkpt lat="31.0300280" lon="35.7151565">
<ele>1217.57</ele>
<time>2015-11-22T07:55:51Z</time>
</trkpt>
<trkpt lat="31.0299827" lon="35.7151790">
<ele>1217.48</ele>
<time>2015-11-22T07:55:52Z</time>
</trkpt>
<trkpt lat="31.0299368" lon="35.7152018">
<ele>1217.44</ele>
<time>2015-11-22T07:55:53Z</time>
</trkpt>
<trkpt lat="31.0298948" lon="35.7152285">
<ele>1217.42</ele>
<time>2015-11-22T07:55:54Z</time>
</trkpt>
<trkpt lat="31.0298051" lon="35.7152690">
<ele>1217.90</ele>
<time>2015-11-22T07:55:56Z</time>
</trkpt>
<trkpt lat="31.0297617" lon="35.7152902">
<ele>1218.15</ele>
<time>2015-11-22T07:55:57Z</time>
</trkpt>
<trkpt lat="31.0297168" lon="35.7153119">
<ele>1218.27</ele>
<time>2015-11-22T07:55:58Z</time>
</trkpt>
<trkpt lat="31.0296676" lon="35.7153377">
<ele>1218.34</ele>
<time>2015-11-22T07:55:59Z</time>
</trkpt>
<trkpt lat="31.0296210" lon="35.7153550">
<ele>1218.37</ele>
<time>2015-11-22T07:56:00Z</time>
</trkpt>
<trkpt lat="31.0295680" lon="35.7153825">
<ele>1218.38</ele>
<time>2015-11-22T07:56:01Z</time>
</trkpt>
<trkpt lat="31.0295153" lon="35.7154026">
<ele>1218.89</ele>
<time>2015-11-22T07:56:02Z</time>
</trkpt>
<trkpt lat="31.0294717" lon="35.7154317">
<ele>1219.14</ele>
<time>2015-11-22T07:56:03Z</time>
</trkpt>
<trkpt lat="31.0294242" lon="35.7154537">
<ele>1219.27</ele>
<time>2015-11-22T07:56:04Z</time>
</trkpt>
<trkpt lat="31.0293809" lon="35.7154785">
<ele>1219.83</ele>
<time>2015-11-22T07:56:05Z</time>
</trkpt>
<trkpt lat="31.0293376" lon="35.7154971">
<ele>1220.12</ele>
<time>2015-11-22T07:56:06Z</time>
</trkpt>
<trkpt lat="31.0292730" lon="35.7155265">
<ele>1219.58</ele>
<time>2015-11-22T07:56:08Z</time>
</trkpt>
<trkpt lat="31.0292300" lon="35.7155449">
<ele>1219.49</ele>
<time>2015-11-22T07:56:09Z</time>
</trkpt>
<trkpt lat="31.0291507" lon="35.7155926">
<ele>1219.92</ele>
<time>2015-11-22T07:56:11Z</time>
</trkpt>
<trkpt lat="31.0291047" lon="35.7156180">
<ele>1219.66</ele>
<time>2015-11-22T07:56:12Z</time>
</trkpt>
<trkpt lat="31.0290602" lon="35.7156367">
<ele>1219.03</ele>
<time>2015-11-22T07:56:13Z</time>
</trkpt>
<trkpt lat="31.0289719" lon="35.7156783">
<ele>1219.30</ele>
<time>2015-11-22T07:56:15Z</time>
</trkpt>
<trkpt lat="31.0289284" lon="35.7157024">
<ele>1218.85</ele>
<time>2015-11-22T07:56:16Z</time>
</trkpt>
<trkpt lat="31.0288798" lon="35.7157290">
<ele>1219.12</ele>
<time>2015-11-22T07:56:17Z</time>
</trkpt>
<trkpt lat="31.0288367" lon="35.7157497">
<ele>1219.26</ele>
<time>2015-11-22T07:56:18Z</time>
</trkpt>
<trkpt lat="31.0287560" lon="35.7157917">
<ele>1219.36</ele>
<time>2015-11-22T07:56:20Z</time>
</trkpt>
<trkpt lat="31.0287104" lon="35.7158082">
<ele>1219.38</ele>
<time>2015-11-22T07:56:21Z</time>
</trkpt>
<trkpt lat="31.0286420" lon="35.7158384">
<ele>1218.64</ele>
<time>2015-11-22T07:56:23Z</time>
</trkpt>
<trkpt lat="31.0285906" lon="35.7158703">
<ele>1219.02</ele>
<time>2015-11-22T07:56:24Z</time>
</trkpt>
<trkpt lat="31.0285220" lon="35.7159170">
<ele>1219.05</ele>
<time>2015-11-22T07:56:26Z</time>
</trkpt>
<trkpt lat="31.0284424" lon="35.7159568">
<ele>1220.06</ele>
<time>2015-11-22T07:56:28Z</time>
</trkpt>
<trkpt lat="31.0284009" lon="35.7159842">
<ele>1220.73</ele>
<time>2015-11-22T07:56:29Z</time>
</trkpt>
<trkpt lat="31.0283456" lon="35.7160097">
<ele>1221.23</ele>
<time>2015-11-22T07:56:31Z</time>
</trkpt>
<trkpt lat="31.0282751" lon="35.7160444">
<ele>1220.61</ele>
<time>2015-11-22T07:56:33Z</time>
</trkpt>
<trkpt lat="31.0282345" lon="35.7160751">
<ele>1220.50</ele>
<time>2015-11-22T07:56:34Z</time>
</trkpt>
<trkpt lat="31.0281611" lon="35.7161059">
<ele>1221.92</ele>
<time>2015-11-22T07:56:36Z</time>
</trkpt>
<trkpt lat="31.0280927" lon="35.7161443">
<ele>1222.03</ele>
<time>2015-11-22T07:56:38Z</time>
</trkpt>
<trkpt lat="31.0280271" lon="35.7161882">
<ele>1222.30</ele>
<time>2015-11-22T07:56:40Z</time>
</trkpt>
<trkpt lat="31.0279614" lon="35.7162260">
<ele>1222.62</ele>
<time>2015-11-22T07:56:42Z</time>
</trkpt>
<trkpt lat="31.0278939" lon="35.7162616">
<ele>1222.45</ele>
<time>2015-11-22T07:56:44Z</time>
</trkpt>
<trkpt lat="31.0278243" lon="35.7162943">
<ele>1221.91</ele>
<time>2015-11-22T07:56:46Z</time>
</trkpt>
<trkpt lat="31.0277540" lon="35.7163335">
<ele>1221.03</ele>
<time>2015-11-22T07:56:48Z</time>
</trkpt>
<trkpt lat="31.0276404" lon="35.7163975">
<ele>1221.05</ele>
<time>2015-11-22T07:56:51Z</time>
</trkpt>
<trkpt lat="31.0275582" lon="35.7164325">
<ele>1220.56</ele>
<time>2015-11-22T07:56:53Z</time>
</trkpt>
<trkpt lat="31.0274973" lon="35.7164567">
<ele>1220.48</ele>
<time>2015-11-22T07:56:54Z</time>
</trkpt>
<trkpt lat="31.0274266" lon="35.7164967">
<ele>1220.42</ele>
<time>2015-11-22T07:56:56Z</time>
</trkpt>
<trkpt lat="31.0273732" lon="35.7165294">
<ele>1219.90</ele>
<time>2015-11-22T07:56:58Z</time>
</trkpt>
<trkpt lat="31.0273097" lon="35.7165628">
<ele>1219.46</ele>
<time>2015-11-22T07:57:01Z</time>
</trkpt>
<trkpt lat="31.0272628" lon="35.7165790">
<ele>1216.41</ele>
<time>2015-11-22T07:57:03Z</time>
</trkpt>
<trkpt lat="31.0272090" lon="35.7166001">
<ele>1215.65</ele>
<time>2015-11-22T07:57:05Z</time>
</trkpt>
<trkpt lat="31.0271584" lon="35.7166210">
<ele>1215.46</ele>
<time>2015-11-22T07:57:07Z</time>
</trkpt>
<trkpt lat="31.0271123" lon="35.7166427">
<ele>1214.91</ele>
<time>2015-11-22T07:57:09Z</time>
</trkpt>
<trkpt lat="31.0270686" lon="35.7166621">
<ele>1214.78</ele>
<time>2015-11-22T07:57:11Z</time>
</trkpt>
<trkpt lat="31.0270080" lon="35.7166958">
<ele>1214.44</ele>
<time>2015-11-22T07:57:14Z</time>
</trkpt>
<trkpt lat="31.0269613" lon="35.7167196">
<ele>1214.41</ele>
<time>2015-11-22T07:57:16Z</time>
</trkpt>
<trkpt lat="31.0269074" lon="35.7167486">
<ele>1213.90</ele>
<time>2015-11-22T07:57:18Z</time>
</trkpt>
<trkpt lat="31.0268157" lon="35.7168054">
<ele>1213.52</ele>
<time>2015-11-22T07:57:21Z</time>
</trkpt>
<trkpt lat="31.0267371" lon="35.7168467">
<ele>1213.43</ele>
<time>2015-11-22T07:57:23Z</time>
</trkpt>
<trkpt lat="31.0266948" lon="35.7168650">
<ele>1213.41</ele>
<time>2015-11-22T07:57:24Z</time>
</trkpt>
<trkpt lat="31.0266103" lon="35.7169001">
<ele>1213.40</ele>
<time>2015-11-22T07:57:26Z</time>
</trkpt>
<trkpt lat="31.0265683" lon="35.7169206">
<ele>1213.40</ele>
<time>2015-11-22T07:57:27Z</time>
</trkpt>
<trkpt lat="31.0265080" lon="35.7169523">
<ele>1213.40</ele>
<time>2015-11-22T07:57:28Z</time>
</trkpt>
<trkpt lat="31.0264634" lon="35.7169732">
<ele>1213.40</ele>
<time>2015-11-22T07:57:29Z</time>
</trkpt>
<trkpt lat="31.0264181" lon="35.7169906">
<ele>1213.40</ele>
<time>2015-11-22T07:57:30Z</time>
</trkpt>
<trkpt lat="31.0263683" lon="35.7170099">
<ele>1213.40</ele>
<time>2015-11-22T07:57:31Z</time>
</trkpt>
<trkpt lat="31.0263166" lon="35.7170365">
<ele>1213.40</ele>
<time>2015-11-22T07:57:32Z</time>
</trkpt>
<trkpt lat="31.0262599" lon="35.7170627">
<ele>1213.40</ele>
<time>2015-11-22T07:57:33Z</time>
</trkpt>
<trkpt lat="31.0262099" lon="35.7170895">
<ele>1213.40</ele>
<time>2015-11-22T07:57:34Z</time>
</trkpt>
<trkpt lat="31.0261549" lon="35.7171188">
<ele>1213.40</ele>
<time>2015-11-22T07:57:35Z</time>
</trkpt>
<trkpt lat="31.0261009" lon="35.7171371">
<ele>1213.40</ele>
<time>2015-11-22T07:57:36Z</time>
</trkpt>
<trkpt lat="31.0260343" lon="35.7171714">
<ele>1213.90</ele>
<time>2015-11-22T07:57:37Z</time>
</trkpt>
<trkpt lat="31.0259705" lon="35.7171978">
<ele>1213.65</ele>
<time>2015-11-22T07:57:38Z</time>
</trkpt>
<trkpt lat="31.0259053" lon="35.7172240">
<ele>1213.52</ele>
<time>2015-11-22T07:57:39Z</time>
</trkpt>
<trkpt lat="31.0258481" lon="35.7172567">
<ele>1213.46</ele>
<time>2015-11-22T07:57:40Z</time>
</trkpt>
<trkpt lat="31.0257861" lon="35.7172856">
<ele>1213.43</ele>
<time>2015-11-22T07:57:41Z</time>
</trkpt>
<trkpt lat="31.0257333" lon="35.7173023">
<ele>1213.41</ele>
<time>2015-11-22T07:57:42Z</time>
</trkpt>
<trkpt lat="31.0256832" lon="35.7173251">
<ele>1213.40</ele>
<time>2015-11-22T07:57:43Z</time>
</trkpt>
<trkpt lat="31.0256188" lon="35.7173492">
<ele>1212.65</ele>
<time>2015-11-22T07:57:45Z</time>
</trkpt>
<trkpt lat="31.0255733" lon="35.7173758">
<ele>1212.40</ele>
<time>2015-11-22T07:59:20Z</time>
</trkpt>
<trkpt lat="31.0255183" lon="35.7173986">
<ele>1212.40</ele>
<time>2015-11-22T07:59:23Z</time>
</trkpt>
<trkpt lat="31.0254688" lon="35.7174233">
<ele>1213.15</ele>
<time>2015-11-22T07:59:25Z</time>
</trkpt>
<trkpt lat="31.0254166" lon="35.7174493">
<ele>1213.27</ele>
<time>2015-11-22T07:59:27Z</time>
</trkpt>
<trkpt lat="31.0253591" lon="35.7174751">
<ele>1213.37</ele>
<time>2015-11-22T07:59:29Z</time>
</trkpt>
<trkpt lat="31.0252916" lon="35.7175027">
<ele>1212.64</ele>
<time>2015-11-22T07:59:31Z</time>
</trkpt>
<trkpt lat="31.0251840" lon="35.7175473">
<ele>1212.46</ele>
<time>2015-11-22T07:59:33Z</time>
</trkpt>
<trkpt lat="31.0251331" lon="35.7175668">
<ele>1211.93</ele>
<time>2015-11-22T07:59:34Z</time>
</trkpt>
<trkpt lat="31.0250758" lon="35.7175844">
<ele>1211.66</ele>
<time>2015-11-22T07:59:35Z</time>
</trkpt>
<trkpt lat="31.0250227" lon="35.7175992">
<ele>1211.53</ele>
<time>2015-11-22T07:59:36Z</time>
</trkpt>
<trkpt lat="31.0249630" lon="35.7176247">
<ele>1211.46</ele>
<time>2015-11-22T07:59:37Z</time>
</trkpt>
<trkpt lat="31.0249014" lon="35.7176490">
<ele>1211.43</ele>
<time>2015-11-22T07:59:38Z</time>
</trkpt>
<trkpt lat="31.0248484" lon="35.7176772">
<ele>1211.91</ele>
<time>2015-11-22T07:59:39Z</time>
</trkpt>
<trkpt lat="31.0247795" lon="35.7177014">
<ele>1212.16</ele>
<time>2015-11-22T07:59:40Z</time>
</trkpt>
<trkpt lat="31.0247183" lon="35.7177228">
<ele>1211.78</ele>
<time>2015-11-22T07:59:41Z</time>
</trkpt>
<trkpt lat="31.0246533" lon="35.7177552">
<ele>1212.09</ele>
<time>2015-11-22T07:59:42Z</time>
</trkpt>
<trkpt lat="31.0245869" lon="35.7177828">
<ele>1211.74</ele>
<time>2015-11-22T07:59:43Z</time>
</trkpt>
<trkpt lat="31.0245316" lon="35.7178023">
<ele>1211.57</ele>
<time>2015-11-22T07:59:44Z</time>
</trkpt>
<trkpt lat="31.0244770" lon="35.7178342">
<ele>1211.48</ele>
<time>2015-11-22T07:59:45Z</time>
</trkpt>
<trkpt lat="31.0244226" lon="35.7178591">
<ele>1211.44</ele>
<time>2015-11-22T07:59:46Z</time>
</trkpt>
<trkpt lat="31.0243691" lon="35.7178898">
<ele>1211.42</ele>
<time>2015-11-22T07:59:47Z</time>
</trkpt>
<trkpt lat="31.0243075" lon="35.7179070">
<ele>1211.41</ele>
<time>2015-11-22T07:59:48Z</time>
</trkpt>
<trkpt lat="31.0242500" lon="35.7179274">
<ele>1210.90</ele>
<time>2015-11-22T07:59:49Z</time>
</trkpt>
<trkpt lat="31.0241959" lon="35.7179571">
<ele>1210.65</ele>
<time>2015-11-22T07:59:50Z</time>
</trkpt>
<trkpt lat="31.0241454" lon="35.7179800">
<ele>1210.52</ele>
<time>2015-11-22T07:59:51Z</time>
</trkpt>
<trkpt lat="31.0240899" lon="35.7180109">
<ele>1210.96</ele>
<time>2015-11-22T07:59:52Z</time>
</trkpt>
<trkpt lat="31.0240267" lon="35.7180297">
<ele>1211.18</ele>
<time>2015-11-22T07:59:53Z</time>
</trkpt>
<trkpt lat="31.0239133" lon="35.7180819">
<ele>1211.29</ele>
<time>2015-11-22T07:59:55Z</time>
</trkpt>
<trkpt lat="31.0238565" lon="35.7181065">
<ele>1210.84</ele>
<time>2015-11-22T07:59:56Z</time>
</trkpt>
<trkpt lat="31.0237969" lon="35.7181364">
<ele>1210.62</ele>
<time>2015-11-22T07:59:57Z</time>
</trkpt>
<trkpt lat="31.0237338" lon="35.7181624">
<ele>1210.51</ele>
<time>2015-11-22T07:59:58Z</time>
</trkpt>
<trkpt lat="31.0236734" lon="35.7181865">
<ele>1209.95</ele>
<time>2015-11-22T07:59:59Z</time>
</trkpt>
<trkpt lat="31.0236136" lon="35.7182150">
<ele>1209.67</ele>
<time>2015-11-22T08:00:00Z</time>
</trkpt>
<trkpt lat="31.0235548" lon="35.7182475">
<ele>1209.54</ele>
<time>2015-11-22T08:00:01Z</time>
</trkpt>
<trkpt lat="31.0234870" lon="35.7182729">
<ele>1209.47</ele>
<time>2015-11-22T08:00:02Z</time>
</trkpt>
<trkpt lat="31.0234275" lon="35.7183100">
<ele>1209.43</ele>
<time>2015-11-22T08:00:03Z</time>
</trkpt>
<trkpt lat="31.0233632" lon="35.7183408">
<ele>1209.41</ele>
<time>2015-11-22T08:00:04Z</time>
</trkpt>
<trkpt lat="31.0232271" lon="35.7183989">
<ele>1209.41</ele>
<time>2015-11-22T08:00:06Z</time>
</trkpt>
<trkpt lat="31.0231671" lon="35.7184336">
<ele>1208.90</ele>
<time>2015-11-22T08:00:07Z</time>
</trkpt>
<trkpt lat="31.0231077" lon="35.7184535">
<ele>1208.65</ele>
<time>2015-11-22T08:00:08Z</time>
</trkpt>
<trkpt lat="31.0230403" lon="35.7184754">
<ele>1208.52</ele>
<time>2015-11-22T08:00:09Z</time>
</trkpt>
<trkpt lat="31.0229792" lon="35.7184949">
<ele>1208.46</ele>
<time>2015-11-22T08:00:10Z</time>
</trkpt>
<trkpt lat="31.0229227" lon="35.7185165">
<ele>1208.43</ele>
<time>2015-11-22T08:00:11Z</time>
</trkpt>
<trkpt lat="31.0228583" lon="35.7185333">
<ele>1208.41</ele>
<time>2015-11-22T08:00:12Z</time>
</trkpt>
<trkpt lat="31.0227939" lon="35.7185483">
<ele>1208.40</ele>
<time>2015-11-22T08:00:13Z</time>
</trkpt>
<trkpt lat="31.0227266" lon="35.7185614">
<ele>1208.40</ele>
<time>2015-11-22T08:00:14Z</time>
</trkpt>
<trkpt lat="31.0226637" lon="35.7185665">
<ele>1208.40</ele>
<time>2015-11-22T08:00:15Z</time>
</trkpt>
<trkpt lat="31.0225943" lon="35.7185770">
<ele>1208.40</ele>
<time>2015-11-22T08:00:16Z</time>
</trkpt>
<trkpt lat="31.0225268" lon="35.7185805">
<ele>1208.40</ele>
<time>2015-11-22T08:00:17Z</time>
</trkpt>
<trkpt lat="31.0224610" lon="35.7185917">
<ele>1207.90</ele>
<time>2015-11-22T08:00:18Z</time>
</trkpt>
<trkpt lat="31.0224016" lon="35.7185956">
<ele>1208.15</ele>
<time>2015-11-22T08:00:19Z</time>
</trkpt>
<trkpt lat="31.0223394" lon="35.7185996">
<ele>1208.27</ele>
<time>2015-11-22T08:00:20Z</time>
</trkpt>
<trkpt lat="31.0222670" lon="35.7185938">
<ele>1207.83</ele>
<time>2015-11-22T08:00:21Z</time>
</trkpt>
<trkpt lat="31.0222032" lon="35.7185866">
<ele>1207.62</ele>
<time>2015-11-22T08:00:22Z</time>
</trkpt>
<trkpt lat="31.0221304" lon="35.7185809">
<ele>1207.51</ele>
<time>2015-11-22T08:00:23Z</time>
</trkpt>
<trkpt lat="31.0220586" lon="35.7185784">
<ele>1207.45</ele>
<time>2015-11-22T08:00:24Z</time>
</trkpt>
<trkpt lat="31.0219905" lon="35.7185767">
<ele>1206.92</ele>
<time>2015-11-22T08:00:25Z</time>
</trkpt>
<trkpt lat="31.0219224" lon="35.7185851">
<ele>1206.66</ele>
<time>2015-11-22T08:00:26Z</time>
</trkpt>
<trkpt lat="31.0218470" lon="35.7185848">
<ele>1206.53</ele>
<time>2015-11-22T08:00:27Z</time>
</trkpt>
<trkpt lat="31.0217778" lon="35.7185898">
<ele>1206.46</ele>
<time>2015-11-22T08:00:28Z</time>
</trkpt>
<trkpt lat="31.0217141" lon="35.7185934">
<ele>1206.93</ele>
<time>2015-11-22T08:00:29Z</time>
</trkpt>
<trkpt lat="31.0216447" lon="35.7185924">
<ele>1207.16</ele>
<time>2015-11-22T08:00:30Z</time>
</trkpt>
<trkpt lat="31.0215718" lon="35.7185963">
<ele>1207.28</ele>
<time>2015-11-22T08:00:31Z</time>
</trkpt>
<trkpt lat="31.0215027" lon="35.7186075">
<ele>1207.34</ele>
<time>2015-11-22T08:00:32Z</time>
</trkpt>
<trkpt lat="31.0214212" lon="35.7186011">
<ele>1207.37</ele>
<time>2015-11-22T08:00:33Z</time>
</trkpt>
<trkpt lat="31.0213491" lon="35.7186026">
<ele>1207.38</ele>
<time>2015-11-22T08:00:34Z</time>
</trkpt>
<trkpt lat="31.0212727" lon="35.7186117">
<ele>1206.89</ele>
<time>2015-11-22T08:00:35Z</time>
</trkpt>
<trkpt lat="31.0211900" lon="35.7186128">
<ele>1206.64</ele>
<time>2015-11-22T08:00:36Z</time>
</trkpt>
<trkpt lat="31.0211167" lon="35.7186139">
<ele>1207.02</ele>
<time>2015-11-22T08:00:37Z</time>
</trkpt>
<trkpt lat="31.0210447" lon="35.7186235">
<ele>1206.71</ele>
<time>2015-11-22T08:00:38Z</time>
</trkpt>
<trkpt lat="31.0209613" lon="35.7186330">
<ele>1206.55</ele>
<time>2015-11-22T08:00:39Z</time>
</trkpt>
<trkpt lat="31.0208737" lon="35.7186420">
<ele>1205.97</ele>
<time>2015-11-22T08:00:40Z</time>
</trkpt>
<trkpt lat="31.0207893" lon="35.7186466">
<ele>1206.19</ele>
<time>2015-11-22T08:00:41Z</time>
</trkpt>
<trkpt lat="31.0207054" lon="35.7186542">
<ele>1206.29</ele>
<time>2015-11-22T08:00:42Z</time>
</trkpt>
<trkpt lat="31.0206106" lon="35.7186548">
<ele>1205.84</ele>
<time>2015-11-22T08:00:43Z</time>
</trkpt>
<trkpt lat="31.0205206" lon="35.7186662">
<ele>1205.62</ele>
<time>2015-11-22T08:00:44Z</time>
</trkpt>
<trkpt lat="31.0204194" lon="35.7186714">
<ele>1205.51</ele>
<time>2015-11-22T08:00:45Z</time>
</trkpt>
<trkpt lat="31.0203209" lon="35.7186786">
<ele>1204.45</ele>
<time>2015-11-22T08:00:46Z</time>
</trkpt>
<trkpt lat="31.0202129" lon="35.7187009">
<ele>1204.92</ele>
<time>2015-11-22T08:00:47Z</time>
</trkpt>
<trkpt lat="31.0201246" lon="35.7187342">
<ele>1205.66</ele>
<time>2015-11-22T08:00:48Z</time>
</trkpt>
<trkpt lat="31.0200209" lon="35.7187521">
<ele>1206.53</ele>
<time>2015-11-22T08:00:49Z</time>
</trkpt>
<trkpt lat="31.0199024" lon="35.7187669">
<ele>1206.96</ele>
<time>2015-11-22T08:00:50Z</time>
</trkpt>
<trkpt lat="31.0197886" lon="35.7187842">
<ele>1207.18</ele>
<time>2015-11-22T08:00:51Z</time>
</trkpt>
<trkpt lat="31.0196816" lon="35.7188096">
<ele>1207.29</ele>
<time>2015-11-22T08:00:52Z</time>
</trkpt>
<trkpt lat="31.0195682" lon="35.7188397">
<ele>1206.84</ele>
<time>2015-11-22T08:00:53Z</time>
</trkpt>
<trkpt lat="31.0194677" lon="35.7188560">
<ele>1206.62</ele>
<time>2015-11-22T08:00:54Z</time>
</trkpt>
<trkpt lat="31.0193510" lon="35.7188877">
<ele>1206.51</ele>
<time>2015-11-22T08:00:55Z</time>
</trkpt>
<trkpt lat="31.0192307" lon="35.7189201">
<ele>1206.45</ele>
<time>2015-11-22T08:00:56Z</time>
</trkpt>
<trkpt lat="31.0191107" lon="35.7189535">
<ele>1206.92</ele>
<time>2015-11-22T08:00:57Z</time>
</trkpt>
<trkpt lat="31.0189915" lon="35.7189721">
<ele>1207.16</ele>
<time>2015-11-22T08:00:58Z</time>
</trkpt>
<trkpt lat="31.0188683" lon="35.7189988">
<ele>1206.78</ele>
<time>2015-11-22T08:00:59Z</time>
</trkpt>
<trkpt lat="31.0187536" lon="35.7190287">
<ele>1207.09</ele>
<time>2015-11-22T08:01:00Z</time>
</trkpt>
<trkpt lat="31.0186383" lon="35.7190648">
<ele>1206.74</ele>
<time>2015-11-22T08:01:01Z</time>
</trkpt>
<trkpt lat="31.0185098" lon="35.7190980">
<ele>1206.57</ele>
<time>2015-11-22T08:01:02Z</time>
</trkpt>
<trkpt lat="31.0183920" lon="35.7191252">
<ele>1205.98</ele>
<time>2015-11-22T08:01:03Z</time>
</trkpt>
<trkpt lat="31.0182610" lon="35.7191506">
<ele>1205.19</ele>
<time>2015-11-22T08:01:04Z</time>
</trkpt>
<trkpt lat="31.0181415" lon="35.7191868">
<ele>1204.29</ele>
<time>2015-11-22T08:01:05Z</time>
</trkpt>
<trkpt lat="31.0180124" lon="35.7192101">
<ele>1203.35</ele>
<time>2015-11-22T08:01:06Z</time>
</trkpt>
<trkpt lat="31.0178884" lon="35.7192384">
<ele>1202.87</ele>
<time>2015-11-22T08:01:07Z</time>
</trkpt>
<trkpt lat="31.0177547" lon="35.7192641">
<ele>1202.13</ele>
<time>2015-11-22T08:01:08Z</time>
</trkpt>
<trkpt lat="31.0176280" lon="35.7192931">
<ele>1201.77</ele>
<time>2015-11-22T08:01:09Z</time>
</trkpt>
<trkpt lat="31.0175000" lon="35.7193232">
<ele>1201.58</ele>
<time>2015-11-22T08:01:10Z</time>
</trkpt>
<trkpt lat="31.0173730" lon="35.7193481">
<ele>1201.49</ele>
<time>2015-11-22T08:01:11Z</time>
</trkpt>
<trkpt lat="31.0172457" lon="35.7193800">
<ele>1200.94</ele>
<time>2015-11-22T08:01:12Z</time>
</trkpt>
<trkpt lat="31.0171185" lon="35.7194078">
<ele>1201.17</ele>
<time>2015-11-22T08:01:13Z</time>
</trkpt>
<trkpt lat="31.0169959" lon="35.7194445">
<ele>1201.78</ele>
<time>2015-11-22T08:01:14Z</time>
</trkpt>
<trkpt lat="31.0168698" lon="35.7194780">
<ele>1202.09</ele>
<time>2015-11-22T08:01:15Z</time>
</trkpt>
<trkpt lat="31.0167539" lon="35.7195089">
<ele>1201.74</ele>
<time>2015-11-22T08:01:16Z</time>
</trkpt>
<trkpt lat="31.0166241" lon="35.7195470">
<ele>1201.07</ele>
<time>2015-11-22T08:01:17Z</time>
</trkpt>
<trkpt lat="31.0164995" lon="35.7195790">
<ele>1200.23</ele>
<time>2015-11-22T08:01:18Z</time>
</trkpt>
<trkpt lat="31.0163773" lon="35.7196160">
<ele>1199.82</ele>
<time>2015-11-22T08:01:19Z</time>
</trkpt>
<trkpt lat="31.0162507" lon="35.7196468">
<ele>1199.11</ele>
<time>2015-11-22T08:01:20Z</time>
</trkpt>
<trkpt lat="31.0161296" lon="35.7196807">
<ele>1198.75</ele>
<time>2015-11-22T08:01:21Z</time>
</trkpt>
<trkpt lat="31.0160066" lon="35.7197038">
<ele>1198.57</ele>
<time>2015-11-22T08:01:22Z</time>
</trkpt>
<trkpt lat="31.0158871" lon="35.7197271">
<ele>1198.99</ele>
<time>2015-11-22T08:01:23Z</time>
</trkpt>
<trkpt lat="31.0157743" lon="35.7197676">
<ele>1199.19</ele>
<time>2015-11-22T08:01:24Z</time>
</trkpt>
<trkpt lat="31.0156546" lon="35.7197976">
<ele>1200.29</ele>
<time>2015-11-22T08:01:25Z</time>
</trkpt>
<trkpt lat="31.0155448" lon="35.7198296">
<ele>1200.85</ele>
<time>2015-11-22T08:01:26Z</time>
</trkpt>
<trkpt lat="31.0154294" lon="35.7198648">
<ele>1200.62</ele>
<time>2015-11-22T08:01:27Z</time>
</trkpt>
<trkpt lat="31.0153227" lon="35.7198992">
<ele>1200.51</ele>
<time>2015-11-22T08:01:28Z</time>
</trkpt>
<trkpt lat="31.0152064" lon="35.7199424">
<ele>1200.95</ele>
<time>2015-11-22T08:01:29Z</time>
</trkpt>
<trkpt lat="31.0151005" lon="35.7199914">
<ele>1201.18</ele>
<time>2015-11-22T08:01:30Z</time>
</trkpt>
<trkpt lat="31.0150023" lon="35.7200210">
<ele>1200.79</ele>
<time>2015-11-22T08:01:31Z</time>
</trkpt>
<trkpt lat="31.0148930" lon="35.7200663">
<ele>1200.09</ele>
<time>2015-11-22T08:01:32Z</time>
</trkpt>
<trkpt lat="31.0147837" lon="35.7201031">
<ele>1199.24</ele>
<time>2015-11-22T08:01:33Z</time>
</trkpt>
<trkpt lat="31.0146790" lon="35.7201437">
<ele>1197.82</ele>
<time>2015-11-22T08:01:34Z</time>
</trkpt>
<trkpt lat="31.0145794" lon="35.7201809">
<ele>1197.11</ele>
<time>2015-11-22T08:01:35Z</time>
</trkpt>
<trkpt lat="31.0144769" lon="35.7202202">
<ele>1196.25</ele>
<time>2015-11-22T08:01:36Z</time>
</trkpt>
<trkpt lat="31.0143786" lon="35.7202750">
<ele>1196.32</ele>
<time>2015-11-22T08:01:37Z</time>
</trkpt>
<trkpt lat="31.0142766" lon="35.7203260">
<ele>1195.36</ele>
<time>2015-11-22T08:01:38Z</time>
</trkpt>
<trkpt lat="31.0141768" lon="35.7203816">
<ele>1195.38</ele>
<time>2015-11-22T08:01:39Z</time>
</trkpt>
<trkpt lat="31.0140810" lon="35.7204273">
<ele>1194.89</ele>
<time>2015-11-22T08:01:40Z</time>
</trkpt>
<trkpt lat="31.0139808" lon="35.7204821">
<ele>1194.14</ele>
<time>2015-11-22T08:01:41Z</time>
</trkpt>
<trkpt lat="31.0138860" lon="35.7205330">
<ele>1193.77</ele>
<time>2015-11-22T08:01:42Z</time>
</trkpt>
<trkpt lat="31.0137844" lon="35.7205792">
<ele>1193.58</ele>
<time>2015-11-22T08:01:43Z</time>
</trkpt>
<trkpt lat="31.0136875" lon="35.7206329">
<ele>1193.49</ele>
<time>2015-11-22T08:01:44Z</time>
</trkpt>
<trkpt lat="31.0135889" lon="35.7206860">
<ele>1192.94</ele>
<time>2015-11-22T08:01:45Z</time>
</trkpt>
<trkpt lat="31.0134937" lon="35.7207390">
<ele>1192.17</ele>
<time>2015-11-22T08:01:46Z</time>
</trkpt>
<trkpt lat="31.0133912" lon="35.7207927">
<ele>1193.28</ele>
<time>2015-11-22T08:01:47Z</time>
</trkpt>
<trkpt lat="31.0132850" lon="35.7208453">
<ele>1194.34</ele>
<time>2015-11-22T08:01:48Z</time>
</trkpt>
<trkpt lat="31.0131803" lon="35.7208954">
<ele>1193.87</ele>
<time>2015-11-22T08:01:49Z</time>
</trkpt>
<trkpt lat="31.0130823" lon="35.7209411">
<ele>1194.13</ele>
<time>2015-11-22T08:01:50Z</time>
</trkpt>
<trkpt lat="31.0129850" lon="35.7209788">
<ele>1194.26</ele>
<time>2015-11-22T08:01:51Z</time>
</trkpt>
<trkpt lat="31.0127838" lon="35.7210514">
<ele>1194.83</ele>
<time>2015-11-22T08:01:53Z</time>
</trkpt>
<trkpt lat="31.0126776" lon="35.7210899">
<ele>1195.11</ele>
<time>2015-11-22T08:01:54Z</time>
</trkpt>
<trkpt lat="31.0125668" lon="35.7211206">
<ele>1196.26</ele>
<time>2015-11-22T08:01:55Z</time>
</trkpt>
<trkpt lat="31.0124579" lon="35.7211521">
<ele>1198.33</ele>
<time>2015-11-22T08:01:56Z</time>
</trkpt>
<trkpt lat="31.0123551" lon="35.7211884">
<ele>1199.36</ele>
<time>2015-11-22T08:01:57Z</time>
</trkpt>
<trkpt lat="31.0122521" lon="35.7212212">
<ele>1198.88</ele>
<time>2015-11-22T08:01:58Z</time>
</trkpt>
<trkpt lat="31.0121346" lon="35.7212605">
<ele>1199.14</ele>
<time>2015-11-22T08:01:59Z</time>
</trkpt>
<trkpt lat="31.0120249" lon="35.7212952">
<ele>1199.27</ele>
<time>2015-11-22T08:02:00Z</time>
</trkpt>
<trkpt lat="31.0119103" lon="35.7213473">
<ele>1199.83</ele>
<time>2015-11-22T08:02:01Z</time>
</trkpt>
<trkpt lat="31.0117889" lon="35.7213960">
<ele>1199.11</ele>
<time>2015-11-22T08:02:02Z</time>
</trkpt>
<trkpt lat="31.0116665" lon="35.7214514">
<ele>1198.26</ele>
<time>2015-11-22T08:02:03Z</time>
</trkpt>
<trkpt lat="31.0115469" lon="35.7214964">
<ele>1199.33</ele>
<time>2015-11-22T08:02:04Z</time>
</trkpt>
<trkpt lat="31.0114142" lon="35.7215444">
<ele>1199.86</ele>
<time>2015-11-22T08:02:05Z</time>
</trkpt>
<trkpt lat="31.0112847" lon="35.7216045">
<ele>1200.13</ele>
<time>2015-11-22T08:02:06Z</time>
</trkpt>
<trkpt lat="31.0111477" lon="35.7216757">
<ele>1200.26</ele>
<time>2015-11-22T08:02:07Z</time>
</trkpt>
<trkpt lat="31.0110173" lon="35.7217520">
<ele>1199.33</ele>
<time>2015-11-22T08:02:08Z</time>
</trkpt>
<trkpt lat="31.0108906" lon="35.7218351">
<ele>1198.36</ele>
<time>2015-11-22T08:02:09Z</time>
</trkpt>
<trkpt lat="31.0107727" lon="35.7219295">
<ele>1198.38</ele>
<time>2015-11-22T08:02:10Z</time>
</trkpt>
<trkpt lat="31.0106343" lon="35.7220231">
<ele>1198.39</ele>
<time>2015-11-22T08:02:11Z</time>
</trkpt>
<trkpt lat="31.0105097" lon="35.7221028">
<ele>1198.89</ele>
<time>2015-11-22T08:02:12Z</time>
</trkpt>
<trkpt lat="31.0103700" lon="35.7221975">
<ele>1199.14</ele>
<time>2015-11-22T08:02:13Z</time>
</trkpt>
<trkpt lat="31.0102323" lon="35.7222876">
<ele>1199.27</ele>
<time>2015-11-22T08:02:14Z</time>
</trkpt>
<trkpt lat="31.0101029" lon="35.7223796">
<ele>1198.33</ele>
<time>2015-11-22T08:02:15Z</time>
</trkpt>
<trkpt lat="31.0099694" lon="35.7224638">
<ele>1196.87</ele>
<time>2015-11-22T08:02:16Z</time>
</trkpt>
<trkpt lat="31.0098262" lon="35.7225422">
<ele>1196.63</ele>
<time>2015-11-22T08:02:17Z</time>
</trkpt>
<trkpt lat="31.0096625" lon="35.7226192">
<ele>1196.01</ele>
<time>2015-11-22T08:02:18Z</time>
</trkpt>
<trkpt lat="31.0095123" lon="35.7226890">
<ele>1197.21</ele>
<time>2015-11-22T08:02:19Z</time>
</trkpt>
<trkpt lat="31.0093590" lon="35.7227588">
<ele>1196.80</ele>
<time>2015-11-22T08:02:20Z</time>
</trkpt>
<trkpt lat="31.0092113" lon="35.7228267">
<ele>1197.10</ele>
<time>2015-11-22T08:02:21Z</time>
</trkpt>
<trkpt lat="31.0090543" lon="35.7228970">
<ele>1196.75</ele>
<time>2015-11-22T08:02:22Z</time>
</trkpt>
<trkpt lat="31.0088968" lon="35.7229664">
<ele>1194.57</ele>
<time>2015-11-22T08:02:23Z</time>
</trkpt>
<trkpt lat="31.0087473" lon="35.7230371">
<ele>1192.48</ele>
<time>2015-11-22T08:02:24Z</time>
</trkpt>
<trkpt lat="31.0085920" lon="35.7231083">
<ele>1189.94</ele>
<time>2015-11-22T08:02:25Z</time>
</trkpt>
<trkpt lat="31.0084450" lon="35.7231803">
<ele>1188.67</ele>
<time>2015-11-22T08:02:26Z</time>
</trkpt>
<trkpt lat="31.0082991" lon="35.7232597">
<ele>1186.53</ele>
<time>2015-11-22T08:02:27Z</time>
</trkpt>
<trkpt lat="31.0081486" lon="35.7233278">
<ele>1182.96</ele>
<time>2015-11-22T08:02:28Z</time>
</trkpt>
<trkpt lat="31.0080007" lon="35.7233862">
<ele>1180.18</ele>
<time>2015-11-22T08:02:29Z</time>
</trkpt>
<trkpt lat="31.0078356" lon="35.7234626">
<ele>1182.79</ele>
<time>2015-11-22T08:02:30Z</time>
</trkpt>
<trkpt lat="31.0076902" lon="35.7235222">
<ele>1182.09</ele>
<time>2015-11-22T08:02:31Z</time>
</trkpt>
<trkpt lat="31.0075508" lon="35.7235728">
<ele>1181.24</ele>
<time>2015-11-22T08:02:32Z</time>
</trkpt>
<trkpt lat="31.0074039" lon="35.7236217">
<ele>1179.32</ele>
<time>2015-11-22T08:02:33Z</time>
</trkpt>
<trkpt lat="31.0072568" lon="35.7236628">
<ele>1178.36</ele>
<time>2015-11-22T08:02:34Z</time>
</trkpt>
<trkpt lat="31.0071054" lon="35.7237027">
<ele>1176.88</ele>
<time>2015-11-22T08:02:35Z</time>
</trkpt>
<trkpt lat="31.0069554" lon="35.7237346">
<ele>1175.64</ele>
<time>2015-11-22T08:02:36Z</time>
</trkpt>
<trkpt lat="31.0067991" lon="35.7237607">
<ele>1173.02</ele>
<time>2015-11-22T08:02:37Z</time>
</trkpt>
<trkpt lat="31.0066412" lon="35.7237843">
<ele>1170.21</ele>
<time>2015-11-22T08:02:38Z</time>
</trkpt>
<trkpt lat="31.0064930" lon="35.7238006">
<ele>1171.80</ele>
<time>2015-11-22T08:02:39Z</time>
</trkpt>
<trkpt lat="31.0063490" lon="35.7238178">
<ele>1174.60</ele>
<time>2015-11-22T08:02:40Z</time>
</trkpt>
<trkpt lat="31.0062100" lon="35.7238215">
<ele>1176.50</ele>
<time>2015-11-22T08:02:41Z</time>
</trkpt>
<trkpt lat="31.0060747" lon="35.7238239">
<ele>1176.95</ele>
<time>2015-11-22T08:02:42Z</time>
</trkpt>
<trkpt lat="31.0059386" lon="35.7238127">
<ele>1174.67</ele>
<time>2015-11-22T08:02:43Z</time>
</trkpt>
<trkpt lat="31.0058066" lon="35.7237905">
<ele>1175.53</ele>
<time>2015-11-22T08:02:44Z</time>
</trkpt>
<trkpt lat="31.0056742" lon="35.7237624">
<ele>1177.47</ele>
<time>2015-11-22T08:02:45Z</time>
</trkpt>
<trkpt lat="31.0055430" lon="35.7237336">
<ele>1177.93</ele>
<time>2015-11-22T08:02:46Z</time>
</trkpt>
<trkpt lat="31.0054116" lon="35.7237015">
<ele>1178.66</ele>
<time>2015-11-22T08:02:47Z</time>
</trkpt>
<trkpt lat="31.0052869" lon="35.7236666">
<ele>1179.53</ele>
<time>2015-11-22T08:02:48Z</time>
</trkpt>
<trkpt lat="31.0051593" lon="35.7236247">
<ele>1180.46</ele>
<time>2015-11-22T08:02:49Z</time>
</trkpt>
<trkpt lat="31.0050366" lon="35.7235906">
<ele>1178.93</ele>
<time>2015-11-22T08:02:50Z</time>
</trkpt>
<trkpt lat="31.0049219" lon="35.7235533">
<ele>1178.66</ele>
<time>2015-11-22T08:02:51Z</time>
</trkpt>
<trkpt lat="31.0048139" lon="35.7235194">
<ele>1177.53</ele>
<time>2015-11-22T08:02:52Z</time>
</trkpt>
<trkpt lat="31.0046962" lon="35.7234935">
<ele>1179.46</ele>
<time>2015-11-22T08:02:53Z</time>
</trkpt>
<trkpt lat="31.0045914" lon="35.7234684">
<ele>1180.93</ele>
<time>2015-11-22T08:02:54Z</time>
</trkpt>
<trkpt lat="31.0044879" lon="35.7234730">
<ele>1182.66</ele>
<time>2015-11-22T08:02:55Z</time>
</trkpt>
<trkpt lat="31.0043714" lon="35.7234609">
<ele>1175.53</ele>
<time>2015-11-22T08:02:56Z</time>
</trkpt>
<trkpt lat="31.0042575" lon="35.7234735">
<ele>1169.96</ele>
<time>2015-11-22T08:02:57Z</time>
</trkpt>
<trkpt lat="31.0041393" lon="35.7234845">
<ele>1164.18</ele>
<time>2015-11-22T08:02:58Z</time>
</trkpt>
<trkpt lat="31.0040268" lon="35.7234993">
<ele>1159.79</ele>
<time>2015-11-22T08:02:59Z</time>
</trkpt>
<trkpt lat="31.0039073" lon="35.7235274">
<ele>1156.09</ele>
<time>2015-11-22T08:03:00Z</time>
</trkpt>
<trkpt lat="31.0037904" lon="35.7235555">
<ele>1152.74</ele>
<time>2015-11-22T08:03:01Z</time>
</trkpt>
<trkpt lat="31.0036757" lon="35.7235801">
<ele>1151.07</ele>
<time>2015-11-22T08:03:02Z</time>
</trkpt>
<trkpt lat="31.0035528" lon="35.7236076">
<ele>1150.23</ele>
<time>2015-11-22T08:03:03Z</time>
</trkpt>
<trkpt lat="31.0034410" lon="35.7236422">
<ele>1139.82</ele>
<time>2015-11-22T08:03:04Z</time>
</trkpt>
<trkpt lat="31.0033345" lon="35.7236763">
<ele>1129.61</ele>
<time>2015-11-22T08:03:05Z</time>
</trkpt>
<trkpt lat="31.0032310" lon="35.7237191">
<ele>1118.50</ele>
<time>2015-11-22T08:03:06Z</time>
</trkpt>
<trkpt lat="31.0031208" lon="35.7237666">
<ele>1108.95</ele>
<time>2015-11-22T08:03:07Z</time>
</trkpt>
<trkpt lat="31.0030175" lon="35.7238230">
<ele>1102.17</ele>
<time>2015-11-22T08:03:08Z</time>
</trkpt>
<trkpt lat="31.0029274" lon="35.7238771">
<ele>1099.79</ele>
<time>2015-11-22T08:03:09Z</time>
</trkpt>
<trkpt lat="31.0028197" lon="35.7239474">
<ele>1097.09</ele>
<time>2015-11-22T08:03:10Z</time>
</trkpt>
<trkpt lat="31.0027134" lon="35.7240312">
<ele>1093.74</ele>
<time>2015-11-22T08:03:11Z</time>
</trkpt>
<trkpt lat="31.0026155" lon="35.7241098">
<ele>1091.07</ele>
<time>2015-11-22T08:03:12Z</time>
</trkpt>
<trkpt lat="31.0025132" lon="35.7241838">
<ele>1088.73</ele>
<time>2015-11-22T08:03:13Z</time>
</trkpt>
<trkpt lat="31.0024179" lon="35.7242571">
<ele>1087.07</ele>
<time>2015-11-22T08:03:14Z</time>
</trkpt>
<trkpt lat="31.0023274" lon="35.7243360">
<ele>1085.23</ele>
<time>2015-11-22T08:03:15Z</time>
</trkpt>
<trkpt lat="31.0022554" lon="35.7244114">
<ele>1083.31</ele>
<time>2015-11-22T08:03:16Z</time>
</trkpt>
<trkpt lat="31.0022034" lon="35.7244794">
<ele>1081.36</ele>
<time>2015-11-22T08:03:17Z</time>
</trkpt>
<trkpt lat="31.0021502" lon="35.7245547">
<ele>1079.88</ele>
<time>2015-11-22T08:03:18Z</time>
</trkpt>
<trkpt lat="31.0021039" lon="35.7246265">
<ele>1078.64</ele>
<time>2015-11-22T08:03:19Z</time>
</trkpt>
<trkpt lat="31.0020628" lon="35.7246958">
<ele>1077.52</ele>
<time>2015-11-22T08:03:20Z</time>
</trkpt>
<trkpt lat="31.0020310" lon="35.7247555">
<ele>1075.96</ele>
<time>2015-11-22T08:03:21Z</time>
</trkpt>
<trkpt lat="31.0019971" lon="35.7248150">
<ele>1075.68</ele>
<time>2015-11-22T08:03:22Z</time>
</trkpt>
<trkpt lat="31.0019424" lon="35.7248684">
<ele>1075.04</ele>
<time>2015-11-22T08:03:23Z</time>
</trkpt>
<trkpt lat="31.0018917" lon="35.7249232">
<ele>1074.22</ele>
<time>2015-11-22T08:03:24Z</time>
</trkpt>
<trkpt lat="31.0018376" lon="35.7249668">
<ele>1072.31</ele>
<time>2015-11-22T08:03:25Z</time>
</trkpt>
<trkpt lat="31.0017590" lon="35.7250044">
<ele>1071.85</ele>
<time>2015-11-22T08:03:26Z</time>
</trkpt>
<trkpt lat="31.0016809" lon="35.7250232">
<ele>1071.12</ele>
<time>2015-11-22T08:03:27Z</time>
</trkpt>
<trkpt lat="31.0015950" lon="35.7250231">
<ele>1070.26</ele>
<time>2015-11-22T08:03:28Z</time>
</trkpt>
<trkpt lat="31.0015054" lon="35.7250126">
<ele>1069.83</ele>
<time>2015-11-22T08:03:29Z</time>
</trkpt>
<trkpt lat="31.0014232" lon="35.7249977">
<ele>1069.11</ele>
<time>2015-11-22T08:03:30Z</time>
</trkpt>
<trkpt lat="31.0013318" lon="35.7249760">
<ele>1069.26</ele>
<time>2015-11-22T08:03:31Z</time>
</trkpt>
<trkpt lat="31.0012379" lon="35.7249495">
<ele>1069.33</ele>
<time>2015-11-22T08:03:32Z</time>
</trkpt>
<trkpt lat="31.0011445" lon="35.7249276">
<ele>1069.36</ele>
<time>2015-11-22T08:03:33Z</time>
</trkpt>
<trkpt lat="31.0010555" lon="35.7249062">
<ele>1069.38</ele>
<time>2015-11-22T08:03:34Z</time>
</trkpt>
<trkpt lat="31.0009618" lon="35.7248907">
<ele>1068.89</ele>
<time>2015-11-22T08:03:35Z</time>
</trkpt>
<trkpt lat="31.0008582" lon="35.7248786">
<ele>1068.14</ele>
<time>2015-11-22T08:03:36Z</time>
</trkpt>
<trkpt lat="31.0007537" lon="35.7248666">
<ele>1067.27</ele>
<time>2015-11-22T08:03:37Z</time>
</trkpt>
<trkpt lat="31.0006440" lon="35.7248604">
<ele>1066.33</ele>
<time>2015-11-22T08:03:38Z</time>
</trkpt>
<trkpt lat="31.0005296" lon="35.7248584">
<ele>1065.37</ele>
<time>2015-11-22T08:03:39Z</time>
</trkpt>
<trkpt lat="31.0004145" lon="35.7248586">
<ele>1065.38</ele>
<time>2015-11-22T08:03:40Z</time>
</trkpt>
<trkpt lat="31.0003005" lon="35.7248626">
<ele>1064.89</ele>
<time>2015-11-22T08:03:41Z</time>
</trkpt>
<trkpt lat="31.0001816" lon="35.7248675">
<ele>1064.14</ele>
<time>2015-11-22T08:03:42Z</time>
</trkpt>
<trkpt lat="31.0000626" lon="35.7248749">
<ele>1062.77</ele>
<time>2015-11-22T08:03:43Z</time>
</trkpt>
<trkpt lat="30.9998280" lon="35.7248847">
<ele>1061.58</ele>
<time>2015-11-22T08:03:45Z</time>
</trkpt>
<trkpt lat="30.9997055" lon="35.7248801">
<ele>1060.49</ele>
<time>2015-11-22T08:03:46Z</time>
</trkpt>
<trkpt lat="30.9995715" lon="35.7248773">
<ele>1058.94</ele>
<time>2015-11-22T08:03:47Z</time>
</trkpt>
<trkpt lat="30.9994395" lon="35.7248623">
<ele>1058.17</ele>
<time>2015-11-22T08:03:48Z</time>
</trkpt>
<trkpt lat="30.9993142" lon="35.7248427">
<ele>1056.78</ele>
<time>2015-11-22T08:03:49Z</time>
</trkpt>
<trkpt lat="30.9991852" lon="35.7248164">
<ele>1055.59</ele>
<time>2015-11-22T08:03:50Z</time>
</trkpt>
<trkpt lat="30.9990671" lon="35.7247706">
<ele>1054.49</ele>
<time>2015-11-22T08:03:51Z</time>
</trkpt>
<trkpt lat="30.9989606" lon="35.7247092">
<ele>1053.45</ele>
<time>2015-11-22T08:03:52Z</time>
</trkpt>
<trkpt lat="30.9988687" lon="35.7246352">
<ele>1052.42</ele>
<time>2015-11-22T08:03:53Z</time>
</trkpt>
<trkpt lat="30.9987917" lon="35.7245508">
<ele>1051.91</ele>
<time>2015-11-22T08:03:54Z</time>
</trkpt>
<trkpt lat="30.9987173" lon="35.7244408">
<ele>1051.65</ele>
<time>2015-11-22T08:03:55Z</time>
</trkpt>
<trkpt lat="30.9986559" lon="35.7243189">
<ele>1051.03</ele>
<time>2015-11-22T08:03:56Z</time>
</trkpt>
<trkpt lat="30.9985928" lon="35.7242045">
<ele>1050.21</ele>
<time>2015-11-22T08:03:57Z</time>
</trkpt>
<trkpt lat="30.9985374" lon="35.7240789">
<ele>1049.30</ele>
<time>2015-11-22T08:03:58Z</time>
</trkpt>
<trkpt lat="30.9984791" lon="35.7239490">
<ele>1047.85</ele>
<time>2015-11-22T08:03:59Z</time>
</trkpt>
<trkpt lat="30.9984248" lon="35.7238399">
<ele>1047.12</ele>
<time>2015-11-22T08:04:00Z</time>
</trkpt>
<trkpt lat="30.9983637" lon="35.7237142">
<ele>1045.76</ele>
<time>2015-11-22T08:04:01Z</time>
</trkpt>
<trkpt lat="30.9982982" lon="35.7235953">
<ele>1045.08</ele>
<time>2015-11-22T08:04:02Z</time>
</trkpt>
<trkpt lat="30.9982284" lon="35.7234870">
<ele>1044.24</ele>
<time>2015-11-22T08:04:03Z</time>
</trkpt>
<trkpt lat="30.9981418" lon="35.7234008">
<ele>1043.32</ele>
<time>2015-11-22T08:04:04Z</time>
</trkpt>
<trkpt lat="30.9980475" lon="35.7233252">
<ele>1042.36</ele>
<time>2015-11-22T08:04:05Z</time>
</trkpt>
<trkpt lat="30.9979569" lon="35.7232517">
<ele>1041.88</ele>
<time>2015-11-22T08:04:06Z</time>
</trkpt>
<trkpt lat="30.9978602" lon="35.7231934">
<ele>1041.14</ele>
<time>2015-11-22T08:04:07Z</time>
</trkpt>
<trkpt lat="30.9977683" lon="35.7231472">
<ele>1040.27</ele>
<time>2015-11-22T08:04:08Z</time>
</trkpt>
<trkpt lat="30.9976864" lon="35.7230919">
<ele>1039.33</ele>
<time>2015-11-22T08:04:09Z</time>
</trkpt>
<trkpt lat="30.9976088" lon="35.7230360">
<ele>1038.36</ele>
<time>2015-11-22T08:04:10Z</time>
</trkpt>
<trkpt lat="30.9975371" lon="35.7229552">
<ele>1037.38</ele>
<time>2015-11-22T08:04:11Z</time>
</trkpt>
<trkpt lat="30.9974700" lon="35.7228654">
<ele>1036.39</ele>
<time>2015-11-22T08:04:12Z</time>
</trkpt>
<trkpt lat="30.9974319" lon="35.7227516">
<ele>1035.89</ele>
<time>2015-11-22T08:04:13Z</time>
</trkpt>
<trkpt lat="30.9974036" lon="35.7226333">
<ele>1035.15</ele>
<time>2015-11-22T08:04:14Z</time>
</trkpt>
<trkpt lat="30.9973883" lon="35.7225207">
<ele>1034.27</ele>
<time>2015-11-22T08:04:15Z</time>
</trkpt>
<trkpt lat="30.9973768" lon="35.7223988">
<ele>1032.83</ele>
<time>2015-11-22T08:04:16Z</time>
</trkpt>
<trkpt lat="30.9973698" lon="35.7222682">
<ele>1032.12</ele>
<time>2015-11-22T08:04:17Z</time>
</trkpt>
<trkpt lat="30.9973588" lon="35.7221336">
<ele>1031.26</ele>
<time>2015-11-22T08:04:18Z</time>
</trkpt>
<trkpt lat="30.9973466" lon="35.7219969">
<ele>1030.33</ele>
<time>2015-11-22T08:04:19Z</time>
</trkpt>
<trkpt lat="30.9973365" lon="35.7218461">
<ele>1029.36</ele>
<time>2015-11-22T08:04:20Z</time>
</trkpt>
<trkpt lat="30.9973304" lon="35.7217080">
<ele>1028.38</ele>
<time>2015-11-22T08:04:21Z</time>
</trkpt>
<trkpt lat="30.9973249" lon="35.7215599">
<ele>1027.89</ele>
<time>2015-11-22T08:04:22Z</time>
</trkpt>
<trkpt lat="30.9973225" lon="35.7214101">
<ele>1027.14</ele>
<time>2015-11-22T08:04:23Z</time>
</trkpt>
<trkpt lat="30.9973145" lon="35.7212544">
<ele>1026.77</ele>
<time>2015-11-22T08:04:24Z</time>
</trkpt>
<trkpt lat="30.9973106" lon="35.7211045">
<ele>1026.08</ele>
<time>2015-11-22T08:04:25Z</time>
</trkpt>
<trkpt lat="30.9973109" lon="35.7209594">
<ele>1025.24</ele>
<time>2015-11-22T08:04:26Z</time>
</trkpt>
<trkpt lat="30.9973139" lon="35.7208250">
<ele>1023.82</ele>
<time>2015-11-22T08:04:27Z</time>
</trkpt>
<trkpt lat="30.9973378" lon="35.7205657">
<ele>1022.61</ele>
<time>2015-11-22T08:04:29Z</time>
</trkpt>
<trkpt lat="30.9973674" lon="35.7204425">
<ele>1021.50</ele>
<time>2015-11-22T08:04:30Z</time>
</trkpt>
<trkpt lat="30.9974062" lon="35.7203267">
<ele>1020.45</ele>
<time>2015-11-22T08:04:31Z</time>
</trkpt>
<trkpt lat="30.9974556" lon="35.7202055">
<ele>1019.42</ele>
<time>2015-11-22T08:04:32Z</time>
</trkpt>
<trkpt lat="30.9975101" lon="35.7200968">
<ele>1018.41</ele>
<time>2015-11-22T08:04:33Z</time>
</trkpt>
<trkpt lat="30.9975540" lon="35.7199853">
<ele>1017.40</ele>
<time>2015-11-22T08:04:34Z</time>
</trkpt>
<trkpt lat="30.9976001" lon="35.7198972">
<ele>1016.40</ele>
<time>2015-11-22T08:04:35Z</time>
</trkpt>
<trkpt lat="30.9976313" lon="35.7198112">
<ele>1015.40</ele>
<time>2015-11-22T08:04:36Z</time>
</trkpt>
<trkpt lat="30.9976514" lon="35.7197244">
<ele>1014.90</ele>
<time>2015-11-22T08:04:37Z</time>
</trkpt>
<trkpt lat="30.9976779" lon="35.7196602">
<ele>1014.15</ele>
<time>2015-11-22T08:04:38Z</time>
</trkpt>
<trkpt lat="30.9976961" lon="35.7195957">
<ele>1013.27</ele>
<time>2015-11-22T08:04:39Z</time>
</trkpt>
<trkpt lat="30.9977156" lon="35.7195476">
<ele>1012.33</ele>
<time>2015-11-22T08:04:40Z</time>
</trkpt>
<trkpt lat="30.9977380" lon="35.7194968">
<ele>1011.26</ele>
<time>2015-11-22T08:04:43Z</time>
</trkpt>
<trkpt lat="30.9977447" lon="35.7194250">
<ele>1012.65</ele>
<time>2015-11-22T08:05:27Z</time>
</trkpt>
<trkpt lat="30.9977536" lon="35.7193353">
<ele>1011.21</ele>
<time>2015-11-22T08:05:29Z</time>
</trkpt>
<trkpt lat="30.9977579" lon="35.7192823">
<ele>1010.80</ele>
<time>2015-11-22T08:05:30Z</time>
</trkpt>
<trkpt lat="30.9977606" lon="35.7192128">
<ele>1010.60</ele>
<time>2015-11-22T08:05:31Z</time>
</trkpt>
<trkpt lat="30.9977620" lon="35.7191417">
<ele>1010.00</ele>
<time>2015-11-22T08:05:32Z</time>
</trkpt>
<trkpt lat="30.9977586" lon="35.7190684">
<ele>1009.20</ele>
<time>2015-11-22T08:05:33Z</time>
</trkpt>
<trkpt lat="30.9977596" lon="35.7189866">
<ele>1008.30</ele>
<time>2015-11-22T08:05:34Z</time>
</trkpt>
<trkpt lat="30.9977530" lon="35.7189064">
<ele>1007.85</ele>
<time>2015-11-22T08:05:35Z</time>
</trkpt>
<trkpt lat="30.9977489" lon="35.7188104">
<ele>1007.62</ele>
<time>2015-11-22T08:05:36Z</time>
</trkpt>
<trkpt lat="30.9977444" lon="35.7187143">
<ele>1007.01</ele>
<time>2015-11-22T08:05:37Z</time>
</trkpt>
<trkpt lat="30.9977448" lon="35.7186150">
<ele>1006.20</ele>
<time>2015-11-22T08:05:38Z</time>
</trkpt>
<trkpt lat="30.9977420" lon="35.7185046">
<ele>1004.80</ele>
<time>2015-11-22T08:05:39Z</time>
</trkpt>
<trkpt lat="30.9977374" lon="35.7183911">
<ele>1003.60</ele>
<time>2015-11-22T08:05:40Z</time>
</trkpt>
<trkpt lat="30.9977374" lon="35.7182840">
<ele>1003.00</ele>
<time>2015-11-22T08:05:41Z</time>
</trkpt>
<trkpt lat="30.9977369" lon="35.7181692">
<ele>1002.20</ele>
<time>2015-11-22T08:05:42Z</time>
</trkpt>
<trkpt lat="30.9977297" lon="35.7180555">
<ele>1001.30</ele>
<time>2015-11-22T08:05:43Z</time>
</trkpt>
<trkpt lat="30.9977226" lon="35.7179393">
<ele>1000.35</ele>
<time>2015-11-22T08:05:44Z</time>
</trkpt>
<trkpt lat="30.9977080" lon="35.7178199">
<ele>999.37</ele>
<time>2015-11-22T08:05:45Z</time>
</trkpt>
<trkpt lat="30.9976764" lon="35.7176975">
<ele>997.88</ele>
<time>2015-11-22T08:05:46Z</time>
</trkpt>
<trkpt lat="30.9976375" lon="35.7175782">
<ele>996.14</ele>
<time>2015-11-22T08:05:47Z</time>
</trkpt>
<trkpt lat="30.9975910" lon="35.7174700">
<ele>997.77</ele>
<time>2015-11-22T08:05:48Z</time>
</trkpt>
<trkpt lat="30.9975438" lon="35.7173649">
<ele>998.58</ele>
<time>2015-11-22T08:05:49Z</time>
</trkpt>
<trkpt lat="30.9974956" lon="35.7172775">
<ele>998.99</ele>
<time>2015-11-22T08:05:50Z</time>
</trkpt>
<trkpt lat="30.9974529" lon="35.7172066">
<ele>999.19</ele>
<time>2015-11-22T08:05:51Z</time>
</trkpt>
<trkpt lat="30.9974148" lon="35.7171455">
<ele>999.30</ele>
<time>2015-11-22T08:05:52Z</time>
</trkpt>
<trkpt lat="30.9973704" lon="35.7171033">
<ele>998.85</ele>
<time>2015-11-22T08:05:53Z</time>
</trkpt>
<trkpt lat="30.9973321" lon="35.7170678">
<ele>998.62</ele>
<time>2015-11-22T08:05:54Z</time>
</trkpt>
<trkpt lat="30.9972864" lon="35.7170528">
<ele>998.01</ele>
<time>2015-11-22T08:05:55Z</time>
</trkpt>
<trkpt lat="30.9972338" lon="35.7170461">
<ele>997.20</ele>
<time>2015-11-22T08:05:56Z</time>
</trkpt>
<trkpt lat="30.9971397" lon="35.7170626">
<ele>996.10</ele>
<time>2015-11-22T08:05:58Z</time>
</trkpt>
<trkpt lat="30.9970934" lon="35.7170768">
<ele>995.75</ele>
<time>2015-11-22T08:05:59Z</time>
</trkpt>
<trkpt lat="30.9970483" lon="35.7171077">
<ele>996.07</ele>
<time>2015-11-22T08:06:00Z</time>
</trkpt>
<trkpt lat="30.9970046" lon="35.7171380">
<ele>996.23</ele>
<time>2015-11-22T08:06:01Z</time>
</trkpt>
<trkpt lat="30.9969390" lon="35.7171906">
<ele>995.61</ele>
<time>2015-11-22T08:06:03Z</time>
</trkpt>
<trkpt lat="30.9969109" lon="35.7172358">
<ele>995.45</ele>
<time>2015-11-22T08:06:05Z</time>
</trkpt>
<trkpt lat="30.9968774" lon="35.7172760">
<ele>999.48</ele>
<time>2015-11-22T08:07:06Z</time>
</trkpt>
<trkpt lat="30.9968639" lon="35.7173321">
<ele>997.42</ele>
<time>2015-11-22T08:08:34Z</time>
</trkpt>
<trkpt lat="30.9968353" lon="35.7173872">
<ele>997.15</ele>
<time>2015-11-22T08:08:36Z</time>
</trkpt>
<trkpt lat="30.9968061" lon="35.7174605">
<ele>996.09</ele>
<time>2015-11-22T08:08:38Z</time>
</trkpt>
<trkpt lat="30.9967862" lon="35.7175113">
<ele>996.24</ele>
<time>2015-11-22T08:08:39Z</time>
</trkpt>
<trkpt lat="30.9967227" lon="35.7176728">
<ele>995.82</ele>
<time>2015-11-22T08:08:41Z</time>
</trkpt>
<trkpt lat="30.9966980" lon="35.7177354">
<ele>996.61</ele>
<time>2015-11-22T08:08:42Z</time>
</trkpt>
<trkpt lat="30.9966733" lon="35.7178094">
<ele>996.50</ele>
<time>2015-11-22T08:08:43Z</time>
</trkpt>
<trkpt lat="30.9966384" lon="35.7178887">
<ele>996.45</ele>
<time>2015-11-22T08:08:44Z</time>
</trkpt>
<trkpt lat="30.9966057" lon="35.7179726">
<ele>996.42</ele>
<time>2015-11-22T08:08:45Z</time>
</trkpt>
<trkpt lat="30.9965721" lon="35.7180640">
<ele>996.41</ele>
<time>2015-11-22T08:08:46Z</time>
</trkpt>
<trkpt lat="30.9965412" lon="35.7181565">
<ele>995.90</ele>
<time>2015-11-22T08:08:47Z</time>
</trkpt>
<trkpt lat="30.9965048" lon="35.7182508">
<ele>995.65</ele>
<time>2015-11-22T08:08:48Z</time>
</trkpt>
<trkpt lat="30.9964639" lon="35.7183529">
<ele>995.02</ele>
<time>2015-11-22T08:08:49Z</time>
</trkpt>
<trkpt lat="30.9964204" lon="35.7184672">
<ele>994.71</ele>
<time>2015-11-22T08:08:50Z</time>
</trkpt>
<trkpt lat="30.9963908" lon="35.7185753">
<ele>994.05</ele>
<time>2015-11-22T08:08:51Z</time>
</trkpt>
<trkpt lat="30.9963537" lon="35.7186944">
<ele>993.73</ele>
<time>2015-11-22T08:08:52Z</time>
</trkpt>
<trkpt lat="30.9963257" lon="35.7188088">
<ele>992.56</ele>
<time>2015-11-22T08:08:53Z</time>
</trkpt>
<trkpt lat="30.9962984" lon="35.7189364">
<ele>993.98</ele>
<time>2015-11-22T08:08:54Z</time>
</trkpt>
<trkpt lat="30.9962681" lon="35.7190623">
<ele>995.19</ele>
<time>2015-11-22T08:08:55Z</time>
</trkpt>
<trkpt lat="30.9962208" lon="35.7193184">
<ele>994.29</ele>
<time>2015-11-22T08:08:57Z</time>
</trkpt>
<trkpt lat="30.9961998" lon="35.7194337">
<ele>993.84</ele>
<time>2015-11-22T08:08:58Z</time>
</trkpt>
<trkpt lat="30.9961736" lon="35.7195605">
<ele>993.12</ele>
<time>2015-11-22T08:08:59Z</time>
</trkpt>
<trkpt lat="30.9961474" lon="35.7196852">
<ele>992.26</ele>
<time>2015-11-22T08:09:00Z</time>
</trkpt>
<trkpt lat="30.9961155" lon="35.7198134">
<ele>990.83</ele>
<time>2015-11-22T08:09:01Z</time>
</trkpt>
<trkpt lat="30.9960901" lon="35.7199425">
<ele>990.11</ele>
<time>2015-11-22T08:09:02Z</time>
</trkpt>
<trkpt lat="30.9960612" lon="35.7200658">
<ele>989.75</ele>
<time>2015-11-22T08:09:03Z</time>
</trkpt>
<trkpt lat="30.9960540" lon="35.7201833">
<ele>991.58</ele>
<time>2015-11-22T08:09:04Z</time>
</trkpt>
<trkpt lat="30.9960150" lon="35.7203068">
<ele>992.49</ele>
<time>2015-11-22T08:09:05Z</time>
</trkpt>
<trkpt lat="30.9959722" lon="35.7204355">
<ele>993.44</ele>
<time>2015-11-22T08:09:06Z</time>
</trkpt>
<trkpt lat="30.9959101" lon="35.7205682">
<ele>995.42</ele>
<time>2015-11-22T08:09:07Z</time>
</trkpt>
<trkpt lat="30.9958541" lon="35.7206925">
<ele>996.41</ele>
<time>2015-11-22T08:09:08Z</time>
</trkpt>
<trkpt lat="30.9957884" lon="35.7208205">
<ele>996.90</ele>
<time>2015-11-22T08:09:09Z</time>
</trkpt>
<trkpt lat="30.9957226" lon="35.7209507">
<ele>996.65</ele>
<time>2015-11-22T08:09:10Z</time>
</trkpt>
<trkpt lat="30.9956521" lon="35.7210716">
<ele>995.52</ele>
<time>2015-11-22T08:09:11Z</time>
</trkpt>
<trkpt lat="30.9955751" lon="35.7211950">
<ele>995.46</ele>
<time>2015-11-22T08:09:12Z</time>
</trkpt>
<trkpt lat="30.9954966" lon="35.7213050">
<ele>995.43</ele>
<time>2015-11-22T08:09:13Z</time>
</trkpt>
<trkpt lat="30.9954174" lon="35.7214150">
<ele>995.91</ele>
<time>2015-11-22T08:09:14Z</time>
</trkpt>
<trkpt lat="30.9953312" lon="35.7215253">
<ele>996.15</ele>
<time>2015-11-22T08:09:15Z</time>
</trkpt>
<trkpt lat="30.9952508" lon="35.7216386">
<ele>996.28</ele>
<time>2015-11-22T08:09:16Z</time>
</trkpt>
<trkpt lat="30.9951739" lon="35.7217522">
<ele>995.84</ele>
<time>2015-11-22T08:09:17Z</time>
</trkpt>
<trkpt lat="30.9950971" lon="35.7218606">
<ele>995.62</ele>
<time>2015-11-22T08:09:18Z</time>
</trkpt>
<trkpt lat="30.9950165" lon="35.7219703">
<ele>995.51</ele>
<time>2015-11-22T08:09:19Z</time>
</trkpt>
<trkpt lat="30.9949476" lon="35.7220809">
<ele>995.45</ele>
<time>2015-11-22T08:09:20Z</time>
</trkpt>
<trkpt lat="30.9948817" lon="35.7221865">
<ele>996.42</ele>
<time>2015-11-22T08:09:21Z</time>
</trkpt>
<trkpt lat="30.9948186" lon="35.7222824">
<ele>997.41</ele>
<time>2015-11-22T08:09:22Z</time>
</trkpt>
<trkpt lat="30.9947552" lon="35.7223824">
<ele>997.40</ele>
<time>2015-11-22T08:09:23Z</time>
</trkpt>
<trkpt lat="30.9946900" lon="35.7224834">
<ele>996.40</ele>
<time>2015-11-22T08:09:24Z</time>
</trkpt>
<trkpt lat="30.9946293" lon="35.7225902">
<ele>995.90</ele>
<time>2015-11-22T08:09:25Z</time>
</trkpt>
<trkpt lat="30.9945666" lon="35.7226899">
<ele>996.65</ele>
<time>2015-11-22T08:09:26Z</time>
</trkpt>
<trkpt lat="30.9945024" lon="35.7227910">
<ele>997.52</ele>
<time>2015-11-22T08:09:27Z</time>
</trkpt>
<trkpt lat="30.9944394" lon="35.7228962">
<ele>997.46</ele>
<time>2015-11-22T08:09:28Z</time>
</trkpt>
<trkpt lat="30.9943640" lon="35.7229983">
<ele>996.93</ele>
<time>2015-11-22T08:09:29Z</time>
</trkpt>
<trkpt lat="30.9942874" lon="35.7231056">
<ele>995.16</ele>
<time>2015-11-22T08:09:30Z</time>
</trkpt>
<trkpt lat="30.9942254" lon="35.7232054">
<ele>992.78</ele>
<time>2015-11-22T08:09:31Z</time>
</trkpt>
<trkpt lat="30.9941646" lon="35.7233061">
<ele>992.59</ele>
<time>2015-11-22T08:09:32Z</time>
</trkpt>
<trkpt lat="30.9941058" lon="35.7234089">
<ele>991.99</ele>
<time>2015-11-22T08:09:33Z</time>
</trkpt>
<trkpt lat="30.9940544" lon="35.7235086">
<ele>991.69</ele>
<time>2015-11-22T08:09:34Z</time>
</trkpt>
<trkpt lat="30.9940027" lon="35.7236214">
<ele>991.05</ele>
<time>2015-11-22T08:09:35Z</time>
</trkpt>
<trkpt lat="30.9939576" lon="35.7237306">
<ele>989.72</ele>
<time>2015-11-22T08:09:36Z</time>
</trkpt>
<trkpt lat="30.9939059" lon="35.7238394">
<ele>989.56</ele>
<time>2015-11-22T08:09:37Z</time>
</trkpt>
<trkpt lat="30.9938604" lon="35.7239498">
<ele>989.48</ele>
<time>2015-11-22T08:09:38Z</time>
</trkpt>
<trkpt lat="30.9938152" lon="35.7240551">
<ele>989.44</ele>
<time>2015-11-22T08:09:39Z</time>
</trkpt>
<trkpt lat="30.9937760" lon="35.7241642">
<ele>988.42</ele>
<time>2015-11-22T08:09:40Z</time>
</trkpt>
<trkpt lat="30.9937365" lon="35.7242690">
<ele>987.91</ele>
<time>2015-11-22T08:09:41Z</time>
</trkpt>
<trkpt lat="30.9936868" lon="35.7243693">
<ele>987.15</ele>
<time>2015-11-22T08:09:42Z</time>
</trkpt>
<trkpt lat="30.9936532" lon="35.7244635">
<ele>987.27</ele>
<time>2015-11-22T08:09:43Z</time>
</trkpt>
<trkpt lat="30.9935989" lon="35.7245533">
<ele>986.34</ele>
<time>2015-11-22T08:09:44Z</time>
</trkpt>
<trkpt lat="30.9935483" lon="35.7246463">
<ele>984.37</ele>
<time>2015-11-22T08:09:45Z</time>
</trkpt>
<trkpt lat="30.9934915" lon="35.7247345">
<ele>982.38</ele>
<time>2015-11-22T08:09:46Z</time>
</trkpt>
<trkpt lat="30.9934274" lon="35.7248277">
<ele>984.89</ele>
<time>2015-11-22T08:09:47Z</time>
</trkpt>
<trkpt lat="30.9933708" lon="35.7249077">
<ele>985.64</ele>
<time>2015-11-22T08:09:48Z</time>
</trkpt>
<trkpt lat="30.9933086" lon="35.7249983">
<ele>985.52</ele>
<time>2015-11-22T08:09:49Z</time>
</trkpt>
<trkpt lat="30.9932380" lon="35.7250964">
<ele>985.96</ele>
<time>2015-11-22T08:09:50Z</time>
</trkpt>
<trkpt lat="30.9931708" lon="35.7251917">
<ele>987.18</ele>
<time>2015-11-22T08:09:51Z</time>
</trkpt>
<trkpt lat="30.9931146" lon="35.7252604">
<ele>986.79</ele>
<time>2015-11-22T08:09:52Z</time>
</trkpt>
<trkpt lat="30.9930395" lon="35.7253452">
<ele>986.59</ele>
<time>2015-11-22T08:09:53Z</time>
</trkpt>
<trkpt lat="30.9929644" lon="35.7254193">
<ele>987.49</ele>
<time>2015-11-22T08:09:54Z</time>
</trkpt>
<trkpt lat="30.9928886" lon="35.7254859">
<ele>987.45</ele>
<time>2015-11-22T08:09:55Z</time>
</trkpt>
<trkpt lat="30.9928062" lon="35.7255408">
<ele>987.92</ele>
<time>2015-11-22T08:09:56Z</time>
</trkpt>
<trkpt lat="30.9927184" lon="35.7256012">
<ele>988.16</ele>
<time>2015-11-22T08:09:57Z</time>
</trkpt>
<trkpt lat="30.9926264" lon="35.7256578">
<ele>987.78</ele>
<time>2015-11-22T08:09:58Z</time>
</trkpt>
<trkpt lat="30.9925323" lon="35.7257096">
<ele>988.09</ele>
<time>2015-11-22T08:09:59Z</time>
</trkpt>
<trkpt lat="30.9924387" lon="35.7257613">
<ele>988.24</ele>
<time>2015-11-22T08:10:00Z</time>
</trkpt>
<trkpt lat="30.9923524" lon="35.7258091">
<ele>988.82</ele>
<time>2015-11-22T08:10:01Z</time>
</trkpt>
<trkpt lat="30.9922664" lon="35.7258560">
<ele>987.61</ele>
<time>2015-11-22T08:10:02Z</time>
</trkpt>
<trkpt lat="30.9921812" lon="35.7259073">
<ele>987.50</ele>
<time>2015-11-22T08:10:03Z</time>
</trkpt>
<trkpt lat="30.9920967" lon="35.7259567">
<ele>987.45</ele>
<time>2015-11-22T08:10:04Z</time>
</trkpt>
<trkpt lat="30.9920070" lon="35.7260087">
<ele>988.42</ele>
<time>2015-11-22T08:10:05Z</time>
</trkpt>
<trkpt lat="30.9919260" lon="35.7260632">
<ele>989.41</ele>
<time>2015-11-22T08:10:06Z</time>
</trkpt>
<trkpt lat="30.9918429" lon="35.7261216">
<ele>989.90</ele>
<time>2015-11-22T08:10:07Z</time>
</trkpt>
<trkpt lat="30.9917554" lon="35.7261816">
<ele>989.15</ele>
<time>2015-11-22T08:10:08Z</time>
</trkpt>
<trkpt lat="30.9916788" lon="35.7262296">
<ele>989.27</ele>
<time>2015-11-22T08:10:09Z</time>
</trkpt>
<trkpt lat="30.9915942" lon="35.7262958">
<ele>987.84</ele>
<time>2015-11-22T08:10:10Z</time>
</trkpt>
<trkpt lat="30.9915087" lon="35.7263655">
<ele>988.12</ele>
<time>2015-11-22T08:10:11Z</time>
</trkpt>
<trkpt lat="30.9914311" lon="35.7264386">
<ele>988.26</ele>
<time>2015-11-22T08:10:12Z</time>
</trkpt>
<trkpt lat="30.9913630" lon="35.7265228">
<ele>988.83</ele>
<time>2015-11-22T08:10:13Z</time>
</trkpt>
<trkpt lat="30.9912944" lon="35.7266119">
<ele>987.61</ele>
<time>2015-11-22T08:10:14Z</time>
</trkpt>
<trkpt lat="30.9912256" lon="35.7266972">
<ele>987.50</ele>
<time>2015-11-22T08:10:15Z</time>
</trkpt>
<trkpt lat="30.9911644" lon="35.7267724">
<ele>987.95</ele>
<time>2015-11-22T08:10:16Z</time>
</trkpt>
<trkpt lat="30.9910980" lon="35.7268641">
<ele>988.67</ele>
<time>2015-11-22T08:10:17Z</time>
</trkpt>
<trkpt lat="30.9910263" lon="35.7269520">
<ele>989.04</ele>
<time>2015-11-22T08:10:18Z</time>
</trkpt>
<trkpt lat="30.9909530" lon="35.7270403">
<ele>988.22</ele>
<time>2015-11-22T08:10:19Z</time>
</trkpt>
<trkpt lat="30.9908921" lon="35.7271198">
<ele>987.31</ele>
<time>2015-11-22T08:10:20Z</time>
</trkpt>
<trkpt lat="30.9908281" lon="35.7272020">
<ele>985.35</ele>
<time>2015-11-22T08:10:21Z</time>
</trkpt>
<trkpt lat="30.9907561" lon="35.7272875">
<ele>984.37</ele>
<time>2015-11-22T08:10:22Z</time>
</trkpt>
<trkpt lat="30.9906884" lon="35.7273761">
<ele>984.39</ele>
<time>2015-11-22T08:10:23Z</time>
</trkpt>
<trkpt lat="30.9906188" lon="35.7274620">
<ele>984.39</ele>
<time>2015-11-22T08:10:24Z</time>
</trkpt>
<trkpt lat="30.9905566" lon="35.7275515">
<ele>983.89</ele>
<time>2015-11-22T08:10:25Z</time>
</trkpt>
<trkpt lat="30.9904940" lon="35.7276456">
<ele>983.65</ele>
<time>2015-11-22T08:10:26Z</time>
</trkpt>
<trkpt lat="30.9904320" lon="35.7277342">
<ele>984.52</ele>
<time>2015-11-22T08:10:27Z</time>
</trkpt>
<trkpt lat="30.9903761" lon="35.7278131">
<ele>984.46</ele>
<time>2015-11-22T08:10:28Z</time>
</trkpt>
<trkpt lat="30.9903014" lon="35.7279022">
<ele>985.43</ele>
<time>2015-11-22T08:10:29Z</time>
</trkpt>
<trkpt lat="30.9902467" lon="35.7279811">
<ele>984.91</ele>
<time>2015-11-22T08:10:30Z</time>
</trkpt>
<trkpt lat="30.9901771" lon="35.7280613">
<ele>986.15</ele>
<time>2015-11-22T08:10:31Z</time>
</trkpt>
<trkpt lat="30.9901205" lon="35.7281328">
<ele>985.78</ele>
<time>2015-11-22T08:10:32Z</time>
</trkpt>
<trkpt lat="30.9900626" lon="35.7282055">
<ele>983.59</ele>
<time>2015-11-22T08:10:33Z</time>
</trkpt>
<trkpt lat="30.9900082" lon="35.7282782">
<ele>980.49</ele>
<time>2015-11-22T08:10:34Z</time>
</trkpt>
<trkpt lat="30.9899493" lon="35.7283542">
<ele>978.94</ele>
<time>2015-11-22T08:10:35Z</time>
</trkpt>
<trkpt lat="30.9898967" lon="35.7284247">
<ele>979.67</ele>
<time>2015-11-22T08:10:36Z</time>
</trkpt>
<trkpt lat="30.9898479" lon="35.7284866">
<ele>980.03</ele>
<time>2015-11-22T08:10:37Z</time>
</trkpt>
<trkpt lat="30.9898018" lon="35.7285403">
<ele>975.72</ele>
<time>2015-11-22T08:10:38Z</time>
</trkpt>
<trkpt lat="30.9897422" lon="35.7286114">
<ele>967.56</ele>
<time>2015-11-22T08:10:39Z</time>
</trkpt>
<trkpt lat="30.9896924" lon="35.7286802">
<ele>963.48</ele>
<time>2015-11-22T08:10:40Z</time>
</trkpt>
<trkpt lat="30.9896449" lon="35.7287558">
<ele>956.94</ele>
<time>2015-11-22T08:10:41Z</time>
</trkpt>
<trkpt lat="30.9895886" lon="35.7288208">
<ele>950.17</ele>
<time>2015-11-22T08:10:42Z</time>
</trkpt>
<trkpt lat="30.9895485" lon="35.7288687">
<ele>942.28</ele>
<time>2015-11-22T08:10:43Z</time>
</trkpt>
<trkpt lat="30.9895071" lon="35.7289227">
<ele>935.34</ele>
<time>2015-11-22T08:10:44Z</time>
</trkpt>
<trkpt lat="30.9894716" lon="35.7289782">
<ele>928.37</ele>
<time>2015-11-22T08:10:45Z</time>
</trkpt>
<trkpt lat="30.9894445" lon="35.7290309">
<ele>921.88</ele>
<time>2015-11-22T08:10:46Z</time>
</trkpt>
<trkpt lat="30.9894062" lon="35.7290903">
<ele>917.64</ele>
<time>2015-11-22T08:10:47Z</time>
</trkpt>
<trkpt lat="30.9893594" lon="35.7291608">
<ele>914.52</ele>
<time>2015-11-22T08:10:48Z</time>
</trkpt>
<trkpt lat="30.9893135" lon="35.7292371">
<ele>912.46</ele>
<time>2015-11-22T08:10:49Z</time>
</trkpt>
<trkpt lat="30.9892765" lon="35.7292970">
<ele>910.93</ele>
<time>2015-11-22T08:10:50Z</time>
</trkpt>
<trkpt lat="30.9892477" lon="35.7293603">
<ele>910.66</ele>
<time>2015-11-22T08:10:51Z</time>
</trkpt>
<trkpt lat="30.9892306" lon="35.7294137">
<ele>909.53</ele>
<time>2015-11-22T08:10:52Z</time>
</trkpt>
<trkpt lat="30.9891961" lon="35.7294766">
<ele>908.96</ele>
<time>2015-11-22T08:10:53Z</time>
</trkpt>
<trkpt lat="30.9891740" lon="35.7295384">
<ele>908.68</ele>
<time>2015-11-22T08:10:54Z</time>
</trkpt>
<trkpt lat="30.9891584" lon="35.7296016">
<ele>908.54</ele>
<time>2015-11-22T08:10:55Z</time>
</trkpt>
<trkpt lat="30.9891437" lon="35.7297084">
<ele>933.43</ele>
<time>2015-11-22T08:10:57Z</time>
</trkpt>
<trkpt lat="30.9891313" lon="35.7297756">
<ele>945.41</ele>
<time>2015-11-22T08:10:58Z</time>
</trkpt>
<trkpt lat="30.9891157" lon="35.7298250">
<ele>951.91</ele>
<time>2015-11-22T08:10:59Z</time>
</trkpt>
<trkpt lat="30.9890927" lon="35.7298865">
<ele>956.15</ele>
<time>2015-11-22T08:11:00Z</time>
</trkpt>
<trkpt lat="30.9890986" lon="35.7299404">
<ele>958.77</ele>
<time>2015-11-22T08:11:01Z</time>
</trkpt>
<trkpt lat="30.9890865" lon="35.7300450">
<ele>959.49</ele>
<time>2015-11-22T08:11:03Z</time>
</trkpt>
<trkpt lat="30.9890643" lon="35.7301230">
<ele>958.92</ele>
<time>2015-11-22T08:11:05Z</time>
</trkpt>
<trkpt lat="30.9890652" lon="35.7301813">
<ele>957.53</ele>
<time>2015-11-22T08:11:07Z</time>
</trkpt>
<trkpt lat="30.9890630" lon="35.7302504">
<ele>953.04</ele>
<time>2015-11-22T08:11:10Z</time>
</trkpt>
<trkpt lat="30.9890652" lon="35.7303058">
<ele>954.73</ele>
<time>2015-11-22T08:11:13Z</time>
</trkpt>
<trkpt lat="30.9890595" lon="35.7303743">
<ele>954.94</ele>
<time>2015-11-22T08:11:16Z</time>
</trkpt>
<trkpt lat="30.9890543" lon="35.7304446">
<ele>955.09</ele>
<time>2015-11-22T08:11:19Z</time>
</trkpt>
<trkpt lat="30.9890525" lon="35.7305009">
<ele>953.32</ele>
<time>2015-11-22T08:11:21Z</time>
</trkpt>
<trkpt lat="30.9890519" lon="35.7305576">
<ele>951.63</ele>
<time>2015-11-22T08:11:23Z</time>
</trkpt>
<trkpt lat="30.9890470" lon="35.7306217">
<ele>953.45</ele>
<time>2015-11-22T08:11:25Z</time>
</trkpt>
<trkpt lat="30.9890488" lon="35.7307029">
<ele>953.66</ele>
<time>2015-11-22T08:11:27Z</time>
</trkpt>
<trkpt lat="30.9890536" lon="35.7307952">
<ele>950.46</ele>
<time>2015-11-22T08:11:29Z</time>
</trkpt>
<trkpt lat="30.9890590" lon="35.7308935">
<ele>952.16</ele>
<time>2015-11-22T08:11:31Z</time>
</trkpt>
<trkpt lat="30.9890591" lon="35.7309972">
<ele>950.59</ele>
<time>2015-11-22T08:11:33Z</time>
</trkpt>
<trkpt lat="30.9890555" lon="35.7310898">
<ele>950.99</ele>
<time>2015-11-22T08:11:34Z</time>
</trkpt>
<trkpt lat="30.9890562" lon="35.7311542">
<ele>951.69</ele>
<time>2015-11-22T08:11:35Z</time>
</trkpt>
<trkpt lat="30.9890519" lon="35.7312132">
<ele>950.05</ele>
<time>2015-11-22T08:11:36Z</time>
</trkpt>
<trkpt lat="30.9890506" lon="35.7312764">
<ele>948.72</ele>
<time>2015-11-22T08:11:37Z</time>
</trkpt>
<trkpt lat="30.9890438" lon="35.7313426">
<ele>946.06</ele>
<time>2015-11-22T08:11:38Z</time>
</trkpt>
<trkpt lat="30.9890431" lon="35.7314042">
<ele>943.73</ele>
<time>2015-11-22T08:11:39Z</time>
</trkpt>
<trkpt lat="30.9890421" lon="35.7314734">
<ele>941.06</ele>
<time>2015-11-22T08:11:40Z</time>
</trkpt>
<trkpt lat="30.9890433" lon="35.7315357">
<ele>939.73</ele>
<time>2015-11-22T08:11:41Z</time>
</trkpt>
<trkpt lat="30.9890450" lon="35.7315976">
<ele>940.06</ele>
<time>2015-11-22T08:11:42Z</time>
</trkpt>
<trkpt lat="30.9890495" lon="35.7316684">
<ele>940.23</ele>
<time>2015-11-22T08:11:43Z</time>
</trkpt>
<trkpt lat="30.9890462" lon="35.7317342">
<ele>940.31</ele>
<time>2015-11-22T08:11:44Z</time>
</trkpt>
<trkpt lat="30.9890440" lon="35.7318026">
<ele>938.36</ele>
<time>2015-11-22T08:11:45Z</time>
</trkpt>
<trkpt lat="30.9890441" lon="35.7318726">
<ele>939.38</ele>
<time>2015-11-22T08:11:46Z</time>
</trkpt>
<trkpt lat="30.9890407" lon="35.7319430">
<ele>940.39</ele>
<time>2015-11-22T08:11:47Z</time>
</trkpt>
<trkpt lat="30.9890425" lon="35.7320177">
<ele>939.89</ele>
<time>2015-11-22T08:11:48Z</time>
</trkpt>
<trkpt lat="30.9890407" lon="35.7320868">
<ele>943.14</ele>
<time>2015-11-22T08:11:49Z</time>
</trkpt>
<trkpt lat="30.9890384" lon="35.7321575">
<ele>942.27</ele>
<time>2015-11-22T08:11:50Z</time>
</trkpt>
<trkpt lat="30.9890320" lon="35.7322244">
<ele>941.33</ele>
<time>2015-11-22T08:11:51Z</time>
</trkpt>
<trkpt lat="30.9890303" lon="35.7323008">
<ele>939.37</ele>
<time>2015-11-22T08:11:52Z</time>
</trkpt>
<trkpt lat="30.9890264" lon="35.7323750">
<ele>941.38</ele>
<time>2015-11-22T08:11:53Z</time>
</trkpt>
<trkpt lat="30.9890127" lon="35.7324510">
<ele>941.39</ele>
<time>2015-11-22T08:11:54Z</time>
</trkpt>
<trkpt lat="30.9890002" lon="35.7325265">
<ele>942.89</ele>
<time>2015-11-22T08:11:55Z</time>
</trkpt>
<trkpt lat="30.9889897" lon="35.7326059">
<ele>943.15</ele>
<time>2015-11-22T08:11:56Z</time>
</trkpt>
<trkpt lat="30.9889724" lon="35.7326782">
<ele>942.77</ele>
<time>2015-11-22T08:11:57Z</time>
</trkpt>
<trkpt lat="30.9889492" lon="35.7327557">
<ele>942.58</ele>
<time>2015-11-22T08:11:58Z</time>
</trkpt>
<trkpt lat="30.9889234" lon="35.7328312">
<ele>943.99</ele>
<time>2015-11-22T08:11:59Z</time>
</trkpt>
<trkpt lat="30.9889020" lon="35.7329103">
<ele>944.19</ele>
<time>2015-11-22T08:12:00Z</time>
</trkpt>
<trkpt lat="30.9888796" lon="35.7329853">
<ele>944.80</ele>
<time>2015-11-22T08:12:01Z</time>
</trkpt>
<trkpt lat="30.9888516" lon="35.7330544">
<ele>946.10</ele>
<time>2015-11-22T08:12:02Z</time>
</trkpt>
<trkpt lat="30.9888178" lon="35.7331234">
<ele>945.75</ele>
<time>2015-11-22T08:12:03Z</time>
</trkpt>
<trkpt lat="30.9887860" lon="35.7331931">
<ele>947.57</ele>
<time>2015-11-22T08:12:04Z</time>
</trkpt>
<trkpt lat="30.9887478" lon="35.7332644">
<ele>946.98</ele>
<time>2015-11-22T08:12:05Z</time>
</trkpt>
<trkpt lat="30.9887062" lon="35.7333286">
<ele>949.19</ele>
<time>2015-11-22T08:12:06Z</time>
</trkpt>
<trkpt lat="30.9886732" lon="35.7333970">
<ele>949.29</ele>
<time>2015-11-22T08:12:07Z</time>
</trkpt>
<trkpt lat="30.9885993" lon="35.7335450">
<ele>948.35</ele>
<time>2015-11-22T08:12:09Z</time>
</trkpt>
<trkpt lat="30.9885490" lon="35.7336205">
<ele>951.37</ele>
<time>2015-11-22T08:12:10Z</time>
</trkpt>
<trkpt lat="30.9885102" lon="35.7336837">
<ele>951.38</ele>
<time>2015-11-22T08:12:11Z</time>
</trkpt>
<trkpt lat="30.9884662" lon="35.7337576">
<ele>950.89</ele>
<time>2015-11-22T08:12:12Z</time>
</trkpt>
<trkpt lat="30.9884184" lon="35.7338288">
<ele>951.64</ele>
<time>2015-11-22T08:12:13Z</time>
</trkpt>
<trkpt lat="30.9883716" lon="35.7338969">
<ele>951.52</ele>
<time>2015-11-22T08:12:14Z</time>
</trkpt>
<trkpt lat="30.9883204" lon="35.7339730">
<ele>952.46</ele>
<time>2015-11-22T08:12:15Z</time>
</trkpt>
<trkpt lat="30.9882823" lon="35.7340462">
<ele>950.93</ele>
<time>2015-11-22T08:12:16Z</time>
</trkpt>
<trkpt lat="30.9882356" lon="35.7341279">
<ele>947.66</ele>
<time>2015-11-22T08:12:17Z</time>
</trkpt>
<trkpt lat="30.9881951" lon="35.7342030">
<ele>943.53</ele>
<time>2015-11-22T08:12:18Z</time>
</trkpt>
<trkpt lat="30.9881539" lon="35.7342769">
<ele>939.96</ele>
<time>2015-11-22T08:12:19Z</time>
</trkpt>
<trkpt lat="30.9881146" lon="35.7343535">
<ele>938.18</ele>
<time>2015-11-22T08:12:20Z</time>
</trkpt>
<trkpt lat="30.9880626" lon="35.7344374">
<ele>937.29</ele>
<time>2015-11-22T08:12:21Z</time>
</trkpt>
<trkpt lat="30.9880178" lon="35.7345237">
<ele>938.34</ele>
<time>2015-11-22T08:12:22Z</time>
</trkpt>
<trkpt lat="30.9879680" lon="35.7346143">
<ele>936.37</ele>
<time>2015-11-22T08:12:23Z</time>
</trkpt>
<trkpt lat="30.9879206" lon="35.7347051">
<ele>935.38</ele>
<time>2015-11-22T08:12:24Z</time>
</trkpt>
<trkpt lat="30.9878642" lon="35.7347816">
<ele>935.39</ele>
<time>2015-11-22T08:12:25Z</time>
</trkpt>
<trkpt lat="30.9878118" lon="35.7348660">
<ele>935.89</ele>
<time>2015-11-22T08:12:26Z</time>
</trkpt>
<trkpt lat="30.9877646" lon="35.7349484">
<ele>936.15</ele>
<time>2015-11-22T08:12:27Z</time>
</trkpt>
<trkpt lat="30.9877117" lon="35.7350313">
<ele>938.77</ele>
<time>2015-11-22T08:12:28Z</time>
</trkpt>
<trkpt lat="30.9876565" lon="35.7351263">
<ele>939.08</ele>
<time>2015-11-22T08:12:29Z</time>
</trkpt>
<trkpt lat="30.9875999" lon="35.7352233">
<ele>941.74</ele>
<time>2015-11-22T08:12:30Z</time>
</trkpt>
<trkpt lat="30.9875449" lon="35.7353049">
<ele>944.07</ele>
<time>2015-11-22T08:12:31Z</time>
</trkpt>
<trkpt lat="30.9874908" lon="35.7353903">
<ele>945.23</ele>
<time>2015-11-22T08:12:32Z</time>
</trkpt>
<trkpt lat="30.9874347" lon="35.7354756">
<ele>942.81</ele>
<time>2015-11-22T08:12:33Z</time>
</trkpt>
<trkpt lat="30.9873864" lon="35.7355602">
<ele>940.11</ele>
<time>2015-11-22T08:12:34Z</time>
</trkpt>
<trkpt lat="30.9873300" lon="35.7356518">
<ele>941.25</ele>
<time>2015-11-22T08:12:35Z</time>
</trkpt>
<trkpt lat="30.9872728" lon="35.7357430">
<ele>946.82</ele>
<time>2015-11-22T08:12:36Z</time>
</trkpt>
<trkpt lat="30.9872167" lon="35.7358343">
<ele>948.11</ele>
<time>2015-11-22T08:12:37Z</time>
</trkpt>
<trkpt lat="30.9871642" lon="35.7359268">
<ele>949.25</ele>
<time>2015-11-22T08:12:38Z</time>
</trkpt>
<trkpt lat="30.9871028" lon="35.7360259">
<ele>950.83</ele>
<time>2015-11-22T08:12:39Z</time>
</trkpt>
<trkpt lat="30.9870417" lon="35.7361255">
<ele>952.61</ele>
<time>2015-11-22T08:12:40Z</time>
</trkpt>
<trkpt lat="30.9869826" lon="35.7362179">
<ele>951.50</ele>
<time>2015-11-22T08:12:41Z</time>
</trkpt>
<trkpt lat="30.9869203" lon="35.7363018">
<ele>951.45</ele>
<time>2015-11-22T08:12:42Z</time>
</trkpt>
<trkpt lat="30.9868600" lon="35.7363908">
<ele>950.42</ele>
<time>2015-11-22T08:12:43Z</time>
</trkpt>
<trkpt lat="30.9868025" lon="35.7364834">
<ele>948.41</ele>
<time>2015-11-22T08:12:44Z</time>
</trkpt>
<trkpt lat="30.9867427" lon="35.7365866">
<ele>946.40</ele>
<time>2015-11-22T08:12:45Z</time>
</trkpt>
<trkpt lat="30.9866873" lon="35.7366817">
<ele>944.40</ele>
<time>2015-11-22T08:12:46Z</time>
</trkpt>
<trkpt lat="30.9866314" lon="35.7367824">
<ele>942.90</ele>
<time>2015-11-22T08:12:47Z</time>
</trkpt>
<trkpt lat="30.9865809" lon="35.7368733">
<ele>947.65</ele>
<time>2015-11-22T08:12:48Z</time>
</trkpt>
<trkpt lat="30.9865205" lon="35.7369725">
<ele>948.52</ele>
<time>2015-11-22T08:12:49Z</time>
</trkpt>
<trkpt lat="30.9864588" lon="35.7370692">
<ele>948.46</ele>
<time>2015-11-22T08:12:50Z</time>
</trkpt>
<trkpt lat="30.9863916" lon="35.7371587">
<ele>948.93</ele>
<time>2015-11-22T08:12:51Z</time>
</trkpt>
<trkpt lat="30.9863154" lon="35.7372396">
<ele>949.16</ele>
<time>2015-11-22T08:12:52Z</time>
</trkpt>
<trkpt lat="30.9862406" lon="35.7373221">
<ele>947.28</ele>
<time>2015-11-22T08:12:53Z</time>
</trkpt>
<trkpt lat="30.9861625" lon="35.7373958">
<ele>944.84</ele>
<time>2015-11-22T08:12:54Z</time>
</trkpt>
<trkpt lat="30.9860762" lon="35.7374728">
<ele>945.62</ele>
<time>2015-11-22T08:12:55Z</time>
</trkpt>
<trkpt lat="30.9860080" lon="35.7375416">
<ele>947.51</ele>
<time>2015-11-22T08:12:56Z</time>
</trkpt>
<trkpt lat="30.9859170" lon="35.7376263">
<ele>949.95</ele>
<time>2015-11-22T08:12:57Z</time>
</trkpt>
<trkpt lat="30.9858331" lon="35.7377110">
<ele>950.17</ele>
<time>2015-11-22T08:12:58Z</time>
</trkpt>
<trkpt lat="30.9857524" lon="35.7377932">
<ele>949.79</ele>
<time>2015-11-22T08:12:59Z</time>
</trkpt>
<trkpt lat="30.9856704" lon="35.7378666">
<ele>949.59</ele>
<time>2015-11-22T08:13:00Z</time>
</trkpt>
<trkpt lat="30.9855939" lon="35.7379432">
<ele>948.99</ele>
<time>2015-11-22T08:13:01Z</time>
</trkpt>
<trkpt lat="30.9855136" lon="35.7380247">
<ele>950.70</ele>
<time>2015-11-22T08:13:02Z</time>
</trkpt>
<trkpt lat="30.9854383" lon="35.7381058">
<ele>951.55</ele>
<time>2015-11-22T08:13:03Z</time>
</trkpt>
<trkpt lat="30.9853699" lon="35.7381925">
<ele>950.97</ele>
<time>2015-11-22T08:13:04Z</time>
</trkpt>
<trkpt lat="30.9853083" lon="35.7382867">
<ele>950.18</ele>
<time>2015-11-22T08:13:05Z</time>
</trkpt>
<trkpt lat="30.9852467" lon="35.7383701">
<ele>948.79</ele>
<time>2015-11-22T08:13:06Z</time>
</trkpt>
<trkpt lat="30.9851821" lon="35.7384649">
<ele>948.59</ele>
<time>2015-11-22T08:13:07Z</time>
</trkpt>
<trkpt lat="30.9851278" lon="35.7385550">
<ele>947.50</ele>
<time>2015-11-22T08:13:08Z</time>
</trkpt>
<trkpt lat="30.9850748" lon="35.7386516">
<ele>947.45</ele>
<time>2015-11-22T08:13:09Z</time>
</trkpt>
<trkpt lat="30.9850366" lon="35.7387407">
<ele>946.92</ele>
<time>2015-11-22T08:13:10Z</time>
</trkpt>
<trkpt lat="30.9849873" lon="35.7388410">
<ele>945.66</ele>
<time>2015-11-22T08:13:11Z</time>
</trkpt>
<trkpt lat="30.9849528" lon="35.7389465">
<ele>945.53</ele>
<time>2015-11-22T08:13:12Z</time>
</trkpt>
<trkpt lat="30.9849270" lon="35.7390436">
<ele>943.46</ele>
<time>2015-11-22T08:13:13Z</time>
</trkpt>
<trkpt lat="30.9848978" lon="35.7391417">
<ele>939.93</ele>
<time>2015-11-22T08:13:14Z</time>
</trkpt>
<trkpt lat="30.9848657" lon="35.7392518">
<ele>938.16</ele>
<time>2015-11-22T08:13:15Z</time>
</trkpt>
<trkpt lat="30.9848545" lon="35.7393432">
<ele>939.78</ele>
<time>2015-11-22T08:13:16Z</time>
</trkpt>
<trkpt lat="30.9848299" lon="35.7394369">
<ele>939.09</ele>
<time>2015-11-22T08:13:17Z</time>
</trkpt>
<trkpt lat="30.9848061" lon="35.7395216">
<ele>937.24</ele>
<time>2015-11-22T08:13:18Z</time>
</trkpt>
<trkpt lat="30.9847723" lon="35.7396169">
<ele>934.82</ele>
<time>2015-11-22T08:13:19Z</time>
</trkpt>
<trkpt lat="30.9847262" lon="35.7397190">
<ele>939.61</ele>
<time>2015-11-22T08:13:20Z</time>
</trkpt>
<trkpt lat="30.9847070" lon="35.7398073">
<ele>942.00</ele>
<time>2015-11-22T08:13:21Z</time>
</trkpt>
<trkpt lat="30.9846796" lon="35.7398985">
<ele>941.20</ele>
<time>2015-11-22T08:13:22Z</time>
</trkpt>
<trkpt lat="30.9846574" lon="35.7399801">
<ele>937.80</ele>
<time>2015-11-22T08:13:23Z</time>
</trkpt>
<trkpt lat="30.9846327" lon="35.7400694">
<ele>934.60</ele>
<time>2015-11-22T08:13:24Z</time>
</trkpt>
<trkpt lat="30.9846103" lon="35.7401600">
<ele>935.00</ele>
<time>2015-11-22T08:13:25Z</time>
</trkpt>
<trkpt lat="30.9845865" lon="35.7402358">
<ele>931.70</ele>
<time>2015-11-22T08:13:26Z</time>
</trkpt>
<trkpt lat="30.9845631" lon="35.7403084">
<ele>932.05</ele>
<time>2015-11-22T08:13:27Z</time>
</trkpt>
<trkpt lat="30.9845423" lon="35.7403860">
<ele>928.72</ele>
<time>2015-11-22T08:13:28Z</time>
</trkpt>
<trkpt lat="30.9845137" lon="35.7404663">
<ele>930.56</ele>
<time>2015-11-22T08:13:29Z</time>
</trkpt>
<trkpt lat="30.9844912" lon="35.7405452">
<ele>933.48</ele>
<time>2015-11-22T08:13:30Z</time>
</trkpt>
<trkpt lat="30.9844682" lon="35.7406250">
<ele>933.94</ele>
<time>2015-11-22T08:13:31Z</time>
</trkpt>
<trkpt lat="30.9844492" lon="35.7406958">
<ele>935.67</ele>
<time>2015-11-22T08:13:32Z</time>
</trkpt>
<trkpt lat="30.9844121" lon="35.7407819">
<ele>939.03</ele>
<time>2015-11-22T08:13:33Z</time>
</trkpt>
<trkpt lat="30.9843934" lon="35.7408464">
<ele>938.71</ele>
<time>2015-11-22T08:13:34Z</time>
</trkpt>
<trkpt lat="30.9843702" lon="35.7409218">
<ele>937.06</ele>
<time>2015-11-22T08:13:35Z</time>
</trkpt>
<trkpt lat="30.9843527" lon="35.7409940">
<ele>938.23</ele>
<time>2015-11-22T08:13:36Z</time>
</trkpt>
<trkpt lat="30.9843358" lon="35.7410714">
<ele>938.81</ele>
<time>2015-11-22T08:13:37Z</time>
</trkpt>
<trkpt lat="30.9843142" lon="35.7411348">
<ele>938.60</ele>
<time>2015-11-22T08:13:38Z</time>
</trkpt>
<trkpt lat="30.9842945" lon="35.7412048">
<ele>936.50</ele>
<time>2015-11-22T08:13:39Z</time>
</trkpt>
<trkpt lat="30.9842767" lon="35.7412682">
<ele>937.45</ele>
<time>2015-11-22T08:13:40Z</time>
</trkpt>
<trkpt lat="30.9842565" lon="35.7413353">
<ele>937.92</ele>
<time>2015-11-22T08:13:41Z</time>
</trkpt>
<trkpt lat="30.9842321" lon="35.7414064">
<ele>937.66</ele>
<time>2015-11-22T08:13:42Z</time>
</trkpt>
<trkpt lat="30.9841990" lon="35.7415426">
<ele>935.03</ele>
<time>2015-11-22T08:13:44Z</time>
</trkpt>
<trkpt lat="30.9841764" lon="35.7416181">
<ele>929.21</ele>
<time>2015-11-22T08:13:45Z</time>
</trkpt>
<trkpt lat="30.9841505" lon="35.7416954">
<ele>928.80</ele>
<time>2015-11-22T08:13:46Z</time>
</trkpt>
<trkpt lat="30.9841349" lon="35.7417688">
<ele>928.60</ele>
<time>2015-11-22T08:13:47Z</time>
</trkpt>
<trkpt lat="30.9841166" lon="35.7418502">
<ele>926.00</ele>
<time>2015-11-22T08:13:48Z</time>
</trkpt>
<trkpt lat="30.9840940" lon="35.7419324">
<ele>923.20</ele>
<time>2015-11-22T08:13:49Z</time>
</trkpt>
<trkpt lat="30.9840705" lon="35.7420130">
<ele>921.30</ele>
<time>2015-11-22T08:13:50Z</time>
</trkpt>
<trkpt lat="30.9840528" lon="35.7421126">
<ele>923.35</ele>
<time>2015-11-22T08:13:51Z</time>
</trkpt>
<trkpt lat="30.9840394" lon="35.7422014">
<ele>923.87</ele>
<time>2015-11-22T08:13:52Z</time>
</trkpt>
<trkpt lat="30.9840170" lon="35.7422969">
<ele>921.63</ele>
<time>2015-11-22T08:13:53Z</time>
</trkpt>
<trkpt lat="30.9839930" lon="35.7423886">
<ele>920.52</ele>
<time>2015-11-22T08:13:54Z</time>
</trkpt>
<trkpt lat="30.9839695" lon="35.7424880">
<ele>920.96</ele>
<time>2015-11-22T08:13:55Z</time>
</trkpt>
<trkpt lat="30.9839482" lon="35.7425968">
<ele>921.18</ele>
<time>2015-11-22T08:13:56Z</time>
</trkpt>
<trkpt lat="30.9839244" lon="35.7427008">
<ele>916.79</ele>
<time>2015-11-22T08:13:57Z</time>
</trkpt>
<trkpt lat="30.9839003" lon="35.7428068">
<ele>916.59</ele>
<time>2015-11-22T08:13:58Z</time>
</trkpt>
<trkpt lat="30.9838740" lon="35.7429227">
<ele>918.99</ele>
<time>2015-11-22T08:13:59Z</time>
</trkpt>
<trkpt lat="30.9838458" lon="35.7430432">
<ele>920.70</ele>
<time>2015-11-22T08:14:00Z</time>
</trkpt>
<trkpt lat="30.9838098" lon="35.7431657">
<ele>922.05</ele>
<time>2015-11-22T08:14:01Z</time>
</trkpt>
<trkpt lat="30.9837829" lon="35.7432954">
<ele>925.22</ele>
<time>2015-11-22T08:14:02Z</time>
</trkpt>
<trkpt lat="30.9837436" lon="35.7434292">
<ele>925.81</ele>
<time>2015-11-22T08:14:03Z</time>
</trkpt>
<trkpt lat="30.9837030" lon="35.7435525">
<ele>928.60</ele>
<time>2015-11-22T08:14:04Z</time>
</trkpt>
<trkpt lat="30.9836681" lon="35.7436855">
<ele>927.50</ele>
<time>2015-11-22T08:14:05Z</time>
</trkpt>
<trkpt lat="30.9836292" lon="35.7438291">
<ele>930.95</ele>
<time>2015-11-22T08:14:06Z</time>
</trkpt>
<trkpt lat="30.9835985" lon="35.7439584">
<ele>930.67</ele>
<time>2015-11-22T08:14:07Z</time>
</trkpt>
<trkpt lat="30.9835300" lon="35.7442273">
<ele>929.03</ele>
<time>2015-11-22T08:14:09Z</time>
</trkpt>
<trkpt lat="30.9834982" lon="35.7443663">
<ele>925.22</ele>
<time>2015-11-22T08:14:10Z</time>
</trkpt>
<trkpt lat="30.9834682" lon="35.7444955">
<ele>921.31</ele>
<time>2015-11-22T08:14:11Z</time>
</trkpt>
<trkpt lat="30.9834332" lon="35.7446276">
<ele>920.35</ele>
<time>2015-11-22T08:14:12Z</time>
</trkpt>
<trkpt lat="30.9833945" lon="35.7447622">
<ele>920.37</ele>
<time>2015-11-22T08:14:13Z</time>
</trkpt>
<trkpt lat="30.9833538" lon="35.7448991">
<ele>917.89</ele>
<time>2015-11-22T08:14:14Z</time>
</trkpt>
<trkpt lat="30.9833010" lon="35.7450372">
<ele>920.14</ele>
<time>2015-11-22T08:14:15Z</time>
</trkpt>
<trkpt lat="30.9832534" lon="35.7451679">
<ele>919.77</ele>
<time>2015-11-22T08:14:16Z</time>
</trkpt>
<trkpt lat="30.9832028" lon="35.7453005">
<ele>917.58</ele>
<time>2015-11-22T08:14:17Z</time>
</trkpt>
<trkpt lat="30.9831383" lon="35.7454312">
<ele>914.99</ele>
<time>2015-11-22T08:14:18Z</time>
</trkpt>
<trkpt lat="30.9830768" lon="35.7455600">
<ele>914.69</ele>
<time>2015-11-22T08:14:19Z</time>
</trkpt>
<trkpt lat="30.9830014" lon="35.7456815">
<ele>911.05</ele>
<time>2015-11-22T08:14:20Z</time>
</trkpt>
<trkpt lat="30.9829177" lon="35.7458033">
<ele>909.72</ele>
<time>2015-11-22T08:14:21Z</time>
</trkpt>
<trkpt lat="30.9828345" lon="35.7459177">
<ele>912.56</ele>
<time>2015-11-22T08:14:22Z</time>
</trkpt>
<trkpt lat="30.9827410" lon="35.7460409">
<ele>912.98</ele>
<time>2015-11-22T08:14:23Z</time>
</trkpt>
<trkpt lat="30.9826485" lon="35.7461647">
<ele>912.19</ele>
<time>2015-11-22T08:14:24Z</time>
</trkpt>
<trkpt lat="30.9825513" lon="35.7462816">
<ele>914.29</ele>
<time>2015-11-22T08:14:25Z</time>
</trkpt>
<trkpt lat="30.9824534" lon="35.7463993">
<ele>914.34</ele>
<time>2015-11-22T08:14:26Z</time>
</trkpt>
<trkpt lat="30.9823565" lon="35.7465125">
<ele>917.87</ele>
<time>2015-11-22T08:14:27Z</time>
</trkpt>
<trkpt lat="30.9822563" lon="35.7466335">
<ele>922.13</ele>
<time>2015-11-22T08:14:28Z</time>
</trkpt>
<trkpt lat="30.9821560" lon="35.7467394">
<ele>924.27</ele>
<time>2015-11-22T08:14:29Z</time>
</trkpt>
<trkpt lat="30.9820492" lon="35.7468489">
<ele>925.33</ele>
<time>2015-11-22T08:14:30Z</time>
</trkpt>
<trkpt lat="30.9819462" lon="35.7469593">
<ele>926.86</ele>
<time>2015-11-22T08:14:31Z</time>
</trkpt>
<trkpt lat="30.9818450" lon="35.7470717">
<ele>925.63</ele>
<time>2015-11-22T08:14:32Z</time>
</trkpt>
<trkpt lat="30.9817443" lon="35.7471774">
<ele>926.51</ele>
<time>2015-11-22T08:14:33Z</time>
</trkpt>
<trkpt lat="30.9816436" lon="35.7472885">
<ele>926.96</ele>
<time>2015-11-22T08:14:34Z</time>
</trkpt>
<trkpt lat="30.9815448" lon="35.7473966">
<ele>925.18</ele>
<time>2015-11-22T08:14:35Z</time>
</trkpt>
<trkpt lat="30.9814465" lon="35.7474924">
<ele>929.79</ele>
<time>2015-11-22T08:14:36Z</time>
</trkpt>
<trkpt lat="30.9813297" lon="35.7476067">
<ele>934.59</ele>
<time>2015-11-22T08:14:37Z</time>
</trkpt>
<trkpt lat="30.9812355" lon="35.7477060">
<ele>935.99</ele>
<time>2015-11-22T08:14:38Z</time>
</trkpt>
<trkpt lat="30.9811347" lon="35.7478083">
<ele>936.70</ele>
<time>2015-11-22T08:14:39Z</time>
</trkpt>
<trkpt lat="30.9810380" lon="35.7479047">
<ele>940.05</ele>
<time>2015-11-22T08:14:40Z</time>
</trkpt>
<trkpt lat="30.9809493" lon="35.7480017">
<ele>941.72</ele>
<time>2015-11-22T08:14:41Z</time>
</trkpt>
<trkpt lat="30.9808607" lon="35.7480944">
<ele>938.06</ele>
<time>2015-11-22T08:14:42Z</time>
</trkpt>
<trkpt lat="30.9807643" lon="35.7481920">
<ele>934.23</ele>
<time>2015-11-22T08:14:43Z</time>
</trkpt>
<trkpt lat="30.9806862" lon="35.7482806">
<ele>928.81</ele>
<time>2015-11-22T08:14:44Z</time>
</trkpt>
<trkpt lat="30.9806203" lon="35.7483578">
<ele>928.60</ele>
<time>2015-11-22T08:14:45Z</time>
</trkpt>
<trkpt lat="30.9805545" lon="35.7484341">
<ele>925.50</ele>
<time>2015-11-22T08:14:46Z</time>
</trkpt>
<trkpt lat="30.9804819" lon="35.7485214">
<ele>926.95</ele>
<time>2015-11-22T08:14:47Z</time>
</trkpt>
<trkpt lat="30.9804181" lon="35.7485992">
<ele>930.67</ele>
<time>2015-11-22T08:14:48Z</time>
</trkpt>
<trkpt lat="30.9803534" lon="35.7486835">
<ele>930.53</ele>
<time>2015-11-22T08:14:49Z</time>
</trkpt>
<trkpt lat="30.9803022" lon="35.7487556">
<ele>932.97</ele>
<time>2015-11-22T08:14:50Z</time>
</trkpt>
<trkpt lat="30.9802489" lon="35.7488293">
<ele>932.18</ele>
<time>2015-11-22T08:14:51Z</time>
</trkpt>
<trkpt lat="30.9801959" lon="35.7489089">
<ele>933.29</ele>
<time>2015-11-22T08:14:52Z</time>
</trkpt>
<trkpt lat="30.9801459" lon="35.7489909">
<ele>933.34</ele>
<time>2015-11-22T08:14:53Z</time>
</trkpt>
<trkpt lat="30.9800944" lon="35.7490746">
<ele>934.87</ele>
<time>2015-11-22T08:14:54Z</time>
</trkpt>
<trkpt lat="30.9800549" lon="35.7491484">
<ele>937.13</ele>
<time>2015-11-22T08:14:55Z</time>
</trkpt>
<trkpt lat="30.9800198" lon="35.7492312">
<ele>934.27</ele>
<time>2015-11-22T08:14:56Z</time>
</trkpt>
<trkpt lat="30.9799776" lon="35.7493057">
<ele>933.83</ele>
<time>2015-11-22T08:14:57Z</time>
</trkpt>
<trkpt lat="30.9799276" lon="35.7493960">
<ele>933.61</ele>
<time>2015-11-22T08:14:58Z</time>
</trkpt>
<trkpt lat="30.9798857" lon="35.7494709">
<ele>933.01</ele>
<time>2015-11-22T08:14:59Z</time>
</trkpt>
<trkpt lat="30.9798479" lon="35.7495564">
<ele>915.70</ele>
<time>2015-11-22T08:15:00Z</time>
</trkpt>
<trkpt lat="30.9798118" lon="35.7496359">
<ele>901.55</ele>
<time>2015-11-22T08:15:01Z</time>
</trkpt>
<trkpt lat="30.9797693" lon="35.7497282">
<ele>890.97</ele>
<time>2015-11-22T08:15:02Z</time>
</trkpt>
<trkpt lat="30.9797316" lon="35.7498247">
<ele>881.19</ele>
<time>2015-11-22T08:15:03Z</time>
</trkpt>
<trkpt lat="30.9796934" lon="35.7499192">
<ele>872.29</ele>
<time>2015-11-22T08:15:04Z</time>
</trkpt>
<trkpt lat="30.9796585" lon="35.7500080">
<ele>866.34</ele>
<time>2015-11-22T08:15:05Z</time>
</trkpt>
<trkpt lat="30.9796224" lon="35.7500997">
<ele>868.37</ele>
<time>2015-11-22T08:15:06Z</time>
</trkpt>
<trkpt lat="30.9795920" lon="35.7501985">
<ele>879.88</ele>
<time>2015-11-22T08:15:07Z</time>
</trkpt>
<trkpt lat="30.9795616" lon="35.7503036">
<ele>881.14</ele>
<time>2015-11-22T08:15:08Z</time>
</trkpt>
<trkpt lat="30.9795303" lon="35.7504212">
<ele>879.27</ele>
<time>2015-11-22T08:15:09Z</time>
</trkpt>
<trkpt lat="30.9795076" lon="35.7505289">
<ele>875.33</ele>
<time>2015-11-22T08:15:10Z</time>
</trkpt>
<trkpt lat="30.9794866" lon="35.7506319">
<ele>875.86</ele>
<time>2015-11-22T08:15:11Z</time>
</trkpt>
<trkpt lat="30.9794503" lon="35.7507540">
<ele>875.13</ele>
<time>2015-11-22T08:15:12Z</time>
</trkpt>
<trkpt lat="30.9794260" lon="35.7508743">
<ele>877.26</ele>
<time>2015-11-22T08:15:13Z</time>
</trkpt>
<trkpt lat="30.9794037" lon="35.7509907">
<ele>876.83</ele>
<time>2015-11-22T08:15:14Z</time>
</trkpt>
<trkpt lat="30.9793862" lon="35.7511116">
<ele>871.61</ele>
<time>2015-11-22T08:15:15Z</time>
</trkpt>
<trkpt lat="30.9793671" lon="35.7512466">
<ele>866.51</ele>
<time>2015-11-22T08:15:16Z</time>
</trkpt>
<trkpt lat="30.9793480" lon="35.7513830">
<ele>861.95</ele>
<time>2015-11-22T08:15:17Z</time>
</trkpt>
<trkpt lat="30.9793271" lon="35.7515147">
<ele>864.67</ele>
<time>2015-11-22T08:15:18Z</time>
</trkpt>
<trkpt lat="30.9793122" lon="35.7516402">
<ele>860.54</ele>
<time>2015-11-22T08:15:19Z</time>
</trkpt>
<trkpt lat="30.9792870" lon="35.7517721">
<ele>866.47</ele>
<time>2015-11-22T08:15:20Z</time>
</trkpt>
<trkpt lat="30.9792684" lon="35.7518968">
<ele>866.43</ele>
<time>2015-11-22T08:15:21Z</time>
</trkpt>
<trkpt lat="30.9792225" lon="35.7521570">
<ele>867.41</ele>
<time>2015-11-22T08:15:23Z</time>
</trkpt>
<trkpt lat="30.9792030" lon="35.7522877">
<ele>871.91</ele>
<time>2015-11-22T08:15:24Z</time>
</trkpt>
<trkpt lat="30.9791839" lon="35.7524179">
<ele>871.65</ele>
<time>2015-11-22T08:15:25Z</time>
</trkpt>
<trkpt lat="30.9791593" lon="35.7525518">
<ele>872.02</ele>
<time>2015-11-22T08:15:26Z</time>
</trkpt>
<trkpt lat="30.9791326" lon="35.7526799">
<ele>870.71</ele>
<time>2015-11-22T08:15:27Z</time>
</trkpt>
<trkpt lat="30.9791079" lon="35.7528100">
<ele>866.55</ele>
<time>2015-11-22T08:15:28Z</time>
</trkpt>
<trkpt lat="30.9790844" lon="35.7529415">
<ele>869.48</ele>
<time>2015-11-22T08:15:29Z</time>
</trkpt>
<trkpt lat="30.9790580" lon="35.7530680">
<ele>867.44</ele>
<time>2015-11-22T08:15:30Z</time>
</trkpt>
<trkpt lat="30.9790055" lon="35.7533229">
<ele>870.42</ele>
<time>2015-11-22T08:15:32Z</time>
</trkpt>
<trkpt lat="30.9789522" lon="35.7535747">
<ele>871.91</ele>
<time>2015-11-22T08:15:34Z</time>
</trkpt>
<trkpt lat="30.9789117" lon="35.7537003">
<ele>870.65</ele>
<time>2015-11-22T08:15:35Z</time>
</trkpt>
<trkpt lat="30.9788722" lon="35.7538172">
<ele>871.52</ele>
<time>2015-11-22T08:15:36Z</time>
</trkpt>
<trkpt lat="30.9788276" lon="35.7539419">
<ele>867.96</ele>
<time>2015-11-22T08:15:37Z</time>
</trkpt>
<trkpt lat="30.9787830" lon="35.7540557">
<ele>860.68</ele>
<time>2015-11-22T08:15:38Z</time>
</trkpt>
<trkpt lat="30.9787401" lon="35.7541649">
<ele>847.04</ele>
<time>2015-11-22T08:15:39Z</time>
</trkpt>
<trkpt lat="30.9786900" lon="35.7542670">
<ele>830.72</ele>
<time>2015-11-22T08:15:40Z</time>
</trkpt>
<trkpt lat="30.9786360" lon="35.7543720">
<ele>812.56</ele>
<time>2015-11-22T08:15:41Z</time>
</trkpt>
<trkpt lat="30.9785807" lon="35.7544690">
<ele>798.48</ele>
<time>2015-11-22T08:15:42Z</time>
</trkpt>
<trkpt lat="30.9785279" lon="35.7545496">
<ele>791.44</ele>
<time>2015-11-22T08:15:43Z</time>
</trkpt>
<trkpt lat="30.9784693" lon="35.7546344">
<ele>784.42</ele>
<time>2015-11-22T08:15:44Z</time>
</trkpt>
<trkpt lat="30.9784051" lon="35.7547214">
<ele>778.91</ele>
<time>2015-11-22T08:15:45Z</time>
</trkpt>
<trkpt lat="30.9783438" lon="35.7548035">
<ele>773.65</ele>
<time>2015-11-22T08:15:46Z</time>
</trkpt>
<trkpt lat="30.9782833" lon="35.7548889">
<ele>768.52</ele>
<time>2015-11-22T08:15:47Z</time>
</trkpt>
<trkpt lat="30.9782259" lon="35.7549764">
<ele>764.96</ele>
<time>2015-11-22T08:15:48Z</time>
</trkpt>
<trkpt lat="30.9781677" lon="35.7550596">
<ele>762.68</ele>
<time>2015-11-22T08:15:49Z</time>
</trkpt>
<trkpt lat="30.9780997" lon="35.7551454">
<ele>761.04</ele>
<time>2015-11-22T08:15:50Z</time>
</trkpt>
<trkpt lat="30.9780333" lon="35.7552281">
<ele>760.22</ele>
<time>2015-11-22T08:15:51Z</time>
</trkpt>
<trkpt lat="30.9779737" lon="35.7553000">
<ele>758.31</ele>
<time>2015-11-22T08:15:52Z</time>
</trkpt>
<trkpt lat="30.9779113" lon="35.7553729">
<ele>756.85</ele>
<time>2015-11-22T08:15:53Z</time>
</trkpt>
<trkpt lat="30.9778536" lon="35.7554398">
<ele>755.62</ele>
<time>2015-11-22T08:15:54Z</time>
</trkpt>
<trkpt lat="30.9777907" lon="35.7555140">
<ele>754.51</ele>
<time>2015-11-22T08:15:55Z</time>
</trkpt>
<trkpt lat="30.9777237" lon="35.7555881">
<ele>753.95</ele>
<time>2015-11-22T08:15:56Z</time>
</trkpt>
<trkpt lat="30.9776626" lon="35.7556554">
<ele>753.18</ele>
<time>2015-11-22T08:15:57Z</time>
</trkpt>
<trkpt lat="30.9776005" lon="35.7557341">
<ele>752.79</ele>
<time>2015-11-22T08:15:58Z</time>
</trkpt>
<trkpt lat="30.9775426" lon="35.7558058">
<ele>751.59</ele>
<time>2015-11-22T08:15:59Z</time>
</trkpt>
<trkpt lat="30.9774810" lon="35.7558872">
<ele>751.49</ele>
<time>2015-11-22T08:16:00Z</time>
</trkpt>
<trkpt lat="30.9774183" lon="35.7559727">
<ele>751.45</ele>
<time>2015-11-22T08:16:01Z</time>
</trkpt>
<trkpt lat="30.9773494" lon="35.7560600">
<ele>750.92</ele>
<time>2015-11-22T08:16:02Z</time>
</trkpt>
<trkpt lat="30.9772886" lon="35.7561463">
<ele>750.16</ele>
<time>2015-11-22T08:16:03Z</time>
</trkpt>
<trkpt lat="30.9772190" lon="35.7562478">
<ele>749.78</ele>
<time>2015-11-22T08:16:04Z</time>
</trkpt>
<trkpt lat="30.9771770" lon="35.7563410">
<ele>748.09</ele>
<time>2015-11-22T08:16:05Z</time>
</trkpt>
<trkpt lat="30.9771315" lon="35.7564460">
<ele>746.24</ele>
<time>2015-11-22T08:16:06Z</time>
</trkpt>
<trkpt lat="30.9770819" lon="35.7565609">
<ele>744.82</ele>
<time>2015-11-22T08:16:07Z</time>
</trkpt>
<trkpt lat="30.9770323" lon="35.7566841">
<ele>744.11</ele>
<time>2015-11-22T08:16:08Z</time>
</trkpt>
<trkpt lat="30.9769976" lon="35.7568042">
<ele>742.75</ele>
<time>2015-11-22T08:16:09Z</time>
</trkpt>
<trkpt lat="30.9769593" lon="35.7569313">
<ele>740.57</ele>
<time>2015-11-22T08:16:10Z</time>
</trkpt>
<trkpt lat="30.9769237" lon="35.7570568">
<ele>738.49</ele>
<time>2015-11-22T08:16:11Z</time>
</trkpt>
<trkpt lat="30.9768768" lon="35.7571867">
<ele>736.94</ele>
<time>2015-11-22T08:16:12Z</time>
</trkpt>
<trkpt lat="30.9768389" lon="35.7573031">
<ele>736.67</ele>
<time>2015-11-22T08:16:13Z</time>
</trkpt>
<trkpt lat="30.9767940" lon="35.7574370">
<ele>736.03</ele>
<time>2015-11-22T08:16:14Z</time>
</trkpt>
<trkpt lat="30.9767533" lon="35.7575663">
<ele>735.72</ele>
<time>2015-11-22T08:16:15Z</time>
</trkpt>
<trkpt lat="30.9766745" lon="35.7578203">
<ele>734.06</ele>
<time>2015-11-22T08:16:17Z</time>
</trkpt>
<trkpt lat="30.9766336" lon="35.7579582">
<ele>732.73</ele>
<time>2015-11-22T08:16:18Z</time>
</trkpt>
<trkpt lat="30.9765899" lon="35.7580826">
<ele>731.06</ele>
<time>2015-11-22T08:16:19Z</time>
</trkpt>
<trkpt lat="30.9765512" lon="35.7582065">
<ele>729.73</ele>
<time>2015-11-22T08:16:20Z</time>
</trkpt>
<trkpt lat="30.9765135" lon="35.7583334">
<ele>728.56</ele>
<time>2015-11-22T08:16:21Z</time>
</trkpt>
<trkpt lat="30.9764752" lon="35.7584509">
<ele>727.48</ele>
<time>2015-11-22T08:16:22Z</time>
</trkpt>
<trkpt lat="30.9764390" lon="35.7585702">
<ele>726.44</ele>
<time>2015-11-22T08:16:23Z</time>
</trkpt>
<trkpt lat="30.9763926" lon="35.7586850">
<ele>725.42</ele>
<time>2015-11-22T08:16:24Z</time>
</trkpt>
<trkpt lat="30.9763512" lon="35.7588021">
<ele>724.41</ele>
<time>2015-11-22T08:16:25Z</time>
</trkpt>
<trkpt lat="30.9762652" lon="35.7590395">
<ele>723.90</ele>
<time>2015-11-22T08:16:27Z</time>
</trkpt>
<trkpt lat="30.9762129" lon="35.7591484">
<ele>723.15</ele>
<time>2015-11-22T08:16:28Z</time>
</trkpt>
<trkpt lat="30.9761712" lon="35.7592610">
<ele>722.27</ele>
<time>2015-11-22T08:16:29Z</time>
</trkpt>
<trkpt lat="30.9761144" lon="35.7593612">
<ele>721.34</ele>
<time>2015-11-22T08:16:30Z</time>
</trkpt>
<trkpt lat="30.9760653" lon="35.7594654">
<ele>720.87</ele>
<time>2015-11-22T08:16:31Z</time>
</trkpt>
<trkpt lat="30.9760102" lon="35.7595645">
<ele>721.13</ele>
<time>2015-11-22T08:16:32Z</time>
</trkpt>
<trkpt lat="30.9759578" lon="35.7596564">
<ele>720.76</ele>
<time>2015-11-22T08:16:33Z</time>
</trkpt>
<trkpt lat="30.9759080" lon="35.7597578">
<ele>720.58</ele>
<time>2015-11-22T08:16:34Z</time>
</trkpt>
<trkpt lat="30.9758450" lon="35.7598491">
<ele>719.99</ele>
<time>2015-11-22T08:16:35Z</time>
</trkpt>
<trkpt lat="30.9757882" lon="35.7599404">
<ele>718.69</ele>
<time>2015-11-22T08:16:36Z</time>
</trkpt>
<trkpt lat="30.9757372" lon="35.7600300">
<ele>718.04</ele>
<time>2015-11-22T08:16:37Z</time>
</trkpt>
<trkpt lat="30.9756840" lon="35.7601134">
<ele>717.72</ele>
<time>2015-11-22T08:16:38Z</time>
</trkpt>
<trkpt lat="30.9756320" lon="35.7601976">
<ele>717.06</ele>
<time>2015-11-22T08:16:39Z</time>
</trkpt>
<trkpt lat="30.9755779" lon="35.7602884">
<ele>716.23</ele>
<time>2015-11-22T08:16:40Z</time>
</trkpt>
<trkpt lat="30.9755094" lon="35.7603695">
<ele>715.31</ele>
<time>2015-11-22T08:16:41Z</time>
</trkpt>
<trkpt lat="30.9754440" lon="35.7604543">
<ele>714.35</ele>
<time>2015-11-22T08:16:42Z</time>
</trkpt>
<trkpt lat="30.9753796" lon="35.7605396">
<ele>713.38</ele>
<time>2015-11-22T08:16:43Z</time>
</trkpt>
<trkpt lat="30.9753172" lon="35.7606226">
<ele>712.39</ele>
<time>2015-11-22T08:16:44Z</time>
</trkpt>
<trkpt lat="30.9752524" lon="35.7607088">
<ele>711.39</ele>
<time>2015-11-22T08:16:45Z</time>
</trkpt>
<trkpt lat="30.9751862" lon="35.7607848">
<ele>710.39</ele>
<time>2015-11-22T08:16:46Z</time>
</trkpt>
<trkpt lat="30.9751028" lon="35.7608688">
<ele>709.40</ele>
<time>2015-11-22T08:16:47Z</time>
</trkpt>
<trkpt lat="30.9750160" lon="35.7609531">
<ele>708.40</ele>
<time>2015-11-22T08:16:48Z</time>
</trkpt>
<trkpt lat="30.9749285" lon="35.7610370">
<ele>707.40</ele>
<time>2015-11-22T08:16:49Z</time>
</trkpt>
<trkpt lat="30.9748356" lon="35.7611191">
<ele>706.40</ele>
<time>2015-11-22T08:16:50Z</time>
</trkpt>
<trkpt lat="30.9746500" lon="35.7612660">
<ele>705.40</ele>
<time>2015-11-22T08:16:52Z</time>
</trkpt>
<trkpt lat="30.9745503" lon="35.7613386">
<ele>704.40</ele>
<time>2015-11-22T08:16:53Z</time>
</trkpt>
<trkpt lat="30.9744557" lon="35.7613857">
<ele>705.40</ele>
<time>2015-11-22T08:16:54Z</time>
</trkpt>
<trkpt lat="30.9743572" lon="35.7614551">
<ele>705.90</ele>
<time>2015-11-22T08:16:55Z</time>
</trkpt>
<trkpt lat="30.9742562" lon="35.7615186">
<ele>705.15</ele>
<time>2015-11-22T08:16:56Z</time>
</trkpt>
<trkpt lat="30.9741570" lon="35.7615795">
<ele>704.27</ele>
<time>2015-11-22T08:16:57Z</time>
</trkpt>
<trkpt lat="30.9740587" lon="35.7616457">
<ele>702.83</ele>
<time>2015-11-22T08:16:58Z</time>
</trkpt>
<trkpt lat="30.9739613" lon="35.7617106">
<ele>700.62</ele>
<time>2015-11-22T08:16:59Z</time>
</trkpt>
<trkpt lat="30.9738568" lon="35.7617753">
<ele>698.51</ele>
<time>2015-11-22T08:17:00Z</time>
</trkpt>
<trkpt lat="30.9737507" lon="35.7618458">
<ele>697.45</ele>
<time>2015-11-22T08:17:01Z</time>
</trkpt>
<trkpt lat="30.9736461" lon="35.7619142">
<ele>695.92</ele>
<time>2015-11-22T08:17:02Z</time>
</trkpt>
<trkpt lat="30.9735412" lon="35.7619775">
<ele>694.16</ele>
<time>2015-11-22T08:17:03Z</time>
</trkpt>
<trkpt lat="30.9734301" lon="35.7620439">
<ele>692.28</ele>
<time>2015-11-22T08:17:04Z</time>
</trkpt>
<trkpt lat="30.9733455" lon="35.7621006">
<ele>690.84</ele>
<time>2015-11-22T08:17:05Z</time>
</trkpt>
<trkpt lat="30.9732331" lon="35.7621726">
<ele>689.12</ele>
<time>2015-11-22T08:17:06Z</time>
</trkpt>
<trkpt lat="30.9731183" lon="35.7622499">
<ele>688.26</ele>
<time>2015-11-22T08:17:07Z</time>
</trkpt>
<trkpt lat="30.9730052" lon="35.7623326">
<ele>687.33</ele>
<time>2015-11-22T08:17:08Z</time>
</trkpt>
<trkpt lat="30.9728899" lon="35.7624091">
<ele>685.86</ele>
<time>2015-11-22T08:17:09Z</time>
</trkpt>
<trkpt lat="30.9727712" lon="35.7624870">
<ele>684.63</ele>
<time>2015-11-22T08:17:10Z</time>
</trkpt>
<trkpt lat="30.9726502" lon="35.7625618">
<ele>683.51</ele>
<time>2015-11-22T08:17:11Z</time>
</trkpt>
<trkpt lat="30.9725265" lon="35.7626417">
<ele>682.46</ele>
<time>2015-11-22T08:17:12Z</time>
</trkpt>
<trkpt lat="30.9724016" lon="35.7627187">
<ele>681.93</ele>
<time>2015-11-22T08:17:13Z</time>
</trkpt>
<trkpt lat="30.9722794" lon="35.7628002">
<ele>681.16</ele>
<time>2015-11-22T08:17:14Z</time>
</trkpt>
<trkpt lat="30.9721474" lon="35.7628870">
<ele>743.78</ele>
<time>2015-11-22T08:17:15Z</time>
</trkpt>
<trkpt lat="30.9720492" lon="35.7629467">
<ele>770.09</ele>
<time>2015-11-22T08:17:16Z</time>
</trkpt>
<trkpt lat="30.9719297" lon="35.7630219">
<ele>775.74</ele>
<time>2015-11-22T08:17:17Z</time>
</trkpt>
<trkpt lat="30.9718111" lon="35.7630974">
<ele>771.57</ele>
<time>2015-11-22T08:17:18Z</time>
</trkpt>
<trkpt lat="30.9716992" lon="35.7631619">
<ele>768.48</ele>
<time>2015-11-22T08:17:19Z</time>
</trkpt>
<trkpt lat="30.9715863" lon="35.7632304">
<ele>767.94</ele>
<time>2015-11-22T08:17:20Z</time>
</trkpt>
<trkpt lat="30.9714686" lon="35.7632966">
<ele>763.17</ele>
<time>2015-11-22T08:17:21Z</time>
</trkpt>
<trkpt lat="30.9713607" lon="35.7633632">
<ele>762.28</ele>
<time>2015-11-22T08:17:22Z</time>
</trkpt>
<trkpt lat="30.9712363" lon="35.7634280">
<ele>760.34</ele>
<time>2015-11-22T08:17:23Z</time>
</trkpt>
<trkpt lat="30.9711279" lon="35.7634819">
<ele>756.37</ele>
<time>2015-11-22T08:17:24Z</time>
</trkpt>
<trkpt lat="30.9710115" lon="35.7635274">
<ele>760.38</ele>
<time>2015-11-22T08:17:25Z</time>
</trkpt>
<trkpt lat="30.9708878" lon="35.7635699">
<ele>750.39</ele>
<time>2015-11-22T08:17:26Z</time>
</trkpt>
<trkpt lat="30.9707608" lon="35.7635936">
<ele>736.39</ele>
<time>2015-11-22T08:17:27Z</time>
</trkpt>
<trkpt lat="30.9706420" lon="35.7636127">
<ele>722.40</ele>
<time>2015-11-22T08:17:28Z</time>
</trkpt>
<trkpt lat="30.9705193" lon="35.7636216">
<ele>710.40</ele>
<time>2015-11-22T08:17:29Z</time>
</trkpt>
<trkpt lat="30.9703884" lon="35.7636272">
<ele>698.90</ele>
<time>2015-11-22T08:17:30Z</time>
</trkpt>
<trkpt lat="30.9702618" lon="35.7636109">
<ele>690.65</ele>
<time>2015-11-22T08:17:31Z</time>
</trkpt>
<trkpt lat="30.9701448" lon="35.7635847">
<ele>682.52</ele>
<time>2015-11-22T08:17:32Z</time>
</trkpt>
<trkpt lat="30.9700248" lon="35.7635512">
<ele>678.46</ele>
<time>2015-11-22T08:17:33Z</time>
</trkpt>
<trkpt lat="30.9699119" lon="35.7634984">
<ele>674.93</ele>
<time>2015-11-22T08:17:34Z</time>
</trkpt>
<trkpt lat="30.9698021" lon="35.7634412">
<ele>670.66</ele>
<time>2015-11-22T08:17:35Z</time>
</trkpt>
<trkpt lat="30.9696851" lon="35.7633818">
<ele>667.53</ele>
<time>2015-11-22T08:17:36Z</time>
</trkpt>
<trkpt lat="30.9695746" lon="35.7633294">
<ele>664.96</ele>
<time>2015-11-22T08:17:37Z</time>
</trkpt>
<trkpt lat="30.9694590" lon="35.7632749">
<ele>663.68</ele>
<time>2015-11-22T08:17:38Z</time>
</trkpt>
<trkpt lat="30.9693486" lon="35.7632152">
<ele>662.04</ele>
<time>2015-11-22T08:17:39Z</time>
</trkpt>
<trkpt lat="30.9692377" lon="35.7631538">
<ele>660.72</ele>
<time>2015-11-22T08:17:40Z</time>
</trkpt>
<trkpt lat="30.9691258" lon="35.7630912">
<ele>659.56</ele>
<time>2015-11-22T08:17:41Z</time>
</trkpt>
<trkpt lat="30.9690192" lon="35.7630244">
<ele>658.48</ele>
<time>2015-11-22T08:17:42Z</time>
</trkpt>
<trkpt lat="30.9689046" lon="35.7629759">
<ele>657.44</ele>
<time>2015-11-22T08:17:43Z</time>
</trkpt>
<trkpt lat="30.9688023" lon="35.7629344">
<ele>656.42</ele>
<time>2015-11-22T08:17:44Z</time>
</trkpt>
<trkpt lat="30.9686999" lon="35.7629035">
<ele>707.91</ele>
<time>2015-11-22T08:17:45Z</time>
</trkpt>
<trkpt lat="30.9685944" lon="35.7628812">
<ele>733.15</ele>
<time>2015-11-22T08:17:46Z</time>
</trkpt>
<trkpt lat="30.9684924" lon="35.7628727">
<ele>745.27</ele>
<time>2015-11-22T08:17:47Z</time>
</trkpt>
<trkpt lat="30.9683880" lon="35.7628880">
<ele>746.34</ele>
<time>2015-11-22T08:17:48Z</time>
</trkpt>
<trkpt lat="30.9682964" lon="35.7629049">
<ele>744.37</ele>
<time>2015-11-22T08:17:49Z</time>
</trkpt>
<trkpt lat="30.9681996" lon="35.7629276">
<ele>744.88</ele>
<time>2015-11-22T08:17:50Z</time>
</trkpt>
<trkpt lat="30.9681026" lon="35.7629659">
<ele>744.14</ele>
<time>2015-11-22T08:17:51Z</time>
</trkpt>
<trkpt lat="30.9680160" lon="35.7630026">
<ele>738.27</ele>
<time>2015-11-22T08:17:52Z</time>
</trkpt>
<trkpt lat="30.9679260" lon="35.7630413">
<ele>731.33</ele>
<time>2015-11-22T08:17:53Z</time>
</trkpt>
<trkpt lat="30.9678399" lon="35.7630822">
<ele>727.36</ele>
<time>2015-11-22T08:17:54Z</time>
</trkpt>
<trkpt lat="30.9677624" lon="35.7631304">
<ele>725.88</ele>
<time>2015-11-22T08:17:55Z</time>
</trkpt>
<trkpt lat="30.9676707" lon="35.7631798">
<ele>722.64</ele>
<time>2015-11-22T08:17:56Z</time>
</trkpt>
<trkpt lat="30.9675872" lon="35.7632333">
<ele>718.02</ele>
<time>2015-11-22T08:17:57Z</time>
</trkpt>
<trkpt lat="30.9675019" lon="35.7632916">
<ele>715.71</ele>
<time>2015-11-22T08:17:58Z</time>
</trkpt>
<trkpt lat="30.9674318" lon="35.7633374">
<ele>713.05</ele>
<time>2015-11-22T08:17:59Z</time>
</trkpt>
<trkpt lat="30.9673598" lon="35.7633901">
<ele>711.22</ele>
<time>2015-11-22T08:18:00Z</time>
</trkpt>
<trkpt lat="30.9672923" lon="35.7634464">
<ele>710.81</ele>
<time>2015-11-22T08:18:01Z</time>
</trkpt>
<trkpt lat="30.9672221" lon="35.7635043">
<ele>709.60</ele>
<time>2015-11-22T08:18:02Z</time>
</trkpt>
<trkpt lat="30.9671499" lon="35.7635542">
<ele>711.50</ele>
<time>2015-11-22T08:18:03Z</time>
</trkpt>
<trkpt lat="30.9670756" lon="35.7636041">
<ele>709.95</ele>
<time>2015-11-22T08:18:04Z</time>
</trkpt>
<trkpt lat="30.9670017" lon="35.7636566">
<ele>708.67</ele>
<time>2015-11-22T08:18:05Z</time>
</trkpt>
<trkpt lat="30.9669267" lon="35.7637112">
<ele>705.53</ele>
<time>2015-11-22T08:18:06Z</time>
</trkpt>
<trkpt lat="30.9668683" lon="35.7637591">
<ele>706.47</ele>
<time>2015-11-22T08:18:07Z</time>
</trkpt>
<trkpt lat="30.9667916" lon="35.7638042">
<ele>709.93</ele>
<time>2015-11-22T08:18:08Z</time>
</trkpt>
<trkpt lat="30.9667180" lon="35.7638521">
<ele>714.16</ele>
<time>2015-11-22T08:18:09Z</time>
</trkpt>
<trkpt lat="30.9666618" lon="35.7638813">
<ele>713.78</ele>
<time>2015-11-22T08:18:10Z</time>
</trkpt>
<trkpt lat="30.9666086" lon="35.7639188">
<ele>712.09</ele>
<time>2015-11-22T08:18:11Z</time>
</trkpt>
<trkpt lat="30.9665614" lon="35.7639430">
<ele>713.24</ele>
<time>2015-11-22T08:18:12Z</time>
</trkpt>
<trkpt lat="30.9665035" lon="35.7639668">
<ele>709.11</ele>
<time>2015-11-22T08:18:14Z</time>
</trkpt>
<trkpt lat="30.9664665" lon="35.7639297">
<ele>702.98</ele>
<time>2015-11-22T08:19:17Z</time>
</trkpt>
<trkpt lat="30.9664386" lon="35.7639775">
<ele>634.79</ele>
<time>2015-11-22T08:21:05Z</time>
</trkpt>
<trkpt lat="30.9664142" lon="35.7640430">
<ele>633.66</ele>
<time>2015-11-22T08:21:10Z</time>
</trkpt>
<trkpt lat="30.9663678" lon="35.7640796">
<ele>634.18</ele>
<time>2015-11-22T08:21:13Z</time>
</trkpt>
<trkpt lat="30.9663210" lon="35.7641234">
<ele>633.49</ele>
<time>2015-11-22T08:21:16Z</time>
</trkpt>
<trkpt lat="30.9662885" lon="35.7641712">
<ele>634.28</ele>
<time>2015-11-22T08:21:19Z</time>
</trkpt>
<trkpt lat="30.9662572" lon="35.7642164">
<ele>633.01</ele>
<time>2015-11-22T08:21:22Z</time>
</trkpt>
<trkpt lat="30.9662228" lon="35.7642674">
<ele>631.72</ele>
<time>2015-11-22T08:21:25Z</time>
</trkpt>
<trkpt lat="30.9661819" lon="35.7643347">
<ele>630.69</ele>
<time>2015-11-22T08:21:28Z</time>
</trkpt>
<trkpt lat="30.9661393" lon="35.7643848">
<ele>629.97</ele>
<time>2015-11-22T08:21:30Z</time>
</trkpt>
<trkpt lat="30.9660958" lon="35.7644428">
<ele>629.79</ele>
<time>2015-11-22T08:21:32Z</time>
</trkpt>
<trkpt lat="30.9660400" lon="35.7645531">
<ele>629.50</ele>
<time>2015-11-22T08:21:35Z</time>
</trkpt>
<trkpt lat="30.9660058" lon="35.7646491">
<ele>629.42</ele>
<time>2015-11-22T08:21:37Z</time>
</trkpt>
<trkpt lat="30.9659916" lon="35.7647004">
<ele>629.91</ele>
<time>2015-11-22T08:21:38Z</time>
</trkpt>
<trkpt lat="30.9659794" lon="35.7647537">
<ele>629.65</ele>
<time>2015-11-22T08:21:39Z</time>
</trkpt>
<trkpt lat="30.9659667" lon="35.7648455">
<ele>629.03</ele>
<time>2015-11-22T08:21:40Z</time>
</trkpt>
<trkpt lat="30.9659536" lon="35.7649093">
<ele>628.21</ele>
<time>2015-11-22T08:21:41Z</time>
</trkpt>
<trkpt lat="30.9659345" lon="35.7649770">
<ele>627.80</ele>
<time>2015-11-22T08:21:42Z</time>
</trkpt>
<trkpt lat="30.9659089" lon="35.7650546">
<ele>627.60</ele>
<time>2015-11-22T08:21:43Z</time>
</trkpt>
<trkpt lat="30.9659070" lon="35.7651197">
<ele>627.50</ele>
<time>2015-11-22T08:21:44Z</time>
</trkpt>
<trkpt lat="30.9658968" lon="35.7651987">
<ele>626.95</ele>
<time>2015-11-22T08:21:45Z</time>
</trkpt>
<trkpt lat="30.9658942" lon="35.7652742">
<ele>626.67</ele>
<time>2015-11-22T08:21:46Z</time>
</trkpt>
<trkpt lat="30.9658924" lon="35.7654256">
<ele>626.03</ele>
<time>2015-11-22T08:21:48Z</time>
</trkpt>
<trkpt lat="30.9658934" lon="35.7655028">
<ele>626.22</ele>
<time>2015-11-22T08:21:49Z</time>
</trkpt>
<trkpt lat="30.9658898" lon="35.7655818">
<ele>626.31</ele>
<time>2015-11-22T08:21:50Z</time>
</trkpt>
<trkpt lat="30.9658992" lon="35.7656586">
<ele>625.85</ele>
<time>2015-11-22T08:21:51Z</time>
</trkpt>
<trkpt lat="30.9659099" lon="35.7657350">
<ele>625.62</ele>
<time>2015-11-22T08:21:52Z</time>
</trkpt>
<trkpt lat="30.9659146" lon="35.7658063">
<ele>625.51</ele>
<time>2015-11-22T08:21:53Z</time>
</trkpt>
<trkpt lat="30.9659152" lon="35.7658956">
<ele>625.45</ele>
<time>2015-11-22T08:21:54Z</time>
</trkpt>
<trkpt lat="30.9659229" lon="35.7659840">
<ele>625.43</ele>
<time>2015-11-22T08:21:55Z</time>
</trkpt>
<trkpt lat="30.9659358" lon="35.7660714">
<ele>649.41</ele>
<time>2015-11-22T08:21:56Z</time>
</trkpt>
<trkpt lat="30.9659431" lon="35.7661703">
<ele>662.40</ele>
<time>2015-11-22T08:21:57Z</time>
</trkpt>
<trkpt lat="30.9659489" lon="35.7662712">
<ele>668.90</ele>
<time>2015-11-22T08:21:58Z</time>
</trkpt>
<trkpt lat="30.9659540" lon="35.7663747">
<ele>671.65</ele>
<time>2015-11-22T08:21:59Z</time>
</trkpt>
<trkpt lat="30.9659686" lon="35.7664729">
<ele>674.02</ele>
<time>2015-11-22T08:22:00Z</time>
</trkpt>
<trkpt lat="30.9659795" lon="35.7665618">
<ele>675.21</ele>
<time>2015-11-22T08:22:01Z</time>
</trkpt>
<trkpt lat="30.9659894" lon="35.7666584">
<ele>674.30</ele>
<time>2015-11-22T08:22:02Z</time>
</trkpt>
<trkpt lat="30.9659994" lon="35.7667544">
<ele>675.35</ele>
<time>2015-11-22T08:22:03Z</time>
</trkpt>
<trkpt lat="30.9659999" lon="35.7668621">
<ele>679.87</ele>
<time>2015-11-22T08:22:04Z</time>
</trkpt>
<trkpt lat="30.9660099" lon="35.7669607">
<ele>680.64</ele>
<time>2015-11-22T08:22:05Z</time>
</trkpt>
<trkpt lat="30.9660081" lon="35.7670694">
<ele>682.52</ele>
<time>2015-11-22T08:22:06Z</time>
</trkpt>
<trkpt lat="30.9660054" lon="35.7671797">
<ele>683.96</ele>
<time>2015-11-22T08:22:07Z</time>
</trkpt>
<trkpt lat="30.9660154" lon="35.7672771">
<ele>683.68</ele>
<time>2015-11-22T08:22:08Z</time>
</trkpt>
<trkpt lat="30.9660205" lon="35.7673811">
<ele>684.04</ele>
<time>2015-11-22T08:22:09Z</time>
</trkpt>
<trkpt lat="30.9660274" lon="35.7674795">
<ele>683.22</ele>
<time>2015-11-22T08:22:10Z</time>
</trkpt>
<trkpt lat="30.9660241" lon="35.7675858">
<ele>682.81</ele>
<time>2015-11-22T08:22:11Z</time>
</trkpt>
<trkpt lat="30.9660328" lon="35.7677024">
<ele>682.10</ele>
<time>2015-11-22T08:22:12Z</time>
</trkpt>
<trkpt lat="30.9660323" lon="35.7677986">
<ele>681.25</ele>
<time>2015-11-22T08:22:13Z</time>
</trkpt>
<trkpt lat="30.9660310" lon="35.7679090">
<ele>680.32</ele>
<time>2015-11-22T08:22:14Z</time>
</trkpt>
<trkpt lat="30.9660098" lon="35.7681196">
<ele>677.36</ele>
<time>2015-11-22T08:22:16Z</time>
</trkpt>
<trkpt lat="30.9660029" lon="35.7682252">
<ele>676.88</ele>
<time>2015-11-22T08:22:17Z</time>
</trkpt>
<trkpt lat="30.9659630" lon="35.7684077">
<ele>676.14</ele>
<time>2015-11-22T08:22:19Z</time>
</trkpt>
<trkpt lat="30.9659450" lon="35.7685078">
<ele>672.77</ele>
<time>2015-11-22T08:22:20Z</time>
</trkpt>
<trkpt lat="30.9659192" lon="35.7686000">
<ele>670.58</ele>
<time>2015-11-22T08:22:21Z</time>
</trkpt>
<trkpt lat="30.9658896" lon="35.7686862">
<ele>668.99</ele>
<time>2015-11-22T08:22:22Z</time>
</trkpt>
<trkpt lat="30.9658572" lon="35.7687802">
<ele>671.69</ele>
<time>2015-11-22T08:22:23Z</time>
</trkpt>
<trkpt lat="30.9657961" lon="35.7689496">
<ele>671.05</ele>
<time>2015-11-22T08:22:25Z</time>
</trkpt>
<trkpt lat="30.9657568" lon="35.7690385">
<ele>669.22</ele>
<time>2015-11-22T08:22:26Z</time>
</trkpt>
<trkpt lat="30.9657212" lon="35.7691134">
<ele>667.81</ele>
<time>2015-11-22T08:22:27Z</time>
</trkpt>
<trkpt lat="30.9656850" lon="35.7691972">
<ele>665.60</ele>
<time>2015-11-22T08:22:28Z</time>
</trkpt>
<trkpt lat="30.9656568" lon="35.7692744">
<ele>664.50</ele>
<time>2015-11-22T08:22:29Z</time>
</trkpt>
<trkpt lat="30.9656209" lon="35.7693494">
<ele>666.45</ele>
<time>2015-11-22T08:22:30Z</time>
</trkpt>
<trkpt lat="30.9655864" lon="35.7694327">
<ele>666.42</ele>
<time>2015-11-22T08:22:31Z</time>
</trkpt>
<trkpt lat="30.9655518" lon="35.7695162">
<ele>664.91</ele>
<time>2015-11-22T08:22:32Z</time>
</trkpt>
<trkpt lat="30.9655257" lon="35.7695943">
<ele>668.15</ele>
<time>2015-11-22T08:22:33Z</time>
</trkpt>
<trkpt lat="30.9654566" lon="35.7697571">
<ele>672.28</ele>
<time>2015-11-22T08:22:35Z</time>
</trkpt>
<trkpt lat="30.9654136" lon="35.7698368">
<ele>672.84</ele>
<time>2015-11-22T08:22:36Z</time>
</trkpt>
<trkpt lat="30.9653803" lon="35.7699124">
<ele>672.62</ele>
<time>2015-11-22T08:22:37Z</time>
</trkpt>
<trkpt lat="30.9653534" lon="35.7699916">
<ele>671.51</ele>
<time>2015-11-22T08:22:38Z</time>
</trkpt>
<trkpt lat="30.9653254" lon="35.7700614">
<ele>669.95</ele>
<time>2015-11-22T08:22:39Z</time>
</trkpt>
<trkpt lat="30.9653041" lon="35.7701500">
<ele>678.17</ele>
<time>2015-11-22T08:22:40Z</time>
</trkpt>
<trkpt lat="30.9652698" lon="35.7702224">
<ele>680.79</ele>
<time>2015-11-22T08:22:41Z</time>
</trkpt>
<trkpt lat="30.9652056" lon="35.7703784">
<ele>679.09</ele>
<time>2015-11-22T08:22:43Z</time>
</trkpt>
<trkpt lat="30.9604574" lon="35.7707093">
<ele>519.39</ele>
<time>2015-11-22T08:36:25Z</time>
</trkpt>
<trkpt lat="30.9604132" lon="35.7706744">
<ele>526.40</ele>
<time>2015-11-22T08:37:01Z</time>
</trkpt>
<trkpt lat="30.9603810" lon="35.7706139">
<ele>525.64</ele>
<time>2015-11-22T08:37:03Z</time>
</trkpt>
<trkpt lat="30.9603457" lon="35.7705427">
<ele>524.71</ele>
<time>2015-11-22T08:37:05Z</time>
</trkpt>
<trkpt lat="30.9602907" lon="35.7704576">
<ele>525.22</ele>
<time>2015-11-22T08:37:07Z</time>
</trkpt>
<trkpt lat="30.9602498" lon="35.7704149">
<ele>525.31</ele>
<time>2015-11-22T08:37:08Z</time>
</trkpt>
<trkpt lat="30.9602024" lon="35.7703645">
<ele>524.85</ele>
<time>2015-11-22T08:37:09Z</time>
</trkpt>
<trkpt lat="30.9601548" lon="35.7703147">
<ele>524.62</ele>
<time>2015-11-22T08:37:10Z</time>
</trkpt>
<trkpt lat="30.9600994" lon="35.7702667">
<ele>524.51</ele>
<time>2015-11-22T08:37:11Z</time>
</trkpt>
<trkpt lat="30.9600362" lon="35.7702227">
<ele>524.45</ele>
<time>2015-11-22T08:37:12Z</time>
</trkpt>
<trkpt lat="30.9599718" lon="35.7701787">
<ele>523.92</ele>
<time>2015-11-22T08:37:13Z</time>
</trkpt>
<trkpt lat="30.9599037" lon="35.7701345">
<ele>523.66</ele>
<time>2015-11-22T08:37:14Z</time>
</trkpt>
<trkpt lat="30.9598228" lon="35.7700970">
<ele>523.03</ele>
<time>2015-11-22T08:37:15Z</time>
</trkpt>
<trkpt lat="30.9597390" lon="35.7700583">
<ele>522.21</ele>
<time>2015-11-22T08:37:16Z</time>
</trkpt>
<trkpt lat="30.9596524" lon="35.7700258">
<ele>521.80</ele>
<time>2015-11-22T08:37:17Z</time>
</trkpt>
<trkpt lat="30.9595602" lon="35.7699922">
<ele>521.10</ele>
<time>2015-11-22T08:37:18Z</time>
</trkpt>
<trkpt lat="30.9594648" lon="35.7699553">
<ele>520.75</ele>
<time>2015-11-22T08:37:19Z</time>
</trkpt>
<trkpt lat="30.9593655" lon="35.7699215">
<ele>520.07</ele>
<time>2015-11-22T08:37:20Z</time>
</trkpt>
<trkpt lat="30.9592647" lon="35.7698832">
<ele>519.23</ele>
<time>2015-11-22T08:37:21Z</time>
</trkpt>
<trkpt lat="30.9591594" lon="35.7698477">
<ele>518.31</ele>
<time>2015-11-22T08:37:22Z</time>
</trkpt>
<trkpt lat="30.9590510" lon="35.7698102">
<ele>516.85</ele>
<time>2015-11-22T08:37:23Z</time>
</trkpt>
<trkpt lat="30.9589429" lon="35.7697710">
<ele>515.12</ele>
<time>2015-11-22T08:37:24Z</time>
</trkpt>
<trkpt lat="30.9588352" lon="35.7697320">
<ele>513.76</ele>
<time>2015-11-22T08:37:25Z</time>
</trkpt>
<trkpt lat="30.9587210" lon="35.7696871">
<ele>512.58</ele>
<time>2015-11-22T08:37:26Z</time>
</trkpt>
<trkpt lat="30.9586070" lon="35.7696435">
<ele>510.99</ele>
<time>2015-11-22T08:37:27Z</time>
</trkpt>
<trkpt lat="30.9584901" lon="35.7695962">
<ele>510.19</ele>
<time>2015-11-22T08:37:28Z</time>
</trkpt>
<trkpt lat="30.9583799" lon="35.7695541">
<ele>508.79</ele>
<time>2015-11-22T08:37:29Z</time>
</trkpt>
<trkpt lat="30.9582737" lon="35.7695164">
<ele>507.09</ele>
<time>2015-11-22T08:37:30Z</time>
</trkpt>
<trkpt lat="30.9581668" lon="35.7694738">
<ele>505.74</ele>
<time>2015-11-22T08:37:31Z</time>
</trkpt>
<trkpt lat="30.9580662" lon="35.7694254">
<ele>504.57</ele>
<time>2015-11-22T08:37:32Z</time>
</trkpt>
<trkpt lat="30.9579680" lon="35.7693779">
<ele>503.48</ele>
<time>2015-11-22T08:37:33Z</time>
</trkpt>
<trkpt lat="30.9578742" lon="35.7693207">
<ele>502.44</ele>
<time>2015-11-22T08:37:34Z</time>
</trkpt>
<trkpt lat="30.9577864" lon="35.7692618">
<ele>501.42</ele>
<time>2015-11-22T08:37:35Z</time>
</trkpt>
<trkpt lat="30.9577043" lon="35.7691895">
<ele>500.40</ele>
<time>2015-11-22T08:37:36Z</time>
</trkpt>
<trkpt lat="30.9576373" lon="35.7691125">
<ele>499.40</ele>
<time>2015-11-22T08:37:37Z</time>
</trkpt>
<trkpt lat="30.9575759" lon="35.7690199">
<ele>498.40</ele>
<time>2015-11-22T08:37:38Z</time>
</trkpt>
<trkpt lat="30.9575244" lon="35.7689124">
<ele>496.90</ele>
<time>2015-11-22T08:37:39Z</time>
</trkpt>
<trkpt lat="30.9574790" lon="35.7688005">
<ele>495.64</ele>
<time>2015-11-22T08:37:40Z</time>
</trkpt>
<trkpt lat="30.9574440" lon="35.7686833">
<ele>494.52</ele>
<time>2015-11-22T08:37:41Z</time>
</trkpt>
<trkpt lat="30.9574233" lon="35.7685653">
<ele>493.46</ele>
<time>2015-11-22T08:37:42Z</time>
</trkpt>
<trkpt lat="30.9574200" lon="35.7684443">
<ele>492.43</ele>
<time>2015-11-22T08:37:43Z</time>
</trkpt>
<trkpt lat="30.9574231" lon="35.7683191">
<ele>491.41</ele>
<time>2015-11-22T08:37:44Z</time>
</trkpt>
<trkpt lat="30.9574446" lon="35.7682015">
<ele>490.40</ele>
<time>2015-11-22T08:37:45Z</time>
</trkpt>
<trkpt lat="30.9574791" lon="35.7680847">
<ele>488.90</ele>
<time>2015-11-22T08:37:46Z</time>
</trkpt>
<trkpt lat="30.9575217" lon="35.7679613">
<ele>487.65</ele>
<time>2015-11-22T08:37:47Z</time>
</trkpt>
<trkpt lat="30.9575654" lon="35.7678306">
<ele>486.52</ele>
<time>2015-11-22T08:37:48Z</time>
</trkpt>
<trkpt lat="30.9576064" lon="35.7676981">
<ele>485.46</ele>
<time>2015-11-22T08:37:49Z</time>
</trkpt>
<trkpt lat="30.9576448" lon="35.7675554">
<ele>483.93</ele>
<time>2015-11-22T08:37:50Z</time>
</trkpt>
<trkpt lat="30.9576766" lon="35.7674094">
<ele>482.66</ele>
<time>2015-11-22T08:37:51Z</time>
</trkpt>
<trkpt lat="30.9577121" lon="35.7672574">
<ele>481.03</ele>
<time>2015-11-22T08:37:52Z</time>
</trkpt>
<trkpt lat="30.9577426" lon="35.7671015">
<ele>479.71</ele>
<time>2015-11-22T08:37:53Z</time>
</trkpt>
<trkpt lat="30.9577655" lon="35.7669420">
<ele>478.05</ele>
<time>2015-11-22T08:37:54Z</time>
</trkpt>
<trkpt lat="30.9577930" lon="35.7666099">
<ele>475.72</ele>
<time>2015-11-22T08:37:56Z</time>
</trkpt>
<trkpt lat="30.9577928" lon="35.7664336">
<ele>474.06</ele>
<time>2015-11-22T08:37:57Z</time>
</trkpt>
<trkpt lat="30.9577881" lon="35.7662576">
<ele>472.23</ele>
<time>2015-11-22T08:37:58Z</time>
</trkpt>
<trkpt lat="30.9577755" lon="35.7660800">
<ele>470.31</ele>
<time>2015-11-22T08:37:59Z</time>
</trkpt>
<trkpt lat="30.9577533" lon="35.7659051">
<ele>468.35</ele>
<time>2015-11-22T08:38:00Z</time>
</trkpt>
<trkpt lat="30.9577241" lon="35.7657292">
<ele>466.37</ele>
<time>2015-11-22T08:38:01Z</time>
</trkpt>
<trkpt lat="30.9576948" lon="35.7655513">
<ele>464.88</ele>
<time>2015-11-22T08:38:02Z</time>
</trkpt>
<trkpt lat="30.9576641" lon="35.7653741">
<ele>463.64</ele>
<time>2015-11-22T08:38:03Z</time>
</trkpt>
<trkpt lat="30.9576324" lon="35.7651992">
<ele>462.52</ele>
<time>2015-11-22T08:38:04Z</time>
</trkpt>
<trkpt lat="30.9576018" lon="35.7650259">
<ele>461.46</ele>
<time>2015-11-22T08:38:05Z</time>
</trkpt>
<trkpt lat="30.9575700" lon="35.7648553">
<ele>460.42</ele>
<time>2015-11-22T08:38:06Z</time>
</trkpt>
<trkpt lat="30.9575366" lon="35.7646872">
<ele>459.41</ele>
<time>2015-11-22T08:38:07Z</time>
</trkpt>
<trkpt lat="30.9575074" lon="35.7645209">
<ele>458.40</ele>
<time>2015-11-22T08:38:08Z</time>
</trkpt>
<trkpt lat="30.9574769" lon="35.7643499">
<ele>457.40</ele>
<time>2015-11-22T08:38:09Z</time>
</trkpt>
<trkpt lat="30.9574452" lon="35.7641824">
<ele>456.40</ele>
<time>2015-11-22T08:38:10Z</time>
</trkpt>
<trkpt lat="30.9574102" lon="35.7640213">
<ele>455.89</ele>
<time>2015-11-22T08:38:11Z</time>
</trkpt>
<trkpt lat="30.9573758" lon="35.7638608">
<ele>455.64</ele>
<time>2015-11-22T08:38:12Z</time>
</trkpt>
<trkpt lat="30.9573404" lon="35.7637032">
<ele>455.02</ele>
<time>2015-11-22T08:38:13Z</time>
</trkpt>
<trkpt lat="30.9573075" lon="35.7635483">
<ele>454.71</ele>
<time>2015-11-22T08:38:14Z</time>
</trkpt>
<trkpt lat="30.9572778" lon="35.7633958">
<ele>454.55</ele>
<time>2015-11-22T08:38:15Z</time>
</trkpt>
<trkpt lat="30.9572466" lon="35.7632524">
<ele>454.47</ele>
<time>2015-11-22T08:38:16Z</time>
</trkpt>
<trkpt lat="30.9572171" lon="35.7631093">
<ele>453.93</ele>
<time>2015-11-22T08:38:17Z</time>
</trkpt>
<trkpt lat="30.9571928" lon="35.7629689">
<ele>453.66</ele>
<time>2015-11-22T08:38:18Z</time>
</trkpt>
<trkpt lat="30.9571700" lon="35.7628309">
<ele>453.03</ele>
<time>2015-11-22T08:38:19Z</time>
</trkpt>
<trkpt lat="30.9571500" lon="35.7626939">
<ele>452.71</ele>
<time>2015-11-22T08:38:20Z</time>
</trkpt>
<trkpt lat="30.9571292" lon="35.7625582">
<ele>452.05</ele>
<time>2015-11-22T08:38:21Z</time>
</trkpt>
<trkpt lat="30.9571205" lon="35.7624259">
<ele>451.72</ele>
<time>2015-11-22T08:38:22Z</time>
</trkpt>
<trkpt lat="30.9571178" lon="35.7622962">
<ele>451.06</ele>
<time>2015-11-22T08:38:23Z</time>
</trkpt>
<trkpt lat="30.9571181" lon="35.7621666">
<ele>450.73</ele>
<time>2015-11-22T08:38:24Z</time>
</trkpt>
<trkpt lat="30.9571448" lon="35.7619084">
<ele>450.06</ele>
<time>2015-11-22T08:38:26Z</time>
</trkpt>
<trkpt lat="30.9571658" lon="35.7617779">
<ele>449.23</ele>
<time>2015-11-22T08:38:27Z</time>
</trkpt>
<trkpt lat="30.9571902" lon="35.7616527">
<ele>448.81</ele>
<time>2015-11-22T08:38:28Z</time>
</trkpt>
<trkpt lat="30.9572175" lon="35.7615308">
<ele>448.60</ele>
<time>2015-11-22T08:38:29Z</time>
</trkpt>
<trkpt lat="30.9572479" lon="35.7614093">
<ele>448.00</ele>
<time>2015-11-22T08:38:30Z</time>
</trkpt>
<trkpt lat="30.9572906" lon="35.7612940">
<ele>447.70</ele>
<time>2015-11-22T08:38:31Z</time>
</trkpt>
<trkpt lat="30.9573354" lon="35.7611786">
<ele>447.05</ele>
<time>2015-11-22T08:38:32Z</time>
</trkpt>
<trkpt lat="30.9573880" lon="35.7610682">
<ele>446.72</ele>
<time>2015-11-22T08:38:33Z</time>
</trkpt>
<trkpt lat="30.9574409" lon="35.7609544">
<ele>446.06</ele>
<time>2015-11-22T08:38:34Z</time>
</trkpt>
<trkpt lat="30.9574941" lon="35.7608425">
<ele>445.23</ele>
<time>2015-11-22T08:38:35Z</time>
</trkpt>
<trkpt lat="30.9575465" lon="35.7607334">
<ele>444.81</ele>
<time>2015-11-22T08:38:36Z</time>
</trkpt>
<trkpt lat="30.9576037" lon="35.7606271">
<ele>444.60</ele>
<time>2015-11-22T08:38:37Z</time>
</trkpt>
<trkpt lat="30.9576654" lon="35.7605211">
<ele>444.00</ele>
<time>2015-11-22T08:38:38Z</time>
</trkpt>
<trkpt lat="30.9577271" lon="35.7604154">
<ele>443.70</ele>
<time>2015-11-22T08:38:39Z</time>
</trkpt>
<trkpt lat="30.9577884" lon="35.7603071">
<ele>443.04</ele>
<time>2015-11-22T08:38:40Z</time>
</trkpt>
<trkpt lat="30.9579160" lon="35.7600946">
<ele>441.72</ele>
<time>2015-11-22T08:38:42Z</time>
</trkpt>
<trkpt lat="30.9579782" lon="35.7599864">
<ele>440.56</ele>
<time>2015-11-22T08:38:43Z</time>
</trkpt>
<trkpt lat="30.9580390" lon="35.7598777">
<ele>439.48</ele>
<time>2015-11-22T08:38:44Z</time>
</trkpt>
<trkpt lat="30.9581040" lon="35.7597658">
<ele>438.43</ele>
<time>2015-11-22T08:38:45Z</time>
</trkpt>
<trkpt lat="30.9581666" lon="35.7596567">
<ele>437.91</ele>
<time>2015-11-22T08:38:46Z</time>
</trkpt>
<trkpt lat="30.9582296" lon="35.7595452">
<ele>437.15</ele>
<time>2015-11-22T08:38:47Z</time>
</trkpt>
<trkpt lat="30.9582921" lon="35.7594317">
<ele>436.77</ele>
<time>2015-11-22T08:38:48Z</time>
</trkpt>
<trkpt lat="30.9583533" lon="35.7593210">
<ele>436.58</ele>
<time>2015-11-22T08:38:49Z</time>
</trkpt>
<trkpt lat="30.9584205" lon="35.7592095">
<ele>435.99</ele>
<time>2015-11-22T08:38:50Z</time>
</trkpt>
<trkpt lat="30.9584841" lon="35.7591042">
<ele>435.69</ele>
<time>2015-11-22T08:38:51Z</time>
</trkpt>
<trkpt lat="30.9585397" lon="35.7589923">
<ele>435.54</ele>
<time>2015-11-22T08:38:52Z</time>
</trkpt>
<trkpt lat="30.9585985" lon="35.7588829">
<ele>434.97</ele>
<time>2015-11-22T08:38:53Z</time>
</trkpt>
<trkpt lat="30.9586586" lon="35.7587745">
<ele>434.68</ele>
<time>2015-11-22T08:38:54Z</time>
</trkpt>
<trkpt lat="30.9587180" lon="35.7586705">
<ele>434.54</ele>
<time>2015-11-22T08:38:55Z</time>
</trkpt>
<trkpt lat="30.9587756" lon="35.7585644">
<ele>434.47</ele>
<time>2015-11-22T08:38:56Z</time>
</trkpt>
<trkpt lat="30.9588339" lon="35.7584634">
<ele>433.93</ele>
<time>2015-11-22T08:38:57Z</time>
</trkpt>
<trkpt lat="30.9588903" lon="35.7583598">
<ele>433.16</ele>
<time>2015-11-22T08:38:58Z</time>
</trkpt>
<trkpt lat="30.9589451" lon="35.7582578">
<ele>432.78</ele>
<time>2015-11-22T08:38:59Z</time>
</trkpt>
<trkpt lat="30.9589992" lon="35.7581567">
<ele>432.59</ele>
<time>2015-11-22T08:39:00Z</time>
</trkpt>
<trkpt lat="30.9590509" lon="35.7580612">
<ele>432.49</ele>
<time>2015-11-22T08:39:01Z</time>
</trkpt>
<trkpt lat="30.9591041" lon="35.7579672">
<ele>432.44</ele>
<time>2015-11-22T08:39:02Z</time>
</trkpt>
<trkpt lat="30.9591525" lon="35.7578773">
<ele>432.42</ele>
<time>2015-11-22T08:39:03Z</time>
</trkpt>
<trkpt lat="30.9591986" lon="35.7577908">
<ele>431.91</ele>
<time>2015-11-22T08:39:04Z</time>
</trkpt>
<trkpt lat="30.9592370" lon="35.7577126">
<ele>431.65</ele>
<time>2015-11-22T08:39:05Z</time>
</trkpt>
<trkpt lat="30.9592788" lon="35.7576405">
<ele>431.52</ele>
<time>2015-11-22T08:39:06Z</time>
</trkpt>
<trkpt lat="30.9593194" lon="35.7575600">
<ele>431.46</ele>
<time>2015-11-22T08:39:07Z</time>
</trkpt>
<trkpt lat="30.9593563" lon="35.7574844">
<ele>431.43</ele>
<time>2015-11-22T08:39:08Z</time>
</trkpt>
<trkpt lat="30.9593884" lon="35.7574060">
<ele>431.41</ele>
<time>2015-11-22T08:39:09Z</time>
</trkpt>
<trkpt lat="30.9594276" lon="35.7573281">
<ele>430.90</ele>
<time>2015-11-22T08:39:10Z</time>
</trkpt>
<trkpt lat="30.9594706" lon="35.7572561">
<ele>430.65</ele>
<time>2015-11-22T08:39:11Z</time>
</trkpt>
<trkpt lat="30.9595126" lon="35.7571823">
<ele>430.52</ele>
<time>2015-11-22T08:39:12Z</time>
</trkpt>
<trkpt lat="30.9595540" lon="35.7571086">
<ele>429.96</ele>
<time>2015-11-22T08:39:13Z</time>
</trkpt>
<trkpt lat="30.9595940" lon="35.7570324">
<ele>429.68</ele>
<time>2015-11-22T08:39:14Z</time>
</trkpt>
<trkpt lat="30.9596376" lon="35.7569580">
<ele>429.53</ele>
<time>2015-11-22T08:39:15Z</time>
</trkpt>
<trkpt lat="30.9596783" lon="35.7568843">
<ele>429.46</ele>
<time>2015-11-22T08:39:16Z</time>
</trkpt>
<trkpt lat="30.9597208" lon="35.7568060">
<ele>428.93</ele>
<time>2015-11-22T08:39:17Z</time>
</trkpt>
<trkpt lat="30.9597651" lon="35.7567287">
<ele>428.66</ele>
<time>2015-11-22T08:39:18Z</time>
</trkpt>
<trkpt lat="30.9598062" lon="35.7566502">
<ele>428.53</ele>
<time>2015-11-22T08:39:19Z</time>
</trkpt>
<trkpt lat="30.9598518" lon="35.7565711">
<ele>428.46</ele>
<time>2015-11-22T08:39:20Z</time>
</trkpt>
<trkpt lat="30.9598835" lon="35.7564932">
<ele>428.43</ele>
<time>2015-11-22T08:39:21Z</time>
</trkpt>
<trkpt lat="30.9599252" lon="35.7564170">
<ele>428.41</ele>
<time>2015-11-22T08:39:22Z</time>
</trkpt>
<trkpt lat="30.9599648" lon="35.7563408">
<ele>428.90</ele>
<time>2015-11-22T08:39:23Z</time>
</trkpt>
<trkpt lat="30.9600031" lon="35.7562622">
<ele>429.15</ele>
<time>2015-11-22T08:39:24Z</time>
</trkpt>
<trkpt lat="30.9600409" lon="35.7561843">
<ele>429.27</ele>
<time>2015-11-22T08:39:25Z</time>
</trkpt>
<trkpt lat="30.9600845" lon="35.7561057">
<ele>428.83</ele>
<time>2015-11-22T08:39:26Z</time>
</trkpt>
<trkpt lat="30.9601262" lon="35.7560272">
<ele>428.61</ele>
<time>2015-11-22T08:39:27Z</time>
</trkpt>
<trkpt lat="30.9601610" lon="35.7559554">
<ele>428.50</ele>
<time>2015-11-22T08:39:28Z</time>
</trkpt>
<trkpt lat="30.9601947" lon="35.7558821">
<ele>428.45</ele>
<time>2015-11-22T08:39:29Z</time>
</trkpt>
<trkpt lat="30.9602261" lon="35.7558004">
<ele>428.42</ele>
<time>2015-11-22T08:39:30Z</time>
</trkpt>
<trkpt lat="30.9602606" lon="35.7557246">
<ele>428.41</ele>
<time>2015-11-22T08:39:31Z</time>
</trkpt>
<trkpt lat="30.9602935" lon="35.7556428">
<ele>428.40</ele>
<time>2015-11-22T08:39:32Z</time>
</trkpt>
<trkpt lat="30.9603293" lon="35.7555541">
<ele>427.90</ele>
<time>2015-11-22T08:39:33Z</time>
</trkpt>
<trkpt lat="30.9603595" lon="35.7554646">
<ele>427.65</ele>
<time>2015-11-22T08:39:34Z</time>
</trkpt>
<trkpt lat="30.9603892" lon="35.7553733">
<ele>427.02</ele>
<time>2015-11-22T08:39:35Z</time>
</trkpt>
<trkpt lat="30.9604186" lon="35.7552832">
<ele>426.71</ele>
<time>2015-11-22T08:39:36Z</time>
</trkpt>
<trkpt lat="30.9604532" lon="35.7551949">
<ele>426.05</ele>
<time>2015-11-22T08:39:37Z</time>
</trkpt>
<trkpt lat="30.9604851" lon="35.7551036">
<ele>425.72</ele>
<time>2015-11-22T08:39:38Z</time>
</trkpt>
<trkpt lat="30.9605132" lon="35.7550076">
<ele>425.56</ele>
<time>2015-11-22T08:39:39Z</time>
</trkpt>
<trkpt lat="30.9605382" lon="35.7549111">
<ele>425.48</ele>
<time>2015-11-22T08:39:40Z</time>
</trkpt>
<trkpt lat="30.9605644" lon="35.7548086">
<ele>424.94</ele>
<time>2015-11-22T08:39:41Z</time>
</trkpt>
<trkpt lat="30.9605901" lon="35.7547088">
<ele>424.66</ele>
<time>2015-11-22T08:39:42Z</time>
</trkpt>
<trkpt lat="30.9606177" lon="35.7546109">
<ele>424.53</ele>
<time>2015-11-22T08:39:43Z</time>
</trkpt>
<trkpt lat="30.9606427" lon="35.7545132">
<ele>424.46</ele>
<time>2015-11-22T08:39:44Z</time>
</trkpt>
<trkpt lat="30.9606686" lon="35.7544099">
<ele>424.43</ele>
<time>2015-11-22T08:39:45Z</time>
</trkpt>
<trkpt lat="30.9606897" lon="35.7543055">
<ele>424.41</ele>
<time>2015-11-22T08:39:46Z</time>
</trkpt>
<trkpt lat="30.9607090" lon="35.7542047">
<ele>424.40</ele>
<time>2015-11-22T08:39:47Z</time>
</trkpt>
<trkpt lat="30.9607250" lon="35.7541084">
<ele>424.40</ele>
<time>2015-11-22T08:39:48Z</time>
</trkpt>
<trkpt lat="30.9607376" lon="35.7540039">
<ele>424.40</ele>
<time>2015-11-22T08:39:49Z</time>
</trkpt>
<trkpt lat="30.9607508" lon="35.7539000">
<ele>424.40</ele>
<time>2015-11-22T08:39:50Z</time>
</trkpt>
<trkpt lat="30.9607609" lon="35.7537919">
<ele>424.39</ele>
<time>2015-11-22T08:39:51Z</time>
</trkpt>
<trkpt lat="30.9607680" lon="35.7536870">
<ele>423.89</ele>
<time>2015-11-22T08:39:52Z</time>
</trkpt>
<trkpt lat="30.9607745" lon="35.7535837">
<ele>424.14</ele>
<time>2015-11-22T08:39:53Z</time>
</trkpt>
<trkpt lat="30.9607986" lon="35.7533704">
<ele>424.27</ele>
<time>2015-11-22T08:39:55Z</time>
</trkpt>
<trkpt lat="30.9608189" lon="35.7531623">
<ele>424.33</ele>
<time>2015-11-22T08:39:57Z</time>
</trkpt>
<trkpt lat="30.9608278" lon="35.7530606">
<ele>424.36</ele>
<time>2015-11-22T08:39:58Z</time>
</trkpt>
<trkpt lat="30.9608306" lon="35.7529645">
<ele>424.88</ele>
<time>2015-11-22T08:39:59Z</time>
</trkpt>
<trkpt lat="30.9608324" lon="35.7528692">
<ele>425.14</ele>
<time>2015-11-22T08:40:00Z</time>
</trkpt>
<trkpt lat="30.9608384" lon="35.7527770">
<ele>425.27</ele>
<time>2015-11-22T08:40:01Z</time>
</trkpt>
<trkpt lat="30.9608410" lon="35.7526868">
<ele>425.33</ele>
<time>2015-11-22T08:40:02Z</time>
</trkpt>
<trkpt lat="30.9608462" lon="35.7525930">
<ele>425.36</ele>
<time>2015-11-22T08:40:03Z</time>
</trkpt>
<trkpt lat="30.9608519" lon="35.7525028">
<ele>424.88</ele>
<time>2015-11-22T08:40:04Z</time>
</trkpt>
<trkpt lat="30.9608551" lon="35.7524118">
<ele>424.64</ele>
<time>2015-11-22T08:40:05Z</time>
</trkpt>
<trkpt lat="30.9608526" lon="35.7523230">
<ele>424.51</ele>
<time>2015-11-22T08:40:06Z</time>
</trkpt>
<trkpt lat="30.9608479" lon="35.7522346">
<ele>424.45</ele>
<time>2015-11-22T08:40:07Z</time>
</trkpt>
<trkpt lat="30.9608481" lon="35.7521448">
<ele>424.42</ele>
<time>2015-11-22T08:40:08Z</time>
</trkpt>
<trkpt lat="30.9608452" lon="35.7520584">
<ele>424.41</ele>
<time>2015-11-22T08:40:09Z</time>
</trkpt>
<trkpt lat="30.9608434" lon="35.7519740">
<ele>424.40</ele>
<time>2015-11-22T08:40:10Z</time>
</trkpt>
<trkpt lat="30.9608419" lon="35.7518874">
<ele>424.40</ele>
<time>2015-11-22T08:40:11Z</time>
</trkpt>
<trkpt lat="30.9608420" lon="35.7517999">
<ele>424.40</ele>
<time>2015-11-22T08:40:12Z</time>
</trkpt>
<trkpt lat="30.9608400" lon="35.7517142">
<ele>424.89</ele>
<time>2015-11-22T08:40:13Z</time>
</trkpt>
<trkpt lat="30.9608391" lon="35.7516289">
<ele>425.14</ele>
<time>2015-11-22T08:40:14Z</time>
</trkpt>
<trkpt lat="30.9608400" lon="35.7515435">
<ele>425.27</ele>
<time>2015-11-22T08:40:15Z</time>
</trkpt>
<trkpt lat="30.9608431" lon="35.7514566">
<ele>425.33</ele>
<time>2015-11-22T08:40:16Z</time>
</trkpt>
<trkpt lat="30.9608405" lon="35.7513701">
<ele>425.36</ele>
<time>2015-11-22T08:40:17Z</time>
</trkpt>
<trkpt lat="30.9608426" lon="35.7512849">
<ele>425.38</ele>
<time>2015-11-22T08:40:18Z</time>
</trkpt>
<trkpt lat="30.9608394" lon="35.7512022">
<ele>425.39</ele>
<time>2015-11-22T08:40:19Z</time>
</trkpt>
<trkpt lat="30.9608420" lon="35.7511124">
<ele>424.89</ele>
<time>2015-11-22T08:40:20Z</time>
</trkpt>
<trkpt lat="30.9608381" lon="35.7510240">
<ele>425.14</ele>
<time>2015-11-22T08:40:21Z</time>
</trkpt>
<trkpt lat="30.9608418" lon="35.7509344">
<ele>424.77</ele>
<time>2015-11-22T08:40:22Z</time>
</trkpt>
<trkpt lat="30.9608393" lon="35.7508505">
<ele>424.58</ele>
<time>2015-11-22T08:40:23Z</time>
</trkpt>
<trkpt lat="30.9608387" lon="35.7507629">
<ele>424.99</ele>
<time>2015-11-22T08:40:24Z</time>
</trkpt>
<trkpt lat="30.9608361" lon="35.7506762">
<ele>425.19</ele>
<time>2015-11-22T08:40:25Z</time>
</trkpt>
<trkpt lat="30.9608251" lon="35.7504974">
<ele>425.29</ele>
<time>2015-11-22T08:40:27Z</time>
</trkpt>
<trkpt lat="30.9608231" lon="35.7504073">
<ele>425.34</ele>
<time>2015-11-22T08:40:28Z</time>
</trkpt>
<trkpt lat="30.9608169" lon="35.7503119">
<ele>425.37</ele>
<time>2015-11-22T08:40:29Z</time>
</trkpt>
<trkpt lat="30.9608158" lon="35.7502170">
<ele>425.38</ele>
<time>2015-11-22T08:40:30Z</time>
</trkpt>
<trkpt lat="30.9608083" lon="35.7501201">
<ele>425.39</ele>
<time>2015-11-22T08:40:31Z</time>
</trkpt>
<trkpt lat="30.9608032" lon="35.7500222">
<ele>425.39</ele>
<time>2015-11-22T08:40:32Z</time>
</trkpt>
<trkpt lat="30.9607893" lon="35.7498254">
<ele>425.39</ele>
<time>2015-11-22T08:40:34Z</time>
</trkpt>
<trkpt lat="30.9607847" lon="35.7497234">
<ele>424.89</ele>
<time>2015-11-22T08:40:35Z</time>
</trkpt>
<trkpt lat="30.9607776" lon="35.7496264">
<ele>424.64</ele>
<time>2015-11-22T08:40:36Z</time>
</trkpt>
<trkpt lat="30.9607730" lon="35.7495309">
<ele>424.52</ele>
<time>2015-11-22T08:40:37Z</time>
</trkpt>
<trkpt lat="30.9607626" lon="35.7494328">
<ele>424.46</ele>
<time>2015-11-22T08:40:38Z</time>
</trkpt>
<trkpt lat="30.9607561" lon="35.7493339">
<ele>424.43</ele>
<time>2015-11-22T08:40:39Z</time>
</trkpt>
<trkpt lat="30.9607468" lon="35.7492370">
<ele>424.41</ele>
<time>2015-11-22T08:40:40Z</time>
</trkpt>
<trkpt lat="30.9607366" lon="35.7491389">
<ele>423.90</ele>
<time>2015-11-22T08:40:41Z</time>
</trkpt>
<trkpt lat="30.9607325" lon="35.7490416">
<ele>423.65</ele>
<time>2015-11-22T08:40:42Z</time>
</trkpt>
<trkpt lat="30.9607269" lon="35.7489462">
<ele>423.52</ele>
<time>2015-11-22T08:40:43Z</time>
</trkpt>
<trkpt lat="30.9607197" lon="35.7488469">
<ele>423.46</ele>
<time>2015-11-22T08:40:44Z</time>
</trkpt>
<trkpt lat="30.9607119" lon="35.7487484">
<ele>423.43</ele>
<time>2015-11-22T08:40:45Z</time>
</trkpt>
<trkpt lat="30.9607136" lon="35.7486446">
<ele>422.41</ele>
<time>2015-11-22T08:40:46Z</time>
</trkpt>
<trkpt lat="30.9607081" lon="35.7485455">
<ele>422.40</ele>
<time>2015-11-22T08:40:47Z</time>
</trkpt>
<trkpt lat="30.9607022" lon="35.7484385">
<ele>421.90</ele>
<time>2015-11-22T08:40:48Z</time>
</trkpt>
<trkpt lat="30.9606915" lon="35.7483363">
<ele>422.15</ele>
<time>2015-11-22T08:40:49Z</time>
</trkpt>
<trkpt lat="30.9606856" lon="35.7482309">
<ele>421.77</ele>
<time>2015-11-22T08:40:50Z</time>
</trkpt>
<trkpt lat="30.9606802" lon="35.7481230">
<ele>421.58</ele>
<time>2015-11-22T08:40:51Z</time>
</trkpt>
<trkpt lat="30.9606741" lon="35.7480166">
<ele>421.49</ele>
<time>2015-11-22T08:40:52Z</time>
</trkpt>
<trkpt lat="30.9606684" lon="35.7479074">
<ele>421.44</ele>
<time>2015-11-22T08:40:53Z</time>
</trkpt>
<trkpt lat="30.9606608" lon="35.7478055">
<ele>420.92</ele>
<time>2015-11-22T08:40:54Z</time>
</trkpt>
<trkpt lat="30.9606572" lon="35.7477012">
<ele>420.66</ele>
<time>2015-11-22T08:40:55Z</time>
</trkpt>
<trkpt lat="30.9606498" lon="35.7475981">
<ele>420.52</ele>
<time>2015-11-22T08:40:56Z</time>
</trkpt>
<trkpt lat="30.9606471" lon="35.7474931">
<ele>419.96</ele>
<time>2015-11-22T08:40:57Z</time>
</trkpt>
<trkpt lat="30.9606405" lon="35.7473884">
<ele>419.68</ele>
<time>2015-11-22T08:40:58Z</time>
</trkpt>
<trkpt lat="30.9606334" lon="35.7472890">
<ele>419.54</ele>
<time>2015-11-22T08:40:59Z</time>
</trkpt>
<trkpt lat="30.9606292" lon="35.7471868">
<ele>419.46</ele>
<time>2015-11-22T08:41:00Z</time>
</trkpt>
<trkpt lat="30.9606285" lon="35.7470794">
<ele>418.93</ele>
<time>2015-11-22T08:41:01Z</time>
</trkpt>
<trkpt lat="30.9606207" lon="35.7469777">
<ele>418.16</ele>
<time>2015-11-22T08:41:02Z</time>
</trkpt>
<trkpt lat="30.9606090" lon="35.7468803">
<ele>417.78</ele>
<time>2015-11-22T08:41:03Z</time>
</trkpt>
<trkpt lat="30.9606015" lon="35.7467833">
<ele>418.09</ele>
<time>2015-11-22T08:41:04Z</time>
</trkpt>
<trkpt lat="30.9605937" lon="35.7466837">
<ele>417.74</ele>
<time>2015-11-22T08:41:05Z</time>
</trkpt>
<trkpt lat="30.9605836" lon="35.7465860">
<ele>417.57</ele>
<time>2015-11-22T08:41:06Z</time>
</trkpt>
<trkpt lat="30.9605734" lon="35.7464868">
<ele>417.48</ele>
<time>2015-11-22T08:41:07Z</time>
</trkpt>
<trkpt lat="30.9605626" lon="35.7463853">
<ele>417.44</ele>
<time>2015-11-22T08:41:08Z</time>
</trkpt>
<trkpt lat="30.9605534" lon="35.7462803">
<ele>417.42</ele>
<time>2015-11-22T08:41:09Z</time>
</trkpt>
<trkpt lat="30.9605447" lon="35.7461748">
<ele>417.40</ele>
<time>2015-11-22T08:41:10Z</time>
</trkpt>
<trkpt lat="30.9605352" lon="35.7460679">
<ele>417.40</ele>
<time>2015-11-22T08:41:11Z</time>
</trkpt>
<trkpt lat="30.9605303" lon="35.7459588">
<ele>417.40</ele>
<time>2015-11-22T08:41:12Z</time>
</trkpt>
<trkpt lat="30.9605237" lon="35.7458478">
<ele>417.90</ele>
<time>2015-11-22T08:41:13Z</time>
</trkpt>
<trkpt lat="30.9605110" lon="35.7456266">
<ele>417.64</ele>
<time>2015-11-22T08:41:15Z</time>
</trkpt>
<trkpt lat="30.9605060" lon="35.7455143">
<ele>417.52</ele>
<time>2015-11-22T08:41:16Z</time>
</trkpt>
<trkpt lat="30.9605002" lon="35.7453978">
<ele>417.46</ele>
<time>2015-11-22T08:41:17Z</time>
</trkpt>
<trkpt lat="30.9604925" lon="35.7452830">
<ele>417.43</ele>
<time>2015-11-22T08:41:18Z</time>
</trkpt>
<trkpt lat="30.9604910" lon="35.7451700">
<ele>416.91</ele>
<time>2015-11-22T08:41:19Z</time>
</trkpt>
<trkpt lat="30.9604903" lon="35.7450534">
<ele>416.65</ele>
<time>2015-11-22T08:41:20Z</time>
</trkpt>
<trkpt lat="30.9605002" lon="35.7449316">
<ele>416.02</ele>
<time>2015-11-22T08:41:21Z</time>
</trkpt>
<trkpt lat="30.9605125" lon="35.7448154">
<ele>415.21</ele>
<time>2015-11-22T08:41:22Z</time>
</trkpt>
<trkpt lat="30.9605293" lon="35.7446938">
<ele>414.80</ele>
<time>2015-11-22T08:41:23Z</time>
</trkpt>
<trkpt lat="30.9605435" lon="35.7445748">
<ele>414.10</ele>
<time>2015-11-22T08:41:24Z</time>
</trkpt>
<trkpt lat="30.9605646" lon="35.7444543">
<ele>413.75</ele>
<time>2015-11-22T08:41:25Z</time>
</trkpt>
<trkpt lat="30.9605863" lon="35.7443376">
<ele>413.57</ele>
<time>2015-11-22T08:41:26Z</time>
</trkpt>
<trkpt lat="30.9606146" lon="35.7442193">
<ele>412.98</ele>
<time>2015-11-22T08:41:27Z</time>
</trkpt>
<trkpt lat="30.9606437" lon="35.7441100">
<ele>412.69</ele>
<time>2015-11-22T08:41:28Z</time>
</trkpt>
<trkpt lat="30.9606767" lon="35.7439988">
<ele>412.54</ele>
<time>2015-11-22T08:41:29Z</time>
</trkpt>
<trkpt lat="30.9607150" lon="35.7438905">
<ele>411.97</ele>
<time>2015-11-22T08:41:30Z</time>
</trkpt>
<trkpt lat="30.9607466" lon="35.7437878">
<ele>411.68</ele>
<time>2015-11-22T08:41:31Z</time>
</trkpt>
<trkpt lat="30.9607880" lon="35.7436846">
<ele>411.04</ele>
<time>2015-11-22T08:41:32Z</time>
</trkpt>
<trkpt lat="30.9608301" lon="35.7435807">
<ele>410.72</ele>
<time>2015-11-22T08:41:33Z</time>
</trkpt>
<trkpt lat="30.9608775" lon="35.7434895">
<ele>410.55</ele>
<time>2015-11-22T08:41:34Z</time>
</trkpt>
<trkpt lat="30.9609268" lon="35.7433955">
<ele>410.47</ele>
<time>2015-11-22T08:41:35Z</time>
</trkpt>
<trkpt lat="30.9609787" lon="35.7433005">
<ele>410.43</ele>
<time>2015-11-22T08:41:36Z</time>
</trkpt>
<trkpt lat="30.9610310" lon="35.7432135">
<ele>410.41</ele>
<time>2015-11-22T08:41:37Z</time>
</trkpt>
<trkpt lat="30.9610836" lon="35.7431325">
<ele>410.40</ele>
<time>2015-11-22T08:41:38Z</time>
</trkpt>
<trkpt lat="30.9611384" lon="35.7430560">
<ele>410.40</ele>
<time>2015-11-22T08:41:39Z</time>
</trkpt>
<trkpt lat="30.9611960" lon="35.7429823">
<ele>410.40</ele>
<time>2015-11-22T08:41:40Z</time>
</trkpt>
<trkpt lat="30.9612462" lon="35.7429148">
<ele>410.40</ele>
<time>2015-11-22T08:41:41Z</time>
</trkpt>
<trkpt lat="30.9613032" lon="35.7428471">
<ele>410.89</ele>
<time>2015-11-22T08:41:42Z</time>
</trkpt>
<trkpt lat="30.9613507" lon="35.7427836">
<ele>411.14</ele>
<time>2015-11-22T08:41:43Z</time>
</trkpt>
<trkpt lat="30.9614025" lon="35.7427227">
<ele>411.77</ele>
<time>2015-11-22T08:41:44Z</time>
</trkpt>
<trkpt lat="30.9614494" lon="35.7426688">
<ele>412.08</ele>
<time>2015-11-22T08:41:45Z</time>
</trkpt>
<trkpt lat="30.9615448" lon="35.7425700">
<ele>412.74</ele>
<time>2015-11-22T08:41:47Z</time>
</trkpt>
<trkpt lat="30.9615981" lon="35.7425259">
<ele>413.57</ele>
<time>2015-11-22T08:41:48Z</time>
</trkpt>
<trkpt lat="30.9616476" lon="35.7424769">
<ele>414.48</ele>
<time>2015-11-22T08:41:49Z</time>
</trkpt>
<trkpt lat="30.9616950" lon="35.7424363">
<ele>414.94</ele>
<time>2015-11-22T08:41:50Z</time>
</trkpt>
<trkpt lat="30.9617405" lon="35.7423977">
<ele>415.67</ele>
<time>2015-11-22T08:41:51Z</time>
</trkpt>
<trkpt lat="30.9617830" lon="35.7423596">
<ele>416.03</ele>
<time>2015-11-22T08:41:52Z</time>
</trkpt>
<trkpt lat="30.9618225" lon="35.7423219">
<ele>416.21</ele>
<time>2015-11-22T08:41:53Z</time>
</trkpt>
<trkpt lat="30.9618606" lon="35.7422854">
<ele>416.80</ele>
<time>2015-11-22T08:41:54Z</time>
</trkpt>
<trkpt lat="30.9618974" lon="35.7422464">
<ele>417.10</ele>
<time>2015-11-22T08:41:55Z</time>
</trkpt>
<trkpt lat="30.9619339" lon="35.7422100">
<ele>417.75</ele>
<time>2015-11-22T08:41:56Z</time>
</trkpt>
<trkpt lat="30.9620006" lon="35.7421474">
<ele>418.98</ele>
<time>2015-11-22T08:41:58Z</time>
</trkpt>
<trkpt lat="30.9620379" lon="35.7421172">
<ele>419.19</ele>
<time>2015-11-22T08:41:59Z</time>
</trkpt>
<trkpt lat="30.9620969" lon="35.7420631">
<ele>419.84</ele>
<time>2015-11-22T08:42:01Z</time>
</trkpt>
<trkpt lat="30.9621595" lon="35.7419985">
<ele>419.51</ele>
<time>2015-11-22T08:42:03Z</time>
</trkpt>
<trkpt lat="30.9622138" lon="35.7419458">
<ele>419.42</ele>
<time>2015-11-22T08:42:05Z</time>
</trkpt>
<trkpt lat="30.9622487" lon="35.7419073">
<ele>419.40</ele>
<time>2015-11-22T08:42:07Z</time>
</trkpt>
<trkpt lat="30.9622895" lon="35.7418617">
<ele>419.89</ele>
<time>2015-11-22T08:42:10Z</time>
</trkpt>
<trkpt lat="30.9623372" lon="35.7418294">
<ele>421.46</ele>
<time>2015-11-22T08:42:28Z</time>
</trkpt>
<trkpt lat="30.9623781" lon="35.7417947">
<ele>420.53</ele>
<time>2015-11-22T08:42:31Z</time>
</trkpt>
<trkpt lat="30.9624017" lon="35.7417498">
<ele>421.53</ele>
<time>2015-11-22T08:47:49Z</time>
</trkpt>
<trkpt lat="30.9624176" lon="35.7417000">
<ele>424.15</ele>
<time>2015-11-22T08:47:54Z</time>
</trkpt>
<trkpt lat="30.9624526" lon="35.7416410">
<ele>423.63</ele>
<time>2015-11-22T08:47:58Z</time>
</trkpt>
<trkpt lat="30.9624881" lon="35.7416014">
<ele>423.95</ele>
<time>2015-11-22T08:48:00Z</time>
</trkpt>
<trkpt lat="30.9625231" lon="35.7415486">
<ele>424.03</ele>
<time>2015-11-22T08:48:02Z</time>
</trkpt>
<trkpt lat="30.9625473" lon="35.7414881">
<ele>425.05</ele>
<time>2015-11-22T08:48:04Z</time>
</trkpt>
<trkpt lat="30.9625729" lon="35.7414213">
<ele>425.81</ele>
<time>2015-11-22T08:48:06Z</time>
</trkpt>
<trkpt lat="30.9625974" lon="35.7413476">
<ele>426.25</ele>
<time>2015-11-22T08:48:08Z</time>
</trkpt>
<trkpt lat="30.9626210" lon="35.7412664">
<ele>426.36</ele>
<time>2015-11-22T08:48:10Z</time>
</trkpt>
<trkpt lat="30.9626402" lon="35.7411822">
<ele>426.38</ele>
<time>2015-11-22T08:48:12Z</time>
</trkpt>
<trkpt lat="30.9626521" lon="35.7410942">
<ele>426.39</ele>
<time>2015-11-22T08:48:14Z</time>
</trkpt>
<trkpt lat="30.9626588" lon="35.7410052">
<ele>426.89</ele>
<time>2015-11-22T08:48:16Z</time>
</trkpt>
<trkpt lat="30.9626615" lon="35.7409153">
<ele>427.27</ele>
<time>2015-11-22T08:48:18Z</time>
</trkpt>
<trkpt lat="30.9626605" lon="35.7408244">
<ele>427.86</ele>
<time>2015-11-22T08:48:20Z</time>
</trkpt>
<trkpt lat="30.9626535" lon="35.7407338">
<ele>429.01</ele>
<time>2015-11-22T08:48:22Z</time>
</trkpt>
<trkpt lat="30.9626414" lon="35.7406456">
<ele>429.80</ele>
<time>2015-11-22T08:48:24Z</time>
</trkpt>
<trkpt lat="30.9626269" lon="35.7405637">
<ele>428.25</ele>
<time>2015-11-22T08:48:26Z</time>
</trkpt>
<trkpt lat="30.9626068" lon="35.7404822">
<ele>427.61</ele>
<time>2015-11-22T08:48:28Z</time>
</trkpt>
<trkpt lat="30.9625837" lon="35.7404011">
<ele>428.45</ele>
<time>2015-11-22T08:48:30Z</time>
</trkpt>
<trkpt lat="30.9625561" lon="35.7403241">
<ele>429.16</ele>
<time>2015-11-22T08:48:32Z</time>
</trkpt>
<trkpt lat="30.9625255" lon="35.7402501">
<ele>429.33</ele>
<time>2015-11-22T08:48:34Z</time>
</trkpt>
<trkpt lat="30.9624898" lon="35.7401804">
<ele>429.38</ele>
<time>2015-11-22T08:48:36Z</time>
</trkpt>
<trkpt lat="30.9624552" lon="35.7401127">
<ele>431.14</ele>
<time>2015-11-22T08:48:38Z</time>
</trkpt>
<trkpt lat="30.9624210" lon="35.7400547">
<ele>431.33</ele>
<time>2015-11-22T08:48:40Z</time>
</trkpt>
<trkpt lat="30.9623859" lon="35.7399968">
<ele>432.13</ele>
<time>2015-11-22T08:48:42Z</time>
</trkpt>
<trkpt lat="30.9623436" lon="35.7399427">
<ele>432.83</ele>
<time>2015-11-22T08:48:44Z</time>
</trkpt>
<trkpt lat="30.9622960" lon="35.7398952">
<ele>433.00</ele>
<time>2015-11-22T08:48:46Z</time>
</trkpt>
<trkpt lat="30.9622508" lon="35.7398467">
<ele>433.80</ele>
<time>2015-11-22T08:48:48Z</time>
</trkpt>
<trkpt lat="30.9622060" lon="35.7397997">
<ele>434.24</ele>
<time>2015-11-22T08:48:50Z</time>
</trkpt>
<trkpt lat="30.9621622" lon="35.7397583">
<ele>434.36</ele>
<time>2015-11-22T08:48:52Z</time>
</trkpt>
<trkpt lat="30.9621193" lon="35.7397210">
<ele>434.63</ele>
<time>2015-11-22T08:48:54Z</time>
</trkpt>
<trkpt lat="30.9620713" lon="35.7396757">
<ele>434.92</ele>
<time>2015-11-22T08:48:57Z</time>
</trkpt>
<trkpt lat="30.9620259" lon="35.7396250">
<ele>436.21</ele>
<time>2015-11-22T08:49:00Z</time>
</trkpt>
<trkpt lat="30.9619723" lon="35.7395797">
<ele>437.25</ele>
<time>2015-11-22T08:49:03Z</time>
</trkpt>
<trkpt lat="30.9619287" lon="35.7395305">
<ele>438.13</ele>
<time>2015-11-22T08:49:06Z</time>
</trkpt>
<trkpt lat="30.9618818" lon="35.7394822">
<ele>438.86</ele>
<time>2015-11-22T08:49:09Z</time>
</trkpt>
<trkpt lat="30.9618376" lon="35.7394304">
<ele>440.20</ele>
<time>2015-11-22T08:49:12Z</time>
</trkpt>
<trkpt lat="30.9617938" lon="35.7393838">
<ele>439.87</ele>
<time>2015-11-22T08:49:15Z</time>
</trkpt>
<trkpt lat="30.9617553" lon="35.7393316">
<ele>440.20</ele>
<time>2015-11-22T08:49:18Z</time>
</trkpt>
<trkpt lat="30.9617199" lon="35.7392821">
<ele>440.87</ele>
<time>2015-11-22T08:49:21Z</time>
</trkpt>
<trkpt lat="30.9616824" lon="35.7392403">
<ele>440.45</ele>
<time>2015-11-22T08:49:24Z</time>
</trkpt>
<trkpt lat="30.9616448" lon="35.7391963">
<ele>441.15</ele>
<time>2015-11-22T08:49:27Z</time>
</trkpt>
<trkpt lat="30.9616029" lon="35.7391570">
<ele>441.36</ele>
<time>2015-11-22T08:49:30Z</time>
</trkpt>
<trkpt lat="30.9615541" lon="35.7391138">
<ele>442.27</ele>
<time>2015-11-22T08:49:33Z</time>
</trkpt>
<trkpt lat="30.9615066" lon="35.7390632">
<ele>444.00</ele>
<time>2015-11-22T08:49:36Z</time>
</trkpt>
<trkpt lat="30.9614601" lon="35.7390093">
<ele>445.22</ele>
<time>2015-11-22T08:49:39Z</time>
</trkpt>
<trkpt lat="30.9614128" lon="35.7389620">
<ele>446.12</ele>
<time>2015-11-22T08:49:42Z</time>
</trkpt>
<trkpt lat="30.9613675" lon="35.7389174">
<ele>446.36</ele>
<time>2015-11-22T08:49:45Z</time>
</trkpt>
<trkpt lat="30.9613245" lon="35.7388756">
<ele>446.39</ele>
<time>2015-11-22T08:49:48Z</time>
</trkpt>
<trkpt lat="30.9612860" lon="35.7388382">
<ele>446.39</ele>
<time>2015-11-22T08:49:51Z</time>
</trkpt>
<trkpt lat="30.9612521" lon="35.7387981">
<ele>446.39</ele>
<time>2015-11-22T08:49:54Z</time>
</trkpt>
<trkpt lat="30.9612232" lon="35.7387566">
<ele>446.27</ele>
<time>2015-11-22T08:49:57Z</time>
</trkpt>
<trkpt lat="30.9611880" lon="35.7387056">
<ele>446.39</ele>
<time>2015-11-22T08:50:01Z</time>
</trkpt>
<trkpt lat="30.9611522" lon="35.7386703">
<ele>446.27</ele>
<time>2015-11-22T08:50:04Z</time>
</trkpt>
<trkpt lat="30.9611178" lon="35.7386312">
<ele>447.25</ele>
<time>2015-11-22T08:50:07Z</time>
</trkpt>
<trkpt lat="30.9610919" lon="35.7385849">
<ele>447.38</ele>
<time>2015-11-22T08:50:10Z</time>
</trkpt>
<trkpt lat="30.9610686" lon="35.7385384">
<ele>447.39</ele>
<time>2015-11-22T08:50:13Z</time>
</trkpt>
<trkpt lat="30.9610320" lon="35.7384818">
<ele>447.14</ele>
<time>2015-11-22T08:50:17Z</time>
</trkpt>
<trkpt lat="30.9610041" lon="35.7384360">
<ele>446.61</ele>
<time>2015-11-22T08:50:20Z</time>
</trkpt>
<trkpt lat="30.9609748" lon="35.7383880">
<ele>446.05</ele>
<time>2015-11-22T08:50:23Z</time>
</trkpt>
<trkpt lat="30.9609482" lon="35.7383347">
<ele>447.23</ele>
<time>2015-11-22T08:50:26Z</time>
</trkpt>
<trkpt lat="30.9609261" lon="35.7382757">
<ele>447.50</ele>
<time>2015-11-22T08:50:29Z</time>
</trkpt>
<trkpt lat="30.9609096" lon="35.7382240">
<ele>446.53</ele>
<time>2015-11-22T08:50:32Z</time>
</trkpt>
<trkpt lat="30.9608912" lon="35.7381707">
<ele>445.91</ele>
<time>2015-11-22T08:50:35Z</time>
</trkpt>
<trkpt lat="30.9608692" lon="35.7381226">
<ele>444.96</ele>
<time>2015-11-22T08:50:38Z</time>
</trkpt>
<trkpt lat="30.9608518" lon="35.7380675">
<ele>444.46</ele>
<time>2015-11-22T08:50:41Z</time>
</trkpt>
<trkpt lat="30.9608350" lon="35.7380101">
<ele>445.15</ele>
<time>2015-11-22T08:50:44Z</time>
</trkpt>
<trkpt lat="30.9608181" lon="35.7379484">
<ele>446.11</ele>
<time>2015-11-22T08:50:47Z</time>
</trkpt>
<trkpt lat="30.9608018" lon="35.7378809">
<ele>447.23</ele>
<time>2015-11-22T08:50:50Z</time>
</trkpt>
<trkpt lat="30.9607841" lon="35.7378191">
<ele>448.12</ele>
<time>2015-11-22T08:50:53Z</time>
</trkpt>
<trkpt lat="30.9607705" lon="35.7377583">
<ele>448.86</ele>
<time>2015-11-22T08:50:56Z</time>
</trkpt>
<trkpt lat="30.9607543" lon="35.7376980">
<ele>449.95</ele>
<time>2015-11-22T08:50:59Z</time>
</trkpt>
<trkpt lat="30.9607500" lon="35.7376350">
<ele>449.84</ele>
<time>2015-11-22T08:51:02Z</time>
</trkpt>
<trkpt lat="30.9607435" lon="35.7375748">
<ele>450.95</ele>
<time>2015-11-22T08:51:05Z</time>
</trkpt>
<trkpt lat="30.9607368" lon="35.7375102">
<ele>452.21</ele>
<time>2015-11-22T08:51:08Z</time>
</trkpt>
<trkpt lat="30.9607404" lon="35.7374457">
<ele>452.37</ele>
<time>2015-11-22T08:51:11Z</time>
</trkpt>
<trkpt lat="30.9607466" lon="35.7373818">
<ele>451.52</ele>
<time>2015-11-22T08:51:14Z</time>
</trkpt>
<trkpt lat="30.9607503" lon="35.7373205">
<ele>452.03</ele>
<time>2015-11-22T08:51:17Z</time>
</trkpt>
<trkpt lat="30.9607557" lon="35.7372584">
<ele>453.22</ele>
<time>2015-11-22T08:51:20Z</time>
</trkpt>
<trkpt lat="30.9607642" lon="35.7371996">
<ele>453.87</ele>
<time>2015-11-22T08:51:23Z</time>
</trkpt>
<trkpt lat="30.9607766" lon="35.7371365">
<ele>454.83</ele>
<time>2015-11-22T08:51:26Z</time>
</trkpt>
<trkpt lat="30.9607801" lon="35.7370745">
<ele>456.57</ele>
<time>2015-11-22T08:51:29Z</time>
</trkpt>
<trkpt lat="30.9607911" lon="35.7370123">
<ele>457.29</ele>
<time>2015-11-22T08:51:32Z</time>
</trkpt>
<trkpt lat="30.9608028" lon="35.7369459">
<ele>457.76</ele>
<time>2015-11-22T08:51:35Z</time>
</trkpt>
<trkpt lat="30.9608160" lon="35.7368839">
<ele>457.44</ele>
<time>2015-11-22T08:51:38Z</time>
</trkpt>
<trkpt lat="30.9608226" lon="35.7368211">
<ele>458.15</ele>
<time>2015-11-22T08:51:41Z</time>
</trkpt>
<trkpt lat="30.9608274" lon="35.7367632">
<ele>458.24</ele>
<time>2015-11-22T08:51:44Z</time>
</trkpt>
<trkpt lat="30.9608316" lon="35.7367015">
<ele>457.87</ele>
<time>2015-11-22T08:51:47Z</time>
</trkpt>
<trkpt lat="30.9608396" lon="35.7366350">
<ele>458.33</ele>
<time>2015-11-22T08:51:50Z</time>
</trkpt>
<trkpt lat="30.9608511" lon="35.7365662">
<ele>460.01</ele>
<time>2015-11-22T08:51:53Z</time>
</trkpt>
<trkpt lat="30.9608664" lon="35.7365083">
<ele>459.47</ele>
<time>2015-11-22T08:51:56Z</time>
</trkpt>
<trkpt lat="30.9608763" lon="35.7364456">
<ele>459.90</ele>
<time>2015-11-22T08:51:59Z</time>
</trkpt>
<trkpt lat="30.9608769" lon="35.7363927">
<ele>459.08</ele>
<time>2015-11-22T08:52:02Z</time>
</trkpt>
<trkpt lat="30.9608791" lon="35.7363332">
<ele>461.73</ele>
<time>2015-11-22T08:52:05Z</time>
</trkpt>
<trkpt lat="30.9608852" lon="35.7362699">
<ele>463.06</ele>
<time>2015-11-22T08:52:08Z</time>
</trkpt>
<trkpt lat="30.9608882" lon="35.7362054">
<ele>463.60</ele>
<time>2015-11-22T08:52:11Z</time>
</trkpt>
<trkpt lat="30.9608910" lon="35.7361416">
<ele>464.17</ele>
<time>2015-11-22T08:52:14Z</time>
</trkpt>
<trkpt lat="30.9608914" lon="35.7360839">
<ele>463.62</ele>
<time>2015-11-22T08:52:17Z</time>
</trkpt>
<trkpt lat="30.9608904" lon="35.7360232">
<ele>464.80</ele>
<time>2015-11-22T08:52:20Z</time>
</trkpt>
<trkpt lat="30.9608909" lon="35.7359600">
<ele>465.32</ele>
<time>2015-11-22T08:52:23Z</time>
</trkpt>
<trkpt lat="30.9608919" lon="35.7358984">
<ele>465.38</ele>
<time>2015-11-22T08:52:26Z</time>
</trkpt>
<trkpt lat="30.9608887" lon="35.7358383">
<ele>465.64</ele>
<time>2015-11-22T08:52:29Z</time>
</trkpt>
<trkpt lat="30.9608908" lon="35.7357778">
<ele>466.18</ele>
<time>2015-11-22T08:52:32Z</time>
</trkpt>
<trkpt lat="30.9608950" lon="35.7357222">
<ele>467.24</ele>
<time>2015-11-22T08:52:35Z</time>
</trkpt>
<trkpt lat="30.9608979" lon="35.7356574">
<ele>468.13</ele>
<time>2015-11-22T08:52:39Z</time>
</trkpt>
<trkpt lat="30.9608645" lon="35.7356141">
<ele>469.11</ele>
<time>2015-11-22T08:56:46Z</time>
</trkpt>
<trkpt lat="30.9608512" lon="35.7355598">
<ele>468.88</ele>
<time>2015-11-22T08:56:50Z</time>
</trkpt>
<trkpt lat="30.9608420" lon="35.7355081">
<ele>469.33</ele>
<time>2015-11-22T08:56:53Z</time>
</trkpt>
<trkpt lat="30.9608344" lon="35.7354554">
<ele>469.26</ele>
<time>2015-11-22T08:56:56Z</time>
</trkpt>
<trkpt lat="30.9608199" lon="35.7353942">
<ele>469.39</ele>
<time>2015-11-22T08:57:00Z</time>
</trkpt>
<trkpt lat="30.9607917" lon="35.7353326">
<ele>469.39</ele>
<time>2015-11-22T08:57:04Z</time>
</trkpt>
<trkpt lat="30.9607746" lon="35.7352818">
<ele>469.89</ele>
<time>2015-11-22T08:57:07Z</time>
</trkpt>
<trkpt lat="30.9607533" lon="35.7352180">
<ele>471.74</ele>
<time>2015-11-22T08:57:11Z</time>
</trkpt>
<trkpt lat="30.9607255" lon="35.7351699">
<ele>472.31</ele>
<time>2015-11-22T08:57:14Z</time>
</trkpt>
<trkpt lat="30.9607078" lon="35.7351158">
<ele>472.38</ele>
<time>2015-11-22T08:57:17Z</time>
</trkpt>
<trkpt lat="30.9606935" lon="35.7350655">
<ele>472.39</ele>
<time>2015-11-22T08:57:20Z</time>
</trkpt>
<trkpt lat="30.9606625" lon="35.7350069">
<ele>473.33</ele>
<time>2015-11-22T08:57:24Z</time>
</trkpt>
<trkpt lat="30.9606393" lon="35.7349467">
<ele>473.39</ele>
<time>2015-11-22T08:57:28Z</time>
</trkpt>
<trkpt lat="30.9606141" lon="35.7349022">
<ele>472.52</ele>
<time>2015-11-22T08:57:31Z</time>
</trkpt>
<trkpt lat="30.9605858" lon="35.7348591">
<ele>472.53</ele>
<time>2015-11-22T08:57:34Z</time>
</trkpt>
<trkpt lat="30.9605556" lon="35.7348037">
<ele>472.40</ele>
<time>2015-11-22T08:57:38Z</time>
</trkpt>
<trkpt lat="30.9605223" lon="35.7347486">
<ele>472.39</ele>
<time>2015-11-22T08:57:42Z</time>
</trkpt>
<trkpt lat="30.9604896" lon="35.7347083">
<ele>474.02</ele>
<time>2015-11-22T08:57:45Z</time>
</trkpt>
<trkpt lat="30.9604601" lon="35.7346681">
<ele>475.10</ele>
<time>2015-11-22T08:57:48Z</time>
</trkpt>
<trkpt lat="30.9604342" lon="35.7346248">
<ele>475.36</ele>
<time>2015-11-22T08:57:51Z</time>
</trkpt>
<trkpt lat="30.9603975" lon="35.7345705">
<ele>475.39</ele>
<time>2015-11-22T08:57:55Z</time>
</trkpt>
<trkpt lat="30.9603647" lon="35.7345330">
<ele>475.89</ele>
<time>2015-11-22T08:57:58Z</time>
</trkpt>
<trkpt lat="30.9603382" lon="35.7344891">
<ele>476.33</ele>
<time>2015-11-22T08:58:01Z</time>
</trkpt>
<trkpt lat="30.9602982" lon="35.7344410">
<ele>475.52</ele>
<time>2015-11-22T08:58:05Z</time>
</trkpt>
<trkpt lat="30.9602568" lon="35.7344060">
<ele>476.16</ele>
<time>2015-11-22T08:58:08Z</time>
</trkpt>
<trkpt lat="30.9602126" lon="35.7343666">
<ele>476.36</ele>
<time>2015-11-22T08:58:11Z</time>
</trkpt>
<trkpt lat="30.9601710" lon="35.7343211">
<ele>476.39</ele>
<time>2015-11-22T08:58:14Z</time>
</trkpt>
<trkpt lat="30.9601257" lon="35.7342762">
<ele>478.64</ele>
<time>2015-11-22T08:58:17Z</time>
</trkpt>
<trkpt lat="30.9600806" lon="35.7342338">
<ele>479.30</ele>
<time>2015-11-22T08:58:20Z</time>
</trkpt>
<trkpt lat="30.9600386" lon="35.7341985">
<ele>479.88</ele>
<time>2015-11-22T08:58:23Z</time>
</trkpt>
<trkpt lat="30.9599898" lon="35.7341606">
<ele>480.33</ele>
<time>2015-11-22T08:58:26Z</time>
</trkpt>
<trkpt lat="30.9599445" lon="35.7341150">
<ele>480.64</ele>
<time>2015-11-22T08:58:29Z</time>
</trkpt>
<trkpt lat="30.9598968" lon="35.7340740">
<ele>480.92</ele>
<time>2015-11-22T08:58:32Z</time>
</trkpt>
<trkpt lat="30.9598609" lon="35.7340423">
<ele>482.03</ele>
<time>2015-11-22T08:58:34Z</time>
</trkpt>
<trkpt lat="30.9598242" lon="35.7340059">
<ele>482.30</ele>
<time>2015-11-22T08:58:36Z</time>
</trkpt>
<trkpt lat="30.9597864" lon="35.7339688">
<ele>483.12</ele>
<time>2015-11-22T08:58:38Z</time>
</trkpt>
<trkpt lat="30.9597206" lon="35.7339084">
<ele>484.36</ele>
<time>2015-11-22T08:58:41Z</time>
</trkpt>
<trkpt lat="30.9596688" lon="35.7338653">
<ele>485.14</ele>
<time>2015-11-22T08:58:43Z</time>
</trkpt>
<trkpt lat="30.9596192" lon="35.7338238">
<ele>485.33</ele>
<time>2015-11-22T08:58:45Z</time>
</trkpt>
<trkpt lat="30.9595705" lon="35.7337845">
<ele>485.38</ele>
<time>2015-11-22T08:58:47Z</time>
</trkpt>
<trkpt lat="30.9595240" lon="35.7337460">
<ele>486.64</ele>
<time>2015-11-22T08:58:49Z</time>
</trkpt>
<trkpt lat="30.9594794" lon="35.7337107">
<ele>487.21</ele>
<time>2015-11-22T08:58:51Z</time>
</trkpt>
<trkpt lat="30.9594374" lon="35.7336780">
<ele>487.35</ele>
<time>2015-11-22T08:58:53Z</time>
</trkpt>
<trkpt lat="30.9593962" lon="35.7336416">
<ele>487.38</ele>
<time>2015-11-22T08:58:55Z</time>
</trkpt>
<trkpt lat="30.9593585" lon="35.7335983">
<ele>470.64</ele>
<time>2015-11-22T08:58:57Z</time>
</trkpt>
<trkpt lat="30.9593185" lon="35.7335567">
<ele>476.96</ele>
<time>2015-11-22T08:58:59Z</time>
</trkpt>
<trkpt lat="30.9592769" lon="35.7335169">
<ele>482.03</ele>
<time>2015-11-22T08:59:01Z</time>
</trkpt>
<trkpt lat="30.9592346" lon="35.7334760">
<ele>484.55</ele>
<time>2015-11-22T08:59:03Z</time>
</trkpt>
<trkpt lat="30.9591925" lon="35.7334344">
<ele>485.93</ele>
<time>2015-11-22T08:59:05Z</time>
</trkpt>
<trkpt lat="30.9591515" lon="35.7333917">
<ele>486.66</ele>
<time>2015-11-22T08:59:07Z</time>
</trkpt>
<trkpt lat="30.9591095" lon="35.7333502">
<ele>487.21</ele>
<time>2015-11-22T08:59:09Z</time>
</trkpt>
<trkpt lat="30.9590692" lon="35.7333082">
<ele>487.35</ele>
<time>2015-11-22T08:59:11Z</time>
</trkpt>
<trkpt lat="30.9590349" lon="35.7332624">
<ele>487.38</ele>
<time>2015-11-22T08:59:13Z</time>
</trkpt>
<trkpt lat="30.9590014" lon="35.7332173">
<ele>487.39</ele>
<time>2015-11-22T08:59:15Z</time>
</trkpt>
<trkpt lat="30.9589686" lon="35.7331735">
<ele>487.39</ele>
<time>2015-11-22T08:59:17Z</time>
</trkpt>
<trkpt lat="30.9589393" lon="35.7331268">
<ele>487.39</ele>
<time>2015-11-22T08:59:19Z</time>
</trkpt>
<trkpt lat="30.9589075" lon="35.7330815">
<ele>487.39</ele>
<time>2015-11-22T08:59:21Z</time>
</trkpt>
<trkpt lat="30.9588794" lon="35.7330337">
<ele>487.89</ele>
<time>2015-11-22T08:59:23Z</time>
</trkpt>
<trkpt lat="30.9588532" lon="35.7329838">
<ele>488.27</ele>
<time>2015-11-22T08:59:25Z</time>
</trkpt>
<trkpt lat="30.9588250" lon="35.7329350">
<ele>488.36</ele>
<time>2015-11-22T08:59:27Z</time>
</trkpt>
<trkpt lat="30.9587980" lon="35.7328853">
<ele>488.89</ele>
<time>2015-11-22T08:59:29Z</time>
</trkpt>
<trkpt lat="30.9587775" lon="35.7328320">
<ele>488.52</ele>
<time>2015-11-22T08:59:31Z</time>
</trkpt>
<trkpt lat="30.9587581" lon="35.7327769">
<ele>488.67</ele>
<time>2015-11-22T08:59:33Z</time>
</trkpt>
<trkpt lat="30.9587403" lon="35.7327205">
<ele>488.46</ele>
<time>2015-11-22T08:59:35Z</time>
</trkpt>
<trkpt lat="30.9587244" lon="35.7326633">
<ele>488.41</ele>
<time>2015-11-22T08:59:37Z</time>
</trkpt>
<trkpt lat="30.9587100" lon="35.7326062">
<ele>488.40</ele>
<time>2015-11-22T08:59:39Z</time>
</trkpt>
<trkpt lat="30.9586971" lon="35.7325487">
<ele>488.90</ele>
<time>2015-11-22T08:59:41Z</time>
</trkpt>
<trkpt lat="30.9586850" lon="35.7324915">
<ele>489.27</ele>
<time>2015-11-22T08:59:43Z</time>
</trkpt>
<trkpt lat="30.9586732" lon="35.7324340">
<ele>489.36</ele>
<time>2015-11-22T08:59:45Z</time>
</trkpt>
<trkpt lat="30.9586536" lon="35.7323478">
<ele>489.64</ele>
<time>2015-11-22T08:59:48Z</time>
</trkpt>
<trkpt lat="30.9586478" lon="35.7322892">
<ele>489.95</ele>
<time>2015-11-22T08:59:50Z</time>
</trkpt>
<trkpt lat="30.9586468" lon="35.7322333">
<ele>490.17</ele>
<time>2015-11-22T08:59:52Z</time>
</trkpt>
<trkpt lat="30.9586477" lon="35.7321780">
<ele>490.84</ele>
<time>2015-11-22T08:59:54Z</time>
</trkpt>
<trkpt lat="30.9586516" lon="35.7321234">
<ele>491.01</ele>
<time>2015-11-22T08:59:56Z</time>
</trkpt>
<trkpt lat="30.9586554" lon="35.7320694">
<ele>491.30</ele>
<time>2015-11-22T08:59:58Z</time>
</trkpt>
<trkpt lat="30.9586577" lon="35.7320158">
<ele>491.87</ele>
<time>2015-11-22T09:00:00Z</time>
</trkpt>
<trkpt lat="30.9586591" lon="35.7319632">
<ele>492.26</ele>
<time>2015-11-22T09:00:02Z</time>
</trkpt>
<trkpt lat="30.9586649" lon="35.7318891">
<ele>492.88</ele>
<time>2015-11-22T09:00:05Z</time>
</trkpt>
<trkpt lat="30.9586713" lon="35.7318348">
<ele>492.58</ele>
<time>2015-11-22T09:00:08Z</time>
</trkpt>
<trkpt lat="30.9587044" lon="35.7317986">
<ele>492.37</ele>
<time>2015-11-22T09:02:29Z</time>
</trkpt>
<trkpt lat="30.9587185" lon="35.7317377">
<ele>490.55</ele>
<time>2015-11-22T09:06:06Z</time>
</trkpt>
<trkpt lat="30.9587236" lon="35.7316810">
<ele>490.65</ele>
<time>2015-11-22T09:06:10Z</time>
</trkpt>
<trkpt lat="30.9587330" lon="35.7316216">
<ele>492.04</ele>
<time>2015-11-22T09:06:14Z</time>
</trkpt>
<trkpt lat="30.9587458" lon="35.7315684">
<ele>492.35</ele>
<time>2015-11-22T09:06:17Z</time>
</trkpt>
<trkpt lat="30.9587616" lon="35.7315086">
<ele>492.64</ele>
<time>2015-11-22T09:06:20Z</time>
</trkpt>
<trkpt lat="30.9587785" lon="35.7314487">
<ele>493.05</ele>
<time>2015-11-22T09:06:23Z</time>
</trkpt>
<trkpt lat="30.9588006" lon="35.7313873">
<ele>492.85</ele>
<time>2015-11-22T09:06:26Z</time>
</trkpt>
<trkpt lat="30.9588238" lon="35.7313242">
<ele>492.70</ele>
<time>2015-11-22T09:06:29Z</time>
</trkpt>
<trkpt lat="30.9588462" lon="35.7312684">
<ele>494.43</ele>
<time>2015-11-22T09:06:32Z</time>
</trkpt>
<trkpt lat="30.9588685" lon="35.7312143">
<ele>496.90</ele>
<time>2015-11-22T09:06:35Z</time>
</trkpt>
<trkpt lat="30.9588891" lon="35.7311600">
<ele>497.83</ele>
<time>2015-11-22T09:06:38Z</time>
</trkpt>
<trkpt lat="30.9589098" lon="35.7311049">
<ele>498.82</ele>
<time>2015-11-22T09:06:41Z</time>
</trkpt>
<trkpt lat="30.9589314" lon="35.7310553">
<ele>499.32</ele>
<time>2015-11-22T09:06:44Z</time>
</trkpt>
<trkpt lat="30.9589518" lon="35.7310019">
<ele>499.89</ele>
<time>2015-11-22T09:06:47Z</time>
</trkpt>
<trkpt lat="30.9589727" lon="35.7309480">
<ele>500.33</ele>
<time>2015-11-22T09:06:50Z</time>
</trkpt>
<trkpt lat="30.9589944" lon="35.7308954">
<ele>501.14</ele>
<time>2015-11-22T09:06:53Z</time>
</trkpt>
<trkpt lat="30.9590176" lon="35.7308410">
<ele>502.11</ele>
<time>2015-11-22T09:06:56Z</time>
</trkpt>
<trkpt lat="30.9590410" lon="35.7307908">
<ele>501.86</ele>
<time>2015-11-22T09:06:59Z</time>
</trkpt>
<trkpt lat="30.9590586" lon="35.7307379">
<ele>501.45</ele>
<time>2015-11-22T09:07:02Z</time>
</trkpt>
<trkpt lat="30.9590829" lon="35.7306868">
<ele>502.15</ele>
<time>2015-11-22T09:07:05Z</time>
</trkpt>
<trkpt lat="30.9591130" lon="35.7306342">
<ele>503.61</ele>
<time>2015-11-22T09:07:08Z</time>
</trkpt>
<trkpt lat="30.9591369" lon="35.7305818">
<ele>503.92</ele>
<time>2015-11-22T09:07:11Z</time>
</trkpt>
<trkpt lat="30.9591593" lon="35.7305300">
<ele>505.08</ele>
<time>2015-11-22T09:07:14Z</time>
</trkpt>
<trkpt lat="30.9591850" lon="35.7304705">
<ele>505.87</ele>
<time>2015-11-22T09:07:18Z</time>
</trkpt>
<trkpt lat="30.9592108" lon="35.7304194">
<ele>505.61</ele>
<time>2015-11-22T09:07:22Z</time>
</trkpt>
<trkpt lat="30.9592338" lon="35.7303594">
<ele>505.41</ele>
<time>2015-11-22T09:07:26Z</time>
</trkpt>
<trkpt lat="30.9592529" lon="35.7303100">
<ele>506.27</ele>
<time>2015-11-22T09:07:29Z</time>
</trkpt>
<trkpt lat="30.9592686" lon="35.7302559">
<ele>508.00</ele>
<time>2015-11-22T09:07:32Z</time>
</trkpt>
<trkpt lat="30.9592915" lon="35.7301918">
<ele>507.68</ele>
<time>2015-11-22T09:07:36Z</time>
</trkpt>
<trkpt lat="30.9593148" lon="35.7301290">
<ele>508.79</ele>
<time>2015-11-22T09:07:40Z</time>
</trkpt>
<trkpt lat="30.9593382" lon="35.7300652">
<ele>509.54</ele>
<time>2015-11-22T09:07:44Z</time>
</trkpt>
<trkpt lat="30.9593533" lon="35.7300127">
<ele>511.04</ele>
<time>2015-11-22T09:07:47Z</time>
</trkpt>
<trkpt lat="30.9593685" lon="35.7299607">
<ele>512.10</ele>
<time>2015-11-22T09:07:50Z</time>
</trkpt>
<trkpt lat="30.9593827" lon="35.7298953">
<ele>513.31</ele>
<time>2015-11-22T09:07:54Z</time>
</trkpt>
<trkpt lat="30.9593938" lon="35.7298437">
<ele>515.01</ele>
<time>2015-11-22T09:07:57Z</time>
</trkpt>
<trkpt lat="30.9594105" lon="35.7297920">
<ele>515.85</ele>
<time>2015-11-22T09:08:00Z</time>
</trkpt>
<trkpt lat="30.9594254" lon="35.7297378">
<ele>517.58</ele>
<time>2015-11-22T09:08:03Z</time>
</trkpt>
<trkpt lat="30.9594344" lon="35.7296771">
<ele>518.29</ele>
<time>2015-11-22T09:08:06Z</time>
</trkpt>
<trkpt lat="30.9594378" lon="35.7296171">
<ele>518.88</ele>
<time>2015-11-22T09:08:09Z</time>
</trkpt>
<trkpt lat="30.9594397" lon="35.7295571">
<ele>519.33</ele>
<time>2015-11-22T09:08:12Z</time>
</trkpt>
<trkpt lat="30.9594411" lon="35.7294969">
<ele>519.39</ele>
<time>2015-11-22T09:08:15Z</time>
</trkpt>
<trkpt lat="30.9594421" lon="35.7294373">
<ele>519.39</ele>
<time>2015-11-22T09:08:18Z</time>
</trkpt>
<trkpt lat="30.9594416" lon="35.7293760">
<ele>520.27</ele>
<time>2015-11-22T09:08:21Z</time>
</trkpt>
<trkpt lat="30.9594385" lon="35.7293097">
<ele>520.38</ele>
<time>2015-11-22T09:08:24Z</time>
</trkpt>
<trkpt lat="30.9594283" lon="35.7292414">
<ele>520.39</ele>
<time>2015-11-22T09:08:27Z</time>
</trkpt>
<trkpt lat="30.9594127" lon="35.7291701">
<ele>520.39</ele>
<time>2015-11-22T09:08:30Z</time>
</trkpt>
<trkpt lat="30.9593982" lon="35.7291019">
<ele>507.77</ele>
<time>2015-11-22T09:08:33Z</time>
</trkpt>
<trkpt lat="30.9593819" lon="35.7290383">
<ele>506.44</ele>
<time>2015-11-22T09:08:36Z</time>
</trkpt>
<trkpt lat="30.9593614" lon="35.7289661">
<ele>505.40</ele>
<time>2015-11-22T09:08:39Z</time>
</trkpt>
<trkpt lat="30.9593356" lon="35.7288960">
<ele>507.14</ele>
<time>2015-11-22T09:08:42Z</time>
</trkpt>
<trkpt lat="30.9593184" lon="35.7288475">
<ele>506.58</ele>
<time>2015-11-22T09:08:44Z</time>
</trkpt>
<trkpt lat="30.9592950" lon="35.7288003">
<ele>507.69</ele>
<time>2015-11-22T09:08:46Z</time>
</trkpt>
<trkpt lat="30.9592609" lon="35.7287356">
<ele>509.18</ele>
<time>2015-11-22T09:08:49Z</time>
</trkpt>
<trkpt lat="30.9592303" lon="35.7286764">
<ele>507.12</ele>
<time>2015-11-22T09:08:52Z</time>
</trkpt>
<trkpt lat="30.9591948" lon="35.7286085">
<ele>507.11</ele>
<time>2015-11-22T09:08:55Z</time>
</trkpt>
<trkpt lat="30.9591650" lon="35.7285608">
<ele>507.07</ele>
<time>2015-11-22T09:08:57Z</time>
</trkpt>
<trkpt lat="30.9591354" lon="35.7285107">
<ele>506.81</ele>
<time>2015-11-22T09:08:59Z</time>
</trkpt>
<trkpt lat="30.9591029" lon="35.7284619">
<ele>508.25</ele>
<time>2015-11-22T09:09:01Z</time>
</trkpt>
<trkpt lat="30.9590612" lon="35.7284081">
<ele>508.36</ele>
<time>2015-11-22T09:09:03Z</time>
</trkpt>
<trkpt lat="30.9590172" lon="35.7283508">
<ele>508.63</ele>
<time>2015-11-22T09:09:05Z</time>
</trkpt>
<trkpt lat="30.9589685" lon="35.7282851">
<ele>507.45</ele>
<time>2015-11-22T09:09:07Z</time>
</trkpt>
<trkpt lat="30.9589065" lon="35.7282092">
<ele>507.91</ele>
<time>2015-11-22T09:09:09Z</time>
</trkpt>
<trkpt lat="30.9588535" lon="35.7281546">
<ele>508.15</ele>
<time>2015-11-22T09:09:10Z</time>
</trkpt>
<trkpt lat="30.9588097" lon="35.7281140">
<ele>508.27</ele>
<time>2015-11-22T09:09:11Z</time>
</trkpt>
<trkpt lat="30.9587729" lon="35.7280694">
<ele>508.33</ele>
<time>2015-11-22T09:09:12Z</time>
</trkpt>
<trkpt lat="30.9587375" lon="35.7280345">
<ele>506.86</ele>
<time>2015-11-22T09:09:13Z</time>
</trkpt>
<trkpt lat="30.9586919" lon="35.7279868">
<ele>507.63</ele>
<time>2015-11-22T09:09:14Z</time>
</trkpt>
<trkpt lat="30.9586378" lon="35.7279404">
<ele>507.51</ele>
<time>2015-11-22T09:09:15Z</time>
</trkpt>
<trkpt lat="30.9585817" lon="35.7278809">
<ele>507.45</ele>
<time>2015-11-22T09:09:16Z</time>
</trkpt>
<trkpt lat="30.9585162" lon="35.7278234">
<ele>507.42</ele>
<time>2015-11-22T09:09:17Z</time>
</trkpt>
<trkpt lat="30.9584656" lon="35.7277584">
<ele>506.41</ele>
<time>2015-11-22T09:09:18Z</time>
</trkpt>
<trkpt lat="30.9584061" lon="35.7277019">
<ele>505.90</ele>
<time>2015-11-22T09:09:19Z</time>
</trkpt>
<trkpt lat="30.9583375" lon="35.7276427">
<ele>505.65</ele>
<time>2015-11-22T09:09:20Z</time>
</trkpt>
<trkpt lat="30.9582677" lon="35.7275760">
<ele>505.52</ele>
<time>2015-11-22T09:09:21Z</time>
</trkpt>
<trkpt lat="30.9582026" lon="35.7275043">
<ele>505.46</ele>
<time>2015-11-22T09:09:22Z</time>
</trkpt>
<trkpt lat="30.9581355" lon="35.7274264">
<ele>505.43</ele>
<time>2015-11-22T09:09:23Z</time>
</trkpt>
<trkpt lat="30.9580680" lon="35.7273439">
<ele>505.41</ele>
<time>2015-11-22T09:09:24Z</time>
</trkpt>
<trkpt lat="30.9580085" lon="35.7272513">
<ele>504.40</ele>
<time>2015-11-22T09:09:25Z</time>
</trkpt>
<trkpt lat="30.9579558" lon="35.7271538">
<ele>504.40</ele>
<time>2015-11-22T09:09:26Z</time>
</trkpt>
<trkpt lat="30.9579073" lon="35.7270579">
<ele>504.40</ele>
<time>2015-11-22T09:09:27Z</time>
</trkpt>
<trkpt lat="30.9578671" lon="35.7269608">
<ele>504.89</ele>
<time>2015-11-22T09:09:28Z</time>
</trkpt>
<trkpt lat="30.9578226" lon="35.7268651">
<ele>504.64</ele>
<time>2015-11-22T09:09:29Z</time>
</trkpt>
<trkpt lat="30.9577867" lon="35.7267627">
<ele>504.02</ele>
<time>2015-11-22T09:09:30Z</time>
</trkpt>
<trkpt lat="30.9577605" lon="35.7266633">
<ele>503.21</ele>
<time>2015-11-22T09:09:31Z</time>
</trkpt>
<trkpt lat="30.9577404" lon="35.7265577">
<ele>502.80</ele>
<time>2015-11-22T09:09:32Z</time>
</trkpt>
<trkpt lat="30.9577283" lon="35.7264529">
<ele>502.60</ele>
<time>2015-11-22T09:09:33Z</time>
</trkpt>
<trkpt lat="30.9577251" lon="35.7263649">
<ele>502.50</ele>
<time>2015-11-22T09:09:34Z</time>
</trkpt>
<trkpt lat="30.9577233" lon="35.7262816">
<ele>502.44</ele>
<time>2015-11-22T09:09:35Z</time>
</trkpt>
<trkpt lat="30.9577234" lon="35.7261903">
<ele>502.92</ele>
<time>2015-11-22T09:09:36Z</time>
</trkpt>
<trkpt lat="30.9577266" lon="35.7261084">
<ele>503.66</ele>
<time>2015-11-22T09:09:37Z</time>
</trkpt>
<trkpt lat="30.9577345" lon="35.7260383">
<ele>504.03</ele>
<time>2015-11-22T09:09:38Z</time>
</trkpt>
<trkpt lat="30.9577404" lon="35.7259614">
<ele>505.21</ele>
<time>2015-11-22T09:09:39Z</time>
</trkpt>
<trkpt lat="30.9577509" lon="35.7258844">
<ele>505.30</ele>
<time>2015-11-22T09:09:40Z</time>
</trkpt>
<trkpt lat="30.9577742" lon="35.7258204">
<ele>504.85</ele>
<time>2015-11-22T09:09:41Z</time>
</trkpt>
<trkpt lat="30.9577931" lon="35.7257556">
<ele>504.62</ele>
<time>2015-11-22T09:09:42Z</time>
</trkpt>
<trkpt lat="30.9578086" lon="35.7256910">
<ele>504.51</ele>
<time>2015-11-22T09:09:43Z</time>
</trkpt>
<trkpt lat="30.9578282" lon="35.7256259">
<ele>504.45</ele>
<time>2015-11-22T09:09:44Z</time>
</trkpt>
<trkpt lat="30.9578524" lon="35.7255591">
<ele>503.92</ele>
<time>2015-11-22T09:09:45Z</time>
</trkpt>
<trkpt lat="30.9578781" lon="35.7254932">
<ele>503.66</ele>
<time>2015-11-22T09:09:46Z</time>
</trkpt>
<trkpt lat="30.9579048" lon="35.7254279">
<ele>503.53</ele>
<time>2015-11-22T09:09:47Z</time>
</trkpt>
<trkpt lat="30.9579264" lon="35.7253651">
<ele>502.96</ele>
<time>2015-11-22T09:09:48Z</time>
</trkpt>
<trkpt lat="30.9579918" lon="35.7252892">
<ele>502.29</ele>
<time>2015-11-22T09:09:50Z</time>
</trkpt>
<trkpt lat="30.9580536" lon="35.7252114">
<ele>502.37</ele>
<time>2015-11-22T09:09:52Z</time>
</trkpt>
<trkpt lat="30.9581056" lon="35.7251359">
<ele>503.64</ele>
<time>2015-11-22T09:09:54Z</time>
</trkpt>
<trkpt lat="30.9581528" lon="35.7250709">
<ele>504.70</ele>
<time>2015-11-22T09:09:56Z</time>
</trkpt>
<trkpt lat="30.9581927" lon="35.7250122">
<ele>506.47</ele>
<time>2015-11-22T09:09:58Z</time>
</trkpt>
<trkpt lat="30.9582261" lon="35.7249641">
<ele>506.66</ele>
<time>2015-11-22T09:10:00Z</time>
</trkpt>
<trkpt lat="30.9582676" lon="35.7249045">
<ele>506.96</ele>
<time>2015-11-22T09:10:02Z</time>
</trkpt>
<trkpt lat="30.9583121" lon="35.7248568">
<ele>507.54</ele>
<time>2015-11-22T09:10:04Z</time>
</trkpt>
<trkpt lat="30.9583492" lon="35.7248098">
<ele>507.43</ele>
<time>2015-11-22T09:10:06Z</time>
</trkpt>
<trkpt lat="30.9583807" lon="35.7247662">
<ele>509.15</ele>
<time>2015-11-22T09:10:08Z</time>
</trkpt>
<trkpt lat="30.9584128" lon="35.7247232">
<ele>511.33</ele>
<time>2015-11-22T09:10:10Z</time>
</trkpt>
<trkpt lat="30.9584449" lon="35.7246833">
<ele>512.13</ele>
<time>2015-11-22T09:10:12Z</time>
</trkpt>
<trkpt lat="30.9584807" lon="35.7246462">
<ele>512.33</ele>
<time>2015-11-22T09:10:14Z</time>
</trkpt>
<trkpt lat="30.9585164" lon="35.7246059">
<ele>513.13</ele>
<time>2015-11-22T09:10:16Z</time>
</trkpt>
<trkpt lat="30.9585527" lon="35.7245645">
<ele>513.33</ele>
<time>2015-11-22T09:10:18Z</time>
</trkpt>
<trkpt lat="30.9585917" lon="35.7245240">
<ele>513.38</ele>
<time>2015-11-22T09:10:20Z</time>
</trkpt>
<trkpt lat="30.9586244" lon="35.7244819">
<ele>514.14</ele>
<time>2015-11-22T09:10:22Z</time>
</trkpt>
<trkpt lat="30.9586564" lon="35.7244419">
<ele>513.58</ele>
<time>2015-11-22T09:10:24Z</time>
</trkpt>
<trkpt lat="30.9586877" lon="35.7244039">
<ele>513.44</ele>
<time>2015-11-22T09:10:26Z</time>
</trkpt>
<trkpt lat="30.9587196" lon="35.7243670">
<ele>514.16</ele>
<time>2015-11-22T09:10:28Z</time>
</trkpt>
<trkpt lat="30.9587513" lon="35.7243288">
<ele>514.33</ele>
<time>2015-11-22T09:10:30Z</time>
</trkpt>
<trkpt lat="30.9587923" lon="35.7242718">
<ele>514.39</ele>
<time>2015-11-22T09:10:33Z</time>
</trkpt>
<trkpt lat="30.9588259" lon="35.7242223">
<ele>513.14</ele>
<time>2015-11-22T09:10:36Z</time>
</trkpt>
<trkpt lat="30.9588600" lon="35.7241831">
<ele>513.82</ele>
<time>2015-11-22T09:10:40Z</time>
</trkpt>
<trkpt lat="30.9588964" lon="35.7241484">
<ele>513.36</ele>
<time>2015-11-22T09:10:44Z</time>
</trkpt>
<trkpt lat="30.9589516" lon="35.7241178">
<ele>514.77</ele>
<time>2015-11-22T09:10:48Z</time>
</trkpt>
<trkpt lat="30.9589967" lon="35.7240845">
<ele>513.57</ele>
<time>2015-11-22T09:10:51Z</time>
</trkpt>
<trkpt lat="30.9590367" lon="35.7240391">
<ele>512.54</ele>
<time>2015-11-22T09:10:54Z</time>
</trkpt>
<trkpt lat="30.9590761" lon="35.7239902">
<ele>514.16</ele>
<time>2015-11-22T09:10:57Z</time>
</trkpt>
<trkpt lat="30.9591101" lon="35.7239411">
<ele>513.62</ele>
<time>2015-11-22T09:11:00Z</time>
</trkpt>
<trkpt lat="30.9591446" lon="35.7238879">
<ele>513.67</ele>
<time>2015-11-22T09:11:03Z</time>
</trkpt>
<trkpt lat="30.9591797" lon="35.7238346">
<ele>515.18</ele>
<time>2015-11-22T09:11:06Z</time>
</trkpt>
<trkpt lat="30.9592188" lon="35.7237793">
<ele>516.74</ele>
<time>2015-11-22T09:11:09Z</time>
</trkpt>
<trkpt lat="30.9592600" lon="35.7237369">
<ele>517.94</ele>
<time>2015-11-22T09:11:12Z</time>
</trkpt>
<trkpt lat="30.9592921" lon="35.7236796">
<ele>511.28</ele>
<time>2015-11-22T09:12:30Z</time>
</trkpt>
<trkpt lat="30.9593382" lon="35.7236244">
<ele>513.25</ele>
<time>2015-11-22T09:12:33Z</time>
</trkpt>
<trkpt lat="30.9593692" lon="35.7235805">
<ele>516.11</ele>
<time>2015-11-22T09:12:35Z</time>
</trkpt>
<trkpt lat="30.9593961" lon="35.7235311">
<ele>516.82</ele>
<time>2015-11-22T09:12:37Z</time>
</trkpt>
<trkpt lat="30.9594250" lon="35.7234781">
<ele>517.75</ele>
<time>2015-11-22T09:12:39Z</time>
</trkpt>
<trkpt lat="30.9594552" lon="35.7234228">
<ele>517.98</ele>
<time>2015-11-22T09:12:41Z</time>
</trkpt>
<trkpt lat="30.9594835" lon="35.7233640">
<ele>518.29</ele>
<time>2015-11-22T09:12:43Z</time>
</trkpt>
<trkpt lat="30.9595133" lon="35.7233016">
<ele>517.12</ele>
<time>2015-11-22T09:12:45Z</time>
</trkpt>
<trkpt lat="30.9595407" lon="35.7232362">
<ele>517.08</ele>
<time>2015-11-22T09:12:47Z</time>
</trkpt>
<trkpt lat="30.9595666" lon="35.7231742">
<ele>516.31</ele>
<time>2015-11-22T09:12:49Z</time>
</trkpt>
<trkpt lat="30.9595872" lon="35.7231074">
<ele>517.87</ele>
<time>2015-11-22T09:12:51Z</time>
</trkpt>
<trkpt lat="30.9596063" lon="35.7230420">
<ele>518.26</ele>
<time>2015-11-22T09:12:53Z</time>
</trkpt>
<trkpt lat="30.9596188" lon="35.7229775">
<ele>518.86</ele>
<time>2015-11-22T09:12:55Z</time>
</trkpt>
<trkpt lat="30.9596301" lon="35.7229160">
<ele>519.26</ele>
<time>2015-11-22T09:12:57Z</time>
</trkpt>
<trkpt lat="30.9596372" lon="35.7228602">
<ele>518.61</ele>
<time>2015-11-22T09:12:59Z</time>
</trkpt>
<trkpt lat="30.9596454" lon="35.7227989">
<ele>517.70</ele>
<time>2015-11-22T09:13:01Z</time>
</trkpt>
<trkpt lat="30.9596496" lon="35.7227299">
<ele>518.22</ele>
<time>2015-11-22T09:13:03Z</time>
</trkpt>
<trkpt lat="30.9596525" lon="35.7226437">
<ele>517.85</ele>
<time>2015-11-22T09:13:05Z</time>
</trkpt>
<trkpt lat="30.9596553" lon="35.7225510">
<ele>517.26</ele>
<time>2015-11-22T09:13:07Z</time>
</trkpt>
<trkpt lat="30.9596509" lon="35.7224569">
<ele>516.11</ele>
<time>2015-11-22T09:13:09Z</time>
</trkpt>
<trkpt lat="30.9596418" lon="35.7223619">
<ele>514.82</ele>
<time>2015-11-22T09:13:11Z</time>
</trkpt>
<trkpt lat="30.9596280" lon="35.7222652">
<ele>513.75</ele>
<time>2015-11-22T09:13:13Z</time>
</trkpt>
<trkpt lat="30.9596113" lon="35.7221698">
<ele>514.73</ele>
<time>2015-11-22T09:13:15Z</time>
</trkpt>
<trkpt lat="30.9595925" lon="35.7220740">
<ele>515.23</ele>
<time>2015-11-22T09:13:17Z</time>
</trkpt>
<trkpt lat="30.9595641" lon="35.7219549">
<ele>517.10</ele>
<time>2015-11-22T09:13:19Z</time>
</trkpt>
<trkpt lat="30.9595383" lon="35.7218528">
<ele>517.82</ele>
<time>2015-11-22T09:13:21Z</time>
</trkpt>
<trkpt lat="30.9595066" lon="35.7217574">
<ele>517.25</ele>
<time>2015-11-22T09:13:23Z</time>
</trkpt>
<trkpt lat="30.9594905" lon="35.7217024">
<ele>516.32</ele>
<time>2015-11-22T09:13:24Z</time>
</trkpt>
<trkpt lat="30.9594710" lon="35.7216435">
<ele>515.36</ele>
<time>2015-11-22T09:13:25Z</time>
</trkpt>
<trkpt lat="30.9594462" lon="35.7215958">
<ele>515.38</ele>
<time>2015-11-22T09:13:26Z</time>
</trkpt>
<trkpt lat="30.9594251" lon="35.7215451">
<ele>515.39</ele>
<time>2015-11-22T09:13:27Z</time>
</trkpt>
<trkpt lat="30.9593985" lon="35.7214998">
<ele>515.89</ele>
<time>2015-11-22T09:13:28Z</time>
</trkpt>
<trkpt lat="30.9593710" lon="35.7214521">
<ele>515.64</ele>
<time>2015-11-22T09:13:29Z</time>
</trkpt>
<trkpt lat="30.9593408" lon="35.7213985">
<ele>515.52</ele>
<time>2015-11-22T09:13:30Z</time>
</trkpt>
<trkpt lat="30.9593162" lon="35.7213485">
<ele>515.46</ele>
<time>2015-11-22T09:13:31Z</time>
</trkpt>
<trkpt lat="30.9592908" lon="35.7213023">
<ele>514.42</ele>
<time>2015-11-22T09:13:32Z</time>
</trkpt>
<trkpt lat="30.9592509" lon="35.7212574">
<ele>514.41</ele>
<time>2015-11-22T09:13:33Z</time>
</trkpt>
<trkpt lat="30.9591969" lon="35.7211926">
<ele>512.90</ele>
<time>2015-11-22T09:13:35Z</time>
</trkpt>
<trkpt lat="30.9591374" lon="35.7211133">
<ele>512.52</ele>
<time>2015-11-22T09:13:37Z</time>
</trkpt>
<trkpt lat="30.9590966" lon="35.7210775">
<ele>512.46</ele>
<time>2015-11-22T09:13:38Z</time>
</trkpt>
<trkpt lat="30.9590577" lon="35.7210432">
<ele>512.93</ele>
<time>2015-11-22T09:13:39Z</time>
</trkpt>
<trkpt lat="30.9590220" lon="35.7210061">
<ele>513.16</ele>
<time>2015-11-22T09:13:40Z</time>
</trkpt>
<trkpt lat="30.9589826" lon="35.7209732">
<ele>512.78</ele>
<time>2015-11-22T09:13:41Z</time>
</trkpt>
<trkpt lat="30.9589390" lon="35.7209481">
<ele>512.09</ele>
<time>2015-11-22T09:13:42Z</time>
</trkpt>
<trkpt lat="30.9588945" lon="35.7209152">
<ele>513.24</ele>
<time>2015-11-22T09:13:43Z</time>
</trkpt>
<trkpt lat="30.9588495" lon="35.7208819">
<ele>513.82</ele>
<time>2015-11-22T09:13:44Z</time>
</trkpt>
<trkpt lat="30.9587714" lon="35.7208444">
<ele>513.00</ele>
<time>2015-11-22T09:13:46Z</time>
</trkpt>
<trkpt lat="30.9587212" lon="35.7208172">
<ele>513.20</ele>
<time>2015-11-22T09:13:47Z</time>
</trkpt>
<trkpt lat="30.9586761" lon="35.7207833">
<ele>513.80</ele>
<time>2015-11-22T09:13:48Z</time>
</trkpt>
<trkpt lat="30.9586294" lon="35.7207557">
<ele>514.59</ele>
<time>2015-11-22T09:13:49Z</time>
</trkpt>
<trkpt lat="30.9585772" lon="35.7207243">
<ele>514.49</ele>
<time>2015-11-22T09:13:50Z</time>
</trkpt>
<trkpt lat="30.9585268" lon="35.7206963">
<ele>514.94</ele>
<time>2015-11-22T09:13:51Z</time>
</trkpt>
<trkpt lat="30.9584743" lon="35.7206606">
<ele>514.67</ele>
<time>2015-11-22T09:13:52Z</time>
</trkpt>
<trkpt lat="30.9584261" lon="35.7206316">
<ele>515.53</ele>
<time>2015-11-22T09:13:53Z</time>
</trkpt>
<trkpt lat="30.9583730" lon="35.7206031">
<ele>515.46</ele>
<time>2015-11-22T09:13:54Z</time>
</trkpt>
<trkpt lat="30.9583249" lon="35.7205733">
<ele>515.93</ele>
<time>2015-11-22T09:13:55Z</time>
</trkpt>
<trkpt lat="30.9582720" lon="35.7205397">
<ele>516.16</ele>
<time>2015-11-22T09:13:56Z</time>
</trkpt>
<trkpt lat="30.9582257" lon="35.7205106">
<ele>516.78</ele>
<time>2015-11-22T09:13:57Z</time>
</trkpt>
<trkpt lat="30.9581806" lon="35.7204890">
<ele>516.59</ele>
<time>2015-11-22T09:13:58Z</time>
</trkpt>
<trkpt lat="30.9581316" lon="35.7204641">
<ele>516.99</ele>
<time>2015-11-22T09:13:59Z</time>
</trkpt>
<trkpt lat="30.9580829" lon="35.7204338">
<ele>517.19</ele>
<time>2015-11-22T09:14:00Z</time>
</trkpt>
<trkpt lat="30.9580316" lon="35.7204049">
<ele>517.29</ele>
<time>2015-11-22T09:14:01Z</time>
</trkpt>
<trkpt lat="30.9579771" lon="35.7203722">
<ele>517.34</ele>
<time>2015-11-22T09:14:02Z</time>
</trkpt>
<trkpt lat="30.9579262" lon="35.7203421">
<ele>517.37</ele>
<time>2015-11-22T09:14:03Z</time>
</trkpt>
<trkpt lat="30.9578748" lon="35.7203147">
<ele>517.38</ele>
<time>2015-11-22T09:14:04Z</time>
</trkpt>
<trkpt lat="30.9578343" lon="35.7202784">
<ele>516.39</ele>
<time>2015-11-22T09:14:05Z</time>
</trkpt>
<trkpt lat="30.9577821" lon="35.7202565">
<ele>515.39</ele>
<time>2015-11-22T09:14:06Z</time>
</trkpt>
<trkpt lat="30.9577285" lon="35.7202277">
<ele>515.39</ele>
<time>2015-11-22T09:14:07Z</time>
</trkpt>
<trkpt lat="30.9576839" lon="35.7201986">
<ele>515.39</ele>
<time>2015-11-22T09:14:08Z</time>
</trkpt>
<trkpt lat="30.9576384" lon="35.7201652">
<ele>515.39</ele>
<time>2015-11-22T09:14:09Z</time>
</trkpt>
<trkpt lat="30.9575978" lon="35.7201268">
<ele>512.89</ele>
<time>2015-11-22T09:14:10Z</time>
</trkpt>
<trkpt lat="30.9575579" lon="35.7200935">
<ele>511.64</ele>
<time>2015-11-22T09:14:11Z</time>
</trkpt>
<trkpt lat="30.9575133" lon="35.7200581">
<ele>511.02</ele>
<time>2015-11-22T09:14:12Z</time>
</trkpt>
<trkpt lat="30.9574751" lon="35.7200120">
<ele>510.71</ele>
<time>2015-11-22T09:14:13Z</time>
</trkpt>
<trkpt lat="30.9574337" lon="35.7199693">
<ele>510.55</ele>
<time>2015-11-22T09:14:14Z</time>
</trkpt>
<trkpt lat="30.9573896" lon="35.7199236">
<ele>510.47</ele>
<time>2015-11-22T09:14:15Z</time>
</trkpt>
<trkpt lat="30.9573540" lon="35.7198737">
<ele>510.93</ele>
<time>2015-11-22T09:14:16Z</time>
</trkpt>
<trkpt lat="30.9573072" lon="35.7198305">
<ele>511.16</ele>
<time>2015-11-22T09:14:17Z</time>
</trkpt>
<trkpt lat="30.9572675" lon="35.7197764">
<ele>511.28</ele>
<time>2015-11-22T09:14:18Z</time>
</trkpt>
<trkpt lat="30.9572220" lon="35.7197274">
<ele>512.34</ele>
<time>2015-11-22T09:14:19Z</time>
</trkpt>
<trkpt lat="30.9571751" lon="35.7196759">
<ele>512.87</ele>
<time>2015-11-22T09:14:20Z</time>
</trkpt>
<trkpt lat="30.9571411" lon="35.7196196">
<ele>513.63</ele>
<time>2015-11-22T09:14:21Z</time>
</trkpt>
<trkpt lat="30.9571075" lon="35.7195613">
<ele>514.01</ele>
<time>2015-11-22T09:14:22Z</time>
</trkpt>
<trkpt lat="30.9570662" lon="35.7195177">
<ele>513.20</ele>
<time>2015-11-22T09:14:23Z</time>
</trkpt>
<trkpt lat="30.9570392" lon="35.7194620">
<ele>513.30</ele>
<time>2015-11-22T09:14:24Z</time>
</trkpt>
<trkpt lat="30.9570053" lon="35.7194042">
<ele>513.35</ele>
<time>2015-11-22T09:14:25Z</time>
</trkpt>
<trkpt lat="30.9569797" lon="35.7193486">
<ele>513.87</ele>
<time>2015-11-22T09:14:26Z</time>
</trkpt>
<trkpt lat="30.9569496" lon="35.7192933">
<ele>514.63</ele>
<time>2015-11-22T09:14:27Z</time>
</trkpt>
<trkpt lat="30.9569214" lon="35.7192293">
<ele>515.01</ele>
<time>2015-11-22T09:14:28Z</time>
</trkpt>
<trkpt lat="30.9568935" lon="35.7191661">
<ele>514.70</ele>
<time>2015-11-22T09:14:29Z</time>
</trkpt>
<trkpt lat="30.9568783" lon="35.7191003">
<ele>513.55</ele>
<time>2015-11-22T09:14:30Z</time>
</trkpt>
<trkpt lat="30.9568659" lon="35.7190362">
<ele>512.97</ele>
<time>2015-11-22T09:14:31Z</time>
</trkpt>
<trkpt lat="30.9568492" lon="35.7189636">
<ele>513.18</ele>
<time>2015-11-22T09:14:32Z</time>
</trkpt>
<trkpt lat="30.9568355" lon="35.7188949">
<ele>513.79</ele>
<time>2015-11-22T09:14:33Z</time>
</trkpt>
<trkpt lat="30.9568205" lon="35.7188267">
<ele>514.09</ele>
<time>2015-11-22T09:14:34Z</time>
</trkpt>
<trkpt lat="30.9568054" lon="35.7187535">
<ele>514.74</ele>
<time>2015-11-22T09:14:35Z</time>
</trkpt>
<trkpt lat="30.9567883" lon="35.7186874">
<ele>514.57</ele>
<time>2015-11-22T09:14:36Z</time>
</trkpt>
<trkpt lat="30.9567716" lon="35.7186179">
<ele>514.98</ele>
<time>2015-11-22T09:14:37Z</time>
</trkpt>
<trkpt lat="30.9567590" lon="35.7185514">
<ele>514.19</ele>
<time>2015-11-22T09:14:38Z</time>
</trkpt>
<trkpt lat="30.9567533" lon="35.7184861">
<ele>514.29</ele>
<time>2015-11-22T09:14:39Z</time>
</trkpt>
<trkpt lat="30.9567597" lon="35.7184115">
<ele>514.84</ele>
<time>2015-11-22T09:14:40Z</time>
</trkpt>
<trkpt lat="30.9567651" lon="35.7183358">
<ele>515.12</ele>
<time>2015-11-22T09:14:41Z</time>
</trkpt>
<trkpt lat="30.9567612" lon="35.7182790">
<ele>513.76</ele>
<time>2015-11-22T09:14:42Z</time>
</trkpt>
<trkpt lat="30.9567598" lon="35.7182156">
<ele>513.08</ele>
<time>2015-11-22T09:14:43Z</time>
</trkpt>
<trkpt lat="30.9567551" lon="35.7181550">
<ele>511.73</ele>
<time>2015-11-22T09:14:44Z</time>
</trkpt>
<trkpt lat="30.9567709" lon="35.7180893">
<ele>510.06</ele>
<time>2015-11-22T09:14:45Z</time>
</trkpt>
<trkpt lat="30.9567858" lon="35.7180165">
<ele>509.73</ele>
<time>2015-11-22T09:14:46Z</time>
</trkpt>
<trkpt lat="30.9567997" lon="35.7179441">
<ele>510.06</ele>
<time>2015-11-22T09:14:47Z</time>
</trkpt>
<trkpt lat="30.9568144" lon="35.7178723">
<ele>510.73</ele>
<time>2015-11-22T09:14:48Z</time>
</trkpt>
<trkpt lat="30.9568294" lon="35.7178098">
<ele>511.06</ele>
<time>2015-11-22T09:14:49Z</time>
</trkpt>
<trkpt lat="30.9568445" lon="35.7177385">
<ele>511.73</ele>
<time>2015-11-22T09:14:50Z</time>
</trkpt>
<trkpt lat="30.9568586" lon="35.7176698">
<ele>511.56</ele>
<time>2015-11-22T09:14:51Z</time>
</trkpt>
<trkpt lat="30.9568759" lon="35.7176054">
<ele>511.98</ele>
<time>2015-11-22T09:14:52Z</time>
</trkpt>
<trkpt lat="30.9568897" lon="35.7175395">
<ele>512.69</ele>
<time>2015-11-22T09:14:53Z</time>
</trkpt>
<trkpt lat="30.9569077" lon="35.7174724">
<ele>512.54</ele>
<time>2015-11-22T09:14:54Z</time>
</trkpt>
<trkpt lat="30.9569248" lon="35.7174092">
<ele>512.47</ele>
<time>2015-11-22T09:14:55Z</time>
</trkpt>
<trkpt lat="30.9569418" lon="35.7173476">
<ele>512.93</ele>
<time>2015-11-22T09:14:56Z</time>
</trkpt>
<trkpt lat="30.9569525" lon="35.7172834">
<ele>512.66</ele>
<time>2015-11-22T09:14:57Z</time>
</trkpt>
<trkpt lat="30.9569636" lon="35.7172296">
<ele>512.03</ele>
<time>2015-11-22T09:14:58Z</time>
</trkpt>
<trkpt lat="30.9569793" lon="35.7171186">
<ele>511.05</ele>
<time>2015-11-22T09:15:00Z</time>
</trkpt>
<trkpt lat="30.9570047" lon="35.7170231">
<ele>510.56</ele>
<time>2015-11-22T09:15:02Z</time>
</trkpt>
<trkpt lat="30.9570212" lon="35.7169579">
<ele>510.48</ele>
<time>2015-11-22T09:15:03Z</time>
</trkpt>
<trkpt lat="30.9570406" lon="35.7169029">
<ele>511.44</ele>
<time>2015-11-22T09:15:04Z</time>
</trkpt>
<trkpt lat="30.9570513" lon="35.7168456">
<ele>511.91</ele>
<time>2015-11-22T09:15:05Z</time>
</trkpt>
<trkpt lat="30.9570577" lon="35.7167929">
<ele>512.15</ele>
<time>2015-11-22T09:15:06Z</time>
</trkpt>
<trkpt lat="30.9570756" lon="35.7167028">
<ele>514.33</ele>
<time>2015-11-22T09:15:08Z</time>
</trkpt>
<trkpt lat="30.9570995" lon="35.7166371">
<ele>512.88</ele>
<time>2015-11-22T09:15:10Z</time>
</trkpt>
<trkpt lat="30.9571151" lon="35.7165848">
<ele>512.52</ele>
<time>2015-11-22T09:15:12Z</time>
</trkpt>
<trkpt lat="30.9571414" lon="35.7165207">
<ele>511.92</ele>
<time>2015-11-22T09:15:14Z</time>
</trkpt>
<trkpt lat="30.9571595" lon="35.7164614">
<ele>512.78</ele>
<time>2015-11-22T09:15:16Z</time>
</trkpt>
<trkpt lat="30.9571811" lon="35.7164065">
<ele>512.74</ele>
<time>2015-11-22T09:15:18Z</time>
</trkpt>
<trkpt lat="30.9571997" lon="35.7163413">
<ele>513.73</ele>
<time>2015-11-22T09:15:20Z</time>
</trkpt>
<trkpt lat="30.9572162" lon="35.7162732">
<ele>514.48</ele>
<time>2015-11-22T09:15:22Z</time>
</trkpt>
<trkpt lat="30.9572372" lon="35.7162107">
<ele>513.17</ele>
<time>2015-11-22T09:15:24Z</time>
</trkpt>
<trkpt lat="30.9572609" lon="35.7161480">
<ele>512.84</ele>
<time>2015-11-22T09:15:26Z</time>
</trkpt>
<trkpt lat="30.9572761" lon="35.7160810">
<ele>515.00</ele>
<time>2015-11-22T09:15:28Z</time>
</trkpt>
<trkpt lat="30.9572881" lon="35.7160172">
<ele>516.05</ele>
<time>2015-11-22T09:15:30Z</time>
</trkpt>
<trkpt lat="30.9573051" lon="35.7159612">
<ele>515.81</ele>
<time>2015-11-22T09:15:32Z</time>
</trkpt>
<trkpt lat="30.9573182" lon="35.7159051">
<ele>514.00</ele>
<time>2015-11-22T09:15:34Z</time>
</trkpt>
<trkpt lat="30.9573275" lon="35.7158446">
<ele>514.54</ele>
<time>2015-11-22T09:15:36Z</time>
</trkpt>
<trkpt lat="30.9573439" lon="35.7157844">
<ele>515.68</ele>
<time>2015-11-22T09:15:38Z</time>
</trkpt>
<trkpt lat="30.9573631" lon="35.7157230">
<ele>517.97</ele>
<time>2015-11-22T09:15:40Z</time>
</trkpt>
<trkpt lat="30.9573748" lon="35.7156604">
<ele>517.29</ele>
<time>2015-11-22T09:15:42Z</time>
</trkpt>
<trkpt lat="30.9573873" lon="35.7155932">
<ele>517.37</ele>
<time>2015-11-22T09:15:44Z</time>
</trkpt>
<trkpt lat="30.9574032" lon="35.7155216">
<ele>517.64</ele>
<time>2015-11-22T09:15:46Z</time>
</trkpt>
<trkpt lat="30.9574190" lon="35.7154413">
<ele>514.70</ele>
<time>2015-11-22T09:15:48Z</time>
</trkpt>
<trkpt lat="30.9574316" lon="35.7153452">
<ele>514.47</ele>
<time>2015-11-22T09:15:50Z</time>
</trkpt>
<trkpt lat="30.9574434" lon="35.7152438">
<ele>516.16</ele>
<time>2015-11-22T09:15:52Z</time>
</trkpt>
<trkpt lat="30.9574534" lon="35.7151419">
<ele>517.34</ele>
<time>2015-11-22T09:15:54Z</time>
</trkpt>
<trkpt lat="30.9574589" lon="35.7150424">
<ele>514.38</ele>
<time>2015-11-22T09:15:56Z</time>
</trkpt>
<trkpt lat="30.9574568" lon="35.7149453">
<ele>516.89</ele>
<time>2015-11-22T09:15:58Z</time>
</trkpt>
<trkpt lat="30.9574517" lon="35.7148517">
<ele>517.27</ele>
<time>2015-11-22T09:16:00Z</time>
</trkpt>
<trkpt lat="30.9574414" lon="35.7147571">
<ele>516.61</ele>
<time>2015-11-22T09:16:02Z</time>
</trkpt>
<trkpt lat="30.9574338" lon="35.7146603">
<ele>518.70</ele>
<time>2015-11-22T09:16:04Z</time>
</trkpt>
<trkpt lat="30.9574306" lon="35.7145561">
<ele>523.47</ele>
<time>2015-11-22T09:16:06Z</time>
</trkpt>
<trkpt lat="30.9574230" lon="35.7144284">
<ele>526.66</ele>
<time>2015-11-22T09:16:08Z</time>
</trkpt>
<trkpt lat="30.9574212" lon="35.7143601">
<ele>528.53</ele>
<time>2015-11-22T09:16:09Z</time>
</trkpt>
<trkpt lat="30.9574160" lon="35.7142987">
<ele>528.96</ele>
<time>2015-11-22T09:16:10Z</time>
</trkpt>
<trkpt lat="30.9574091" lon="35.7142307">
<ele>530.18</ele>
<time>2015-11-22T09:16:11Z</time>
</trkpt>
<trkpt lat="30.9574042" lon="35.7141676">
<ele>530.29</ele>
<time>2015-11-22T09:16:12Z</time>
</trkpt>
<trkpt lat="30.9573941" lon="35.7140992">
<ele>530.34</ele>
<time>2015-11-22T09:16:13Z</time>
</trkpt>
<trkpt lat="30.9573857" lon="35.7140307">
<ele>530.37</ele>
<time>2015-11-22T09:16:14Z</time>
</trkpt>
<trkpt lat="30.9573762" lon="35.7139657">
<ele>530.38</ele>
<time>2015-11-22T09:16:15Z</time>
</trkpt>
<trkpt lat="30.9573686" lon="35.7138970">
<ele>530.39</ele>
<time>2015-11-22T09:16:16Z</time>
</trkpt>
<trkpt lat="30.9573580" lon="35.7138275">
<ele>530.39</ele>
<time>2015-11-22T09:16:17Z</time>
</trkpt>
<trkpt lat="30.9573485" lon="35.7137512">
<ele>530.39</ele>
<time>2015-11-22T09:16:18Z</time>
</trkpt>
<trkpt lat="30.9573404" lon="35.7136785">
<ele>529.89</ele>
<time>2015-11-22T09:16:19Z</time>
</trkpt>
<trkpt lat="30.9573334" lon="35.7136007">
<ele>529.64</ele>
<time>2015-11-22T09:16:20Z</time>
</trkpt>
<trkpt lat="30.9573239" lon="35.7135247">
<ele>529.52</ele>
<time>2015-11-22T09:16:21Z</time>
</trkpt>
<trkpt lat="30.9573128" lon="35.7134409">
<ele>529.46</ele>
<time>2015-11-22T09:16:22Z</time>
</trkpt>
<trkpt lat="30.9573034" lon="35.7133574">
<ele>528.93</ele>
<time>2015-11-22T09:16:23Z</time>
</trkpt>
<trkpt lat="30.9572882" lon="35.7132740">
<ele>528.16</ele>
<time>2015-11-22T09:16:24Z</time>
</trkpt>
<trkpt lat="30.9572846" lon="35.7131820">
<ele>527.78</ele>
<time>2015-11-22T09:16:25Z</time>
</trkpt>
<trkpt lat="30.9572750" lon="35.7130939">
<ele>527.59</ele>
<time>2015-11-22T09:16:26Z</time>
</trkpt>
<trkpt lat="30.9572646" lon="35.7129976">
<ele>526.99</ele>
<time>2015-11-22T09:16:27Z</time>
</trkpt>
<trkpt lat="30.9572546" lon="35.7129066">
<ele>526.69</ele>
<time>2015-11-22T09:16:28Z</time>
</trkpt>
<trkpt lat="30.9572481" lon="35.7128114">
<ele>526.54</ele>
<time>2015-11-22T09:16:29Z</time>
</trkpt>
<trkpt lat="30.9572386" lon="35.7127184">
<ele>526.47</ele>
<time>2015-11-22T09:16:30Z</time>
</trkpt>
<trkpt lat="30.9572260" lon="35.7126215">
<ele>525.93</ele>
<time>2015-11-22T09:16:31Z</time>
</trkpt>
<trkpt lat="30.9572136" lon="35.7125251">
<ele>525.66</ele>
<time>2015-11-22T09:16:32Z</time>
</trkpt>
<trkpt lat="30.9571993" lon="35.7124286">
<ele>525.53</ele>
<time>2015-11-22T09:16:33Z</time>
</trkpt>
<trkpt lat="30.9571880" lon="35.7123286">
<ele>524.96</ele>
<time>2015-11-22T09:16:34Z</time>
</trkpt>
<trkpt lat="30.9571770" lon="35.7122273">
<ele>524.68</ele>
<time>2015-11-22T09:16:35Z</time>
</trkpt>
<trkpt lat="30.9571689" lon="35.7121173">
<ele>524.54</ele>
<time>2015-11-22T09:16:36Z</time>
</trkpt>
<trkpt lat="30.9571567" lon="35.7120125">
<ele>524.46</ele>
<time>2015-11-22T09:16:37Z</time>
</trkpt>
<trkpt lat="30.9571440" lon="35.7119069">
<ele>523.93</ele>
<time>2015-11-22T09:16:38Z</time>
</trkpt>
<trkpt lat="30.9571315" lon="35.7117957">
<ele>523.66</ele>
<time>2015-11-22T09:16:39Z</time>
</trkpt>
<trkpt lat="30.9571186" lon="35.7116816">
<ele>523.03</ele>
<time>2015-11-22T09:16:40Z</time>
</trkpt>
<trkpt lat="30.9571078" lon="35.7115721">
<ele>522.71</ele>
<time>2015-11-22T09:16:41Z</time>
</trkpt>
<trkpt lat="30.9570934" lon="35.7114602">
<ele>522.55</ele>
<time>2015-11-22T09:16:42Z</time>
</trkpt>
<trkpt lat="30.9570823" lon="35.7113460">
<ele>521.97</ele>
<time>2015-11-22T09:16:43Z</time>
</trkpt>
<trkpt lat="30.9570698" lon="35.7112345">
<ele>521.68</ele>
<time>2015-11-22T09:16:44Z</time>
</trkpt>
<trkpt lat="30.9570572" lon="35.7111196">
<ele>521.04</ele>
<time>2015-11-22T09:16:45Z</time>
</trkpt>
<trkpt lat="30.9570440" lon="35.7110072">
<ele>520.72</ele>
<time>2015-11-22T09:16:46Z</time>
</trkpt>
<trkpt lat="30.9570295" lon="35.7108937">
<ele>520.56</ele>
<time>2015-11-22T09:16:47Z</time>
</trkpt>
<trkpt lat="30.9570164" lon="35.7107787">
<ele>520.47</ele>
<time>2015-11-22T09:16:48Z</time>
</trkpt>
<trkpt lat="30.9569978" lon="35.7106676">
<ele>519.93</ele>
<time>2015-11-22T09:16:49Z</time>
</trkpt>
<trkpt lat="30.9569731" lon="35.7105534">
<ele>519.66</ele>
<time>2015-11-22T09:16:50Z</time>
</trkpt>
<trkpt lat="30.9569421" lon="35.7104383">
<ele>519.53</ele>
<time>2015-11-22T09:16:51Z</time>
</trkpt>
<trkpt lat="30.9569090" lon="35.7103248">
<ele>518.96</ele>
<time>2015-11-22T09:16:52Z</time>
</trkpt>
<trkpt lat="30.9568569" lon="35.7102198">
<ele>519.18</ele>
<time>2015-11-22T09:16:53Z</time>
</trkpt>
<trkpt lat="30.9568121" lon="35.7101075">
<ele>518.79</ele>
<time>2015-11-22T09:16:54Z</time>
</trkpt>
<trkpt lat="30.9567497" lon="35.7099987">
<ele>518.59</ele>
<time>2015-11-22T09:16:55Z</time>
</trkpt>
<trkpt lat="30.9566876" lon="35.7098941">
<ele>518.49</ele>
<time>2015-11-22T09:16:56Z</time>
</trkpt>
<trkpt lat="30.9566214" lon="35.7097997">
<ele>518.44</ele>
<time>2015-11-22T09:16:57Z</time>
</trkpt>
<trkpt lat="30.9565559" lon="35.7097089">
<ele>517.92</ele>
<time>2015-11-22T09:16:58Z</time>
</trkpt>
<trkpt lat="30.9564850" lon="35.7096167">
<ele>517.66</ele>
<time>2015-11-22T09:16:59Z</time>
</trkpt>
<trkpt lat="30.9564058" lon="35.7095504">
<ele>517.53</ele>
<time>2015-11-22T09:17:00Z</time>
</trkpt>
<trkpt lat="30.9563341" lon="35.7094722">
<ele>517.46</ele>
<time>2015-11-22T09:17:01Z</time>
</trkpt>
<trkpt lat="30.9562560" lon="35.7093959">
<ele>516.93</ele>
<time>2015-11-22T09:17:02Z</time>
</trkpt>
<trkpt lat="30.9561764" lon="35.7093268">
<ele>517.16</ele>
<time>2015-11-22T09:17:03Z</time>
</trkpt>
<trkpt lat="30.9560953" lon="35.7092662">
<ele>516.78</ele>
<time>2015-11-22T09:17:04Z</time>
</trkpt>
<trkpt lat="30.9560121" lon="35.7092071">
<ele>516.59</ele>
<time>2015-11-22T09:17:05Z</time>
</trkpt>
<trkpt lat="30.9559111" lon="35.7091752">
<ele>516.49</ele>
<time>2015-11-22T09:17:06Z</time>
</trkpt>
<trkpt lat="30.9558188" lon="35.7091284">
<ele>516.44</ele>
<time>2015-11-22T09:17:07Z</time>
</trkpt>
<trkpt lat="30.9557234" lon="35.7090977">
<ele>516.42</ele>
<time>2015-11-22T09:17:08Z</time>
</trkpt>
<trkpt lat="30.9556269" lon="35.7090647">
<ele>516.41</ele>
<time>2015-11-22T09:17:09Z</time>
</trkpt>
<trkpt lat="30.9555263" lon="35.7090497">
<ele>515.90</ele>
<time>2015-11-22T09:17:10Z</time>
</trkpt>
<trkpt lat="30.9554295" lon="35.7090284">
<ele>515.65</ele>
<time>2015-11-22T09:17:11Z</time>
</trkpt>
<trkpt lat="30.9553322" lon="35.7090084">
<ele>515.52</ele>
<time>2015-11-22T09:17:12Z</time>
</trkpt>
<trkpt lat="30.9552434" lon="35.7089979">
<ele>514.96</ele>
<time>2015-11-22T09:17:13Z</time>
</trkpt>
<trkpt lat="30.9551495" lon="35.7089815">
<ele>514.68</ele>
<time>2015-11-22T09:17:14Z</time>
</trkpt>
<trkpt lat="30.9550539" lon="35.7089652">
<ele>514.53</ele>
<time>2015-11-22T09:17:15Z</time>
</trkpt>
<trkpt lat="30.9549615" lon="35.7089510">
<ele>513.96</ele>
<time>2015-11-22T09:17:16Z</time>
</trkpt>
<trkpt lat="30.9548720" lon="35.7089385">
<ele>513.68</ele>
<time>2015-11-22T09:17:17Z</time>
</trkpt>
<trkpt lat="30.9547849" lon="35.7089290">
<ele>513.54</ele>
<time>2015-11-22T09:17:18Z</time>
</trkpt>
<trkpt lat="30.9546973" lon="35.7089135">
<ele>513.47</ele>
<time>2015-11-22T09:17:19Z</time>
</trkpt>
<trkpt lat="30.9546106" lon="35.7089062">
<ele>512.93</ele>
<time>2015-11-22T09:17:20Z</time>
</trkpt>
<trkpt lat="30.9545217" lon="35.7088954">
<ele>512.66</ele>
<time>2015-11-22T09:17:21Z</time>
</trkpt>
<trkpt lat="30.9544303" lon="35.7088776">
<ele>512.03</ele>
<time>2015-11-22T09:17:22Z</time>
</trkpt>
<trkpt lat="30.9543405" lon="35.7088648">
<ele>511.71</ele>
<time>2015-11-22T09:17:23Z</time>
</trkpt>
<trkpt lat="30.9542486" lon="35.7088500">
<ele>511.05</ele>
<time>2015-11-22T09:17:24Z</time>
</trkpt>
<trkpt lat="30.9541553" lon="35.7088375">
<ele>510.22</ele>
<time>2015-11-22T09:17:25Z</time>
</trkpt>
<trkpt lat="30.9540558" lon="35.7088255">
<ele>509.81</ele>
<time>2015-11-22T09:17:26Z</time>
</trkpt>
<trkpt lat="30.9539603" lon="35.7088079">
<ele>509.60</ele>
<time>2015-11-22T09:17:27Z</time>
</trkpt>
<trkpt lat="30.9538659" lon="35.7087939">
<ele>509.00</ele>
<time>2015-11-22T09:17:28Z</time>
</trkpt>
<trkpt lat="30.9537685" lon="35.7087793">
<ele>508.70</ele>
<time>2015-11-22T09:17:29Z</time>
</trkpt>
<trkpt lat="30.9536712" lon="35.7087657">
<ele>508.04</ele>
<time>2015-11-22T09:17:30Z</time>
</trkpt>
<trkpt lat="30.9535693" lon="35.7087552">
<ele>507.72</ele>
<time>2015-11-22T09:17:31Z</time>
</trkpt>
<trkpt lat="30.9534687" lon="35.7087402">
<ele>507.06</ele>
<time>2015-11-22T09:17:32Z</time>
</trkpt>
<trkpt lat="30.9533600" lon="35.7087274">
<ele>506.23</ele>
<time>2015-11-22T09:17:33Z</time>
</trkpt>
<trkpt lat="30.9532546" lon="35.7087111">
<ele>505.81</ele>
<time>2015-11-22T09:17:34Z</time>
</trkpt>
<trkpt lat="30.9531402" lon="35.7086882">
<ele>505.10</ele>
<time>2015-11-22T09:17:35Z</time>
</trkpt>
<trkpt lat="30.9530303" lon="35.7086715">
<ele>504.25</ele>
<time>2015-11-22T09:17:36Z</time>
</trkpt>
<trkpt lat="30.9529212" lon="35.7086522">
<ele>503.32</ele>
<time>2015-11-22T09:17:37Z</time>
</trkpt>
<trkpt lat="30.9528055" lon="35.7086347">
<ele>502.86</ele>
<time>2015-11-22T09:17:38Z</time>
</trkpt>
<trkpt lat="30.9526925" lon="35.7086193">
<ele>502.13</ele>
<time>2015-11-22T09:17:39Z</time>
</trkpt>
<trkpt lat="30.9525752" lon="35.7085999">
<ele>501.26</ele>
<time>2015-11-22T09:17:40Z</time>
</trkpt>
<trkpt lat="30.9524590" lon="35.7085807">
<ele>500.33</ele>
<time>2015-11-22T09:17:41Z</time>
</trkpt>
<trkpt lat="30.9523410" lon="35.7085628">
<ele>499.36</ele>
<time>2015-11-22T09:17:42Z</time>
</trkpt>
<trkpt lat="30.9522156" lon="35.7085392">
<ele>498.88</ele>
<time>2015-11-22T09:17:43Z</time>
</trkpt>
<trkpt lat="30.9520956" lon="35.7085191">
<ele>498.14</ele>
<time>2015-11-22T09:17:44Z</time>
</trkpt>
<trkpt lat="30.9519758" lon="35.7085062">
<ele>497.26</ele>
<time>2015-11-22T09:17:45Z</time>
</trkpt>
<trkpt lat="30.9518550" lon="35.7084879">
<ele>496.83</ele>
<time>2015-11-22T09:17:46Z</time>
</trkpt>
<trkpt lat="30.9517369" lon="35.7084908">
<ele>496.11</ele>
<time>2015-11-22T09:17:47Z</time>
</trkpt>
<trkpt lat="30.9516189" lon="35.7084788">
<ele>495.25</ele>
<time>2015-11-22T09:17:48Z</time>
</trkpt>
<trkpt lat="30.9515017" lon="35.7084814">
<ele>494.32</ele>
<time>2015-11-22T09:17:49Z</time>
</trkpt>
<trkpt lat="30.9513856" lon="35.7084774">
<ele>493.86</ele>
<time>2015-11-22T09:17:50Z</time>
</trkpt>
<trkpt lat="30.9512690" lon="35.7084829">
<ele>493.13</ele>
<time>2015-11-22T09:17:51Z</time>
</trkpt>
<trkpt lat="30.9511576" lon="35.7085028">
<ele>492.76</ele>
<time>2015-11-22T09:17:52Z</time>
</trkpt>
<trkpt lat="30.9510381" lon="35.7085121">
<ele>492.08</ele>
<time>2015-11-22T09:17:53Z</time>
</trkpt>
<trkpt lat="30.9509264" lon="35.7085276">
<ele>491.74</ele>
<time>2015-11-22T09:17:54Z</time>
</trkpt>
<trkpt lat="30.9508239" lon="35.7085402">
<ele>491.56</ele>
<time>2015-11-22T09:17:55Z</time>
</trkpt>
<trkpt lat="30.9507147" lon="35.7085571">
<ele>491.48</ele>
<time>2015-11-22T09:17:56Z</time>
</trkpt>
<trkpt lat="30.9506106" lon="35.7085811">
<ele>491.44</ele>
<time>2015-11-22T09:17:57Z</time>
</trkpt>
<trkpt lat="30.9504976" lon="35.7085987">
<ele>491.42</ele>
<time>2015-11-22T09:17:58Z</time>
</trkpt>
<trkpt lat="30.9504007" lon="35.7086128">
<ele>490.90</ele>
<time>2015-11-22T09:17:59Z</time>
</trkpt>
<trkpt lat="30.9503009" lon="35.7086380">
<ele>490.65</ele>
<time>2015-11-22T09:18:00Z</time>
</trkpt>
<trkpt lat="30.9502068" lon="35.7086648">
<ele>491.02</ele>
<time>2015-11-22T09:18:01Z</time>
</trkpt>
<trkpt lat="30.9501061" lon="35.7086969">
<ele>490.71</ele>
<time>2015-11-22T09:18:02Z</time>
</trkpt>
<trkpt lat="30.9500031" lon="35.7087280">
<ele>490.05</ele>
<time>2015-11-22T09:18:03Z</time>
</trkpt>
<trkpt lat="30.9499041" lon="35.7087525">
<ele>489.72</ele>
<time>2015-11-22T09:18:04Z</time>
</trkpt>
<trkpt lat="30.9498122" lon="35.7087585">
<ele>489.56</ele>
<time>2015-11-22T09:18:05Z</time>
</trkpt>
<trkpt lat="30.9497101" lon="35.7087796">
<ele>489.48</ele>
<time>2015-11-22T09:18:06Z</time>
</trkpt>
<trkpt lat="30.9496108" lon="35.7087986">
<ele>489.44</ele>
<time>2015-11-22T09:18:07Z</time>
</trkpt>
<trkpt lat="30.9495090" lon="35.7088080">
<ele>489.41</ele>
<time>2015-11-22T09:18:08Z</time>
</trkpt>
<trkpt lat="30.9494067" lon="35.7088107">
<ele>489.40</ele>
<time>2015-11-22T09:18:09Z</time>
</trkpt>
<trkpt lat="30.9493057" lon="35.7088134">
<ele>488.90</ele>
<time>2015-11-22T09:18:10Z</time>
</trkpt>
<trkpt lat="30.9491997" lon="35.7088241">
<ele>488.65</ele>
<time>2015-11-22T09:18:11Z</time>
</trkpt>
<trkpt lat="30.9490982" lon="35.7088378">
<ele>488.52</ele>
<time>2015-11-22T09:18:12Z</time>
</trkpt>
<trkpt lat="30.9490000" lon="35.7088428">
<ele>488.46</ele>
<time>2015-11-22T09:18:13Z</time>
</trkpt>
<trkpt lat="30.9489039" lon="35.7088541">
<ele>488.43</ele>
<time>2015-11-22T09:18:14Z</time>
</trkpt>
<trkpt lat="30.9488076" lon="35.7088581">
<ele>488.41</ele>
<time>2015-11-22T09:18:15Z</time>
</trkpt>
<trkpt lat="30.9487164" lon="35.7088735">
<ele>488.40</ele>
<time>2015-11-22T09:18:16Z</time>
</trkpt>
<trkpt lat="30.9486283" lon="35.7088741">
<ele>487.90</ele>
<time>2015-11-22T09:18:17Z</time>
</trkpt>
<trkpt lat="30.9485318" lon="35.7088800">
<ele>488.15</ele>
<time>2015-11-22T09:18:18Z</time>
</trkpt>
<trkpt lat="30.9484442" lon="35.7088801">
<ele>487.77</ele>
<time>2015-11-22T09:18:19Z</time>
</trkpt>
<trkpt lat="30.9483596" lon="35.7088854">
<ele>487.58</ele>
<time>2015-11-22T09:18:20Z</time>
</trkpt>
<trkpt lat="30.9482731" lon="35.7088840">
<ele>487.49</ele>
<time>2015-11-22T09:18:21Z</time>
</trkpt>
<trkpt lat="30.9481907" lon="35.7088927">
<ele>487.44</ele>
<time>2015-11-22T09:18:22Z</time>
</trkpt>
<trkpt lat="30.9481090" lon="35.7088954">
<ele>487.42</ele>
<time>2015-11-22T09:18:23Z</time>
</trkpt>
<trkpt lat="30.9480326" lon="35.7088951">
<ele>487.41</ele>
<time>2015-11-22T09:18:24Z</time>
</trkpt>
<trkpt lat="30.9479577" lon="35.7089089">
<ele>487.90</ele>
<time>2015-11-22T09:18:25Z</time>
</trkpt>
<trkpt lat="30.9478946" lon="35.7089161">
<ele>487.65</ele>
<time>2015-11-22T09:18:26Z</time>
</trkpt>
<trkpt lat="30.9478247" lon="35.7089273">
<ele>487.52</ele>
<time>2015-11-22T09:18:27Z</time>
</trkpt>
<trkpt lat="30.9477590" lon="35.7089359">
<ele>487.96</ele>
<time>2015-11-22T09:18:28Z</time>
</trkpt>
<trkpt lat="30.9476946" lon="35.7089523">
<ele>488.68</ele>
<time>2015-11-22T09:18:29Z</time>
</trkpt>
<trkpt lat="30.9476361" lon="35.7089637">
<ele>489.53</ele>
<time>2015-11-22T09:18:30Z</time>
</trkpt>
<trkpt lat="30.9475802" lon="35.7089847">
<ele>489.96</ele>
<time>2015-11-22T09:18:31Z</time>
</trkpt>
<trkpt lat="30.9475222" lon="35.7089910">
<ele>489.68</ele>
<time>2015-11-22T09:18:32Z</time>
</trkpt>
<trkpt lat="30.9474697" lon="35.7089987">
<ele>490.04</ele>
<time>2015-11-22T09:18:33Z</time>
</trkpt>
<trkpt lat="30.9474144" lon="35.7090196">
<ele>489.72</ele>
<time>2015-11-22T09:18:34Z</time>
</trkpt>
<trkpt lat="30.9473501" lon="35.7090495">
<ele>490.05</ele>
<time>2015-11-22T09:18:35Z</time>
</trkpt>
<trkpt lat="30.9472643" lon="35.7090734">
<ele>490.81</ele>
<time>2015-11-22T09:18:37Z</time>
</trkpt>
<trkpt lat="30.9472026" lon="35.7090902">
<ele>490.00</ele>
<time>2015-11-22T09:18:39Z</time>
</trkpt>
<trkpt lat="30.9471457" lon="35.7091060">
<ele>490.79</ele>
<time>2015-11-22T09:18:41Z</time>
</trkpt>
<trkpt lat="30.9470876" lon="35.7091297">
<ele>490.49</ele>
<time>2015-11-22T09:18:43Z</time>
</trkpt>
<trkpt lat="30.9470304" lon="35.7091539">
<ele>490.92</ele>
<time>2015-11-22T09:18:45Z</time>
</trkpt>
<trkpt lat="30.9469615" lon="35.7091775">
<ele>491.53</ele>
<time>2015-11-22T09:18:47Z</time>
</trkpt>
<trkpt lat="30.9468889" lon="35.7092076">
<ele>491.93</ele>
<time>2015-11-22T09:18:49Z</time>
</trkpt>
<trkpt lat="30.9468120" lon="35.7092410">
<ele>491.53</ele>
<time>2015-11-22T09:18:51Z</time>
</trkpt>
<trkpt lat="30.9467349" lon="35.7092662">
<ele>491.18</ele>
<time>2015-11-22T09:18:53Z</time>
</trkpt>
<trkpt lat="30.9466545" lon="35.7092912">
<ele>491.34</ele>
<time>2015-11-22T09:18:55Z</time>
</trkpt>
<trkpt lat="30.9465698" lon="35.7093175">
<ele>490.88</ele>
<time>2015-11-22T09:18:57Z</time>
</trkpt>
<trkpt lat="30.9465264" lon="35.7093346">
<ele>491.14</ele>
<time>2015-11-22T09:18:58Z</time>
</trkpt>
<trkpt lat="30.9464615" lon="35.7093571">
<ele>491.33</ele>
<time>2015-11-22T09:19:00Z</time>
</trkpt>
<trkpt lat="30.9463956" lon="35.7093838">
<ele>491.38</ele>
<time>2015-11-22T09:19:02Z</time>
</trkpt>
<trkpt lat="30.9463378" lon="35.7094009">
<ele>491.64</ele>
<time>2015-11-22T09:19:04Z</time>
</trkpt>
<trkpt lat="30.9462671" lon="35.7094138">
<ele>491.96</ele>
<time>2015-11-22T09:19:06Z</time>
</trkpt>
<trkpt lat="30.9461919" lon="35.7094372">
<ele>492.03</ele>
<time>2015-11-22T09:19:08Z</time>
</trkpt>
<trkpt lat="30.9461144" lon="35.7094532">
<ele>492.30</ele>
<time>2015-11-22T09:19:10Z</time>
</trkpt>
<trkpt lat="30.9460300" lon="35.7094612">
<ele>492.87</ele>
<time>2015-11-22T09:19:12Z</time>
</trkpt>
<trkpt lat="30.9459404" lon="35.7094706">
<ele>493.26</ele>
<time>2015-11-22T09:19:14Z</time>
</trkpt>
<trkpt lat="30.9458949" lon="35.7094750">
<ele>493.33</ele>
<time>2015-11-22T09:19:15Z</time>
</trkpt>
<trkpt lat="30.9458495" lon="35.7094792">
<ele>493.36</ele>
<time>2015-11-22T09:19:16Z</time>
</trkpt>
<trkpt lat="30.9457618" lon="35.7094891">
<ele>494.14</ele>
<time>2015-11-22T09:19:18Z</time>
</trkpt>
<trkpt lat="30.9456608" lon="35.7095148">
<ele>494.83</ele>
<time>2015-11-22T09:19:20Z</time>
</trkpt>
<trkpt lat="30.9456088" lon="35.7095155">
<ele>495.11</ele>
<time>2015-11-22T09:19:21Z</time>
</trkpt>
<trkpt lat="30.9455182" lon="35.7095267">
<ele>495.82</ele>
<time>2015-11-22T09:19:23Z</time>
</trkpt>
<trkpt lat="30.9454295" lon="35.7095312">
<ele>497.00</ele>
<time>2015-11-22T09:19:25Z</time>
</trkpt>
<trkpt lat="30.9453493" lon="35.7095378">
<ele>497.30</ele>
<time>2015-11-22T09:19:27Z</time>
</trkpt>
<trkpt lat="30.9452737" lon="35.7095384">
<ele>496.62</ele>
<time>2015-11-22T09:19:29Z</time>
</trkpt>
<trkpt lat="30.9451954" lon="35.7095427">
<ele>496.45</ele>
<time>2015-11-22T09:19:31Z</time>
</trkpt>
<trkpt lat="30.9451159" lon="35.7095541">
<ele>496.91</ele>
<time>2015-11-22T09:19:33Z</time>
</trkpt>
<trkpt lat="30.9450315" lon="35.7095623">
<ele>498.27</ele>
<time>2015-11-22T09:19:35Z</time>
</trkpt>
<trkpt lat="30.9449751" lon="35.7095650">
<ele>498.33</ele>
<time>2015-11-22T09:19:36Z</time>
</trkpt>
<trkpt lat="30.9448911" lon="35.7095706">
<ele>497.88</ele>
<time>2015-11-22T09:19:38Z</time>
</trkpt>
<trkpt lat="30.9448373" lon="35.7095680">
<ele>498.52</ele>
<time>2015-11-22T09:19:40Z</time>
</trkpt>
<trkpt lat="30.9447741" lon="35.7095772">
<ele>499.17</ele>
<time>2015-11-22T09:19:42Z</time>
</trkpt>
<trkpt lat="30.9447075" lon="35.7095921">
<ele>499.34</ele>
<time>2015-11-22T09:19:44Z</time>
</trkpt>
<trkpt lat="30.9446295" lon="35.7095935">
<ele>499.63</ele>
<time>2015-11-22T09:19:46Z</time>
</trkpt>
<trkpt lat="30.9445558" lon="35.7096004">
<ele>499.45</ele>
<time>2015-11-22T09:19:48Z</time>
</trkpt>
<trkpt lat="30.9444823" lon="35.7096078">
<ele>499.41</ele>
<time>2015-11-22T09:19:50Z</time>
</trkpt>
<trkpt lat="30.9444115" lon="35.7096170">
<ele>500.15</ele>
<time>2015-11-22T09:19:52Z</time>
</trkpt>
<trkpt lat="30.9443438" lon="35.7096253">
<ele>499.58</ele>
<time>2015-11-22T09:19:54Z</time>
</trkpt>
<trkpt lat="30.9442751" lon="35.7096279">
<ele>500.19</ele>
<time>2015-11-22T09:19:56Z</time>
</trkpt>
<trkpt lat="30.9442045" lon="35.7096272">
<ele>498.84</ele>
<time>2015-11-22T09:19:58Z</time>
</trkpt>
<trkpt lat="30.9441356" lon="35.7096334">
<ele>498.51</ele>
<time>2015-11-22T09:20:00Z</time>
</trkpt>
<trkpt lat="30.9440722" lon="35.7096435">
<ele>499.17</ele>
<time>2015-11-22T09:20:02Z</time>
</trkpt>
<trkpt lat="30.9440111" lon="35.7096480">
<ele>499.84</ele>
<time>2015-11-22T09:20:04Z</time>
</trkpt>
<trkpt lat="30.9439481" lon="35.7096416">
<ele>499.51</ele>
<time>2015-11-22T09:20:06Z</time>
</trkpt>
<trkpt lat="30.9438900" lon="35.7096303">
<ele>499.42</ele>
<time>2015-11-22T09:20:08Z</time>
</trkpt>
<trkpt lat="30.9438275" lon="35.7096300">
<ele>499.40</ele>
<time>2015-11-22T09:20:10Z</time>
</trkpt>
<trkpt lat="30.9437664" lon="35.7096290">
<ele>499.40</ele>
<time>2015-11-22T09:20:12Z</time>
</trkpt>
<trkpt lat="30.9437038" lon="35.7096274">
<ele>499.39</ele>
<time>2015-11-22T09:20:14Z</time>
</trkpt>
<trkpt lat="30.9436451" lon="35.7096214">
<ele>498.64</ele>
<time>2015-11-22T09:20:16Z</time>
</trkpt>
<trkpt lat="30.9435864" lon="35.7096156">
<ele>497.71</ele>
<time>2015-11-22T09:20:18Z</time>
</trkpt>
<trkpt lat="30.9435267" lon="35.7096057">
<ele>496.72</ele>
<time>2015-11-22T09:20:20Z</time>
</trkpt>
<trkpt lat="30.9434738" lon="35.7096035">
<ele>496.48</ele>
<time>2015-11-22T09:20:22Z</time>
</trkpt>
<trkpt lat="30.9434039" lon="35.7096055">
<ele>495.53</ele>
<time>2015-11-22T09:20:25Z</time>
</trkpt>
<trkpt lat="30.9433502" lon="35.7096029">
<ele>496.18</ele>
<time>2015-11-22T09:20:27Z</time>
</trkpt>
<trkpt lat="30.9432937" lon="35.7096045">
<ele>497.59</ele>
<time>2015-11-22T09:20:29Z</time>
</trkpt>
<trkpt lat="30.9432359" lon="35.7096089">
<ele>497.44</ele>
<time>2015-11-22T09:20:31Z</time>
</trkpt>
<trkpt lat="30.9431764" lon="35.7096158">
<ele>498.66</ele>
<time>2015-11-22T09:20:33Z</time>
</trkpt>
<trkpt lat="30.9431182" lon="35.7096240">
<ele>499.71</ele>
<time>2015-11-22T09:20:35Z</time>
</trkpt>
<trkpt lat="30.9430572" lon="35.7096331">
<ele>500.22</ele>
<time>2015-11-22T09:20:37Z</time>
</trkpt>
<trkpt lat="30.9429942" lon="35.7096449">
<ele>501.10</ele>
<time>2015-11-22T09:20:39Z</time>
</trkpt>
<trkpt lat="30.9429394" lon="35.7096596">
<ele>501.32</ele>
<time>2015-11-22T09:20:41Z</time>
</trkpt>
<trkpt lat="30.9428802" lon="35.7096820">
<ele>502.76</ele>
<time>2015-11-22T09:20:44Z</time>
</trkpt>
<trkpt lat="30.9428291" lon="35.7097009">
<ele>503.81</ele>
<time>2015-11-22T09:20:47Z</time>
</trkpt>
<trkpt lat="30.9427687" lon="35.7097213">
<ele>505.07</ele>
<time>2015-11-22T09:20:50Z</time>
</trkpt>
<trkpt lat="30.9427255" lon="35.7097382">
<ele>505.81</ele>
<time>2015-11-22T09:20:52Z</time>
</trkpt>
<trkpt lat="30.9426784" lon="35.7097530">
<ele>506.25</ele>
<time>2015-11-22T09:20:54Z</time>
</trkpt>
<trkpt lat="30.9426277" lon="35.7097700">
<ele>505.86</ele>
<time>2015-11-22T09:20:56Z</time>
</trkpt>
<trkpt lat="30.9425724" lon="35.7097922">
<ele>506.26</ele>
<time>2015-11-22T09:20:58Z</time>
</trkpt>
<trkpt lat="30.9425136" lon="35.7098134">
<ele>506.11</ele>
<time>2015-11-22T09:21:00Z</time>
</trkpt>
<trkpt lat="30.9424528" lon="35.7098350">
<ele>505.82</ele>
<time>2015-11-22T09:21:02Z</time>
</trkpt>
<trkpt lat="30.9423923" lon="35.7098584">
<ele>505.50</ele>
<time>2015-11-22T09:21:04Z</time>
</trkpt>
<trkpt lat="30.9423317" lon="35.7098802">
<ele>505.42</ele>
<time>2015-11-22T09:21:06Z</time>
</trkpt>
<trkpt lat="30.9422728" lon="35.7099065">
<ele>505.40</ele>
<time>2015-11-22T09:21:08Z</time>
</trkpt>
<trkpt lat="30.9422165" lon="35.7099363">
<ele>506.15</ele>
<time>2015-11-22T09:21:10Z</time>
</trkpt>
<trkpt lat="30.9421590" lon="35.7099655">
<ele>507.08</ele>
<time>2015-11-22T09:21:12Z</time>
</trkpt>
<trkpt lat="30.9421007" lon="35.7099944">
<ele>507.32</ele>
<time>2015-11-22T09:21:14Z</time>
</trkpt>
<trkpt lat="30.9420414" lon="35.7100228">
<ele>507.37</ele>
<time>2015-11-22T09:21:16Z</time>
</trkpt>
<trkpt lat="30.9419798" lon="35.7100493">
<ele>508.14</ele>
<time>2015-11-22T09:21:18Z</time>
</trkpt>
<trkpt lat="30.9419200" lon="35.7100743">
<ele>509.58</ele>
<time>2015-11-22T09:21:20Z</time>
</trkpt>
<trkpt lat="30.9418617" lon="35.7101045">
<ele>510.69</ele>
<time>2015-11-22T09:21:22Z</time>
</trkpt>
<trkpt lat="30.9418029" lon="35.7101347">
<ele>510.72</ele>
<time>2015-11-22T09:21:24Z</time>
</trkpt>
<trkpt lat="30.9417417" lon="35.7101602">
<ele>510.48</ele>
<time>2015-11-22T09:21:26Z</time>
</trkpt>
<trkpt lat="30.9416810" lon="35.7101860">
<ele>510.91</ele>
<time>2015-11-22T09:21:28Z</time>
</trkpt>
<trkpt lat="30.9416231" lon="35.7102114">
<ele>511.77</ele>
<time>2015-11-22T09:21:30Z</time>
</trkpt>
<trkpt lat="30.9415658" lon="35.7102370">
<ele>512.99</ele>
<time>2015-11-22T09:21:32Z</time>
</trkpt>
<trkpt lat="30.9415089" lon="35.7102643">
<ele>514.54</ele>
<time>2015-11-22T09:21:34Z</time>
</trkpt>
<trkpt lat="30.9414513" lon="35.7102915">
<ele>515.18</ele>
<time>2015-11-22T09:21:36Z</time>
</trkpt>
<trkpt lat="30.9413904" lon="35.7103181">
<ele>515.34</ele>
<time>2015-11-22T09:21:38Z</time>
</trkpt>
<trkpt lat="30.9413263" lon="35.7103454">
<ele>514.38</ele>
<time>2015-11-22T09:21:40Z</time>
</trkpt>
<trkpt lat="30.9412617" lon="35.7103682">
<ele>514.14</ele>
<time>2015-11-22T09:21:42Z</time>
</trkpt>
<trkpt lat="30.9411954" lon="35.7103880">
<ele>514.33</ele>
<time>2015-11-22T09:21:44Z</time>
</trkpt>
<trkpt lat="30.9411285" lon="35.7104125">
<ele>514.38</ele>
<time>2015-11-22T09:21:46Z</time>
</trkpt>
<trkpt lat="30.9410615" lon="35.7104384">
<ele>514.89</ele>
<time>2015-11-22T09:21:48Z</time>
</trkpt>
<trkpt lat="30.9409958" lon="35.7104652">
<ele>515.52</ele>
<time>2015-11-22T09:21:50Z</time>
</trkpt>
<trkpt lat="30.9409313" lon="35.7104941">
<ele>515.42</ele>
<time>2015-11-22T09:21:52Z</time>
</trkpt>
<trkpt lat="30.9408717" lon="35.7105259">
<ele>515.40</ele>
<time>2015-11-22T09:21:54Z</time>
</trkpt>
<trkpt lat="30.9408110" lon="35.7105571">
<ele>516.15</ele>
<time>2015-11-22T09:21:56Z</time>
</trkpt>
<trkpt lat="30.9407509" lon="35.7105873">
<ele>516.08</ele>
<time>2015-11-22T09:21:58Z</time>
</trkpt>
<trkpt lat="30.9406918" lon="35.7106187">
<ele>516.07</ele>
<time>2015-11-22T09:22:00Z</time>
</trkpt>
<trkpt lat="30.9406307" lon="35.7106540">
<ele>516.31</ele>
<time>2015-11-22T09:22:02Z</time>
</trkpt>
<trkpt lat="30.9405721" lon="35.7106935">
<ele>516.37</ele>
<time>2015-11-22T09:22:04Z</time>
</trkpt>
<trkpt lat="30.9405124" lon="35.7107343">
<ele>515.89</ele>
<time>2015-11-22T09:22:06Z</time>
</trkpt>
<trkpt lat="30.9404536" lon="35.7107733">
<ele>515.52</ele>
<time>2015-11-22T09:22:08Z</time>
</trkpt>
<trkpt lat="30.9403967" lon="35.7108103">
<ele>515.42</ele>
<time>2015-11-22T09:22:10Z</time>
</trkpt>
<trkpt lat="30.9403425" lon="35.7108462">
<ele>514.65</ele>
<time>2015-11-22T09:22:12Z</time>
</trkpt>
<trkpt lat="30.9402994" lon="35.7108820">
<ele>515.21</ele>
<time>2015-11-22T09:22:14Z</time>
</trkpt>
<trkpt lat="30.9402596" lon="35.7109185">
<ele>515.85</ele>
<time>2015-11-22T09:22:16Z</time>
</trkpt>
<trkpt lat="30.9402182" lon="35.7109547">
<ele>516.76</ele>
<time>2015-11-22T09:22:18Z</time>
</trkpt>
<trkpt lat="30.9401782" lon="35.7109926">
<ele>517.48</ele>
<time>2015-11-22T09:22:20Z</time>
</trkpt>
<trkpt lat="30.9401365" lon="35.7110261">
<ele>516.92</ele>
<time>2015-11-22T09:22:22Z</time>
</trkpt>
<trkpt lat="30.9400913" lon="35.7110619">
<ele>516.77</ele>
<time>2015-11-22T09:22:24Z</time>
</trkpt>
<trkpt lat="30.9400424" lon="35.7111039">
<ele>516.99</ele>
<time>2015-11-22T09:22:26Z</time>
</trkpt>
<trkpt lat="30.9399925" lon="35.7111453">
<ele>517.29</ele>
<time>2015-11-22T09:22:28Z</time>
</trkpt>
<trkpt lat="30.9399437" lon="35.7111810">
<ele>518.62</ele>
<time>2015-11-22T09:22:30Z</time>
</trkpt>
<trkpt lat="30.9398978" lon="35.7112166">
<ele>519.20</ele>
<time>2015-11-22T09:22:32Z</time>
</trkpt>
<trkpt lat="30.9398506" lon="35.7112524">
<ele>520.10</ele>
<time>2015-11-22T09:22:34Z</time>
</trkpt>
<trkpt lat="30.9397991" lon="35.7112819">
<ele>520.32</ele>
<time>2015-11-22T09:22:36Z</time>
</trkpt>
<trkpt lat="30.9397488" lon="35.7113184">
<ele>520.38</ele>
<time>2015-11-22T09:22:38Z</time>
</trkpt>
<trkpt lat="30.9396998" lon="35.7113563">
<ele>520.39</ele>
<time>2015-11-22T09:22:40Z</time>
</trkpt>
<trkpt lat="30.9396478" lon="35.7113890">
<ele>519.14</ele>
<time>2015-11-22T09:22:42Z</time>
</trkpt>
<trkpt lat="30.9395986" lon="35.7114307">
<ele>519.33</ele>
<time>2015-11-22T09:22:44Z</time>
</trkpt>
<trkpt lat="30.9395465" lon="35.7114707">
<ele>519.38</ele>
<time>2015-11-22T09:22:46Z</time>
</trkpt>
<trkpt lat="30.9394919" lon="35.7115088">
<ele>519.39</ele>
<time>2015-11-22T09:22:48Z</time>
</trkpt>
<trkpt lat="30.9394380" lon="35.7115489">
<ele>519.89</ele>
<time>2015-11-22T09:22:50Z</time>
</trkpt>
<trkpt lat="30.9393818" lon="35.7115891">
<ele>520.27</ele>
<time>2015-11-22T09:22:52Z</time>
</trkpt>
<trkpt lat="30.9393265" lon="35.7116333">
<ele>520.36</ele>
<time>2015-11-22T09:22:54Z</time>
</trkpt>
<trkpt lat="30.9392733" lon="35.7116786">
<ele>520.89</ele>
<time>2015-11-22T09:22:56Z</time>
</trkpt>
<trkpt lat="30.9392235" lon="35.7117241">
<ele>521.77</ele>
<time>2015-11-22T09:22:58Z</time>
</trkpt>
<trkpt lat="30.9391701" lon="35.7117655">
<ele>521.49</ele>
<time>2015-11-22T09:23:00Z</time>
</trkpt>
<trkpt lat="30.9391193" lon="35.7118071">
<ele>521.67</ele>
<time>2015-11-22T09:23:02Z</time>
</trkpt>
<trkpt lat="30.9390647" lon="35.7118458">
<ele>521.46</ele>
<time>2015-11-22T09:23:04Z</time>
</trkpt>
<trkpt lat="30.9390083" lon="35.7118804">
<ele>520.16</ele>
<time>2015-11-22T09:23:06Z</time>
</trkpt>
<trkpt lat="30.9389569" lon="35.7119226">
<ele>519.84</ele>
<time>2015-11-22T09:23:08Z</time>
</trkpt>
<trkpt lat="30.9389046" lon="35.7119691">
<ele>520.25</ele>
<time>2015-11-22T09:23:10Z</time>
</trkpt>
<trkpt lat="30.9388490" lon="35.7120142">
<ele>520.86</ele>
<time>2015-11-22T09:23:12Z</time>
</trkpt>
<trkpt lat="30.9387918" lon="35.7120570">
<ele>522.01</ele>
<time>2015-11-22T09:23:14Z</time>
</trkpt>
<trkpt lat="30.9387358" lon="35.7121027">
<ele>523.30</ele>
<time>2015-11-22T09:23:16Z</time>
</trkpt>
<trkpt lat="30.9386796" lon="35.7121514">
<ele>522.87</ele>
<time>2015-11-22T09:23:18Z</time>
</trkpt>
<trkpt lat="30.9386260" lon="35.7122007">
<ele>523.76</ele>
<time>2015-11-22T09:23:20Z</time>
</trkpt>
<trkpt lat="30.9385706" lon="35.7122467">
<ele>524.24</ele>
<time>2015-11-22T09:23:22Z</time>
</trkpt>
<trkpt lat="30.9385173" lon="35.7122894">
<ele>524.35</ele>
<time>2015-11-22T09:23:24Z</time>
</trkpt>
<trkpt lat="30.9384682" lon="35.7123224">
<ele>523.63</ele>
<time>2015-11-22T09:23:26Z</time>
</trkpt>
<trkpt lat="30.9384251" lon="35.7123567">
<ele>524.20</ele>
<time>2015-11-22T09:23:28Z</time>
</trkpt>
<trkpt lat="30.9383814" lon="35.7123907">
<ele>524.85</ele>
<time>2015-11-22T09:23:30Z</time>
</trkpt>
<trkpt lat="30.9383325" lon="35.7124221">
<ele>526.51</ele>
<time>2015-11-22T09:23:32Z</time>
</trkpt>
<trkpt lat="30.9382856" lon="35.7124525">
<ele>528.42</ele>
<time>2015-11-22T09:23:34Z</time>
</trkpt>
<trkpt lat="30.9382422" lon="35.7124881">
<ele>528.65</ele>
<time>2015-11-22T09:23:36Z</time>
</trkpt>
<trkpt lat="30.9382001" lon="35.7125240">
<ele>528.46</ele>
<time>2015-11-22T09:23:38Z</time>
</trkpt>
<trkpt lat="30.9381579" lon="35.7125593">
<ele>528.41</ele>
<time>2015-11-22T09:23:40Z</time>
</trkpt>
<trkpt lat="30.9381176" lon="35.7125926">
<ele>529.15</ele>
<time>2015-11-22T09:23:42Z</time>
</trkpt>
<trkpt lat="30.9380736" lon="35.7126294">
<ele>529.33</ele>
<time>2015-11-22T09:23:44Z</time>
</trkpt>
<trkpt lat="30.9380281" lon="35.7126655">
<ele>529.38</ele>
<time>2015-11-22T09:23:46Z</time>
</trkpt>
<trkpt lat="30.9379809" lon="35.7126991">
<ele>530.64</ele>
<time>2015-11-22T09:23:48Z</time>
</trkpt>
<trkpt lat="30.9379319" lon="35.7127333">
<ele>531.21</ele>
<time>2015-11-22T09:23:50Z</time>
</trkpt>
<trkpt lat="30.9378804" lon="35.7127664">
<ele>531.35</ele>
<time>2015-11-22T09:23:52Z</time>
</trkpt>
<trkpt lat="30.9378291" lon="35.7127978">
<ele>532.13</ele>
<time>2015-11-22T09:23:54Z</time>
</trkpt>
<trkpt lat="30.9377773" lon="35.7128322">
<ele>532.58</ele>
<time>2015-11-22T09:23:56Z</time>
</trkpt>
<trkpt lat="30.9377299" lon="35.7128702">
<ele>533.19</ele>
<time>2015-11-22T09:23:58Z</time>
</trkpt>
<trkpt lat="30.9376797" lon="35.7129028">
<ele>533.34</ele>
<time>2015-11-22T09:24:00Z</time>
</trkpt>
<trkpt lat="30.9376325" lon="35.7129360">
<ele>534.13</ele>
<time>2015-11-22T09:24:02Z</time>
</trkpt>
<trkpt lat="30.9375873" lon="35.7129734">
<ele>533.83</ele>
<time>2015-11-22T09:24:04Z</time>
</trkpt>
<trkpt lat="30.9375415" lon="35.7130088">
<ele>534.25</ele>
<time>2015-11-22T09:24:06Z</time>
</trkpt>
<trkpt lat="30.9374882" lon="35.7130398">
<ele>534.36</ele>
<time>2015-11-22T09:24:08Z</time>
</trkpt>
<trkpt lat="30.9374326" lon="35.7130687">
<ele>534.89</ele>
<time>2015-11-22T09:24:10Z</time>
</trkpt>
<trkpt lat="30.9373759" lon="35.7131033">
<ele>535.27</ele>
<time>2015-11-22T09:24:12Z</time>
</trkpt>
<trkpt lat="30.9373204" lon="35.7131406">
<ele>535.86</ele>
<time>2015-11-22T09:24:14Z</time>
</trkpt>
<trkpt lat="30.9372646" lon="35.7131760">
<ele>537.01</ele>
<time>2015-11-22T09:24:16Z</time>
</trkpt>
<trkpt lat="30.9372097" lon="35.7132046">
<ele>537.05</ele>
<time>2015-11-22T09:24:18Z</time>
</trkpt>
<trkpt lat="30.9371529" lon="35.7132292">
<ele>537.06</ele>
<time>2015-11-22T09:24:20Z</time>
</trkpt>
<trkpt lat="30.9370931" lon="35.7132527">
<ele>537.06</ele>
<time>2015-11-22T09:24:22Z</time>
</trkpt>
<trkpt lat="30.9370307" lon="35.7132777">
<ele>536.31</ele>
<time>2015-11-22T09:24:24Z</time>
</trkpt>
<trkpt lat="30.9369668" lon="35.7133070">
<ele>535.62</ele>
<time>2015-11-22T09:24:26Z</time>
</trkpt>
<trkpt lat="30.9369003" lon="35.7133302">
<ele>535.45</ele>
<time>2015-11-22T09:24:28Z</time>
</trkpt>
<trkpt lat="30.9368341" lon="35.7133541">
<ele>535.91</ele>
<time>2015-11-22T09:24:30Z</time>
</trkpt>
<trkpt lat="30.9367734" lon="35.7133808">
<ele>538.52</ele>
<time>2015-11-22T09:24:32Z</time>
</trkpt>
<trkpt lat="30.9367159" lon="35.7134058">
<ele>539.93</ele>
<time>2015-11-22T09:24:34Z</time>
</trkpt>
<trkpt lat="30.9366591" lon="35.7134289">
<ele>541.03</ele>
<time>2015-11-22T09:24:36Z</time>
</trkpt>
<trkpt lat="30.9366006" lon="35.7134486">
<ele>541.55</ele>
<time>2015-11-22T09:24:38Z</time>
</trkpt>
<trkpt lat="30.9365388" lon="35.7134634">
<ele>541.43</ele>
<time>2015-11-22T09:24:40Z</time>
</trkpt>
<trkpt lat="30.9364779" lon="35.7134802">
<ele>541.40</ele>
<time>2015-11-22T09:24:42Z</time>
</trkpt>
<trkpt lat="30.9364243" lon="35.7134990">
<ele>541.40</ele>
<time>2015-11-22T09:24:44Z</time>
</trkpt>
<trkpt lat="30.9363710" lon="35.7135064">
<ele>540.89</ele>
<time>2015-11-22T09:24:46Z</time>
</trkpt>
<trkpt lat="30.9363205" lon="35.7135087">
<ele>541.27</ele>
<time>2015-11-22T09:24:48Z</time>
</trkpt>
<trkpt lat="30.9362738" lon="35.7135222">
<ele>541.36</ele>
<time>2015-11-22T09:24:50Z</time>
</trkpt>
<trkpt lat="30.9362116" lon="35.7135362">
<ele>541.89</ele>
<time>2015-11-22T09:24:53Z</time>
</trkpt>
<trkpt lat="30.9361512" lon="35.7135549">
<ele>542.71</ele>
<time>2015-11-22T09:24:56Z</time>
</trkpt>
<trkpt lat="30.9360853" lon="35.7135729">
<ele>541.93</ele>
<time>2015-11-22T09:24:59Z</time>
</trkpt>
<trkpt lat="30.9360395" lon="35.7135845">
<ele>541.53</ele>
<time>2015-11-22T09:25:01Z</time>
</trkpt>
<trkpt lat="30.9359929" lon="35.7135950">
<ele>541.43</ele>
<time>2015-11-22T09:25:03Z</time>
</trkpt>
<trkpt lat="30.9359444" lon="35.7136029">
<ele>541.90</ele>
<time>2015-11-22T09:25:05Z</time>
</trkpt>
<trkpt lat="30.9358934" lon="35.7136097">
<ele>542.27</ele>
<time>2015-11-22T09:25:07Z</time>
</trkpt>
<trkpt lat="30.9358414" lon="35.7136156">
<ele>543.11</ele>
<time>2015-11-22T09:25:09Z</time>
</trkpt>
<trkpt lat="30.9357892" lon="35.7136270">
<ele>542.57</ele>
<time>2015-11-22T09:25:11Z</time>
</trkpt>
<trkpt lat="30.9357338" lon="35.7136418">
<ele>543.19</ele>
<time>2015-11-22T09:25:13Z</time>
</trkpt>
<trkpt lat="30.9356756" lon="35.7136519">
<ele>543.34</ele>
<time>2015-11-22T09:25:15Z</time>
</trkpt>
<trkpt lat="30.9356169" lon="35.7136633">
<ele>544.13</ele>
<time>2015-11-22T09:25:17Z</time>
</trkpt>
<trkpt lat="30.9355554" lon="35.7136744">
<ele>544.33</ele>
<time>2015-11-22T09:25:19Z</time>
</trkpt>
<trkpt lat="30.9354898" lon="35.7136826">
<ele>544.13</ele>
<time>2015-11-22T09:25:21Z</time>
</trkpt>
<trkpt lat="30.9354222" lon="35.7136935">
<ele>543.58</ele>
<time>2015-11-22T09:25:23Z</time>
</trkpt>
<trkpt lat="30.9353514" lon="35.7137064">
<ele>543.94</ele>
<time>2015-11-22T09:25:25Z</time>
</trkpt>
<trkpt lat="30.9352802" lon="35.7137211">
<ele>544.28</ele>
<time>2015-11-22T09:25:27Z</time>
</trkpt>
<trkpt lat="30.9351980" lon="35.7137383">
<ele>543.87</ele>
<time>2015-11-22T09:25:29Z</time>
</trkpt>
<trkpt lat="30.9351126" lon="35.7137566">
<ele>544.26</ele>
<time>2015-11-22T09:25:31Z</time>
</trkpt>
<trkpt lat="30.9350323" lon="35.7137732">
<ele>544.36</ele>
<time>2015-11-22T09:25:33Z</time>
</trkpt>
<trkpt lat="30.9349537" lon="35.7137933">
<ele>543.89</ele>
<time>2015-11-22T09:25:35Z</time>
</trkpt>
<trkpt lat="30.9348732" lon="35.7138138">
<ele>544.02</ele>
<time>2015-11-22T09:25:37Z</time>
</trkpt>
<trkpt lat="30.9347885" lon="35.7138329">
<ele>543.55</ele>
<time>2015-11-22T09:25:39Z</time>
</trkpt>
<trkpt lat="30.9347000" lon="35.7138527">
<ele>543.43</ele>
<time>2015-11-22T09:25:41Z</time>
</trkpt>
<trkpt lat="30.9346121" lon="35.7138717">
<ele>544.15</ele>
<time>2015-11-22T09:25:43Z</time>
</trkpt>
<trkpt lat="30.9345250" lon="35.7138898">
<ele>543.83</ele>
<time>2015-11-22T09:25:45Z</time>
</trkpt>
<trkpt lat="30.9344405" lon="35.7139056">
<ele>543.50</ele>
<time>2015-11-22T09:25:47Z</time>
</trkpt>
<trkpt lat="30.9343573" lon="35.7139237">
<ele>543.42</ele>
<time>2015-11-22T09:25:49Z</time>
</trkpt>
<trkpt lat="30.9342781" lon="35.7139431">
<ele>543.90</ele>
<time>2015-11-22T09:25:51Z</time>
</trkpt>
<trkpt lat="30.9342021" lon="35.7139597">
<ele>544.77</ele>
<time>2015-11-22T09:25:53Z</time>
</trkpt>
<trkpt lat="30.9341277" lon="35.7139790">
<ele>545.74</ele>
<time>2015-11-22T09:25:55Z</time>
</trkpt>
<trkpt lat="30.9340573" lon="35.7140008">
<ele>546.23</ele>
<time>2015-11-22T09:25:57Z</time>
</trkpt>
<trkpt lat="30.9339877" lon="35.7140220">
<ele>547.10</ele>
<time>2015-11-22T09:25:59Z</time>
</trkpt>
<trkpt lat="30.9339206" lon="35.7140392">
<ele>547.32</ele>
<time>2015-11-22T09:26:01Z</time>
</trkpt>
<trkpt lat="30.9338544" lon="35.7140532">
<ele>547.38</ele>
<time>2015-11-22T09:26:03Z</time>
</trkpt>
<trkpt lat="30.9337891" lon="35.7140714">
<ele>547.64</ele>
<time>2015-11-22T09:26:05Z</time>
</trkpt>
<trkpt lat="30.9337237" lon="35.7140878">
<ele>548.21</ele>
<time>2015-11-22T09:26:07Z</time>
</trkpt>
<trkpt lat="30.9336584" lon="35.7140993">
<ele>547.85</ele>
<time>2015-11-22T09:26:09Z</time>
</trkpt>
<trkpt lat="30.9335956" lon="35.7141099">
<ele>547.51</ele>
<time>2015-11-22T09:26:11Z</time>
</trkpt>
<trkpt lat="30.9335351" lon="35.7141204">
<ele>548.67</ele>
<time>2015-11-22T09:26:13Z</time>
</trkpt>
<trkpt lat="30.9334759" lon="35.7141330">
<ele>549.96</ele>
<time>2015-11-22T09:26:15Z</time>
</trkpt>
<trkpt lat="30.9334159" lon="35.7141409">
<ele>550.79</ele>
<time>2015-11-22T09:26:17Z</time>
</trkpt>
<trkpt lat="30.9333530" lon="35.7141460">
<ele>550.49</ele>
<time>2015-11-22T09:26:19Z</time>
</trkpt>
<trkpt lat="30.9332887" lon="35.7141503">
<ele>551.17</ele>
<time>2015-11-22T09:26:21Z</time>
</trkpt>
<trkpt lat="30.9332259" lon="35.7141553">
<ele>551.09</ele>
<time>2015-11-22T09:26:23Z</time>
</trkpt>
<trkpt lat="30.9331692" lon="35.7141650">
<ele>551.57</ele>
<time>2015-11-22T09:26:25Z</time>
</trkpt>
<trkpt lat="30.9331141" lon="35.7141715">
<ele>551.94</ele>
<time>2015-11-22T09:26:27Z</time>
</trkpt>
<trkpt lat="30.9330579" lon="35.7141734">
<ele>552.28</ele>
<time>2015-11-22T09:26:29Z</time>
</trkpt>
<trkpt lat="30.9329964" lon="35.7141712">
<ele>551.87</ele>
<time>2015-11-22T09:26:31Z</time>
</trkpt>
<trkpt lat="30.9329317" lon="35.7141690">
<ele>552.26</ele>
<time>2015-11-22T09:26:33Z</time>
</trkpt>
<trkpt lat="30.9328658" lon="35.7141732">
<ele>552.86</ele>
<time>2015-11-22T09:26:35Z</time>
</trkpt>
<trkpt lat="30.9327999" lon="35.7141793">
<ele>553.26</ele>
<time>2015-11-22T09:26:37Z</time>
</trkpt>
<trkpt lat="30.9327366" lon="35.7141809">
<ele>552.86</ele>
<time>2015-11-22T09:26:39Z</time>
</trkpt>
<trkpt lat="30.9326774" lon="35.7141806">
<ele>553.26</ele>
<time>2015-11-22T09:26:41Z</time>
</trkpt>
<trkpt lat="30.9326173" lon="35.7141848">
<ele>554.86</ele>
<time>2015-11-22T09:26:43Z</time>
</trkpt>
<trkpt lat="30.9325547" lon="35.7141852">
<ele>554.51</ele>
<time>2015-11-22T09:26:45Z</time>
</trkpt>
<trkpt lat="30.9324900" lon="35.7141852">
<ele>554.42</ele>
<time>2015-11-22T09:26:47Z</time>
</trkpt>
<trkpt lat="30.9324227" lon="35.7141862">
<ele>554.40</ele>
<time>2015-11-22T09:26:49Z</time>
</trkpt>
<trkpt lat="30.9323557" lon="35.7141844">
<ele>554.40</ele>
<time>2015-11-22T09:26:51Z</time>
</trkpt>
<trkpt lat="30.9322858" lon="35.7141853">
<ele>554.39</ele>
<time>2015-11-22T09:26:53Z</time>
</trkpt>
<trkpt lat="30.9322130" lon="35.7141859">
<ele>554.89</ele>
<time>2015-11-22T09:26:55Z</time>
</trkpt>
<trkpt lat="30.9321415" lon="35.7141834">
<ele>555.27</ele>
<time>2015-11-22T09:26:57Z</time>
</trkpt>
<trkpt lat="30.9320722" lon="35.7141843">
<ele>555.86</ele>
<time>2015-11-22T09:26:59Z</time>
</trkpt>
<trkpt lat="30.9320064" lon="35.7141865">
<ele>557.01</ele>
<time>2015-11-22T09:27:01Z</time>
</trkpt>
<trkpt lat="30.9319435" lon="35.7141820">
<ele>556.80</ele>
<time>2015-11-22T09:27:03Z</time>
</trkpt>
<trkpt lat="30.9318808" lon="35.7141783">
<ele>556.50</ele>
<time>2015-11-22T09:27:05Z</time>
</trkpt>
<trkpt lat="30.9318167" lon="35.7141789">
<ele>556.42</ele>
<time>2015-11-22T09:27:07Z</time>
</trkpt>
<trkpt lat="30.9317510" lon="35.7141808">
<ele>556.90</ele>
<time>2015-11-22T09:27:09Z</time>
</trkpt>
<trkpt lat="30.9316837" lon="35.7141823">
<ele>557.77</ele>
<time>2015-11-22T09:27:11Z</time>
</trkpt>
<trkpt lat="30.9316176" lon="35.7141790">
<ele>558.24</ele>
<time>2015-11-22T09:27:13Z</time>
</trkpt>
<trkpt lat="30.9315516" lon="35.7141811">
<ele>558.61</ele>
<time>2015-11-22T09:27:15Z</time>
</trkpt>
<trkpt lat="30.9314830" lon="35.7141843">
<ele>557.95</ele>
<time>2015-11-22T09:27:17Z</time>
</trkpt>
<trkpt lat="30.9314133" lon="35.7141894">
<ele>558.03</ele>
<time>2015-11-22T09:27:19Z</time>
</trkpt>
<trkpt lat="30.9313466" lon="35.7141954">
<ele>557.55</ele>
<time>2015-11-22T09:27:21Z</time>
</trkpt>
<trkpt lat="30.9312845" lon="35.7141990">
<ele>557.43</ele>
<time>2015-11-22T09:27:23Z</time>
</trkpt>
<trkpt lat="30.9312258" lon="35.7141984">
<ele>557.90</ele>
<time>2015-11-22T09:27:25Z</time>
</trkpt>
<trkpt lat="30.9311670" lon="35.7142014">
<ele>558.02</ele>
<time>2015-11-22T09:27:27Z</time>
</trkpt>
<trkpt lat="30.9311044" lon="35.7142055">
<ele>558.80</ele>
<time>2015-11-22T09:27:29Z</time>
</trkpt>
<trkpt lat="30.9310404" lon="35.7142043">
<ele>559.25</ele>
<time>2015-11-22T09:27:31Z</time>
</trkpt>
<trkpt lat="30.9309749" lon="35.7142022">
<ele>559.86</ele>
<time>2015-11-22T09:27:33Z</time>
</trkpt>
<trkpt lat="30.9309081" lon="35.7142007">
<ele>560.26</ele>
<time>2015-11-22T09:27:35Z</time>
</trkpt>
<trkpt lat="30.9308392" lon="35.7142021">
<ele>560.61</ele>
<time>2015-11-22T09:27:37Z</time>
</trkpt>
<trkpt lat="30.9307696" lon="35.7142007">
<ele>561.70</ele>
<time>2015-11-22T09:27:39Z</time>
</trkpt>
<trkpt lat="30.9307036" lon="35.7142002">
<ele>562.72</ele>
<time>2015-11-22T09:27:41Z</time>
</trkpt>
<trkpt lat="30.9306453" lon="35.7141992">
<ele>562.73</ele>
<time>2015-11-22T09:27:43Z</time>
</trkpt>
<trkpt lat="30.9305997" lon="35.7141928">
<ele>563.23</ele>
<time>2015-11-22T09:27:45Z</time>
</trkpt>
<trkpt lat="30.9305533" lon="35.7141898">
<ele>562.85</ele>
<time>2015-11-22T09:27:47Z</time>
</trkpt>
<trkpt lat="30.9305000" lon="35.7141898">
<ele>563.26</ele>
<time>2015-11-22T09:27:49Z</time>
</trkpt>
<trkpt lat="30.9304413" lon="35.7141898">
<ele>564.11</ele>
<time>2015-11-22T09:27:51Z</time>
</trkpt>
<trkpt lat="30.9303761" lon="35.7141906">
<ele>564.32</ele>
<time>2015-11-22T09:27:53Z</time>
</trkpt>
<trkpt lat="30.9303072" lon="35.7141936">
<ele>564.88</ele>
<time>2015-11-22T09:27:55Z</time>
</trkpt>
<trkpt lat="30.9302362" lon="35.7141952">
<ele>565.26</ele>
<time>2015-11-22T09:27:57Z</time>
</trkpt>
<trkpt lat="30.9301656" lon="35.7141936">
<ele>566.11</ele>
<time>2015-11-22T09:27:59Z</time>
</trkpt>
<trkpt lat="30.9301008" lon="35.7141959">
<ele>565.57</ele>
<time>2015-11-22T09:28:01Z</time>
</trkpt>
<trkpt lat="30.9300357" lon="35.7142010">
<ele>565.44</ele>
<time>2015-11-22T09:28:03Z</time>
</trkpt>
<trkpt lat="30.9299695" lon="35.7142049">
<ele>565.41</ele>
<time>2015-11-22T09:28:05Z</time>
</trkpt>
<trkpt lat="30.9299021" lon="35.7142060">
<ele>564.90</ele>
<time>2015-11-22T09:28:07Z</time>
</trkpt>
<trkpt lat="30.9298303" lon="35.7142063">
<ele>565.27</ele>
<time>2015-11-22T09:28:09Z</time>
</trkpt>
<trkpt lat="30.9297610" lon="35.7142053">
<ele>565.86</ele>
<time>2015-11-22T09:28:11Z</time>
</trkpt>
<trkpt lat="30.9296977" lon="35.7142012">
<ele>566.26</ele>
<time>2015-11-22T09:28:13Z</time>
</trkpt>
<trkpt lat="30.9296374" lon="35.7141952">
<ele>565.86</ele>
<time>2015-11-22T09:28:15Z</time>
</trkpt>
<trkpt lat="30.9295753" lon="35.7141903">
<ele>566.26</ele>
<time>2015-11-22T09:28:17Z</time>
</trkpt>
<trkpt lat="30.9295119" lon="35.7141840">
<ele>566.36</ele>
<time>2015-11-22T09:28:19Z</time>
</trkpt>
<trkpt lat="30.9294475" lon="35.7141740">
<ele>566.39</ele>
<time>2015-11-22T09:28:21Z</time>
</trkpt>
<trkpt lat="30.9293830" lon="35.7141577">
<ele>566.89</ele>
<time>2015-11-22T09:28:23Z</time>
</trkpt>
<trkpt lat="30.9293157" lon="35.7141390">
<ele>567.27</ele>
<time>2015-11-22T09:28:25Z</time>
</trkpt>
<trkpt lat="30.9292465" lon="35.7141195">
<ele>568.61</ele>
<time>2015-11-22T09:28:27Z</time>
</trkpt>
<trkpt lat="30.9291779" lon="35.7140969">
<ele>569.70</ele>
<time>2015-11-22T09:28:29Z</time>
</trkpt>
<trkpt lat="30.9291107" lon="35.7140714">
<ele>569.47</ele>
<time>2015-11-22T09:28:31Z</time>
</trkpt>
<trkpt lat="30.9290428" lon="35.7140410">
<ele>570.91</ele>
<time>2015-11-22T09:28:33Z</time>
</trkpt>
<trkpt lat="30.9289743" lon="35.7140084">
<ele>571.27</ele>
<time>2015-11-22T09:28:35Z</time>
</trkpt>
<trkpt lat="30.9289056" lon="35.7139732">
<ele>571.11</ele>
<time>2015-11-22T09:28:37Z</time>
</trkpt>
<trkpt lat="30.9288382" lon="35.7139386">
<ele>571.07</ele>
<time>2015-11-22T09:28:39Z</time>
</trkpt>
<trkpt lat="30.9287692" lon="35.7139043">
<ele>571.31</ele>
<time>2015-11-22T09:28:41Z</time>
</trkpt>
<trkpt lat="30.9287036" lon="35.7138728">
<ele>571.37</ele>
<time>2015-11-22T09:28:43Z</time>
</trkpt>
<trkpt lat="30.9286450" lon="35.7138410">
<ele>571.39</ele>
<time>2015-11-22T09:28:45Z</time>
</trkpt>
<trkpt lat="30.9285846" lon="35.7138169">
<ele>571.52</ele>
<time>2015-11-22T09:28:48Z</time>
</trkpt>
<trkpt lat="30.9285316" lon="35.7137921">
<ele>571.16</ele>
<time>2015-11-22T09:28:51Z</time>
</trkpt>
<trkpt lat="30.9284777" lon="35.7137626">
<ele>571.24</ele>
<time>2015-11-22T09:28:54Z</time>
</trkpt>
<trkpt lat="30.9284351" lon="35.7137416">
<ele>571.36</ele>
<time>2015-11-22T09:28:56Z</time>
</trkpt>
<trkpt lat="30.9283887" lon="35.7137177">
<ele>572.13</ele>
<time>2015-11-22T09:28:58Z</time>
</trkpt>
<trkpt lat="30.9283396" lon="35.7136930">
<ele>572.33</ele>
<time>2015-11-22T09:29:00Z</time>
</trkpt>
<trkpt lat="30.9282840" lon="35.7136717">
<ele>572.63</ele>
<time>2015-11-22T09:29:02Z</time>
</trkpt>
<trkpt lat="30.9282226" lon="35.7136494">
<ele>573.45</ele>
<time>2015-11-22T09:29:04Z</time>
</trkpt>
<trkpt lat="30.9281599" lon="35.7136267">
<ele>574.16</ele>
<time>2015-11-22T09:29:06Z</time>
</trkpt>
<trkpt lat="30.9280961" lon="35.7136056">
<ele>575.09</ele>
<time>2015-11-22T09:29:08Z</time>
</trkpt>
<trkpt lat="30.9280313" lon="35.7135806">
<ele>575.82</ele>
<time>2015-11-22T09:29:10Z</time>
</trkpt>
<trkpt lat="30.9279683" lon="35.7135551">
<ele>575.50</ele>
<time>2015-11-22T09:29:12Z</time>
</trkpt>
<trkpt lat="30.9279071" lon="35.7135277">
<ele>576.17</ele>
<time>2015-11-22T09:29:14Z</time>
</trkpt>
<trkpt lat="30.9278489" lon="35.7134956">
<ele>576.84</ele>
<time>2015-11-22T09:29:16Z</time>
</trkpt>
<trkpt lat="30.9277910" lon="35.7134612">
<ele>577.26</ele>
<time>2015-11-22T09:29:18Z</time>
</trkpt>
<trkpt lat="30.9277328" lon="35.7134282">
<ele>577.36</ele>
<time>2015-11-22T09:29:20Z</time>
</trkpt>
<trkpt lat="30.9276764" lon="35.7133957">
<ele>576.89</ele>
<time>2015-11-22T09:29:22Z</time>
</trkpt>
<trkpt lat="30.9276186" lon="35.7133646">
<ele>577.27</ele>
<time>2015-11-22T09:29:24Z</time>
</trkpt>
<trkpt lat="30.9275603" lon="35.7133340">
<ele>578.11</ele>
<time>2015-11-22T09:29:26Z</time>
</trkpt>
<trkpt lat="30.9275023" lon="35.7133019">
<ele>578.82</ele>
<time>2015-11-22T09:29:28Z</time>
</trkpt>
<trkpt lat="30.9274426" lon="35.7132694">
<ele>579.25</ele>
<time>2015-11-22T09:29:30Z</time>
</trkpt>
<trkpt lat="30.9273839" lon="35.7132389">
<ele>579.36</ele>
<time>2015-11-22T09:29:32Z</time>
</trkpt>
<trkpt lat="30.9273243" lon="35.7132068">
<ele>579.39</ele>
<time>2015-11-22T09:29:34Z</time>
</trkpt>
<trkpt lat="30.9272630" lon="35.7131758">
<ele>579.89</ele>
<time>2015-11-22T09:29:36Z</time>
</trkpt>
<trkpt lat="30.9272056" lon="35.7131458">
<ele>580.27</ele>
<time>2015-11-22T09:29:38Z</time>
</trkpt>
<trkpt lat="30.9271512" lon="35.7131175">
<ele>580.36</ele>
<time>2015-11-22T09:29:40Z</time>
</trkpt>
<trkpt lat="30.9270996" lon="35.7130886">
<ele>580.39</ele>
<time>2015-11-22T09:29:42Z</time>
</trkpt>
<trkpt lat="30.9270584" lon="35.7130527">
<ele>581.14</ele>
<time>2015-11-22T09:29:44Z</time>
</trkpt>
<trkpt lat="30.9271028" lon="35.7130708">
<ele>576.27</ele>
<time>2015-11-22T09:30:45Z</time>
</trkpt>
<trkpt lat="30.9271397" lon="35.7130328">
<ele>575.86</ele>
<time>2015-11-22T09:30:51Z</time>
</trkpt>
<trkpt lat="30.9271867" lon="35.7130025">
<ele>575.92</ele>
<time>2015-11-22T09:30:55Z</time>
</trkpt>
<trkpt lat="30.9272310" lon="35.7129729">
<ele>577.63</ele>
<time>2015-11-22T09:31:00Z</time>
</trkpt>
<trkpt lat="30.9272090" lon="35.7130229">
<ele>577.89</ele>
<time>2015-11-22T09:37:27Z</time>
</trkpt>
<trkpt lat="30.9271697" lon="35.7130531">
<ele>575.61</ele>
<time>2015-11-22T09:37:31Z</time>
</trkpt>
<trkpt lat="30.9271205" lon="35.7130545">
<ele>573.47</ele>
<time>2015-11-22T09:37:42Z</time>
</trkpt>
<trkpt lat="30.9270743" lon="35.7130633">
<ele>576.28</ele>
<time>2015-11-22T09:38:33Z</time>
</trkpt>
<trkpt lat="30.9270204" lon="35.7130574">
<ele>577.75</ele>
<time>2015-11-22T09:38:42Z</time>
</trkpt>
<trkpt lat="30.9269661" lon="35.7130424">
<ele>578.29</ele>
<time>2015-11-22T09:38:46Z</time>
</trkpt>
<trkpt lat="30.9269133" lon="35.7130133">
<ele>579.14</ele>
<time>2015-11-22T09:38:50Z</time>
</trkpt>
<trkpt lat="30.9268666" lon="35.7129895">
<ele>579.36</ele>
<time>2015-11-22T09:38:53Z</time>
</trkpt>
<trkpt lat="30.9268151" lon="35.7129671">
<ele>580.14</ele>
<time>2015-11-22T09:38:56Z</time>
</trkpt>
<trkpt lat="30.9267604" lon="35.7129470">
<ele>579.49</ele>
<time>2015-11-22T09:38:59Z</time>
</trkpt>
<trkpt lat="30.9267021" lon="35.7129300">
<ele>580.16</ele>
<time>2015-11-22T09:39:02Z</time>
</trkpt>
<trkpt lat="30.9266412" lon="35.7129100">
<ele>579.74</ele>
<time>2015-11-22T09:39:05Z</time>
</trkpt>
<trkpt lat="30.9265786" lon="35.7128859">
<ele>579.44</ele>
<time>2015-11-22T09:39:08Z</time>
</trkpt>
<trkpt lat="30.9265301" lon="35.7128660">
<ele>579.40</ele>
<time>2015-11-22T09:39:10Z</time>
</trkpt>
<trkpt lat="30.9264747" lon="35.7128425">
<ele>579.15</ele>
<time>2015-11-22T09:39:12Z</time>
</trkpt>
<trkpt lat="30.9264150" lon="35.7128187">
<ele>580.08</ele>
<time>2015-11-22T09:39:14Z</time>
</trkpt>
<trkpt lat="30.9263524" lon="35.7127969">
<ele>580.82</ele>
<time>2015-11-22T09:39:16Z</time>
</trkpt>
<trkpt lat="30.9262894" lon="35.7127758">
<ele>581.25</ele>
<time>2015-11-22T09:39:18Z</time>
</trkpt>
<trkpt lat="30.9262265" lon="35.7127546">
<ele>581.86</ele>
<time>2015-11-22T09:39:20Z</time>
</trkpt>
<trkpt lat="30.9261633" lon="35.7127394">
<ele>582.26</ele>
<time>2015-11-22T09:39:22Z</time>
</trkpt>
<trkpt lat="30.9261007" lon="35.7127240">
<ele>582.36</ele>
<time>2015-11-22T09:39:24Z</time>
</trkpt>
<trkpt lat="30.9260410" lon="35.7127014">
<ele>583.14</ele>
<time>2015-11-22T09:39:26Z</time>
</trkpt>
<trkpt lat="30.9259839" lon="35.7126822">
<ele>583.33</ele>
<time>2015-11-22T09:39:28Z</time>
</trkpt>
<trkpt lat="30.9259298" lon="35.7126661">
<ele>583.38</ele>
<time>2015-11-22T09:39:30Z</time>
</trkpt>
<trkpt lat="30.9258790" lon="35.7126525">
<ele>582.89</ele>
<time>2015-11-22T09:39:32Z</time>
</trkpt>
<trkpt lat="30.9258283" lon="35.7126417">
<ele>582.02</ele>
<time>2015-11-22T09:39:34Z</time>
</trkpt>
<trkpt lat="30.9257769" lon="35.7126252">
<ele>582.30</ele>
<time>2015-11-22T09:39:36Z</time>
</trkpt>
<trkpt lat="30.9257244" lon="35.7126027">
<ele>582.87</ele>
<time>2015-11-22T09:39:38Z</time>
</trkpt>
<trkpt lat="30.9256661" lon="35.7125830">
<ele>583.26</ele>
<time>2015-11-22T09:39:40Z</time>
</trkpt>
<trkpt lat="30.9256032" lon="35.7125678">
<ele>584.11</ele>
<time>2015-11-22T09:39:42Z</time>
</trkpt>
<trkpt lat="30.9255377" lon="35.7125534">
<ele>584.32</ele>
<time>2015-11-22T09:39:44Z</time>
</trkpt>
<trkpt lat="30.9254712" lon="35.7125391">
<ele>584.38</ele>
<time>2015-11-22T09:39:46Z</time>
</trkpt>
<trkpt lat="30.9254051" lon="35.7125217">
<ele>585.64</ele>
<time>2015-11-22T09:39:48Z</time>
</trkpt>
<trkpt lat="30.9253365" lon="35.7125022">
<ele>585.71</ele>
<time>2015-11-22T09:39:50Z</time>
</trkpt>
<trkpt lat="30.9252673" lon="35.7124844">
<ele>585.47</ele>
<time>2015-11-22T09:39:52Z</time>
</trkpt>
<trkpt lat="30.9251983" lon="35.7124681">
<ele>584.66</ele>
<time>2015-11-22T09:39:54Z</time>
</trkpt>
<trkpt lat="30.9251273" lon="35.7124496">
<ele>585.46</ele>
<time>2015-11-22T09:39:56Z</time>
</trkpt>
<trkpt lat="30.9250552" lon="35.7124324">
<ele>586.66</ele>
<time>2015-11-22T09:39:58Z</time>
</trkpt>
<trkpt lat="30.9249844" lon="35.7124135">
<ele>587.71</ele>
<time>2015-11-22T09:40:00Z</time>
</trkpt>
<trkpt lat="30.9249125" lon="35.7123928">
<ele>587.72</ele>
<time>2015-11-22T09:40:02Z</time>
</trkpt>
<trkpt lat="30.9248418" lon="35.7123744">
<ele>587.48</ele>
<time>2015-11-22T09:40:04Z</time>
</trkpt>
<trkpt lat="30.9247715" lon="35.7123583">
<ele>587.66</ele>
<time>2015-11-22T09:40:06Z</time>
</trkpt>
<trkpt lat="30.9247024" lon="35.7123426">
<ele>588.21</ele>
<time>2015-11-22T09:40:08Z</time>
</trkpt>
<trkpt lat="30.9246321" lon="35.7123261">
<ele>588.85</ele>
<time>2015-11-22T09:40:10Z</time>
</trkpt>
<trkpt lat="30.9245620" lon="35.7123074">
<ele>589.76</ele>
<time>2015-11-22T09:40:12Z</time>
</trkpt>
<trkpt lat="30.9244898" lon="35.7122891">
<ele>589.73</ele>
<time>2015-11-22T09:40:14Z</time>
</trkpt>
<trkpt lat="30.9244178" lon="35.7122689">
<ele>589.98</ele>
<time>2015-11-22T09:40:16Z</time>
</trkpt>
<trkpt lat="30.9243463" lon="35.7122501">
<ele>589.54</ele>
<time>2015-11-22T09:40:18Z</time>
</trkpt>
<trkpt lat="30.9242742" lon="35.7122288">
<ele>589.43</ele>
<time>2015-11-22T09:40:20Z</time>
</trkpt>
<trkpt lat="30.9242035" lon="35.7122041">
<ele>589.40</ele>
<time>2015-11-22T09:40:22Z</time>
</trkpt>
<trkpt lat="30.9241314" lon="35.7121748">
<ele>589.90</ele>
<time>2015-11-22T09:40:24Z</time>
</trkpt>
<trkpt lat="30.9240591" lon="35.7121462">
<ele>589.77</ele>
<time>2015-11-22T09:40:26Z</time>
</trkpt>
<trkpt lat="30.9239892" lon="35.7121184">
<ele>588.74</ele>
<time>2015-11-22T09:40:28Z</time>
</trkpt>
<trkpt lat="30.9239191" lon="35.7120883">
<ele>588.98</ele>
<time>2015-11-22T09:40:30Z</time>
</trkpt>
<trkpt lat="30.9238447" lon="35.7120634">
<ele>589.29</ele>
<time>2015-11-22T09:40:32Z</time>
</trkpt>
<trkpt lat="30.9237712" lon="35.7120406">
<ele>589.37</ele>
<time>2015-11-22T09:40:34Z</time>
</trkpt>
<trkpt lat="30.9236983" lon="35.7120150">
<ele>589.39</ele>
<time>2015-11-22T09:40:36Z</time>
</trkpt>
<trkpt lat="30.9236286" lon="35.7119889">
<ele>590.14</ele>
<time>2015-11-22T09:40:38Z</time>
</trkpt>
<trkpt lat="30.9235633" lon="35.7119614">
<ele>590.33</ele>
<time>2015-11-22T09:40:40Z</time>
</trkpt>
<trkpt lat="30.9234984" lon="35.7119333">
<ele>591.63</ele>
<time>2015-11-22T09:40:42Z</time>
</trkpt>
<trkpt lat="30.9234358" lon="35.7119032">
<ele>591.95</ele>
<time>2015-11-22T09:40:44Z</time>
</trkpt>
<trkpt lat="30.9233768" lon="35.7118781">
<ele>592.03</ele>
<time>2015-11-22T09:40:46Z</time>
</trkpt>
<trkpt lat="30.9233201" lon="35.7118556">
<ele>592.05</ele>
<time>2015-11-22T09:40:48Z</time>
</trkpt>
<trkpt lat="30.9232633" lon="35.7118359">
<ele>593.06</ele>
<time>2015-11-22T09:40:50Z</time>
</trkpt>
<trkpt lat="30.9232085" lon="35.7118155">
<ele>594.06</ele>
<time>2015-11-22T09:40:52Z</time>
</trkpt>
<trkpt lat="30.9231566" lon="35.7117902">
<ele>594.31</ele>
<time>2015-11-22T09:40:54Z</time>
</trkpt>
<trkpt lat="30.9231106" lon="35.7117554">
<ele>594.62</ele>
<time>2015-11-22T09:40:56Z</time>
</trkpt>
<trkpt lat="30.9230649" lon="35.7117213">
<ele>594.45</ele>
<time>2015-11-22T09:40:58Z</time>
</trkpt>
<trkpt lat="30.9230187" lon="35.7116886">
<ele>594.41</ele>
<time>2015-11-22T09:41:00Z</time>
</trkpt>
<trkpt lat="30.9229747" lon="35.7116516">
<ele>595.15</ele>
<time>2015-11-22T09:41:02Z</time>
</trkpt>
<trkpt lat="30.9229303" lon="35.7116168">
<ele>595.83</ele>
<time>2015-11-22T09:41:04Z</time>
</trkpt>
<trkpt lat="30.9228820" lon="35.7115859">
<ele>596.25</ele>
<time>2015-11-22T09:41:06Z</time>
</trkpt>
<trkpt lat="30.9228321" lon="35.7115550">
<ele>597.61</ele>
<time>2015-11-22T09:41:08Z</time>
</trkpt>
<trkpt lat="30.9227804" lon="35.7115284">
<ele>598.95</ele>
<time>2015-11-22T09:41:10Z</time>
</trkpt>
<trkpt lat="30.9227290" lon="35.7115025">
<ele>600.78</ele>
<time>2015-11-22T09:41:12Z</time>
</trkpt>
<trkpt lat="30.9226790" lon="35.7114742">
<ele>601.99</ele>
<time>2015-11-22T09:41:14Z</time>
</trkpt>
<trkpt lat="30.9226339" lon="35.7114408">
<ele>602.29</ele>
<time>2015-11-22T09:41:16Z</time>
</trkpt>
<trkpt lat="30.9225912" lon="35.7114068">
<ele>602.87</ele>
<time>2015-11-22T09:41:18Z</time>
</trkpt>
<trkpt lat="30.9225483" lon="35.7113716">
<ele>604.01</ele>
<time>2015-11-22T09:41:20Z</time>
</trkpt>
<trkpt lat="30.9225039" lon="35.7113352">
<ele>604.30</ele>
<time>2015-11-22T09:41:22Z</time>
</trkpt>
<trkpt lat="30.9224575" lon="35.7113004">
<ele>605.12</ele>
<time>2015-11-22T09:41:24Z</time>
</trkpt>
<trkpt lat="30.9224123" lon="35.7112675">
<ele>606.08</ele>
<time>2015-11-22T09:41:26Z</time>
</trkpt>
<trkpt lat="30.9223672" lon="35.7112324">
<ele>606.81</ele>
<time>2015-11-22T09:41:28Z</time>
</trkpt>
<trkpt lat="30.9223234" lon="35.7111987">
<ele>607.25</ele>
<time>2015-11-22T09:41:30Z</time>
</trkpt>
<trkpt lat="30.9222779" lon="35.7111667">
<ele>606.11</ele>
<time>2015-11-22T09:41:32Z</time>
</trkpt>
<trkpt lat="30.9222328" lon="35.7111333">
<ele>605.57</ele>
<time>2015-11-22T09:41:34Z</time>
</trkpt>
<trkpt lat="30.9221870" lon="35.7110976">
<ele>604.94</ele>
<time>2015-11-22T09:41:36Z</time>
</trkpt>
<trkpt lat="30.9221438" lon="35.7110617">
<ele>604.53</ele>
<time>2015-11-22T09:41:38Z</time>
</trkpt>
<trkpt lat="30.9221022" lon="35.7110246">
<ele>603.18</ele>
<time>2015-11-22T09:41:40Z</time>
</trkpt>
<trkpt lat="30.9220564" lon="35.7109949">
<ele>603.09</ele>
<time>2015-11-22T09:41:42Z</time>
</trkpt>
<trkpt lat="30.9220089" lon="35.7109636">
<ele>603.32</ele>
<time>2015-11-22T09:41:44Z</time>
</trkpt>
<trkpt lat="30.9219629" lon="35.7109283">
<ele>603.38</ele>
<time>2015-11-22T09:41:46Z</time>
</trkpt>
<trkpt lat="30.9219179" lon="35.7108936">
<ele>603.39</ele>
<time>2015-11-22T09:41:48Z</time>
</trkpt>
<trkpt lat="30.9218710" lon="35.7108617">
<ele>603.39</ele>
<time>2015-11-22T09:41:50Z</time>
</trkpt>
<trkpt lat="30.9218240" lon="35.7108294">
<ele>603.39</ele>
<time>2015-11-22T09:41:52Z</time>
</trkpt>
<trkpt lat="30.9217780" lon="35.7107912">
<ele>602.89</ele>
<time>2015-11-22T09:41:54Z</time>
</trkpt>
<trkpt lat="30.9217302" lon="35.7107532">
<ele>603.02</ele>
<time>2015-11-22T09:41:56Z</time>
</trkpt>
<trkpt lat="30.9216801" lon="35.7107177">
<ele>603.30</ele>
<time>2015-11-22T09:41:58Z</time>
</trkpt>
<trkpt lat="30.9216309" lon="35.7106793">
<ele>603.62</ele>
<time>2015-11-22T09:42:00Z</time>
</trkpt>
<trkpt lat="30.9215810" lon="35.7106431">
<ele>603.45</ele>
<time>2015-11-22T09:42:02Z</time>
</trkpt>
<trkpt lat="30.9215308" lon="35.7106095">
<ele>604.16</ele>
<time>2015-11-22T09:42:04Z</time>
</trkpt>
<trkpt lat="30.9214823" lon="35.7105773">
<ele>604.84</ele>
<time>2015-11-22T09:42:06Z</time>
</trkpt>
<trkpt lat="30.9214340" lon="35.7105446">
<ele>604.75</ele>
<time>2015-11-22T09:42:08Z</time>
</trkpt>
<trkpt lat="30.9213842" lon="35.7105103">
<ele>604.48</ele>
<time>2015-11-22T09:42:10Z</time>
</trkpt>
<trkpt lat="30.9213343" lon="35.7104760">
<ele>604.42</ele>
<time>2015-11-22T09:42:12Z</time>
</trkpt>
<trkpt lat="30.9212831" lon="35.7104416">
<ele>605.65</ele>
<time>2015-11-22T09:42:14Z</time>
</trkpt>
<trkpt lat="30.9212325" lon="35.7104074">
<ele>606.21</ele>
<time>2015-11-22T09:42:16Z</time>
</trkpt>
<trkpt lat="30.9211830" lon="35.7103719">
<ele>607.35</ele>
<time>2015-11-22T09:42:18Z</time>
</trkpt>
<trkpt lat="30.9211317" lon="35.7103357">
<ele>608.88</ele>
<time>2015-11-22T09:42:20Z</time>
</trkpt>
<trkpt lat="30.9210846" lon="35.7102997">
<ele>608.77</ele>
<time>2015-11-22T09:42:22Z</time>
</trkpt>
<trkpt lat="30.9210380" lon="35.7102635">
<ele>609.24</ele>
<time>2015-11-22T09:42:24Z</time>
</trkpt>
<trkpt lat="30.9209935" lon="35.7102239">
<ele>609.10</ele>
<time>2015-11-22T09:42:26Z</time>
</trkpt>
<trkpt lat="30.9209477" lon="35.7101858">
<ele>609.07</ele>
<time>2015-11-22T09:42:28Z</time>
</trkpt>
<trkpt lat="30.9209017" lon="35.7101470">
<ele>609.06</ele>
<time>2015-11-22T09:42:30Z</time>
</trkpt>
<trkpt lat="30.9208538" lon="35.7101047">
<ele>609.81</ele>
<time>2015-11-22T09:42:32Z</time>
</trkpt>
<trkpt lat="30.9208034" lon="35.7100638">
<ele>611.50</ele>
<time>2015-11-22T09:42:34Z</time>
</trkpt>
<trkpt lat="30.9207478" lon="35.7100303">
<ele>612.92</ele>
<time>2015-11-22T09:42:36Z</time>
</trkpt>
<trkpt lat="30.9206948" lon="35.7099940">
<ele>613.28</ele>
<time>2015-11-22T09:42:38Z</time>
</trkpt>
<trkpt lat="30.9206438" lon="35.7099549">
<ele>613.86</ele>
<time>2015-11-22T09:42:40Z</time>
</trkpt>
<trkpt lat="30.9205943" lon="35.7099187">
<ele>615.01</ele>
<time>2015-11-22T09:42:42Z</time>
</trkpt>
<trkpt lat="30.9205450" lon="35.7098822">
<ele>615.30</ele>
<time>2015-11-22T09:42:44Z</time>
</trkpt>
<trkpt lat="30.9204987" lon="35.7098445">
<ele>615.87</ele>
<time>2015-11-22T09:42:46Z</time>
</trkpt>
<trkpt lat="30.9204540" lon="35.7098026">
<ele>616.26</ele>
<time>2015-11-22T09:42:48Z</time>
</trkpt>
<trkpt lat="30.9204101" lon="35.7097585">
<ele>616.36</ele>
<time>2015-11-22T09:42:50Z</time>
</trkpt>
<trkpt lat="30.9203679" lon="35.7097101">
<ele>615.89</ele>
<time>2015-11-22T09:42:52Z</time>
</trkpt>
<trkpt lat="30.9203246" lon="35.7096641">
<ele>616.27</ele>
<time>2015-11-22T09:42:54Z</time>
</trkpt>
<trkpt lat="30.9202806" lon="35.7096175">
<ele>616.36</ele>
<time>2015-11-22T09:42:56Z</time>
</trkpt>
<trkpt lat="30.9202391" lon="35.7095746">
<ele>616.39</ele>
<time>2015-11-22T09:42:58Z</time>
</trkpt>
<trkpt lat="30.9201966" lon="35.7095225">
<ele>615.64</ele>
<time>2015-11-22T09:43:01Z</time>
</trkpt>
<trkpt lat="30.9201674" lon="35.7094757">
<ele>614.93</ele>
<time>2015-11-22T09:43:04Z</time>
</trkpt>
<trkpt lat="30.9201286" lon="35.7094276">
<ele>614.46</ele>
<time>2015-11-22T09:43:07Z</time>
</trkpt>
<trkpt lat="30.9200877" lon="35.7093796">
<ele>617.86</ele>
<time>2015-11-22T09:43:39Z</time>
</trkpt>
<trkpt lat="30.9200353" lon="35.7093379">
<ele>618.08</ele>
<time>2015-11-22T09:43:42Z</time>
</trkpt>
<trkpt lat="30.9199896" lon="35.7092975">
<ele>618.31</ele>
<time>2015-11-22T09:43:44Z</time>
</trkpt>
<trkpt lat="30.9199428" lon="35.7092531">
<ele>618.12</ele>
<time>2015-11-22T09:43:46Z</time>
</trkpt>
<trkpt lat="30.9198984" lon="35.7092042">
<ele>617.83</ele>
<time>2015-11-22T09:43:48Z</time>
</trkpt>
<trkpt lat="30.9198538" lon="35.7091541">
<ele>617.50</ele>
<time>2015-11-22T09:43:50Z</time>
</trkpt>
<trkpt lat="30.9198084" lon="35.7090998">
<ele>617.92</ele>
<time>2015-11-22T09:43:52Z</time>
</trkpt>
<trkpt lat="30.9197611" lon="35.7090411">
<ele>618.28</ele>
<time>2015-11-22T09:43:54Z</time>
</trkpt>
<trkpt lat="30.9197105" lon="35.7089840">
<ele>618.86</ele>
<time>2015-11-22T09:43:56Z</time>
</trkpt>
<trkpt lat="30.9196587" lon="35.7089229">
<ele>619.76</ele>
<time>2015-11-22T09:43:58Z</time>
</trkpt>
<trkpt lat="30.9196081" lon="35.7088612">
<ele>620.49</ele>
<time>2015-11-22T09:44:00Z</time>
</trkpt>
<trkpt lat="30.9195589" lon="35.7087978">
<ele>620.42</ele>
<time>2015-11-22T09:44:02Z</time>
</trkpt>
<trkpt lat="30.9195113" lon="35.7087334">
<ele>620.40</ele>
<time>2015-11-22T09:44:04Z</time>
</trkpt>
<trkpt lat="30.9194634" lon="35.7086715">
<ele>620.40</ele>
<time>2015-11-22T09:44:06Z</time>
</trkpt>
<trkpt lat="30.9194147" lon="35.7086116">
<ele>620.39</ele>
<time>2015-11-22T09:44:08Z</time>
</trkpt>
<trkpt lat="30.9193698" lon="35.7085474">
<ele>620.39</ele>
<time>2015-11-22T09:44:10Z</time>
</trkpt>
<trkpt lat="30.9193283" lon="35.7084792">
<ele>620.39</ele>
<time>2015-11-22T09:44:12Z</time>
</trkpt>
<trkpt lat="30.9192864" lon="35.7084110">
<ele>620.39</ele>
<time>2015-11-22T09:44:14Z</time>
</trkpt>
<trkpt lat="30.9192413" lon="35.7083445">
<ele>619.89</ele>
<time>2015-11-22T09:44:16Z</time>
</trkpt>
<trkpt lat="30.9191978" lon="35.7082860">
<ele>619.02</ele>
<time>2015-11-22T09:44:18Z</time>
</trkpt>
<trkpt lat="30.9191593" lon="35.7082339">
<ele>619.30</ele>
<time>2015-11-22T09:44:20Z</time>
</trkpt>
<trkpt lat="30.9191210" lon="35.7081890">
<ele>619.87</ele>
<time>2015-11-22T09:44:22Z</time>
</trkpt>
<trkpt lat="30.9190864" lon="35.7081427">
<ele>619.76</ele>
<time>2015-11-22T09:44:24Z</time>
</trkpt>
<trkpt lat="30.9190490" lon="35.7080882">
<ele>619.49</ele>
<time>2015-11-22T09:44:26Z</time>
</trkpt>
<trkpt lat="30.9190054" lon="35.7080356">
<ele>620.17</ele>
<time>2015-11-22T09:44:28Z</time>
</trkpt>
<trkpt lat="30.9189619" lon="35.7079796">
<ele>619.84</ele>
<time>2015-11-22T09:44:30Z</time>
</trkpt>
<trkpt lat="30.9189154" lon="35.7079152">
<ele>618.75</ele>
<time>2015-11-22T09:44:32Z</time>
</trkpt>
<trkpt lat="30.9188682" lon="35.7078556">
<ele>618.48</ele>
<time>2015-11-22T09:44:34Z</time>
</trkpt>
<trkpt lat="30.9188198" lon="35.7078008">
<ele>618.67</ele>
<time>2015-11-22T09:44:36Z</time>
</trkpt>
<trkpt lat="30.9187741" lon="35.7077464">
<ele>618.96</ele>
<time>2015-11-22T09:44:38Z</time>
</trkpt>
<trkpt lat="30.9187267" lon="35.7076942">
<ele>619.54</ele>
<time>2015-11-22T09:44:40Z</time>
</trkpt>
<trkpt lat="30.9186856" lon="35.7076383">
<ele>617.93</ele>
<time>2015-11-22T09:44:42Z</time>
</trkpt>
<trkpt lat="30.9186410" lon="35.7075880">
<ele>594.78</ele>
<time>2015-11-22T09:44:44Z</time>
</trkpt>
<trkpt lat="30.9185939" lon="35.7075438">
<ele>589.49</ele>
<time>2015-11-22T09:44:46Z</time>
</trkpt>
<trkpt lat="30.9185497" lon="35.7075012">
<ele>587.92</ele>
<time>2015-11-22T09:44:48Z</time>
</trkpt>
<trkpt lat="30.9185095" lon="35.7074678">
<ele>588.28</ele>
<time>2015-11-22T09:44:50Z</time>
</trkpt>
<trkpt lat="30.9184616" lon="35.7074291">
<ele>587.26</ele>
<time>2015-11-22T09:44:54Z</time>
</trkpt>
<trkpt lat="30.9184132" lon="35.7073969">
<ele>586.88</ele>
<time>2015-11-22T09:44:57Z</time>
</trkpt>
<trkpt lat="30.9183571" lon="35.7073596">
<ele>589.58</ele>
<time>2015-11-22T09:45:00Z</time>
</trkpt>
<trkpt lat="30.9183212" lon="35.7073260">
<ele>589.19</ele>
<time>2015-11-22T09:45:02Z</time>
</trkpt>
<trkpt lat="30.9182867" lon="35.7072894">
<ele>589.84</ele>
<time>2015-11-22T09:45:04Z</time>
</trkpt>
<trkpt lat="30.9182514" lon="35.7072514">
<ele>593.01</ele>
<time>2015-11-22T09:45:06Z</time>
</trkpt>
<trkpt lat="30.9182144" lon="35.7072141">
<ele>594.80</ele>
<time>2015-11-22T09:45:08Z</time>
</trkpt>
<trkpt lat="30.9181800" lon="35.7071747">
<ele>595.49</ele>
<time>2015-11-22T09:45:10Z</time>
</trkpt>
<trkpt lat="30.9181408" lon="35.7071353">
<ele>598.67</ele>
<time>2015-11-22T09:45:12Z</time>
</trkpt>
<trkpt lat="30.9181020" lon="35.7070961">
<ele>600.46</ele>
<time>2015-11-22T09:45:14Z</time>
</trkpt>
<trkpt lat="30.9180648" lon="35.7070566">
<ele>601.66</ele>
<time>2015-11-22T09:45:16Z</time>
</trkpt>
<trkpt lat="30.9180283" lon="35.7070155">
<ele>602.21</ele>
<time>2015-11-22T09:45:18Z</time>
</trkpt>
<trkpt lat="30.9179873" lon="35.7069800">
<ele>603.10</ele>
<time>2015-11-22T09:45:20Z</time>
</trkpt>
<trkpt lat="30.9179442" lon="35.7069495">
<ele>601.57</ele>
<time>2015-11-22T09:45:22Z</time>
</trkpt>
<trkpt lat="30.9179055" lon="35.7069172">
<ele>600.94</ele>
<time>2015-11-22T09:45:24Z</time>
</trkpt>
<trkpt lat="30.9178643" lon="35.7068856">
<ele>602.03</ele>
<time>2015-11-22T09:45:26Z</time>
</trkpt>
<trkpt lat="30.9178206" lon="35.7068563">
<ele>601.80</ele>
<time>2015-11-22T09:45:28Z</time>
</trkpt>
<trkpt lat="30.9177782" lon="35.7068219">
<ele>601.00</ele>
<time>2015-11-22T09:45:30Z</time>
</trkpt>
<trkpt lat="30.9177376" lon="35.7067836">
<ele>599.79</ele>
<time>2015-11-22T09:45:32Z</time>
</trkpt>
<trkpt lat="30.9176840" lon="35.7067420">
<ele>598.19</ele>
<time>2015-11-22T09:45:35Z</time>
</trkpt>
<trkpt lat="30.9176478" lon="35.7067070">
<ele>601.62</ele>
<time>2015-11-22T09:45:38Z</time>
</trkpt>
<trkpt lat="30.9176109" lon="35.7066760">
<ele>602.55</ele>
<time>2015-11-22T09:45:41Z</time>
</trkpt>
<trkpt lat="30.9175746" lon="35.7066310">
<ele>601.79</ele>
<time>2015-11-22T09:45:44Z</time>
</trkpt>
<trkpt lat="30.9175328" lon="35.7065898">
<ele>597.94</ele>
<time>2015-11-22T09:45:47Z</time>
</trkpt>
<trkpt lat="30.9174847" lon="35.7065549">
<ele>593.84</ele>
<time>2015-11-22T09:45:50Z</time>
</trkpt>
<trkpt lat="30.9174457" lon="35.7065049">
<ele>593.70</ele>
<time>2015-11-22T09:45:53Z</time>
</trkpt>
<trkpt lat="30.9174037" lon="35.7064590">
<ele>596.18</ele>
<time>2015-11-22T09:45:56Z</time>
</trkpt>
<trkpt lat="30.9173601" lon="35.7064091">
<ele>595.62</ele>
<time>2015-11-22T09:45:59Z</time>
</trkpt>
<trkpt lat="30.9173092" lon="35.7063746">
<ele>594.80</ele>
<time>2015-11-22T09:46:02Z</time>
</trkpt>
<trkpt lat="30.9172634" lon="35.7063343">
<ele>593.57</ele>
<time>2015-11-22T09:46:05Z</time>
</trkpt>
<trkpt lat="30.9172213" lon="35.7062852">
<ele>596.92</ele>
<time>2015-11-22T09:46:08Z</time>
</trkpt>
<trkpt lat="30.9171731" lon="35.7062405">
<ele>597.08</ele>
<time>2015-11-22T09:46:11Z</time>
</trkpt>
<trkpt lat="30.9171186" lon="35.7062059">
<ele>589.98</ele>
<time>2015-11-22T09:46:14Z</time>
</trkpt>
<trkpt lat="30.9170674" lon="35.7061604">
<ele>590.97</ele>
<time>2015-11-22T09:46:17Z</time>
</trkpt>
<trkpt lat="30.9170133" lon="35.7061202">
<ele>592.84</ele>
<time>2015-11-22T09:46:20Z</time>
</trkpt>
<trkpt lat="30.9169654" lon="35.7060710">
<ele>593.07</ele>
<time>2015-11-22T09:46:23Z</time>
</trkpt>
<trkpt lat="30.9169181" lon="35.7060241">
<ele>591.35</ele>
<time>2015-11-22T09:46:26Z</time>
</trkpt>
<trkpt lat="30.9168706" lon="35.7059865">
<ele>592.89</ele>
<time>2015-11-22T09:46:29Z</time>
</trkpt>
<trkpt lat="30.9168253" lon="35.7059418">
<ele>594.71</ele>
<time>2015-11-22T09:46:32Z</time>
</trkpt>
<trkpt lat="30.9167697" lon="35.7059071">
<ele>596.18</ele>
<time>2015-11-22T09:46:35Z</time>
</trkpt>
<trkpt lat="30.9167288" lon="35.7058821">
<ele>596.59</ele>
<time>2015-11-22T09:46:37Z</time>
</trkpt>
<trkpt lat="30.9166901" lon="35.7058547">
<ele>596.94</ele>
<time>2015-11-22T09:46:39Z</time>
</trkpt>
<trkpt lat="30.9166296" lon="35.7058239">
<ele>594.21</ele>
<time>2015-11-22T09:46:42Z</time>
</trkpt>
<trkpt lat="30.9165708" lon="35.7057983">
<ele>595.50</ele>
<time>2015-11-22T09:46:45Z</time>
</trkpt>
<trkpt lat="30.9165069" lon="35.7057755">
<ele>595.28</ele>
<time>2015-11-22T09:46:48Z</time>
</trkpt>
<trkpt lat="30.9164623" lon="35.7057605">
<ele>595.62</ele>
<time>2015-11-22T09:46:50Z</time>
</trkpt>
<trkpt lat="30.9164037" lon="35.7057350">
<ele>596.17</ele>
<time>2015-11-22T09:46:53Z</time>
</trkpt>
<trkpt lat="30.9163509" lon="35.7057204">
<ele>595.24</ele>
<time>2015-11-22T09:46:56Z</time>
</trkpt>
<trkpt lat="30.9162993" lon="35.7057022">
<ele>595.37</ele>
<time>2015-11-22T09:46:59Z</time>
</trkpt>
<trkpt lat="30.9162483" lon="35.7056891">
<ele>594.52</ele>
<time>2015-11-22T09:47:02Z</time>
</trkpt>
<trkpt lat="30.9161951" lon="35.7056744">
<ele>598.78</ele>
<time>2015-11-22T09:47:05Z</time>
</trkpt>
<trkpt lat="30.9161438" lon="35.7056586">
<ele>601.44</ele>
<time>2015-11-22T09:47:08Z</time>
</trkpt>
<trkpt lat="30.9160925" lon="35.7056396">
<ele>608.65</ele>
<time>2015-11-22T09:47:11Z</time>
</trkpt>
<trkpt lat="30.9160418" lon="35.7056250">
<ele>609.05</ele>
<time>2015-11-22T09:47:14Z</time>
</trkpt>
<trkpt lat="30.9159875" lon="35.7056154">
<ele>607.23</ele>
<time>2015-11-22T09:47:17Z</time>
</trkpt>
<trkpt lat="30.9159284" lon="35.7056057">
<ele>615.00</ele>
<time>2015-11-22T09:47:20Z</time>
</trkpt>
<trkpt lat="30.9158681" lon="35.7055950">
<ele>615.59</ele>
<time>2015-11-22T09:47:23Z</time>
</trkpt>
<trkpt lat="30.9158089" lon="35.7055905">
<ele>618.04</ele>
<time>2015-11-22T09:47:26Z</time>
</trkpt>
<trkpt lat="30.9157493" lon="35.7055836">
<ele>621.10</ele>
<time>2015-11-22T09:47:29Z</time>
</trkpt>
<trkpt lat="30.9156924" lon="35.7055750">
<ele>622.61</ele>
<time>2015-11-22T09:47:32Z</time>
</trkpt>
<trkpt lat="30.9156408" lon="35.7055633">
<ele>622.92</ele>
<time>2015-11-22T09:47:35Z</time>
</trkpt>
<trkpt lat="30.9155914" lon="35.7055592">
<ele>624.08</ele>
<time>2015-11-22T09:47:38Z</time>
</trkpt>
<trkpt lat="30.9155369" lon="35.7055447">
<ele>622.36</ele>
<time>2015-11-22T09:47:41Z</time>
</trkpt>
<trkpt lat="30.9154776" lon="35.7055340">
<ele>623.26</ele>
<time>2015-11-22T09:47:44Z</time>
</trkpt>
<trkpt lat="30.9154116" lon="35.7055289">
<ele>624.63</ele>
<time>2015-11-22T09:47:47Z</time>
</trkpt>
<trkpt lat="30.9153476" lon="35.7055221">
<ele>624.30</ele>
<time>2015-11-22T09:47:50Z</time>
</trkpt>
<trkpt lat="30.9153052" lon="35.7054923">
<ele>628.91</ele>
<time>2015-11-22T09:49:06Z</time>
</trkpt>
<trkpt lat="30.9152602" lon="35.7054975">
<ele>648.27</ele>
<time>2015-11-22T09:53:49Z</time>
</trkpt>
<trkpt lat="30.9152146" lon="35.7054964">
<ele>648.38</ele>
<time>2015-11-22T09:53:52Z</time>
</trkpt>
<trkpt lat="30.9151519" lon="35.7054822">
<ele>647.64</ele>
<time>2015-11-22T09:53:55Z</time>
</trkpt>
<trkpt lat="30.9151029" lon="35.7054730">
<ele>647.21</ele>
<time>2015-11-22T09:53:57Z</time>
</trkpt>
<trkpt lat="30.9150475" lon="35.7054647">
<ele>631.35</ele>
<time>2015-11-22T09:53:59Z</time>
</trkpt>
<trkpt lat="30.9149852" lon="35.7054534">
<ele>625.88</ele>
<time>2015-11-22T09:54:01Z</time>
</trkpt>
<trkpt lat="30.9149288" lon="35.7054400">
<ele>623.77</ele>
<time>2015-11-22T09:54:03Z</time>
</trkpt>
<trkpt lat="30.9148765" lon="35.7054254">
<ele>622.99</ele>
<time>2015-11-22T09:54:05Z</time>
</trkpt>
<trkpt lat="30.9148188" lon="35.7054110">
<ele>622.79</ele>
<time>2015-11-22T09:54:07Z</time>
</trkpt>
<trkpt lat="30.9147639" lon="35.7053995">
<ele>623.24</ele>
<time>2015-11-22T09:54:09Z</time>
</trkpt>
<trkpt lat="30.9147086" lon="35.7053877">
<ele>623.11</ele>
<time>2015-11-22T09:54:11Z</time>
</trkpt>
<trkpt lat="30.9146543" lon="35.7053709">
<ele>624.57</ele>
<time>2015-11-22T09:54:13Z</time>
</trkpt>
<trkpt lat="30.9146009" lon="35.7053462">
<ele>625.69</ele>
<time>2015-11-22T09:54:15Z</time>
</trkpt>
<trkpt lat="30.9145493" lon="35.7053193">
<ele>626.72</ele>
<time>2015-11-22T09:54:17Z</time>
</trkpt>
<trkpt lat="30.9144980" lon="35.7052940">
<ele>625.97</ele>
<time>2015-11-22T09:54:19Z</time>
</trkpt>
<trkpt lat="30.9144462" lon="35.7052699">
<ele>626.79</ele>
<time>2015-11-22T09:54:21Z</time>
</trkpt>
<trkpt lat="30.9143964" lon="35.7052476">
<ele>625.24</ele>
<time>2015-11-22T09:54:23Z</time>
</trkpt>
<trkpt lat="30.9143518" lon="35.7052143">
<ele>625.11</ele>
<time>2015-11-22T09:54:25Z</time>
</trkpt>
<trkpt lat="30.9143084" lon="35.7051758">
<ele>625.82</ele>
<time>2015-11-22T09:54:27Z</time>
</trkpt>
<trkpt lat="30.9142670" lon="35.7051350">
<ele>625.25</ele>
<time>2015-11-22T09:54:29Z</time>
</trkpt>
<trkpt lat="30.9142247" lon="35.7050949">
<ele>626.86</ele>
<time>2015-11-22T09:54:31Z</time>
</trkpt>
<trkpt lat="30.9141830" lon="35.7050502">
<ele>627.26</ele>
<time>2015-11-22T09:54:33Z</time>
</trkpt>
<trkpt lat="30.9141436" lon="35.7050058">
<ele>627.86</ele>
<time>2015-11-22T09:54:35Z</time>
</trkpt>
<trkpt lat="30.9141067" lon="35.7049614">
<ele>626.01</ele>
<time>2015-11-22T09:54:37Z</time>
</trkpt>
<trkpt lat="30.9140706" lon="35.7049150">
<ele>622.55</ele>
<time>2015-11-22T09:54:39Z</time>
</trkpt>
<trkpt lat="30.9140361" lon="35.7048636">
<ele>621.93</ele>
<time>2015-11-22T09:54:41Z</time>
</trkpt>
<trkpt lat="30.9140046" lon="35.7048076">
<ele>622.78</ele>
<time>2015-11-22T09:54:43Z</time>
</trkpt>
<trkpt lat="30.9139722" lon="35.7047518">
<ele>623.74</ele>
<time>2015-11-22T09:54:45Z</time>
</trkpt>
<trkpt lat="30.9139368" lon="35.7046938">
<ele>623.73</ele>
<time>2015-11-22T09:54:47Z</time>
</trkpt>
<trkpt lat="30.9139084" lon="35.7046312">
<ele>623.98</ele>
<time>2015-11-22T09:54:49Z</time>
</trkpt>
<trkpt lat="30.9138797" lon="35.7045679">
<ele>623.54</ele>
<time>2015-11-22T09:54:51Z</time>
</trkpt>
<trkpt lat="30.9138479" lon="35.7045054">
<ele>625.18</ele>
<time>2015-11-22T09:54:53Z</time>
</trkpt>
<trkpt lat="30.9138199" lon="35.7044407">
<ele>626.09</ele>
<time>2015-11-22T09:54:55Z</time>
</trkpt>
<trkpt lat="30.9137896" lon="35.7043768">
<ele>625.32</ele>
<time>2015-11-22T09:54:57Z</time>
</trkpt>
<trkpt lat="30.9137538" lon="35.7043180">
<ele>624.13</ele>
<time>2015-11-22T09:54:59Z</time>
</trkpt>
<trkpt lat="30.9137131" lon="35.7042641">
<ele>623.33</ele>
<time>2015-11-22T09:55:01Z</time>
</trkpt>
<trkpt lat="30.9136721" lon="35.7042086">
<ele>623.88</ele>
<time>2015-11-22T09:55:03Z</time>
</trkpt>
<trkpt lat="30.9136254" lon="35.7041585">
<ele>624.51</ele>
<time>2015-11-22T09:55:05Z</time>
</trkpt>
<trkpt lat="30.9135765" lon="35.7041118">
<ele>624.67</ele>
<time>2015-11-22T09:55:07Z</time>
</trkpt>
<trkpt lat="30.9135245" lon="35.7040684">
<ele>624.21</ele>
<time>2015-11-22T09:55:09Z</time>
</trkpt>
<trkpt lat="30.9134694" lon="35.7040283">
<ele>624.35</ele>
<time>2015-11-22T09:55:11Z</time>
</trkpt>
<trkpt lat="30.9134150" lon="35.7039911">
<ele>624.38</ele>
<time>2015-11-22T09:55:13Z</time>
</trkpt>
<trkpt lat="30.9133631" lon="35.7039590">
<ele>624.39</ele>
<time>2015-11-22T09:55:15Z</time>
</trkpt>
<trkpt lat="30.9133132" lon="35.7039319">
<ele>624.14</ele>
<time>2015-11-22T09:55:17Z</time>
</trkpt>
<trkpt lat="30.9132613" lon="35.7039126">
<ele>624.58</ele>
<time>2015-11-22T09:55:19Z</time>
</trkpt>
<trkpt lat="30.9132151" lon="35.7038878">
<ele>626.19</ele>
<time>2015-11-22T09:55:21Z</time>
</trkpt>
<trkpt lat="30.9131534" lon="35.7038598">
<ele>626.74</ele>
<time>2015-11-22T09:55:24Z</time>
</trkpt>
<trkpt lat="30.9130902" lon="35.7038515">
<ele>626.19</ele>
<time>2015-11-22T09:55:27Z</time>
</trkpt>
<trkpt lat="30.9130361" lon="35.7038387">
<ele>642.87</ele>
<time>2015-11-22T09:55:30Z</time>
</trkpt>
<trkpt lat="30.9129825" lon="35.7038264">
<ele>654.83</ele>
<time>2015-11-22T09:55:33Z</time>
</trkpt>
<trkpt lat="30.9129365" lon="35.7038176">
<ele>659.20</ele>
<time>2015-11-22T09:55:36Z</time>
</trkpt>
<trkpt lat="30.9128777" lon="35.7038031">
<ele>661.94</ele>
<time>2015-11-22T09:55:40Z</time>
</trkpt>
<trkpt lat="30.9128307" lon="35.7037980">
<ele>663.09</ele>
<time>2015-11-22T09:55:43Z</time>
</trkpt>
<trkpt lat="30.9127815" lon="35.7037970">
<ele>664.23</ele>
<time>2015-11-22T09:55:46Z</time>
</trkpt>
<trkpt lat="30.9127301" lon="35.7037928">
<ele>664.12</ele>
<time>2015-11-22T09:55:49Z</time>
</trkpt>
<trkpt lat="30.9126811" lon="35.7037872">
<ele>663.49</ele>
<time>2015-11-22T09:55:52Z</time>
</trkpt>
<trkpt lat="30.9126331" lon="35.7037838">
<ele>663.53</ele>
<time>2015-11-22T09:55:55Z</time>
</trkpt>
<trkpt lat="30.9125869" lon="35.7037839">
<ele>663.41</ele>
<time>2015-11-22T09:55:58Z</time>
</trkpt>
<trkpt lat="30.9125408" lon="35.7037833">
<ele>663.40</ele>
<time>2015-11-22T09:56:01Z</time>
</trkpt>
<trkpt lat="30.9124824" lon="35.7037783">
<ele>663.39</ele>
<time>2015-11-22T09:56:05Z</time>
</trkpt>
<trkpt lat="30.9124294" lon="35.7037691">
<ele>664.27</ele>
<time>2015-11-22T09:56:09Z</time>
</trkpt>
<trkpt lat="30.9123784" lon="35.7037587">
<ele>664.89</ele>
<time>2015-11-22T09:56:13Z</time>
</trkpt>
<trkpt lat="30.9123252" lon="35.7037478">
<ele>666.24</ele>
<time>2015-11-22T09:56:17Z</time>
</trkpt>
<trkpt lat="30.9122756" lon="35.7037443">
<ele>666.62</ele>
<time>2015-11-22T09:56:20Z</time>
</trkpt>
<trkpt lat="30.9122220" lon="35.7037371">
<ele>666.30</ele>
<time>2015-11-22T09:56:23Z</time>
</trkpt>
<trkpt lat="30.9121766" lon="35.7037248">
<ele>668.38</ele>
<time>2015-11-22T09:56:26Z</time>
</trkpt>
<trkpt lat="30.9121295" lon="35.7037119">
<ele>671.64</ele>
<time>2015-11-22T09:56:30Z</time>
</trkpt>
<trkpt lat="30.9120780" lon="35.7037004">
<ele>671.41</ele>
<time>2015-11-22T09:56:34Z</time>
</trkpt>
<trkpt lat="30.9120206" lon="35.7036796">
<ele>671.58</ele>
<time>2015-11-22T09:56:38Z</time>
</trkpt>
<trkpt lat="30.9119746" lon="35.7036642">
<ele>672.79</ele>
<time>2015-11-22T09:56:41Z</time>
</trkpt>
<trkpt lat="30.9119281" lon="35.7036472">
<ele>673.32</ele>
<time>2015-11-22T09:56:44Z</time>
</trkpt>
<trkpt lat="30.9118736" lon="35.7036197">
<ele>675.14</ele>
<time>2015-11-22T09:56:48Z</time>
</trkpt>
<trkpt lat="30.9118304" lon="35.7035980">
<ele>676.24</ele>
<time>2015-11-22T09:56:51Z</time>
</trkpt>
<trkpt lat="30.9117812" lon="35.7035852">
<ele>676.25</ele>
<time>2015-11-22T09:56:54Z</time>
</trkpt>
<trkpt lat="30.9117378" lon="35.7035587">
<ele>676.13</ele>
<time>2015-11-22T09:56:57Z</time>
</trkpt>
<trkpt lat="30.9116986" lon="35.7035329">
<ele>677.49</ele>
<time>2015-11-22T09:57:00Z</time>
</trkpt>
<trkpt lat="30.9116503" lon="35.7035079">
<ele>677.53</ele>
<time>2015-11-22T09:57:03Z</time>
</trkpt>
<trkpt lat="30.9116050" lon="35.7034797">
<ele>679.04</ele>
<time>2015-11-22T09:57:06Z</time>
</trkpt>
<trkpt lat="30.9115636" lon="35.7034452">
<ele>672.97</ele>
<time>2015-11-22T09:57:09Z</time>
</trkpt>
<trkpt lat="30.9115239" lon="35.7034162">
<ele>668.97</ele>
<time>2015-11-22T09:57:12Z</time>
</trkpt>
<trkpt lat="30.9114836" lon="35.7033681">
<ele>669.99</ele>
<time>2015-11-22T09:57:16Z</time>
</trkpt>
<trkpt lat="30.9114404" lon="35.7033204">
<ele>669.74</ele>
<time>2015-11-22T09:57:20Z</time>
</trkpt>
<trkpt lat="30.9113962" lon="35.7032863">
<ele>669.94</ele>
<time>2015-11-22T09:57:23Z</time>
</trkpt>
<trkpt lat="30.9113534" lon="35.7032512">
<ele>669.96</ele>
<time>2015-11-22T09:57:26Z</time>
</trkpt>
<trkpt lat="30.9113131" lon="35.7032195">
<ele>669.84</ele>
<time>2015-11-22T09:57:29Z</time>
</trkpt>
<trkpt lat="30.9112730" lon="35.7031735">
<ele>671.61</ele>
<time>2015-11-22T09:57:33Z</time>
</trkpt>
<trkpt lat="30.9112459" lon="35.7031316">
<ele>670.67</ele>
<time>2015-11-22T09:57:36Z</time>
</trkpt>
<trkpt lat="30.9112018" lon="35.7030878">
<ele>670.85</ele>
<time>2015-11-22T09:57:40Z</time>
</trkpt>
<trkpt lat="30.9111602" lon="35.7030429">
<ele>670.67</ele>
<time>2015-11-22T09:57:44Z</time>
</trkpt>
<trkpt lat="30.9111244" lon="35.7030101">
<ele>670.43</ele>
<time>2015-11-22T09:57:47Z</time>
</trkpt>
<trkpt lat="30.9110856" lon="35.7029764">
<ele>669.52</ele>
<time>2015-11-22T09:57:50Z</time>
</trkpt>
<trkpt lat="30.9110437" lon="35.7029478">
<ele>670.16</ele>
<time>2015-11-22T09:57:53Z</time>
</trkpt>
<trkpt lat="30.9110051" lon="35.7029192">
<ele>670.36</ele>
<time>2015-11-22T09:57:56Z</time>
</trkpt>
<trkpt lat="30.9109674" lon="35.7028901">
<ele>669.64</ele>
<time>2015-11-22T09:57:59Z</time>
</trkpt>
<trkpt lat="30.9109163" lon="35.7028516">
<ele>672.03</ele>
<time>2015-11-22T09:58:03Z</time>
</trkpt>
<trkpt lat="30.9108726" lon="35.7028212">
<ele>671.47</ele>
<time>2015-11-22T09:58:06Z</time>
</trkpt>
<trkpt lat="30.9108271" lon="35.7027839">
<ele>672.03</ele>
<time>2015-11-22T09:58:09Z</time>
</trkpt>
<trkpt lat="30.9107876" lon="35.7027397">
<ele>671.10</ele>
<time>2015-11-22T09:58:12Z</time>
</trkpt>
<trkpt lat="30.9107431" lon="35.7027079">
<ele>669.73</ele>
<time>2015-11-22T09:58:15Z</time>
</trkpt>
<trkpt lat="30.9107041" lon="35.7026805">
<ele>669.44</ele>
<time>2015-11-22T09:58:18Z</time>
</trkpt>
<trkpt lat="30.9106647" lon="35.7026520">
<ele>669.90</ele>
<time>2015-11-22T09:58:21Z</time>
</trkpt>
<trkpt lat="30.9106235" lon="35.7026074">
<ele>671.24</ele>
<time>2015-11-22T09:58:25Z</time>
</trkpt>
<trkpt lat="30.9105883" lon="35.7025731">
<ele>671.12</ele>
<time>2015-11-22T09:58:28Z</time>
</trkpt>
<trkpt lat="30.9105537" lon="35.7025391">
<ele>670.24</ele>
<time>2015-11-22T09:58:31Z</time>
</trkpt>
<trkpt lat="30.9105135" lon="35.7025100">
<ele>670.37</ele>
<time>2015-11-22T09:58:34Z</time>
</trkpt>
<trkpt lat="30.9104755" lon="35.7024744">
<ele>668.77</ele>
<time>2015-11-22T09:58:37Z</time>
</trkpt>
<trkpt lat="30.9104332" lon="35.7024429">
<ele>668.44</ele>
<time>2015-11-22T09:58:40Z</time>
</trkpt>
<trkpt lat="30.9103883" lon="35.7024146">
<ele>668.40</ele>
<time>2015-11-22T09:58:43Z</time>
</trkpt>
<trkpt lat="30.9103459" lon="35.7023799">
<ele>669.14</ele>
<time>2015-11-22T09:58:46Z</time>
</trkpt>
<trkpt lat="30.9103085" lon="35.7023426">
<ele>670.61</ele>
<time>2015-11-22T09:58:49Z</time>
</trkpt>
<trkpt lat="30.9102687" lon="35.7023085">
<ele>671.17</ele>
<time>2015-11-22T09:58:52Z</time>
</trkpt>
<trkpt lat="30.9102314" lon="35.7022737">
<ele>671.24</ele>
<time>2015-11-22T09:58:55Z</time>
</trkpt>
<trkpt lat="30.9101970" lon="35.7022347">
<ele>672.25</ele>
<time>2015-11-22T09:58:58Z</time>
</trkpt>
<trkpt lat="30.9101579" lon="35.7021951">
<ele>673.25</ele>
<time>2015-11-22T09:59:01Z</time>
</trkpt>
<trkpt lat="30.9101192" lon="35.7021559">
<ele>672.63</ele>
<time>2015-11-22T09:59:04Z</time>
</trkpt>
<trkpt lat="30.9100842" lon="35.7021100">
<ele>673.42</ele>
<time>2015-11-22T09:59:07Z</time>
</trkpt>
<trkpt lat="30.9100494" lon="35.7020768">
<ele>671.90</ele>
<time>2015-11-22T09:59:10Z</time>
</trkpt>
<trkpt lat="30.9100118" lon="35.7020300">
<ele>671.43</ele>
<time>2015-11-22T09:59:14Z</time>
</trkpt>
<trkpt lat="30.9099681" lon="35.7019835">
<ele>671.40</ele>
<time>2015-11-22T09:59:18Z</time>
</trkpt>
<trkpt lat="30.9099230" lon="35.7019546">
<ele>672.89</ele>
<time>2015-11-22T09:59:21Z</time>
</trkpt>
<trkpt lat="30.9098824" lon="35.7019256">
<ele>673.08</ele>
<time>2015-11-22T09:59:24Z</time>
</trkpt>
<trkpt lat="30.9098365" lon="35.7019002">
<ele>672.85</ele>
<time>2015-11-22T09:59:27Z</time>
</trkpt>
<trkpt lat="30.9097948" lon="35.7018673">
<ele>671.70</ele>
<time>2015-11-22T09:59:30Z</time>
</trkpt>
<trkpt lat="30.9097562" lon="35.7018350">
<ele>670.56</ele>
<time>2015-11-22T09:59:33Z</time>
</trkpt>
<trkpt lat="30.9097202" lon="35.7017964">
<ele>671.16</ele>
<time>2015-11-22T09:59:36Z</time>
</trkpt>
<trkpt lat="30.9096892" lon="35.7017526">
<ele>671.49</ele>
<time>2015-11-22T09:59:39Z</time>
</trkpt>
<trkpt lat="30.9096573" lon="35.7017029">
<ele>671.66</ele>
<time>2015-11-22T09:59:42Z</time>
</trkpt>
<trkpt lat="30.9096346" lon="35.7016550">
<ele>671.43</ele>
<time>2015-11-22T09:59:45Z</time>
</trkpt>
<trkpt lat="30.9095996" lon="35.7016002">
<ele>670.58</ele>
<time>2015-11-22T09:59:49Z</time>
</trkpt>
<trkpt lat="30.9095600" lon="35.7015550">
<ele>670.78</ele>
<time>2015-11-22T09:59:53Z</time>
</trkpt>
<trkpt lat="30.9095305" lon="35.7015062">
<ele>671.36</ele>
<time>2015-11-22T09:59:57Z</time>
</trkpt>
<trkpt lat="30.9095038" lon="35.7014608">
<ele>671.76</ele>
<time>2015-11-22T10:00:00Z</time>
</trkpt>
<trkpt lat="30.9094719" lon="35.7014201">
<ele>672.69</ele>
<time>2015-11-22T10:00:03Z</time>
</trkpt>
<trkpt lat="30.9094456" lon="35.7013661">
<ele>673.31</ele>
<time>2015-11-22T10:00:06Z</time>
</trkpt>
<trkpt lat="30.9094192" lon="35.7013134">
<ele>673.88</ele>
<time>2015-11-22T10:00:09Z</time>
</trkpt>
<trkpt lat="30.9093776" lon="35.7012632">
<ele>673.46</ele>
<time>2015-11-22T10:00:12Z</time>
</trkpt>
<trkpt lat="30.9093364" lon="35.7012114">
<ele>673.15</ele>
<time>2015-11-22T10:00:15Z</time>
</trkpt>
<trkpt lat="30.9093072" lon="35.7011499">
<ele>673.24</ele>
<time>2015-11-22T10:00:18Z</time>
</trkpt>
<trkpt lat="30.9092734" lon="35.7010928">
<ele>673.62</ele>
<time>2015-11-22T10:00:21Z</time>
</trkpt>
<trkpt lat="30.9092531" lon="35.7010364">
<ele>671.80</ele>
<time>2015-11-22T10:00:24Z</time>
</trkpt>
<trkpt lat="30.9092360" lon="35.7009844">
<ele>671.57</ele>
<time>2015-11-22T10:00:27Z</time>
</trkpt>
<trkpt lat="30.9092215" lon="35.7009304">
<ele>671.54</ele>
<time>2015-11-22T10:00:30Z</time>
</trkpt>
<trkpt lat="30.9092081" lon="35.7008738">
<ele>670.04</ele>
<time>2015-11-22T10:00:33Z</time>
</trkpt>
<trkpt lat="30.9091991" lon="35.7008149">
<ele>669.47</ele>
<time>2015-11-22T10:00:36Z</time>
</trkpt>
<trkpt lat="30.9091864" lon="35.7007600">
<ele>670.03</ele>
<time>2015-11-22T10:00:39Z</time>
</trkpt>
<trkpt lat="30.9091742" lon="35.7007056">
<ele>672.10</ele>
<time>2015-11-22T10:00:42Z</time>
</trkpt>
<trkpt lat="30.9091583" lon="35.7006545">
<ele>674.11</ele>
<time>2015-11-22T10:00:45Z</time>
</trkpt>
<trkpt lat="30.9091442" lon="35.7006013">
<ele>673.11</ele>
<time>2015-11-22T10:00:48Z</time>
</trkpt>
<trkpt lat="30.9091338" lon="35.7005449">
<ele>674.36</ele>
<time>2015-11-22T10:00:51Z</time>
</trkpt>
<trkpt lat="30.9091252" lon="35.7004906">
<ele>674.01</ele>
<time>2015-11-22T10:00:54Z</time>
</trkpt>
<trkpt lat="30.9091075" lon="35.7004374">
<ele>671.97</ele>
<time>2015-11-22T10:00:57Z</time>
</trkpt>
<trkpt lat="30.9091008" lon="35.7003737">
<ele>671.81</ele>
<time>2015-11-22T10:01:01Z</time>
</trkpt>
<trkpt lat="30.9091062" lon="35.7003161">
<ele>670.48</ele>
<time>2015-11-22T10:01:05Z</time>
</trkpt>
<trkpt lat="30.9091135" lon="35.7002572">
<ele>672.21</ele>
<time>2015-11-22T10:01:09Z</time>
</trkpt>
<trkpt lat="30.9091123" lon="35.7001865">
<ele>673.07</ele>
<time>2015-11-22T10:01:13Z</time>
</trkpt>
<trkpt lat="30.9091121" lon="35.7001296">
<ele>673.85</ele>
<time>2015-11-22T10:01:16Z</time>
</trkpt>
<trkpt lat="30.9091114" lon="35.7000722">
<ele>675.33</ele>
<time>2015-11-22T10:01:19Z</time>
</trkpt>
<trkpt lat="30.9091126" lon="35.7000140">
<ele>677.51</ele>
<time>2015-11-22T10:01:22Z</time>
</trkpt>
<trkpt lat="30.9091134" lon="35.6999555">
<ele>676.91</ele>
<time>2015-11-22T10:01:25Z</time>
</trkpt>
<trkpt lat="30.9091189" lon="35.6998820">
<ele>677.21</ele>
<time>2015-11-22T10:01:29Z</time>
</trkpt>
<trkpt lat="30.9091226" lon="35.6998284">
<ele>676.37</ele>
<time>2015-11-22T10:01:32Z</time>
</trkpt>
<trkpt lat="30.9091271" lon="35.6997677">
<ele>675.52</ele>
<time>2015-11-22T10:01:35Z</time>
</trkpt>
<trkpt lat="30.9091296" lon="35.6997091">
<ele>677.41</ele>
<time>2015-11-22T10:01:38Z</time>
</trkpt>
<trkpt lat="30.9091371" lon="35.6996557">
<ele>678.90</ele>
<time>2015-11-22T10:01:41Z</time>
</trkpt>
<trkpt lat="30.9091503" lon="35.6996032">
<ele>677.96</ele>
<time>2015-11-22T10:01:44Z</time>
</trkpt>
<trkpt lat="30.9091621" lon="35.6995490">
<ele>678.09</ele>
<time>2015-11-22T10:01:47Z</time>
</trkpt>
<trkpt lat="30.9091806" lon="35.6994953">
<ele>679.48</ele>
<time>2015-11-22T10:01:50Z</time>
</trkpt>
<trkpt lat="30.9091946" lon="35.6994419">
<ele>677.53</ele>
<time>2015-11-22T10:01:53Z</time>
</trkpt>
<trkpt lat="30.9092108" lon="35.6993891">
<ele>677.29</ele>
<time>2015-11-22T10:01:56Z</time>
</trkpt>
<trkpt lat="30.9092245" lon="35.6993354">
<ele>675.26</ele>
<time>2015-11-22T10:01:59Z</time>
</trkpt>
<trkpt lat="30.9092451" lon="35.6992710">
<ele>676.45</ele>
<time>2015-11-22T10:02:03Z</time>
</trkpt>
<trkpt lat="30.9092655" lon="35.6992234">
<ele>677.15</ele>
<time>2015-11-22T10:02:06Z</time>
</trkpt>
<trkpt lat="30.9092866" lon="35.6991599">
<ele>677.94</ele>
<time>2015-11-22T10:02:10Z</time>
</trkpt>
<trkpt lat="30.9093054" lon="35.6991122">
<ele>680.71</ele>
<time>2015-11-22T10:02:13Z</time>
</trkpt>
<trkpt lat="30.9093328" lon="35.6990663">
<ele>684.43</ele>
<time>2015-11-22T10:02:16Z</time>
</trkpt>
<trkpt lat="30.9093605" lon="35.6990174">
<ele>685.02</ele>
<time>2015-11-22T10:02:19Z</time>
</trkpt>
<trkpt lat="30.9093915" lon="35.6989704">
<ele>685.22</ele>
<time>2015-11-22T10:02:22Z</time>
</trkpt>
<trkpt lat="30.9094208" lon="35.6989254">
<ele>686.00</ele>
<time>2015-11-22T10:02:25Z</time>
</trkpt>
<trkpt lat="30.9094550" lon="35.6988760">
<ele>689.22</ele>
<time>2015-11-22T10:02:28Z</time>
</trkpt>
<trkpt lat="30.9094829" lon="35.6988247">
<ele>691.25</ele>
<time>2015-11-22T10:02:31Z</time>
</trkpt>
<trkpt lat="30.9095171" lon="35.6987736">
<ele>694.00</ele>
<time>2015-11-22T10:02:34Z</time>
</trkpt>
<trkpt lat="30.9095499" lon="35.6987244">
<ele>687.09</ele>
<time>2015-11-22T10:02:37Z</time>
</trkpt>
<trkpt lat="30.9095818" lon="35.6986794">
<ele>683.73</ele>
<time>2015-11-22T10:02:40Z</time>
</trkpt>
<trkpt lat="30.9096186" lon="35.6986399">
<ele>683.06</ele>
<time>2015-11-22T10:02:43Z</time>
</trkpt>
<trkpt lat="30.9096449" lon="35.6985883">
<ele>681.23</ele>
<time>2015-11-22T10:02:46Z</time>
</trkpt>
<trkpt lat="30.9096812" lon="35.6985417">
<ele>683.87</ele>
<time>2015-11-22T10:02:49Z</time>
</trkpt>
<trkpt lat="30.9097183" lon="35.6984946">
<ele>686.70</ele>
<time>2015-11-22T10:02:52Z</time>
</trkpt>
<trkpt lat="30.9097520" lon="35.6984500">
<ele>692.43</ele>
<time>2015-11-22T10:02:55Z</time>
</trkpt>
<trkpt lat="30.9097969" lon="35.6984032">
<ele>689.58</ele>
<time>2015-11-22T10:02:59Z</time>
</trkpt>
<trkpt lat="30.9098288" lon="35.6983618">
<ele>682.54</ele>
<time>2015-11-22T10:03:02Z</time>
</trkpt>
<trkpt lat="30.9098705" lon="35.6983262">
<ele>701.91</ele>
<time>2015-11-22T10:03:05Z</time>
</trkpt>
<trkpt lat="30.9099107" lon="35.6982938">
<ele>720.21</ele>
<time>2015-11-22T10:03:08Z</time>
</trkpt>
<trkpt lat="30.9099480" lon="35.6982608">
<ele>727.87</ele>
<time>2015-11-22T10:03:11Z</time>
</trkpt>
<trkpt lat="30.9099949" lon="35.6982340">
<ele>730.08</ele>
<time>2015-11-22T10:03:14Z</time>
</trkpt>
<trkpt lat="30.9100342" lon="35.6982075">
<ele>732.32</ele>
<time>2015-11-22T10:03:16Z</time>
</trkpt>
<trkpt lat="30.9100872" lon="35.6981692">
<ele>734.37</ele>
<time>2015-11-22T10:03:18Z</time>
</trkpt>
<trkpt lat="30.9101435" lon="35.6981326">
<ele>735.64</ele>
<time>2015-11-22T10:03:20Z</time>
</trkpt>
<trkpt lat="30.9101920" lon="35.6980958">
<ele>736.96</ele>
<time>2015-11-22T10:03:22Z</time>
</trkpt>
<trkpt lat="30.9102347" lon="35.6980571">
<ele>737.28</ele>
<time>2015-11-22T10:03:24Z</time>
</trkpt>
<trkpt lat="30.9102771" lon="35.6980244">
<ele>737.62</ele>
<time>2015-11-22T10:03:26Z</time>
</trkpt>
<trkpt lat="30.9103173" lon="35.6980002">
<ele>737.45</ele>
<time>2015-11-22T10:03:28Z</time>
</trkpt>
<trkpt lat="30.9103594" lon="35.6979785">
<ele>737.66</ele>
<time>2015-11-22T10:03:30Z</time>
</trkpt>
<trkpt lat="30.9104054" lon="35.6979569">
<ele>738.21</ele>
<time>2015-11-22T10:03:32Z</time>
</trkpt>
<trkpt lat="30.9104502" lon="35.6979365">
<ele>737.85</ele>
<time>2015-11-22T10:03:34Z</time>
</trkpt>
<trkpt lat="30.9104940" lon="35.6979206">
<ele>736.26</ele>
<time>2015-11-22T10:03:36Z</time>
</trkpt>
<trkpt lat="30.9105530" lon="35.6978931">
<ele>736.88</ele>
<time>2015-11-22T10:03:39Z</time>
</trkpt>
<trkpt lat="30.9106030" lon="35.6978923">
<ele>735.39</ele>
<time>2015-11-22T10:04:53Z</time>
</trkpt>
<trkpt lat="30.9106530" lon="35.6978800">
<ele>735.39</ele>
<time>2015-11-22T10:04:57Z</time>
</trkpt>
<trkpt lat="30.9107052" lon="35.6978633">
<ele>735.89</ele>
<time>2015-11-22T10:05:00Z</time>
</trkpt>
<trkpt lat="30.9107612" lon="35.6978425">
<ele>735.96</ele>
<time>2015-11-22T10:05:03Z</time>
</trkpt>
<trkpt lat="30.9108256" lon="35.6978370">
<ele>734.09</ele>
<time>2015-11-22T10:05:06Z</time>
</trkpt>
<trkpt lat="30.9108770" lon="35.6978330">
<ele>733.57</ele>
<time>2015-11-22T10:05:08Z</time>
</trkpt>
<trkpt lat="30.9109394" lon="35.6978257">
<ele>733.44</ele>
<time>2015-11-22T10:05:10Z</time>
</trkpt>
<trkpt lat="30.9110035" lon="35.6978171">
<ele>734.65</ele>
<time>2015-11-22T10:05:12Z</time>
</trkpt>
<trkpt lat="30.9110640" lon="35.6978097">
<ele>735.46</ele>
<time>2015-11-22T10:05:14Z</time>
</trkpt>
<trkpt lat="30.9111219" lon="35.6978002">
<ele>734.91</ele>
<time>2015-11-22T10:05:16Z</time>
</trkpt>
<trkpt lat="30.9111809" lon="35.6977972">
<ele>734.02</ele>
<time>2015-11-22T10:05:18Z</time>
</trkpt>
<trkpt lat="30.9112458" lon="35.6977943">
<ele>733.55</ele>
<time>2015-11-22T10:05:20Z</time>
</trkpt>
<trkpt lat="30.9113179" lon="35.6977908">
<ele>733.43</ele>
<time>2015-11-22T10:05:22Z</time>
</trkpt>
<trkpt lat="30.9113937" lon="35.6977914">
<ele>732.65</ele>
<time>2015-11-22T10:05:24Z</time>
</trkpt>
<trkpt lat="30.9114802" lon="35.6977946">
<ele>733.21</ele>
<time>2015-11-22T10:05:26Z</time>
</trkpt>
<trkpt lat="30.9115699" lon="35.6977964">
<ele>733.35</ele>
<time>2015-11-22T10:05:28Z</time>
</trkpt>
<trkpt lat="30.9116600" lon="35.6977995">
<ele>733.13</ele>
<time>2015-11-22T10:05:30Z</time>
</trkpt>
<trkpt lat="30.9117317" lon="35.6978078">
<ele>733.26</ele>
<time>2015-11-22T10:05:31Z</time>
</trkpt>
<trkpt lat="30.9117795" lon="35.6978116">
<ele>733.83</ele>
<time>2015-11-22T10:05:32Z</time>
</trkpt>
<trkpt lat="30.9118719" lon="35.6978150">
<ele>734.25</ele>
<time>2015-11-22T10:05:34Z</time>
</trkpt>
<trkpt lat="30.9119190" lon="35.6978162">
<ele>733.82</ele>
<time>2015-11-22T10:05:35Z</time>
</trkpt>
<trkpt lat="30.9119689" lon="35.6978131">
<ele>734.11</ele>
<time>2015-11-22T10:05:36Z</time>
</trkpt>
<trkpt lat="30.9120160" lon="35.6978209">
<ele>733.75</ele>
<time>2015-11-22T10:05:37Z</time>
</trkpt>
<trkpt lat="30.9120615" lon="35.6978261">
<ele>733.57</ele>
<time>2015-11-22T10:05:38Z</time>
</trkpt>
<trkpt lat="30.9121423" lon="35.6978271">
<ele>733.44</ele>
<time>2015-11-22T10:05:40Z</time>
</trkpt>
<trkpt lat="30.9122167" lon="35.6978320">
<ele>733.41</ele>
<time>2015-11-22T10:05:42Z</time>
</trkpt>
<trkpt lat="30.9123062" lon="35.6978334">
<ele>734.65</ele>
<time>2015-11-22T10:05:44Z</time>
</trkpt>
<trkpt lat="30.9123808" lon="35.6978374">
<ele>735.21</ele>
<time>2015-11-22T10:05:46Z</time>
</trkpt>
<trkpt lat="30.9124582" lon="35.6978480">
<ele>736.60</ele>
<time>2015-11-22T10:05:48Z</time>
</trkpt>
<trkpt lat="30.9125340" lon="35.6978552">
<ele>737.94</ele>
<time>2015-11-22T10:05:50Z</time>
</trkpt>
<trkpt lat="30.9126056" lon="35.6978601">
<ele>738.28</ele>
<time>2015-11-22T10:05:52Z</time>
</trkpt>
<trkpt lat="30.9126756" lon="35.6978649">
<ele>738.12</ele>
<time>2015-11-22T10:05:54Z</time>
</trkpt>
<trkpt lat="30.9127448" lon="35.6978727">
<ele>737.82</ele>
<time>2015-11-22T10:05:56Z</time>
</trkpt>
<trkpt lat="30.9128131" lon="35.6978840">
<ele>737.50</ele>
<time>2015-11-22T10:05:58Z</time>
</trkpt>
<trkpt lat="30.9128777" lon="35.6978897">
<ele>737.42</ele>
<time>2015-11-22T10:06:00Z</time>
</trkpt>
<trkpt lat="30.9129307" lon="35.6978927">
<ele>737.40</ele>
<time>2015-11-22T10:06:02Z</time>
</trkpt>
<trkpt lat="30.9129877" lon="35.6978954">
<ele>738.15</ele>
<time>2015-11-22T10:06:04Z</time>
</trkpt>
<trkpt lat="30.9130483" lon="35.6979004">
<ele>738.33</ele>
<time>2015-11-22T10:06:06Z</time>
</trkpt>
<trkpt lat="30.9131114" lon="35.6979053">
<ele>738.38</ele>
<time>2015-11-22T10:06:08Z</time>
</trkpt>
<trkpt lat="30.9131763" lon="35.6979094">
<ele>739.14</ele>
<time>2015-11-22T10:06:10Z</time>
</trkpt>
<trkpt lat="30.9132408" lon="35.6979145">
<ele>739.33</ele>
<time>2015-11-22T10:06:12Z</time>
</trkpt>
<trkpt lat="30.9133055" lon="35.6979202">
<ele>739.38</ele>
<time>2015-11-22T10:06:14Z</time>
</trkpt>
<trkpt lat="30.9133723" lon="35.6979258">
<ele>740.14</ele>
<time>2015-11-22T10:06:16Z</time>
</trkpt>
<trkpt lat="30.9134409" lon="35.6979306">
<ele>740.83</ele>
<time>2015-11-22T10:06:18Z</time>
</trkpt>
<trkpt lat="30.9135107" lon="35.6979327">
<ele>741.25</ele>
<time>2015-11-22T10:06:20Z</time>
</trkpt>
<trkpt lat="30.9135817" lon="35.6979359">
<ele>741.36</ele>
<time>2015-11-22T10:06:22Z</time>
</trkpt>
<trkpt lat="30.9136529" lon="35.6979410">
<ele>741.39</ele>
<time>2015-11-22T10:06:24Z</time>
</trkpt>
<trkpt lat="30.9137218" lon="35.6979495">
<ele>741.39</ele>
<time>2015-11-22T10:06:26Z</time>
</trkpt>
<trkpt lat="30.9137887" lon="35.6979563">
<ele>741.39</ele>
<time>2015-11-22T10:06:28Z</time>
</trkpt>
<trkpt lat="30.9138566" lon="35.6979605">
<ele>741.39</ele>
<time>2015-11-22T10:06:30Z</time>
</trkpt>
<trkpt lat="30.9139252" lon="35.6979642">
<ele>741.39</ele>
<time>2015-11-22T10:06:32Z</time>
</trkpt>
<trkpt lat="30.9139915" lon="35.6979664">
<ele>741.39</ele>
<time>2015-11-22T10:06:34Z</time>
</trkpt>
<trkpt lat="30.9140508" lon="35.6979724">
<ele>742.14</ele>
<time>2015-11-22T10:06:36Z</time>
</trkpt>
<trkpt lat="30.9141165" lon="35.6979808">
<ele>742.33</ele>
<time>2015-11-22T10:06:38Z</time>
</trkpt>
<trkpt lat="30.9141922" lon="35.6979869">
<ele>742.38</ele>
<time>2015-11-22T10:06:40Z</time>
</trkpt>
<trkpt lat="30.9142654" lon="35.6979907">
<ele>742.39</ele>
<time>2015-11-22T10:06:42Z</time>
</trkpt>
<trkpt lat="30.9143356" lon="35.6979933">
<ele>741.89</ele>
<time>2015-11-22T10:06:44Z</time>
</trkpt>
<trkpt lat="30.9144029" lon="35.6979993">
<ele>741.52</ele>
<time>2015-11-22T10:06:46Z</time>
</trkpt>
<trkpt lat="30.9144705" lon="35.6980045">
<ele>741.43</ele>
<time>2015-11-22T10:06:48Z</time>
</trkpt>
<trkpt lat="30.9145447" lon="35.6980052">
<ele>740.90</ele>
<time>2015-11-22T10:06:50Z</time>
</trkpt>
<trkpt lat="30.9145932" lon="35.6980072">
<ele>740.65</ele>
<time>2015-11-22T10:06:51Z</time>
</trkpt>
<trkpt lat="30.9146530" lon="35.6980112">
<ele>740.52</ele>
<time>2015-11-22T10:06:52Z</time>
</trkpt>
<trkpt lat="30.9147032" lon="35.6980152">
<ele>740.46</ele>
<time>2015-11-22T10:06:53Z</time>
</trkpt>
<trkpt lat="30.9147542" lon="35.6980186">
<ele>740.43</ele>
<time>2015-11-22T10:06:54Z</time>
</trkpt>
<trkpt lat="30.9148050" lon="35.6980274">
<ele>740.41</ele>
<time>2015-11-22T10:06:55Z</time>
</trkpt>
<trkpt lat="30.9148543" lon="35.6980365">
<ele>740.40</ele>
<time>2015-11-22T10:06:56Z</time>
</trkpt>
<trkpt lat="30.9148997" lon="35.6980440">
<ele>740.40</ele>
<time>2015-11-22T10:06:57Z</time>
</trkpt>
<trkpt lat="30.9149453" lon="35.6980517">
<ele>740.90</ele>
<time>2015-11-22T10:06:58Z</time>
</trkpt>
<trkpt lat="30.9149937" lon="35.6980613">
<ele>741.15</ele>
<time>2015-11-22T10:06:59Z</time>
</trkpt>
<trkpt lat="30.9150799" lon="35.6980830">
<ele>741.33</ele>
<time>2015-11-22T10:07:01Z</time>
</trkpt>
<trkpt lat="30.9151246" lon="35.6980972">
<ele>741.86</ele>
<time>2015-11-22T10:07:02Z</time>
</trkpt>
<trkpt lat="30.9151989" lon="35.6981248">
<ele>742.26</ele>
<time>2015-11-22T10:07:04Z</time>
</trkpt>
<trkpt lat="30.9152573" lon="35.6981421">
<ele>742.36</ele>
<time>2015-11-22T10:07:06Z</time>
</trkpt>
<trkpt lat="30.9153009" lon="35.6981566">
<ele>742.89</ele>
<time>2015-11-22T10:07:08Z</time>
</trkpt>
<trkpt lat="30.9153606" lon="35.6981816">
<ele>743.33</ele>
<time>2015-11-22T10:07:11Z</time>
</trkpt>
<trkpt lat="30.9154203" lon="35.6982067">
<ele>744.26</ele>
<time>2015-11-22T10:07:14Z</time>
</trkpt>
<trkpt lat="30.9154768" lon="35.6982291">
<ele>744.38</ele>
<time>2015-11-22T10:07:17Z</time>
</trkpt>
<trkpt lat="30.9155308" lon="35.6982542">
<ele>745.02</ele>
<time>2015-11-22T10:07:20Z</time>
</trkpt>
<trkpt lat="30.9155824" lon="35.6982759">
<ele>745.35</ele>
<time>2015-11-22T10:07:23Z</time>
</trkpt>
<trkpt lat="30.9156334" lon="35.6983011">
<ele>746.14</ele>
<time>2015-11-22T10:07:26Z</time>
</trkpt>
<trkpt lat="30.9156840" lon="35.6983271">
<ele>747.61</ele>
<time>2015-11-22T10:07:29Z</time>
</trkpt>
<trkpt lat="30.9157324" lon="35.6983544">
<ele>748.30</ele>
<time>2015-11-22T10:07:32Z</time>
</trkpt>
<trkpt lat="30.9157811" lon="35.6983848">
<ele>748.38</ele>
<time>2015-11-22T10:07:35Z</time>
</trkpt>
<trkpt lat="30.9158324" lon="35.6984156">
<ele>747.64</ele>
<time>2015-11-22T10:07:38Z</time>
</trkpt>
<trkpt lat="30.9158837" lon="35.6984437">
<ele>747.55</ele>
<time>2015-11-22T10:07:41Z</time>
</trkpt>
<trkpt lat="30.9159348" lon="35.6984702">
<ele>748.16</ele>
<time>2015-11-22T10:07:44Z</time>
</trkpt>
<trkpt lat="30.9159849" lon="35.6985002">
<ele>748.37</ele>
<time>2015-11-22T10:07:47Z</time>
</trkpt>
<trkpt lat="30.9160351" lon="35.6985291">
<ele>748.39</ele>
<time>2015-11-22T10:07:50Z</time>
</trkpt>
<trkpt lat="30.9160861" lon="35.6985539">
<ele>748.89</ele>
<time>2015-11-22T10:07:53Z</time>
</trkpt>
<trkpt lat="30.9161388" lon="35.6985752">
<ele>749.33</ele>
<time>2015-11-22T10:07:56Z</time>
</trkpt>
<trkpt lat="30.9161926" lon="35.6985999">
<ele>749.51</ele>
<time>2015-11-22T10:07:59Z</time>
</trkpt>
<trkpt lat="30.9162430" lon="35.6986279">
<ele>750.28</ele>
<time>2015-11-22T10:08:02Z</time>
</trkpt>
<trkpt lat="30.9162940" lon="35.6986531">
<ele>750.88</ele>
<time>2015-11-22T10:08:05Z</time>
</trkpt>
<trkpt lat="30.9163464" lon="35.6986764">
<ele>751.33</ele>
<time>2015-11-22T10:08:08Z</time>
</trkpt>
<trkpt lat="30.9163982" lon="35.6987028">
<ele>752.76</ele>
<time>2015-11-22T10:08:11Z</time>
</trkpt>
<trkpt lat="30.9164496" lon="35.6987313">
<ele>753.31</ele>
<time>2015-11-22T10:08:14Z</time>
</trkpt>
<trkpt lat="30.9165008" lon="35.6987597">
<ele>753.88</ele>
<time>2015-11-22T10:08:17Z</time>
</trkpt>
<trkpt lat="30.9165498" lon="35.6987897">
<ele>754.33</ele>
<time>2015-11-22T10:08:20Z</time>
</trkpt>
<trkpt lat="30.9165997" lon="35.6988182">
<ele>755.14</ele>
<time>2015-11-22T10:08:23Z</time>
</trkpt>
<trkpt lat="30.9166489" lon="35.6988438">
<ele>756.11</ele>
<time>2015-11-22T10:08:26Z</time>
</trkpt>
<trkpt lat="30.9166977" lon="35.6988693">
<ele>756.36</ele>
<time>2015-11-22T10:08:29Z</time>
</trkpt>
<trkpt lat="30.9167486" lon="35.6988931">
<ele>757.26</ele>
<time>2015-11-22T10:08:32Z</time>
</trkpt>
<trkpt lat="30.9167986" lon="35.6989203">
<ele>757.88</ele>
<time>2015-11-22T10:08:35Z</time>
</trkpt>
<trkpt lat="30.9168471" lon="35.6989467">
<ele>759.08</ele>
<time>2015-11-22T10:08:38Z</time>
</trkpt>
<trkpt lat="30.9168951" lon="35.6989706">
<ele>759.35</ele>
<time>2015-11-22T10:08:41Z</time>
</trkpt>
<trkpt lat="30.9169424" lon="35.6989965">
<ele>759.39</ele>
<time>2015-11-22T10:08:44Z</time>
</trkpt>
<trkpt lat="30.9169898" lon="35.6990187">
<ele>759.39</ele>
<time>2015-11-22T10:08:47Z</time>
</trkpt>
<trkpt lat="30.9170376" lon="35.6990380">
<ele>760.14</ele>
<time>2015-11-22T10:08:50Z</time>
</trkpt>
<trkpt lat="30.9170838" lon="35.6990612">
<ele>760.86</ele>
<time>2015-11-22T10:08:53Z</time>
</trkpt>
<trkpt lat="30.9171282" lon="35.6990909">
<ele>761.33</ele>
<time>2015-11-22T10:08:56Z</time>
</trkpt>
<trkpt lat="30.9171757" lon="35.6991166">
<ele>762.14</ele>
<time>2015-11-22T10:08:59Z</time>
</trkpt>
<trkpt lat="30.9172248" lon="35.6991411">
<ele>762.99</ele>
<time>2015-11-22T10:09:02Z</time>
</trkpt>
<trkpt lat="30.9172737" lon="35.6991681">
<ele>763.34</ele>
<time>2015-11-22T10:09:05Z</time>
</trkpt>
<trkpt lat="30.9173240" lon="35.6991955">
<ele>763.39</ele>
<time>2015-11-22T10:09:08Z</time>
</trkpt>
<trkpt lat="30.9173751" lon="35.6992221">
<ele>763.39</ele>
<time>2015-11-22T10:09:11Z</time>
</trkpt>
<trkpt lat="30.9174310" lon="35.6992490">
<ele>764.14</ele>
<time>2015-11-22T10:09:14Z</time>
</trkpt>
<trkpt lat="30.9174726" lon="35.6992712">
<ele>764.08</ele>
<time>2015-11-22T10:09:16Z</time>
</trkpt>
<trkpt lat="30.9175312" lon="35.6993024">
<ele>764.35</ele>
<time>2015-11-22T10:09:19Z</time>
</trkpt>
<trkpt lat="30.9175734" lon="35.6993241">
<ele>764.38</ele>
<time>2015-11-22T10:09:21Z</time>
</trkpt>
<trkpt lat="30.9176170" lon="35.6993460">
<ele>764.89</ele>
<time>2015-11-22T10:09:23Z</time>
</trkpt>
<trkpt lat="30.9176618" lon="35.6993701">
<ele>765.27</ele>
<time>2015-11-22T10:09:25Z</time>
</trkpt>
<trkpt lat="30.9177034" lon="35.6993926">
<ele>765.36</ele>
<time>2015-11-22T10:09:27Z</time>
</trkpt>
<trkpt lat="30.9177515" lon="35.6994170">
<ele>765.39</ele>
<time>2015-11-22T10:09:30Z</time>
</trkpt>
<trkpt lat="30.9177961" lon="35.6994330">
<ele>765.39</ele>
<time>2015-11-22T10:09:33Z</time>
</trkpt>
<trkpt lat="30.9178542" lon="35.6994624">
<ele>766.27</ele>
<time>2015-11-22T10:09:36Z</time>
</trkpt>
<trkpt lat="30.9179103" lon="35.6994976">
<ele>766.38</ele>
<time>2015-11-22T10:09:39Z</time>
</trkpt>
<trkpt lat="30.9179483" lon="35.6995260">
<ele>768.48</ele>
<time>2015-11-22T10:12:14Z</time>
</trkpt>
<trkpt lat="30.9179997" lon="35.6995550">
<ele>768.41</ele>
<time>2015-11-22T10:12:17Z</time>
</trkpt>
<trkpt lat="30.9180415" lon="35.6995865">
<ele>768.40</ele>
<time>2015-11-22T10:12:19Z</time>
</trkpt>
<trkpt lat="30.9180884" lon="35.6996214">
<ele>769.14</ele>
<time>2015-11-22T10:12:21Z</time>
</trkpt>
<trkpt lat="30.9181383" lon="35.6996523">
<ele>768.58</ele>
<time>2015-11-22T10:12:23Z</time>
</trkpt>
<trkpt lat="30.9181919" lon="35.6996841">
<ele>768.44</ele>
<time>2015-11-22T10:12:25Z</time>
</trkpt>
<trkpt lat="30.9182498" lon="35.6997135">
<ele>768.91</ele>
<time>2015-11-22T10:12:27Z</time>
</trkpt>
<trkpt lat="30.9183091" lon="35.6997380">
<ele>768.52</ele>
<time>2015-11-22T10:12:29Z</time>
</trkpt>
<trkpt lat="30.9183663" lon="35.6997611">
<ele>768.43</ele>
<time>2015-11-22T10:12:31Z</time>
</trkpt>
<trkpt lat="30.9184198" lon="35.6997844">
<ele>768.90</ele>
<time>2015-11-22T10:12:33Z</time>
</trkpt>
<trkpt lat="30.9184695" lon="35.6998070">
<ele>768.52</ele>
<time>2015-11-22T10:12:35Z</time>
</trkpt>
<trkpt lat="30.9185148" lon="35.6998220">
<ele>769.18</ele>
<time>2015-11-22T10:12:37Z</time>
</trkpt>
<trkpt lat="30.9185777" lon="35.6998420">
<ele>768.74</ele>
<time>2015-11-22T10:12:40Z</time>
</trkpt>
<trkpt lat="30.9186228" lon="35.6998527">
<ele>768.48</ele>
<time>2015-11-22T10:12:42Z</time>
</trkpt>
<trkpt lat="30.9186744" lon="35.6998639">
<ele>768.42</ele>
<time>2015-11-22T10:12:44Z</time>
</trkpt>
<trkpt lat="30.9187396" lon="35.6998758">
<ele>768.40</ele>
<time>2015-11-22T10:12:46Z</time>
</trkpt>
<trkpt lat="30.9188093" lon="35.6998836">
<ele>768.40</ele>
<time>2015-11-22T10:12:48Z</time>
</trkpt>
<trkpt lat="30.9188793" lon="35.6998877">
<ele>769.14</ele>
<time>2015-11-22T10:12:50Z</time>
</trkpt>
<trkpt lat="30.9189499" lon="35.6998893">
<ele>769.33</ele>
<time>2015-11-22T10:12:52Z</time>
</trkpt>
<trkpt lat="30.9190182" lon="35.6998859">
<ele>769.38</ele>
<time>2015-11-22T10:12:54Z</time>
</trkpt>
<trkpt lat="30.9190851" lon="35.6998774">
<ele>769.39</ele>
<time>2015-11-22T10:12:56Z</time>
</trkpt>
<trkpt lat="30.9191464" lon="35.6998600">
<ele>769.39</ele>
<time>2015-11-22T10:12:58Z</time>
</trkpt>
<trkpt lat="30.9192072" lon="35.6998396">
<ele>769.39</ele>
<time>2015-11-22T10:13:00Z</time>
</trkpt>
<trkpt lat="30.9192684" lon="35.6998217">
<ele>770.14</ele>
<time>2015-11-22T10:13:02Z</time>
</trkpt>
<trkpt lat="30.9193252" lon="35.6997941">
<ele>770.33</ele>
<time>2015-11-22T10:13:04Z</time>
</trkpt>
<trkpt lat="30.9193764" lon="35.6997617">
<ele>770.38</ele>
<time>2015-11-22T10:13:06Z</time>
</trkpt>
<trkpt lat="30.9194204" lon="35.6997272">
<ele>770.39</ele>
<time>2015-11-22T10:13:08Z</time>
</trkpt>
<trkpt lat="30.9194588" lon="35.6996914">
<ele>770.39</ele>
<time>2015-11-22T10:13:10Z</time>
</trkpt>
<trkpt lat="30.9194929" lon="35.6996550">
<ele>771.14</ele>
<time>2015-11-22T10:13:12Z</time>
</trkpt>
<trkpt lat="30.9195290" lon="35.6996193">
<ele>771.33</ele>
<time>2015-11-22T10:13:14Z</time>
</trkpt>
<trkpt lat="30.9195623" lon="35.6995826">
<ele>771.38</ele>
<time>2015-11-22T10:13:16Z</time>
</trkpt>
<trkpt lat="30.9196068" lon="35.6995379">
<ele>771.64</ele>
<time>2015-11-22T10:13:19Z</time>
</trkpt>
<trkpt lat="30.9196395" lon="35.6994888">
<ele>771.41</ele>
<time>2015-11-22T10:13:23Z</time>
</trkpt>
<trkpt lat="30.9196676" lon="35.6994329">
<ele>771.64</ele>
<time>2015-11-22T10:13:27Z</time>
</trkpt>
<trkpt lat="30.9196915" lon="35.6993885">
<ele>772.68</ele>
<time>2015-11-22T10:13:30Z</time>
</trkpt>
<trkpt lat="30.9197135" lon="35.6993412">
<ele>771.68</ele>
<time>2015-11-22T10:13:33Z</time>
</trkpt>
<trkpt lat="30.9197304" lon="35.6992880">
<ele>771.43</ele>
<time>2015-11-22T10:13:36Z</time>
</trkpt>
<trkpt lat="30.9197544" lon="35.6992390">
<ele>771.40</ele>
<time>2015-11-22T10:13:39Z</time>
</trkpt>
<trkpt lat="30.9197750" lon="35.6991908">
<ele>771.89</ele>
<time>2015-11-22T10:13:42Z</time>
</trkpt>
<trkpt lat="30.9197964" lon="35.6991407">
<ele>772.46</ele>
<time>2015-11-22T10:13:45Z</time>
</trkpt>
<trkpt lat="30.9198152" lon="35.6990924">
<ele>772.40</ele>
<time>2015-11-22T10:13:48Z</time>
</trkpt>
<trkpt lat="30.9198310" lon="35.6990292">
<ele>772.02</ele>
<time>2015-11-22T10:13:52Z</time>
</trkpt>
<trkpt lat="30.9198292" lon="35.6989678">
<ele>770.56</ele>
<time>2015-11-22T10:13:56Z</time>
</trkpt>
<trkpt lat="30.9198310" lon="35.6989034">
<ele>770.40</ele>
<time>2015-11-22T10:14:00Z</time>
</trkpt>
<trkpt lat="30.9198287" lon="35.6988443">
<ele>770.52</ele>
<time>2015-11-22T10:14:04Z</time>
</trkpt>
<trkpt lat="30.9198166" lon="35.6987866">
<ele>770.90</ele>
<time>2015-11-22T10:14:08Z</time>
</trkpt>
<trkpt lat="30.9197960" lon="35.6987274">
<ele>772.11</ele>
<time>2015-11-22T10:14:12Z</time>
</trkpt>
<trkpt lat="30.9197704" lon="35.6986645">
<ele>773.25</ele>
<time>2015-11-22T10:14:16Z</time>
</trkpt>
<trkpt lat="30.9197544" lon="35.6986107">
<ele>777.13</ele>
<time>2015-11-22T10:14:19Z</time>
</trkpt>
<trkpt lat="30.9197374" lon="35.6985572">
<ele>780.49</ele>
<time>2015-11-22T10:14:22Z</time>
</trkpt>
<trkpt lat="30.9197210" lon="35.6985035">
<ele>783.53</ele>
<time>2015-11-22T10:14:25Z</time>
</trkpt>
<trkpt lat="30.9197000" lon="35.6984535">
<ele>785.04</ele>
<time>2015-11-22T10:14:28Z</time>
</trkpt>
<trkpt lat="30.9196754" lon="35.6984019">
<ele>786.60</ele>
<time>2015-11-22T10:14:31Z</time>
</trkpt>
<trkpt lat="30.9196534" lon="35.6983509">
<ele>786.67</ele>
<time>2015-11-22T10:14:34Z</time>
</trkpt>
<trkpt lat="30.9196286" lon="35.6983020">
<ele>788.68</ele>
<time>2015-11-22T10:14:37Z</time>
</trkpt>
<trkpt lat="30.9195990" lon="35.6982543">
<ele>789.55</ele>
<time>2015-11-22T10:14:40Z</time>
</trkpt>
<trkpt lat="30.9195744" lon="35.6982036">
<ele>790.04</ele>
<time>2015-11-22T10:14:43Z</time>
</trkpt>
<trkpt lat="30.9195457" lon="35.6981572">
<ele>790.22</ele>
<time>2015-11-22T10:14:46Z</time>
</trkpt>
<trkpt lat="30.9195140" lon="35.6981078">
<ele>791.12</ele>
<time>2015-11-22T10:14:49Z</time>
</trkpt>
<trkpt lat="30.9194847" lon="35.6980576">
<ele>791.36</ele>
<time>2015-11-22T10:14:52Z</time>
</trkpt>
<trkpt lat="30.9194560" lon="35.6980093">
<ele>790.51</ele>
<time>2015-11-22T10:14:55Z</time>
</trkpt>
<trkpt lat="30.9194256" lon="35.6979590">
<ele>790.78</ele>
<time>2015-11-22T10:14:58Z</time>
</trkpt>
<trkpt lat="30.9193980" lon="35.6979104">
<ele>791.32</ele>
<time>2015-11-22T10:15:01Z</time>
</trkpt>
<trkpt lat="30.9193696" lon="35.6978632">
<ele>793.01</ele>
<time>2015-11-22T10:15:04Z</time>
</trkpt>
<trkpt lat="30.9193393" lon="35.6978157">
<ele>793.35</ele>
<time>2015-11-22T10:15:07Z</time>
</trkpt>
<trkpt lat="30.9193134" lon="35.6977701">
<ele>793.64</ele>
<time>2015-11-22T10:15:10Z</time>
</trkpt>
<trkpt lat="30.9192864" lon="35.6977244">
<ele>792.30</ele>
<time>2015-11-22T10:15:13Z</time>
</trkpt>
<trkpt lat="30.9192584" lon="35.6976775">
<ele>794.51</ele>
<time>2015-11-22T10:15:16Z</time>
</trkpt>
<trkpt lat="30.9192338" lon="35.6976298">
<ele>795.41</ele>
<time>2015-11-22T10:15:19Z</time>
</trkpt>
<trkpt lat="30.9192044" lon="35.6975822">
<ele>795.65</ele>
<time>2015-11-22T10:15:22Z</time>
</trkpt>
<trkpt lat="30.9191728" lon="35.6975407">
<ele>794.18</ele>
<time>2015-11-22T10:15:25Z</time>
</trkpt>
<trkpt lat="30.9191428" lon="35.6975001">
<ele>793.87</ele>
<time>2015-11-22T10:15:28Z</time>
</trkpt>
<trkpt lat="30.9191106" lon="35.6974593">
<ele>784.20</ele>
<time>2015-11-22T10:15:31Z</time>
</trkpt>
<trkpt lat="30.9190847" lon="35.6974129">
<ele>782.50</ele>
<time>2015-11-22T10:15:34Z</time>
</trkpt>
<trkpt lat="30.9190488" lon="35.6973708">
<ele>782.41</ele>
<time>2015-11-22T10:15:37Z</time>
</trkpt>
<trkpt lat="30.9190203" lon="35.6973235">
<ele>783.27</ele>
<time>2015-11-22T10:15:40Z</time>
</trkpt>
<trkpt lat="30.9189897" lon="35.6972769">
<ele>783.88</ele>
<time>2015-11-22T10:15:43Z</time>
</trkpt>
<trkpt lat="30.9189610" lon="35.6972271">
<ele>785.08</ele>
<time>2015-11-22T10:15:46Z</time>
</trkpt>
<trkpt lat="30.9189286" lon="35.6971750">
<ele>785.10</ele>
<time>2015-11-22T10:15:49Z</time>
</trkpt>
<trkpt lat="30.9188966" lon="35.6971257">
<ele>785.36</ele>
<time>2015-11-22T10:15:52Z</time>
</trkpt>
<trkpt lat="30.9188650" lon="35.6970754">
<ele>786.14</ele>
<time>2015-11-22T10:15:55Z</time>
</trkpt>
<trkpt lat="30.9188365" lon="35.6970240">
<ele>786.36</ele>
<time>2015-11-22T10:15:58Z</time>
</trkpt>
<trkpt lat="30.9188019" lon="35.6969747">
<ele>787.52</ele>
<time>2015-11-22T10:16:01Z</time>
</trkpt>
<trkpt lat="30.9187673" lon="35.6969233">
<ele>786.16</ele>
<time>2015-11-22T10:16:04Z</time>
</trkpt>
<trkpt lat="30.9187307" lon="35.6968726">
<ele>785.49</ele>
<time>2015-11-22T10:16:07Z</time>
</trkpt>
<trkpt lat="30.9186896" lon="35.6968186">
<ele>784.16</ele>
<time>2015-11-22T10:16:10Z</time>
</trkpt>
<trkpt lat="30.9186527" lon="35.6967546">
<ele>784.36</ele>
<time>2015-11-22T10:16:13Z</time>
</trkpt>
<trkpt lat="30.9186174" lon="35.6966930">
<ele>784.89</ele>
<time>2015-11-22T10:16:16Z</time>
</trkpt>
<trkpt lat="30.9185810" lon="35.6966344">
<ele>785.08</ele>
<time>2015-11-22T10:16:19Z</time>
</trkpt>
<trkpt lat="30.9185458" lon="35.6965778">
<ele>786.98</ele>
<time>2015-11-22T10:16:22Z</time>
</trkpt>
<trkpt lat="30.9185058" lon="35.6965169">
<ele>787.09</ele>
<time>2015-11-22T10:16:25Z</time>
</trkpt>
<trkpt lat="30.9184648" lon="35.6964552">
<ele>788.11</ele>
<time>2015-11-22T10:16:28Z</time>
</trkpt>
<trkpt lat="30.9184377" lon="35.6964121">
<ele>788.07</ele>
<time>2015-11-22T10:16:30Z</time>
</trkpt>
<trkpt lat="30.9183982" lon="35.6963609">
<ele>788.85</ele>
<time>2015-11-22T10:16:33Z</time>
</trkpt>
<trkpt lat="30.9183586" lon="35.6963115">
<ele>797.95</ele>
<time>2015-11-22T10:16:36Z</time>
</trkpt>
<trkpt lat="30.9183190" lon="35.6962544">
<ele>803.96</ele>
<time>2015-11-22T10:16:39Z</time>
</trkpt>
<trkpt lat="30.9182806" lon="35.6961906">
<ele>806.09</ele>
<time>2015-11-22T10:16:42Z</time>
</trkpt>
<trkpt lat="30.9182555" lon="35.6961436">
<ele>806.07</ele>
<time>2015-11-22T10:16:44Z</time>
</trkpt>
<trkpt lat="30.9182283" lon="35.6961015">
<ele>807.81</ele>
<time>2015-11-22T10:16:46Z</time>
</trkpt>
<trkpt lat="30.9181851" lon="35.6960424">
<ele>808.82</ele>
<time>2015-11-22T10:16:49Z</time>
</trkpt>
<trkpt lat="30.9181461" lon="35.6959959">
<ele>809.82</ele>
<time>2015-11-22T10:16:52Z</time>
</trkpt>
<trkpt lat="30.9181117" lon="35.6959502">
<ele>810.82</ele>
<time>2015-11-22T10:16:55Z</time>
</trkpt>
<trkpt lat="30.9180741" lon="35.6959009">
<ele>811.32</ele>
<time>2015-11-22T10:16:58Z</time>
</trkpt>
<trkpt lat="30.9180379" lon="35.6958627">
<ele>810.64</ele>
<time>2015-11-22T10:17:01Z</time>
</trkpt>
<trkpt lat="30.9180040" lon="35.6958172">
<ele>809.55</ele>
<time>2015-11-22T10:17:04Z</time>
</trkpt>
<trkpt lat="30.9179671" lon="35.6957633">
<ele>809.41</ele>
<time>2015-11-22T10:17:07Z</time>
</trkpt>
<trkpt lat="30.9179339" lon="35.6957034">
<ele>810.15</ele>
<time>2015-11-22T10:17:10Z</time>
</trkpt>
<trkpt lat="30.9178986" lon="35.6956559">
<ele>811.11</ele>
<time>2015-11-22T10:17:13Z</time>
</trkpt>
<trkpt lat="30.9178701" lon="35.6956128">
<ele>812.11</ele>
<time>2015-11-22T10:17:16Z</time>
</trkpt>
<trkpt lat="30.9178369" lon="35.6955603">
<ele>812.36</ele>
<time>2015-11-22T10:17:19Z</time>
</trkpt>
<trkpt lat="30.9178141" lon="35.6955123">
<ele>812.39</ele>
<time>2015-11-22T10:17:22Z</time>
</trkpt>
<trkpt lat="30.9177869" lon="35.6954680">
<ele>811.52</ele>
<time>2015-11-22T10:17:25Z</time>
</trkpt>
<trkpt lat="30.9177484" lon="35.6954258">
<ele>812.96</ele>
<time>2015-11-22T10:17:29Z</time>
</trkpt>
<trkpt lat="30.9177138" lon="35.6953848">
<ele>813.83</ele>
<time>2015-11-22T10:18:21Z</time>
</trkpt>
<trkpt lat="30.9176785" lon="35.6953326">
<ele>813.42</ele>
<time>2015-11-22T10:18:25Z</time>
</trkpt>
<trkpt lat="30.9176445" lon="35.6952830">
<ele>811.65</ele>
<time>2015-11-22T10:18:28Z</time>
</trkpt>
<trkpt lat="30.9176068" lon="35.6952297">
<ele>813.18</ele>
<time>2015-11-22T10:18:31Z</time>
</trkpt>
<trkpt lat="30.9175726" lon="35.6951679">
<ele>812.37</ele>
<time>2015-11-22T10:18:34Z</time>
</trkpt>
<trkpt lat="30.9175334" lon="35.6951076">
<ele>812.89</ele>
<time>2015-11-22T10:18:37Z</time>
</trkpt>
<trkpt lat="30.9174928" lon="35.6950478">
<ele>812.58</ele>
<time>2015-11-22T10:18:40Z</time>
</trkpt>
<trkpt lat="30.9174665" lon="35.6950050">
<ele>812.44</ele>
<time>2015-11-22T10:18:42Z</time>
</trkpt>
<trkpt lat="30.9174255" lon="35.6949507">
<ele>798.02</ele>
<time>2015-11-22T10:18:45Z</time>
</trkpt>
<trkpt lat="30.9173843" lon="35.6948902">
<ele>796.47</ele>
<time>2015-11-22T10:18:48Z</time>
</trkpt>
<trkpt lat="30.9173564" lon="35.6948444">
<ele>796.16</ele>
<time>2015-11-22T10:18:50Z</time>
</trkpt>
<trkpt lat="30.9173258" lon="35.6947959">
<ele>795.59</ele>
<time>2015-11-22T10:18:52Z</time>
</trkpt>
<trkpt lat="30.9172960" lon="35.6947536">
<ele>796.69</ele>
<time>2015-11-22T10:18:54Z</time>
</trkpt>
<trkpt lat="30.9172572" lon="35.6947040">
<ele>795.56</ele>
<time>2015-11-22T10:18:57Z</time>
</trkpt>
<trkpt lat="30.9172211" lon="35.6946571">
<ele>796.66</ele>
<time>2015-11-22T10:19:00Z</time>
</trkpt>
<trkpt lat="30.9171894" lon="35.6945971">
<ele>797.68</ele>
<time>2015-11-22T10:19:03Z</time>
</trkpt>
<trkpt lat="30.9171474" lon="35.6945350">
<ele>797.80</ele>
<time>2015-11-22T10:19:06Z</time>
</trkpt>
<trkpt lat="30.9171179" lon="35.6944908">
<ele>798.75</ele>
<time>2015-11-22T10:19:08Z</time>
</trkpt>
<trkpt lat="30.9170879" lon="35.6944473">
<ele>798.98</ele>
<time>2015-11-22T10:19:10Z</time>
</trkpt>
<trkpt lat="30.9170538" lon="35.6944099">
<ele>799.04</ele>
<time>2015-11-22T10:19:12Z</time>
</trkpt>
<trkpt lat="30.9170178" lon="35.6943726">
<ele>800.06</ele>
<time>2015-11-22T10:19:14Z</time>
</trkpt>
<trkpt lat="30.9169890" lon="35.6943288">
<ele>799.56</ele>
<time>2015-11-22T10:19:16Z</time>
</trkpt>
<trkpt lat="30.9169622" lon="35.6942835">
<ele>799.69</ele>
<time>2015-11-22T10:19:18Z</time>
</trkpt>
<trkpt lat="30.9169344" lon="35.6942357">
<ele>799.47</ele>
<time>2015-11-22T10:19:20Z</time>
</trkpt>
<trkpt lat="30.9169073" lon="35.6941882">
<ele>799.41</ele>
<time>2015-11-22T10:19:22Z</time>
</trkpt>
<trkpt lat="30.9168783" lon="35.6941451">
<ele>799.40</ele>
<time>2015-11-22T10:19:24Z</time>
</trkpt>
<trkpt lat="30.9168441" lon="35.6941048">
<ele>799.40</ele>
<time>2015-11-22T10:19:26Z</time>
</trkpt>
<trkpt lat="30.9168125" lon="35.6940595">
<ele>798.39</ele>
<time>2015-11-22T10:19:28Z</time>
</trkpt>
<trkpt lat="30.9167872" lon="35.6940146">
<ele>797.14</ele>
<time>2015-11-22T10:19:30Z</time>
</trkpt>
<trkpt lat="30.9167596" lon="35.6939693">
<ele>795.83</ele>
<time>2015-11-22T10:19:32Z</time>
</trkpt>
<trkpt lat="30.9167277" lon="35.6939227">
<ele>796.00</ele>
<time>2015-11-22T10:19:34Z</time>
</trkpt>
<trkpt lat="30.9166949" lon="35.6938743">
<ele>797.55</ele>
<time>2015-11-22T10:19:36Z</time>
</trkpt>
<trkpt lat="30.9166625" lon="35.6938257">
<ele>800.18</ele>
<time>2015-11-22T10:19:38Z</time>
</trkpt>
<trkpt lat="30.9166303" lon="35.6937796">
<ele>801.59</ele>
<time>2015-11-22T10:19:40Z</time>
</trkpt>
<trkpt lat="30.9165989" lon="35.6937349">
<ele>800.94</ele>
<time>2015-11-22T10:19:42Z</time>
</trkpt>
<trkpt lat="30.9165691" lon="35.6936890">
<ele>801.28</ele>
<time>2015-11-22T10:19:44Z</time>
</trkpt>
<trkpt lat="30.9165377" lon="35.6936424">
<ele>801.87</ele>
<time>2015-11-22T10:19:46Z</time>
</trkpt>
<trkpt lat="30.9165043" lon="35.6935968">
<ele>803.26</ele>
<time>2015-11-22T10:19:48Z</time>
</trkpt>
<trkpt lat="30.9164731" lon="35.6935527">
<ele>805.11</ele>
<time>2015-11-22T10:19:50Z</time>
</trkpt>
<trkpt lat="30.9164418" lon="35.6935068">
<ele>805.57</ele>
<time>2015-11-22T10:19:52Z</time>
</trkpt>
<trkpt lat="30.9164105" lon="35.6934598">
<ele>803.44</ele>
<time>2015-11-22T10:19:54Z</time>
</trkpt>
<trkpt lat="30.9163770" lon="35.6934132">
<ele>799.91</ele>
<time>2015-11-22T10:19:56Z</time>
</trkpt>
<trkpt lat="30.9163430" lon="35.6933665">
<ele>799.52</ele>
<time>2015-11-22T10:19:58Z</time>
</trkpt>
<trkpt lat="30.9163111" lon="35.6933172">
<ele>800.43</ele>
<time>2015-11-22T10:20:00Z</time>
</trkpt>
<trkpt lat="30.9162790" lon="35.6932703">
<ele>798.40</ele>
<time>2015-11-22T10:20:02Z</time>
</trkpt>
<trkpt lat="30.9162468" lon="35.6932229">
<ele>798.90</ele>
<time>2015-11-22T10:20:04Z</time>
</trkpt>
<trkpt lat="30.9162161" lon="35.6931750">
<ele>800.52</ele>
<time>2015-11-22T10:20:06Z</time>
</trkpt>
<trkpt lat="30.9161841" lon="35.6931314">
<ele>801.18</ele>
<time>2015-11-22T10:20:08Z</time>
</trkpt>
<trkpt lat="30.9161508" lon="35.6930891">
<ele>801.34</ele>
<time>2015-11-22T10:20:10Z</time>
</trkpt>
<trkpt lat="30.9161169" lon="35.6930436">
<ele>801.38</ele>
<time>2015-11-22T10:20:12Z</time>
</trkpt>
<trkpt lat="30.9160847" lon="35.6929996">
<ele>800.64</ele>
<time>2015-11-22T10:20:14Z</time>
</trkpt>
<trkpt lat="30.9160511" lon="35.6929516">
<ele>800.71</ele>
<time>2015-11-22T10:20:16Z</time>
</trkpt>
<trkpt lat="30.9160195" lon="35.6928956">
<ele>799.22</ele>
<time>2015-11-22T10:20:18Z</time>
</trkpt>
<trkpt lat="30.9159884" lon="35.6928448">
<ele>797.85</ele>
<time>2015-11-22T10:20:20Z</time>
</trkpt>
<trkpt lat="30.9159564" lon="35.6927960">
<ele>798.76</ele>
<time>2015-11-22T10:20:22Z</time>
</trkpt>
<trkpt lat="30.9159293" lon="35.6927416">
<ele>797.49</ele>
<time>2015-11-22T10:20:24Z</time>
</trkpt>
<trkpt lat="30.9159007" lon="35.6926906">
<ele>797.92</ele>
<time>2015-11-22T10:20:26Z</time>
</trkpt>
<trkpt lat="30.9158710" lon="35.6926467">
<ele>797.52</ele>
<time>2015-11-22T10:20:28Z</time>
</trkpt>
<trkpt lat="30.9158399" lon="35.6926051">
<ele>798.18</ele>
<time>2015-11-22T10:20:30Z</time>
</trkpt>
<trkpt lat="30.9158087" lon="35.6925614">
<ele>798.59</ele>
<time>2015-11-22T10:20:32Z</time>
</trkpt>
<trkpt lat="30.9157726" lon="35.6925230">
<ele>799.19</ele>
<time>2015-11-22T10:20:34Z</time>
</trkpt>
<trkpt lat="30.9157223" lon="35.6924894">
<ele>799.87</ele>
<time>2015-11-22T10:20:37Z</time>
</trkpt>
<trkpt lat="30.9156822" lon="35.6924413">
<ele>801.08</ele>
<time>2015-11-22T10:20:40Z</time>
</trkpt>
<trkpt lat="30.9156219" lon="35.6924328">
<ele>800.56</ele>
<time>2015-11-22T10:20:44Z</time>
</trkpt>
<trkpt lat="30.9155715" lon="35.6924100">
<ele>800.66</ele>
<time>2015-11-22T10:20:47Z</time>
</trkpt>
<trkpt lat="30.9155151" lon="35.6923999">
<ele>803.55</ele>
<time>2015-11-22T10:20:50Z</time>
</trkpt>
<trkpt lat="30.9154579" lon="35.6924076">
<ele>801.29</ele>
<time>2015-11-22T10:20:53Z</time>
</trkpt>
<trkpt lat="30.9154052" lon="35.6924237">
<ele>803.76</ele>
<time>2015-11-22T10:20:56Z</time>
</trkpt>
<trkpt lat="30.9153526" lon="35.6924422">
<ele>808.44</ele>
<time>2015-11-22T10:20:59Z</time>
</trkpt>
<trkpt lat="30.9153029" lon="35.6924654">
<ele>812.15</ele>
<time>2015-11-22T10:21:02Z</time>
</trkpt>
<trkpt lat="30.9152547" lon="35.6924822">
<ele>813.24</ele>
<time>2015-11-22T10:21:05Z</time>
</trkpt>
<trkpt lat="30.9152071" lon="35.6925028">
<ele>813.50</ele>
<time>2015-11-22T10:21:08Z</time>
</trkpt>
<trkpt lat="30.9151604" lon="35.6925244">
<ele>811.91</ele>
<time>2015-11-22T10:21:11Z</time>
</trkpt>
<trkpt lat="30.9151170" lon="35.6925526">
<ele>810.71</ele>
<time>2015-11-22T10:21:14Z</time>
</trkpt>
<trkpt lat="30.9150669" lon="35.6925732">
<ele>809.68</ele>
<time>2015-11-22T10:21:17Z</time>
</trkpt>
<trkpt lat="30.9150226" lon="35.6925872">
<ele>808.68</ele>
<time>2015-11-22T10:21:20Z</time>
</trkpt>
<trkpt lat="30.9149764" lon="35.6925998">
<ele>811.93</ele>
<time>2015-11-22T10:21:23Z</time>
</trkpt>
<trkpt lat="30.9149212" lon="35.6926285">
<ele>810.49</ele>
<time>2015-11-22T10:21:27Z</time>
</trkpt>
<trkpt lat="30.9148804" lon="35.6926539">
<ele>810.16</ele>
<time>2015-11-22T10:21:30Z</time>
</trkpt>
<trkpt lat="30.9148284" lon="35.6926704">
<ele>808.50</ele>
<time>2015-11-22T10:21:34Z</time>
</trkpt>
<trkpt lat="30.9147720" lon="35.6926836">
<ele>808.21</ele>
<time>2015-11-22T10:21:38Z</time>
</trkpt>
<trkpt lat="30.9147154" lon="35.6927053">
<ele>808.95</ele>
<time>2015-11-22T10:21:42Z</time>
</trkpt>
<trkpt lat="30.9146714" lon="35.6927198">
<ele>806.96</ele>
<time>2015-11-22T10:21:45Z</time>
</trkpt>
<trkpt lat="30.9146286" lon="35.6927377">
<ele>809.34</ele>
<time>2015-11-22T10:21:48Z</time>
</trkpt>
<trkpt lat="30.9145835" lon="35.6927543">
<ele>812.01</ele>
<time>2015-11-22T10:21:51Z</time>
</trkpt>
<trkpt lat="30.9145384" lon="35.6927778">
<ele>811.72</ele>
<time>2015-11-22T10:21:54Z</time>
</trkpt>
<trkpt lat="30.9144877" lon="35.6928112">
<ele>811.91</ele>
<time>2015-11-22T10:21:58Z</time>
</trkpt>
<trkpt lat="30.9144400" lon="35.6928406">
<ele>813.80</ele>
<time>2015-11-22T10:22:02Z</time>
</trkpt>
<trkpt lat="30.9143884" lon="35.6928605">
<ele>813.23</ele>
<time>2015-11-22T10:22:06Z</time>
</trkpt>
<trkpt lat="30.9143345" lon="35.6928840">
<ele>812.95</ele>
<time>2015-11-22T10:22:10Z</time>
</trkpt>
<trkpt lat="30.9142920" lon="35.6929024">
<ele>815.09</ele>
<time>2015-11-22T10:22:13Z</time>
</trkpt>
<trkpt lat="30.9142502" lon="35.6929229">
<ele>816.61</ele>
<time>2015-11-22T10:22:16Z</time>
</trkpt>
<trkpt lat="30.9142034" lon="35.6929502">
<ele>815.22</ele>
<time>2015-11-22T10:22:20Z</time>
</trkpt>
<trkpt lat="30.9141588" lon="35.6929806">
<ele>818.38</ele>
<time>2015-11-22T10:22:24Z</time>
</trkpt>
<trkpt lat="30.9141099" lon="35.6930038">
<ele>819.14</ele>
<time>2015-11-22T10:22:28Z</time>
</trkpt>
<trkpt lat="30.9140564" lon="35.6930155">
<ele>819.82</ele>
<time>2015-11-22T10:22:32Z</time>
</trkpt>
<trkpt lat="30.9140037" lon="35.6930364">
<ele>817.30</ele>
<time>2015-11-22T10:22:36Z</time>
</trkpt>
<trkpt lat="30.9139601" lon="35.6930530">
<ele>816.88</ele>
<time>2015-11-22T10:22:39Z</time>
</trkpt>
<trkpt lat="30.9139160" lon="35.6930696">
<ele>818.95</ele>
<time>2015-11-22T10:22:42Z</time>
</trkpt>
<trkpt lat="30.9138736" lon="35.6930881">
<ele>814.09</ele>
<time>2015-11-22T10:22:45Z</time>
</trkpt>
<trkpt lat="30.9138329" lon="35.6931105">
<ele>814.73</ele>
<time>2015-11-22T10:22:48Z</time>
</trkpt>
<trkpt lat="30.9137833" lon="35.6931440">
<ele>819.85</ele>
<time>2015-11-22T10:22:52Z</time>
</trkpt>
<trkpt lat="30.9137322" lon="35.6931663">
<ele>822.42</ele>
<time>2015-11-22T10:22:56Z</time>
</trkpt>
<trkpt lat="30.9136880" lon="35.6931807">
<ele>823.52</ele>
<time>2015-11-22T10:22:59Z</time>
</trkpt>
<trkpt lat="30.9136445" lon="35.6931956">
<ele>821.79</ele>
<time>2015-11-22T10:23:02Z</time>
</trkpt>
<trkpt lat="30.9136012" lon="35.6932103">
<ele>821.82</ele>
<time>2015-11-22T10:23:05Z</time>
</trkpt>
<trkpt lat="30.9135491" lon="35.6932244">
<ele>819.20</ele>
<time>2015-11-22T10:23:08Z</time>
</trkpt>
<trkpt lat="30.9134997" lon="35.6932301">
<ele>815.24</ele>
<time>2015-11-22T10:23:11Z</time>
</trkpt>
<trkpt lat="30.9134411" lon="35.6932449">
<ele>812.38</ele>
<time>2015-11-22T10:23:15Z</time>
</trkpt>
<trkpt lat="30.9133950" lon="35.6932501">
<ele>813.64</ele>
<time>2015-11-22T10:23:18Z</time>
</trkpt>
<trkpt lat="30.9133487" lon="35.6932573">
<ele>813.93</ele>
<time>2015-11-22T10:23:21Z</time>
</trkpt>
<trkpt lat="30.9132892" lon="35.6932625">
<ele>812.49</ele>
<time>2015-11-22T10:23:25Z</time>
</trkpt>
<trkpt lat="30.9132391" lon="35.6932629">
<ele>812.41</ele>
<time>2015-11-22T10:23:28Z</time>
</trkpt>
<trkpt lat="30.9131866" lon="35.6932555">
<ele>812.96</ele>
<time>2015-11-22T10:23:32Z</time>
</trkpt>
<trkpt lat="30.9131291" lon="35.6932568">
<ele>814.12</ele>
<time>2015-11-22T10:23:36Z</time>
</trkpt>
<trkpt lat="30.9130774" lon="35.6932558">
<ele>809.88</ele>
<time>2015-11-22T10:23:40Z</time>
</trkpt>
<trkpt lat="30.9130305" lon="35.6932589">
<ele>808.08</ele>
<time>2015-11-22T10:23:43Z</time>
</trkpt>
<trkpt lat="30.9129769" lon="35.6932501">
<ele>807.60</ele>
<time>2015-11-22T10:23:46Z</time>
</trkpt>
<trkpt lat="30.9129321" lon="35.6932388">
<ele>809.95</ele>
<time>2015-11-22T10:23:48Z</time>
</trkpt>
<trkpt lat="30.9128676" lon="35.6932285">
<ele>809.21</ele>
<time>2015-11-22T10:23:51Z</time>
</trkpt>
<trkpt lat="30.9128118" lon="35.6932179">
<ele>811.00</ele>
<time>2015-11-22T10:23:54Z</time>
</trkpt>
<trkpt lat="30.9127572" lon="35.6932104">
<ele>809.47</ele>
<time>2015-11-22T10:23:57Z</time>
</trkpt>
<trkpt lat="30.9127048" lon="35.6931924">
<ele>809.65</ele>
<time>2015-11-22T10:24:00Z</time>
</trkpt>
<trkpt lat="30.9126452" lon="35.6931631">
<ele>822.43</ele>
<time>2015-11-22T10:24:03Z</time>
</trkpt>
<trkpt lat="30.9125912" lon="35.6931315">
<ele>825.65</ele>
<time>2015-11-22T10:24:06Z</time>
</trkpt>
<trkpt lat="30.9125391" lon="35.6931020">
<ele>823.43</ele>
<time>2015-11-22T10:24:09Z</time>
</trkpt>
<trkpt lat="30.9124867" lon="35.6930723">
<ele>819.15</ele>
<time>2015-11-22T10:24:12Z</time>
</trkpt>
<trkpt lat="30.9124373" lon="35.6930464">
<ele>818.49</ele>
<time>2015-11-22T10:24:15Z</time>
</trkpt>
<trkpt lat="30.9123953" lon="35.6930206">
<ele>810.66</ele>
<time>2015-11-22T10:24:18Z</time>
</trkpt>
<trkpt lat="30.9123532" lon="35.6929920">
<ele>805.60</ele>
<time>2015-11-22T10:24:22Z</time>
</trkpt>
<trkpt lat="30.9123075" lon="35.6929706">
<ele>805.53</ele>
<time>2015-11-22T10:24:26Z</time>
</trkpt>
<trkpt lat="30.9122625" lon="35.6929434">
<ele>814.29</ele>
<time>2015-11-22T10:24:29Z</time>
</trkpt>
<trkpt lat="30.9122190" lon="35.6929172">
<ele>834.26</ele>
<time>2015-11-22T10:24:32Z</time>
</trkpt>
<trkpt lat="30.9121814" lon="35.6928864">
<ele>851.50</ele>
<time>2015-11-22T10:24:35Z</time>
</trkpt>
<trkpt lat="30.9121313" lon="35.6928409">
<ele>856.53</ele>
<time>2015-11-22T10:24:38Z</time>
</trkpt>
<trkpt lat="30.9120897" lon="35.6928020">
<ele>858.04</ele>
<time>2015-11-22T10:24:41Z</time>
</trkpt>
<trkpt lat="30.9120442" lon="35.6927638">
<ele>858.85</ele>
<time>2015-11-22T10:24:44Z</time>
</trkpt>
<trkpt lat="30.9120000" lon="35.6927276">
<ele>859.26</ele>
<time>2015-11-22T10:24:46Z</time>
</trkpt>
<trkpt lat="30.9119566" lon="35.6926924">
<ele>859.36</ele>
<time>2015-11-22T10:24:48Z</time>
</trkpt>
<trkpt lat="30.9119197" lon="35.6926577">
<ele>859.39</ele>
<time>2015-11-22T10:24:50Z</time>
</trkpt>
<trkpt lat="30.9118718" lon="35.6926200">
<ele>858.89</ele>
<time>2015-11-22T10:24:53Z</time>
</trkpt>
<trkpt lat="30.9118187" lon="35.6925756">
<ele>859.33</ele>
<time>2015-11-22T10:24:56Z</time>
</trkpt>
<trkpt lat="30.9117705" lon="35.6925293">
<ele>858.63</ele>
<time>2015-11-22T10:24:58Z</time>
</trkpt>
<trkpt lat="30.9117249" lon="35.6924883">
<ele>858.45</ele>
<time>2015-11-22T10:25:00Z</time>
</trkpt>
<trkpt lat="30.9116831" lon="35.6924538">
<ele>858.41</ele>
<time>2015-11-22T10:25:02Z</time>
</trkpt>
<trkpt lat="30.9116272" lon="35.6924035">
<ele>858.40</ele>
<time>2015-11-22T10:25:05Z</time>
</trkpt>
<trkpt lat="30.9115844" lon="35.6923622">
<ele>858.39</ele>
<time>2015-11-22T10:25:07Z</time>
</trkpt>
<trkpt lat="30.9115426" lon="35.6923190">
<ele>857.64</ele>
<time>2015-11-22T10:25:09Z</time>
</trkpt>
<trkpt lat="30.9115029" lon="35.6922816">
<ele>857.46</ele>
<time>2015-11-22T10:25:11Z</time>
</trkpt>
<trkpt lat="30.9114589" lon="35.6922330">
<ele>857.40</ele>
<time>2015-11-22T10:25:14Z</time>
</trkpt>
<trkpt lat="30.9114176" lon="35.6921943">
<ele>857.65</ele>
<time>2015-11-22T10:25:16Z</time>
</trkpt>
<trkpt lat="30.9113760" lon="35.6921546">
<ele>857.46</ele>
<time>2015-11-22T10:25:18Z</time>
</trkpt>
<trkpt lat="30.9113382" lon="35.6921187">
<ele>857.41</ele>
<time>2015-11-22T10:25:20Z</time>
</trkpt>
<trkpt lat="30.9112991" lon="35.6920871">
<ele>857.40</ele>
<time>2015-11-22T10:25:22Z</time>
</trkpt>
<trkpt lat="30.9112470" lon="35.6920415">
<ele>857.39</ele>
<time>2015-11-22T10:25:25Z</time>
</trkpt>
<trkpt lat="30.9111942" lon="35.6919952">
<ele>857.14</ele>
<time>2015-11-22T10:25:28Z</time>
</trkpt>
<trkpt lat="30.9111452" lon="35.6919550">
<ele>857.86</ele>
<time>2015-11-22T10:25:31Z</time>
</trkpt>
<trkpt lat="30.9110977" lon="35.6919131">
<ele>858.20</ele>
<time>2015-11-22T10:25:34Z</time>
</trkpt>
<trkpt lat="30.9110612" lon="35.6918799">
<ele>858.30</ele>
<time>2015-11-22T10:25:36Z</time>
</trkpt>
<trkpt lat="30.9110156" lon="35.6918440">
<ele>858.87</ele>
<time>2015-11-22T10:25:38Z</time>
</trkpt>
<trkpt lat="30.9109669" lon="35.6918047">
<ele>859.26</ele>
<time>2015-11-22T10:25:40Z</time>
</trkpt>
<trkpt lat="30.9109209" lon="35.6917686">
<ele>859.36</ele>
<time>2015-11-22T10:25:42Z</time>
</trkpt>
<trkpt lat="30.9108825" lon="35.6917405">
<ele>859.39</ele>
<time>2015-11-22T10:25:44Z</time>
</trkpt>
<trkpt lat="30.9108436" lon="35.6917124">
<ele>860.14</ele>
<time>2015-11-22T10:25:46Z</time>
</trkpt>
<trkpt lat="30.9108013" lon="35.6916782">
<ele>860.33</ele>
<time>2015-11-22T10:25:48Z</time>
</trkpt>
<trkpt lat="30.9107555" lon="35.6916412">
<ele>860.38</ele>
<time>2015-11-22T10:25:50Z</time>
</trkpt>
<trkpt lat="30.9107060" lon="35.6916105">
<ele>861.14</ele>
<time>2015-11-22T10:25:52Z</time>
</trkpt>
<trkpt lat="30.9106643" lon="35.6915816">
<ele>861.33</ele>
<time>2015-11-22T10:25:54Z</time>
</trkpt>
<trkpt lat="30.9106072" lon="35.6915504">
<ele>860.89</ele>
<time>2015-11-22T10:25:57Z</time>
</trkpt>
<trkpt lat="30.9105618" lon="35.6915275">
<ele>860.52</ele>
<time>2015-11-22T10:25:59Z</time>
</trkpt>
<trkpt lat="30.9105121" lon="35.6914996">
<ele>860.17</ele>
<time>2015-11-22T10:26:01Z</time>
</trkpt>
<trkpt lat="30.9104606" lon="35.6914696">
<ele>860.34</ele>
<time>2015-11-22T10:26:03Z</time>
</trkpt>
<trkpt lat="30.9104151" lon="35.6914413">
<ele>860.13</ele>
<time>2015-11-22T10:26:05Z</time>
</trkpt>
<trkpt lat="30.9103712" lon="35.6914196">
<ele>859.58</ele>
<time>2015-11-22T10:26:07Z</time>
</trkpt>
<trkpt lat="30.9103257" lon="35.6914002">
<ele>859.44</ele>
<time>2015-11-22T10:26:09Z</time>
</trkpt>
<trkpt lat="30.9102794" lon="35.6913800">
<ele>859.41</ele>
<time>2015-11-22T10:26:11Z</time>
</trkpt>
<trkpt lat="30.9102302" lon="35.6913625">
<ele>859.65</ele>
<time>2015-11-22T10:26:13Z</time>
</trkpt>
<trkpt lat="30.9101817" lon="35.6913460">
<ele>858.96</ele>
<time>2015-11-22T10:26:15Z</time>
</trkpt>
<trkpt lat="30.9101331" lon="35.6913311">
<ele>858.53</ele>
<time>2015-11-22T10:26:17Z</time>
</trkpt>
<trkpt lat="30.9100854" lon="35.6913170">
<ele>858.43</ele>
<time>2015-11-22T10:26:19Z</time>
</trkpt>
<trkpt lat="30.9100333" lon="35.6913084">
<ele>858.40</ele>
<time>2015-11-22T10:26:22Z</time>
</trkpt>
<trkpt lat="30.9099825" lon="35.6912883">
<ele>858.77</ele>
<time>2015-11-22T10:26:25Z</time>
</trkpt>
<trkpt lat="30.9099189" lon="35.6912706">
<ele>859.82</ele>
<time>2015-11-22T10:26:28Z</time>
</trkpt>
<trkpt lat="30.9098724" lon="35.6912589">
<ele>861.00</ele>
<time>2015-11-22T10:26:30Z</time>
</trkpt>
<trkpt lat="30.9098245" lon="35.6912456">
<ele>860.80</ele>
<time>2015-11-22T10:26:32Z</time>
</trkpt>
<trkpt lat="30.9097758" lon="35.6912301">
<ele>860.99</ele>
<time>2015-11-22T10:26:34Z</time>
</trkpt>
<trkpt lat="30.9097256" lon="35.6912126">
<ele>861.54</ele>
<time>2015-11-22T10:26:36Z</time>
</trkpt>
<trkpt lat="30.9096721" lon="35.6911963">
<ele>862.18</ele>
<time>2015-11-22T10:26:38Z</time>
</trkpt>
<trkpt lat="30.9096184" lon="35.6911773">
<ele>861.84</ele>
<time>2015-11-22T10:26:40Z</time>
</trkpt>
<trkpt lat="30.9095658" lon="35.6911552">
<ele>861.26</ele>
<time>2015-11-22T10:26:42Z</time>
</trkpt>
<trkpt lat="30.9095148" lon="35.6911387">
<ele>861.11</ele>
<time>2015-11-22T10:26:44Z</time>
</trkpt>
<trkpt lat="30.9094615" lon="35.6911273">
<ele>861.82</ele>
<time>2015-11-22T10:26:46Z</time>
</trkpt>
<trkpt lat="30.9094086" lon="35.6911141">
<ele>862.00</ele>
<time>2015-11-22T10:26:48Z</time>
</trkpt>
<trkpt lat="30.9093499" lon="35.6910989">
<ele>863.30</ele>
<time>2015-11-22T10:26:50Z</time>
</trkpt>
<trkpt lat="30.9092945" lon="35.6910862">
<ele>865.37</ele>
<time>2015-11-22T10:26:52Z</time>
</trkpt>
<trkpt lat="30.9092405" lon="35.6910750">
<ele>866.64</ele>
<time>2015-11-22T10:26:54Z</time>
</trkpt>
<trkpt lat="30.9091882" lon="35.6910682">
<ele>866.70</ele>
<time>2015-11-22T10:26:56Z</time>
</trkpt>
<trkpt lat="30.9091379" lon="35.6910551">
<ele>866.22</ele>
<time>2015-11-22T10:26:58Z</time>
</trkpt>
<trkpt lat="30.9090862" lon="35.6910398">
<ele>866.35</ele>
<time>2015-11-22T10:27:00Z</time>
</trkpt>
<trkpt lat="30.9090324" lon="35.6910247">
<ele>867.13</ele>
<time>2015-11-22T10:27:02Z</time>
</trkpt>
<trkpt lat="30.9089794" lon="35.6910090">
<ele>868.08</ele>
<time>2015-11-22T10:27:04Z</time>
</trkpt>
<trkpt lat="30.9089250" lon="35.6909947">
<ele>867.07</ele>
<time>2015-11-22T10:27:06Z</time>
</trkpt>
<trkpt lat="30.9088701" lon="35.6909827">
<ele>867.81</ele>
<time>2015-11-22T10:27:08Z</time>
</trkpt>
<trkpt lat="30.9088135" lon="35.6909664">
<ele>869.50</ele>
<time>2015-11-22T10:27:10Z</time>
</trkpt>
<trkpt lat="30.9087572" lon="35.6909490">
<ele>871.42</ele>
<time>2015-11-22T10:27:12Z</time>
</trkpt>
<trkpt lat="30.9087017" lon="35.6909324">
<ele>872.15</ele>
<time>2015-11-22T10:27:14Z</time>
</trkpt>
<trkpt lat="30.9086533" lon="35.6909211">
<ele>871.58</ele>
<time>2015-11-22T10:27:16Z</time>
</trkpt>
<trkpt lat="30.9085882" lon="35.6909005">
<ele>870.54</ele>
<time>2015-11-22T10:27:19Z</time>
</trkpt>
<trkpt lat="30.9085417" lon="35.6908862">
<ele>870.43</ele>
<time>2015-11-22T10:27:21Z</time>
</trkpt>
<trkpt lat="30.9084968" lon="35.6908640">
<ele>869.65</ele>
<time>2015-11-22T10:27:23Z</time>
</trkpt>
<trkpt lat="30.9084484" lon="35.6908456">
<ele>870.21</ele>
<time>2015-11-22T10:27:25Z</time>
</trkpt>
<trkpt lat="30.9083994" lon="35.6908297">
<ele>869.85</ele>
<time>2015-11-22T10:27:27Z</time>
</trkpt>
<trkpt lat="30.9083506" lon="35.6908123">
<ele>869.26</ele>
<time>2015-11-22T10:27:29Z</time>
</trkpt>
<trkpt lat="30.9083001" lon="35.6907988">
<ele>869.36</ele>
<time>2015-11-22T10:27:31Z</time>
</trkpt>
<trkpt lat="30.9082456" lon="35.6907883">
<ele>869.39</ele>
<time>2015-11-22T10:27:33Z</time>
</trkpt>
<trkpt lat="30.9081918" lon="35.6907758">
<ele>869.89</ele>
<time>2015-11-22T10:27:35Z</time>
</trkpt>
<trkpt lat="30.9081407" lon="35.6907582">
<ele>870.27</ele>
<time>2015-11-22T10:27:37Z</time>
</trkpt>
<trkpt lat="30.9080910" lon="35.6907423">
<ele>871.36</ele>
<time>2015-11-22T10:27:39Z</time>
</trkpt>
<trkpt lat="30.9080439" lon="35.6907269">
<ele>871.89</ele>
<time>2015-11-22T10:27:41Z</time>
</trkpt>
<trkpt lat="30.9079812" lon="35.6907099">
<ele>870.83</ele>
<time>2015-11-22T10:27:44Z</time>
</trkpt>
<trkpt lat="30.9079204" lon="35.6906988">
<ele>872.07</ele>
<time>2015-11-22T10:27:47Z</time>
</trkpt>
<trkpt lat="30.9078556" lon="35.6906846">
<ele>871.85</ele>
<time>2015-11-22T10:27:50Z</time>
</trkpt>
<trkpt lat="30.9077893" lon="35.6906654">
<ele>871.20</ele>
<time>2015-11-22T10:27:53Z</time>
</trkpt>
<trkpt lat="30.9077405" lon="35.6906536">
<ele>871.85</ele>
<time>2015-11-22T10:27:55Z</time>
</trkpt>
<trkpt lat="30.9076904" lon="35.6906478">
<ele>873.51</ele>
<time>2015-11-22T10:27:57Z</time>
</trkpt>
<trkpt lat="30.9076415" lon="35.6906350">
<ele>874.42</ele>
<time>2015-11-22T10:27:59Z</time>
</trkpt>
<trkpt lat="30.9075917" lon="35.6906225">
<ele>875.15</ele>
<time>2015-11-22T10:28:01Z</time>
</trkpt>
<trkpt lat="30.9075432" lon="35.6906157">
<ele>874.08</ele>
<time>2015-11-22T10:28:03Z</time>
</trkpt>
<trkpt lat="30.9074792" lon="35.6906142">
<ele>874.61</ele>
<time>2015-11-22T10:28:06Z</time>
</trkpt>
<trkpt lat="30.9074183" lon="35.6905982">
<ele>876.17</ele>
<time>2015-11-22T10:28:09Z</time>
</trkpt>
<trkpt lat="30.9073714" lon="35.6905944">
<ele>877.59</ele>
<time>2015-11-22T10:28:11Z</time>
</trkpt>
<trkpt lat="30.9073077" lon="35.6905910">
<ele>878.79</ele>
<time>2015-11-22T10:28:14Z</time>
</trkpt>
<trkpt lat="30.9072489" lon="35.6905946">
<ele>879.82</ele>
<time>2015-11-22T10:28:17Z</time>
</trkpt>
<trkpt lat="30.9071880" lon="35.6905860">
<ele>880.82</ele>
<time>2015-11-22T10:28:20Z</time>
</trkpt>
<trkpt lat="30.9071227" lon="35.6905738">
<ele>882.32</ele>
<time>2015-11-22T10:28:23Z</time>
</trkpt>
<trkpt lat="30.9070777" lon="35.6905675">
<ele>883.63</ele>
<time>2015-11-22T10:28:25Z</time>
</trkpt>
<trkpt lat="30.9070311" lon="35.6905633">
<ele>883.95</ele>
<time>2015-11-22T10:28:27Z</time>
</trkpt>
<trkpt lat="30.9069843" lon="35.6905578">
<ele>885.53</ele>
<time>2015-11-22T10:28:29Z</time>
</trkpt>
<trkpt lat="30.9069364" lon="35.6905487">
<ele>885.18</ele>
<time>2015-11-22T10:28:31Z</time>
</trkpt>
<trkpt lat="30.9068892" lon="35.6905349">
<ele>885.09</ele>
<time>2015-11-22T10:28:33Z</time>
</trkpt>
<trkpt lat="30.9068460" lon="35.6905173">
<ele>885.32</ele>
<time>2015-11-22T10:28:35Z</time>
</trkpt>
<trkpt lat="30.9067853" lon="35.6904905">
<ele>885.01</ele>
<time>2015-11-22T10:28:38Z</time>
</trkpt>
<trkpt lat="30.9067260" lon="35.6904718">
<ele>883.35</ele>
<time>2015-11-22T10:28:41Z</time>
</trkpt>
<trkpt lat="30.9066618" lon="35.6904799">
<ele>885.51</ele>
<time>2015-11-22T10:28:44Z</time>
</trkpt>
<trkpt lat="30.9065998" lon="35.6904581">
<ele>885.78</ele>
<time>2015-11-22T10:28:47Z</time>
</trkpt>
<trkpt lat="30.9066065" lon="35.6904036">
<ele>871.40</ele>
<time>2015-11-22T10:45:50Z</time>
</trkpt>
<trkpt lat="30.9065795" lon="35.6903571">
<ele>871.30</ele>
<time>2015-11-22T10:45:55Z</time>
</trkpt>
<trkpt lat="30.9065800" lon="35.6902977">
<ele>876.38</ele>
<time>2015-11-22T10:47:25Z</time>
</trkpt>
<trkpt lat="30.9065522" lon="35.6902565">
<ele>881.33</ele>
<time>2015-11-22T10:47:38Z</time>
</trkpt>
<trkpt lat="30.9065213" lon="35.6902114">
<ele>883.08</ele>
<time>2015-11-22T10:47:42Z</time>
</trkpt>
<trkpt lat="30.9064903" lon="35.6901644">
<ele>885.19</ele>
<time>2015-11-22T10:47:46Z</time>
</trkpt>
<trkpt lat="30.9064593" lon="35.6901154">
<ele>888.13</ele>
<time>2015-11-22T10:47:50Z</time>
</trkpt>
<trkpt lat="30.9064236" lon="35.6900786">
<ele>891.11</ele>
<time>2015-11-22T10:47:53Z</time>
</trkpt>
<trkpt lat="30.9063934" lon="35.6900386">
<ele>891.36</ele>
<time>2015-11-22T10:47:56Z</time>
</trkpt>
<trkpt lat="30.9063638" lon="35.6899991">
<ele>892.14</ele>
<time>2015-11-22T10:47:59Z</time>
</trkpt>
<trkpt lat="30.9063222" lon="35.6899590">
<ele>892.00</ele>
<time>2015-11-22T10:48:03Z</time>
</trkpt>
<trkpt lat="30.9062816" lon="35.6899222">
<ele>887.62</ele>
<time>2015-11-22T10:48:07Z</time>
</trkpt>
<trkpt lat="30.9062370" lon="35.6898862">
<ele>884.16</ele>
<time>2015-11-22T10:48:11Z</time>
</trkpt>
<trkpt lat="30.9061844" lon="35.6898626">
<ele>883.82</ele>
<time>2015-11-22T10:48:15Z</time>
</trkpt>
<trkpt lat="30.9061299" lon="35.6898556">
<ele>885.98</ele>
<time>2015-11-22T10:48:19Z</time>
</trkpt>
<trkpt lat="30.9060734" lon="35.6898394">
<ele>887.81</ele>
<time>2015-11-22T10:48:23Z</time>
</trkpt>
<trkpt lat="30.9060280" lon="35.6898327">
<ele>887.57</ele>
<time>2015-11-22T10:48:26Z</time>
</trkpt>
<trkpt lat="30.9059813" lon="35.6898330">
<ele>888.17</ele>
<time>2015-11-22T10:48:29Z</time>
</trkpt>
<trkpt lat="30.9059252" lon="35.6898308">
<ele>886.99</ele>
<time>2015-11-22T10:48:32Z</time>
</trkpt>
<trkpt lat="30.9058723" lon="35.6898220">
<ele>887.72</ele>
<time>2015-11-22T10:48:35Z</time>
</trkpt>
<trkpt lat="30.9058196" lon="35.6898134">
<ele>890.18</ele>
<time>2015-11-22T10:48:38Z</time>
</trkpt>
<trkpt lat="30.9057701" lon="35.6898086">
<ele>877.99</ele>
<time>2015-11-22T10:48:41Z</time>
</trkpt>
<trkpt lat="30.9057250" lon="35.6898070">
<ele>878.09</ele>
<time>2015-11-22T10:48:44Z</time>
</trkpt>
<trkpt lat="30.9056706" lon="35.6898005">
<ele>879.44</ele>
<time>2015-11-22T10:48:48Z</time>
</trkpt>
<trkpt lat="30.9056240" lon="35.6897864">
<ele>876.94</ele>
<time>2015-11-22T10:48:54Z</time>
</trkpt>
<trkpt lat="30.9055711" lon="35.6897754">
<ele>876.87</ele>
<time>2015-11-22T10:48:58Z</time>
</trkpt>
<trkpt lat="30.9055142" lon="35.6897623">
<ele>876.42</ele>
<time>2015-11-22T10:49:02Z</time>
</trkpt>
<trkpt lat="30.9054588" lon="35.6897506">
<ele>876.21</ele>
<time>2015-11-22T10:49:06Z</time>
</trkpt>
<trkpt lat="30.9054122" lon="35.6897491">
<ele>877.12</ele>
<time>2015-11-22T10:49:09Z</time>
</trkpt>
<trkpt lat="30.9053636" lon="35.6897503">
<ele>878.98</ele>
<time>2015-11-22T10:49:12Z</time>
</trkpt>
<trkpt lat="30.9053145" lon="35.6897510">
<ele>879.09</ele>
<time>2015-11-22T10:49:15Z</time>
</trkpt>
<trkpt lat="30.9052615" lon="35.6897375">
<ele>878.75</ele>
<time>2015-11-22T10:49:19Z</time>
</trkpt>
<trkpt lat="30.9052061" lon="35.6897234">
<ele>876.79</ele>
<time>2015-11-22T10:49:23Z</time>
</trkpt>
<trkpt lat="30.9051609" lon="35.6897110">
<ele>876.07</ele>
<time>2015-11-22T10:49:26Z</time>
</trkpt>
<trkpt lat="30.9051168" lon="35.6896944">
<ele>876.35</ele>
<time>2015-11-22T10:49:29Z</time>
</trkpt>
<trkpt lat="30.9050642" lon="35.6896633">
<ele>875.52</ele>
<time>2015-11-22T10:49:33Z</time>
</trkpt>
<trkpt lat="30.9050245" lon="35.6896351">
<ele>875.78</ele>
<time>2015-11-22T10:49:36Z</time>
</trkpt>
<trkpt lat="30.9049764" lon="35.6895976">
<ele>876.86</ele>
<time>2015-11-22T10:49:40Z</time>
</trkpt>
<trkpt lat="30.9049469" lon="35.6895560">
<ele>877.83</ele>
<time>2015-11-22T10:49:43Z</time>
</trkpt>
<trkpt lat="30.9049086" lon="35.6895031">
<ele>879.55</ele>
<time>2015-11-22T10:49:47Z</time>
</trkpt>
<trkpt lat="30.9048757" lon="35.6894491">
<ele>878.47</ele>
<time>2015-11-22T10:49:51Z</time>
</trkpt>
<trkpt lat="30.9048455" lon="35.6894086">
<ele>878.40</ele>
<time>2015-11-22T10:49:54Z</time>
</trkpt>
<trkpt lat="30.9048224" lon="35.6893572">
<ele>877.27</ele>
<time>2015-11-22T10:49:57Z</time>
</trkpt>
<trkpt lat="30.9047979" lon="35.6893025">
<ele>878.13</ele>
<time>2015-11-22T10:50:00Z</time>
</trkpt>
<trkpt lat="30.9047711" lon="35.6892451">
<ele>881.24</ele>
<time>2015-11-22T10:50:03Z</time>
</trkpt>
<trkpt lat="30.9047453" lon="35.6891838">
<ele>881.75</ele>
<time>2015-11-22T10:50:06Z</time>
</trkpt>
<trkpt lat="30.9047164" lon="35.6891179">
<ele>883.06</ele>
<time>2015-11-22T10:50:09Z</time>
</trkpt>
<trkpt lat="30.9046875" lon="35.6890678">
<ele>882.56</ele>
<time>2015-11-22T10:50:11Z</time>
</trkpt>
<trkpt lat="30.9046539" lon="35.6890143">
<ele>880.94</ele>
<time>2015-11-22T10:50:13Z</time>
</trkpt>
<trkpt lat="30.9046234" lon="35.6889596">
<ele>880.03</ele>
<time>2015-11-22T10:50:15Z</time>
</trkpt>
<trkpt lat="30.9045884" lon="35.6889079">
<ele>882.05</ele>
<time>2015-11-22T10:50:17Z</time>
</trkpt>
<trkpt lat="30.9045445" lon="35.6888638">
<ele>882.06</ele>
<time>2015-11-22T10:50:19Z</time>
</trkpt>
<trkpt lat="30.9044989" lon="35.6888272">
<ele>883.56</ele>
<time>2015-11-22T10:50:21Z</time>
</trkpt>
<trkpt lat="30.9044484" lon="35.6887986">
<ele>891.19</ele>
<time>2015-11-22T10:50:23Z</time>
</trkpt>
<trkpt lat="30.9043976" lon="35.6887694">
<ele>898.09</ele>
<time>2015-11-22T10:50:25Z</time>
</trkpt>
<trkpt lat="30.9043457" lon="35.6887492">
<ele>902.32</ele>
<time>2015-11-22T10:50:27Z</time>
</trkpt>
<trkpt lat="30.9042936" lon="35.6887373">
<ele>905.13</ele>
<time>2015-11-22T10:50:29Z</time>
</trkpt>
<trkpt lat="30.9042422" lon="35.6887334">
<ele>906.08</ele>
<time>2015-11-22T10:50:31Z</time>
</trkpt>
<trkpt lat="30.9041933" lon="35.6887323">
<ele>906.31</ele>
<time>2015-11-22T10:50:33Z</time>
</trkpt>
<trkpt lat="30.9041371" lon="35.6887354">
<ele>906.38</ele>
<time>2015-11-22T10:50:36Z</time>
</trkpt>
<trkpt lat="30.9040884" lon="35.6887375">
<ele>906.39</ele>
<time>2015-11-22T10:50:39Z</time>
</trkpt>
<trkpt lat="30.9040351" lon="35.6887468">
<ele>905.46</ele>
<time>2015-11-22T10:50:43Z</time>
</trkpt>
<trkpt lat="30.9039916" lon="35.6887604">
<ele>905.40</ele>
<time>2015-11-22T10:50:46Z</time>
</trkpt>
<trkpt lat="30.9039460" lon="35.6887721">
<ele>905.39</ele>
<time>2015-11-22T10:50:49Z</time>
</trkpt>
<trkpt lat="30.9039002" lon="35.6887900">
<ele>905.39</ele>
<time>2015-11-22T10:50:52Z</time>
</trkpt>
<trkpt lat="30.9038537" lon="35.6888115">
<ele>905.89</ele>
<time>2015-11-22T10:50:55Z</time>
</trkpt>
<trkpt lat="30.9038075" lon="35.6888365">
<ele>906.33</ele>
<time>2015-11-22T10:50:58Z</time>
</trkpt>
<trkpt lat="30.9037624" lon="35.6888605">
<ele>906.39</ele>
<time>2015-11-22T10:51:01Z</time>
</trkpt>
<trkpt lat="30.9037171" lon="35.6888857">
<ele>905.64</ele>
<time>2015-11-22T10:51:04Z</time>
</trkpt>
<trkpt lat="30.9036696" lon="35.6889099">
<ele>907.18</ele>
<time>2015-11-22T10:51:07Z</time>
</trkpt>
<trkpt lat="30.9036216" lon="35.6889319">
<ele>908.99</ele>
<time>2015-11-22T10:51:10Z</time>
</trkpt>
<trkpt lat="30.9035742" lon="35.6889547">
<ele>910.22</ele>
<time>2015-11-22T10:51:13Z</time>
</trkpt>
<trkpt lat="30.9035243" lon="35.6889726">
<ele>912.00</ele>
<time>2015-11-22T10:51:16Z</time>
</trkpt>
<trkpt lat="30.9034765" lon="35.6889979">
<ele>912.84</ele>
<time>2015-11-22T10:51:19Z</time>
</trkpt>
<trkpt lat="30.9034304" lon="35.6890226">
<ele>913.33</ele>
<time>2015-11-22T10:51:22Z</time>
</trkpt>
<trkpt lat="30.9033826" lon="35.6890470">
<ele>914.14</ele>
<time>2015-11-22T10:51:25Z</time>
</trkpt>
<trkpt lat="30.9033347" lon="35.6890711">
<ele>914.86</ele>
<time>2015-11-22T10:51:28Z</time>
</trkpt>
<trkpt lat="30.9032859" lon="35.6890935">
<ele>916.20</ele>
<time>2015-11-22T10:51:31Z</time>
</trkpt>
<trkpt lat="30.9032381" lon="35.6891162">
<ele>917.12</ele>
<time>2015-11-22T10:51:34Z</time>
</trkpt>
<trkpt lat="30.9031906" lon="35.6891382">
<ele>917.36</ele>
<time>2015-11-22T10:51:37Z</time>
</trkpt>
<trkpt lat="30.9031428" lon="35.6891584">
<ele>918.26</ele>
<time>2015-11-22T10:51:40Z</time>
</trkpt>
<trkpt lat="30.9030953" lon="35.6891785">
<ele>918.38</ele>
<time>2015-11-22T10:51:43Z</time>
</trkpt>
<trkpt lat="30.9030498" lon="35.6892016">
<ele>919.27</ele>
<time>2015-11-22T10:51:46Z</time>
</trkpt>
<trkpt lat="30.9030028" lon="35.6892213">
<ele>920.13</ele>
<time>2015-11-22T10:51:49Z</time>
</trkpt>
<trkpt lat="30.9029577" lon="35.6892392">
<ele>920.88</ele>
<time>2015-11-22T10:51:53Z</time>
</trkpt>
<trkpt lat="30.9029061" lon="35.6892528">
<ele>921.86</ele>
<time>2015-11-22T10:51:57Z</time>
</trkpt>
<trkpt lat="30.9028540" lon="35.6892701">
<ele>921.49</ele>
<time>2015-11-22T10:52:01Z</time>
</trkpt>
<trkpt lat="30.9027954" lon="35.6892826">
<ele>921.77</ele>
<time>2015-11-22T10:52:05Z</time>
</trkpt>
<trkpt lat="30.9027386" lon="35.6893004">
<ele>920.48</ele>
<time>2015-11-22T10:52:09Z</time>
</trkpt>
<trkpt lat="30.9026825" lon="35.6893239">
<ele>920.40</ele>
<time>2015-11-22T10:52:13Z</time>
</trkpt>
<trkpt lat="30.9026382" lon="35.6893373">
<ele>921.14</ele>
<time>2015-11-22T10:52:16Z</time>
</trkpt>
<trkpt lat="30.9025957" lon="35.6893597">
<ele>921.36</ele>
<time>2015-11-22T10:52:19Z</time>
</trkpt>
<trkpt lat="30.9025509" lon="35.6893777">
<ele>921.39</ele>
<time>2015-11-22T10:52:22Z</time>
</trkpt>
<trkpt lat="30.9025044" lon="35.6893910">
<ele>921.27</ele>
<time>2015-11-22T10:52:25Z</time>
</trkpt>
<trkpt lat="30.9024438" lon="35.6893951">
<ele>921.39</ele>
<time>2015-11-22T10:52:29Z</time>
</trkpt>
<trkpt lat="30.9023936" lon="35.6894070">
<ele>921.39</ele>
<time>2015-11-22T10:52:32Z</time>
</trkpt>
<trkpt lat="30.9023458" lon="35.6894266">
<ele>921.39</ele>
<time>2015-11-22T10:52:35Z</time>
</trkpt>
<trkpt lat="30.9022976" lon="35.6894469">
<ele>921.39</ele>
<time>2015-11-22T10:52:38Z</time>
</trkpt>
<trkpt lat="30.9022432" lon="35.6894627">
<ele>921.39</ele>
<time>2015-11-22T10:52:41Z</time>
</trkpt>
<trkpt lat="30.9021805" lon="35.6894736">
<ele>922.27</ele>
<time>2015-11-22T10:52:44Z</time>
</trkpt>
<trkpt lat="30.9021301" lon="35.6894776">
<ele>922.36</ele>
<time>2015-11-22T10:52:46Z</time>
</trkpt>
<trkpt lat="30.9020788" lon="35.6894818">
<ele>922.39</ele>
<time>2015-11-22T10:52:48Z</time>
</trkpt>
<trkpt lat="30.9020292" lon="35.6894858">
<ele>921.89</ele>
<time>2015-11-22T10:52:50Z</time>
</trkpt>
<trkpt lat="30.9019780" lon="35.6894856">
<ele>922.02</ele>
<time>2015-11-22T10:52:52Z</time>
</trkpt>
<trkpt lat="30.9019142" lon="35.6894757">
<ele>922.35</ele>
<time>2015-11-22T10:52:55Z</time>
</trkpt>
<trkpt lat="30.9018523" lon="35.6894713">
<ele>922.64</ele>
<time>2015-11-22T10:52:58Z</time>
</trkpt>
<trkpt lat="30.9017886" lon="35.6894653">
<ele>922.42</ele>
<time>2015-11-22T10:53:01Z</time>
</trkpt>
<trkpt lat="30.9017340" lon="35.6894566">
<ele>922.40</ele>
<time>2015-11-22T10:53:04Z</time>
</trkpt>
<trkpt lat="30.9016784" lon="35.6894383">
<ele>923.14</ele>
<time>2015-11-22T10:53:07Z</time>
</trkpt>
<trkpt lat="30.9016210" lon="35.6894224">
<ele>922.49</ele>
<time>2015-11-22T10:53:10Z</time>
</trkpt>
<trkpt lat="30.9015596" lon="35.6894086">
<ele>922.41</ele>
<time>2015-11-22T10:53:13Z</time>
</trkpt>
<trkpt lat="30.9015119" lon="35.6893954">
<ele>922.40</ele>
<time>2015-11-22T10:53:15Z</time>
</trkpt>
<trkpt lat="30.9014534" lon="35.6893742">
<ele>922.39</ele>
<time>2015-11-22T10:53:18Z</time>
</trkpt>
<trkpt lat="30.9013986" lon="35.6893597">
<ele>922.89</ele>
<time>2015-11-22T10:53:21Z</time>
</trkpt>
<trkpt lat="30.9013489" lon="35.6893484">
<ele>922.71</ele>
<time>2015-11-22T10:53:24Z</time>
</trkpt>
<trkpt lat="30.9013025" lon="35.6893428">
<ele>922.43</ele>
<time>2015-11-22T10:53:27Z</time>
</trkpt>
<trkpt lat="30.9012527" lon="35.6893379">
<ele>923.15</ele>
<time>2015-11-22T10:53:31Z</time>
</trkpt>
<trkpt lat="30.9012067" lon="35.6893217">
<ele>923.36</ele>
<time>2015-11-22T10:53:34Z</time>
</trkpt>
<trkpt lat="30.9011548" lon="35.6893031">
<ele>923.14</ele>
<time>2015-11-22T10:53:37Z</time>
</trkpt>
<trkpt lat="30.9010972" lon="35.6892867">
<ele>923.36</ele>
<time>2015-11-22T10:53:40Z</time>
</trkpt>
<trkpt lat="30.9010339" lon="35.6892653">
<ele>923.39</ele>
<time>2015-11-22T10:53:43Z</time>
</trkpt>
<trkpt lat="30.9009708" lon="35.6892479">
<ele>922.64</ele>
<time>2015-11-22T10:53:46Z</time>
</trkpt>
<trkpt lat="30.9009266" lon="35.6892334">
<ele>922.46</ele>
<time>2015-11-22T10:53:48Z</time>
</trkpt>
<trkpt lat="30.9008652" lon="35.6892199">
<ele>922.40</ele>
<time>2015-11-22T10:53:51Z</time>
</trkpt>
<trkpt lat="30.9008124" lon="35.6891988">
<ele>922.77</ele>
<time>2015-11-22T10:53:54Z</time>
</trkpt>
<trkpt lat="30.9007539" lon="35.6891792">
<ele>922.82</ele>
<time>2015-11-22T10:53:57Z</time>
</trkpt>
<trkpt lat="30.9006911" lon="35.6891570">
<ele>922.45</ele>
<time>2015-11-22T10:54:00Z</time>
</trkpt>
<trkpt lat="30.9006453" lon="35.6891397">
<ele>922.41</ele>
<time>2015-11-22T10:54:02Z</time>
</trkpt>
<trkpt lat="30.9005965" lon="35.6891205">
<ele>922.90</ele>
<time>2015-11-22T10:54:04Z</time>
</trkpt>
<trkpt lat="30.9005491" lon="35.6891034">
<ele>923.27</ele>
<time>2015-11-22T10:54:06Z</time>
</trkpt>
<trkpt lat="30.9004878" lon="35.6890814">
<ele>923.38</ele>
<time>2015-11-22T10:54:09Z</time>
</trkpt>
<trkpt lat="30.9004321" lon="35.6890635">
<ele>923.39</ele>
<time>2015-11-22T10:54:12Z</time>
</trkpt>
<trkpt lat="30.9003702" lon="35.6890469">
<ele>923.39</ele>
<time>2015-11-22T10:54:15Z</time>
</trkpt>
<trkpt lat="30.9003056" lon="35.6890273">
<ele>923.27</ele>
<time>2015-11-22T10:54:18Z</time>
</trkpt>
<trkpt lat="30.9002620" lon="35.6890141">
<ele>924.11</ele>
<time>2015-11-22T10:54:20Z</time>
</trkpt>
<trkpt lat="30.9002162" lon="35.6890039">
<ele>923.82</ele>
<time>2015-11-22T10:54:22Z</time>
</trkpt>
<trkpt lat="30.9001702" lon="35.6889959">
<ele>923.50</ele>
<time>2015-11-22T10:54:24Z</time>
</trkpt>
<trkpt lat="30.9001228" lon="35.6889864">
<ele>923.42</ele>
<time>2015-11-22T10:54:26Z</time>
</trkpt>
<trkpt lat="30.9000745" lon="35.6889750">
<ele>923.40</ele>
<time>2015-11-22T10:54:28Z</time>
</trkpt>
<trkpt lat="30.9000236" lon="35.6889637">
<ele>923.40</ele>
<time>2015-11-22T10:54:30Z</time>
</trkpt>
<trkpt lat="30.8999722" lon="35.6889512">
<ele>923.39</ele>
<time>2015-11-22T10:54:32Z</time>
</trkpt>
<trkpt lat="30.8999226" lon="35.6889366">
<ele>923.39</ele>
<time>2015-11-22T10:54:34Z</time>
</trkpt>
<trkpt lat="30.8998747" lon="35.6889204">
<ele>923.89</ele>
<time>2015-11-22T10:54:36Z</time>
</trkpt>
<trkpt lat="30.8998252" lon="35.6889039">
<ele>924.27</ele>
<time>2015-11-22T10:54:38Z</time>
</trkpt>
<trkpt lat="30.8997787" lon="35.6888895">
<ele>923.61</ele>
<time>2015-11-22T10:54:40Z</time>
</trkpt>
<trkpt lat="30.8997195" lon="35.6888721">
<ele>924.80</ele>
<time>2015-11-22T10:54:43Z</time>
</trkpt>
<trkpt lat="30.8996700" lon="35.6888581">
<ele>925.82</ele>
<time>2015-11-22T10:54:46Z</time>
</trkpt>
<trkpt lat="30.8996256" lon="35.6888425">
<ele>925.57</ele>
<time>2015-11-22T10:54:49Z</time>
</trkpt>
<trkpt lat="30.8995816" lon="35.6888267">
<ele>926.17</ele>
<time>2015-11-22T10:54:52Z</time>
</trkpt>
<trkpt lat="30.8995361" lon="35.6888111">
<ele>926.62</ele>
<time>2015-11-22T10:54:55Z</time>
</trkpt>
<trkpt lat="30.8994896" lon="35.6887939">
<ele>926.92</ele>
<time>2015-11-22T10:54:58Z</time>
</trkpt>
<trkpt lat="30.8994425" lon="35.6887856">
<ele>927.33</ele>
<time>2015-11-22T10:55:01Z</time>
</trkpt>
<trkpt lat="30.8993961" lon="35.6887713">
<ele>927.14</ele>
<time>2015-11-22T10:55:04Z</time>
</trkpt>
<trkpt lat="30.8993478" lon="35.6887562">
<ele>926.74</ele>
<time>2015-11-22T10:55:07Z</time>
</trkpt>
<trkpt lat="30.8993013" lon="35.6887400">
<ele>925.69</ele>
<time>2015-11-22T10:55:10Z</time>
</trkpt>
<trkpt lat="30.8992521" lon="35.6887274">
<ele>925.43</ele>
<time>2015-11-22T10:55:13Z</time>
</trkpt>
<trkpt lat="30.8991989" lon="35.6887146">
<ele>925.40</ele>
<time>2015-11-22T10:55:16Z</time>
</trkpt>
<trkpt lat="30.8991489" lon="35.6886942">
<ele>925.39</ele>
<time>2015-11-22T10:55:19Z</time>
</trkpt>
<trkpt lat="30.8990987" lon="35.6886773">
<ele>925.27</ele>
<time>2015-11-22T10:55:22Z</time>
</trkpt>
<trkpt lat="30.8990464" lon="35.6886678">
<ele>924.75</ele>
<time>2015-11-22T10:55:25Z</time>
</trkpt>
<trkpt lat="30.8989942" lon="35.6886585">
<ele>924.44</ele>
<time>2015-11-22T10:55:28Z</time>
</trkpt>
<trkpt lat="30.8989454" lon="35.6886402">
<ele>924.40</ele>
<time>2015-11-22T10:55:31Z</time>
</trkpt>
<trkpt lat="30.8988964" lon="35.6886300">
<ele>925.27</ele>
<time>2015-11-22T10:55:34Z</time>
</trkpt>
<trkpt lat="30.8988502" lon="35.6886108">
<ele>924.50</ele>
<time>2015-11-22T10:55:37Z</time>
</trkpt>
<trkpt lat="30.8988020" lon="35.6885944">
<ele>923.53</ele>
<time>2015-11-22T10:55:40Z</time>
</trkpt>
<trkpt lat="30.8987523" lon="35.6885820">
<ele>924.29</ele>
<time>2015-11-22T10:55:43Z</time>
</trkpt>
<trkpt lat="30.8987042" lon="35.6885660">
<ele>924.63</ele>
<time>2015-11-22T10:55:46Z</time>
</trkpt>
<trkpt lat="30.8986565" lon="35.6885488">
<ele>924.67</ele>
<time>2015-11-22T10:55:49Z</time>
</trkpt>
<trkpt lat="30.8986113" lon="35.6885305">
<ele>923.05</ele>
<time>2015-11-22T10:55:52Z</time>
</trkpt>
<trkpt lat="30.8985673" lon="35.6885097">
<ele>922.60</ele>
<time>2015-11-22T10:55:55Z</time>
</trkpt>
<trkpt lat="30.8985210" lon="35.6884953">
<ele>923.79</ele>
<time>2015-11-22T10:55:58Z</time>
</trkpt>
<trkpt lat="30.8984725" lon="35.6884820">
<ele>924.57</ele>
<time>2015-11-22T10:56:01Z</time>
</trkpt>
<trkpt lat="30.8984208" lon="35.6884775">
<ele>925.17</ele>
<time>2015-11-22T10:56:04Z</time>
</trkpt>
<trkpt lat="30.8983729" lon="35.6884618">
<ele>924.87</ele>
<time>2015-11-22T10:56:07Z</time>
</trkpt>
<trkpt lat="30.8983168" lon="35.6884558">
<ele>924.92</ele>
<time>2015-11-22T10:56:11Z</time>
</trkpt>
<trkpt lat="30.8982706" lon="35.6884458">
<ele>925.84</ele>
<time>2015-11-22T10:56:14Z</time>
</trkpt>
<trkpt lat="30.8982245" lon="35.6884391">
<ele>926.32</ele>
<time>2015-11-22T10:56:17Z</time>
</trkpt>
<trkpt lat="30.8981791" lon="35.6884251">
<ele>927.76</ele>
<time>2015-11-22T10:56:20Z</time>
</trkpt>
<trkpt lat="30.8981319" lon="35.6884144">
<ele>927.06</ele>
<time>2015-11-22T10:56:23Z</time>
</trkpt>
<trkpt lat="30.8980843" lon="35.6884095">
<ele>927.60</ele>
<time>2015-11-22T10:56:26Z</time>
</trkpt>
<trkpt lat="30.8980362" lon="35.6884083">
<ele>926.80</ele>
<time>2015-11-22T10:56:29Z</time>
</trkpt>
<trkpt lat="30.8979913" lon="35.6883984">
<ele>926.69</ele>
<time>2015-11-22T10:56:32Z</time>
</trkpt>
<trkpt lat="30.8979420" lon="35.6883859">
<ele>927.31</ele>
<time>2015-11-22T10:56:35Z</time>
</trkpt>
<trkpt lat="30.8978945" lon="35.6883746">
<ele>928.13</ele>
<time>2015-11-22T10:56:38Z</time>
</trkpt>
<trkpt lat="30.8978465" lon="35.6883772">
<ele>927.49</ele>
<time>2015-11-22T10:56:41Z</time>
</trkpt>
<trkpt lat="30.8977974" lon="35.6883797">
<ele>928.28</ele>
<time>2015-11-22T10:56:44Z</time>
</trkpt>
<trkpt lat="30.8977490" lon="35.6883770">
<ele>927.63</ele>
<time>2015-11-22T10:56:47Z</time>
</trkpt>
<trkpt lat="30.8976890" lon="35.6883722">
<ele>928.66</ele>
<time>2015-11-22T10:56:51Z</time>
</trkpt>
<trkpt lat="30.8976428" lon="35.6883702">
<ele>929.80</ele>
<time>2015-11-22T10:56:54Z</time>
</trkpt>
<trkpt lat="30.8975950" lon="35.6883660">
<ele>930.20</ele>
<time>2015-11-22T10:56:57Z</time>
</trkpt>
<trkpt lat="30.8975452" lon="35.6883743">
<ele>931.49</ele>
<time>2015-11-22T10:57:00Z</time>
</trkpt>
<trkpt lat="30.8974941" lon="35.6883780">
<ele>928.91</ele>
<time>2015-11-22T10:57:03Z</time>
</trkpt>
<trkpt lat="30.8974468" lon="35.6883830">
<ele>927.96</ele>
<time>2015-11-22T10:57:06Z</time>
</trkpt>
<trkpt lat="30.8973971" lon="35.6883762">
<ele>927.96</ele>
<time>2015-11-22T10:57:09Z</time>
</trkpt>
<trkpt lat="30.8973454" lon="35.6883755">
<ele>928.72</ele>
<time>2015-11-22T10:57:12Z</time>
</trkpt>
<trkpt lat="30.8972922" lon="35.6883772">
<ele>930.06</ele>
<time>2015-11-22T10:57:15Z</time>
</trkpt>
<trkpt lat="30.8972395" lon="35.6883770">
<ele>929.85</ele>
<time>2015-11-22T10:57:18Z</time>
</trkpt>
<trkpt lat="30.8971869" lon="35.6883838">
<ele>930.58</ele>
<time>2015-11-22T10:57:21Z</time>
</trkpt>
<trkpt lat="30.8971326" lon="35.6883872">
<ele>930.79</ele>
<time>2015-11-22T10:57:24Z</time>
</trkpt>
<trkpt lat="30.8970780" lon="35.6883923">
<ele>929.44</ele>
<time>2015-11-22T10:57:27Z</time>
</trkpt>
<trkpt lat="30.8970294" lon="35.6883975">
<ele>928.40</ele>
<time>2015-11-22T10:57:30Z</time>
</trkpt>
<trkpt lat="30.8969786" lon="35.6884067">
<ele>927.02</ele>
<time>2015-11-22T10:57:33Z</time>
</trkpt>
<trkpt lat="30.8969275" lon="35.6884108">
<ele>927.35</ele>
<time>2015-11-22T10:57:36Z</time>
</trkpt>
<trkpt lat="30.8968754" lon="35.6884181">
<ele>926.76</ele>
<time>2015-11-22T10:57:39Z</time>
</trkpt>
<trkpt lat="30.8968204" lon="35.6884297">
<ele>927.57</ele>
<time>2015-11-22T10:57:42Z</time>
</trkpt>
<trkpt lat="30.8967659" lon="35.6884366">
<ele>929.04</ele>
<time>2015-11-22T10:57:45Z</time>
</trkpt>
<trkpt lat="30.8967085" lon="35.6884382">
<ele>930.75</ele>
<time>2015-11-22T10:57:49Z</time>
</trkpt>
<trkpt lat="30.8966514" lon="35.6884437">
<ele>931.85</ele>
<time>2015-11-22T10:57:53Z</time>
</trkpt>
<trkpt lat="30.8965938" lon="35.6884529">
<ele>932.55</ele>
<time>2015-11-22T10:57:57Z</time>
</trkpt>
<trkpt lat="30.8965442" lon="35.6884576">
<ele>930.78</ele>
<time>2015-11-22T10:58:01Z</time>
</trkpt>
<trkpt lat="30.8964975" lon="35.6884702">
<ele>930.86</ele>
<time>2015-11-22T10:58:05Z</time>
</trkpt>
<trkpt lat="30.8964515" lon="35.6884804">
<ele>928.92</ele>
<time>2015-11-22T10:58:09Z</time>
</trkpt>
<trkpt lat="30.8964001" lon="35.6884971">
<ele>930.36</ele>
<time>2015-11-22T10:58:13Z</time>
</trkpt>
<trkpt lat="30.8963424" lon="35.6885158">
<ele>930.14</ele>
<time>2015-11-22T10:58:17Z</time>
</trkpt>
<trkpt lat="30.8963005" lon="35.6885367">
<ele>930.49</ele>
<time>2015-11-22T10:58:20Z</time>
</trkpt>
<trkpt lat="30.8962572" lon="35.6885525">
<ele>932.53</ele>
<time>2015-11-22T10:58:23Z</time>
</trkpt>
<trkpt lat="30.8962116" lon="35.6885759">
<ele>932.54</ele>
<time>2015-11-22T10:58:26Z</time>
</trkpt>
<trkpt lat="30.8961659" lon="35.6886011">
<ele>932.79</ele>
<time>2015-11-22T10:58:29Z</time>
</trkpt>
<trkpt lat="30.8961186" lon="35.6886244">
<ele>932.07</ele>
<time>2015-11-22T10:58:32Z</time>
</trkpt>
<trkpt lat="30.8960726" lon="35.6886410">
<ele>934.23</ele>
<time>2015-11-22T10:58:35Z</time>
</trkpt>
<trkpt lat="30.8960292" lon="35.6886605">
<ele>936.25</ele>
<time>2015-11-22T10:58:38Z</time>
</trkpt>
<trkpt lat="30.8959856" lon="35.6886824">
<ele>936.13</ele>
<time>2015-11-22T10:58:41Z</time>
</trkpt>
<trkpt lat="30.8959418" lon="35.6887050">
<ele>933.86</ele>
<time>2015-11-22T10:58:44Z</time>
</trkpt>
<trkpt lat="30.8958884" lon="35.6887190">
<ele>933.08</ele>
<time>2015-11-22T10:58:47Z</time>
</trkpt>
<trkpt lat="30.8958338" lon="35.6887400">
<ele>934.35</ele>
<time>2015-11-22T10:58:50Z</time>
</trkpt>
<trkpt lat="30.8957805" lon="35.6887626">
<ele>932.76</ele>
<time>2015-11-22T10:58:53Z</time>
</trkpt>
<trkpt lat="30.8957310" lon="35.6887819">
<ele>933.57</ele>
<time>2015-11-22T10:58:56Z</time>
</trkpt>
<trkpt lat="30.8956845" lon="35.6888043">
<ele>934.67</ele>
<time>2015-11-22T10:58:59Z</time>
</trkpt>
<trkpt lat="30.8956391" lon="35.6888273">
<ele>936.18</ele>
<time>2015-11-22T10:59:02Z</time>
</trkpt>
<trkpt lat="30.8955938" lon="35.6888452">
<ele>934.12</ele>
<time>2015-11-22T10:59:05Z</time>
</trkpt>
<trkpt lat="30.8955488" lon="35.6888662">
<ele>936.86</ele>
<time>2015-11-22T10:59:08Z</time>
</trkpt>
<trkpt lat="30.8955050" lon="35.6888932">
<ele>936.83</ele>
<time>2015-11-22T10:59:11Z</time>
</trkpt>
<trkpt lat="30.8954584" lon="35.6889144">
<ele>939.57</ele>
<time>2015-11-22T10:59:14Z</time>
</trkpt>
<trkpt lat="30.8954116" lon="35.6889356">
<ele>941.17</ele>
<time>2015-11-22T10:59:17Z</time>
</trkpt>
<trkpt lat="30.8953619" lon="35.6889549">
<ele>939.37</ele>
<time>2015-11-22T10:59:20Z</time>
</trkpt>
<trkpt lat="30.8953138" lon="35.6889799">
<ele>939.52</ele>
<time>2015-11-22T10:59:23Z</time>
</trkpt>
<trkpt lat="30.8952668" lon="35.6890030">
<ele>937.16</ele>
<time>2015-11-22T10:59:26Z</time>
</trkpt>
<trkpt lat="30.8952184" lon="35.6890244">
<ele>936.61</ele>
<time>2015-11-22T10:59:29Z</time>
</trkpt>
<trkpt lat="30.8951715" lon="35.6890361">
<ele>938.05</ele>
<time>2015-11-22T10:59:32Z</time>
</trkpt>
<trkpt lat="30.8951271" lon="35.6890492">
<ele>937.85</ele>
<time>2015-11-22T10:59:35Z</time>
</trkpt>
<trkpt lat="30.8950823" lon="35.6890679">
<ele>940.58</ele>
<time>2015-11-22T10:59:38Z</time>
</trkpt>
<trkpt lat="30.8950384" lon="35.6890889">
<ele>939.67</ele>
<time>2015-11-22T10:59:41Z</time>
</trkpt>
<trkpt lat="30.8949960" lon="35.6891061">
<ele>937.93</ele>
<time>2015-11-22T10:59:44Z</time>
</trkpt>
<trkpt lat="30.8949508" lon="35.6891182">
<ele>937.71</ele>
<time>2015-11-22T10:59:47Z</time>
</trkpt>
<trkpt lat="30.8949041" lon="35.6891367">
<ele>939.68</ele>
<time>2015-11-22T10:59:50Z</time>
</trkpt>
<trkpt lat="30.8948591" lon="35.6891562">
<ele>939.56</ele>
<time>2015-11-22T10:59:53Z</time>
</trkpt>
<trkpt lat="30.8948101" lon="35.6891684">
<ele>940.29</ele>
<time>2015-11-22T10:59:56Z</time>
</trkpt>
<trkpt lat="30.8947662" lon="35.6891856">
<ele>941.76</ele>
<time>2015-11-22T10:59:59Z</time>
</trkpt>
<trkpt lat="30.8947208" lon="35.6892077">
<ele>942.94</ele>
<time>2015-11-22T11:00:02Z</time>
</trkpt>
<trkpt lat="30.8946757" lon="35.6892295">
<ele>943.46</ele>
<time>2015-11-22T11:00:05Z</time>
</trkpt>
<trkpt lat="30.8946308" lon="35.6892459">
<ele>943.40</ele>
<time>2015-11-22T11:00:08Z</time>
</trkpt>
<trkpt lat="30.8945880" lon="35.6892662">
<ele>941.40</ele>
<time>2015-11-22T11:00:11Z</time>
</trkpt>
<trkpt lat="30.8945444" lon="35.6892933">
<ele>940.14</ele>
<time>2015-11-22T11:00:14Z</time>
</trkpt>
<trkpt lat="30.8944957" lon="35.6893091">
<ele>936.24</ele>
<time>2015-11-22T11:00:17Z</time>
</trkpt>
<trkpt lat="30.8944447" lon="35.6893264">
<ele>947.50</ele>
<time>2015-11-22T11:00:20Z</time>
</trkpt>
<trkpt lat="30.8943965" lon="35.6893477">
<ele>949.41</ele>
<time>2015-11-22T11:00:23Z</time>
</trkpt>
<trkpt lat="30.8943483" lon="35.6893705">
<ele>951.40</ele>
<time>2015-11-22T11:00:26Z</time>
</trkpt>
<trkpt lat="30.8942981" lon="35.6893922">
<ele>953.89</ele>
<time>2015-11-22T11:00:29Z</time>
</trkpt>
<trkpt lat="30.8942493" lon="35.6894099">
<ele>957.08</ele>
<time>2015-11-22T11:00:32Z</time>
</trkpt>
<trkpt lat="30.8941995" lon="35.6894326">
<ele>957.10</ele>
<time>2015-11-22T11:00:35Z</time>
</trkpt>
<trkpt lat="30.8941503" lon="35.6894501">
<ele>960.86</ele>
<time>2015-11-22T11:00:38Z</time>
</trkpt>
<trkpt lat="30.8941922" lon="35.6894299">
<ele>956.51</ele>
<time>2015-11-22T11:00:50Z</time>
</trkpt>
<trkpt lat="30.8942414" lon="35.6894138">
<ele>954.28</ele>
<time>2015-11-22T11:00:54Z</time>
</trkpt>
<trkpt lat="30.8942888" lon="35.6893890">
<ele>954.82</ele>
<time>2015-11-22T11:00:58Z</time>
</trkpt>
<trkpt lat="30.8943283" lon="35.6893607">
<ele>971.68</ele>
<time>2015-11-22T11:02:02Z</time>
</trkpt>
<trkpt lat="30.8942822" lon="35.6893868">
<ele>984.52</ele>
<time>2015-11-22T11:11:52Z</time>
</trkpt>
<trkpt lat="30.8942438" lon="35.6894144">
<ele>984.44</ele>
<time>2015-11-22T11:12:13Z</time>
</trkpt>
<trkpt lat="30.8942030" lon="35.6894374">
<ele>984.35</ele>
<time>2015-11-22T11:12:37Z</time>
</trkpt>
<trkpt lat="30.8941482" lon="35.6894450">
<ele>985.83</ele>
<time>2015-11-22T11:12:41Z</time>
</trkpt>
<trkpt lat="30.8940999" lon="35.6894495">
<ele>985.45</ele>
<time>2015-11-22T11:12:44Z</time>
</trkpt>
<trkpt lat="30.8940511" lon="35.6894628">
<ele>985.90</ele>
<time>2015-11-22T11:12:47Z</time>
</trkpt>
<trkpt lat="30.8940019" lon="35.6894757">
<ele>986.83</ele>
<time>2015-11-22T11:12:50Z</time>
</trkpt>
<trkpt lat="30.8939509" lon="35.6894837">
<ele>985.95</ele>
<time>2015-11-22T11:12:53Z</time>
</trkpt>
<trkpt lat="30.8939020" lon="35.6894979">
<ele>986.09</ele>
<time>2015-11-22T11:12:56Z</time>
</trkpt>
<trkpt lat="30.8938519" lon="35.6895126">
<ele>986.86</ele>
<time>2015-11-22T11:12:59Z</time>
</trkpt>
<trkpt lat="30.8938023" lon="35.6895236">
<ele>988.08</ele>
<time>2015-11-22T11:13:02Z</time>
</trkpt>
<trkpt lat="30.8937545" lon="35.6895314">
<ele>988.48</ele>
<time>2015-11-22T11:13:05Z</time>
</trkpt>
<trkpt lat="30.8937071" lon="35.6895401">
<ele>986.90</ele>
<time>2015-11-22T11:13:08Z</time>
</trkpt>
<trkpt lat="30.8936574" lon="35.6895450">
<ele>986.71</ele>
<time>2015-11-22T11:13:11Z</time>
</trkpt>
<trkpt lat="30.8936099" lon="35.6895553">
<ele>987.31</ele>
<time>2015-11-22T11:13:14Z</time>
</trkpt>
<trkpt lat="30.8935634" lon="35.6895623">
<ele>989.01</ele>
<time>2015-11-22T11:13:17Z</time>
</trkpt>
<trkpt lat="30.8935150" lon="35.6895632">
<ele>989.22</ele>
<time>2015-11-22T11:13:20Z</time>
</trkpt>
<trkpt lat="30.8934669" lon="35.6895632">
<ele>988.37</ele>
<time>2015-11-22T11:13:23Z</time>
</trkpt>
<trkpt lat="30.8934156" lon="35.6895629">
<ele>987.02</ele>
<time>2015-11-22T11:13:26Z</time>
</trkpt>
<trkpt lat="30.8933621" lon="35.6895667">
<ele>987.35</ele>
<time>2015-11-22T11:13:29Z</time>
</trkpt>
<trkpt lat="30.8933102" lon="35.6895725">
<ele>986.76</ele>
<time>2015-11-22T11:13:32Z</time>
</trkpt>
<trkpt lat="30.8932641" lon="35.6895854">
<ele>986.57</ele>
<time>2015-11-22T11:13:35Z</time>
</trkpt>
<trkpt lat="30.8932081" lon="35.6895885">
<ele>986.59</ele>
<time>2015-11-22T11:13:39Z</time>
</trkpt>
<trkpt lat="30.8931493" lon="35.6895788">
<ele>988.59</ele>
<time>2015-11-22T11:13:43Z</time>
</trkpt>
<trkpt lat="30.8931010" lon="35.6895774">
<ele>990.04</ele>
<time>2015-11-22T11:13:46Z</time>
</trkpt>
<trkpt lat="30.8930498" lon="35.6895795">
<ele>990.10</ele>
<time>2015-11-22T11:13:49Z</time>
</trkpt>
<trkpt lat="30.8929958" lon="35.6895814">
<ele>989.48</ele>
<time>2015-11-22T11:13:52Z</time>
</trkpt>
<trkpt lat="30.8929421" lon="35.6895827">
<ele>989.41</ele>
<time>2015-11-22T11:13:55Z</time>
</trkpt>
<trkpt lat="30.8928876" lon="35.6895862">
<ele>990.15</ele>
<time>2015-11-22T11:13:58Z</time>
</trkpt>
<trkpt lat="30.8928359" lon="35.6895894">
<ele>991.61</ele>
<time>2015-11-22T11:14:01Z</time>
</trkpt>
<trkpt lat="30.8927846" lon="35.6895921">
<ele>992.42</ele>
<time>2015-11-22T11:14:04Z</time>
</trkpt>
<trkpt lat="30.8927333" lon="35.6895972">
<ele>992.15</ele>
<time>2015-11-22T11:14:07Z</time>
</trkpt>
<trkpt lat="30.8926808" lon="35.6895983">
<ele>992.61</ele>
<time>2015-11-22T11:14:10Z</time>
</trkpt>
<trkpt lat="30.8926278" lon="35.6895976">
<ele>991.67</ele>
<time>2015-11-22T11:14:13Z</time>
</trkpt>
<trkpt lat="30.8925778" lon="35.6895997">
<ele>991.68</ele>
<time>2015-11-22T11:14:16Z</time>
</trkpt>
<trkpt lat="30.8925220" lon="35.6896066">
<ele>990.93</ele>
<time>2015-11-22T11:14:19Z</time>
</trkpt>
<trkpt lat="30.8924670" lon="35.6896048">
<ele>989.59</ele>
<time>2015-11-22T11:14:22Z</time>
</trkpt>
<trkpt lat="30.8924177" lon="35.6896112">
<ele>988.17</ele>
<time>2015-11-22T11:14:25Z</time>
</trkpt>
<trkpt lat="30.8923684" lon="35.6896109">
<ele>986.62</ele>
<time>2015-11-22T11:14:28Z</time>
</trkpt>
<trkpt lat="30.8923188" lon="35.6896084">
<ele>989.30</ele>
<time>2015-11-22T11:14:31Z</time>
</trkpt>
<trkpt lat="30.8922690" lon="35.6896107">
<ele>1001.51</ele>
<time>2015-11-22T11:14:34Z</time>
</trkpt>
<trkpt lat="30.8922218" lon="35.6896189">
<ele>1007.41</ele>
<time>2015-11-22T11:14:37Z</time>
</trkpt>
<trkpt lat="30.8921733" lon="35.6896233">
<ele>1012.02</ele>
<time>2015-11-22T11:14:40Z</time>
</trkpt>
<trkpt lat="30.8921236" lon="35.6896201">
<ele>1014.72</ele>
<time>2015-11-22T11:14:43Z</time>
</trkpt>
<trkpt lat="30.8920724" lon="35.6896266">
<ele>1017.44</ele>
<time>2015-11-22T11:14:46Z</time>
</trkpt>
<trkpt lat="30.8920199" lon="35.6896274">
<ele>1019.02</ele>
<time>2015-11-22T11:14:49Z</time>
</trkpt>
<trkpt lat="30.8919658" lon="35.6896331">
<ele>1020.10</ele>
<time>2015-11-22T11:14:52Z</time>
</trkpt>
<trkpt lat="30.8919130" lon="35.6896415">
<ele>1019.23</ele>
<time>2015-11-22T11:14:55Z</time>
</trkpt>
<trkpt lat="30.8918606" lon="35.6896505">
<ele>1020.25</ele>
<time>2015-11-22T11:14:58Z</time>
</trkpt>
<trkpt lat="30.8918084" lon="35.6896498">
<ele>1020.88</ele>
<time>2015-11-22T11:15:01Z</time>
</trkpt>
<trkpt lat="30.8917558" lon="35.6896561">
<ele>1022.08</ele>
<time>2015-11-22T11:15:04Z</time>
</trkpt>
<trkpt lat="30.8917043" lon="35.6896580">
<ele>1021.85</ele>
<time>2015-11-22T11:15:07Z</time>
</trkpt>
<trkpt lat="30.8916504" lon="35.6896590">
<ele>1021.95</ele>
<time>2015-11-22T11:15:10Z</time>
</trkpt>
<trkpt lat="30.8915939" lon="35.6896693">
<ele>1023.09</ele>
<time>2015-11-22T11:15:13Z</time>
</trkpt>
<trkpt lat="30.8915387" lon="35.6896784">
<ele>1024.11</ele>
<time>2015-11-22T11:15:16Z</time>
</trkpt>
<trkpt lat="30.8914834" lon="35.6896860">
<ele>1024.36</ele>
<time>2015-11-22T11:15:19Z</time>
</trkpt>
<trkpt lat="30.8914295" lon="35.6896886">
<ele>1023.64</ele>
<time>2015-11-22T11:15:22Z</time>
</trkpt>
<trkpt lat="30.8913724" lon="35.6896899">
<ele>1025.30</ele>
<time>2015-11-22T11:15:25Z</time>
</trkpt>
<trkpt lat="30.8913118" lon="35.6896933">
<ele>1025.88</ele>
<time>2015-11-22T11:15:28Z</time>
</trkpt>
<trkpt lat="30.8912557" lon="35.6897016">
<ele>1029.21</ele>
<time>2015-11-22T11:15:31Z</time>
</trkpt>
<trkpt lat="30.8912036" lon="35.6897109">
<ele>1031.87</ele>
<time>2015-11-22T11:15:34Z</time>
</trkpt>
<trkpt lat="30.8911497" lon="35.6897166">
<ele>1034.20</ele>
<time>2015-11-22T11:15:37Z</time>
</trkpt>
<trkpt lat="30.8910963" lon="35.6897261">
<ele>1036.00</ele>
<time>2015-11-22T11:15:40Z</time>
</trkpt>
<trkpt lat="30.8910430" lon="35.6897338">
<ele>1037.97</ele>
<time>2015-11-22T11:15:43Z</time>
</trkpt>
<trkpt lat="30.8909922" lon="35.6897479">
<ele>1037.59</ele>
<time>2015-11-22T11:15:46Z</time>
</trkpt>
<trkpt lat="30.8909400" lon="35.6897551">
<ele>1037.67</ele>
<time>2015-11-22T11:15:49Z</time>
</trkpt>
<trkpt lat="30.8908886" lon="35.6897606">
<ele>1036.68</ele>
<time>2015-11-22T11:15:52Z</time>
</trkpt>
<trkpt lat="30.8908379" lon="35.6897693">
<ele>1027.93</ele>
<time>2015-11-22T11:15:55Z</time>
</trkpt>
<trkpt lat="30.8907876" lon="35.6897750">
<ele>1025.71</ele>
<time>2015-11-22T11:15:58Z</time>
</trkpt>
<trkpt lat="30.8907362" lon="35.6897764">
<ele>1025.43</ele>
<time>2015-11-22T11:16:01Z</time>
</trkpt>
<trkpt lat="30.8906801" lon="35.6897796">
<ele>1026.77</ele>
<time>2015-11-22T11:16:04Z</time>
</trkpt>
<trkpt lat="30.8906240" lon="35.6897728">
<ele>1025.69</ele>
<time>2015-11-22T11:16:07Z</time>
</trkpt>
<trkpt lat="30.8905707" lon="35.6897689">
<ele>1024.68</ele>
<time>2015-11-22T11:16:10Z</time>
</trkpt>
<trkpt lat="30.8905200" lon="35.6897635">
<ele>1024.43</ele>
<time>2015-11-22T11:16:13Z</time>
</trkpt>
<trkpt lat="30.8904657" lon="35.6897722">
<ele>1025.15</ele>
<time>2015-11-22T11:16:16Z</time>
</trkpt>
<trkpt lat="30.8904105" lon="35.6897801">
<ele>1026.99</ele>
<time>2015-11-22T11:16:19Z</time>
</trkpt>
<trkpt lat="30.8903580" lon="35.6897849">
<ele>1025.97</ele>
<time>2015-11-22T11:16:22Z</time>
</trkpt>
<trkpt lat="30.8903019" lon="35.6897944">
<ele>1026.34</ele>
<time>2015-11-22T11:16:25Z</time>
</trkpt>
<trkpt lat="30.8902513" lon="35.6897965">
<ele>1026.26</ele>
<time>2015-11-22T11:16:28Z</time>
</trkpt>
<trkpt lat="30.8902006" lon="35.6897886">
<ele>1028.00</ele>
<time>2015-11-22T11:16:31Z</time>
</trkpt>
<trkpt lat="30.8901489" lon="35.6897866">
<ele>1027.97</ele>
<time>2015-11-22T11:16:34Z</time>
</trkpt>
<trkpt lat="30.8901008" lon="35.6897843">
<ele>1029.09</ele>
<time>2015-11-22T11:16:37Z</time>
</trkpt>
<trkpt lat="30.8900534" lon="35.6897872">
<ele>1030.98</ele>
<time>2015-11-22T11:16:40Z</time>
</trkpt>
<trkpt lat="30.8900046" lon="35.6897858">
<ele>1029.47</ele>
<time>2015-11-22T11:16:43Z</time>
</trkpt>
<trkpt lat="30.8899555" lon="35.6897857">
<ele>1029.28</ele>
<time>2015-11-22T11:16:46Z</time>
</trkpt>
<trkpt lat="30.8899082" lon="35.6897864">
<ele>1030.88</ele>
<time>2015-11-22T11:16:49Z</time>
</trkpt>
<trkpt lat="30.8898581" lon="35.6897871">
<ele>1032.95</ele>
<time>2015-11-22T11:16:52Z</time>
</trkpt>
<trkpt lat="30.8898103" lon="35.6897912">
<ele>1032.59</ele>
<time>2015-11-22T11:16:55Z</time>
</trkpt>
<trkpt lat="30.8897627" lon="35.6897925">
<ele>1034.29</ele>
<time>2015-11-22T11:16:58Z</time>
</trkpt>
<trkpt lat="30.8897175" lon="35.6897930">
<ele>1034.88</ele>
<time>2015-11-22T11:17:01Z</time>
</trkpt>
<trkpt lat="30.8896725" lon="35.6897900">
<ele>1030.95</ele>
<time>2015-11-22T11:17:04Z</time>
</trkpt>
<trkpt lat="30.8896122" lon="35.6897942">
<ele>1030.68</ele>
<time>2015-11-22T11:17:08Z</time>
</trkpt>
<trkpt lat="30.8895664" lon="35.6897891">
<ele>1029.93</ele>
<time>2015-11-22T11:17:11Z</time>
</trkpt>
<trkpt lat="30.8895188" lon="35.6897871">
<ele>1030.59</ele>
<time>2015-11-22T11:17:14Z</time>
</trkpt>
<trkpt lat="30.8894685" lon="35.6897902">
<ele>1031.67</ele>
<time>2015-11-22T11:17:17Z</time>
</trkpt>
<trkpt lat="30.8894222" lon="35.6897939">
<ele>1031.80</ele>
<time>2015-11-22T11:17:20Z</time>
</trkpt>
<trkpt lat="30.8893644" lon="35.6897895">
<ele>1031.36</ele>
<time>2015-11-22T11:17:24Z</time>
</trkpt>
<trkpt lat="30.8893166" lon="35.6897961">
<ele>1031.39</ele>
<time>2015-11-22T11:17:27Z</time>
</trkpt>
<trkpt lat="30.8892666" lon="35.6898030">
<ele>1032.64</ele>
<time>2015-11-22T11:17:30Z</time>
</trkpt>
<trkpt lat="30.8892165" lon="35.6898022">
<ele>1033.05</ele>
<time>2015-11-22T11:17:33Z</time>
</trkpt>
<trkpt lat="30.8891709" lon="35.6898034">
<ele>1032.48</ele>
<time>2015-11-22T11:17:36Z</time>
</trkpt>
<trkpt lat="30.8891218" lon="35.6898008">
<ele>1033.03</ele>
<time>2015-11-22T11:17:39Z</time>
</trkpt>
<trkpt lat="30.8890706" lon="35.6898033">
<ele>1033.97</ele>
<time>2015-11-22T11:17:42Z</time>
</trkpt>
<trkpt lat="30.8890205" lon="35.6898058">
<ele>1036.84</ele>
<time>2015-11-22T11:17:45Z</time>
</trkpt>
<trkpt lat="30.8889706" lon="35.6898019">
<ele>1035.95</ele>
<time>2015-11-22T11:17:48Z</time>
</trkpt>
<trkpt lat="30.8889212" lon="35.6898018">
<ele>1034.71</ele>
<time>2015-11-22T11:17:51Z</time>
</trkpt>
<trkpt lat="30.8888735" lon="35.6898044">
<ele>1033.06</ele>
<time>2015-11-22T11:17:54Z</time>
</trkpt>
<trkpt lat="30.8888171" lon="35.6898029">
<ele>1033.06</ele>
<time>2015-11-22T11:17:58Z</time>
</trkpt>
<trkpt lat="30.8887697" lon="35.6897814">
<ele>1031.94</ele>
<time>2015-11-22T11:18:02Z</time>
</trkpt>
<trkpt lat="30.8887144" lon="35.6897718">
<ele>1032.18</ele>
<time>2015-11-22T11:18:06Z</time>
</trkpt>
<trkpt lat="30.8886656" lon="35.6897632">
<ele>1033.62</ele>
<time>2015-11-22T11:18:09Z</time>
</trkpt>
<trkpt lat="30.8886164" lon="35.6897572">
<ele>1035.05</ele>
<time>2015-11-22T11:18:12Z</time>
</trkpt>
<trkpt lat="30.8885663" lon="35.6897470">
<ele>1033.60</ele>
<time>2015-11-22T11:18:15Z</time>
</trkpt>
<trkpt lat="30.8885152" lon="35.6897370">
<ele>1035.17</ele>
<time>2015-11-22T11:18:18Z</time>
</trkpt>
<trkpt lat="30.8884609" lon="35.6897363">
<ele>1035.62</ele>
<time>2015-11-22T11:18:21Z</time>
</trkpt>
<trkpt lat="30.8884095" lon="35.6897217">
<ele>1034.30</ele>
<time>2015-11-22T11:18:24Z</time>
</trkpt>
<trkpt lat="30.8883627" lon="35.6896970">
<ele>1031.38</ele>
<time>2015-11-22T11:18:27Z</time>
</trkpt>
<trkpt lat="30.8883144" lon="35.6896756">
<ele>1031.77</ele>
<time>2015-11-22T11:18:30Z</time>
</trkpt>
<trkpt lat="30.8882588" lon="35.6896504">
<ele>1030.44</ele>
<time>2015-11-22T11:18:33Z</time>
</trkpt>
<trkpt lat="30.8882093" lon="35.6896293">
<ele>1031.27</ele>
<time>2015-11-22T11:18:36Z</time>
</trkpt>
<trkpt lat="30.8881601" lon="35.6896102">
<ele>1033.50</ele>
<time>2015-11-22T11:18:39Z</time>
</trkpt>
<trkpt lat="30.8881056" lon="35.6895829">
<ele>1032.66</ele>
<time>2015-11-22T11:18:42Z</time>
</trkpt>
<trkpt lat="30.8880528" lon="35.6895483">
<ele>1033.68</ele>
<time>2015-11-22T11:18:45Z</time>
</trkpt>
<trkpt lat="30.8880024" lon="35.6895204">
<ele>1031.30</ele>
<time>2015-11-22T11:18:48Z</time>
</trkpt>
<trkpt lat="30.8879485" lon="35.6894984">
<ele>1030.76</ele>
<time>2015-11-22T11:18:51Z</time>
</trkpt>
<trkpt lat="30.8878949" lon="35.6894675">
<ele>1030.81</ele>
<time>2015-11-22T11:18:54Z</time>
</trkpt>
<trkpt lat="30.8878528" lon="35.6894414">
<ele>1031.32</ele>
<time>2015-11-22T11:18:57Z</time>
</trkpt>
<trkpt lat="30.8877984" lon="35.6894102">
<ele>1030.14</ele>
<time>2015-11-22T11:19:01Z</time>
</trkpt>
<trkpt lat="30.8877468" lon="35.6893820">
<ele>1028.86</ele>
<time>2015-11-22T11:19:04Z</time>
</trkpt>
<trkpt lat="30.8876967" lon="35.6893684">
<ele>1028.95</ele>
<time>2015-11-22T11:19:07Z</time>
</trkpt>
<trkpt lat="30.8876484" lon="35.6893502">
<ele>1030.09</ele>
<time>2015-11-22T11:19:10Z</time>
</trkpt>
<trkpt lat="30.8875938" lon="35.6893222">
<ele>1027.94</ele>
<time>2015-11-22T11:19:14Z</time>
</trkpt>
<trkpt lat="30.8875451" lon="35.6893006">
<ele>1028.84</ele>
<time>2015-11-22T11:19:17Z</time>
</trkpt>
<trkpt lat="30.8874945" lon="35.6892741">
<ele>1028.57</ele>
<time>2015-11-22T11:19:20Z</time>
</trkpt>
<trkpt lat="30.8874495" lon="35.6892558">
<ele>1028.04</ele>
<time>2015-11-22T11:19:23Z</time>
</trkpt>
<trkpt lat="30.8874075" lon="35.6892352">
<ele>1029.22</ele>
<time>2015-11-22T11:19:26Z</time>
</trkpt>
<trkpt lat="30.8873640" lon="35.6892105">
<ele>1030.37</ele>
<time>2015-11-22T11:19:29Z</time>
</trkpt>
<trkpt lat="30.8873075" lon="35.6891822">
<ele>1028.27</ele>
<time>2015-11-22T11:19:32Z</time>
</trkpt>
<trkpt lat="30.8872526" lon="35.6891571">
<ele>1030.00</ele>
<time>2015-11-22T11:19:35Z</time>
</trkpt>
<trkpt lat="30.8871970" lon="35.6891301">
<ele>1030.72</ele>
<time>2015-11-22T11:19:38Z</time>
</trkpt>
<trkpt lat="30.8871334" lon="35.6891052">
<ele>1031.68</ele>
<time>2015-11-22T11:19:41Z</time>
</trkpt>
<trkpt lat="30.8870883" lon="35.6890967">
<ele>1032.72</ele>
<time>2015-11-22T11:19:43Z</time>
</trkpt>
<trkpt lat="30.8870247" lon="35.6890848">
<ele>1034.43</ele>
<time>2015-11-22T11:19:46Z</time>
</trkpt>
<trkpt lat="30.8869692" lon="35.6890851">
<ele>1043.02</ele>
<time>2015-11-22T11:19:49Z</time>
</trkpt>
<trkpt lat="30.8869348" lon="35.6890444">
<ele>1060.88</ele>
<time>2015-11-22T11:20:10Z</time>
</trkpt>
<trkpt lat="30.8868832" lon="35.6890403">
<ele>1060.74</ele>
<time>2015-11-22T11:20:14Z</time>
</trkpt>
<trkpt lat="30.8868300" lon="35.6890299">
<ele>1062.69</ele>
<time>2015-11-22T11:20:17Z</time>
</trkpt>
<trkpt lat="30.8867697" lon="35.6890151">
<ele>1063.68</ele>
<time>2015-11-22T11:20:20Z</time>
</trkpt>
<trkpt lat="30.8867036" lon="35.6889971">
<ele>1064.05</ele>
<time>2015-11-22T11:20:23Z</time>
</trkpt>
<trkpt lat="30.8866576" lon="35.6889875">
<ele>1064.81</ele>
<time>2015-11-22T11:20:25Z</time>
</trkpt>
<trkpt lat="30.8866118" lon="35.6889749">
<ele>1065.25</ele>
<time>2015-11-22T11:20:27Z</time>
</trkpt>
<trkpt lat="30.8865630" lon="35.6889626">
<ele>1067.36</ele>
<time>2015-11-22T11:20:29Z</time>
</trkpt>
<trkpt lat="30.8865125" lon="35.6889552">
<ele>1069.63</ele>
<time>2015-11-22T11:20:31Z</time>
</trkpt>
<trkpt lat="30.8864623" lon="35.6889472">
<ele>1070.45</ele>
<time>2015-11-22T11:20:33Z</time>
</trkpt>
<trkpt lat="30.8864132" lon="35.6889369">
<ele>1070.66</ele>
<time>2015-11-22T11:20:35Z</time>
</trkpt>
<trkpt lat="30.8863663" lon="35.6889245">
<ele>1070.46</ele>
<time>2015-11-22T11:20:37Z</time>
</trkpt>
<trkpt lat="30.8863177" lon="35.6889134">
<ele>1070.66</ele>
<time>2015-11-22T11:20:39Z</time>
</trkpt>
<trkpt lat="30.8862719" lon="35.6889044">
<ele>1071.21</ele>
<time>2015-11-22T11:20:41Z</time>
</trkpt>
<trkpt lat="30.8862257" lon="35.6889001">
<ele>1072.60</ele>
<time>2015-11-22T11:20:43Z</time>
</trkpt>
<trkpt lat="30.8861797" lon="35.6888924">
<ele>1073.20</ele>
<time>2015-11-22T11:20:45Z</time>
</trkpt>
<trkpt lat="30.8861333" lon="35.6888837">
<ele>1073.34</ele>
<time>2015-11-22T11:20:47Z</time>
</trkpt>
<trkpt lat="30.8860876" lon="35.6888763">
<ele>1072.63</ele>
<time>2015-11-22T11:20:49Z</time>
</trkpt>
<trkpt lat="30.8860427" lon="35.6888660">
<ele>1072.70</ele>
<time>2015-11-22T11:20:51Z</time>
</trkpt>
<trkpt lat="30.8859981" lon="35.6888565">
<ele>1073.72</ele>
<time>2015-11-22T11:20:53Z</time>
</trkpt>
<trkpt lat="30.8859392" lon="35.6888416">
<ele>1072.68</ele>
<time>2015-11-22T11:20:56Z</time>
</trkpt>
<trkpt lat="30.8858946" lon="35.6888225">
<ele>1071.68</ele>
<time>2015-11-22T11:20:59Z</time>
</trkpt>
<trkpt lat="30.8858464" lon="35.6888034">
<ele>1071.93</ele>
<time>2015-11-22T11:21:02Z</time>
</trkpt>
<trkpt lat="30.8857907" lon="35.6887904">
<ele>1072.59</ele>
<time>2015-11-22T11:21:05Z</time>
</trkpt>
<trkpt lat="30.8857324" lon="35.6887748">
<ele>1074.54</ele>
<time>2015-11-22T11:21:08Z</time>
</trkpt>
<trkpt lat="30.8856737" lon="35.6887609">
<ele>1074.54</ele>
<time>2015-11-22T11:21:11Z</time>
</trkpt>
<trkpt lat="30.8856178" lon="35.6887420">
<ele>1074.79</ele>
<time>2015-11-22T11:21:14Z</time>
</trkpt>
<trkpt lat="30.8855635" lon="35.6887231">
<ele>1074.44</ele>
<time>2015-11-22T11:21:17Z</time>
</trkpt>
<trkpt lat="30.8855058" lon="35.6887059">
<ele>1075.03</ele>
<time>2015-11-22T11:21:20Z</time>
</trkpt>
<trkpt lat="30.8854454" lon="35.6886910">
<ele>1075.35</ele>
<time>2015-11-22T11:21:23Z</time>
</trkpt>
<trkpt lat="30.8853857" lon="35.6886723">
<ele>1075.39</ele>
<time>2015-11-22T11:21:26Z</time>
</trkpt>
<trkpt lat="30.8853274" lon="35.6886497">
<ele>1076.27</ele>
<time>2015-11-22T11:21:29Z</time>
</trkpt>
<trkpt lat="30.8852671" lon="35.6886342">
<ele>1077.50</ele>
<time>2015-11-22T11:21:32Z</time>
</trkpt>
<trkpt lat="30.8852116" lon="35.6886131">
<ele>1078.16</ele>
<time>2015-11-22T11:21:35Z</time>
</trkpt>
<trkpt lat="30.8851559" lon="35.6885820">
<ele>1078.74</ele>
<time>2015-11-22T11:21:38Z</time>
</trkpt>
<trkpt lat="30.8850988" lon="35.6885456">
<ele>1077.69</ele>
<time>2015-11-22T11:21:41Z</time>
</trkpt>
<trkpt lat="30.8850382" lon="35.6885187">
<ele>1080.56</ele>
<time>2015-11-22T11:21:44Z</time>
</trkpt>
<trkpt lat="30.8849774" lon="35.6884954">
<ele>1080.54</ele>
<time>2015-11-22T11:21:47Z</time>
</trkpt>
<trkpt lat="30.8849223" lon="35.6884648">
<ele>1080.41</ele>
<time>2015-11-22T11:21:50Z</time>
</trkpt>
<trkpt lat="30.8848651" lon="35.6884404">
<ele>1080.77</ele>
<time>2015-11-22T11:21:53Z</time>
</trkpt>
<trkpt lat="30.8848125" lon="35.6884067">
<ele>1080.44</ele>
<time>2015-11-22T11:21:56Z</time>
</trkpt>
<trkpt lat="30.8847620" lon="35.6883698">
<ele>1080.40</ele>
<time>2015-11-22T11:21:59Z</time>
</trkpt>
<trkpt lat="30.8847124" lon="35.6883339">
<ele>1080.39</ele>
<time>2015-11-22T11:22:02Z</time>
</trkpt>
<trkpt lat="30.8846636" lon="35.6882942">
<ele>1080.77</ele>
<time>2015-11-22T11:22:05Z</time>
</trkpt>
<trkpt lat="30.8846177" lon="35.6882525">
<ele>1080.44</ele>
<time>2015-11-22T11:22:08Z</time>
</trkpt>
<trkpt lat="30.8845755" lon="35.6882014">
<ele>1079.52</ele>
<time>2015-11-22T11:22:11Z</time>
</trkpt>
<trkpt lat="30.8845310" lon="35.6881535">
<ele>1079.04</ele>
<time>2015-11-22T11:22:14Z</time>
</trkpt>
<trkpt lat="30.8844841" lon="35.6881103">
<ele>1080.10</ele>
<time>2015-11-22T11:22:17Z</time>
</trkpt>
<trkpt lat="30.8844377" lon="35.6880657">
<ele>1079.98</ele>
<time>2015-11-22T11:22:20Z</time>
</trkpt>
<trkpt lat="30.8843982" lon="35.6880323">
<ele>1080.84</ele>
<time>2015-11-22T11:22:23Z</time>
</trkpt>
<trkpt lat="30.8843442" lon="35.6880042">
<ele>1082.38</ele>
<time>2015-11-22T11:24:31Z</time>
</trkpt>
<trkpt lat="30.8842993" lon="35.6879806">
<ele>1083.64</ele>
<time>2015-11-22T11:24:34Z</time>
</trkpt>
<trkpt lat="30.8842529" lon="35.6879535">
<ele>1084.30</ele>
<time>2015-11-22T11:24:37Z</time>
</trkpt>
<trkpt lat="30.8842091" lon="35.6879345">
<ele>1084.38</ele>
<time>2015-11-22T11:24:40Z</time>
</trkpt>
<trkpt lat="30.8841518" lon="35.6879150">
<ele>1084.46</ele>
<time>2015-11-22T11:24:44Z</time>
</trkpt>
<trkpt lat="30.8841077" lon="35.6879039">
<ele>1085.78</ele>
<time>2015-11-22T11:24:47Z</time>
</trkpt>
<trkpt lat="30.8840631" lon="35.6878950">
<ele>1086.32</ele>
<time>2015-11-22T11:24:50Z</time>
</trkpt>
<trkpt lat="30.8840185" lon="35.6878827">
<ele>1086.01</ele>
<time>2015-11-22T11:24:53Z</time>
</trkpt>
<trkpt lat="30.8839742" lon="35.6878720">
<ele>1085.60</ele>
<time>2015-11-22T11:24:56Z</time>
</trkpt>
<trkpt lat="30.8839300" lon="35.6878598">
<ele>1086.29</ele>
<time>2015-11-22T11:24:59Z</time>
</trkpt>
<trkpt lat="30.8838842" lon="35.6878502">
<ele>1086.13</ele>
<time>2015-11-22T11:25:02Z</time>
</trkpt>
<trkpt lat="30.8838387" lon="35.6878413">
<ele>1085.36</ele>
<time>2015-11-22T11:25:05Z</time>
</trkpt>
<trkpt lat="30.8837928" lon="35.6878353">
<ele>1085.89</ele>
<time>2015-11-22T11:25:08Z</time>
</trkpt>
<trkpt lat="30.8837478" lon="35.6878267">
<ele>1086.33</ele>
<time>2015-11-22T11:25:11Z</time>
</trkpt>
<trkpt lat="30.8837013" lon="35.6878228">
<ele>1086.89</ele>
<time>2015-11-22T11:25:14Z</time>
</trkpt>
<trkpt lat="30.8836512" lon="35.6878279">
<ele>1087.33</ele>
<time>2015-11-22T11:25:17Z</time>
</trkpt>
<trkpt lat="30.8836024" lon="35.6878246">
<ele>1087.89</ele>
<time>2015-11-22T11:25:20Z</time>
</trkpt>
<trkpt lat="30.8835501" lon="35.6878181">
<ele>1088.08</ele>
<time>2015-11-22T11:25:23Z</time>
</trkpt>
<trkpt lat="30.8834995" lon="35.6878077">
<ele>1089.10</ele>
<time>2015-11-22T11:25:26Z</time>
</trkpt>
<trkpt lat="30.8834485" lon="35.6877989">
<ele>1091.23</ele>
<time>2015-11-22T11:25:29Z</time>
</trkpt>
<trkpt lat="30.8834021" lon="35.6877889">
<ele>1092.25</ele>
<time>2015-11-22T11:25:32Z</time>
</trkpt>
<trkpt lat="30.8833580" lon="35.6877766">
<ele>1093.38</ele>
<time>2015-11-22T11:25:35Z</time>
</trkpt>
<trkpt lat="30.8833120" lon="35.6877622">
<ele>1094.27</ele>
<time>2015-11-22T11:25:38Z</time>
</trkpt>
<trkpt lat="30.8832662" lon="35.6877505">
<ele>1095.13</ele>
<time>2015-11-22T11:25:41Z</time>
</trkpt>
<trkpt lat="30.8832168" lon="35.6877417">
<ele>1096.61</ele>
<time>2015-11-22T11:25:44Z</time>
</trkpt>
<trkpt lat="30.8831697" lon="35.6877303">
<ele>1098.67</ele>
<time>2015-11-22T11:25:47Z</time>
</trkpt>
<trkpt lat="30.8831222" lon="35.6877222">
<ele>1098.80</ele>
<time>2015-11-22T11:25:50Z</time>
</trkpt>
<trkpt lat="30.8830754" lon="35.6877020">
<ele>1097.57</ele>
<time>2015-11-22T11:25:53Z</time>
</trkpt>
<trkpt lat="30.8830263" lon="35.6876833">
<ele>1095.67</ele>
<time>2015-11-22T11:25:56Z</time>
</trkpt>
<trkpt lat="30.8829804" lon="35.6876697">
<ele>1097.68</ele>
<time>2015-11-22T11:25:59Z</time>
</trkpt>
<trkpt lat="30.8829329" lon="35.6876599">
<ele>1099.05</ele>
<time>2015-11-22T11:26:02Z</time>
</trkpt>
<trkpt lat="30.8828878" lon="35.6876415">
<ele>1098.85</ele>
<time>2015-11-22T11:26:05Z</time>
</trkpt>
<trkpt lat="30.8828341" lon="35.6876315">
<ele>1101.20</ele>
<time>2015-11-22T11:26:08Z</time>
</trkpt>
<trkpt lat="30.8827802" lon="35.6876256">
<ele>1102.24</ele>
<time>2015-11-22T11:26:11Z</time>
</trkpt>
<trkpt lat="30.8827354" lon="35.6876109">
<ele>1099.63</ele>
<time>2015-11-22T11:26:14Z</time>
</trkpt>
<trkpt lat="30.8826801" lon="35.6875900">
<ele>1099.10</ele>
<time>2015-11-22T11:26:18Z</time>
</trkpt>
<trkpt lat="30.8826245" lon="35.6875757">
<ele>1099.75</ele>
<time>2015-11-22T11:26:22Z</time>
</trkpt>
<trkpt lat="30.8825794" lon="35.6875651">
<ele>1099.94</ele>
<time>2015-11-22T11:26:25Z</time>
</trkpt>
<trkpt lat="30.8825272" lon="35.6875580">
<ele>1099.96</ele>
<time>2015-11-22T11:26:28Z</time>
</trkpt>
<trkpt lat="30.8824778" lon="35.6875532">
<ele>1099.46</ele>
<time>2015-11-22T11:26:31Z</time>
</trkpt>
<trkpt lat="30.8824274" lon="35.6875438">
<ele>1100.53</ele>
<time>2015-11-22T11:26:34Z</time>
</trkpt>
<trkpt lat="30.8823782" lon="35.6875366">
<ele>1101.79</ele>
<time>2015-11-22T11:26:37Z</time>
</trkpt>
<trkpt lat="30.8823296" lon="35.6875405">
<ele>1103.94</ele>
<time>2015-11-22T11:26:40Z</time>
</trkpt>
<trkpt lat="30.8822789" lon="35.6875463">
<ele>1105.09</ele>
<time>2015-11-22T11:26:43Z</time>
</trkpt>
<trkpt lat="30.8822299" lon="35.6875447">
<ele>1106.23</ele>
<time>2015-11-22T11:26:46Z</time>
</trkpt>
<trkpt lat="30.8821721" lon="35.6875370">
<ele>1108.32</ele>
<time>2015-11-22T11:26:50Z</time>
</trkpt>
<trkpt lat="30.8821113" lon="35.6875329">
<ele>1108.51</ele>
<time>2015-11-22T11:26:54Z</time>
</trkpt>
<trkpt lat="30.8820515" lon="35.6875300">
<ele>1108.40</ele>
<time>2015-11-22T11:26:58Z</time>
</trkpt>
<trkpt lat="30.8820022" lon="35.6875331">
<ele>1108.39</ele>
<time>2015-11-22T11:27:01Z</time>
</trkpt>
<trkpt lat="30.8819513" lon="35.6875355">
<ele>1108.39</ele>
<time>2015-11-22T11:27:04Z</time>
</trkpt>
<trkpt lat="30.8819000" lon="35.6875392">
<ele>1107.77</ele>
<time>2015-11-22T11:27:07Z</time>
</trkpt>
<trkpt lat="30.8818486" lon="35.6875503">
<ele>1108.19</ele>
<time>2015-11-22T11:27:10Z</time>
</trkpt>
<trkpt lat="30.8817940" lon="35.6875565">
<ele>1108.37</ele>
<time>2015-11-22T11:27:13Z</time>
</trkpt>
<trkpt lat="30.8817405" lon="35.6875639">
<ele>1109.27</ele>
<time>2015-11-22T11:27:16Z</time>
</trkpt>
<trkpt lat="30.8816863" lon="35.6875725">
<ele>1109.38</ele>
<time>2015-11-22T11:27:19Z</time>
</trkpt>
<trkpt lat="30.8816406" lon="35.6875801">
<ele>1109.39</ele>
<time>2015-11-22T11:27:22Z</time>
</trkpt>
<trkpt lat="30.8815958" lon="35.6875880">
<ele>1109.39</ele>
<time>2015-11-22T11:27:25Z</time>
</trkpt>
<trkpt lat="30.8815478" lon="35.6875997">
<ele>1109.39</ele>
<time>2015-11-22T11:27:28Z</time>
</trkpt>
<trkpt lat="30.8814895" lon="35.6876096">
<ele>1109.89</ele>
<time>2015-11-22T11:27:31Z</time>
</trkpt>
<trkpt lat="30.8814250" lon="35.6876173">
<ele>1110.33</ele>
<time>2015-11-22T11:27:34Z</time>
</trkpt>
<trkpt lat="30.8813677" lon="35.6876304">
<ele>1109.89</ele>
<time>2015-11-22T11:27:37Z</time>
</trkpt>
<trkpt lat="30.8813093" lon="35.6876427">
<ele>1110.33</ele>
<time>2015-11-22T11:27:40Z</time>
</trkpt>
<trkpt lat="30.8812356" lon="35.6876550">
<ele>1110.89</ele>
<time>2015-11-22T11:27:43Z</time>
</trkpt>
<trkpt lat="30.8811902" lon="35.6876651">
<ele>1111.27</ele>
<time>2015-11-22T11:27:45Z</time>
</trkpt>
<trkpt lat="30.8811388" lon="35.6876685">
<ele>1111.38</ele>
<time>2015-11-22T11:27:48Z</time>
</trkpt>
<trkpt lat="30.8810814" lon="35.6876753">
<ele>1111.39</ele>
<time>2015-11-22T11:27:51Z</time>
</trkpt>
<trkpt lat="30.8810324" lon="35.6876828">
<ele>1111.39</ele>
<time>2015-11-22T11:27:53Z</time>
</trkpt>
<trkpt lat="30.8809818" lon="35.6876888">
<ele>1111.39</ele>
<time>2015-11-22T11:27:55Z</time>
</trkpt>
<trkpt lat="30.8809306" lon="35.6876947">
<ele>1111.39</ele>
<time>2015-11-22T11:27:57Z</time>
</trkpt>
<trkpt lat="30.8808825" lon="35.6876993">
<ele>1111.39</ele>
<time>2015-11-22T11:27:59Z</time>
</trkpt>
<trkpt lat="30.8808372" lon="35.6877001">
<ele>1111.39</ele>
<time>2015-11-22T11:28:02Z</time>
</trkpt>
<trkpt lat="30.8807826" lon="35.6876972">
<ele>1112.14</ele>
<time>2015-11-22T11:28:06Z</time>
</trkpt>
<trkpt lat="30.8807323" lon="35.6876939">
<ele>1112.33</ele>
<time>2015-11-22T11:28:08Z</time>
</trkpt>
<trkpt lat="30.8806666" lon="35.6876931">
<ele>1112.39</ele>
<time>2015-11-22T11:28:11Z</time>
</trkpt>
<trkpt lat="30.8806090" lon="35.6876930">
<ele>1112.39</ele>
<time>2015-11-22T11:28:15Z</time>
</trkpt>
<trkpt lat="30.8805524" lon="35.6876940">
<ele>1112.39</ele>
<time>2015-11-22T11:28:18Z</time>
</trkpt>
<trkpt lat="30.8804935" lon="35.6876846">
<ele>1112.89</ele>
<time>2015-11-22T11:28:20Z</time>
</trkpt>
<trkpt lat="30.8804082" lon="35.6876791">
<ele>1113.02</ele>
<time>2015-11-22T11:28:23Z</time>
</trkpt>
<trkpt lat="30.8803525" lon="35.6876766">
<ele>1113.30</ele>
<time>2015-11-22T11:28:25Z</time>
</trkpt>
<trkpt lat="30.8803025" lon="35.6876707">
<ele>1113.12</ele>
<time>2015-11-22T11:28:27Z</time>
</trkpt>
<trkpt lat="30.8802509" lon="35.6876663">
<ele>1112.61</ele>
<time>2015-11-22T11:28:30Z</time>
</trkpt>
<trkpt lat="30.8801959" lon="35.6876612">
<ele>1112.41</ele>
<time>2015-11-22T11:28:34Z</time>
</trkpt>
<trkpt lat="30.8801347" lon="35.6876536">
<ele>1112.90</ele>
<time>2015-11-22T11:28:37Z</time>
</trkpt>
<trkpt lat="30.8800838" lon="35.6876484">
<ele>1113.27</ele>
<time>2015-11-22T11:28:39Z</time>
</trkpt>
<trkpt lat="30.8800224" lon="35.6876432">
<ele>1113.38</ele>
<time>2015-11-22T11:28:42Z</time>
</trkpt>
<trkpt lat="30.8799532" lon="35.6876378">
<ele>1113.89</ele>
<time>2015-11-22T11:28:45Z</time>
</trkpt>
<trkpt lat="30.8799048" lon="35.6876358">
<ele>1114.27</ele>
<time>2015-11-22T11:28:47Z</time>
</trkpt>
<trkpt lat="30.8798382" lon="35.6876359">
<ele>1114.38</ele>
<time>2015-11-22T11:28:50Z</time>
</trkpt>
<trkpt lat="30.8797812" lon="35.6876305">
<ele>1114.89</ele>
<time>2015-11-22T11:28:54Z</time>
</trkpt>
<trkpt lat="30.8797156" lon="35.6876307">
<ele>1116.21</ele>
<time>2015-11-22T11:28:57Z</time>
</trkpt>
<trkpt lat="30.8796593" lon="35.6876285">
<ele>1116.35</ele>
<time>2015-11-22T11:28:59Z</time>
</trkpt>
<trkpt lat="30.8795995" lon="35.6876238">
<ele>1116.88</ele>
<time>2015-11-22T11:29:01Z</time>
</trkpt>
<trkpt lat="30.8795461" lon="35.6876222">
<ele>1118.02</ele>
<time>2015-11-22T11:29:03Z</time>
</trkpt>
<trkpt lat="30.8794946" lon="35.6876189">
<ele>1118.30</ele>
<time>2015-11-22T11:29:05Z</time>
</trkpt>
<trkpt lat="30.8794422" lon="35.6876144">
<ele>1118.87</ele>
<time>2015-11-22T11:29:07Z</time>
</trkpt>
<trkpt lat="30.8793882" lon="35.6876109">
<ele>1119.26</ele>
<time>2015-11-22T11:29:09Z</time>
</trkpt>
<trkpt lat="30.8793323" lon="35.6876097">
<ele>1119.36</ele>
<time>2015-11-22T11:29:11Z</time>
</trkpt>
<trkpt lat="30.8792793" lon="35.6876051">
<ele>1119.39</ele>
<time>2015-11-22T11:29:13Z</time>
</trkpt>
<trkpt lat="30.8792263" lon="35.6876005">
<ele>1119.39</ele>
<time>2015-11-22T11:29:15Z</time>
</trkpt>
<trkpt lat="30.8791718" lon="35.6875925">
<ele>1120.14</ele>
<time>2015-11-22T11:29:17Z</time>
</trkpt>
<trkpt lat="30.8791155" lon="35.6875861">
<ele>1120.33</ele>
<time>2015-11-22T11:29:19Z</time>
</trkpt>
<trkpt lat="30.8790605" lon="35.6875829">
<ele>1120.63</ele>
<time>2015-11-22T11:29:21Z</time>
</trkpt>
<trkpt lat="30.8790067" lon="35.6875778">
<ele>1120.20</ele>
<time>2015-11-22T11:29:23Z</time>
</trkpt>
<trkpt lat="30.8789540" lon="35.6875758">
<ele>1120.85</ele>
<time>2015-11-22T11:29:25Z</time>
</trkpt>
<trkpt lat="30.8789038" lon="35.6875750">
<ele>1121.76</ele>
<time>2015-11-22T11:29:27Z</time>
</trkpt>
<trkpt lat="30.8788561" lon="35.6875690">
<ele>1121.73</ele>
<time>2015-11-22T11:29:29Z</time>
</trkpt>
<trkpt lat="30.8788086" lon="35.6875659">
<ele>1121.73</ele>
<time>2015-11-22T11:29:31Z</time>
</trkpt>
<trkpt lat="30.8787615" lon="35.6875632">
<ele>1121.48</ele>
<time>2015-11-22T11:29:33Z</time>
</trkpt>
<trkpt lat="30.8787146" lon="35.6875566">
<ele>1121.66</ele>
<time>2015-11-22T11:29:35Z</time>
</trkpt>
<trkpt lat="30.8786687" lon="35.6875533">
<ele>1121.96</ele>
<time>2015-11-22T11:29:37Z</time>
</trkpt>
<trkpt lat="30.8786026" lon="35.6875471">
<ele>1122.84</ele>
<time>2015-11-22T11:29:40Z</time>
</trkpt>
<trkpt lat="30.8785363" lon="35.6875401">
<ele>1121.70</ele>
<time>2015-11-22T11:29:43Z</time>
</trkpt>
<trkpt lat="30.8784905" lon="35.6875355">
<ele>1119.97</ele>
<time>2015-11-22T11:29:45Z</time>
</trkpt>
<trkpt lat="30.8784432" lon="35.6875310">
<ele>1119.54</ele>
<time>2015-11-22T11:29:47Z</time>
</trkpt>
<trkpt lat="30.8783943" lon="35.6875310">
<ele>1119.43</ele>
<time>2015-11-22T11:29:49Z</time>
</trkpt>
<trkpt lat="30.8783466" lon="35.6875304">
<ele>1118.65</ele>
<time>2015-11-22T11:29:51Z</time>
</trkpt>
<trkpt lat="30.8783003" lon="35.6875257">
<ele>1118.46</ele>
<time>2015-11-22T11:29:53Z</time>
</trkpt>
<trkpt lat="30.8782542" lon="35.6875203">
<ele>1119.16</ele>
<time>2015-11-22T11:29:55Z</time>
</trkpt>
<trkpt lat="30.8781934" lon="35.6875078">
<ele>1118.86</ele>
<time>2015-11-22T11:29:58Z</time>
</trkpt>
<trkpt lat="30.8781362" lon="35.6874925">
<ele>1119.08</ele>
<time>2015-11-22T11:30:01Z</time>
</trkpt>
<trkpt lat="30.8780796" lon="35.6874712">
<ele>1119.85</ele>
<time>2015-11-22T11:30:04Z</time>
</trkpt>
<trkpt lat="30.8780215" lon="35.6874518">
<ele>1121.70</ele>
<time>2015-11-22T11:30:07Z</time>
</trkpt>
<trkpt lat="30.8779648" lon="35.6874316">
<ele>1122.68</ele>
<time>2015-11-22T11:30:10Z</time>
</trkpt>
<trkpt lat="30.8779109" lon="35.6874068">
<ele>1121.56</ele>
<time>2015-11-22T11:30:13Z</time>
</trkpt>
<trkpt lat="30.8778592" lon="35.6873734">
<ele>1120.91</ele>
<time>2015-11-22T11:30:16Z</time>
</trkpt>
<trkpt lat="30.8778123" lon="35.6873383">
<ele>1119.71</ele>
<time>2015-11-22T11:30:19Z</time>
</trkpt>
<trkpt lat="30.8777631" lon="35.6873064">
<ele>1119.93</ele>
<time>2015-11-22T11:30:22Z</time>
</trkpt>
<trkpt lat="30.8777114" lon="35.6872728">
<ele>1121.09</ele>
<time>2015-11-22T11:30:25Z</time>
</trkpt>
<trkpt lat="30.8776586" lon="35.6872417">
<ele>1121.36</ele>
<time>2015-11-22T11:30:28Z</time>
</trkpt>
<trkpt lat="30.8776121" lon="35.6871992">
<ele>1121.26</ele>
<time>2015-11-22T11:30:31Z</time>
</trkpt>
<trkpt lat="30.8775687" lon="35.6871549">
<ele>1121.38</ele>
<time>2015-11-22T11:30:34Z</time>
</trkpt>
<trkpt lat="30.8775260" lon="35.6871156">
<ele>1122.27</ele>
<time>2015-11-22T11:30:37Z</time>
</trkpt>
<trkpt lat="30.8774816" lon="35.6870770">
<ele>1123.13</ele>
<time>2015-11-22T11:30:40Z</time>
</trkpt>
<trkpt lat="30.8774369" lon="35.6870391">
<ele>1123.49</ele>
<time>2015-11-22T11:30:43Z</time>
</trkpt>
<trkpt lat="30.8773965" lon="35.6869979">
<ele>1123.03</ele>
<time>2015-11-22T11:30:46Z</time>
</trkpt>
<trkpt lat="30.8773562" lon="35.6869592">
<ele>1123.22</ele>
<time>2015-11-22T11:30:49Z</time>
</trkpt>
<trkpt lat="30.8773146" lon="35.6869196">
<ele>1123.37</ele>
<time>2015-11-22T11:30:52Z</time>
</trkpt>
<trkpt lat="30.8772718" lon="35.6868819">
<ele>1123.14</ele>
<time>2015-11-22T11:30:55Z</time>
</trkpt>
<trkpt lat="30.8772263" lon="35.6868414">
<ele>1123.36</ele>
<time>2015-11-22T11:30:58Z</time>
</trkpt>
<trkpt lat="30.8771826" lon="35.6868000">
<ele>1122.39</ele>
<time>2015-11-22T11:31:01Z</time>
</trkpt>
<trkpt lat="30.8771422" lon="35.6867591">
<ele>1120.64</ele>
<time>2015-11-22T11:31:04Z</time>
</trkpt>
<trkpt lat="30.8771026" lon="35.6867250">
<ele>1121.80</ele>
<time>2015-11-22T11:31:07Z</time>
</trkpt>
<trkpt lat="30.8770659" lon="35.6866929">
<ele>1123.19</ele>
<time>2015-11-22T11:31:10Z</time>
</trkpt>
<trkpt lat="30.8770266" lon="35.6866612">
<ele>1121.87</ele>
<time>2015-11-22T11:31:13Z</time>
</trkpt>
<trkpt lat="30.8769862" lon="35.6866330">
<ele>1122.83</ele>
<time>2015-11-22T11:31:16Z</time>
</trkpt>
<trkpt lat="30.8769482" lon="35.6866003">
<ele>1123.57</ele>
<time>2015-11-22T11:31:19Z</time>
</trkpt>
<trkpt lat="30.8769092" lon="35.6865661">
<ele>1125.54</ele>
<time>2015-11-22T11:31:22Z</time>
</trkpt>
<trkpt lat="30.8768728" lon="35.6865249">
<ele>1125.41</ele>
<time>2015-11-22T11:31:25Z</time>
</trkpt>
<trkpt lat="30.8768296" lon="35.6864834">
<ele>1125.90</ele>
<time>2015-11-22T11:31:28Z</time>
</trkpt>
<trkpt lat="30.8767830" lon="35.6864460">
<ele>1125.33</ele>
<time>2015-11-22T11:31:31Z</time>
</trkpt>
<trkpt lat="30.8767416" lon="35.6864029">
<ele>1124.64</ele>
<time>2015-11-22T11:31:34Z</time>
</trkpt>
<trkpt lat="30.8766984" lon="35.6863590">
<ele>1124.05</ele>
<time>2015-11-22T11:31:37Z</time>
</trkpt>
<trkpt lat="30.8766546" lon="35.6863150">
<ele>1123.60</ele>
<time>2015-11-22T11:31:40Z</time>
</trkpt>
<trkpt lat="30.8766170" lon="35.6862694">
<ele>1123.42</ele>
<time>2015-11-22T11:31:43Z</time>
</trkpt>
<trkpt lat="30.8766238" lon="35.6862049">
<ele>1124.65</ele>
<time>2015-11-22T11:31:46Z</time>
</trkpt>
<trkpt lat="30.8765755" lon="35.6862042">
<ele>1139.39</ele>
<time>2015-11-22T11:38:53Z</time>
</trkpt>
<trkpt lat="30.8765340" lon="35.6861646">
<ele>1139.39</ele>
<time>2015-11-22T11:39:02Z</time>
</trkpt>
<trkpt lat="30.8764978" lon="35.6861293">
<ele>1139.39</ele>
<time>2015-11-22T11:39:05Z</time>
</trkpt>
<trkpt lat="30.8764525" lon="35.6860916">
<ele>1139.39</ele>
<time>2015-11-22T11:39:08Z</time>
</trkpt>
<trkpt lat="30.8764093" lon="35.6860402">
<ele>1139.39</ele>
<time>2015-11-22T11:39:11Z</time>
</trkpt>
<trkpt lat="30.8763594" lon="35.6859804">
<ele>1139.89</ele>
<time>2015-11-22T11:39:14Z</time>
</trkpt>
<trkpt lat="30.8763270" lon="35.6859359">
<ele>1139.52</ele>
<time>2015-11-22T11:39:16Z</time>
</trkpt>
<trkpt lat="30.8762951" lon="35.6858980">
<ele>1139.43</ele>
<time>2015-11-22T11:39:18Z</time>
</trkpt>
<trkpt lat="30.8762627" lon="35.6858614">
<ele>1140.15</ele>
<time>2015-11-22T11:39:20Z</time>
</trkpt>
<trkpt lat="30.8762334" lon="35.6858201">
<ele>1140.33</ele>
<time>2015-11-22T11:39:22Z</time>
</trkpt>
<trkpt lat="30.8762083" lon="35.6857718">
<ele>1140.88</ele>
<time>2015-11-22T11:39:24Z</time>
</trkpt>
<trkpt lat="30.8761791" lon="35.6857222">
<ele>1141.27</ele>
<time>2015-11-22T11:39:26Z</time>
</trkpt>
<trkpt lat="30.8761403" lon="35.6856740">
<ele>1140.86</ele>
<time>2015-11-22T11:39:28Z</time>
</trkpt>
<trkpt lat="30.8760989" lon="35.6856208">
<ele>1140.51</ele>
<time>2015-11-22T11:39:30Z</time>
</trkpt>
<trkpt lat="30.8760601" lon="35.6855679">
<ele>1141.17</ele>
<time>2015-11-22T11:39:32Z</time>
</trkpt>
<trkpt lat="30.8760298" lon="35.6855166">
<ele>1141.34</ele>
<time>2015-11-22T11:39:34Z</time>
</trkpt>
<trkpt lat="30.8760039" lon="35.6854672">
<ele>1141.38</ele>
<time>2015-11-22T11:39:36Z</time>
</trkpt>
<trkpt lat="30.8759740" lon="35.6854233">
<ele>1141.39</ele>
<time>2015-11-22T11:39:38Z</time>
</trkpt>
<trkpt lat="30.8759401" lon="35.6853816">
<ele>1141.39</ele>
<time>2015-11-22T11:39:40Z</time>
</trkpt>
<trkpt lat="30.8758919" lon="35.6853294">
<ele>1141.39</ele>
<time>2015-11-22T11:39:43Z</time>
</trkpt>
<trkpt lat="30.8758477" lon="35.6852700">
<ele>1140.89</ele>
<time>2015-11-22T11:39:46Z</time>
</trkpt>
<trkpt lat="30.8758208" lon="35.6852263">
<ele>1140.52</ele>
<time>2015-11-22T11:39:48Z</time>
</trkpt>
<trkpt lat="30.8757928" lon="35.6851788">
<ele>1140.43</ele>
<time>2015-11-22T11:39:50Z</time>
</trkpt>
<trkpt lat="30.8757640" lon="35.6851303">
<ele>1140.40</ele>
<time>2015-11-22T11:39:52Z</time>
</trkpt>
<trkpt lat="30.8757298" lon="35.6850824">
<ele>1140.40</ele>
<time>2015-11-22T11:39:54Z</time>
</trkpt>
<trkpt lat="30.8756960" lon="35.6850304">
<ele>1140.64</ele>
<time>2015-11-22T11:39:56Z</time>
</trkpt>
<trkpt lat="30.8756642" lon="35.6849754">
<ele>1140.71</ele>
<time>2015-11-22T11:39:58Z</time>
</trkpt>
<trkpt lat="30.8756354" lon="35.6849230">
<ele>1140.47</ele>
<time>2015-11-22T11:40:00Z</time>
</trkpt>
<trkpt lat="30.8756042" lon="35.6848722">
<ele>1140.41</ele>
<time>2015-11-22T11:40:02Z</time>
</trkpt>
<trkpt lat="30.8755723" lon="35.6848199">
<ele>1141.15</ele>
<time>2015-11-22T11:40:04Z</time>
</trkpt>
<trkpt lat="30.8755473" lon="35.6847626">
<ele>1141.33</ele>
<time>2015-11-22T11:40:06Z</time>
</trkpt>
<trkpt lat="30.8755254" lon="35.6847008">
<ele>1141.38</ele>
<time>2015-11-22T11:40:08Z</time>
</trkpt>
<trkpt lat="30.8755065" lon="35.6846354">
<ele>1141.39</ele>
<time>2015-11-22T11:40:10Z</time>
</trkpt>
<trkpt lat="30.8754838" lon="35.6845718">
<ele>1142.14</ele>
<time>2015-11-22T11:40:12Z</time>
</trkpt>
<trkpt lat="30.8754649" lon="35.6845067">
<ele>1142.33</ele>
<time>2015-11-22T11:40:14Z</time>
</trkpt>
<trkpt lat="30.8754581" lon="35.6844406">
<ele>1142.38</ele>
<time>2015-11-22T11:40:16Z</time>
</trkpt>
<trkpt lat="30.8754494" lon="35.6843774">
<ele>1142.39</ele>
<time>2015-11-22T11:40:18Z</time>
</trkpt>
<trkpt lat="30.8754351" lon="35.6843147">
<ele>1142.89</ele>
<time>2015-11-22T11:40:20Z</time>
</trkpt>
<trkpt lat="30.8754276" lon="35.6842500">
<ele>1143.27</ele>
<time>2015-11-22T11:40:22Z</time>
</trkpt>
<trkpt lat="30.8754269" lon="35.6841836">
<ele>1142.61</ele>
<time>2015-11-22T11:40:24Z</time>
</trkpt>
<trkpt lat="30.8754246" lon="35.6841147">
<ele>1142.45</ele>
<time>2015-11-22T11:40:26Z</time>
</trkpt>
<trkpt lat="30.8754229" lon="35.6840489">
<ele>1142.41</ele>
<time>2015-11-22T11:40:28Z</time>
</trkpt>
<trkpt lat="30.8754162" lon="35.6839844">
<ele>1142.40</ele>
<time>2015-11-22T11:40:30Z</time>
</trkpt>
<trkpt lat="30.8754088" lon="35.6839196">
<ele>1141.64</ele>
<time>2015-11-22T11:40:32Z</time>
</trkpt>
<trkpt lat="30.8754059" lon="35.6838508">
<ele>1141.46</ele>
<time>2015-11-22T11:40:34Z</time>
</trkpt>
<trkpt lat="30.8754003" lon="35.6837819">
<ele>1142.16</ele>
<time>2015-11-22T11:40:36Z</time>
</trkpt>
<trkpt lat="30.8753912" lon="35.6837126">
<ele>1142.34</ele>
<time>2015-11-22T11:40:38Z</time>
</trkpt>
<trkpt lat="30.8753836" lon="35.6836405">
<ele>1142.38</ele>
<time>2015-11-22T11:40:40Z</time>
</trkpt>
<trkpt lat="30.8753789" lon="35.6835662">
<ele>1142.39</ele>
<time>2015-11-22T11:40:42Z</time>
</trkpt>
<trkpt lat="30.8753747" lon="35.6834909">
<ele>1142.89</ele>
<time>2015-11-22T11:40:44Z</time>
</trkpt>
<trkpt lat="30.8753659" lon="35.6834154">
<ele>1143.27</ele>
<time>2015-11-22T11:40:46Z</time>
</trkpt>
<trkpt lat="30.8753598" lon="35.6833381">
<ele>1143.36</ele>
<time>2015-11-22T11:40:48Z</time>
</trkpt>
<trkpt lat="30.8753590" lon="35.6832589">
<ele>1143.39</ele>
<time>2015-11-22T11:40:50Z</time>
</trkpt>
<trkpt lat="30.8753598" lon="35.6831804">
<ele>1144.14</ele>
<time>2015-11-22T11:40:52Z</time>
</trkpt>
<trkpt lat="30.8753608" lon="35.6831011">
<ele>1143.58</ele>
<time>2015-11-22T11:40:54Z</time>
</trkpt>
<trkpt lat="30.8753628" lon="35.6830219">
<ele>1143.44</ele>
<time>2015-11-22T11:40:56Z</time>
</trkpt>
<trkpt lat="30.8753604" lon="35.6829456">
<ele>1143.41</ele>
<time>2015-11-22T11:40:58Z</time>
</trkpt>
<trkpt lat="30.8753555" lon="35.6828688">
<ele>1143.40</ele>
<time>2015-11-22T11:41:00Z</time>
</trkpt>
<trkpt lat="30.8753544" lon="35.6827911">
<ele>1143.39</ele>
<time>2015-11-22T11:41:02Z</time>
</trkpt>
<trkpt lat="30.8753604" lon="35.6827140">
<ele>1142.64</ele>
<time>2015-11-22T11:41:04Z</time>
</trkpt>
<trkpt lat="30.8753654" lon="35.6826393">
<ele>1142.46</ele>
<time>2015-11-22T11:41:06Z</time>
</trkpt>
<trkpt lat="30.8753695" lon="35.6825674">
<ele>1142.41</ele>
<time>2015-11-22T11:41:08Z</time>
</trkpt>
<trkpt lat="30.8753746" lon="35.6824925">
<ele>1142.40</ele>
<time>2015-11-22T11:41:10Z</time>
</trkpt>
<trkpt lat="30.8753756" lon="35.6824168">
<ele>1142.40</ele>
<time>2015-11-22T11:41:12Z</time>
</trkpt>
<trkpt lat="30.8753737" lon="35.6823456">
<ele>1142.39</ele>
<time>2015-11-22T11:41:14Z</time>
</trkpt>
<trkpt lat="30.8753735" lon="35.6822787">
<ele>1142.14</ele>
<time>2015-11-22T11:41:16Z</time>
</trkpt>
<trkpt lat="30.8753714" lon="35.6822186">
<ele>1142.33</ele>
<time>2015-11-22T11:41:18Z</time>
</trkpt>
<trkpt lat="30.8753669" lon="35.6821644">
<ele>1142.38</ele>
<time>2015-11-22T11:41:20Z</time>
</trkpt>
<trkpt lat="30.8753619" lon="35.6821107">
<ele>1142.89</ele>
<time>2015-11-22T11:41:22Z</time>
</trkpt>
<trkpt lat="30.8753552" lon="35.6820507">
<ele>1143.27</ele>
<time>2015-11-22T11:41:24Z</time>
</trkpt>
<trkpt lat="30.8753526" lon="35.6819852">
<ele>1142.61</ele>
<time>2015-11-22T11:41:26Z</time>
</trkpt>
<trkpt lat="30.8753497" lon="35.6819144">
<ele>1142.45</ele>
<time>2015-11-22T11:41:28Z</time>
</trkpt>
<trkpt lat="30.8753481" lon="35.6818404">
<ele>1142.41</ele>
<time>2015-11-22T11:41:30Z</time>
</trkpt>
<trkpt lat="30.8753480" lon="35.6817636">
<ele>1142.40</ele>
<time>2015-11-22T11:41:32Z</time>
</trkpt>
<trkpt lat="30.8753518" lon="35.6816849">
<ele>1142.39</ele>
<time>2015-11-22T11:41:34Z</time>
</trkpt>
<trkpt lat="30.8753550" lon="35.6816022">
<ele>1141.64</ele>
<time>2015-11-22T11:41:36Z</time>
</trkpt>
<trkpt lat="30.8753511" lon="35.6815233">
<ele>1142.21</ele>
<time>2015-11-22T11:41:38Z</time>
</trkpt>
<trkpt lat="30.8753416" lon="35.6814494">
<ele>1142.35</ele>
<time>2015-11-22T11:41:40Z</time>
</trkpt>
<trkpt lat="30.8753304" lon="35.6813780">
<ele>1142.88</ele>
<time>2015-11-22T11:41:42Z</time>
</trkpt>
<trkpt lat="30.8753226" lon="35.6813087">
<ele>1143.27</ele>
<time>2015-11-22T11:41:44Z</time>
</trkpt>
<trkpt lat="30.8753218" lon="35.6812383">
<ele>1143.36</ele>
<time>2015-11-22T11:41:46Z</time>
</trkpt>
<trkpt lat="30.8753218" lon="35.6811660">
<ele>1142.89</ele>
<time>2015-11-22T11:41:48Z</time>
</trkpt>
<trkpt lat="30.8753202" lon="35.6810928">
<ele>1143.02</ele>
<time>2015-11-22T11:41:50Z</time>
</trkpt>
<trkpt lat="30.8753183" lon="35.6810208">
<ele>1143.30</ele>
<time>2015-11-22T11:41:52Z</time>
</trkpt>
<trkpt lat="30.8753158" lon="35.6809524">
<ele>1144.12</ele>
<time>2015-11-22T11:41:54Z</time>
</trkpt>
<trkpt lat="30.8753164" lon="35.6808861">
<ele>1144.33</ele>
<time>2015-11-22T11:41:56Z</time>
</trkpt>
<trkpt lat="30.8753205" lon="35.6808231">
<ele>1144.38</ele>
<time>2015-11-22T11:41:58Z</time>
</trkpt>
<trkpt lat="30.8753275" lon="35.6807610">
<ele>1143.89</ele>
<time>2015-11-22T11:42:00Z</time>
</trkpt>
<trkpt lat="30.8753287" lon="35.6806966">
<ele>1143.77</ele>
<time>2015-11-22T11:42:02Z</time>
</trkpt>
<trkpt lat="30.8753273" lon="35.6806358">
<ele>1143.49</ele>
<time>2015-11-22T11:42:04Z</time>
</trkpt>
<trkpt lat="30.8753265" lon="35.6805756">
<ele>1144.17</ele>
<time>2015-11-22T11:42:06Z</time>
</trkpt>
<trkpt lat="30.8753264" lon="35.6805130">
<ele>1144.84</ele>
<time>2015-11-22T11:42:08Z</time>
</trkpt>
<trkpt lat="30.8753246" lon="35.6804487">
<ele>1145.25</ele>
<time>2015-11-22T11:42:10Z</time>
</trkpt>
<trkpt lat="30.8753237" lon="35.6803852">
<ele>1146.11</ele>
<time>2015-11-22T11:42:12Z</time>
</trkpt>
<trkpt lat="30.8753281" lon="35.6803242">
<ele>1146.82</ele>
<time>2015-11-22T11:42:14Z</time>
</trkpt>
<trkpt lat="30.8753312" lon="35.6802663">
<ele>1146.75</ele>
<time>2015-11-22T11:42:16Z</time>
</trkpt>
<trkpt lat="30.8753300" lon="35.6802088">
<ele>1146.48</ele>
<time>2015-11-22T11:42:18Z</time>
</trkpt>
<trkpt lat="30.8753277" lon="35.6801537">
<ele>1146.42</ele>
<time>2015-11-22T11:42:20Z</time>
</trkpt>
<trkpt lat="30.8753204" lon="35.6801013">
<ele>1146.90</ele>
<time>2015-11-22T11:42:22Z</time>
</trkpt>
<trkpt lat="30.8753200" lon="35.6800221">
<ele>1146.83</ele>
<time>2015-11-22T11:42:25Z</time>
</trkpt>
<trkpt lat="30.8753184" lon="35.6799680">
<ele>1146.50</ele>
<time>2015-11-22T11:42:27Z</time>
</trkpt>
<trkpt lat="30.8753095" lon="35.6798909">
<ele>1147.16</ele>
<time>2015-11-22T11:42:30Z</time>
</trkpt>
<trkpt lat="30.8753114" lon="35.6798121">
<ele>1146.99</ele>
<time>2015-11-22T11:42:33Z</time>
</trkpt>
<trkpt lat="30.8753105" lon="35.6797566">
<ele>1147.54</ele>
<time>2015-11-22T11:42:35Z</time>
</trkpt>
<trkpt lat="30.8753095" lon="35.6796976">
<ele>1146.68</ele>
<time>2015-11-22T11:42:37Z</time>
</trkpt>
<trkpt lat="30.8753067" lon="35.6796401">
<ele>1146.47</ele>
<time>2015-11-22T11:42:39Z</time>
</trkpt>
<trkpt lat="30.8753020" lon="35.6795827">
<ele>1146.91</ele>
<time>2015-11-22T11:42:41Z</time>
</trkpt>
<trkpt lat="30.8752974" lon="35.6795253">
<ele>1146.02</ele>
<time>2015-11-22T11:42:43Z</time>
</trkpt>
<trkpt lat="30.8752966" lon="35.6794679">
<ele>1145.80</ele>
<time>2015-11-22T11:42:45Z</time>
</trkpt>
<trkpt lat="30.8752963" lon="35.6794126">
<ele>1146.25</ele>
<time>2015-11-22T11:42:47Z</time>
</trkpt>
<trkpt lat="30.8752956" lon="35.6793562">
<ele>1145.86</ele>
<time>2015-11-22T11:42:49Z</time>
</trkpt>
<trkpt lat="30.8752998" lon="35.6793016">
<ele>1146.76</ele>
<time>2015-11-22T11:42:51Z</time>
</trkpt>
<trkpt lat="30.8752993" lon="35.6792455">
<ele>1146.74</ele>
<time>2015-11-22T11:42:53Z</time>
</trkpt>
<trkpt lat="30.8752967" lon="35.6791857">
<ele>1146.48</ele>
<time>2015-11-22T11:42:55Z</time>
</trkpt>
<trkpt lat="30.8752946" lon="35.6791269">
<ele>1146.67</ele>
<time>2015-11-22T11:42:57Z</time>
</trkpt>
<trkpt lat="30.8752886" lon="35.6790730">
<ele>1146.46</ele>
<time>2015-11-22T11:42:59Z</time>
</trkpt>
<trkpt lat="30.8752825" lon="35.6790188">
<ele>1145.91</ele>
<time>2015-11-22T11:43:01Z</time>
</trkpt>
<trkpt lat="30.8752835" lon="35.6789646">
<ele>1144.77</ele>
<time>2015-11-22T11:43:03Z</time>
</trkpt>
<trkpt lat="30.8752813" lon="35.6789076">
<ele>1144.49</ele>
<time>2015-11-22T11:43:05Z</time>
</trkpt>
<trkpt lat="30.8752752" lon="35.6788526">
<ele>1144.42</ele>
<time>2015-11-22T11:43:07Z</time>
</trkpt>
<trkpt lat="30.8752754" lon="35.6787775">
<ele>1144.40</ele>
<time>2015-11-22T11:43:10Z</time>
</trkpt>
<trkpt lat="30.8752751" lon="35.6787013">
<ele>1145.14</ele>
<time>2015-11-22T11:43:13Z</time>
</trkpt>
<trkpt lat="30.8752717" lon="35.6786479">
<ele>1145.33</ele>
<time>2015-11-22T11:43:15Z</time>
</trkpt>
<trkpt lat="30.8752707" lon="35.6785704">
<ele>1146.14</ele>
<time>2015-11-22T11:43:18Z</time>
</trkpt>
<trkpt lat="30.8752780" lon="35.6784920">
<ele>1145.61</ele>
<time>2015-11-22T11:43:21Z</time>
</trkpt>
<trkpt lat="30.8752781" lon="35.6784145">
<ele>1146.80</ele>
<time>2015-11-22T11:43:24Z</time>
</trkpt>
<trkpt lat="30.8752782" lon="35.6783613">
<ele>1147.99</ele>
<time>2015-11-22T11:43:26Z</time>
</trkpt>
<trkpt lat="30.8752770" lon="35.6783049">
<ele>1148.79</ele>
<time>2015-11-22T11:43:28Z</time>
</trkpt>
<trkpt lat="30.8752748" lon="35.6782469">
<ele>1147.49</ele>
<time>2015-11-22T11:43:30Z</time>
</trkpt>
<trkpt lat="30.8752754" lon="35.6781881">
<ele>1146.92</ele>
<time>2015-11-22T11:43:32Z</time>
</trkpt>
<trkpt lat="30.8752744" lon="35.6781314">
<ele>1146.53</ele>
<time>2015-11-22T11:43:34Z</time>
</trkpt>
<trkpt lat="30.8752706" lon="35.6780779">
<ele>1147.18</ele>
<time>2015-11-22T11:43:36Z</time>
</trkpt>
<trkpt lat="30.8752690" lon="35.6780246">
<ele>1147.84</ele>
<time>2015-11-22T11:43:38Z</time>
</trkpt>
<trkpt lat="30.8752687" lon="35.6779711">
<ele>1148.76</ele>
<time>2015-11-22T11:43:40Z</time>
</trkpt>
<trkpt lat="30.8752608" lon="35.6779194">
<ele>1148.23</ele>
<time>2015-11-22T11:43:42Z</time>
</trkpt>
<trkpt lat="30.8752496" lon="35.6778420">
<ele>1148.87</ele>
<time>2015-11-22T11:43:45Z</time>
</trkpt>
<trkpt lat="30.8752371" lon="35.6777654">
<ele>1148.70</ele>
<time>2015-11-22T11:43:48Z</time>
</trkpt>
<trkpt lat="30.8752308" lon="35.6777128">
<ele>1148.47</ele>
<time>2015-11-22T11:43:50Z</time>
</trkpt>
<trkpt lat="30.8752219" lon="35.6776571">
<ele>1149.16</ele>
<time>2015-11-22T11:43:52Z</time>
</trkpt>
<trkpt lat="30.8752063" lon="35.6776012">
<ele>1149.34</ele>
<time>2015-11-22T11:43:54Z</time>
</trkpt>
<trkpt lat="30.8751895" lon="35.6775439">
<ele>1150.13</ele>
<time>2015-11-22T11:43:56Z</time>
</trkpt>
<trkpt lat="30.8751751" lon="35.6774872">
<ele>1150.33</ele>
<time>2015-11-22T11:43:58Z</time>
</trkpt>
<trkpt lat="30.8751628" lon="35.6774307">
<ele>1150.13</ele>
<time>2015-11-22T11:44:00Z</time>
</trkpt>
<trkpt lat="30.8751496" lon="35.6773732">
<ele>1150.08</ele>
<time>2015-11-22T11:44:02Z</time>
</trkpt>
<trkpt lat="30.8751344" lon="35.6773154">
<ele>1150.31</ele>
<time>2015-11-22T11:44:04Z</time>
</trkpt>
<trkpt lat="30.8751172" lon="35.6772596">
<ele>1150.62</ele>
<time>2015-11-22T11:44:06Z</time>
</trkpt>
<trkpt lat="30.8751013" lon="35.6772073">
<ele>1150.20</ele>
<time>2015-11-22T11:44:08Z</time>
</trkpt>
<trkpt lat="30.8750743" lon="35.6771414">
<ele>1150.37</ele>
<time>2015-11-22T11:44:11Z</time>
</trkpt>
<trkpt lat="30.8750400" lon="35.6770732">
<ele>1148.64</ele>
<time>2015-11-22T11:44:14Z</time>
</trkpt>
<trkpt lat="30.8750186" lon="35.6770220">
<ele>1149.71</ele>
<time>2015-11-22T11:44:16Z</time>
</trkpt>
<trkpt lat="30.8749982" lon="35.6769700">
<ele>1150.22</ele>
<time>2015-11-22T11:44:18Z</time>
</trkpt>
<trkpt lat="30.8749791" lon="35.6769188">
<ele>1152.60</ele>
<time>2015-11-22T11:44:20Z</time>
</trkpt>
<trkpt lat="30.8749612" lon="35.6768687">
<ele>1153.70</ele>
<time>2015-11-22T11:44:22Z</time>
</trkpt>
<trkpt lat="30.8749438" lon="35.6768181">
<ele>1152.22</ele>
<time>2015-11-22T11:44:24Z</time>
</trkpt>
<trkpt lat="30.8749264" lon="35.6767673">
<ele>1151.60</ele>
<time>2015-11-22T11:44:26Z</time>
</trkpt>
<trkpt lat="30.8749102" lon="35.6767146">
<ele>1152.20</ele>
<time>2015-11-22T11:44:28Z</time>
</trkpt>
<trkpt lat="30.8748958" lon="35.6766611">
<ele>1152.34</ele>
<time>2015-11-22T11:44:30Z</time>
</trkpt>
<trkpt lat="30.8748829" lon="35.6766080">
<ele>1152.88</ele>
<time>2015-11-22T11:44:32Z</time>
</trkpt>
<trkpt lat="30.8748673" lon="35.6765538">
<ele>1152.02</ele>
<time>2015-11-22T11:44:34Z</time>
</trkpt>
<trkpt lat="30.8748491" lon="35.6764992">
<ele>1152.30</ele>
<time>2015-11-22T11:44:36Z</time>
</trkpt>
<trkpt lat="30.8748332" lon="35.6764458">
<ele>1152.87</ele>
<time>2015-11-22T11:44:38Z</time>
</trkpt>
<trkpt lat="30.8748159" lon="35.6763909">
<ele>1153.26</ele>
<time>2015-11-22T11:44:40Z</time>
</trkpt>
<trkpt lat="30.8747987" lon="35.6763383">
<ele>1153.11</ele>
<time>2015-11-22T11:44:42Z</time>
</trkpt>
<trkpt lat="30.8747794" lon="35.6762863">
<ele>1152.57</ele>
<time>2015-11-22T11:44:44Z</time>
</trkpt>
<trkpt lat="30.8747591" lon="35.6762331">
<ele>1153.19</ele>
<time>2015-11-22T11:44:46Z</time>
</trkpt>
<trkpt lat="30.8747380" lon="35.6761793">
<ele>1153.84</ele>
<time>2015-11-22T11:44:48Z</time>
</trkpt>
<trkpt lat="30.8747140" lon="35.6761246">
<ele>1154.26</ele>
<time>2015-11-22T11:44:50Z</time>
</trkpt>
<trkpt lat="30.8746904" lon="35.6760658">
<ele>1154.36</ele>
<time>2015-11-22T11:44:52Z</time>
</trkpt>
<trkpt lat="30.8746672" lon="35.6760047">
<ele>1154.39</ele>
<time>2015-11-22T11:44:54Z</time>
</trkpt>
<trkpt lat="30.8746430" lon="35.6759441">
<ele>1151.89</ele>
<time>2015-11-22T11:44:56Z</time>
</trkpt>
<trkpt lat="30.8746196" lon="35.6758827">
<ele>1152.27</ele>
<time>2015-11-22T11:44:58Z</time>
</trkpt>
<trkpt lat="30.8745970" lon="35.6758217">
<ele>1152.61</ele>
<time>2015-11-22T11:45:00Z</time>
</trkpt>
<trkpt lat="30.8745702" lon="35.6757682">
<ele>1152.95</ele>
<time>2015-11-22T11:45:02Z</time>
</trkpt>
<trkpt lat="30.8745400" lon="35.6757174">
<ele>1155.28</ele>
<time>2015-11-22T11:45:04Z</time>
</trkpt>
<trkpt lat="30.8745146" lon="35.6756602">
<ele>1155.37</ele>
<time>2015-11-22T11:45:06Z</time>
</trkpt>
<trkpt lat="30.8744941" lon="35.6756031">
<ele>1157.39</ele>
<time>2015-11-22T11:45:08Z</time>
</trkpt>
<trkpt lat="30.8744729" lon="35.6755465">
<ele>1158.89</ele>
<time>2015-11-22T11:45:10Z</time>
</trkpt>
<trkpt lat="30.8744500" lon="35.6754882">
<ele>1160.27</ele>
<time>2015-11-22T11:45:12Z</time>
</trkpt>
<trkpt lat="30.8744247" lon="35.6754225">
<ele>1168.61</ele>
<time>2015-11-22T11:45:14Z</time>
</trkpt>
<trkpt lat="30.8744043" lon="35.6753626">
<ele>1174.20</ele>
<time>2015-11-22T11:45:16Z</time>
</trkpt>
<trkpt lat="30.8743879" lon="35.6753117">
<ele>1175.85</ele>
<time>2015-11-22T11:45:18Z</time>
</trkpt>
<trkpt lat="30.8743704" lon="35.6752537">
<ele>1177.01</ele>
<time>2015-11-22T11:45:20Z</time>
</trkpt>
<trkpt lat="30.8743465" lon="35.6751886">
<ele>1177.30</ele>
<time>2015-11-22T11:45:22Z</time>
</trkpt>
<trkpt lat="30.8743228" lon="35.6751261">
<ele>1177.37</ele>
<time>2015-11-22T11:45:24Z</time>
</trkpt>
<trkpt lat="30.8743156" lon="35.6750559">
<ele>1177.39</ele>
<time>2015-11-22T11:45:26Z</time>
</trkpt>
<trkpt lat="30.8742979" lon="35.6749969">
<ele>1178.14</ele>
<time>2015-11-22T11:45:28Z</time>
</trkpt>
<trkpt lat="30.8742609" lon="35.6749562">
<ele>1178.33</ele>
<time>2015-11-22T11:45:30Z</time>
</trkpt>
<trkpt lat="30.8742336" lon="35.6749048">
<ele>1178.38</ele>
<time>2015-11-22T11:45:32Z</time>
</trkpt>
<trkpt lat="30.8742137" lon="35.6748486">
<ele>1178.64</ele>
<time>2015-11-22T11:45:34Z</time>
</trkpt>
<trkpt lat="30.8741947" lon="35.6747894">
<ele>1178.46</ele>
<time>2015-11-22T11:45:36Z</time>
</trkpt>
<trkpt lat="30.8741740" lon="35.6747262">
<ele>1178.41</ele>
<time>2015-11-22T11:45:38Z</time>
</trkpt>
<trkpt lat="30.8741516" lon="35.6746586">
<ele>1177.65</ele>
<time>2015-11-22T11:45:40Z</time>
</trkpt>
<trkpt lat="30.8741229" lon="35.6745887">
<ele>1177.46</ele>
<time>2015-11-22T11:45:42Z</time>
</trkpt>
<trkpt lat="30.8740900" lon="35.6745117">
<ele>1177.41</ele>
<time>2015-11-22T11:45:44Z</time>
</trkpt>
<trkpt lat="30.8740555" lon="35.6744234">
<ele>1177.40</ele>
<time>2015-11-22T11:45:46Z</time>
</trkpt>
<trkpt lat="30.8740219" lon="35.6743298">
<ele>1177.15</ele>
<time>2015-11-22T11:45:48Z</time>
</trkpt>
<trkpt lat="30.8739846" lon="35.6741944">
<ele>1176.08</ele>
<time>2015-11-22T11:45:50Z</time>
</trkpt>
<trkpt lat="30.8739628" lon="35.6741402">
<ele>1175.74</ele>
<time>2015-11-22T11:45:51Z</time>
</trkpt>
<trkpt lat="30.8739444" lon="35.6740891">
<ele>1175.07</ele>
<time>2015-11-22T11:45:52Z</time>
</trkpt>
<trkpt lat="30.8739228" lon="35.6740271">
<ele>1174.73</ele>
<time>2015-11-22T11:45:53Z</time>
</trkpt>
<trkpt lat="30.8739031" lon="35.6739627">
<ele>1174.06</ele>
<time>2015-11-22T11:45:54Z</time>
</trkpt>
<trkpt lat="30.8738832" lon="35.6738951">
<ele>1173.73</ele>
<time>2015-11-22T11:45:55Z</time>
</trkpt>
<trkpt lat="30.8738541" lon="35.6738288">
<ele>1173.56</ele>
<time>2015-11-22T11:45:56Z</time>
</trkpt>
<trkpt lat="30.8738325" lon="35.6737529">
<ele>1173.48</ele>
<time>2015-11-22T11:45:57Z</time>
</trkpt>
<trkpt lat="30.8738096" lon="35.6736795">
<ele>1172.94</ele>
<time>2015-11-22T11:45:58Z</time>
</trkpt>
<trkpt lat="30.8737826" lon="35.6736034">
<ele>1172.66</ele>
<time>2015-11-22T11:45:59Z</time>
</trkpt>
<trkpt lat="30.8737593" lon="35.6735273">
<ele>1172.03</ele>
<time>2015-11-22T11:46:00Z</time>
</trkpt>
<trkpt lat="30.8737322" lon="35.6734527">
<ele>1171.71</ele>
<time>2015-11-22T11:46:01Z</time>
</trkpt>
<trkpt lat="30.8737026" lon="35.6733710">
<ele>1171.55</ele>
<time>2015-11-22T11:46:02Z</time>
</trkpt>
<trkpt lat="30.8736724" lon="35.6732923">
<ele>1170.97</ele>
<time>2015-11-22T11:46:03Z</time>
</trkpt>
<trkpt lat="30.8736397" lon="35.6732229">
<ele>1170.68</ele>
<time>2015-11-22T11:46:04Z</time>
</trkpt>
<trkpt lat="30.8736074" lon="35.6731431">
<ele>1170.04</ele>
<time>2015-11-22T11:46:05Z</time>
</trkpt>
<trkpt lat="30.8735843" lon="35.6730644">
<ele>1169.22</ele>
<time>2015-11-22T11:46:06Z</time>
</trkpt>
<trkpt lat="30.8735542" lon="35.6729901">
<ele>1169.31</ele>
<time>2015-11-22T11:46:07Z</time>
</trkpt>
<trkpt lat="30.8735266" lon="35.6729111">
<ele>1169.35</ele>
<time>2015-11-22T11:46:08Z</time>
</trkpt>
<trkpt lat="30.8734970" lon="35.6728299">
<ele>1169.37</ele>
<time>2015-11-22T11:46:09Z</time>
</trkpt>
<trkpt lat="30.8734665" lon="35.6727543">
<ele>1169.38</ele>
<time>2015-11-22T11:46:10Z</time>
</trkpt>
<trkpt lat="30.8734377" lon="35.6726783">
<ele>1169.39</ele>
<time>2015-11-22T11:46:11Z</time>
</trkpt>
<trkpt lat="30.8734079" lon="35.6725958">
<ele>1169.39</ele>
<time>2015-11-22T11:46:12Z</time>
</trkpt>
<trkpt lat="30.8733777" lon="35.6725182">
<ele>1169.89</ele>
<time>2015-11-22T11:46:13Z</time>
</trkpt>
<trkpt lat="30.8733509" lon="35.6724414">
<ele>1170.14</ele>
<time>2015-11-22T11:46:14Z</time>
</trkpt>
<trkpt lat="30.8733228" lon="35.6723592">
<ele>1170.27</ele>
<time>2015-11-22T11:46:15Z</time>
</trkpt>
<trkpt lat="30.8732943" lon="35.6722784">
<ele>1170.33</ele>
<time>2015-11-22T11:46:16Z</time>
</trkpt>
<trkpt lat="30.8732628" lon="35.6721997">
<ele>1170.36</ele>
<time>2015-11-22T11:46:17Z</time>
</trkpt>
<trkpt lat="30.8732362" lon="35.6721240">
<ele>1170.38</ele>
<time>2015-11-22T11:46:18Z</time>
</trkpt>
<trkpt lat="30.8732125" lon="35.6720470">
<ele>1170.39</ele>
<time>2015-11-22T11:46:19Z</time>
</trkpt>
<trkpt lat="30.8731925" lon="35.6719734">
<ele>1170.39</ele>
<time>2015-11-22T11:46:20Z</time>
</trkpt>
<trkpt lat="30.8731660" lon="35.6719006">
<ele>1170.39</ele>
<time>2015-11-22T11:46:21Z</time>
</trkpt>
<trkpt lat="30.8731408" lon="35.6718226">
<ele>1170.39</ele>
<time>2015-11-22T11:46:22Z</time>
</trkpt>
<trkpt lat="30.8731161" lon="35.6717519">
<ele>1170.39</ele>
<time>2015-11-22T11:46:23Z</time>
</trkpt>
<trkpt lat="30.8730857" lon="35.6716804">
<ele>1170.39</ele>
<time>2015-11-22T11:46:24Z</time>
</trkpt>
<trkpt lat="30.8730544" lon="35.6716116">
<ele>1170.39</ele>
<time>2015-11-22T11:46:25Z</time>
</trkpt>
<trkpt lat="30.8730430" lon="35.6715374">
<ele>1169.89</ele>
<time>2015-11-22T11:46:26Z</time>
</trkpt>
<trkpt lat="30.8730177" lon="35.6714719">
<ele>1169.64</ele>
<time>2015-11-22T11:46:27Z</time>
</trkpt>
<trkpt lat="30.8729898" lon="35.6714166">
<ele>1169.02</ele>
<time>2015-11-22T11:46:28Z</time>
</trkpt>
<trkpt lat="30.8729681" lon="35.6713520">
<ele>1169.21</ele>
<time>2015-11-22T11:46:29Z</time>
</trkpt>
<trkpt lat="30.8729456" lon="35.6712880">
<ele>1169.30</ele>
<time>2015-11-22T11:46:30Z</time>
</trkpt>
<trkpt lat="30.8729321" lon="35.6712048">
<ele>1170.87</ele>
<time>2015-11-22T11:46:32Z</time>
</trkpt>
<trkpt lat="30.8728932" lon="35.6711588">
<ele>1173.91</ele>
<time>2015-11-22T11:46:56Z</time>
</trkpt>
<trkpt lat="30.8728552" lon="35.6711095">
<ele>1174.30</ele>
<time>2015-11-22T11:47:00Z</time>
</trkpt>
<trkpt lat="30.8728266" lon="35.6710528">
<ele>1174.51</ele>
<time>2015-11-22T11:47:03Z</time>
</trkpt>
<trkpt lat="30.8728034" lon="35.6709835">
<ele>1173.03</ele>
<time>2015-11-22T11:47:06Z</time>
</trkpt>
<trkpt lat="30.8727865" lon="35.6709321">
<ele>1172.55</ele>
<time>2015-11-22T11:47:08Z</time>
</trkpt>
<trkpt lat="30.8727680" lon="35.6708788">
<ele>1172.43</ele>
<time>2015-11-22T11:47:10Z</time>
</trkpt>
<trkpt lat="30.8727443" lon="35.6708248">
<ele>1172.40</ele>
<time>2015-11-22T11:47:12Z</time>
</trkpt>
<trkpt lat="30.8727208" lon="35.6707643">
<ele>1171.65</ele>
<time>2015-11-22T11:47:14Z</time>
</trkpt>
<trkpt lat="30.8727015" lon="35.6706951">
<ele>1171.46</ele>
<time>2015-11-22T11:47:16Z</time>
</trkpt>
<trkpt lat="30.8726829" lon="35.6706294">
<ele>1171.91</ele>
<time>2015-11-22T11:47:18Z</time>
</trkpt>
<trkpt lat="30.8726647" lon="35.6705659">
<ele>1172.27</ele>
<time>2015-11-22T11:47:20Z</time>
</trkpt>
<trkpt lat="30.8726420" lon="35.6705093">
<ele>1172.86</ele>
<time>2015-11-22T11:47:22Z</time>
</trkpt>
<trkpt lat="30.8726249" lon="35.6704548">
<ele>1172.51</ele>
<time>2015-11-22T11:47:24Z</time>
</trkpt>
<trkpt lat="30.8726124" lon="35.6704002">
<ele>1171.67</ele>
<time>2015-11-22T11:47:26Z</time>
</trkpt>
<trkpt lat="30.8725961" lon="35.6703504">
<ele>1171.96</ele>
<time>2015-11-22T11:47:28Z</time>
</trkpt>
<trkpt lat="30.8725604" lon="35.6702876">
<ele>1172.34</ele>
<time>2015-11-22T11:47:31Z</time>
</trkpt>
<trkpt lat="30.8725359" lon="35.6702424">
<ele>1172.38</ele>
<time>2015-11-22T11:47:33Z</time>
</trkpt>
<trkpt lat="30.8725174" lon="35.6701862">
<ele>1172.39</ele>
<time>2015-11-22T11:47:35Z</time>
</trkpt>
<trkpt lat="30.8724973" lon="35.6701245">
<ele>1172.39</ele>
<time>2015-11-22T11:47:37Z</time>
</trkpt>
<trkpt lat="30.8724675" lon="35.6700499">
<ele>1172.14</ele>
<time>2015-11-22T11:47:39Z</time>
</trkpt>
<trkpt lat="30.8724313" lon="35.6699729">
<ele>1173.08</ele>
<time>2015-11-22T11:47:41Z</time>
</trkpt>
<trkpt lat="30.8723901" lon="35.6698971">
<ele>1172.57</ele>
<time>2015-11-22T11:47:43Z</time>
</trkpt>
<trkpt lat="30.8723491" lon="35.6698198">
<ele>1171.69</ele>
<time>2015-11-22T11:47:45Z</time>
</trkpt>
<trkpt lat="30.8723052" lon="35.6697422">
<ele>1170.72</ele>
<time>2015-11-22T11:47:47Z</time>
</trkpt>
<trkpt lat="30.8722580" lon="35.6696677">
<ele>1170.97</ele>
<time>2015-11-22T11:47:49Z</time>
</trkpt>
<trkpt lat="30.8722115" lon="35.6695984">
<ele>1170.54</ele>
<time>2015-11-22T11:47:51Z</time>
</trkpt>
<trkpt lat="30.8721579" lon="35.6695279">
<ele>1167.43</ele>
<time>2015-11-22T11:47:53Z</time>
</trkpt>
<trkpt lat="30.8721059" lon="35.6694656">
<ele>1165.40</ele>
<time>2015-11-22T11:47:55Z</time>
</trkpt>
<trkpt lat="30.8720499" lon="35.6694168">
<ele>1164.65</ele>
<time>2015-11-22T11:47:57Z</time>
</trkpt>
<trkpt lat="30.8719972" lon="35.6693720">
<ele>1164.46</ele>
<time>2015-11-22T11:47:59Z</time>
</trkpt>
<trkpt lat="30.8719547" lon="35.6693338">
<ele>1164.91</ele>
<time>2015-11-22T11:48:01Z</time>
</trkpt>
<trkpt lat="30.8719022" lon="35.6692983">
<ele>1165.33</ele>
<time>2015-11-22T11:48:04Z</time>
</trkpt>
<trkpt lat="30.8718631" lon="35.6692663">
<ele>1164.88</ele>
<time>2015-11-22T11:48:06Z</time>
</trkpt>
<trkpt lat="30.8718256" lon="35.6692306">
<ele>1165.20</ele>
<time>2015-11-22T11:48:09Z</time>
</trkpt>
<trkpt lat="30.8718698" lon="35.6692403">
<ele>1165.39</ele>
<time>2015-11-22T11:55:51Z</time>
</trkpt>
<trkpt lat="30.8718200" lon="35.6692086">
<ele>1162.30</ele>
<time>2015-11-22T12:13:58Z</time>
</trkpt>
<trkpt lat="30.8717570" lon="35.6691768">
<ele>1162.26</ele>
<time>2015-11-22T12:14:01Z</time>
</trkpt>
<trkpt lat="30.8717158" lon="35.6691514">
<ele>1162.36</ele>
<time>2015-11-22T12:14:03Z</time>
</trkpt>
<trkpt lat="30.8716683" lon="35.6691322">
<ele>1163.14</ele>
<time>2015-11-22T12:14:05Z</time>
</trkpt>
<trkpt lat="30.8716237" lon="35.6691090">
<ele>1163.83</ele>
<time>2015-11-22T12:14:07Z</time>
</trkpt>
<trkpt lat="30.8715781" lon="35.6690839">
<ele>1164.25</ele>
<time>2015-11-22T12:14:09Z</time>
</trkpt>
<trkpt lat="30.8715285" lon="35.6690595">
<ele>1163.86</ele>
<time>2015-11-22T12:14:11Z</time>
</trkpt>
<trkpt lat="30.8714812" lon="35.6690353">
<ele>1163.51</ele>
<time>2015-11-22T12:14:13Z</time>
</trkpt>
<trkpt lat="30.8714359" lon="35.6690115">
<ele>1162.92</ele>
<time>2015-11-22T12:14:15Z</time>
</trkpt>
<trkpt lat="30.8713906" lon="35.6689891">
<ele>1163.03</ele>
<time>2015-11-22T12:14:17Z</time>
</trkpt>
<trkpt lat="30.8713449" lon="35.6689654">
<ele>1163.80</ele>
<time>2015-11-22T12:14:19Z</time>
</trkpt>
<trkpt lat="30.8712972" lon="35.6689377">
<ele>1164.00</ele>
<time>2015-11-22T12:14:21Z</time>
</trkpt>
<trkpt lat="30.8712468" lon="35.6689083">
<ele>1164.29</ele>
<time>2015-11-22T12:14:23Z</time>
</trkpt>
<trkpt lat="30.8711931" lon="35.6688790">
<ele>1164.37</ele>
<time>2015-11-22T12:14:25Z</time>
</trkpt>
<trkpt lat="30.8711358" lon="35.6688492">
<ele>1164.39</ele>
<time>2015-11-22T12:14:27Z</time>
</trkpt>
<trkpt lat="30.8710785" lon="35.6688218">
<ele>1164.39</ele>
<time>2015-11-22T12:14:29Z</time>
</trkpt>
<trkpt lat="30.8710249" lon="35.6687898">
<ele>1164.89</ele>
<time>2015-11-22T12:14:31Z</time>
</trkpt>
<trkpt lat="30.8709708" lon="35.6687640">
<ele>1166.02</ele>
<time>2015-11-22T12:14:33Z</time>
</trkpt>
<trkpt lat="30.8709137" lon="35.6687406">
<ele>1166.80</ele>
<time>2015-11-22T12:14:35Z</time>
</trkpt>
<trkpt lat="30.8708541" lon="35.6687134">
<ele>1166.50</ele>
<time>2015-11-22T12:14:37Z</time>
</trkpt>
<trkpt lat="30.8707946" lon="35.6686850">
<ele>1165.67</ele>
<time>2015-11-22T12:14:39Z</time>
</trkpt>
<trkpt lat="30.8707357" lon="35.6686538">
<ele>1165.96</ele>
<time>2015-11-22T12:14:41Z</time>
</trkpt>
<trkpt lat="30.8706773" lon="35.6686182">
<ele>1166.29</ele>
<time>2015-11-22T12:14:43Z</time>
</trkpt>
<trkpt lat="30.8706213" lon="35.6685837">
<ele>1166.37</ele>
<time>2015-11-22T12:14:45Z</time>
</trkpt>
<trkpt lat="30.8705637" lon="35.6685534">
<ele>1166.39</ele>
<time>2015-11-22T12:14:47Z</time>
</trkpt>
<trkpt lat="30.8705058" lon="35.6685270">
<ele>1166.89</ele>
<time>2015-11-22T12:14:49Z</time>
</trkpt>
<trkpt lat="30.8704495" lon="35.6684954">
<ele>1166.77</ele>
<time>2015-11-22T12:14:51Z</time>
</trkpt>
<trkpt lat="30.8703928" lon="35.6684645">
<ele>1166.99</ele>
<time>2015-11-22T12:14:53Z</time>
</trkpt>
<trkpt lat="30.8703366" lon="35.6684330">
<ele>1166.54</ele>
<time>2015-11-22T12:14:55Z</time>
</trkpt>
<trkpt lat="30.8702776" lon="35.6684000">
<ele>1166.68</ele>
<time>2015-11-22T12:14:57Z</time>
</trkpt>
<trkpt lat="30.8702155" lon="35.6683640">
<ele>1167.22</ele>
<time>2015-11-22T12:14:59Z</time>
</trkpt>
<trkpt lat="30.8701534" lon="35.6683261">
<ele>1167.10</ele>
<time>2015-11-22T12:15:01Z</time>
</trkpt>
<trkpt lat="30.8700860" lon="35.6682941">
<ele>1167.82</ele>
<time>2015-11-22T12:15:03Z</time>
</trkpt>
<trkpt lat="30.8700221" lon="35.6682642">
<ele>1168.25</ele>
<time>2015-11-22T12:15:05Z</time>
</trkpt>
<trkpt lat="30.8699618" lon="35.6682320">
<ele>1168.61</ele>
<time>2015-11-22T12:15:07Z</time>
</trkpt>
<trkpt lat="30.8699035" lon="35.6682031">
<ele>1168.45</ele>
<time>2015-11-22T12:15:09Z</time>
</trkpt>
<trkpt lat="30.8698488" lon="35.6681744">
<ele>1168.41</ele>
<time>2015-11-22T12:15:11Z</time>
</trkpt>
<trkpt lat="30.8697984" lon="35.6681467">
<ele>1168.40</ele>
<time>2015-11-22T12:15:13Z</time>
</trkpt>
<trkpt lat="30.8697496" lon="35.6681211">
<ele>1168.64</ele>
<time>2015-11-22T12:15:15Z</time>
</trkpt>
<trkpt lat="30.8697036" lon="35.6680908">
<ele>1167.96</ele>
<time>2015-11-22T12:15:17Z</time>
</trkpt>
<trkpt lat="30.8696551" lon="35.6680608">
<ele>1166.78</ele>
<time>2015-11-22T12:15:19Z</time>
</trkpt>
<trkpt lat="30.8696059" lon="35.6680289">
<ele>1166.99</ele>
<time>2015-11-22T12:15:21Z</time>
</trkpt>
<trkpt lat="30.8695545" lon="35.6680027">
<ele>1167.29</ele>
<time>2015-11-22T12:15:23Z</time>
</trkpt>
<trkpt lat="30.8695007" lon="35.6679755">
<ele>1167.37</ele>
<time>2015-11-22T12:15:25Z</time>
</trkpt>
<trkpt lat="30.8694491" lon="35.6679456">
<ele>1168.14</ele>
<time>2015-11-22T12:15:27Z</time>
</trkpt>
<trkpt lat="30.8693953" lon="35.6679188">
<ele>1168.83</ele>
<time>2015-11-22T12:15:29Z</time>
</trkpt>
<trkpt lat="30.8693409" lon="35.6678944">
<ele>1169.75</ele>
<time>2015-11-22T12:15:31Z</time>
</trkpt>
<trkpt lat="30.8692858" lon="35.6678682">
<ele>1170.98</ele>
<time>2015-11-22T12:15:33Z</time>
</trkpt>
<trkpt lat="30.8692315" lon="35.6678404">
<ele>1171.79</ele>
<time>2015-11-22T12:15:35Z</time>
</trkpt>
<trkpt lat="30.8691802" lon="35.6678076">
<ele>1171.74</ele>
<time>2015-11-22T12:15:37Z</time>
</trkpt>
<trkpt lat="30.8691328" lon="35.6677700">
<ele>1171.98</ele>
<time>2015-11-22T12:15:39Z</time>
</trkpt>
<trkpt lat="30.8690840" lon="35.6677397">
<ele>1172.29</ele>
<time>2015-11-22T12:15:41Z</time>
</trkpt>
<trkpt lat="30.8690282" lon="35.6677213">
<ele>1172.37</ele>
<time>2015-11-22T12:15:43Z</time>
</trkpt>
<trkpt lat="30.8689716" lon="35.6676962">
<ele>1172.39</ele>
<time>2015-11-22T12:15:45Z</time>
</trkpt>
<trkpt lat="30.8689152" lon="35.6676589">
<ele>1172.89</ele>
<time>2015-11-22T12:15:47Z</time>
</trkpt>
<trkpt lat="30.8688584" lon="35.6676233">
<ele>1173.27</ele>
<time>2015-11-22T12:15:49Z</time>
</trkpt>
<trkpt lat="30.8688008" lon="35.6675903">
<ele>1173.36</ele>
<time>2015-11-22T12:15:51Z</time>
</trkpt>
<trkpt lat="30.8687428" lon="35.6675609">
<ele>1174.14</ele>
<time>2015-11-22T12:15:53Z</time>
</trkpt>
<trkpt lat="30.8686831" lon="35.6675330">
<ele>1173.58</ele>
<time>2015-11-22T12:15:55Z</time>
</trkpt>
<trkpt lat="30.8686222" lon="35.6675052">
<ele>1173.44</ele>
<time>2015-11-22T12:15:57Z</time>
</trkpt>
<trkpt lat="30.8685632" lon="35.6674737">
<ele>1173.91</ele>
<time>2015-11-22T12:15:59Z</time>
</trkpt>
<trkpt lat="30.8685034" lon="35.6674414">
<ele>1174.27</ele>
<time>2015-11-22T12:16:01Z</time>
</trkpt>
<trkpt lat="30.8684457" lon="35.6674044">
<ele>1174.86</ele>
<time>2015-11-22T12:16:03Z</time>
</trkpt>
<trkpt lat="30.8683876" lon="35.6673704">
<ele>1175.26</ele>
<time>2015-11-22T12:16:05Z</time>
</trkpt>
<trkpt lat="30.8683256" lon="35.6673399">
<ele>1175.36</ele>
<time>2015-11-22T12:16:07Z</time>
</trkpt>
<trkpt lat="30.8682615" lon="35.6673091">
<ele>1176.14</ele>
<time>2015-11-22T12:16:09Z</time>
</trkpt>
<trkpt lat="30.8681976" lon="35.6672795">
<ele>1175.83</ele>
<time>2015-11-22T12:16:11Z</time>
</trkpt>
<trkpt lat="30.8681361" lon="35.6672480">
<ele>1176.00</ele>
<time>2015-11-22T12:16:13Z</time>
</trkpt>
<trkpt lat="30.8680773" lon="35.6672152">
<ele>1176.30</ele>
<time>2015-11-22T12:16:15Z</time>
</trkpt>
<trkpt lat="30.8680146" lon="35.6671812">
<ele>1176.87</ele>
<time>2015-11-22T12:16:17Z</time>
</trkpt>
<trkpt lat="30.8679520" lon="35.6671460">
<ele>1177.26</ele>
<time>2015-11-22T12:16:19Z</time>
</trkpt>
<trkpt lat="30.8678896" lon="35.6671126">
<ele>1177.36</ele>
<time>2015-11-22T12:16:21Z</time>
</trkpt>
<trkpt lat="30.8678280" lon="35.6670791">
<ele>1177.39</ele>
<time>2015-11-22T12:16:23Z</time>
</trkpt>
<trkpt lat="30.8677647" lon="35.6670456">
<ele>1177.39</ele>
<time>2015-11-22T12:16:25Z</time>
</trkpt>
<trkpt lat="30.8676998" lon="35.6670103">
<ele>1177.39</ele>
<time>2015-11-22T12:16:27Z</time>
</trkpt>
<trkpt lat="30.8676315" lon="35.6669728">
<ele>1177.39</ele>
<time>2015-11-22T12:16:29Z</time>
</trkpt>
<trkpt lat="30.8675622" lon="35.6669373">
<ele>1177.39</ele>
<time>2015-11-22T12:16:31Z</time>
</trkpt>
<trkpt lat="30.8674891" lon="35.6669008">
<ele>1176.14</ele>
<time>2015-11-22T12:16:33Z</time>
</trkpt>
<trkpt lat="30.8674162" lon="35.6668603">
<ele>1176.33</ele>
<time>2015-11-22T12:16:35Z</time>
</trkpt>
<trkpt lat="30.8673427" lon="35.6668188">
<ele>1176.13</ele>
<time>2015-11-22T12:16:37Z</time>
</trkpt>
<trkpt lat="30.8672702" lon="35.6667794">
<ele>1176.33</ele>
<time>2015-11-22T12:16:39Z</time>
</trkpt>
<trkpt lat="30.8671989" lon="35.6667414">
<ele>1175.63</ele>
<time>2015-11-22T12:16:41Z</time>
</trkpt>
<trkpt lat="30.8671266" lon="35.6667022">
<ele>1175.45</ele>
<time>2015-11-22T12:16:43Z</time>
</trkpt>
<trkpt lat="30.8670568" lon="35.6666629">
<ele>1175.41</ele>
<time>2015-11-22T12:16:45Z</time>
</trkpt>
<trkpt lat="30.8669859" lon="35.6666290">
<ele>1175.90</ele>
<time>2015-11-22T12:16:47Z</time>
</trkpt>
<trkpt lat="30.8669162" lon="35.6665929">
<ele>1176.27</ele>
<time>2015-11-22T12:16:49Z</time>
</trkpt>
<trkpt lat="30.8668489" lon="35.6665552">
<ele>1176.36</ele>
<time>2015-11-22T12:16:51Z</time>
</trkpt>
<trkpt lat="30.8667806" lon="35.6665172">
<ele>1175.89</ele>
<time>2015-11-22T12:16:53Z</time>
</trkpt>
<trkpt lat="30.8667144" lon="35.6664803">
<ele>1175.52</ele>
<time>2015-11-22T12:16:55Z</time>
</trkpt>
<trkpt lat="30.8666507" lon="35.6664472">
<ele>1175.92</ele>
<time>2015-11-22T12:16:57Z</time>
</trkpt>
<trkpt lat="30.8665844" lon="35.6664158">
<ele>1176.28</ele>
<time>2015-11-22T12:16:59Z</time>
</trkpt>
<trkpt lat="30.8665016" lon="35.6663711">
<ele>1174.11</ele>
<time>2015-11-22T12:17:01Z</time>
</trkpt>
<trkpt lat="30.8664541" lon="35.6663458">
<ele>1174.25</ele>
<time>2015-11-22T12:17:02Z</time>
</trkpt>
<trkpt lat="30.8664088" lon="35.6663228">
<ele>1174.82</ele>
<time>2015-11-22T12:17:03Z</time>
</trkpt>
<trkpt lat="30.8663259" lon="35.6662805">
<ele>1175.75</ele>
<time>2015-11-22T12:17:05Z</time>
</trkpt>
<trkpt lat="30.8662502" lon="35.6662419">
<ele>1176.73</ele>
<time>2015-11-22T12:17:07Z</time>
</trkpt>
<trkpt lat="30.8661792" lon="35.6661927">
<ele>1177.23</ele>
<time>2015-11-22T12:17:09Z</time>
</trkpt>
<trkpt lat="30.8660999" lon="35.6661492">
<ele>1177.81</ele>
<time>2015-11-22T12:17:11Z</time>
</trkpt>
<trkpt lat="30.8660194" lon="35.6661035">
<ele>1178.25</ele>
<time>2015-11-22T12:17:13Z</time>
</trkpt>
<trkpt lat="30.8659743" lon="35.6660782">
<ele>1178.32</ele>
<time>2015-11-22T12:17:14Z</time>
</trkpt>
<trkpt lat="30.8659338" lon="35.6660504">
<ele>1178.36</ele>
<time>2015-11-22T12:17:15Z</time>
</trkpt>
<trkpt lat="30.8658913" lon="35.6660248">
<ele>1178.38</ele>
<time>2015-11-22T12:17:16Z</time>
</trkpt>
<trkpt lat="30.8658491" lon="35.6660011">
<ele>1178.38</ele>
<time>2015-11-22T12:17:17Z</time>
</trkpt>
<trkpt lat="30.8658057" lon="35.6659753">
<ele>1178.39</ele>
<time>2015-11-22T12:17:18Z</time>
</trkpt>
<trkpt lat="30.8657240" lon="35.6659265">
<ele>1178.39</ele>
<time>2015-11-22T12:17:20Z</time>
</trkpt>
<trkpt lat="30.8656836" lon="35.6658966">
<ele>1178.39</ele>
<time>2015-11-22T12:17:21Z</time>
</trkpt>
<trkpt lat="30.8656416" lon="35.6658696">
<ele>1178.39</ele>
<time>2015-11-22T12:17:22Z</time>
</trkpt>
<trkpt lat="30.8655965" lon="35.6658423">
<ele>1177.89</ele>
<time>2015-11-22T12:17:23Z</time>
</trkpt>
<trkpt lat="30.8655151" lon="35.6657814">
<ele>1177.64</ele>
<time>2015-11-22T12:17:25Z</time>
</trkpt>
<trkpt lat="30.8654706" lon="35.6657473">
<ele>1177.52</ele>
<time>2015-11-22T12:17:26Z</time>
</trkpt>
<trkpt lat="30.8654331" lon="35.6657154">
<ele>1177.46</ele>
<time>2015-11-22T12:17:27Z</time>
</trkpt>
<trkpt lat="30.8653982" lon="35.6656818">
<ele>1177.93</ele>
<time>2015-11-22T12:17:28Z</time>
</trkpt>
<trkpt lat="30.8653620" lon="35.6656493">
<ele>1178.16</ele>
<time>2015-11-22T12:17:29Z</time>
</trkpt>
<trkpt lat="30.8653257" lon="35.6656180">
<ele>1178.28</ele>
<time>2015-11-22T12:17:30Z</time>
</trkpt>
<trkpt lat="30.8652852" lon="35.6655814">
<ele>1177.84</ele>
<time>2015-11-22T12:17:31Z</time>
</trkpt>
<trkpt lat="30.8652468" lon="35.6655470">
<ele>1178.11</ele>
<time>2015-11-22T12:17:32Z</time>
</trkpt>
<trkpt lat="30.8652115" lon="35.6655037">
<ele>1177.75</ele>
<time>2015-11-22T12:17:33Z</time>
</trkpt>
<trkpt lat="30.8651733" lon="35.6654657">
<ele>1177.57</ele>
<time>2015-11-22T12:17:34Z</time>
</trkpt>
<trkpt lat="30.8651346" lon="35.6654259">
<ele>1177.98</ele>
<time>2015-11-22T12:17:35Z</time>
</trkpt>
<trkpt lat="30.8650958" lon="35.6653861">
<ele>1178.19</ele>
<time>2015-11-22T12:17:36Z</time>
</trkpt>
<trkpt lat="30.8650571" lon="35.6653405">
<ele>1178.29</ele>
<time>2015-11-22T12:17:37Z</time>
</trkpt>
<trkpt lat="30.8650190" lon="35.6652975">
<ele>1178.34</ele>
<time>2015-11-22T12:17:38Z</time>
</trkpt>
<trkpt lat="30.8649841" lon="35.6652521">
<ele>1178.37</ele>
<time>2015-11-22T12:17:39Z</time>
</trkpt>
<trkpt lat="30.8649486" lon="35.6652099">
<ele>1178.38</ele>
<time>2015-11-22T12:17:40Z</time>
</trkpt>
<trkpt lat="30.8649169" lon="35.6651709">
<ele>1178.39</ele>
<time>2015-11-22T12:17:41Z</time>
</trkpt>
<trkpt lat="30.8648829" lon="35.6651312">
<ele>1178.39</ele>
<time>2015-11-22T12:17:42Z</time>
</trkpt>
<trkpt lat="30.8648492" lon="35.6650889">
<ele>1178.89</ele>
<time>2015-11-22T12:17:43Z</time>
</trkpt>
<trkpt lat="30.8648131" lon="35.6650441">
<ele>1179.14</ele>
<time>2015-11-22T12:17:44Z</time>
</trkpt>
<trkpt lat="30.8647807" lon="35.6649967">
<ele>1179.27</ele>
<time>2015-11-22T12:17:45Z</time>
</trkpt>
<trkpt lat="30.8647466" lon="35.6649513">
<ele>1179.33</ele>
<time>2015-11-22T12:17:46Z</time>
</trkpt>
<trkpt lat="30.8647151" lon="35.6649098">
<ele>1178.86</ele>
<time>2015-11-22T12:17:47Z</time>
</trkpt>
<trkpt lat="30.8646844" lon="35.6648662">
<ele>1178.63</ele>
<time>2015-11-22T12:17:48Z</time>
</trkpt>
<trkpt lat="30.8646516" lon="35.6648278">
<ele>1178.51</ele>
<time>2015-11-22T12:17:49Z</time>
</trkpt>
<trkpt lat="30.8646208" lon="35.6647885">
<ele>1178.95</ele>
<time>2015-11-22T12:17:50Z</time>
</trkpt>
<trkpt lat="30.8645626" lon="35.6647190">
<ele>1178.53</ele>
<time>2015-11-22T12:17:52Z</time>
</trkpt>
<trkpt lat="30.8645352" lon="35.6646760">
<ele>1178.46</ele>
<time>2015-11-22T12:17:53Z</time>
</trkpt>
<trkpt lat="30.8645046" lon="35.6646342">
<ele>1178.43</ele>
<time>2015-11-22T12:17:54Z</time>
</trkpt>
<trkpt lat="30.8644684" lon="35.6645886">
<ele>1178.91</ele>
<time>2015-11-22T12:17:55Z</time>
</trkpt>
<trkpt lat="30.8644369" lon="35.6645453">
<ele>1179.15</ele>
<time>2015-11-22T12:17:56Z</time>
</trkpt>
<trkpt lat="30.8643988" lon="35.6644986">
<ele>1179.27</ele>
<time>2015-11-22T12:17:57Z</time>
</trkpt>
<trkpt lat="30.8643638" lon="35.6644556">
<ele>1179.33</ele>
<time>2015-11-22T12:17:58Z</time>
</trkpt>
<trkpt lat="30.8643302" lon="35.6644126">
<ele>1179.36</ele>
<time>2015-11-22T12:17:59Z</time>
</trkpt>
<trkpt lat="30.8642944" lon="35.6643731">
<ele>1179.38</ele>
<time>2015-11-22T12:18:00Z</time>
</trkpt>
<trkpt lat="30.8642032" lon="35.6642435">
<ele>1179.64</ele>
<time>2015-11-22T12:18:03Z</time>
</trkpt>
<trkpt lat="30.8641704" lon="35.6642029">
<ele>1179.52</ele>
<time>2015-11-22T12:18:04Z</time>
</trkpt>
<trkpt lat="30.8641175" lon="35.6641286">
<ele>1180.17</ele>
<time>2015-11-22T12:18:06Z</time>
</trkpt>
<trkpt lat="30.8640584" lon="35.6640654">
<ele>1179.59</ele>
<time>2015-11-22T12:18:08Z</time>
</trkpt>
<trkpt lat="30.8640199" lon="35.6640178">
<ele>1179.49</ele>
<time>2015-11-22T12:18:09Z</time>
</trkpt>
<trkpt lat="30.8639890" lon="35.6639762">
<ele>1179.94</ele>
<time>2015-11-22T12:18:10Z</time>
</trkpt>
<trkpt lat="30.8639274" lon="35.6639004">
<ele>1180.28</ele>
<time>2015-11-22T12:18:12Z</time>
</trkpt>
<trkpt lat="30.8638761" lon="35.6638197">
<ele>1180.37</ele>
<time>2015-11-22T12:18:14Z</time>
</trkpt>
<trkpt lat="30.8638421" lon="35.6637848">
<ele>1180.88</ele>
<time>2015-11-22T12:18:15Z</time>
</trkpt>
<trkpt lat="30.8637852" lon="35.6637196">
<ele>1181.27</ele>
<time>2015-11-22T12:18:17Z</time>
</trkpt>
<trkpt lat="30.8637389" lon="35.6636429">
<ele>1182.11</ele>
<time>2015-11-22T12:18:19Z</time>
</trkpt>
<trkpt lat="30.8636828" lon="35.6635839">
<ele>1182.82</ele>
<time>2015-11-22T12:18:21Z</time>
</trkpt>
<trkpt lat="30.8636278" lon="35.6635143">
<ele>1183.25</ele>
<time>2015-11-22T12:18:23Z</time>
</trkpt>
<trkpt lat="30.8635753" lon="35.6634489">
<ele>1183.86</ele>
<time>2015-11-22T12:18:25Z</time>
</trkpt>
<trkpt lat="30.8635240" lon="35.6633816">
<ele>1184.76</ele>
<time>2015-11-22T12:18:27Z</time>
</trkpt>
<trkpt lat="30.8634725" lon="35.6633144">
<ele>1185.24</ele>
<time>2015-11-22T12:18:29Z</time>
</trkpt>
<trkpt lat="30.8634194" lon="35.6632495">
<ele>1184.60</ele>
<time>2015-11-22T12:18:31Z</time>
</trkpt>
<trkpt lat="30.8633675" lon="35.6631863">
<ele>1184.45</ele>
<time>2015-11-22T12:18:33Z</time>
</trkpt>
<trkpt lat="30.8633177" lon="35.6631175">
<ele>1185.16</ele>
<time>2015-11-22T12:18:35Z</time>
</trkpt>
<trkpt lat="30.8632686" lon="35.6630462">
<ele>1185.33</ele>
<time>2015-11-22T12:18:37Z</time>
</trkpt>
<trkpt lat="30.8632173" lon="35.6629764">
<ele>1185.88</ele>
<time>2015-11-22T12:18:39Z</time>
</trkpt>
<trkpt lat="30.8631666" lon="35.6629092">
<ele>1187.02</ele>
<time>2015-11-22T12:18:41Z</time>
</trkpt>
<trkpt lat="30.8631158" lon="35.6628429">
<ele>1187.30</ele>
<time>2015-11-22T12:18:43Z</time>
</trkpt>
<trkpt lat="30.8630673" lon="35.6627778">
<ele>1187.37</ele>
<time>2015-11-22T12:18:45Z</time>
</trkpt>
<trkpt lat="30.8630258" lon="35.6627167">
<ele>1187.39</ele>
<time>2015-11-22T12:18:47Z</time>
</trkpt>
<trkpt lat="30.8629824" lon="35.6626581">
<ele>1187.39</ele>
<time>2015-11-22T12:18:49Z</time>
</trkpt>
<trkpt lat="30.8629387" lon="35.6626006">
<ele>1187.64</ele>
<time>2015-11-22T12:18:51Z</time>
</trkpt>
<trkpt lat="30.8628985" lon="35.6625421">
<ele>1187.52</ele>
<time>2015-11-22T12:18:53Z</time>
</trkpt>
<trkpt lat="30.8628546" lon="35.6624859">
<ele>1188.18</ele>
<time>2015-11-22T12:18:55Z</time>
</trkpt>
<trkpt lat="30.8628110" lon="35.6624281">
<ele>1188.34</ele>
<time>2015-11-22T12:18:57Z</time>
</trkpt>
<trkpt lat="30.8627700" lon="35.6623697">
<ele>1188.88</ele>
<time>2015-11-22T12:18:59Z</time>
</trkpt>
<trkpt lat="30.8627287" lon="35.6623098">
<ele>1189.27</ele>
<time>2015-11-22T12:19:01Z</time>
</trkpt>
<trkpt lat="30.8626866" lon="35.6622515">
<ele>1189.36</ele>
<time>2015-11-22T12:19:03Z</time>
</trkpt>
<trkpt lat="30.8626455" lon="35.6621947">
<ele>1189.38</ele>
<time>2015-11-22T12:19:05Z</time>
</trkpt>
<trkpt lat="30.8626064" lon="35.6621384">
<ele>1189.39</ele>
<time>2015-11-22T12:19:07Z</time>
</trkpt>
<trkpt lat="30.8625667" lon="35.6620848">
<ele>1189.89</ele>
<time>2015-11-22T12:19:09Z</time>
</trkpt>
<trkpt lat="30.8625277" lon="35.6620328">
<ele>1190.27</ele>
<time>2015-11-22T12:19:11Z</time>
</trkpt>
<trkpt lat="30.8624888" lon="35.6619834">
<ele>1190.36</ele>
<time>2015-11-22T12:19:13Z</time>
</trkpt>
<trkpt lat="30.8624529" lon="35.6619404">
<ele>1191.14</ele>
<time>2015-11-22T12:19:15Z</time>
</trkpt>
<trkpt lat="30.8624150" lon="35.6618957">
<ele>1191.77</ele>
<time>2015-11-22T12:19:17Z</time>
</trkpt>
<trkpt lat="30.8623782" lon="35.6618485">
<ele>1192.24</ele>
<time>2015-11-22T12:19:19Z</time>
</trkpt>
<trkpt lat="30.8623416" lon="35.6618019">
<ele>1192.35</ele>
<time>2015-11-22T12:19:21Z</time>
</trkpt>
<trkpt lat="30.8623054" lon="35.6617532">
<ele>1192.38</ele>
<time>2015-11-22T12:19:23Z</time>
</trkpt>
<trkpt lat="30.8622717" lon="35.6617036">
<ele>1192.89</ele>
<time>2015-11-22T12:19:25Z</time>
</trkpt>
<trkpt lat="30.8622394" lon="35.6616601">
<ele>1193.27</ele>
<time>2015-11-22T12:19:27Z</time>
</trkpt>
<trkpt lat="30.8622050" lon="35.6616177">
<ele>1193.36</ele>
<time>2015-11-22T12:19:29Z</time>
</trkpt>
<trkpt lat="30.8621736" lon="35.6615726">
<ele>1193.89</ele>
<time>2015-11-22T12:19:31Z</time>
</trkpt>
<trkpt lat="30.8621416" lon="35.6615315">
<ele>1194.77</ele>
<time>2015-11-22T12:19:33Z</time>
</trkpt>
<trkpt lat="30.8621106" lon="35.6614919">
<ele>1195.24</ele>
<time>2015-11-22T12:19:35Z</time>
</trkpt>
<trkpt lat="30.8620858" lon="35.6614476">
<ele>1195.35</ele>
<time>2015-11-22T12:19:37Z</time>
</trkpt>
<trkpt lat="30.8620503" lon="35.6613811">
<ele>1195.39</ele>
<time>2015-11-22T12:19:40Z</time>
</trkpt>
<trkpt lat="30.8620173" lon="35.6613435">
<ele>1196.14</ele>
<time>2015-11-22T12:19:42Z</time>
</trkpt>
<trkpt lat="30.8619708" lon="35.6612977">
<ele>1196.86</ele>
<time>2015-11-22T12:19:45Z</time>
</trkpt>
<trkpt lat="30.8619374" lon="35.6612626">
<ele>1197.26</ele>
<time>2015-11-22T12:19:47Z</time>
</trkpt>
<trkpt lat="30.8618961" lon="35.6612042">
<ele>1198.13</ele>
<time>2015-11-22T12:19:50Z</time>
</trkpt>
<trkpt lat="30.8618545" lon="35.6611486">
<ele>1199.11</ele>
<time>2015-11-22T12:19:53Z</time>
</trkpt>
<trkpt lat="30.8618117" lon="35.6610941">
<ele>1198.86</ele>
<time>2015-11-22T12:19:56Z</time>
</trkpt>
<trkpt lat="30.8617711" lon="35.6610338">
<ele>1197.95</ele>
<time>2015-11-22T12:19:59Z</time>
</trkpt>
<trkpt lat="30.8617299" lon="35.6609734">
<ele>1198.21</ele>
<time>2015-11-22T12:20:02Z</time>
</trkpt>
<trkpt lat="30.8616989" lon="35.6609352">
<ele>1197.60</ele>
<time>2015-11-22T12:20:04Z</time>
</trkpt>
<trkpt lat="30.8616685" lon="35.6608924">
<ele>1197.95</ele>
<time>2015-11-22T12:20:06Z</time>
</trkpt>
<trkpt lat="30.8616378" lon="35.6608461">
<ele>1198.28</ele>
<time>2015-11-22T12:20:08Z</time>
</trkpt>
<trkpt lat="30.8616039" lon="35.6607839">
<ele>1198.87</ele>
<time>2015-11-22T12:20:10Z</time>
</trkpt>
<trkpt lat="30.8615704" lon="35.6607356">
<ele>1199.26</ele>
<time>2015-11-22T12:20:12Z</time>
</trkpt>
<trkpt lat="30.8615371" lon="35.6606849">
<ele>1199.36</ele>
<time>2015-11-22T12:20:14Z</time>
</trkpt>
<trkpt lat="30.8615020" lon="35.6606361">
<ele>1200.14</ele>
<time>2015-11-22T12:20:16Z</time>
</trkpt>
<trkpt lat="30.8614667" lon="35.6605794">
<ele>1199.58</ele>
<time>2015-11-22T12:20:18Z</time>
</trkpt>
<trkpt lat="30.8614290" lon="35.6605228">
<ele>1199.44</ele>
<time>2015-11-22T12:20:20Z</time>
</trkpt>
<trkpt lat="30.8613883" lon="35.6604715">
<ele>1199.41</ele>
<time>2015-11-22T12:20:22Z</time>
</trkpt>
<trkpt lat="30.8613486" lon="35.6604208">
<ele>1199.40</ele>
<time>2015-11-22T12:20:24Z</time>
</trkpt>
<trkpt lat="30.8613068" lon="35.6603691">
<ele>1199.89</ele>
<time>2015-11-22T12:20:26Z</time>
</trkpt>
<trkpt lat="30.8612582" lon="35.6603069">
<ele>1199.52</ele>
<time>2015-11-22T12:20:28Z</time>
</trkpt>
<trkpt lat="30.8612122" lon="35.6602434">
<ele>1199.43</ele>
<time>2015-11-22T12:20:30Z</time>
</trkpt>
<trkpt lat="30.8611603" lon="35.6601706">
<ele>1199.40</ele>
<time>2015-11-22T12:20:32Z</time>
</trkpt>
<trkpt lat="30.8611259" lon="35.6601205">
<ele>1199.40</ele>
<time>2015-11-22T12:20:33Z</time>
</trkpt>
<trkpt lat="30.8610664" lon="35.6600369">
<ele>1198.90</ele>
<time>2015-11-22T12:20:35Z</time>
</trkpt>
<trkpt lat="30.8609995" lon="35.6599317">
<ele>1198.02</ele>
<time>2015-11-22T12:20:37Z</time>
</trkpt>
<trkpt lat="30.8609665" lon="35.6598873">
<ele>1197.71</ele>
<time>2015-11-22T12:20:38Z</time>
</trkpt>
<trkpt lat="30.8609235" lon="35.6598458">
<ele>1197.55</ele>
<time>2015-11-22T12:20:39Z</time>
</trkpt>
<trkpt lat="30.8608879" lon="35.6598010">
<ele>1197.47</ele>
<time>2015-11-22T12:20:40Z</time>
</trkpt>
<trkpt lat="30.8608595" lon="35.6597530">
<ele>1196.93</ele>
<time>2015-11-22T12:20:41Z</time>
</trkpt>
<trkpt lat="30.8608233" lon="35.6597022">
<ele>1196.66</ele>
<time>2015-11-22T12:20:42Z</time>
</trkpt>
<trkpt lat="30.8607885" lon="35.6596537">
<ele>1196.53</ele>
<time>2015-11-22T12:20:43Z</time>
</trkpt>
<trkpt lat="30.8607493" lon="35.6596007">
<ele>1196.46</ele>
<time>2015-11-22T12:20:44Z</time>
</trkpt>
<trkpt lat="30.8607099" lon="35.6595414">
<ele>1195.93</ele>
<time>2015-11-22T12:20:45Z</time>
</trkpt>
<trkpt lat="30.8606698" lon="35.6594869">
<ele>1195.66</ele>
<time>2015-11-22T12:20:46Z</time>
</trkpt>
<trkpt lat="30.8606290" lon="35.6594271">
<ele>1195.53</ele>
<time>2015-11-22T12:20:47Z</time>
</trkpt>
<trkpt lat="30.8605858" lon="35.6593706">
<ele>1194.96</ele>
<time>2015-11-22T12:20:48Z</time>
</trkpt>
<trkpt lat="30.8605375" lon="35.6593110">
<ele>1195.18</ele>
<time>2015-11-22T12:20:49Z</time>
</trkpt>
<trkpt lat="30.8604907" lon="35.6592506">
<ele>1195.29</ele>
<time>2015-11-22T12:20:50Z</time>
</trkpt>
<trkpt lat="30.8604471" lon="35.6591850">
<ele>1194.84</ele>
<time>2015-11-22T12:20:51Z</time>
</trkpt>
<trkpt lat="30.8604004" lon="35.6591203">
<ele>1194.62</ele>
<time>2015-11-22T12:20:52Z</time>
</trkpt>
<trkpt lat="30.8603547" lon="35.6590536">
<ele>1194.51</ele>
<time>2015-11-22T12:20:53Z</time>
</trkpt>
<trkpt lat="30.8603075" lon="35.6589877">
<ele>1194.45</ele>
<time>2015-11-22T12:20:54Z</time>
</trkpt>
<trkpt lat="30.8602597" lon="35.6589238">
<ele>1194.42</ele>
<time>2015-11-22T12:20:55Z</time>
</trkpt>
<trkpt lat="30.8602131" lon="35.6588613">
<ele>1194.41</ele>
<time>2015-11-22T12:20:56Z</time>
</trkpt>
<trkpt lat="30.8601738" lon="35.6588063">
<ele>1194.40</ele>
<time>2015-11-22T12:20:57Z</time>
</trkpt>
<trkpt lat="30.8601341" lon="35.6587493">
<ele>1194.90</ele>
<time>2015-11-22T12:20:58Z</time>
</trkpt>
<trkpt lat="30.8600928" lon="35.6586921">
<ele>1195.15</ele>
<time>2015-11-22T12:20:59Z</time>
</trkpt>
<trkpt lat="30.8600536" lon="35.6586312">
<ele>1194.77</ele>
<time>2015-11-22T12:21:00Z</time>
</trkpt>
<trkpt lat="30.8600099" lon="35.6585751">
<ele>1195.08</ele>
<time>2015-11-22T12:21:01Z</time>
</trkpt>
<trkpt lat="30.8599677" lon="35.6585208">
<ele>1195.24</ele>
<time>2015-11-22T12:21:02Z</time>
</trkpt>
<trkpt lat="30.8599283" lon="35.6584646">
<ele>1195.32</ele>
<time>2015-11-22T12:21:03Z</time>
</trkpt>
<trkpt lat="30.8598873" lon="35.6584086">
<ele>1195.35</ele>
<time>2015-11-22T12:21:04Z</time>
</trkpt>
<trkpt lat="30.8598438" lon="35.6583539">
<ele>1195.37</ele>
<time>2015-11-22T12:21:05Z</time>
</trkpt>
<trkpt lat="30.8598028" lon="35.6582993">
<ele>1195.88</ele>
<time>2015-11-22T12:21:06Z</time>
</trkpt>
<trkpt lat="30.8597644" lon="35.6582388">
<ele>1195.64</ele>
<time>2015-11-22T12:21:07Z</time>
</trkpt>
<trkpt lat="30.8597226" lon="35.6581854">
<ele>1196.02</ele>
<time>2015-11-22T12:21:08Z</time>
</trkpt>
<trkpt lat="30.8596812" lon="35.6581292">
<ele>1196.21</ele>
<time>2015-11-22T12:21:09Z</time>
</trkpt>
<trkpt lat="30.8596422" lon="35.6580737">
<ele>1196.30</ele>
<time>2015-11-22T12:21:10Z</time>
</trkpt>
<trkpt lat="30.8596022" lon="35.6580243">
<ele>1196.35</ele>
<time>2015-11-22T12:21:11Z</time>
</trkpt>
<trkpt lat="30.8595657" lon="35.6579744">
<ele>1196.37</ele>
<time>2015-11-22T12:21:12Z</time>
</trkpt>
<trkpt lat="30.8595278" lon="35.6579322">
<ele>1196.88</ele>
<time>2015-11-22T12:21:13Z</time>
</trkpt>
<trkpt lat="30.8594905" lon="35.6578898">
<ele>1197.14</ele>
<time>2015-11-22T12:21:14Z</time>
</trkpt>
<trkpt lat="30.8594574" lon="35.6578448">
<ele>1197.27</ele>
<time>2015-11-22T12:21:15Z</time>
</trkpt>
<trkpt lat="30.8594231" lon="35.6578047">
<ele>1197.33</ele>
<time>2015-11-22T12:21:16Z</time>
</trkpt>
<trkpt lat="30.8593808" lon="35.6577711">
<ele>1197.36</ele>
<time>2015-11-22T12:21:17Z</time>
</trkpt>
<trkpt lat="30.8593424" lon="35.6577306">
<ele>1197.38</ele>
<time>2015-11-22T12:21:18Z</time>
</trkpt>
<trkpt lat="30.8593004" lon="35.6576938">
<ele>1197.89</ele>
<time>2015-11-22T12:21:19Z</time>
</trkpt>
<trkpt lat="30.8592579" lon="35.6576535">
<ele>1198.14</ele>
<time>2015-11-22T12:21:20Z</time>
</trkpt>
<trkpt lat="30.8592108" lon="35.6576180">
<ele>1198.77</ele>
<time>2015-11-22T12:21:21Z</time>
</trkpt>
<trkpt lat="30.8591647" lon="35.6575808">
<ele>1199.08</ele>
<time>2015-11-22T12:21:22Z</time>
</trkpt>
<trkpt lat="30.8591174" lon="35.6575490">
<ele>1199.24</ele>
<time>2015-11-22T12:21:23Z</time>
</trkpt>
<trkpt lat="30.8590737" lon="35.6575137">
<ele>1199.32</ele>
<time>2015-11-22T12:21:24Z</time>
</trkpt>
<trkpt lat="30.8590304" lon="35.6574964">
<ele>1200.35</ele>
<time>2015-11-22T12:21:25Z</time>
</trkpt>
<trkpt lat="30.8589873" lon="35.6574741">
<ele>1200.87</ele>
<time>2015-11-22T12:21:26Z</time>
</trkpt>
<trkpt lat="30.8589086" lon="35.6574269">
<ele>1201.26</ele>
<time>2015-11-22T12:21:28Z</time>
</trkpt>
<trkpt lat="30.8588702" lon="35.6573996">
<ele>1200.83</ele>
<time>2015-11-22T12:21:29Z</time>
</trkpt>
<trkpt lat="30.8588243" lon="35.6573718">
<ele>1200.61</ele>
<time>2015-11-22T12:21:30Z</time>
</trkpt>
<trkpt lat="30.8587811" lon="35.6573482">
<ele>1200.50</ele>
<time>2015-11-22T12:21:31Z</time>
</trkpt>
<trkpt lat="30.8587349" lon="35.6573224">
<ele>1200.45</ele>
<time>2015-11-22T12:21:32Z</time>
</trkpt>
<trkpt lat="30.8586869" lon="35.6573041">
<ele>1199.92</ele>
<time>2015-11-22T12:21:33Z</time>
</trkpt>
<trkpt lat="30.8586380" lon="35.6572812">
<ele>1199.66</ele>
<time>2015-11-22T12:21:34Z</time>
</trkpt>
<trkpt lat="30.8585850" lon="35.6572523">
<ele>1200.03</ele>
<time>2015-11-22T12:21:35Z</time>
</trkpt>
<trkpt lat="30.8585338" lon="35.6572277">
<ele>1200.21</ele>
<time>2015-11-22T12:21:36Z</time>
</trkpt>
<trkpt lat="30.8584797" lon="35.6571988">
<ele>1200.30</ele>
<time>2015-11-22T12:21:37Z</time>
</trkpt>
<trkpt lat="30.8584275" lon="35.6571734">
<ele>1200.35</ele>
<time>2015-11-22T12:21:38Z</time>
</trkpt>
<trkpt lat="30.8583811" lon="35.6571493">
<ele>1200.37</ele>
<time>2015-11-22T12:21:39Z</time>
</trkpt>
<trkpt lat="30.8583286" lon="35.6571243">
<ele>1200.38</ele>
<time>2015-11-22T12:21:40Z</time>
</trkpt>
<trkpt lat="30.8582768" lon="35.6571098">
<ele>1199.89</ele>
<time>2015-11-22T12:21:41Z</time>
</trkpt>
<trkpt lat="30.8582309" lon="35.6570873">
<ele>1199.64</ele>
<time>2015-11-22T12:21:42Z</time>
</trkpt>
<trkpt lat="30.8581887" lon="35.6570683">
<ele>1199.02</ele>
<time>2015-11-22T12:21:43Z</time>
</trkpt>
<trkpt lat="30.8580959" lon="35.6570234">
<ele>1199.21</ele>
<time>2015-11-22T12:21:45Z</time>
</trkpt>
<trkpt lat="30.8580443" lon="35.6569995">
<ele>1199.80</ele>
<time>2015-11-22T12:21:46Z</time>
</trkpt>
<trkpt lat="30.8579991" lon="35.6569802">
<ele>1200.10</ele>
<time>2015-11-22T12:21:47Z</time>
</trkpt>
<trkpt lat="30.8579537" lon="35.6569623">
<ele>1200.25</ele>
<time>2015-11-22T12:21:48Z</time>
</trkpt>
<trkpt lat="30.8578681" lon="35.6569236">
<ele>1200.86</ele>
<time>2015-11-22T12:21:50Z</time>
</trkpt>
<trkpt lat="30.8577899" lon="35.6568858">
<ele>1200.51</ele>
<time>2015-11-22T12:21:52Z</time>
</trkpt>
<trkpt lat="30.8577110" lon="35.6568524">
<ele>1200.42</ele>
<time>2015-11-22T12:21:54Z</time>
</trkpt>
<trkpt lat="30.8576329" lon="35.6568097">
<ele>1200.40</ele>
<time>2015-11-22T12:21:56Z</time>
</trkpt>
<trkpt lat="30.8575843" lon="35.6567896">
<ele>1200.40</ele>
<time>2015-11-22T12:21:57Z</time>
</trkpt>
<trkpt lat="30.8575052" lon="35.6567520">
<ele>1200.40</ele>
<time>2015-11-22T12:21:59Z</time>
</trkpt>
<trkpt lat="30.8574254" lon="35.6567150">
<ele>1200.39</ele>
<time>2015-11-22T12:22:01Z</time>
</trkpt>
<trkpt lat="30.8573456" lon="35.6566830">
<ele>1200.39</ele>
<time>2015-11-22T12:22:03Z</time>
</trkpt>
<trkpt lat="30.8572682" lon="35.6566516">
<ele>1200.39</ele>
<time>2015-11-22T12:22:05Z</time>
</trkpt>
<trkpt lat="30.8572004" lon="35.6566190">
<ele>1200.64</ele>
<time>2015-11-22T12:22:07Z</time>
</trkpt>
<trkpt lat="30.8571342" lon="35.6565924">
<ele>1200.46</ele>
<time>2015-11-22T12:22:09Z</time>
</trkpt>
<trkpt lat="30.8570684" lon="35.6565684">
<ele>1200.91</ele>
<time>2015-11-22T12:22:11Z</time>
</trkpt>
<trkpt lat="30.8570050" lon="35.6565431">
<ele>1201.27</ele>
<time>2015-11-22T12:22:13Z</time>
</trkpt>
<trkpt lat="30.8569432" lon="35.6565195">
<ele>1201.36</ele>
<time>2015-11-22T12:22:15Z</time>
</trkpt>
<trkpt lat="30.8568883" lon="35.6564971">
<ele>1200.89</ele>
<time>2015-11-22T12:22:17Z</time>
</trkpt>
<trkpt lat="30.8568268" lon="35.6564692">
<ele>1200.77</ele>
<time>2015-11-22T12:22:19Z</time>
</trkpt>
<trkpt lat="30.8567606" lon="35.6564394">
<ele>1200.49</ele>
<time>2015-11-22T12:22:21Z</time>
</trkpt>
<trkpt lat="30.8566869" lon="35.6564082">
<ele>1200.42</ele>
<time>2015-11-22T12:22:23Z</time>
</trkpt>
<trkpt lat="30.8566114" lon="35.6563738">
<ele>1200.40</ele>
<time>2015-11-22T12:22:25Z</time>
</trkpt>
<trkpt lat="30.8565354" lon="35.6563378">
<ele>1199.65</ele>
<time>2015-11-22T12:22:27Z</time>
</trkpt>
<trkpt lat="30.8564574" lon="35.6563056">
<ele>1199.46</ele>
<time>2015-11-22T12:22:29Z</time>
</trkpt>
<trkpt lat="30.8563783" lon="35.6562716">
<ele>1198.66</ele>
<time>2015-11-22T12:22:31Z</time>
</trkpt>
<trkpt lat="30.8562990" lon="35.6562370">
<ele>1198.46</ele>
<time>2015-11-22T12:22:33Z</time>
</trkpt>
<trkpt lat="30.8562404" lon="35.6562117">
<ele>1198.43</ele>
<time>2015-11-22T12:22:34Z</time>
</trkpt>
<trkpt lat="30.8561898" lon="35.6561920">
<ele>1198.41</ele>
<time>2015-11-22T12:22:35Z</time>
</trkpt>
<trkpt lat="30.8561448" lon="35.6561736">
<ele>1198.40</ele>
<time>2015-11-22T12:22:36Z</time>
</trkpt>
<trkpt lat="30.8560925" lon="35.6561500">
<ele>1198.40</ele>
<time>2015-11-22T12:22:37Z</time>
</trkpt>
<trkpt lat="30.8560423" lon="35.6561373">
<ele>1197.90</ele>
<time>2015-11-22T12:22:38Z</time>
</trkpt>
<trkpt lat="30.8559980" lon="35.6561189">
<ele>1197.65</ele>
<time>2015-11-22T12:22:39Z</time>
</trkpt>
<trkpt lat="30.8559526" lon="35.6560909">
<ele>1197.02</ele>
<time>2015-11-22T12:22:40Z</time>
</trkpt>
<trkpt lat="30.8558983" lon="35.6560684">
<ele>1196.71</ele>
<time>2015-11-22T12:22:41Z</time>
</trkpt>
<trkpt lat="30.8558539" lon="35.6560482">
<ele>1196.55</ele>
<time>2015-11-22T12:22:42Z</time>
</trkpt>
<trkpt lat="30.8558095" lon="35.6560274">
<ele>1196.47</ele>
<time>2015-11-22T12:22:43Z</time>
</trkpt>
<trkpt lat="30.8557584" lon="35.6560070">
<ele>1196.43</ele>
<time>2015-11-22T12:22:44Z</time>
</trkpt>
<trkpt lat="30.8557023" lon="35.6559839">
<ele>1196.91</ele>
<time>2015-11-22T12:22:45Z</time>
</trkpt>
<trkpt lat="30.8556416" lon="35.6559516">
<ele>1196.65</ele>
<time>2015-11-22T12:22:46Z</time>
</trkpt>
<trkpt lat="30.8555892" lon="35.6559418">
<ele>1196.52</ele>
<time>2015-11-22T12:22:47Z</time>
</trkpt>
<trkpt lat="30.8555338" lon="35.6559150">
<ele>1196.96</ele>
<time>2015-11-22T12:22:48Z</time>
</trkpt>
<trkpt lat="30.8554787" lon="35.6558884">
<ele>1197.18</ele>
<time>2015-11-22T12:22:49Z</time>
</trkpt>
<trkpt lat="30.8554190" lon="35.6558655">
<ele>1197.29</ele>
<time>2015-11-22T12:22:50Z</time>
</trkpt>
<trkpt lat="30.8553646" lon="35.6558495">
<ele>1196.84</ele>
<time>2015-11-22T12:22:51Z</time>
</trkpt>
<trkpt lat="30.8553117" lon="35.6558269">
<ele>1196.62</ele>
<time>2015-11-22T12:22:52Z</time>
</trkpt>
<trkpt lat="30.8552616" lon="35.6557970">
<ele>1196.01</ele>
<time>2015-11-22T12:22:53Z</time>
</trkpt>
<trkpt lat="30.8551959" lon="35.6557767">
<ele>1196.20</ele>
<time>2015-11-22T12:22:54Z</time>
</trkpt>
<trkpt lat="30.8551381" lon="35.6557566">
<ele>1196.30</ele>
<time>2015-11-22T12:22:55Z</time>
</trkpt>
<trkpt lat="30.8550886" lon="35.6557279">
<ele>1195.35</ele>
<time>2015-11-22T12:22:56Z</time>
</trkpt>
<trkpt lat="30.8550338" lon="35.6557034">
<ele>1195.37</ele>
<time>2015-11-22T12:22:57Z</time>
</trkpt>
<trkpt lat="30.8549698" lon="35.6556623">
<ele>1195.88</ele>
<time>2015-11-22T12:22:58Z</time>
</trkpt>
<trkpt lat="30.8549172" lon="35.6556360">
<ele>1196.14</ele>
<time>2015-11-22T12:22:59Z</time>
</trkpt>
<trkpt lat="30.8548743" lon="35.6556082">
<ele>1196.27</ele>
<time>2015-11-22T12:23:00Z</time>
</trkpt>
<trkpt lat="30.8548200" lon="35.6555867">
<ele>1196.33</ele>
<time>2015-11-22T12:23:01Z</time>
</trkpt>
<trkpt lat="30.8547676" lon="35.6555675">
<ele>1195.86</ele>
<time>2015-11-22T12:23:02Z</time>
</trkpt>
<trkpt lat="30.8547154" lon="35.6555365">
<ele>1196.13</ele>
<time>2015-11-22T12:23:03Z</time>
</trkpt>
<trkpt lat="30.8546614" lon="35.6555194">
<ele>1195.76</ele>
<time>2015-11-22T12:23:04Z</time>
</trkpt>
<trkpt lat="30.8546012" lon="35.6555001">
<ele>1195.58</ele>
<time>2015-11-22T12:23:05Z</time>
</trkpt>
<trkpt lat="30.8545461" lon="35.6554781">
<ele>1195.49</ele>
<time>2015-11-22T12:23:06Z</time>
</trkpt>
<trkpt lat="30.8544890" lon="35.6554463">
<ele>1195.94</ele>
<time>2015-11-22T12:23:07Z</time>
</trkpt>
<trkpt lat="30.8544325" lon="35.6554181">
<ele>1196.17</ele>
<time>2015-11-22T12:23:08Z</time>
</trkpt>
<trkpt lat="30.8543762" lon="35.6553872">
<ele>1196.78</ele>
<time>2015-11-22T12:23:09Z</time>
</trkpt>
<trkpt lat="30.8543252" lon="35.6553619">
<ele>1196.59</ele>
<time>2015-11-22T12:23:10Z</time>
</trkpt>
<trkpt lat="30.8542761" lon="35.6553164">
<ele>1196.49</ele>
<time>2015-11-22T12:23:11Z</time>
</trkpt>
<trkpt lat="30.8542243" lon="35.6552786">
<ele>1195.94</ele>
<time>2015-11-22T12:23:12Z</time>
</trkpt>
<trkpt lat="30.8541764" lon="35.6552425">
<ele>1195.17</ele>
<time>2015-11-22T12:23:13Z</time>
</trkpt>
<trkpt lat="30.8541283" lon="35.6551980">
<ele>1194.78</ele>
<time>2015-11-22T12:23:14Z</time>
</trkpt>
<trkpt lat="30.8540695" lon="35.6551584">
<ele>1195.59</ele>
<time>2015-11-22T12:23:15Z</time>
</trkpt>
<trkpt lat="30.8540203" lon="35.6551215">
<ele>1195.49</ele>
<time>2015-11-22T12:23:16Z</time>
</trkpt>
<trkpt lat="30.8539626" lon="35.6550733">
<ele>1194.94</ele>
<time>2015-11-22T12:23:17Z</time>
</trkpt>
<trkpt lat="30.8539145" lon="35.6550271">
<ele>1195.17</ele>
<time>2015-11-22T12:23:18Z</time>
</trkpt>
<trkpt lat="30.8538618" lon="35.6549754">
<ele>1194.78</ele>
<time>2015-11-22T12:23:19Z</time>
</trkpt>
<trkpt lat="30.8538081" lon="35.6549307">
<ele>1195.09</ele>
<time>2015-11-22T12:23:20Z</time>
</trkpt>
<trkpt lat="30.8537588" lon="35.6548875">
<ele>1195.24</ele>
<time>2015-11-22T12:23:21Z</time>
</trkpt>
<trkpt lat="30.8537120" lon="35.6548450">
<ele>1195.32</ele>
<time>2015-11-22T12:23:22Z</time>
</trkpt>
<trkpt lat="30.8536634" lon="35.6547868">
<ele>1195.36</ele>
<time>2015-11-22T12:23:23Z</time>
</trkpt>
<trkpt lat="30.8536154" lon="35.6547453">
<ele>1194.87</ele>
<time>2015-11-22T12:23:24Z</time>
</trkpt>
<trkpt lat="30.8535636" lon="35.6546988">
<ele>1195.13</ele>
<time>2015-11-22T12:23:25Z</time>
</trkpt>
<trkpt lat="30.8535130" lon="35.6546457">
<ele>1195.26</ele>
<time>2015-11-22T12:23:26Z</time>
</trkpt>
<trkpt lat="30.8534640" lon="35.6545978">
<ele>1195.33</ele>
<time>2015-11-22T12:23:27Z</time>
</trkpt>
<trkpt lat="30.8534302" lon="35.6545578">
<ele>1195.36</ele>
<time>2015-11-22T12:23:28Z</time>
</trkpt>
<trkpt lat="30.8533994" lon="35.6545176">
<ele>1195.38</ele>
<time>2015-11-22T12:23:29Z</time>
</trkpt>
<trkpt lat="30.8533386" lon="35.6544543">
<ele>1196.14</ele>
<time>2015-11-22T12:23:31Z</time>
</trkpt>
<trkpt lat="30.8532801" lon="35.6543820">
<ele>1196.33</ele>
<time>2015-11-22T12:23:33Z</time>
</trkpt>
<trkpt lat="30.8532188" lon="35.6543116">
<ele>1197.38</ele>
<time>2015-11-22T12:23:35Z</time>
</trkpt>
<trkpt lat="30.8531830" lon="35.6542798">
<ele>1197.39</ele>
<time>2015-11-22T12:23:36Z</time>
</trkpt>
<trkpt lat="30.8531146" lon="35.6542192">
<ele>1198.64</ele>
<time>2015-11-22T12:23:38Z</time>
</trkpt>
<trkpt lat="30.8530750" lon="35.6541854">
<ele>1198.52</ele>
<time>2015-11-22T12:23:39Z</time>
</trkpt>
<trkpt lat="30.8530340" lon="35.6541587">
<ele>1198.46</ele>
<time>2015-11-22T12:23:40Z</time>
</trkpt>
<trkpt lat="30.8529778" lon="35.6540806">
<ele>1198.41</ele>
<time>2015-11-22T12:23:42Z</time>
</trkpt>
<trkpt lat="30.8529395" lon="35.6540480">
<ele>1198.40</ele>
<time>2015-11-22T12:23:43Z</time>
</trkpt>
<trkpt lat="30.8528721" lon="35.6539938">
<ele>1199.65</ele>
<time>2015-11-22T12:23:45Z</time>
</trkpt>
<trkpt lat="30.8528082" lon="35.6539353">
<ele>1200.21</ele>
<time>2015-11-22T12:23:47Z</time>
</trkpt>
<trkpt lat="30.8527526" lon="35.6538757">
<ele>1200.85</ele>
<time>2015-11-22T12:23:49Z</time>
</trkpt>
<trkpt lat="30.8526996" lon="35.6538157">
<ele>1200.76</ele>
<time>2015-11-22T12:23:51Z</time>
</trkpt>
<trkpt lat="30.8526271" lon="35.6537804">
<ele>1199.73</ele>
<time>2015-11-22T12:23:53Z</time>
</trkpt>
<trkpt lat="30.8525596" lon="35.6537249">
<ele>1198.73</ele>
<time>2015-11-22T12:23:55Z</time>
</trkpt>
<trkpt lat="30.8524995" lon="35.6536735">
<ele>1199.23</ele>
<time>2015-11-22T12:23:57Z</time>
</trkpt>
<trkpt lat="30.8524404" lon="35.6536222">
<ele>1199.35</ele>
<time>2015-11-22T12:23:59Z</time>
</trkpt>
<trkpt lat="30.8523867" lon="35.6535646">
<ele>1200.13</ele>
<time>2015-11-22T12:24:01Z</time>
</trkpt>
<trkpt lat="30.8523425" lon="35.6535034">
<ele>1200.08</ele>
<time>2015-11-22T12:24:03Z</time>
</trkpt>
<trkpt lat="30.8522970" lon="35.6534474">
<ele>1201.07</ele>
<time>2015-11-22T12:24:05Z</time>
</trkpt>
<trkpt lat="30.8522481" lon="35.6533909">
<ele>1201.31</ele>
<time>2015-11-22T12:24:07Z</time>
</trkpt>
<trkpt lat="30.8521992" lon="35.6533379">
<ele>1201.87</ele>
<time>2015-11-22T12:24:09Z</time>
</trkpt>
<trkpt lat="30.8521487" lon="35.6532854">
<ele>1203.01</ele>
<time>2015-11-22T12:24:11Z</time>
</trkpt>
<trkpt lat="30.8520901" lon="35.6532405">
<ele>1204.05</ele>
<time>2015-11-22T12:24:13Z</time>
</trkpt>
<trkpt lat="30.8520323" lon="35.6531903">
<ele>1204.31</ele>
<time>2015-11-22T12:24:15Z</time>
</trkpt>
<trkpt lat="30.8519796" lon="35.6531338">
<ele>1204.37</ele>
<time>2015-11-22T12:24:17Z</time>
</trkpt>
<trkpt lat="30.8519276" lon="35.6530799">
<ele>1204.89</ele>
<time>2015-11-22T12:24:19Z</time>
</trkpt>
<trkpt lat="30.8518791" lon="35.6530236">
<ele>1205.77</ele>
<time>2015-11-22T12:24:21Z</time>
</trkpt>
<trkpt lat="30.8518299" lon="35.6529645">
<ele>1206.24</ele>
<time>2015-11-22T12:24:23Z</time>
</trkpt>
<trkpt lat="30.8517763" lon="35.6529132">
<ele>1206.60</ele>
<time>2015-11-22T12:24:25Z</time>
</trkpt>
<trkpt lat="30.8517206" lon="35.6528738">
<ele>1206.95</ele>
<time>2015-11-22T12:24:27Z</time>
</trkpt>
<trkpt lat="30.8516726" lon="35.6528291">
<ele>1207.28</ele>
<time>2015-11-22T12:24:29Z</time>
</trkpt>
<trkpt lat="30.8516307" lon="35.6527795">
<ele>1207.37</ele>
<time>2015-11-22T12:24:31Z</time>
</trkpt>
<trkpt lat="30.8515956" lon="35.6527318">
<ele>1206.14</ele>
<time>2015-11-22T12:24:33Z</time>
</trkpt>
<trkpt lat="30.8515671" lon="35.6526855">
<ele>1204.61</ele>
<time>2015-11-22T12:24:36Z</time>
</trkpt>
<trkpt lat="30.8515181" lon="35.6526710">
<ele>1206.05</ele>
<time>2015-11-22T12:24:39Z</time>
</trkpt>
<trkpt lat="30.8514666" lon="35.6526820">
<ele>1207.06</ele>
<time>2015-11-22T12:24:41Z</time>
</trkpt>
<trkpt lat="30.8514129" lon="35.6527186">
<ele>1208.06</ele>
<time>2015-11-22T12:24:43Z</time>
</trkpt>
<trkpt lat="30.8513638" lon="35.6527645">
<ele>1208.31</ele>
<time>2015-11-22T12:24:45Z</time>
</trkpt>
<trkpt lat="30.8513137" lon="35.6528145">
<ele>1208.37</ele>
<time>2015-11-22T12:24:47Z</time>
</trkpt>
<trkpt lat="30.8512595" lon="35.6528600">
<ele>1205.39</ele>
<time>2015-11-22T12:24:49Z</time>
</trkpt>
<trkpt lat="30.8512088" lon="35.6529050">
<ele>1204.64</ele>
<time>2015-11-22T12:24:51Z</time>
</trkpt>
<trkpt lat="30.8511625" lon="35.6529521">
<ele>1204.46</ele>
<time>2015-11-22T12:24:53Z</time>
</trkpt>
<trkpt lat="30.8511181" lon="35.6529960">
<ele>1204.41</ele>
<time>2015-11-22T12:24:55Z</time>
</trkpt>
<trkpt lat="30.8510717" lon="35.6530382">
<ele>1204.40</ele>
<time>2015-11-22T12:24:57Z</time>
</trkpt>
<trkpt lat="30.8510281" lon="35.6530757">
<ele>1204.40</ele>
<time>2015-11-22T12:24:59Z</time>
</trkpt>
<trkpt lat="30.8509878" lon="35.6531073">
<ele>1204.89</ele>
<time>2015-11-22T12:25:01Z</time>
</trkpt>
<trkpt lat="30.8509474" lon="35.6531390">
<ele>1205.02</ele>
<time>2015-11-22T12:25:03Z</time>
</trkpt>
<trkpt lat="30.8508986" lon="35.6531701">
<ele>1204.05</ele>
<time>2015-11-22T12:25:05Z</time>
</trkpt>
<trkpt lat="30.8508489" lon="35.6532017">
<ele>1204.06</ele>
<time>2015-11-22T12:25:07Z</time>
</trkpt>
<trkpt lat="30.8507995" lon="35.6532373">
<ele>1204.31</ele>
<time>2015-11-22T12:25:09Z</time>
</trkpt>
<trkpt lat="30.8507460" lon="35.6532720">
<ele>1204.37</ele>
<time>2015-11-22T12:25:11Z</time>
</trkpt>
<trkpt lat="30.8506885" lon="35.6533103">
<ele>1204.39</ele>
<time>2015-11-22T12:25:13Z</time>
</trkpt>
<trkpt lat="30.8506281" lon="35.6533476">
<ele>1204.39</ele>
<time>2015-11-22T12:25:15Z</time>
</trkpt>
<trkpt lat="30.8505659" lon="35.6533768">
<ele>1204.14</ele>
<time>2015-11-22T12:25:17Z</time>
</trkpt>
<trkpt lat="30.8505066" lon="35.6534077">
<ele>1204.33</ele>
<time>2015-11-22T12:25:19Z</time>
</trkpt>
<trkpt lat="30.8504531" lon="35.6534339">
<ele>1204.38</ele>
<time>2015-11-22T12:25:21Z</time>
</trkpt>
<trkpt lat="30.8504171" lon="35.6534853">
<ele>1202.52</ele>
<time>2015-11-22T12:25:51Z</time>
</trkpt>
<trkpt lat="30.8503576" lon="35.6535284">
<ele>1202.66</ele>
<time>2015-11-22T12:25:54Z</time>
</trkpt>
<trkpt lat="30.8503053" lon="35.6535631">
<ele>1203.71</ele>
<time>2015-11-22T12:25:56Z</time>
</trkpt>
<trkpt lat="30.8502482" lon="35.6536039">
<ele>1204.22</ele>
<time>2015-11-22T12:25:58Z</time>
</trkpt>
<trkpt lat="30.8501892" lon="35.6536427">
<ele>1205.10</ele>
<time>2015-11-22T12:26:00Z</time>
</trkpt>
<trkpt lat="30.8501357" lon="35.6536780">
<ele>1205.32</ele>
<time>2015-11-22T12:26:02Z</time>
</trkpt>
<trkpt lat="30.8500907" lon="35.6537123">
<ele>1205.38</ele>
<time>2015-11-22T12:26:04Z</time>
</trkpt>
<trkpt lat="30.8500475" lon="35.6537434">
<ele>1204.89</ele>
<time>2015-11-22T12:26:06Z</time>
</trkpt>
<trkpt lat="30.8500041" lon="35.6537734">
<ele>1205.27</ele>
<time>2015-11-22T12:26:08Z</time>
</trkpt>
<trkpt lat="30.8499595" lon="35.6538055">
<ele>1205.36</ele>
<time>2015-11-22T12:26:10Z</time>
</trkpt>
<trkpt lat="30.8499142" lon="35.6538454">
<ele>1206.64</ele>
<time>2015-11-22T12:26:12Z</time>
</trkpt>
<trkpt lat="30.8498636" lon="35.6538919">
<ele>1206.70</ele>
<time>2015-11-22T12:26:14Z</time>
</trkpt>
<trkpt lat="30.8498097" lon="35.6539378">
<ele>1206.47</ele>
<time>2015-11-22T12:26:16Z</time>
</trkpt>
<trkpt lat="30.8497525" lon="35.6539842">
<ele>1206.91</ele>
<time>2015-11-22T12:26:18Z</time>
</trkpt>
<trkpt lat="30.8496969" lon="35.6540304">
<ele>1207.27</ele>
<time>2015-11-22T12:26:20Z</time>
</trkpt>
<trkpt lat="30.8496418" lon="35.6540772">
<ele>1206.61</ele>
<time>2015-11-22T12:26:22Z</time>
</trkpt>
<trkpt lat="30.8495901" lon="35.6541277">
<ele>1206.45</ele>
<time>2015-11-22T12:26:24Z</time>
</trkpt>
<trkpt lat="30.8495372" lon="35.6541779">
<ele>1207.66</ele>
<time>2015-11-22T12:26:26Z</time>
</trkpt>
<trkpt lat="30.8494852" lon="35.6542282">
<ele>1208.46</ele>
<time>2015-11-22T12:26:28Z</time>
</trkpt>
<trkpt lat="30.8494346" lon="35.6542804">
<ele>1209.16</ele>
<time>2015-11-22T12:26:30Z</time>
</trkpt>
<trkpt lat="30.8493844" lon="35.6543376">
<ele>1208.59</ele>
<time>2015-11-22T12:26:32Z</time>
</trkpt>
<trkpt lat="30.8493353" lon="35.6543939">
<ele>1208.94</ele>
<time>2015-11-22T12:26:34Z</time>
</trkpt>
<trkpt lat="30.8492865" lon="35.6544494">
<ele>1209.28</ele>
<time>2015-11-22T12:26:36Z</time>
</trkpt>
<trkpt lat="30.8492404" lon="35.6545070">
<ele>1209.37</ele>
<time>2015-11-22T12:26:38Z</time>
</trkpt>
<trkpt lat="30.8491855" lon="35.6545544">
<ele>1209.14</ele>
<time>2015-11-22T12:26:40Z</time>
</trkpt>
<trkpt lat="30.8491291" lon="35.6545912">
<ele>1209.33</ele>
<time>2015-11-22T12:26:42Z</time>
</trkpt>
<trkpt lat="30.8490746" lon="35.6546194">
<ele>1208.63</ele>
<time>2015-11-22T12:26:44Z</time>
</trkpt>
<trkpt lat="30.8490214" lon="35.6546396">
<ele>1209.20</ele>
<time>2015-11-22T12:26:46Z</time>
</trkpt>
<trkpt lat="30.8489686" lon="35.6546531">
<ele>1209.35</ele>
<time>2015-11-22T12:26:48Z</time>
</trkpt>
<trkpt lat="30.8489178" lon="35.6546660">
<ele>1210.13</ele>
<time>2015-11-22T12:26:50Z</time>
</trkpt>
<trkpt lat="30.8488644" lon="35.6546820">
<ele>1210.33</ele>
<time>2015-11-22T12:26:52Z</time>
</trkpt>
<trkpt lat="30.8488075" lon="35.6546950">
<ele>1209.88</ele>
<time>2015-11-22T12:26:54Z</time>
</trkpt>
<trkpt lat="30.8487467" lon="35.6547018">
<ele>1209.51</ele>
<time>2015-11-22T12:26:56Z</time>
</trkpt>
<trkpt lat="30.8486829" lon="35.6547029">
<ele>1208.92</ele>
<time>2015-11-22T12:26:58Z</time>
</trkpt>
<trkpt lat="30.8486188" lon="35.6546953">
<ele>1208.78</ele>
<time>2015-11-22T12:27:00Z</time>
</trkpt>
<trkpt lat="30.8485542" lon="35.6546822">
<ele>1208.74</ele>
<time>2015-11-22T12:27:02Z</time>
</trkpt>
<trkpt lat="30.8484894" lon="35.6546697">
<ele>1208.48</ele>
<time>2015-11-22T12:27:04Z</time>
</trkpt>
<trkpt lat="30.8484217" lon="35.6546603">
<ele>1208.42</ele>
<time>2015-11-22T12:27:06Z</time>
</trkpt>
<trkpt lat="30.8483494" lon="35.6546522">
<ele>1208.40</ele>
<time>2015-11-22T12:27:08Z</time>
</trkpt>
<trkpt lat="30.8482659" lon="35.6546400">
<ele>1207.90</ele>
<time>2015-11-22T12:27:10Z</time>
</trkpt>
<trkpt lat="30.8482210" lon="35.6546335">
<ele>1207.64</ele>
<time>2015-11-22T12:27:11Z</time>
</trkpt>
<trkpt lat="30.8481752" lon="35.6546267">
<ele>1207.52</ele>
<time>2015-11-22T12:27:12Z</time>
</trkpt>
<trkpt lat="30.8481051" lon="35.6546152">
<ele>1207.46</ele>
<time>2015-11-22T12:27:13Z</time>
</trkpt>
<trkpt lat="30.8480547" lon="35.6545985">
<ele>1207.43</ele>
<time>2015-11-22T12:27:14Z</time>
</trkpt>
<trkpt lat="30.8480065" lon="35.6545855">
<ele>1207.41</ele>
<time>2015-11-22T12:27:15Z</time>
</trkpt>
<trkpt lat="30.8479595" lon="35.6545750">
<ele>1207.40</ele>
<time>2015-11-22T12:27:16Z</time>
</trkpt>
<trkpt lat="30.8479026" lon="35.6545485">
<ele>1206.90</ele>
<time>2015-11-22T12:27:17Z</time>
</trkpt>
<trkpt lat="30.8478569" lon="35.6545256">
<ele>1206.65</ele>
<time>2015-11-22T12:27:18Z</time>
</trkpt>
<trkpt lat="30.8478068" lon="35.6545000">
<ele>1206.52</ele>
<time>2015-11-22T12:27:19Z</time>
</trkpt>
<trkpt lat="30.8477585" lon="35.6544764">
<ele>1206.46</ele>
<time>2015-11-22T12:27:20Z</time>
</trkpt>
<trkpt lat="30.8477071" lon="35.6544524">
<ele>1206.43</ele>
<time>2015-11-22T12:27:21Z</time>
</trkpt>
<trkpt lat="30.8476598" lon="35.6544283">
<ele>1206.41</ele>
<time>2015-11-22T12:27:22Z</time>
</trkpt>
<trkpt lat="30.8476112" lon="35.6544041">
<ele>1206.40</ele>
<time>2015-11-22T12:27:23Z</time>
</trkpt>
<trkpt lat="30.8475524" lon="35.6543827">
<ele>1206.40</ele>
<time>2015-11-22T12:27:24Z</time>
</trkpt>
<trkpt lat="30.8474902" lon="35.6543584">
<ele>1205.90</ele>
<time>2015-11-22T12:27:25Z</time>
</trkpt>
<trkpt lat="30.8474293" lon="35.6543323">
<ele>1205.65</ele>
<time>2015-11-22T12:27:26Z</time>
</trkpt>
<trkpt lat="30.8473768" lon="35.6543039">
<ele>1205.52</ele>
<time>2015-11-22T12:27:27Z</time>
</trkpt>
<trkpt lat="30.8473251" lon="35.6542767">
<ele>1205.46</ele>
<time>2015-11-22T12:27:28Z</time>
</trkpt>
<trkpt lat="30.8472688" lon="35.6542524">
<ele>1205.93</ele>
<time>2015-11-22T12:27:29Z</time>
</trkpt>
<trkpt lat="30.8472177" lon="35.6542259">
<ele>1206.16</ele>
<time>2015-11-22T12:27:30Z</time>
</trkpt>
<trkpt lat="30.8471658" lon="35.6541953">
<ele>1206.28</ele>
<time>2015-11-22T12:27:31Z</time>
</trkpt>
<trkpt lat="30.8471074" lon="35.6541637">
<ele>1206.34</ele>
<time>2015-11-22T12:27:32Z</time>
</trkpt>
<trkpt lat="30.8470461" lon="35.6541365">
<ele>1205.86</ele>
<time>2015-11-22T12:27:33Z</time>
</trkpt>
<trkpt lat="30.8469819" lon="35.6540981">
<ele>1205.63</ele>
<time>2015-11-22T12:27:34Z</time>
</trkpt>
<trkpt lat="30.8469254" lon="35.6540759">
<ele>1205.01</ele>
<time>2015-11-22T12:27:35Z</time>
</trkpt>
<trkpt lat="30.8468708" lon="35.6540621">
<ele>1204.70</ele>
<time>2015-11-22T12:27:36Z</time>
</trkpt>
<trkpt lat="30.8468176" lon="35.6540429">
<ele>1204.55</ele>
<time>2015-11-22T12:27:37Z</time>
</trkpt>
<trkpt lat="30.8467611" lon="35.6540227">
<ele>1203.97</ele>
<time>2015-11-22T12:27:38Z</time>
</trkpt>
<trkpt lat="30.8467027" lon="35.6540021">
<ele>1204.18</ele>
<time>2015-11-22T12:27:39Z</time>
</trkpt>
<trkpt lat="30.8466500" lon="35.6539760">
<ele>1204.29</ele>
<time>2015-11-22T12:27:40Z</time>
</trkpt>
<trkpt lat="30.8465826" lon="35.6539518">
<ele>1204.84</ele>
<time>2015-11-22T12:27:41Z</time>
</trkpt>
<trkpt lat="30.8465225" lon="35.6539322">
<ele>1205.12</ele>
<time>2015-11-22T12:27:42Z</time>
</trkpt>
<trkpt lat="30.8464689" lon="35.6539085">
<ele>1205.26</ele>
<time>2015-11-22T12:27:43Z</time>
</trkpt>
<trkpt lat="30.8464080" lon="35.6538753">
<ele>1205.82</ele>
<time>2015-11-22T12:27:44Z</time>
</trkpt>
<trkpt lat="30.8463488" lon="35.6538392">
<ele>1206.11</ele>
<time>2015-11-22T12:27:45Z</time>
</trkpt>
<trkpt lat="30.8462854" lon="35.6537988">
<ele>1205.75</ele>
<time>2015-11-22T12:27:46Z</time>
</trkpt>
<trkpt lat="30.8462304" lon="35.6537567">
<ele>1205.57</ele>
<time>2015-11-22T12:27:47Z</time>
</trkpt>
<trkpt lat="30.8461703" lon="35.6537148">
<ele>1205.98</ele>
<time>2015-11-22T12:27:48Z</time>
</trkpt>
<trkpt lat="30.8460969" lon="35.6536810">
<ele>1206.19</ele>
<time>2015-11-22T12:27:49Z</time>
</trkpt>
<trkpt lat="30.8460299" lon="35.6536567">
<ele>1206.29</ele>
<time>2015-11-22T12:27:50Z</time>
</trkpt>
<trkpt lat="30.8459708" lon="35.6536421">
<ele>1206.34</ele>
<time>2015-11-22T12:27:51Z</time>
</trkpt>
<trkpt lat="30.8459055" lon="35.6536356">
<ele>1205.87</ele>
<time>2015-11-22T12:27:52Z</time>
</trkpt>
<trkpt lat="30.8458492" lon="35.6536431">
<ele>1205.63</ele>
<time>2015-11-22T12:27:53Z</time>
</trkpt>
<trkpt lat="30.8457876" lon="35.6536496">
<ele>1205.51</ele>
<time>2015-11-22T12:27:54Z</time>
</trkpt>
<trkpt lat="30.8457307" lon="35.6536585">
<ele>1205.45</ele>
<time>2015-11-22T12:27:55Z</time>
</trkpt>
<trkpt lat="30.8456625" lon="35.6536567">
<ele>1205.92</ele>
<time>2015-11-22T12:27:56Z</time>
</trkpt>
<trkpt lat="30.8456029" lon="35.6536545">
<ele>1206.66</ele>
<time>2015-11-22T12:27:57Z</time>
</trkpt>
<trkpt lat="30.8455383" lon="35.6536492">
<ele>1207.03</ele>
<time>2015-11-22T12:27:58Z</time>
</trkpt>
<trkpt lat="30.8454710" lon="35.6536479">
<ele>1207.21</ele>
<time>2015-11-22T12:27:59Z</time>
</trkpt>
<trkpt lat="30.8454108" lon="35.6536449">
<ele>1206.80</ele>
<time>2015-11-22T12:28:00Z</time>
</trkpt>
<trkpt lat="30.8453548" lon="35.6536386">
<ele>1206.60</ele>
<time>2015-11-22T12:28:01Z</time>
</trkpt>
<trkpt lat="30.8453013" lon="35.6536300">
<ele>1207.00</ele>
<time>2015-11-22T12:28:02Z</time>
</trkpt>
<trkpt lat="30.8452451" lon="35.6536182">
<ele>1207.20</ele>
<time>2015-11-22T12:28:03Z</time>
</trkpt>
<trkpt lat="30.8451887" lon="35.6536034">
<ele>1207.29</ele>
<time>2015-11-22T12:28:04Z</time>
</trkpt>
<trkpt lat="30.8451390" lon="35.6535946">
<ele>1207.34</ele>
<time>2015-11-22T12:28:05Z</time>
</trkpt>
<trkpt lat="30.8450817" lon="35.6535796">
<ele>1207.37</ele>
<time>2015-11-22T12:28:06Z</time>
</trkpt>
<trkpt lat="30.8450166" lon="35.6535571">
<ele>1207.38</ele>
<time>2015-11-22T12:28:07Z</time>
</trkpt>
<trkpt lat="30.8449566" lon="35.6535398">
<ele>1206.89</ele>
<time>2015-11-22T12:28:08Z</time>
</trkpt>
<trkpt lat="30.8448908" lon="35.6535205">
<ele>1207.14</ele>
<time>2015-11-22T12:28:09Z</time>
</trkpt>
<trkpt lat="30.8448186" lon="35.6535131">
<ele>1207.27</ele>
<time>2015-11-22T12:28:10Z</time>
</trkpt>
<trkpt lat="30.8447535" lon="35.6534968">
<ele>1207.83</ele>
<time>2015-11-22T12:28:11Z</time>
</trkpt>
<trkpt lat="30.8446890" lon="35.6534899">
<ele>1207.61</ele>
<time>2015-11-22T12:28:12Z</time>
</trkpt>
<trkpt lat="30.8446277" lon="35.6534878">
<ele>1207.50</ele>
<time>2015-11-22T12:28:13Z</time>
</trkpt>
<trkpt lat="30.8445636" lon="35.6534797">
<ele>1207.45</ele>
<time>2015-11-22T12:28:14Z</time>
</trkpt>
<trkpt lat="30.8444981" lon="35.6534762">
<ele>1207.42</ele>
<time>2015-11-22T12:28:15Z</time>
</trkpt>
<trkpt lat="30.8444313" lon="35.6534818">
<ele>1207.41</ele>
<time>2015-11-22T12:28:16Z</time>
</trkpt>
<trkpt lat="30.8443614" lon="35.6534795">
<ele>1207.40</ele>
<time>2015-11-22T12:28:17Z</time>
</trkpt>
<trkpt lat="30.8442919" lon="35.6534903">
<ele>1207.40</ele>
<time>2015-11-22T12:28:18Z</time>
</trkpt>
<trkpt lat="30.8442212" lon="35.6534872">
<ele>1207.40</ele>
<time>2015-11-22T12:28:19Z</time>
</trkpt>
<trkpt lat="30.8441455" lon="35.6534915">
<ele>1207.39</ele>
<time>2015-11-22T12:28:20Z</time>
</trkpt>
<trkpt lat="30.8440790" lon="35.6534866">
<ele>1207.39</ele>
<time>2015-11-22T12:28:21Z</time>
</trkpt>
<trkpt lat="30.8440099" lon="35.6534885">
<ele>1206.89</ele>
<time>2015-11-22T12:28:22Z</time>
</trkpt>
<trkpt lat="30.8439399" lon="35.6534893">
<ele>1206.14</ele>
<time>2015-11-22T12:28:23Z</time>
</trkpt>
<trkpt lat="30.8438514" lon="35.6534975">
<ele>1205.27</ele>
<time>2015-11-22T12:28:24Z</time>
</trkpt>
<trkpt lat="30.8437833" lon="35.6535022">
<ele>1204.83</ele>
<time>2015-11-22T12:28:25Z</time>
</trkpt>
<trkpt lat="30.8437230" lon="35.6535067">
<ele>1204.11</ele>
<time>2015-11-22T12:28:26Z</time>
</trkpt>
<trkpt lat="30.8436634" lon="35.6535201">
<ele>1203.75</ele>
<time>2015-11-22T12:28:27Z</time>
</trkpt>
<trkpt lat="30.8435989" lon="35.6535286">
<ele>1204.07</ele>
<time>2015-11-22T12:28:28Z</time>
</trkpt>
<trkpt lat="30.8435385" lon="35.6535389">
<ele>1204.23</ele>
<time>2015-11-22T12:28:29Z</time>
</trkpt>
<trkpt lat="30.8434761" lon="35.6535490">
<ele>1204.31</ele>
<time>2015-11-22T12:28:30Z</time>
</trkpt>
<trkpt lat="30.8434118" lon="35.6535536">
<ele>1204.35</ele>
<time>2015-11-22T12:28:31Z</time>
</trkpt>
<trkpt lat="30.8433489" lon="35.6535611">
<ele>1204.87</ele>
<time>2015-11-22T12:28:32Z</time>
</trkpt>
<trkpt lat="30.8432903" lon="35.6535770">
<ele>1204.13</ele>
<time>2015-11-22T12:28:33Z</time>
</trkpt>
<trkpt lat="30.8432299" lon="35.6535766">
<ele>1203.76</ele>
<time>2015-11-22T12:28:34Z</time>
</trkpt>
<trkpt lat="30.8431651" lon="35.6535816">
<ele>1203.58</ele>
<time>2015-11-22T12:28:35Z</time>
</trkpt>
<trkpt lat="30.8430956" lon="35.6535801">
<ele>1202.99</ele>
<time>2015-11-22T12:28:36Z</time>
</trkpt>
<trkpt lat="30.8430243" lon="35.6535776">
<ele>1202.19</ele>
<time>2015-11-22T12:28:37Z</time>
</trkpt>
<trkpt lat="30.8429670" lon="35.6535863">
<ele>1202.29</ele>
<time>2015-11-22T12:28:38Z</time>
</trkpt>
<trkpt lat="30.8429072" lon="35.6535914">
<ele>1202.34</ele>
<time>2015-11-22T12:28:39Z</time>
</trkpt>
<trkpt lat="30.8428550" lon="35.6536076">
<ele>1201.87</ele>
<time>2015-11-22T12:28:40Z</time>
</trkpt>
<trkpt lat="30.8427931" lon="35.6536077">
<ele>1202.13</ele>
<time>2015-11-22T12:28:41Z</time>
</trkpt>
<trkpt lat="30.8427303" lon="35.6536096">
<ele>1202.26</ele>
<time>2015-11-22T12:28:42Z</time>
</trkpt>
<trkpt lat="30.8426667" lon="35.6536142">
<ele>1202.83</ele>
<time>2015-11-22T12:28:43Z</time>
</trkpt>
<trkpt lat="30.8426004" lon="35.6536232">
<ele>1203.11</ele>
<time>2015-11-22T12:28:44Z</time>
</trkpt>
<trkpt lat="30.8425375" lon="35.6536357">
<ele>1203.25</ele>
<time>2015-11-22T12:28:45Z</time>
</trkpt>
<trkpt lat="30.8424716" lon="35.6536442">
<ele>1203.32</ele>
<time>2015-11-22T12:28:46Z</time>
</trkpt>
<trkpt lat="30.8424019" lon="35.6536490">
<ele>1202.86</ele>
<time>2015-11-22T12:28:47Z</time>
</trkpt>
<trkpt lat="30.8423311" lon="35.6536628">
<ele>1202.63</ele>
<time>2015-11-22T12:28:48Z</time>
</trkpt>
<trkpt lat="30.8422755" lon="35.6536793">
<ele>1202.51</ele>
<time>2015-11-22T12:28:49Z</time>
</trkpt>
<trkpt lat="30.8422153" lon="35.6536903">
<ele>1202.95</ele>
<time>2015-11-22T12:28:50Z</time>
</trkpt>
<trkpt lat="30.8421465" lon="35.6537001">
<ele>1203.17</ele>
<time>2015-11-22T12:28:51Z</time>
</trkpt>
<trkpt lat="30.8420787" lon="35.6537046">
<ele>1203.28</ele>
<time>2015-11-22T12:28:52Z</time>
</trkpt>
<trkpt lat="30.8420138" lon="35.6537132">
<ele>1203.34</ele>
<time>2015-11-22T12:28:53Z</time>
</trkpt>
<trkpt lat="30.8419481" lon="35.6537273">
<ele>1203.37</ele>
<time>2015-11-22T12:28:54Z</time>
</trkpt>
<trkpt lat="30.8418813" lon="35.6537480">
<ele>1203.38</ele>
<time>2015-11-22T12:28:55Z</time>
</trkpt>
<trkpt lat="30.8418209" lon="35.6537608">
<ele>1203.89</ele>
<time>2015-11-22T12:28:56Z</time>
</trkpt>
<trkpt lat="30.8417704" lon="35.6537828">
<ele>1204.64</ele>
<time>2015-11-22T12:28:57Z</time>
</trkpt>
<trkpt lat="30.8417247" lon="35.6538004">
<ele>1205.02</ele>
<time>2015-11-22T12:28:58Z</time>
</trkpt>
<trkpt lat="30.8416512" lon="35.6538261">
<ele>1206.05</ele>
<time>2015-11-22T12:29:00Z</time>
</trkpt>
<trkpt lat="30.8415944" lon="35.6538493">
<ele>1207.56</ele>
<time>2015-11-22T12:29:02Z</time>
</trkpt>
<trkpt lat="30.8415326" lon="35.6538750">
<ele>1208.18</ele>
<time>2015-11-22T12:29:04Z</time>
</trkpt>
<trkpt lat="30.8414782" lon="35.6538756">
<ele>1208.84</ele>
<time>2015-11-22T12:29:06Z</time>
</trkpt>
<trkpt lat="30.8414259" lon="35.6538687">
<ele>1209.26</ele>
<time>2015-11-22T12:29:08Z</time>
</trkpt>
<trkpt lat="30.8413720" lon="35.6538536">
<ele>1208.11</ele>
<time>2015-11-22T12:29:10Z</time>
</trkpt>
<trkpt lat="30.8413066" lon="35.6538364">
<ele>1207.07</ele>
<time>2015-11-22T12:29:12Z</time>
</trkpt>
<trkpt lat="30.8412364" lon="35.6538046">
<ele>1206.06</ele>
<time>2015-11-22T12:29:14Z</time>
</trkpt>
<trkpt lat="30.8411625" lon="35.6537764">
<ele>1206.31</ele>
<time>2015-11-22T12:29:16Z</time>
</trkpt>
<trkpt lat="30.8410909" lon="35.6537527">
<ele>1206.87</ele>
<time>2015-11-22T12:29:18Z</time>
</trkpt>
<trkpt lat="30.8410237" lon="35.6537213">
<ele>1207.26</ele>
<time>2015-11-22T12:29:20Z</time>
</trkpt>
<trkpt lat="30.8409599" lon="35.6536996">
<ele>1207.36</ele>
<time>2015-11-22T12:29:22Z</time>
</trkpt>
<trkpt lat="30.8409081" lon="35.6536919">
<ele>1206.64</ele>
<time>2015-11-22T12:29:24Z</time>
</trkpt>
<trkpt lat="30.8408462" lon="35.6536810">
<ele>1205.30</ele>
<time>2015-11-22T12:29:27Z</time>
</trkpt>
<trkpt lat="30.8407881" lon="35.6536674">
<ele>1204.63</ele>
<time>2015-11-22T12:29:30Z</time>
</trkpt>
<trkpt lat="30.8407321" lon="35.6536759">
<ele>1205.95</ele>
<time>2015-11-22T12:29:32Z</time>
</trkpt>
<trkpt lat="30.8406699" lon="35.6536970">
<ele>1206.28</ele>
<time>2015-11-22T12:29:34Z</time>
</trkpt>
<trkpt lat="30.8406101" lon="35.6537269">
<ele>1206.37</ele>
<time>2015-11-22T12:29:36Z</time>
</trkpt>
<trkpt lat="30.8405709" lon="35.6537997">
<ele>1206.39</ele>
<time>2015-11-22T12:29:38Z</time>
</trkpt>
<trkpt lat="30.8405878" lon="35.6538773">
<ele>1205.89</ele>
<time>2015-11-22T12:29:39Z</time>
</trkpt>
<trkpt lat="30.8406356" lon="35.6539565">
<ele>1205.14</ele>
<time>2015-11-22T12:29:40Z</time>
</trkpt>
<trkpt lat="30.8406476" lon="35.6540230">
<ele>1204.77</ele>
<time>2015-11-22T12:29:41Z</time>
</trkpt>
<trkpt lat="30.8406478" lon="35.6540905">
<ele>1204.08</ele>
<time>2015-11-22T12:29:42Z</time>
</trkpt>
<trkpt lat="30.8406473" lon="35.6541651">
<ele>1203.74</ele>
<time>2015-11-22T12:29:43Z</time>
</trkpt>
<trkpt lat="30.8406485" lon="35.6542437">
<ele>1203.57</ele>
<time>2015-11-22T12:29:44Z</time>
</trkpt>
<trkpt lat="30.8406509" lon="35.6543204">
<ele>1202.98</ele>
<time>2015-11-22T12:29:45Z</time>
</trkpt>
<trkpt lat="30.8406431" lon="35.6544040">
<ele>1202.19</ele>
<time>2015-11-22T12:29:46Z</time>
</trkpt>
<trkpt lat="30.8406418" lon="35.6544898">
<ele>1201.79</ele>
<time>2015-11-22T12:29:47Z</time>
</trkpt>
<trkpt lat="30.8406381" lon="35.6545791">
<ele>1201.09</ele>
<time>2015-11-22T12:29:48Z</time>
</trkpt>
<trkpt lat="30.8406263" lon="35.6546749">
<ele>1200.74</ele>
<time>2015-11-22T12:29:49Z</time>
</trkpt>
<trkpt lat="30.8406169" lon="35.6547758">
<ele>1200.07</ele>
<time>2015-11-22T12:29:50Z</time>
</trkpt>
<trkpt lat="30.8406116" lon="35.6548732">
<ele>1199.23</ele>
<time>2015-11-22T12:29:51Z</time>
</trkpt>
<trkpt lat="30.8406108" lon="35.6549777">
<ele>1198.81</ele>
<time>2015-11-22T12:29:52Z</time>
</trkpt>
<trkpt lat="30.8406008" lon="35.6550948">
<ele>1198.10</ele>
<time>2015-11-22T12:29:53Z</time>
</trkpt>
<trkpt lat="30.8405911" lon="35.6552073">
<ele>1197.25</ele>
<time>2015-11-22T12:29:54Z</time>
</trkpt>
<trkpt lat="30.8405823" lon="35.6553200">
<ele>1196.82</ele>
<time>2015-11-22T12:29:55Z</time>
</trkpt>
<trkpt lat="30.8405663" lon="35.6554374">
<ele>1196.11</ele>
<time>2015-11-22T12:29:56Z</time>
</trkpt>
<trkpt lat="30.8405626" lon="35.6555499">
<ele>1195.75</ele>
<time>2015-11-22T12:29:57Z</time>
</trkpt>
<trkpt lat="30.8405540" lon="35.6556842">
<ele>1195.07</ele>
<time>2015-11-22T12:29:58Z</time>
</trkpt>
<trkpt lat="30.8405518" lon="35.6558032">
<ele>1194.73</ele>
<time>2015-11-22T12:29:59Z</time>
</trkpt>
<trkpt lat="30.8405432" lon="35.6559222">
<ele>1194.56</ele>
<time>2015-11-22T12:30:00Z</time>
</trkpt>
<trkpt lat="30.8405342" lon="35.6560573">
<ele>1193.98</ele>
<time>2015-11-22T12:30:01Z</time>
</trkpt>
<trkpt lat="30.8405252" lon="35.6561846">
<ele>1193.69</ele>
<time>2015-11-22T12:30:02Z</time>
</trkpt>
<trkpt lat="30.8405037" lon="35.6563073">
<ele>1193.04</ele>
<time>2015-11-22T12:30:03Z</time>
</trkpt>
<trkpt lat="30.8404744" lon="35.6564256">
<ele>1192.72</ele>
<time>2015-11-22T12:30:04Z</time>
</trkpt>
<trkpt lat="30.8404374" lon="35.6565319">
<ele>1192.56</ele>
<time>2015-11-22T12:30:05Z</time>
</trkpt>
<trkpt lat="30.8403931" lon="35.6566421">
<ele>1191.97</ele>
<time>2015-11-22T12:30:06Z</time>
</trkpt>
<trkpt lat="30.8403374" lon="35.6567403">
<ele>1191.68</ele>
<time>2015-11-22T12:30:07Z</time>
</trkpt>
<trkpt lat="30.8402797" lon="35.6568369">
<ele>1191.04</ele>
<time>2015-11-22T12:30:08Z</time>
</trkpt>
<trkpt lat="30.8402132" lon="35.6569166">
<ele>1191.22</ele>
<time>2015-11-22T12:30:09Z</time>
</trkpt>
<trkpt lat="30.8401306" lon="35.6569970">
<ele>1191.31</ele>
<time>2015-11-22T12:30:10Z</time>
</trkpt>
<trkpt lat="30.8400506" lon="35.6570594">
<ele>1191.35</ele>
<time>2015-11-22T12:30:11Z</time>
</trkpt>
<trkpt lat="30.8399674" lon="35.6571066">
<ele>1191.37</ele>
<time>2015-11-22T12:30:12Z</time>
</trkpt>
<trkpt lat="30.8398859" lon="35.6571505">
<ele>1191.88</ele>
<time>2015-11-22T12:30:13Z</time>
</trkpt>
<trkpt lat="30.8398047" lon="35.6571853">
<ele>1191.64</ele>
<time>2015-11-22T12:30:14Z</time>
</trkpt>
<trkpt lat="30.8397133" lon="35.6572121">
<ele>1191.52</ele>
<time>2015-11-22T12:30:15Z</time>
</trkpt>
<trkpt lat="30.8396373" lon="35.6572318">
<ele>1191.96</ele>
<time>2015-11-22T12:30:16Z</time>
</trkpt>
<trkpt lat="30.8395527" lon="35.6572509">
<ele>1192.67</ele>
<time>2015-11-22T12:30:17Z</time>
</trkpt>
<trkpt lat="30.8394718" lon="35.6572774">
<ele>1192.53</ele>
<time>2015-11-22T12:30:18Z</time>
</trkpt>
<trkpt lat="30.8393973" lon="35.6573106">
<ele>1192.96</ele>
<time>2015-11-22T12:30:19Z</time>
</trkpt>
<trkpt lat="30.8393258" lon="35.6573321">
<ele>1193.18</ele>
<time>2015-11-22T12:30:20Z</time>
</trkpt>
<trkpt lat="30.8392501" lon="35.6573583">
<ele>1193.29</ele>
<time>2015-11-22T12:30:21Z</time>
</trkpt>
<trkpt lat="30.8391820" lon="35.6573855">
<ele>1193.84</ele>
<time>2015-11-22T12:30:22Z</time>
</trkpt>
<trkpt lat="30.8391114" lon="35.6574085">
<ele>1194.12</ele>
<time>2015-11-22T12:30:23Z</time>
</trkpt>
<trkpt lat="30.8390535" lon="35.6574269">
<ele>1194.26</ele>
<time>2015-11-22T12:30:24Z</time>
</trkpt>
<trkpt lat="30.8389912" lon="35.6574495">
<ele>1194.82</ele>
<time>2015-11-22T12:30:25Z</time>
</trkpt>
<trkpt lat="30.8389301" lon="35.6574726">
<ele>1195.11</ele>
<time>2015-11-22T12:30:26Z</time>
</trkpt>
<trkpt lat="30.8388701" lon="35.6574959">
<ele>1195.25</ele>
<time>2015-11-22T12:30:27Z</time>
</trkpt>
<trkpt lat="30.8387995" lon="35.6575183">
<ele>1195.32</ele>
<time>2015-11-22T12:30:28Z</time>
</trkpt>
<trkpt lat="30.8387309" lon="35.6575440">
<ele>1195.36</ele>
<time>2015-11-22T12:30:29Z</time>
</trkpt>
<trkpt lat="30.8386713" lon="35.6575602">
<ele>1194.38</ele>
<time>2015-11-22T12:30:30Z</time>
</trkpt>
<trkpt lat="30.8386137" lon="35.6575824">
<ele>1193.89</ele>
<time>2015-11-22T12:30:31Z</time>
</trkpt>
<trkpt lat="30.8385578" lon="35.6576077">
<ele>1194.64</ele>
<time>2015-11-22T12:30:32Z</time>
</trkpt>
<trkpt lat="30.8385087" lon="35.6576304">
<ele>1195.52</ele>
<time>2015-11-22T12:30:33Z</time>
</trkpt>
<trkpt lat="30.8384614" lon="35.6576510">
<ele>1195.96</ele>
<time>2015-11-22T12:30:34Z</time>
</trkpt>
<trkpt lat="30.8384160" lon="35.6576734">
<ele>1196.17</ele>
<time>2015-11-22T12:30:35Z</time>
</trkpt>
<trkpt lat="30.8383360" lon="35.6577043">
<ele>1196.34</ele>
<time>2015-11-22T12:30:37Z</time>
</trkpt>
<trkpt lat="30.8382597" lon="35.6577474">
<ele>1196.38</ele>
<time>2015-11-22T12:30:39Z</time>
</trkpt>
<trkpt lat="30.8381891" lon="35.6577899">
<ele>1197.89</ele>
<time>2015-11-22T12:30:41Z</time>
</trkpt>
<trkpt lat="30.8381475" lon="35.6578109">
<ele>1198.14</ele>
<time>2015-11-22T12:30:42Z</time>
</trkpt>
<trkpt lat="30.8381031" lon="35.6578346">
<ele>1198.27</ele>
<time>2015-11-22T12:30:43Z</time>
</trkpt>
<trkpt lat="30.8380524" lon="35.6578648">
<ele>1197.83</ele>
<time>2015-11-22T12:30:44Z</time>
</trkpt>
<trkpt lat="30.8380110" lon="35.6578888">
<ele>1197.61</ele>
<time>2015-11-22T12:30:45Z</time>
</trkpt>
<trkpt lat="30.8379296" lon="35.6579471">
<ele>1197.45</ele>
<time>2015-11-22T12:30:47Z</time>
</trkpt>
<trkpt lat="30.8378909" lon="35.6579792">
<ele>1197.92</ele>
<time>2015-11-22T12:30:48Z</time>
</trkpt>
<trkpt lat="30.8378428" lon="35.6580207">
<ele>1197.66</ele>
<time>2015-11-22T12:30:49Z</time>
</trkpt>
<trkpt lat="30.8377852" lon="35.6580573">
<ele>1197.53</ele>
<time>2015-11-22T12:30:50Z</time>
</trkpt>
<trkpt lat="30.8377207" lon="35.6581106">
<ele>1196.68</ele>
<time>2015-11-22T12:30:52Z</time>
</trkpt>
<trkpt lat="30.8376678" lon="35.6581464">
<ele>1196.54</ele>
<time>2015-11-22T12:30:53Z</time>
</trkpt>
<trkpt lat="30.8376274" lon="35.6581898">
<ele>1196.46</ele>
<time>2015-11-22T12:30:54Z</time>
</trkpt>
<trkpt lat="30.8375853" lon="35.6582252">
<ele>1196.43</ele>
<time>2015-11-22T12:30:55Z</time>
</trkpt>
<trkpt lat="30.8375394" lon="35.6582573">
<ele>1196.41</ele>
<time>2015-11-22T12:30:56Z</time>
</trkpt>
<trkpt lat="30.8375010" lon="35.6582933">
<ele>1196.40</ele>
<time>2015-11-22T12:30:57Z</time>
</trkpt>
<trkpt lat="30.8374518" lon="35.6583394">
<ele>1196.90</ele>
<time>2015-11-22T12:30:58Z</time>
</trkpt>
<trkpt lat="30.8374063" lon="35.6583812">
<ele>1197.15</ele>
<time>2015-11-22T12:30:59Z</time>
</trkpt>
<trkpt lat="30.8373655" lon="35.6584289">
<ele>1197.27</ele>
<time>2015-11-22T12:31:00Z</time>
</trkpt>
<trkpt lat="30.8373307" lon="35.6584752">
<ele>1197.33</ele>
<time>2015-11-22T12:31:01Z</time>
</trkpt>
<trkpt lat="30.8372973" lon="35.6585149">
<ele>1196.36</ele>
<time>2015-11-22T12:31:02Z</time>
</trkpt>
<trkpt lat="30.8372586" lon="35.6585564">
<ele>1196.38</ele>
<time>2015-11-22T12:31:03Z</time>
</trkpt>
<trkpt lat="30.8372249" lon="35.6586040">
<ele>1196.39</ele>
<time>2015-11-22T12:31:04Z</time>
</trkpt>
<trkpt lat="30.8371557" lon="35.6586761">
<ele>1196.39</ele>
<time>2015-11-22T12:31:06Z</time>
</trkpt>
<trkpt lat="30.8371224" lon="35.6587132">
<ele>1196.39</ele>
<time>2015-11-22T12:31:07Z</time>
</trkpt>
<trkpt lat="30.8370594" lon="35.6587740">
<ele>1195.89</ele>
<time>2015-11-22T12:31:09Z</time>
</trkpt>
<trkpt lat="30.8370302" lon="35.6588142">
<ele>1195.64</ele>
<time>2015-11-22T12:31:10Z</time>
</trkpt>
<trkpt lat="30.8369811" lon="35.6588833">
<ele>1195.46</ele>
<time>2015-11-22T12:31:12Z</time>
</trkpt>
<trkpt lat="30.8369451" lon="35.6589394">
<ele>1194.91</ele>
<time>2015-11-22T12:31:14Z</time>
</trkpt>
<trkpt lat="30.8368970" lon="35.6590125">
<ele>1195.27</ele>
<time>2015-11-22T12:31:16Z</time>
</trkpt>
<trkpt lat="30.8368672" lon="35.6590587">
<ele>1194.83</ele>
<time>2015-11-22T12:31:17Z</time>
</trkpt>
<trkpt lat="30.8368301" lon="35.6591024">
<ele>1195.11</ele>
<time>2015-11-22T12:31:18Z</time>
</trkpt>
<trkpt lat="30.8367618" lon="35.6591646">
<ele>1195.82</ele>
<time>2015-11-22T12:31:20Z</time>
</trkpt>
<trkpt lat="30.8367247" lon="35.6591995">
<ele>1195.61</ele>
<time>2015-11-22T12:31:21Z</time>
</trkpt>
<trkpt lat="30.8366717" lon="35.6592859">
<ele>1195.70</ele>
<time>2015-11-22T12:31:23Z</time>
</trkpt>
<trkpt lat="30.8366420" lon="35.6593273">
<ele>1195.55</ele>
<time>2015-11-22T12:31:24Z</time>
</trkpt>
<trkpt lat="30.8365839" lon="35.6594078">
<ele>1195.93</ele>
<time>2015-11-22T12:31:26Z</time>
</trkpt>
<trkpt lat="30.8365381" lon="35.6594884">
<ele>1197.53</ele>
<time>2015-11-22T12:31:28Z</time>
</trkpt>
<trkpt lat="30.8365052" lon="35.6595344">
<ele>1197.96</ele>
<time>2015-11-22T12:31:29Z</time>
</trkpt>
<trkpt lat="30.8364510" lon="35.6596164">
<ele>1198.29</ele>
<time>2015-11-22T12:31:31Z</time>
</trkpt>
<trkpt lat="30.8364258" lon="35.6596721">
<ele>1198.34</ele>
<time>2015-11-22T12:31:32Z</time>
</trkpt>
<trkpt lat="30.8363625" lon="35.6597526">
<ele>1198.88</ele>
<time>2015-11-22T12:31:34Z</time>
</trkpt>
<trkpt lat="30.8363177" lon="35.6598359">
<ele>1200.52</ele>
<time>2015-11-22T12:31:36Z</time>
</trkpt>
<trkpt lat="30.8362730" lon="35.6599193">
<ele>1200.42</ele>
<time>2015-11-22T12:31:38Z</time>
</trkpt>
<trkpt lat="30.8362189" lon="35.6599961">
<ele>1201.15</ele>
<time>2015-11-22T12:31:40Z</time>
</trkpt>
<trkpt lat="30.8361656" lon="35.6600682">
<ele>1202.08</ele>
<time>2015-11-22T12:31:42Z</time>
</trkpt>
<trkpt lat="30.8361370" lon="35.6601096">
<ele>1202.74</ele>
<time>2015-11-22T12:31:43Z</time>
</trkpt>
<trkpt lat="30.8361098" lon="35.6601558">
<ele>1203.07</ele>
<time>2015-11-22T12:31:44Z</time>
</trkpt>
<trkpt lat="30.8360675" lon="35.6602248">
<ele>1204.06</ele>
<time>2015-11-22T12:31:46Z</time>
</trkpt>
<trkpt lat="30.8360368" lon="35.6602666">
<ele>1204.23</ele>
<time>2015-11-22T12:31:47Z</time>
</trkpt>
<trkpt lat="30.8360037" lon="35.6603108">
<ele>1204.31</ele>
<time>2015-11-22T12:31:48Z</time>
</trkpt>
<trkpt lat="30.8359630" lon="35.6603794">
<ele>1204.12</ele>
<time>2015-11-22T12:31:50Z</time>
</trkpt>
<trkpt lat="30.8359368" lon="35.6604611">
<ele>1204.33</ele>
<time>2015-11-22T12:31:52Z</time>
</trkpt>
<trkpt lat="30.8358938" lon="35.6605312">
<ele>1205.13</ele>
<time>2015-11-22T12:31:54Z</time>
</trkpt>
<trkpt lat="30.8358384" lon="35.6605887">
<ele>1204.83</ele>
<time>2015-11-22T12:31:56Z</time>
</trkpt>
<trkpt lat="30.8357892" lon="35.6606476">
<ele>1205.00</ele>
<time>2015-11-22T12:31:58Z</time>
</trkpt>
<trkpt lat="30.8357373" lon="35.6607230">
<ele>1205.30</ele>
<time>2015-11-22T12:32:00Z</time>
</trkpt>
<trkpt lat="30.8357078" lon="35.6607631">
<ele>1205.35</ele>
<time>2015-11-22T12:32:01Z</time>
</trkpt>
<trkpt lat="30.8356684" lon="35.6608124">
<ele>1205.87</ele>
<time>2015-11-22T12:32:02Z</time>
</trkpt>
<trkpt lat="30.8356180" lon="35.6608817">
<ele>1205.51</ele>
<time>2015-11-22T12:32:04Z</time>
</trkpt>
<trkpt lat="30.8355764" lon="35.6609496">
<ele>1206.17</ele>
<time>2015-11-22T12:32:06Z</time>
</trkpt>
<trkpt lat="30.8355434" lon="35.6610038">
<ele>1206.34</ele>
<time>2015-11-22T12:32:08Z</time>
</trkpt>
<trkpt lat="30.8355054" lon="35.6610626">
<ele>1206.88</ele>
<time>2015-11-22T12:32:10Z</time>
</trkpt>
<trkpt lat="30.8354577" lon="35.6611261">
<ele>1207.27</ele>
<time>2015-11-22T12:32:12Z</time>
</trkpt>
<trkpt lat="30.8354131" lon="35.6611866">
<ele>1207.36</ele>
<time>2015-11-22T12:32:14Z</time>
</trkpt>
<trkpt lat="30.8353707" lon="35.6612472">
<ele>1207.39</ele>
<time>2015-11-22T12:32:16Z</time>
</trkpt>
<trkpt lat="30.8353288" lon="35.6613101">
<ele>1207.39</ele>
<time>2015-11-22T12:32:18Z</time>
</trkpt>
<trkpt lat="30.8352855" lon="35.6613750">
<ele>1207.89</ele>
<time>2015-11-22T12:32:20Z</time>
</trkpt>
<trkpt lat="30.8352445" lon="35.6614431">
<ele>1207.52</ele>
<time>2015-11-22T12:32:22Z</time>
</trkpt>
<trkpt lat="30.8351996" lon="35.6615136">
<ele>1207.43</ele>
<time>2015-11-22T12:32:24Z</time>
</trkpt>
<trkpt lat="30.8351550" lon="35.6615856">
<ele>1207.40</ele>
<time>2015-11-22T12:32:26Z</time>
</trkpt>
<trkpt lat="30.8351088" lon="35.6616555">
<ele>1208.15</ele>
<time>2015-11-22T12:32:28Z</time>
</trkpt>
<trkpt lat="30.8350612" lon="35.6617242">
<ele>1208.83</ele>
<time>2015-11-22T12:32:30Z</time>
</trkpt>
<trkpt lat="30.8350123" lon="35.6617896">
<ele>1209.25</ele>
<time>2015-11-22T12:32:32Z</time>
</trkpt>
<trkpt lat="30.8349688" lon="35.6618545">
<ele>1209.36</ele>
<time>2015-11-22T12:32:34Z</time>
</trkpt>
<trkpt lat="30.8349288" lon="35.6619196">
<ele>1209.39</ele>
<time>2015-11-22T12:32:36Z</time>
</trkpt>
<trkpt lat="30.8348879" lon="35.6619822">
<ele>1208.89</ele>
<time>2015-11-22T12:32:38Z</time>
</trkpt>
<trkpt lat="30.8348476" lon="35.6620458">
<ele>1208.52</ele>
<time>2015-11-22T12:32:40Z</time>
</trkpt>
<trkpt lat="30.8348041" lon="35.6621096">
<ele>1208.43</ele>
<time>2015-11-22T12:32:42Z</time>
</trkpt>
<trkpt lat="30.8347637" lon="35.6621677">
<ele>1208.40</ele>
<time>2015-11-22T12:32:44Z</time>
</trkpt>
<trkpt lat="30.8347274" lon="35.6622265">
<ele>1208.40</ele>
<time>2015-11-22T12:32:46Z</time>
</trkpt>
<trkpt lat="30.8346898" lon="35.6622838">
<ele>1208.39</ele>
<time>2015-11-22T12:32:48Z</time>
</trkpt>
<trkpt lat="30.8346514" lon="35.6623426">
<ele>1208.39</ele>
<time>2015-11-22T12:32:50Z</time>
</trkpt>
<trkpt lat="30.8346126" lon="35.6624058">
<ele>1207.89</ele>
<time>2015-11-22T12:32:52Z</time>
</trkpt>
<trkpt lat="30.8345758" lon="35.6624695">
<ele>1208.27</ele>
<time>2015-11-22T12:32:54Z</time>
</trkpt>
<trkpt lat="30.8345335" lon="35.6625329">
<ele>1209.61</ele>
<time>2015-11-22T12:32:56Z</time>
</trkpt>
<trkpt lat="30.8344833" lon="35.6625972">
<ele>1210.70</ele>
<time>2015-11-22T12:32:58Z</time>
</trkpt>
<trkpt lat="30.8344376" lon="35.6626600">
<ele>1212.47</ele>
<time>2015-11-22T12:33:00Z</time>
</trkpt>
<trkpt lat="30.8343895" lon="35.6627198">
<ele>1213.66</ele>
<time>2015-11-22T12:33:02Z</time>
</trkpt>
<trkpt lat="30.8343453" lon="35.6627818">
<ele>1213.96</ele>
<time>2015-11-22T12:33:04Z</time>
</trkpt>
<trkpt lat="30.8343077" lon="35.6628488">
<ele>1214.29</ele>
<time>2015-11-22T12:33:06Z</time>
</trkpt>
<trkpt lat="30.8342643" lon="35.6629115">
<ele>1215.12</ele>
<time>2015-11-22T12:33:08Z</time>
</trkpt>
<trkpt lat="30.8342200" lon="35.6629723">
<ele>1215.07</ele>
<time>2015-11-22T12:33:10Z</time>
</trkpt>
<trkpt lat="30.8341823" lon="35.6630378">
<ele>1215.31</ele>
<time>2015-11-22T12:33:12Z</time>
</trkpt>
<trkpt lat="30.8341495" lon="35.6631028">
<ele>1216.12</ele>
<time>2015-11-22T12:33:14Z</time>
</trkpt>
<trkpt lat="30.8341072" lon="35.6631608">
<ele>1216.33</ele>
<time>2015-11-22T12:33:16Z</time>
</trkpt>
<trkpt lat="30.8340646" lon="35.6632190">
<ele>1216.38</ele>
<time>2015-11-22T12:33:18Z</time>
</trkpt>
<trkpt lat="30.8340244" lon="35.6632833">
<ele>1216.39</ele>
<time>2015-11-22T12:33:20Z</time>
</trkpt>
<trkpt lat="30.8339805" lon="35.6633472">
<ele>1216.39</ele>
<time>2015-11-22T12:33:22Z</time>
</trkpt>
<trkpt lat="30.8339344" lon="35.6634120">
<ele>1215.64</ele>
<time>2015-11-22T12:33:24Z</time>
</trkpt>
<trkpt lat="30.8338882" lon="35.6634813">
<ele>1215.46</ele>
<time>2015-11-22T12:33:26Z</time>
</trkpt>
<trkpt lat="30.8338428" lon="35.6635463">
<ele>1215.41</ele>
<time>2015-11-22T12:33:28Z</time>
</trkpt>
<trkpt lat="30.8338013" lon="35.6636070">
<ele>1215.90</ele>
<time>2015-11-22T12:33:30Z</time>
</trkpt>
<trkpt lat="30.8337629" lon="35.6636651">
<ele>1216.27</ele>
<time>2015-11-22T12:33:32Z</time>
</trkpt>
<trkpt lat="30.8337229" lon="35.6637232">
<ele>1216.36</ele>
<time>2015-11-22T12:33:34Z</time>
</trkpt>
<trkpt lat="30.8336829" lon="35.6637840">
<ele>1216.39</ele>
<time>2015-11-22T12:33:36Z</time>
</trkpt>
<trkpt lat="30.8336381" lon="35.6638469">
<ele>1216.89</ele>
<time>2015-11-22T12:33:38Z</time>
</trkpt>
<trkpt lat="30.8335912" lon="35.6639148">
<ele>1217.27</ele>
<time>2015-11-22T12:33:40Z</time>
</trkpt>
<trkpt lat="30.8335465" lon="35.6639806">
<ele>1217.36</ele>
<time>2015-11-22T12:33:42Z</time>
</trkpt>
<trkpt lat="30.8335062" lon="35.6640434">
<ele>1217.89</ele>
<time>2015-11-22T12:33:44Z</time>
</trkpt>
<trkpt lat="30.8334651" lon="35.6641003">
<ele>1218.27</ele>
<time>2015-11-22T12:33:46Z</time>
</trkpt>
<trkpt lat="30.8334230" lon="35.6641562">
<ele>1218.36</ele>
<time>2015-11-22T12:33:48Z</time>
</trkpt>
<trkpt lat="30.8333830" lon="35.6642065">
<ele>1218.39</ele>
<time>2015-11-22T12:33:50Z</time>
</trkpt>
<trkpt lat="30.8333430" lon="35.6642550">
<ele>1218.89</ele>
<time>2015-11-22T12:33:52Z</time>
</trkpt>
<trkpt lat="30.8333115" lon="35.6642930">
<ele>1219.27</ele>
<time>2015-11-22T12:33:54Z</time>
</trkpt>
<trkpt lat="30.8332699" lon="35.6643532">
<ele>1220.25</ele>
<time>2015-11-22T12:33:57Z</time>
</trkpt>
<trkpt lat="30.8332334" lon="35.6644142">
<ele>1220.38</ele>
<time>2015-11-22T12:34:00Z</time>
</trkpt>
<trkpt lat="30.8331962" lon="35.6644766">
<ele>1221.27</ele>
<time>2015-11-22T12:34:03Z</time>
</trkpt>
<trkpt lat="30.8331757" lon="35.6645259">
<ele>1222.11</ele>
<time>2015-11-22T12:34:05Z</time>
</trkpt>
<trkpt lat="30.8331421" lon="35.6645852">
<ele>1222.32</ele>
<time>2015-11-22T12:34:07Z</time>
</trkpt>
<trkpt lat="30.8331043" lon="35.6646484">
<ele>1222.88</ele>
<time>2015-11-22T12:34:09Z</time>
</trkpt>
<trkpt lat="30.8330660" lon="35.6647106">
<ele>1223.26</ele>
<time>2015-11-22T12:34:11Z</time>
</trkpt>
<trkpt lat="30.8330304" lon="35.6647726">
<ele>1223.36</ele>
<time>2015-11-22T12:34:13Z</time>
</trkpt>
<trkpt lat="30.8329936" lon="35.6648344">
<ele>1224.14</ele>
<time>2015-11-22T12:34:15Z</time>
</trkpt>
<trkpt lat="30.8329555" lon="35.6648937">
<ele>1224.33</ele>
<time>2015-11-22T12:34:17Z</time>
</trkpt>
<trkpt lat="30.8329185" lon="35.6649509">
<ele>1224.38</ele>
<time>2015-11-22T12:34:19Z</time>
</trkpt>
<trkpt lat="30.8328811" lon="35.6650082">
<ele>1225.14</ele>
<time>2015-11-22T12:34:21Z</time>
</trkpt>
<trkpt lat="30.8328480" lon="35.6650725">
<ele>1225.33</ele>
<time>2015-11-22T12:34:23Z</time>
</trkpt>
<trkpt lat="30.8328075" lon="35.6651455">
<ele>1225.38</ele>
<time>2015-11-22T12:34:25Z</time>
</trkpt>
<trkpt lat="30.8327676" lon="35.6652190">
<ele>1226.14</ele>
<time>2015-11-22T12:34:27Z</time>
</trkpt>
<trkpt lat="30.8327286" lon="35.6652997">
<ele>1226.33</ele>
<time>2015-11-22T12:34:29Z</time>
</trkpt>
<trkpt lat="30.8326877" lon="35.6653773">
<ele>1226.38</ele>
<time>2015-11-22T12:34:31Z</time>
</trkpt>
<trkpt lat="30.8326512" lon="35.6654515">
<ele>1226.39</ele>
<time>2015-11-22T12:34:33Z</time>
</trkpt>
<trkpt lat="30.8326199" lon="35.6655123">
<ele>1226.39</ele>
<time>2015-11-22T12:34:35Z</time>
</trkpt>
<trkpt lat="30.8325944" lon="35.6655700">
<ele>1226.39</ele>
<time>2015-11-22T12:34:37Z</time>
</trkpt>
<trkpt lat="30.8325740" lon="35.6656228">
<ele>1226.39</ele>
<time>2015-11-22T12:34:39Z</time>
</trkpt>
<trkpt lat="30.8325370" lon="35.6656854">
<ele>1226.39</ele>
<time>2015-11-22T12:34:42Z</time>
</trkpt>
<trkpt lat="30.8325275" lon="35.6657535">
<ele>1227.27</ele>
<time>2015-11-22T12:34:45Z</time>
</trkpt>
<trkpt lat="30.8325056" lon="35.6658137">
<ele>1227.38</ele>
<time>2015-11-22T12:34:48Z</time>
</trkpt>
<trkpt lat="30.8324723" lon="35.6658755">
<ele>1227.39</ele>
<time>2015-11-22T12:34:51Z</time>
</trkpt>
<trkpt lat="30.8324454" lon="35.6659404">
<ele>1227.39</ele>
<time>2015-11-22T12:34:54Z</time>
</trkpt>
<trkpt lat="30.8324090" lon="35.6659955">
<ele>1227.39</ele>
<time>2015-11-22T12:34:57Z</time>
</trkpt>
<trkpt lat="30.8323734" lon="35.6660549">
<ele>1227.39</ele>
<time>2015-11-22T12:35:00Z</time>
</trkpt>
<trkpt lat="30.8323493" lon="35.6661281">
<ele>1227.39</ele>
<time>2015-11-22T12:35:03Z</time>
</trkpt>
<trkpt lat="30.8323300" lon="35.6661787">
<ele>1226.64</ele>
<time>2015-11-22T12:35:05Z</time>
</trkpt>
<trkpt lat="30.8323059" lon="35.6662282">
<ele>1227.21</ele>
<time>2015-11-22T12:35:07Z</time>
</trkpt>
<trkpt lat="30.8322877" lon="35.6662824">
<ele>1226.60</ele>
<time>2015-11-22T12:35:09Z</time>
</trkpt>
<trkpt lat="30.8322722" lon="35.6663400">
<ele>1226.44</ele>
<time>2015-11-22T12:35:11Z</time>
</trkpt>
<trkpt lat="30.8322485" lon="35.6663983">
<ele>1226.41</ele>
<time>2015-11-22T12:35:13Z</time>
</trkpt>
<trkpt lat="30.8322240" lon="35.6664535">
<ele>1226.40</ele>
<time>2015-11-22T12:35:15Z</time>
</trkpt>
<trkpt lat="30.8322064" lon="35.6665152">
<ele>1226.39</ele>
<time>2015-11-22T12:35:17Z</time>
</trkpt>
<trkpt lat="30.8321852" lon="35.6665760">
<ele>1226.39</ele>
<time>2015-11-22T12:35:19Z</time>
</trkpt>
<trkpt lat="30.8321646" lon="35.6666626">
<ele>1226.39</ele>
<time>2015-11-22T12:35:21Z</time>
</trkpt>
<trkpt lat="30.8321479" lon="35.6667555">
<ele>1225.64</ele>
<time>2015-11-22T12:35:23Z</time>
</trkpt>
<trkpt lat="30.8321146" lon="35.6668444">
<ele>1225.46</ele>
<time>2015-11-22T12:35:25Z</time>
</trkpt>
<trkpt lat="30.8320865" lon="35.6669397">
<ele>1224.91</ele>
<time>2015-11-22T12:35:27Z</time>
</trkpt>
<trkpt lat="30.8320558" lon="35.6670530">
<ele>1224.52</ele>
<time>2015-11-22T12:35:29Z</time>
</trkpt>
<trkpt lat="30.8320418" lon="35.6671054">
<ele>1224.46</ele>
<time>2015-11-22T12:35:30Z</time>
</trkpt>
<trkpt lat="30.8320253" lon="35.6671587">
<ele>1223.93</ele>
<time>2015-11-22T12:35:31Z</time>
</trkpt>
<trkpt lat="30.8320118" lon="35.6672143">
<ele>1223.66</ele>
<time>2015-11-22T12:35:32Z</time>
</trkpt>
<trkpt lat="30.8319958" lon="35.6672726">
<ele>1223.53</ele>
<time>2015-11-22T12:35:33Z</time>
</trkpt>
<trkpt lat="30.8319839" lon="35.6673266">
<ele>1223.46</ele>
<time>2015-11-22T12:35:34Z</time>
</trkpt>
<trkpt lat="30.8319670" lon="35.6673772">
<ele>1222.93</ele>
<time>2015-11-22T12:35:35Z</time>
</trkpt>
<trkpt lat="30.8319322" lon="35.6674443">
<ele>1222.53</ele>
<time>2015-11-22T12:35:37Z</time>
</trkpt>
<trkpt lat="30.8319224" lon="35.6674969">
<ele>1218.55</ele>
<time>2015-11-22T12:38:57Z</time>
</trkpt>
<trkpt lat="30.8319058" lon="35.6675575">
<ele>1216.39</ele>
<time>2015-11-22T12:40:07Z</time>
</trkpt>
<trkpt lat="30.8318989" lon="35.6676236">
<ele>1216.39</ele>
<time>2015-11-22T12:40:09Z</time>
</trkpt>
<trkpt lat="30.8318804" lon="35.6677113">
<ele>1215.64</ele>
<time>2015-11-22T12:40:11Z</time>
</trkpt>
<trkpt lat="30.8318583" lon="35.6678107">
<ele>1214.21</ele>
<time>2015-11-22T12:40:13Z</time>
</trkpt>
<trkpt lat="30.8318474" lon="35.6678632">
<ele>1213.30</ele>
<time>2015-11-22T12:40:14Z</time>
</trkpt>
<trkpt lat="30.8318354" lon="35.6679577">
<ele>1212.35</ele>
<time>2015-11-22T12:40:15Z</time>
</trkpt>
<trkpt lat="30.8318188" lon="35.6680160">
<ele>1211.87</ele>
<time>2015-11-22T12:40:16Z</time>
</trkpt>
<trkpt lat="30.8318094" lon="35.6680750">
<ele>1212.13</ele>
<time>2015-11-22T12:40:17Z</time>
</trkpt>
<trkpt lat="30.8318026" lon="35.6681358">
<ele>1212.26</ele>
<time>2015-11-22T12:40:18Z</time>
</trkpt>
<trkpt lat="30.8317861" lon="35.6681987">
<ele>1212.33</ele>
<time>2015-11-22T12:40:19Z</time>
</trkpt>
<trkpt lat="30.8317725" lon="35.6682720">
<ele>1212.36</ele>
<time>2015-11-22T12:40:20Z</time>
</trkpt>
<trkpt lat="30.8317602" lon="35.6683508">
<ele>1212.38</ele>
<time>2015-11-22T12:40:21Z</time>
</trkpt>
<trkpt lat="30.8317411" lon="35.6684339">
<ele>1211.89</ele>
<time>2015-11-22T12:40:22Z</time>
</trkpt>
<trkpt lat="30.8317248" lon="35.6685269">
<ele>1211.64</ele>
<time>2015-11-22T12:40:23Z</time>
</trkpt>
<trkpt lat="30.8317066" lon="35.6686188">
<ele>1211.52</ele>
<time>2015-11-22T12:40:24Z</time>
</trkpt>
<trkpt lat="30.8316835" lon="35.6687101">
<ele>1211.46</ele>
<time>2015-11-22T12:40:25Z</time>
</trkpt>
<trkpt lat="30.8316534" lon="35.6687995">
<ele>1210.92</ele>
<time>2015-11-22T12:40:26Z</time>
</trkpt>
<trkpt lat="30.8316327" lon="35.6688953">
<ele>1210.66</ele>
<time>2015-11-22T12:40:27Z</time>
</trkpt>
<trkpt lat="30.8316010" lon="35.6689962">
<ele>1210.03</ele>
<time>2015-11-22T12:40:28Z</time>
</trkpt>
<trkpt lat="30.8315784" lon="35.6690983">
<ele>1209.71</ele>
<time>2015-11-22T12:40:29Z</time>
</trkpt>
<trkpt lat="30.8315553" lon="35.6692034">
<ele>1209.05</ele>
<time>2015-11-22T12:40:30Z</time>
</trkpt>
<trkpt lat="30.8315306" lon="35.6693156">
<ele>1208.72</ele>
<time>2015-11-22T12:40:31Z</time>
</trkpt>
<trkpt lat="30.8315159" lon="35.6694324">
<ele>1208.56</ele>
<time>2015-11-22T12:40:32Z</time>
</trkpt>
<trkpt lat="30.8314911" lon="35.6695495">
<ele>1208.48</ele>
<time>2015-11-22T12:40:33Z</time>
</trkpt>
<trkpt lat="30.8314760" lon="35.6696670">
<ele>1207.94</ele>
<time>2015-11-22T12:40:34Z</time>
</trkpt>
<trkpt lat="30.8314676" lon="35.6697748">
<ele>1206.66</ele>
<time>2015-11-22T12:40:35Z</time>
</trkpt>
<trkpt lat="30.8314411" lon="35.6699015">
<ele>1205.53</ele>
<time>2015-11-22T12:40:36Z</time>
</trkpt>
<trkpt lat="30.8314096" lon="35.6700325">
<ele>1204.46</ele>
<time>2015-11-22T12:40:37Z</time>
</trkpt>
<trkpt lat="30.8313896" lon="35.6701571">
<ele>1203.93</ele>
<time>2015-11-22T12:40:38Z</time>
</trkpt>
<trkpt lat="30.8313602" lon="35.6702795">
<ele>1203.66</ele>
<time>2015-11-22T12:40:39Z</time>
</trkpt>
<trkpt lat="30.8313335" lon="35.6704041">
<ele>1203.53</ele>
<time>2015-11-22T12:40:40Z</time>
</trkpt>
<trkpt lat="30.8313135" lon="35.6705325">
<ele>1202.46</ele>
<time>2015-11-22T12:40:41Z</time>
</trkpt>
<trkpt lat="30.8312854" lon="35.6706575">
<ele>1201.43</ele>
<time>2015-11-22T12:40:42Z</time>
</trkpt>
<trkpt lat="30.8312654" lon="35.6707824">
<ele>1200.91</ele>
<time>2015-11-22T12:40:43Z</time>
</trkpt>
<trkpt lat="30.8312361" lon="35.6709074">
<ele>1200.15</ele>
<time>2015-11-22T12:40:44Z</time>
</trkpt>
<trkpt lat="30.8312067" lon="35.6710359">
<ele>1199.77</ele>
<time>2015-11-22T12:40:45Z</time>
</trkpt>
<trkpt lat="30.8311762" lon="35.6711688">
<ele>1199.08</ele>
<time>2015-11-22T12:40:46Z</time>
</trkpt>
<trkpt lat="30.8311514" lon="35.6712990">
<ele>1198.74</ele>
<time>2015-11-22T12:40:47Z</time>
</trkpt>
<trkpt lat="30.8311239" lon="35.6714272">
<ele>1198.57</ele>
<time>2015-11-22T12:40:48Z</time>
</trkpt>
<trkpt lat="30.8311005" lon="35.6715621">
<ele>1197.98</ele>
<time>2015-11-22T12:40:49Z</time>
</trkpt>
<trkpt lat="30.8310682" lon="35.6716910">
<ele>1197.19</ele>
<time>2015-11-22T12:40:50Z</time>
</trkpt>
<trkpt lat="30.8310466" lon="35.6718240">
<ele>1196.79</ele>
<time>2015-11-22T12:40:51Z</time>
</trkpt>
<trkpt lat="30.8310167" lon="35.6719482">
<ele>1196.59</ele>
<time>2015-11-22T12:40:52Z</time>
</trkpt>
<trkpt lat="30.8309899" lon="35.6720809">
<ele>1195.99</ele>
<time>2015-11-22T12:40:53Z</time>
</trkpt>
<trkpt lat="30.8309630" lon="35.6722082">
<ele>1195.69</ele>
<time>2015-11-22T12:40:54Z</time>
</trkpt>
<trkpt lat="30.8309437" lon="35.6723332">
<ele>1195.04</ele>
<time>2015-11-22T12:40:55Z</time>
</trkpt>
<trkpt lat="30.8309179" lon="35.6724701">
<ele>1194.22</ele>
<time>2015-11-22T12:40:56Z</time>
</trkpt>
<trkpt lat="30.8308974" lon="35.6725876">
<ele>1193.81</ele>
<time>2015-11-22T12:40:57Z</time>
</trkpt>
<trkpt lat="30.8308753" lon="35.6727124">
<ele>1193.60</ele>
<time>2015-11-22T12:40:58Z</time>
</trkpt>
<trkpt lat="30.8308536" lon="35.6728344">
<ele>1193.50</ele>
<time>2015-11-22T12:40:59Z</time>
</trkpt>
<trkpt lat="30.8308260" lon="35.6729554">
<ele>1193.45</ele>
<time>2015-11-22T12:41:00Z</time>
</trkpt>
<trkpt lat="30.8308044" lon="35.6730653">
<ele>1192.42</ele>
<time>2015-11-22T12:41:01Z</time>
</trkpt>
<trkpt lat="30.8307812" lon="35.6731836">
<ele>1191.41</ele>
<time>2015-11-22T12:41:02Z</time>
</trkpt>
<trkpt lat="30.8307583" lon="35.6732974">
<ele>1190.40</ele>
<time>2015-11-22T12:41:03Z</time>
</trkpt>
<trkpt lat="30.8307342" lon="35.6734104">
<ele>1188.40</ele>
<time>2015-11-22T12:41:04Z</time>
</trkpt>
<trkpt lat="30.8307069" lon="35.6735356">
<ele>1187.40</ele>
<time>2015-11-22T12:41:05Z</time>
</trkpt>
<trkpt lat="30.8306796" lon="35.6736499">
<ele>1186.89</ele>
<time>2015-11-22T12:41:06Z</time>
</trkpt>
<trkpt lat="30.8306586" lon="35.6737667">
<ele>1186.64</ele>
<time>2015-11-22T12:41:07Z</time>
</trkpt>
<trkpt lat="30.8306316" lon="35.6738797">
<ele>1186.52</ele>
<time>2015-11-22T12:41:08Z</time>
</trkpt>
<trkpt lat="30.8306134" lon="35.6739969">
<ele>1186.46</ele>
<time>2015-11-22T12:41:09Z</time>
</trkpt>
<trkpt lat="30.8305823" lon="35.6741154">
<ele>1186.43</ele>
<time>2015-11-22T12:41:10Z</time>
</trkpt>
<trkpt lat="30.8305580" lon="35.6742319">
<ele>1185.91</ele>
<time>2015-11-22T12:41:11Z</time>
</trkpt>
<trkpt lat="30.8305327" lon="35.6743470">
<ele>1185.65</ele>
<time>2015-11-22T12:41:12Z</time>
</trkpt>
<trkpt lat="30.8305108" lon="35.6744608">
<ele>1186.02</ele>
<time>2015-11-22T12:41:13Z</time>
</trkpt>
<trkpt lat="30.8304844" lon="35.6745808">
<ele>1185.71</ele>
<time>2015-11-22T12:41:14Z</time>
</trkpt>
<trkpt lat="30.8304675" lon="35.6746968">
<ele>1186.05</ele>
<time>2015-11-22T12:41:15Z</time>
</trkpt>
<trkpt lat="30.8304331" lon="35.6748103">
<ele>1185.72</ele>
<time>2015-11-22T12:41:16Z</time>
</trkpt>
<trkpt lat="30.8304114" lon="35.6749255">
<ele>1185.06</ele>
<time>2015-11-22T12:41:17Z</time>
</trkpt>
<trkpt lat="30.8303931" lon="35.6750473">
<ele>1184.23</ele>
<time>2015-11-22T12:41:18Z</time>
</trkpt>
<trkpt lat="30.8303644" lon="35.6751494">
<ele>1183.31</ele>
<time>2015-11-22T12:41:19Z</time>
</trkpt>
<trkpt lat="30.8303503" lon="35.6752659">
<ele>1182.85</ele>
<time>2015-11-22T12:41:20Z</time>
</trkpt>
<trkpt lat="30.8303184" lon="35.6753707">
<ele>1182.12</ele>
<time>2015-11-22T12:41:21Z</time>
</trkpt>
<trkpt lat="30.8302993" lon="35.6754754">
<ele>1181.26</ele>
<time>2015-11-22T12:41:22Z</time>
</trkpt>
<trkpt lat="30.8302785" lon="35.6755859">
<ele>1180.83</ele>
<time>2015-11-22T12:41:23Z</time>
</trkpt>
<trkpt lat="30.8302649" lon="35.6756927">
<ele>1181.61</ele>
<time>2015-11-22T12:41:24Z</time>
</trkpt>
<trkpt lat="30.8302430" lon="35.6758030">
<ele>1181.00</ele>
<time>2015-11-22T12:41:25Z</time>
</trkpt>
<trkpt lat="30.8302203" lon="35.6759116">
<ele>1180.20</ele>
<time>2015-11-22T12:41:26Z</time>
</trkpt>
<trkpt lat="30.8301980" lon="35.6760188">
<ele>1179.30</ele>
<time>2015-11-22T12:41:27Z</time>
</trkpt>
<trkpt lat="30.8301732" lon="35.6761270">
<ele>1178.84</ele>
<time>2015-11-22T12:41:28Z</time>
</trkpt>
<trkpt lat="30.8301536" lon="35.6762440">
<ele>1179.62</ele>
<time>2015-11-22T12:41:29Z</time>
</trkpt>
<trkpt lat="30.8301341" lon="35.6763466">
<ele>1179.01</ele>
<time>2015-11-22T12:41:30Z</time>
</trkpt>
<trkpt lat="30.8301075" lon="35.6764460">
<ele>1178.20</ele>
<time>2015-11-22T12:41:31Z</time>
</trkpt>
<trkpt lat="30.8300879" lon="35.6765443">
<ele>1177.80</ele>
<time>2015-11-22T12:41:32Z</time>
</trkpt>
<trkpt lat="30.8300675" lon="35.6766529">
<ele>1177.60</ele>
<time>2015-11-22T12:41:33Z</time>
</trkpt>
<trkpt lat="30.8300573" lon="35.6767612">
<ele>1176.49</ele>
<time>2015-11-22T12:41:34Z</time>
</trkpt>
<trkpt lat="30.8300327" lon="35.6768647">
<ele>1175.94</ele>
<time>2015-11-22T12:41:35Z</time>
</trkpt>
<trkpt lat="30.8300118" lon="35.6769664">
<ele>1175.67</ele>
<time>2015-11-22T12:41:36Z</time>
</trkpt>
<trkpt lat="30.8299957" lon="35.6770677">
<ele>1175.03</ele>
<time>2015-11-22T12:41:37Z</time>
</trkpt>
<trkpt lat="30.8299703" lon="35.6771769">
<ele>1174.71</ele>
<time>2015-11-22T12:41:38Z</time>
</trkpt>
<trkpt lat="30.8299590" lon="35.6772774">
<ele>1174.55</ele>
<time>2015-11-22T12:41:39Z</time>
</trkpt>
<trkpt lat="30.8299323" lon="35.6773761">
<ele>1173.97</ele>
<time>2015-11-22T12:41:40Z</time>
</trkpt>
<trkpt lat="30.8299076" lon="35.6774830">
<ele>1173.18</ele>
<time>2015-11-22T12:41:41Z</time>
</trkpt>
<trkpt lat="30.8298869" lon="35.6775864">
<ele>1172.29</ele>
<time>2015-11-22T12:41:42Z</time>
</trkpt>
<trkpt lat="30.8298663" lon="35.6776947">
<ele>1172.34</ele>
<time>2015-11-22T12:41:43Z</time>
</trkpt>
<trkpt lat="30.8298427" lon="35.6777957">
<ele>1183.87</ele>
<time>2015-11-22T12:41:44Z</time>
</trkpt>
<trkpt lat="30.8298218" lon="35.6778997">
<ele>1184.63</ele>
<time>2015-11-22T12:41:45Z</time>
</trkpt>
<trkpt lat="30.8298026" lon="35.6780021">
<ele>1182.51</ele>
<time>2015-11-22T12:41:46Z</time>
</trkpt>
<trkpt lat="30.8297821" lon="35.6781068">
<ele>1179.95</ele>
<time>2015-11-22T12:41:47Z</time>
</trkpt>
<trkpt lat="30.8297620" lon="35.6782068">
<ele>1178.67</ele>
<time>2015-11-22T12:41:48Z</time>
</trkpt>
<trkpt lat="30.8297361" lon="35.6783002">
<ele>1176.53</ele>
<time>2015-11-22T12:41:49Z</time>
</trkpt>
<trkpt lat="30.8297170" lon="35.6783954">
<ele>1175.46</ele>
<time>2015-11-22T12:41:50Z</time>
</trkpt>
<trkpt lat="30.8296959" lon="35.6785055">
<ele>1173.93</ele>
<time>2015-11-22T12:41:51Z</time>
</trkpt>
<trkpt lat="30.8296788" lon="35.6786064">
<ele>1173.16</ele>
<time>2015-11-22T12:41:52Z</time>
</trkpt>
<trkpt lat="30.8296604" lon="35.6787169">
<ele>1172.78</ele>
<time>2015-11-22T12:41:53Z</time>
</trkpt>
<trkpt lat="30.8296386" lon="35.6788162">
<ele>1172.59</ele>
<time>2015-11-22T12:41:54Z</time>
</trkpt>
<trkpt lat="30.8296185" lon="35.6789087">
<ele>1171.99</ele>
<time>2015-11-22T12:41:55Z</time>
</trkpt>
<trkpt lat="30.8295952" lon="35.6790112">
<ele>1171.69</ele>
<time>2015-11-22T12:41:56Z</time>
</trkpt>
<trkpt lat="30.8295687" lon="35.6791120">
<ele>1171.54</ele>
<time>2015-11-22T12:41:57Z</time>
</trkpt>
<trkpt lat="30.8295563" lon="35.6792052">
<ele>1170.97</ele>
<time>2015-11-22T12:41:58Z</time>
</trkpt>
<trkpt lat="30.8295294" lon="35.6793006">
<ele>1170.68</ele>
<time>2015-11-22T12:41:59Z</time>
</trkpt>
<trkpt lat="30.8295090" lon="35.6794032">
<ele>1170.54</ele>
<time>2015-11-22T12:42:00Z</time>
</trkpt>
<trkpt lat="30.8294785" lon="35.6795061">
<ele>1170.47</ele>
<time>2015-11-22T12:42:01Z</time>
</trkpt>
<trkpt lat="30.8294614" lon="35.6796015">
<ele>1170.93</ele>
<time>2015-11-22T12:42:02Z</time>
</trkpt>
<trkpt lat="30.8294453" lon="35.6796991">
<ele>1171.66</ele>
<time>2015-11-22T12:42:03Z</time>
</trkpt>
<trkpt lat="30.8294332" lon="35.6797900">
<ele>1172.03</ele>
<time>2015-11-22T12:42:04Z</time>
</trkpt>
<trkpt lat="30.8294212" lon="35.6798823">
<ele>1172.21</ele>
<time>2015-11-22T12:42:05Z</time>
</trkpt>
<trkpt lat="30.8294044" lon="35.6799855">
<ele>1172.30</ele>
<time>2015-11-22T12:42:06Z</time>
</trkpt>
<trkpt lat="30.8293853" lon="35.6800876">
<ele>1172.35</ele>
<time>2015-11-22T12:42:07Z</time>
</trkpt>
<trkpt lat="30.8293646" lon="35.6801890">
<ele>1172.37</ele>
<time>2015-11-22T12:42:08Z</time>
</trkpt>
<trkpt lat="30.8293431" lon="35.6802926">
<ele>1172.88</ele>
<time>2015-11-22T12:42:09Z</time>
</trkpt>
<trkpt lat="30.8293152" lon="35.6803784">
<ele>1173.14</ele>
<time>2015-11-22T12:42:10Z</time>
</trkpt>
<trkpt lat="30.8292916" lon="35.6804824">
<ele>1173.27</ele>
<time>2015-11-22T12:42:11Z</time>
</trkpt>
<trkpt lat="30.8292701" lon="35.6805895">
<ele>1172.83</ele>
<time>2015-11-22T12:42:12Z</time>
</trkpt>
<trkpt lat="30.8292470" lon="35.6806871">
<ele>1172.11</ele>
<time>2015-11-22T12:42:13Z</time>
</trkpt>
<trkpt lat="30.8292358" lon="35.6807671">
<ele>1171.75</ele>
<time>2015-11-22T12:42:14Z</time>
</trkpt>
<trkpt lat="30.8292119" lon="35.6808582">
<ele>1171.57</ele>
<time>2015-11-22T12:42:15Z</time>
</trkpt>
<trkpt lat="30.8291906" lon="35.6809457">
<ele>1170.98</ele>
<time>2015-11-22T12:42:16Z</time>
</trkpt>
<trkpt lat="30.8291757" lon="35.6810296">
<ele>1170.69</ele>
<time>2015-11-22T12:42:17Z</time>
</trkpt>
<trkpt lat="30.8291587" lon="35.6811128">
<ele>1170.54</ele>
<time>2015-11-22T12:42:18Z</time>
</trkpt>
<trkpt lat="30.8291438" lon="35.6811941">
<ele>1170.47</ele>
<time>2015-11-22T12:42:19Z</time>
</trkpt>
<trkpt lat="30.8291257" lon="35.6812626">
<ele>1170.43</ele>
<time>2015-11-22T12:42:20Z</time>
</trkpt>
<trkpt lat="30.8291070" lon="35.6813422">
<ele>1170.91</ele>
<time>2015-11-22T12:42:21Z</time>
</trkpt>
<trkpt lat="30.8290922" lon="35.6814182">
<ele>1171.15</ele>
<time>2015-11-22T12:42:22Z</time>
</trkpt>
<trkpt lat="30.8290788" lon="35.6814864">
<ele>1171.27</ele>
<time>2015-11-22T12:42:23Z</time>
</trkpt>
<trkpt lat="30.8290706" lon="35.6815512">
<ele>1171.33</ele>
<time>2015-11-22T12:42:24Z</time>
</trkpt>
<trkpt lat="30.8290645" lon="35.6816187">
<ele>1171.36</ele>
<time>2015-11-22T12:42:25Z</time>
</trkpt>
<trkpt lat="30.8290532" lon="35.6816826">
<ele>1171.38</ele>
<time>2015-11-22T12:42:26Z</time>
</trkpt>
<trkpt lat="30.8290313" lon="35.6817476">
<ele>1171.89</ele>
<time>2015-11-22T12:42:27Z</time>
</trkpt>
<trkpt lat="30.8290119" lon="35.6818602">
<ele>1172.27</ele>
<time>2015-11-22T12:42:29Z</time>
</trkpt>
<trkpt lat="30.8289932" lon="35.6819139">
<ele>1172.33</ele>
<time>2015-11-22T12:42:30Z</time>
</trkpt>
<trkpt lat="30.8289667" lon="35.6820059">
<ele>1172.38</ele>
<time>2015-11-22T12:42:32Z</time>
</trkpt>
<trkpt lat="30.8289512" lon="35.6820925">
<ele>1172.14</ele>
<time>2015-11-22T12:42:34Z</time>
</trkpt>
<trkpt lat="30.8289262" lon="35.6821769">
<ele>1172.33</ele>
<time>2015-11-22T12:42:36Z</time>
</trkpt>
<trkpt lat="30.8289119" lon="35.6822671">
<ele>1172.38</ele>
<time>2015-11-22T12:42:38Z</time>
</trkpt>
<trkpt lat="30.8288984" lon="35.6823216">
<ele>1172.39</ele>
<time>2015-11-22T12:42:40Z</time>
</trkpt>
<trkpt lat="30.8288877" lon="35.6823774">
<ele>1172.89</ele>
<time>2015-11-22T12:42:42Z</time>
</trkpt>
<trkpt lat="30.8288820" lon="35.6824324">
<ele>1173.27</ele>
<time>2015-11-22T12:42:44Z</time>
</trkpt>
<trkpt lat="30.8288705" lon="35.6824882">
<ele>1173.36</ele>
<time>2015-11-22T12:42:46Z</time>
</trkpt>
<trkpt lat="30.8288588" lon="35.6825445">
<ele>1174.14</ele>
<time>2015-11-22T12:42:48Z</time>
</trkpt>
<trkpt lat="30.8288492" lon="35.6826029">
<ele>1174.33</ele>
<time>2015-11-22T12:42:50Z</time>
</trkpt>
<trkpt lat="30.8288397" lon="35.6826601">
<ele>1175.13</ele>
<time>2015-11-22T12:42:52Z</time>
</trkpt>
<trkpt lat="30.8288256" lon="35.6827176">
<ele>1175.33</ele>
<time>2015-11-22T12:42:54Z</time>
</trkpt>
<trkpt lat="30.8288124" lon="35.6827776">
<ele>1175.13</ele>
<time>2015-11-22T12:42:56Z</time>
</trkpt>
<trkpt lat="30.8287985" lon="35.6828394">
<ele>1173.83</ele>
<time>2015-11-22T12:42:58Z</time>
</trkpt>
<trkpt lat="30.8287898" lon="35.6829031">
<ele>1173.00</ele>
<time>2015-11-22T12:43:00Z</time>
</trkpt>
<trkpt lat="30.8287720" lon="35.6829692">
<ele>1173.05</ele>
<time>2015-11-22T12:43:02Z</time>
</trkpt>
<trkpt lat="30.8287569" lon="35.6830317">
<ele>1173.31</ele>
<time>2015-11-22T12:43:04Z</time>
</trkpt>
<trkpt lat="30.8287373" lon="35.6830966">
<ele>1173.62</ele>
<time>2015-11-22T12:43:06Z</time>
</trkpt>
<trkpt lat="30.8287280" lon="35.6831580">
<ele>1174.70</ele>
<time>2015-11-22T12:43:08Z</time>
</trkpt>
<trkpt lat="30.8287190" lon="35.6832194">
<ele>1175.72</ele>
<time>2015-11-22T12:43:10Z</time>
</trkpt>
<trkpt lat="30.8287092" lon="35.6833139">
<ele>1176.98</ele>
<time>2015-11-22T12:43:13Z</time>
</trkpt>
<trkpt lat="30.8286975" lon="35.6833800">
<ele>1177.29</ele>
<time>2015-11-22T12:43:15Z</time>
</trkpt>
<trkpt lat="30.8286889" lon="35.6834391">
<ele>1178.12</ele>
<time>2015-11-22T12:43:17Z</time>
</trkpt>
<trkpt lat="30.8286793" lon="35.6835128">
<ele>1179.73</ele>
<time>2015-11-22T12:43:20Z</time>
</trkpt>
<trkpt lat="30.8286691" lon="35.6835700">
<ele>1180.23</ele>
<time>2015-11-22T12:43:22Z</time>
</trkpt>
<trkpt lat="30.8286572" lon="35.6836289">
<ele>1180.35</ele>
<time>2015-11-22T12:43:24Z</time>
</trkpt>
<trkpt lat="30.8286485" lon="35.6836915">
<ele>1179.63</ele>
<time>2015-11-22T12:43:26Z</time>
</trkpt>
<trkpt lat="30.8286372" lon="35.6837553">
<ele>1180.20</ele>
<time>2015-11-22T12:43:28Z</time>
</trkpt>
<trkpt lat="30.8286268" lon="35.6838150">
<ele>1181.10</ele>
<time>2015-11-22T12:43:30Z</time>
</trkpt>
<trkpt lat="30.8286163" lon="35.6838665">
<ele>1181.32</ele>
<time>2015-11-22T12:43:32Z</time>
</trkpt>
<trkpt lat="30.8285987" lon="35.6839438">
<ele>1181.38</ele>
<time>2015-11-22T12:43:35Z</time>
</trkpt>
<trkpt lat="30.8285879" lon="35.6840007">
<ele>1181.39</ele>
<time>2015-11-22T12:43:37Z</time>
</trkpt>
<trkpt lat="30.8285770" lon="35.6840624">
<ele>1181.39</ele>
<time>2015-11-22T12:43:39Z</time>
</trkpt>
<trkpt lat="30.8285648" lon="35.6841270">
<ele>1181.39</ele>
<time>2015-11-22T12:43:41Z</time>
</trkpt>
<trkpt lat="30.8285526" lon="35.6841989">
<ele>1181.39</ele>
<time>2015-11-22T12:43:43Z</time>
</trkpt>
<trkpt lat="30.8285390" lon="35.6842732">
<ele>1181.39</ele>
<time>2015-11-22T12:43:45Z</time>
</trkpt>
<trkpt lat="30.8285235" lon="35.6843472">
<ele>1181.39</ele>
<time>2015-11-22T12:43:47Z</time>
</trkpt>
<trkpt lat="30.8285076" lon="35.6844203">
<ele>1180.64</ele>
<time>2015-11-22T12:43:49Z</time>
</trkpt>
<trkpt lat="30.8284913" lon="35.6844923">
<ele>1180.46</ele>
<time>2015-11-22T12:43:51Z</time>
</trkpt>
<trkpt lat="30.8284759" lon="35.6845658">
<ele>1181.16</ele>
<time>2015-11-22T12:43:53Z</time>
</trkpt>
<trkpt lat="30.8284620" lon="35.6846368">
<ele>1181.34</ele>
<time>2015-11-22T12:43:55Z</time>
</trkpt>
<trkpt lat="30.8284518" lon="35.6846947">
<ele>1181.38</ele>
<time>2015-11-22T12:43:57Z</time>
</trkpt>
<trkpt lat="30.8284427" lon="35.6847493">
<ele>1181.39</ele>
<time>2015-11-22T12:43:59Z</time>
</trkpt>
<trkpt lat="30.8284287" lon="35.6848122">
<ele>1181.89</ele>
<time>2015-11-22T12:44:01Z</time>
</trkpt>
<trkpt lat="30.8284126" lon="35.6848820">
<ele>1182.27</ele>
<time>2015-11-22T12:44:03Z</time>
</trkpt>
<trkpt lat="30.8283998" lon="35.6849522">
<ele>1181.86</ele>
<time>2015-11-22T12:44:05Z</time>
</trkpt>
<trkpt lat="30.8283860" lon="35.6850199">
<ele>1181.51</ele>
<time>2015-11-22T12:44:07Z</time>
</trkpt>
<trkpt lat="30.8283685" lon="35.6850894">
<ele>1180.67</ele>
<time>2015-11-22T12:44:09Z</time>
</trkpt>
<trkpt lat="30.8283464" lon="35.6851644">
<ele>1180.21</ele>
<time>2015-11-22T12:44:11Z</time>
</trkpt>
<trkpt lat="30.8283227" lon="35.6852476">
<ele>1180.35</ele>
<time>2015-11-22T12:44:13Z</time>
</trkpt>
<trkpt lat="30.8283055" lon="35.6853186">
<ele>1179.88</ele>
<time>2015-11-22T12:44:15Z</time>
</trkpt>
<trkpt lat="30.8282874" lon="35.6853861">
<ele>1179.77</ele>
<time>2015-11-22T12:44:17Z</time>
</trkpt>
<trkpt lat="30.8282618" lon="35.6854552">
<ele>1179.49</ele>
<time>2015-11-22T12:44:19Z</time>
</trkpt>
<trkpt lat="30.8282443" lon="35.6855249">
<ele>1180.17</ele>
<time>2015-11-22T12:44:21Z</time>
</trkpt>
<trkpt lat="30.8282358" lon="35.6855932">
<ele>1181.34</ele>
<time>2015-11-22T12:44:23Z</time>
</trkpt>
<trkpt lat="30.8282308" lon="35.6856536">
<ele>1182.13</ele>
<time>2015-11-22T12:44:25Z</time>
</trkpt>
<trkpt lat="30.8282213" lon="35.6857130">
<ele>1181.08</ele>
<time>2015-11-22T12:44:27Z</time>
</trkpt>
<trkpt lat="30.8282110" lon="35.6857747">
<ele>1181.31</ele>
<time>2015-11-22T12:44:29Z</time>
</trkpt>
<trkpt lat="30.8281945" lon="35.6858293">
<ele>1182.12</ele>
<time>2015-11-22T12:44:31Z</time>
</trkpt>
<trkpt lat="30.8281804" lon="35.6858828">
<ele>1182.08</ele>
<time>2015-11-22T12:44:33Z</time>
</trkpt>
<trkpt lat="30.8281519" lon="35.6859304">
<ele>1179.46</ele>
<time>2015-11-22T12:45:26Z</time>
</trkpt>
<trkpt lat="30.8281942" lon="35.6859533">
<ele>1180.36</ele>
<time>2015-11-22T12:45:31Z</time>
</trkpt>
<trkpt lat="30.8282431" lon="35.6859027">
<ele>1180.39</ele>
<time>2015-11-22T12:45:34Z</time>
</trkpt>
<trkpt lat="30.8282612" lon="35.6858234">
<ele>1180.39</ele>
<time>2015-11-22T12:45:36Z</time>
</trkpt>
<trkpt lat="30.8282778" lon="35.6857390">
<ele>1181.14</ele>
<time>2015-11-22T12:45:38Z</time>
</trkpt>
<trkpt lat="30.8282876" lon="35.6856554">
<ele>1181.33</ele>
<time>2015-11-22T12:45:40Z</time>
</trkpt>
<trkpt lat="30.8283050" lon="35.6855719">
<ele>1181.38</ele>
<time>2015-11-22T12:45:42Z</time>
</trkpt>
<trkpt lat="30.8283208" lon="35.6854863">
<ele>1181.39</ele>
<time>2015-11-22T12:45:44Z</time>
</trkpt>
<trkpt lat="30.8283369" lon="35.6853994">
<ele>1181.39</ele>
<time>2015-11-22T12:45:46Z</time>
</trkpt>
<trkpt lat="30.8283530" lon="35.6853131">
<ele>1181.39</ele>
<time>2015-11-22T12:45:48Z</time>
</trkpt>
<trkpt lat="30.8283730" lon="35.6852239">
<ele>1180.89</ele>
<time>2015-11-22T12:45:50Z</time>
</trkpt>
<trkpt lat="30.8283922" lon="35.6851330">
<ele>1180.52</ele>
<time>2015-11-22T12:45:52Z</time>
</trkpt>
<trkpt lat="30.8284178" lon="35.6850392">
<ele>1180.43</ele>
<time>2015-11-22T12:45:54Z</time>
</trkpt>
<trkpt lat="30.8284465" lon="35.6849414">
<ele>1180.40</ele>
<time>2015-11-22T12:45:56Z</time>
</trkpt>
<trkpt lat="30.8284587" lon="35.6848876">
<ele>1180.40</ele>
<time>2015-11-22T12:45:57Z</time>
</trkpt>
<trkpt lat="30.8284874" lon="35.6848002">
<ele>1180.40</ele>
<time>2015-11-22T12:45:58Z</time>
</trkpt>
<trkpt lat="30.8285091" lon="35.6846996">
<ele>1180.39</ele>
<time>2015-11-22T12:46:00Z</time>
</trkpt>
<trkpt lat="30.8285143" lon="35.6846425">
<ele>1180.39</ele>
<time>2015-11-22T12:46:01Z</time>
</trkpt>
<trkpt lat="30.8285371" lon="35.6845746">
<ele>1180.39</ele>
<time>2015-11-22T12:46:02Z</time>
</trkpt>
<trkpt lat="30.8285499" lon="35.6844634">
<ele>1180.14</ele>
<time>2015-11-22T12:46:04Z</time>
</trkpt>
<trkpt lat="30.8285626" lon="35.6844095">
<ele>1180.27</ele>
<time>2015-11-22T12:46:05Z</time>
</trkpt>
<trkpt lat="30.8285841" lon="35.6843362">
<ele>1180.36</ele>
<time>2015-11-22T12:46:07Z</time>
</trkpt>
<trkpt lat="30.8286091" lon="35.6842650">
<ele>1180.39</ele>
<time>2015-11-22T12:46:09Z</time>
</trkpt>
<trkpt lat="30.8286070" lon="35.6841982">
<ele>1180.39</ele>
<time>2015-11-22T12:46:11Z</time>
</trkpt>
<trkpt lat="30.8286120" lon="35.6841288">
<ele>1180.39</ele>
<time>2015-11-22T12:46:13Z</time>
</trkpt>
<trkpt lat="30.8286199" lon="35.6840575">
<ele>1180.39</ele>
<time>2015-11-22T12:46:15Z</time>
</trkpt>
<trkpt lat="30.8286237" lon="35.6839777">
<ele>1180.39</ele>
<time>2015-11-22T12:46:17Z</time>
</trkpt>
<trkpt lat="30.8286258" lon="35.6838904">
<ele>1180.39</ele>
<time>2015-11-22T12:46:19Z</time>
</trkpt>
<trkpt lat="30.8286290" lon="35.6837955">
<ele>1180.39</ele>
<time>2015-11-22T12:46:21Z</time>
</trkpt>
<trkpt lat="30.8286092" lon="35.6837152">
<ele>1179.89</ele>
<time>2015-11-22T12:46:23Z</time>
</trkpt>
<trkpt lat="30.8285462" lon="35.6836825">
<ele>1180.02</ele>
<time>2015-11-22T12:46:25Z</time>
</trkpt>
<trkpt lat="30.8284889" lon="35.6837251">
<ele>1180.30</ele>
<time>2015-11-22T12:46:27Z</time>
</trkpt>
<trkpt lat="30.8284671" lon="35.6837954">
<ele>1180.37</ele>
<time>2015-11-22T12:46:29Z</time>
</trkpt>
<trkpt lat="30.8284615" lon="35.6838527">
<ele>1180.39</ele>
<time>2015-11-22T12:46:31Z</time>
</trkpt>
<trkpt lat="30.8284614" lon="35.6839280">
<ele>1180.39</ele>
<time>2015-11-22T12:46:34Z</time>
</trkpt>
<trkpt lat="30.8284553" lon="35.6839967">
<ele>1180.39</ele>
<time>2015-11-22T12:46:37Z</time>
</trkpt>
<trkpt lat="30.8284375" lon="35.6840616">
<ele>1179.89</ele>
<time>2015-11-22T12:46:40Z</time>
</trkpt>
<trkpt lat="30.8284240" lon="35.6841304">
<ele>1179.96</ele>
<time>2015-11-22T12:46:43Z</time>
</trkpt>
<trkpt lat="30.8284156" lon="35.6841995">
<ele>1180.34</ele>
<time>2015-11-22T12:46:46Z</time>
</trkpt>
<trkpt lat="30.8284044" lon="35.6842651">
<ele>1180.89</ele>
<time>2015-11-22T12:46:49Z</time>
</trkpt>
<trkpt lat="30.8283864" lon="35.6843283">
<ele>1181.33</ele>
<time>2015-11-22T12:46:52Z</time>
</trkpt>
<trkpt lat="30.8283774" lon="35.6843878">
<ele>1181.39</ele>
<time>2015-11-22T12:46:55Z</time>
</trkpt>
<trkpt lat="30.8283658" lon="35.6844550">
<ele>1181.89</ele>
<time>2015-11-22T12:46:58Z</time>
</trkpt>
<trkpt lat="30.8283546" lon="35.6845168">
<ele>1182.33</ele>
<time>2015-11-22T12:47:01Z</time>
</trkpt>
<trkpt lat="30.8283456" lon="35.6845687">
<ele>1183.14</ele>
<time>2015-11-22T12:47:04Z</time>
</trkpt>
<trkpt lat="30.8283334" lon="35.6846261">
<ele>1183.38</ele>
<time>2015-11-22T12:47:08Z</time>
</trkpt>
<trkpt lat="30.8283197" lon="35.6846826">
<ele>1183.39</ele>
<time>2015-11-22T12:47:12Z</time>
</trkpt>
<trkpt lat="30.8283033" lon="35.6847437">
<ele>1183.39</ele>
<time>2015-11-22T12:47:16Z</time>
</trkpt>
<trkpt lat="30.8282872" lon="35.6848057">
<ele>1184.77</ele>
<time>2015-11-22T12:47:20Z</time>
</trkpt>
<trkpt lat="30.8282767" lon="35.6848609">
<ele>1185.32</ele>
<time>2015-11-22T12:47:23Z</time>
</trkpt>
<trkpt lat="30.8282612" lon="35.6849167">
<ele>1184.51</ele>
<time>2015-11-22T12:47:26Z</time>
</trkpt>
<trkpt lat="30.8282454" lon="35.6849707">
<ele>1184.28</ele>
<time>2015-11-22T12:47:29Z</time>
</trkpt>
<trkpt lat="30.8282374" lon="35.6850271">
<ele>1183.88</ele>
<time>2015-11-22T12:47:32Z</time>
</trkpt>
<trkpt lat="30.8282206" lon="35.6850801">
<ele>1183.45</ele>
<time>2015-11-22T12:47:35Z</time>
</trkpt>
<trkpt lat="30.8282123" lon="35.6851321">
<ele>1184.15</ele>
<time>2015-11-22T12:47:38Z</time>
</trkpt>
<trkpt lat="30.8282017" lon="35.6851976">
<ele>1185.13</ele>
<time>2015-11-22T12:47:42Z</time>
</trkpt>
<trkpt lat="30.8281835" lon="35.6852642">
<ele>1186.31</ele>
<time>2015-11-22T12:47:46Z</time>
</trkpt>
<trkpt lat="30.8281702" lon="35.6853233">
<ele>1186.51</ele>
<time>2015-11-22T12:47:49Z</time>
</trkpt>
<trkpt lat="30.8281603" lon="35.6853822">
<ele>1186.66</ele>
<time>2015-11-22T12:47:52Z</time>
</trkpt>
<trkpt lat="30.8281433" lon="35.6854339">
<ele>1187.30</ele>
<time>2015-11-22T12:47:55Z</time>
</trkpt>
<trkpt lat="30.8281292" lon="35.6854896">
<ele>1187.13</ele>
<time>2015-11-22T12:47:58Z</time>
</trkpt>
<trkpt lat="30.8281134" lon="35.6855504">
<ele>1187.36</ele>
<time>2015-11-22T12:48:01Z</time>
</trkpt>
<trkpt lat="30.8281036" lon="35.6856078">
<ele>1188.14</ele>
<time>2015-11-22T12:48:04Z</time>
</trkpt>
<trkpt lat="30.8280886" lon="35.6856660">
<ele>1188.36</ele>
<time>2015-11-22T12:48:07Z</time>
</trkpt>
<trkpt lat="30.8280777" lon="35.6857278">
<ele>1187.64</ele>
<time>2015-11-22T12:48:10Z</time>
</trkpt>
<trkpt lat="30.8280699" lon="35.6857896">
<ele>1188.30</ele>
<time>2015-11-22T12:48:13Z</time>
</trkpt>
<trkpt lat="30.8280647" lon="35.6858509">
<ele>1188.88</ele>
<time>2015-11-22T12:48:16Z</time>
</trkpt>
<trkpt lat="30.8280553" lon="35.6859153">
<ele>1189.33</ele>
<time>2015-11-22T12:48:19Z</time>
</trkpt>
<trkpt lat="30.8280411" lon="35.6859802">
<ele>1189.39</ele>
<time>2015-11-22T12:48:22Z</time>
</trkpt>
<trkpt lat="30.8280352" lon="35.6860459">
<ele>1188.89</ele>
<time>2015-11-22T12:48:25Z</time>
</trkpt>
<trkpt lat="30.8280292" lon="35.6861104">
<ele>1189.33</ele>
<time>2015-11-22T12:48:28Z</time>
</trkpt>
<trkpt lat="30.8280215" lon="35.6861822">
<ele>1188.51</ele>
<time>2015-11-22T12:48:31Z</time>
</trkpt>
<trkpt lat="30.8280127" lon="35.6862568">
<ele>1188.41</ele>
<time>2015-11-22T12:48:34Z</time>
</trkpt>
<trkpt lat="30.8280083" lon="35.6863208">
<ele>1188.15</ele>
<time>2015-11-22T12:48:37Z</time>
</trkpt>
<trkpt lat="30.8280087" lon="35.6863821">
<ele>1187.61</ele>
<time>2015-11-22T12:48:40Z</time>
</trkpt>
<trkpt lat="30.8280020" lon="35.6864480">
<ele>1186.67</ele>
<time>2015-11-22T12:48:43Z</time>
</trkpt>
<trkpt lat="30.8279956" lon="35.6865206">
<ele>1186.43</ele>
<time>2015-11-22T12:48:46Z</time>
</trkpt>
<trkpt lat="30.8279959" lon="35.6865944">
<ele>1187.27</ele>
<time>2015-11-22T12:48:49Z</time>
</trkpt>
<trkpt lat="30.8279956" lon="35.6866692">
<ele>1187.88</ele>
<time>2015-11-22T12:48:52Z</time>
</trkpt>
<trkpt lat="30.8279982" lon="35.6867500">
<ele>1187.58</ele>
<time>2015-11-22T12:48:55Z</time>
</trkpt>
<trkpt lat="30.8280043" lon="35.6868078">
<ele>1187.44</ele>
<time>2015-11-22T12:48:57Z</time>
</trkpt>
<trkpt lat="30.8280062" lon="35.6868662">
<ele>1188.16</ele>
<time>2015-11-22T12:48:59Z</time>
</trkpt>
<trkpt lat="30.8280084" lon="35.6869284">
<ele>1188.08</ele>
<time>2015-11-22T12:49:01Z</time>
</trkpt>
<trkpt lat="30.8280109" lon="35.6869935">
<ele>1187.82</ele>
<time>2015-11-22T12:49:03Z</time>
</trkpt>
<trkpt lat="30.8280146" lon="35.6870591">
<ele>1188.00</ele>
<time>2015-11-22T12:49:05Z</time>
</trkpt>
<trkpt lat="30.8280200" lon="35.6871277">
<ele>1188.05</ele>
<time>2015-11-22T12:49:07Z</time>
</trkpt>
<trkpt lat="30.8280230" lon="35.6871975">
<ele>1187.81</ele>
<time>2015-11-22T12:49:09Z</time>
</trkpt>
<trkpt lat="30.8280251" lon="35.6872656">
<ele>1187.50</ele>
<time>2015-11-22T12:49:11Z</time>
</trkpt>
<trkpt lat="30.8280278" lon="35.6873339">
<ele>1187.42</ele>
<time>2015-11-22T12:49:13Z</time>
</trkpt>
<trkpt lat="30.8280280" lon="35.6874080">
<ele>1187.40</ele>
<time>2015-11-22T12:49:15Z</time>
</trkpt>
<trkpt lat="30.8280192" lon="35.6875083">
<ele>1187.40</ele>
<time>2015-11-22T12:49:17Z</time>
</trkpt>
<trkpt lat="30.8280108" lon="35.6876061">
<ele>1186.89</ele>
<time>2015-11-22T12:49:18Z</time>
</trkpt>
<trkpt lat="30.8279998" lon="35.6876622">
<ele>1186.64</ele>
<time>2015-11-22T12:49:19Z</time>
</trkpt>
<trkpt lat="30.8279812" lon="35.6877139">
<ele>1186.52</ele>
<time>2015-11-22T12:49:20Z</time>
</trkpt>
<trkpt lat="30.8279568" lon="35.6877644">
<ele>1186.46</ele>
<time>2015-11-22T12:49:21Z</time>
</trkpt>
<trkpt lat="30.8279232" lon="35.6878118">
<ele>1186.43</ele>
<time>2015-11-22T12:49:22Z</time>
</trkpt>
<trkpt lat="30.8278473" lon="35.6878693">
<ele>1185.90</ele>
<time>2015-11-22T12:49:24Z</time>
</trkpt>
<trkpt lat="30.8277804" lon="35.6878805">
<ele>1186.27</ele>
<time>2015-11-22T12:49:26Z</time>
</trkpt>
<trkpt lat="30.8277158" lon="35.6878726">
<ele>1186.36</ele>
<time>2015-11-22T12:49:28Z</time>
</trkpt>
<trkpt lat="30.8276616" lon="35.6878458">
<ele>1186.64</ele>
<time>2015-11-22T12:49:30Z</time>
</trkpt>
<trkpt lat="30.8276120" lon="35.6877949">
<ele>1186.45</ele>
<time>2015-11-22T12:49:32Z</time>
</trkpt>
<trkpt lat="30.8275626" lon="35.6877498">
<ele>1187.16</ele>
<time>2015-11-22T12:49:34Z</time>
</trkpt>
<trkpt lat="30.8275093" lon="35.6877039">
<ele>1187.34</ele>
<time>2015-11-22T12:49:36Z</time>
</trkpt>
<trkpt lat="30.8274513" lon="35.6876576">
<ele>1187.63</ele>
<time>2015-11-22T12:49:38Z</time>
</trkpt>
<trkpt lat="30.8273900" lon="35.6876074">
<ele>1187.45</ele>
<time>2015-11-22T12:49:40Z</time>
</trkpt>
<trkpt lat="30.8273289" lon="35.6875560">
<ele>1188.16</ele>
<time>2015-11-22T12:49:42Z</time>
</trkpt>
<trkpt lat="30.8272674" lon="35.6875043">
<ele>1188.34</ele>
<time>2015-11-22T12:49:44Z</time>
</trkpt>
<trkpt lat="30.8272062" lon="35.6874543">
<ele>1188.38</ele>
<time>2015-11-22T12:49:46Z</time>
</trkpt>
<trkpt lat="30.8271452" lon="35.6874087">
<ele>1188.39</ele>
<time>2015-11-22T12:49:48Z</time>
</trkpt>
<trkpt lat="30.8270914" lon="35.6873690">
<ele>1187.89</ele>
<time>2015-11-22T12:49:50Z</time>
</trkpt>
<trkpt lat="30.8270634" lon="35.6873193">
<ele>1189.14</ele>
<time>2015-11-22T12:50:51Z</time>
</trkpt>
<trkpt lat="30.8270324" lon="35.6872744">
<ele>1190.00</ele>
<time>2015-11-22T12:51:16Z</time>
</trkpt>
<trkpt lat="30.8269786" lon="35.6872362">
<ele>1190.59</ele>
<time>2015-11-22T12:51:19Z</time>
</trkpt>
<trkpt lat="30.8269307" lon="35.6872008">
<ele>1190.44</ele>
<time>2015-11-22T12:51:21Z</time>
</trkpt>
<trkpt lat="30.8268777" lon="35.6871658">
<ele>1190.41</ele>
<time>2015-11-22T12:51:23Z</time>
</trkpt>
<trkpt lat="30.8268228" lon="35.6871274">
<ele>1189.65</ele>
<time>2015-11-22T12:51:25Z</time>
</trkpt>
<trkpt lat="30.8267672" lon="35.6870803">
<ele>1189.46</ele>
<time>2015-11-22T12:51:27Z</time>
</trkpt>
<trkpt lat="30.8267051" lon="35.6870305">
<ele>1189.41</ele>
<time>2015-11-22T12:51:29Z</time>
</trkpt>
<trkpt lat="30.8266420" lon="35.6869770">
<ele>1188.65</ele>
<time>2015-11-22T12:51:31Z</time>
</trkpt>
<trkpt lat="30.8265697" lon="35.6869176">
<ele>1188.96</ele>
<time>2015-11-22T12:51:33Z</time>
</trkpt>
<trkpt lat="30.8265347" lon="35.6868845">
<ele>1188.68</ele>
<time>2015-11-22T12:51:34Z</time>
</trkpt>
<trkpt lat="30.8264999" lon="35.6868511">
<ele>1189.03</ele>
<time>2015-11-22T12:51:35Z</time>
</trkpt>
<trkpt lat="30.8264642" lon="35.6868189">
<ele>1189.21</ele>
<time>2015-11-22T12:51:36Z</time>
</trkpt>
<trkpt lat="30.8264274" lon="35.6867864">
<ele>1188.80</ele>
<time>2015-11-22T12:51:37Z</time>
</trkpt>
<trkpt lat="30.8263728" lon="35.6867350">
<ele>1188.60</ele>
<time>2015-11-22T12:51:38Z</time>
</trkpt>
<trkpt lat="30.8263340" lon="35.6866984">
<ele>1189.00</ele>
<time>2015-11-22T12:51:39Z</time>
</trkpt>
<trkpt lat="30.8262960" lon="35.6866661">
<ele>1189.20</ele>
<time>2015-11-22T12:51:40Z</time>
</trkpt>
<trkpt lat="30.8262498" lon="35.6866253">
<ele>1188.79</ele>
<time>2015-11-22T12:51:41Z</time>
</trkpt>
<trkpt lat="30.8262104" lon="35.6865915">
<ele>1188.59</ele>
<time>2015-11-22T12:51:42Z</time>
</trkpt>
<trkpt lat="30.8261725" lon="35.6865534">
<ele>1188.99</ele>
<time>2015-11-22T12:51:43Z</time>
</trkpt>
<trkpt lat="30.8261336" lon="35.6865138">
<ele>1189.19</ele>
<time>2015-11-22T12:51:44Z</time>
</trkpt>
<trkpt lat="30.8261115" lon="35.6864652">
<ele>1188.79</ele>
<time>2015-11-22T12:51:45Z</time>
</trkpt>
<trkpt lat="30.8260726" lon="35.6864269">
<ele>1188.59</ele>
<time>2015-11-22T12:51:46Z</time>
</trkpt>
<trkpt lat="30.8259929" lon="35.6863587">
<ele>1187.69</ele>
<time>2015-11-22T12:51:48Z</time>
</trkpt>
<trkpt lat="30.8259498" lon="35.6863371">
<ele>1187.04</ele>
<time>2015-11-22T12:51:49Z</time>
</trkpt>
<trkpt lat="30.8259030" lon="35.6863168">
<ele>1186.72</ele>
<time>2015-11-22T12:51:50Z</time>
</trkpt>
<trkpt lat="30.8258551" lon="35.6862875">
<ele>1186.56</ele>
<time>2015-11-22T12:51:51Z</time>
</trkpt>
<trkpt lat="30.8258140" lon="35.6862526">
<ele>1186.48</ele>
<time>2015-11-22T12:51:52Z</time>
</trkpt>
<trkpt lat="30.8257636" lon="35.6862239">
<ele>1186.43</ele>
<time>2015-11-22T12:51:53Z</time>
</trkpt>
<trkpt lat="30.8257119" lon="35.6861912">
<ele>1186.41</ele>
<time>2015-11-22T12:51:54Z</time>
</trkpt>
<trkpt lat="30.8256544" lon="35.6861678">
<ele>1185.90</ele>
<time>2015-11-22T12:51:55Z</time>
</trkpt>
<trkpt lat="30.8255985" lon="35.6861243">
<ele>1185.65</ele>
<time>2015-11-22T12:51:56Z</time>
</trkpt>
<trkpt lat="30.8255421" lon="35.6860883">
<ele>1186.02</ele>
<time>2015-11-22T12:51:57Z</time>
</trkpt>
<trkpt lat="30.8254954" lon="35.6860564">
<ele>1185.71</ele>
<time>2015-11-22T12:51:58Z</time>
</trkpt>
<trkpt lat="30.8254536" lon="35.6860155">
<ele>1185.55</ele>
<time>2015-11-22T12:51:59Z</time>
</trkpt>
<trkpt lat="30.8254094" lon="35.6859820">
<ele>1184.97</ele>
<time>2015-11-22T12:52:00Z</time>
</trkpt>
<trkpt lat="30.8253629" lon="35.6859521">
<ele>1184.68</ele>
<time>2015-11-22T12:52:01Z</time>
</trkpt>
<trkpt lat="30.8253218" lon="35.6859219">
<ele>1184.54</ele>
<time>2015-11-22T12:52:02Z</time>
</trkpt>
<trkpt lat="30.8252852" lon="35.6858907">
<ele>1184.97</ele>
<time>2015-11-22T12:52:03Z</time>
</trkpt>
<trkpt lat="30.8252442" lon="35.6858553">
<ele>1184.68</ele>
<time>2015-11-22T12:52:04Z</time>
</trkpt>
<trkpt lat="30.8251803" lon="35.6858125">
<ele>1184.47</ele>
<time>2015-11-22T12:52:06Z</time>
</trkpt>
<trkpt lat="30.8251145" lon="35.6857555">
<ele>1183.91</ele>
<time>2015-11-22T12:52:08Z</time>
</trkpt>
<trkpt lat="30.8250481" lon="35.6856852">
<ele>1183.77</ele>
<time>2015-11-22T12:52:10Z</time>
</trkpt>
<trkpt lat="30.8249806" lon="35.6856204">
<ele>1184.24</ele>
<time>2015-11-22T12:52:12Z</time>
</trkpt>
<trkpt lat="30.8249452" lon="35.6855757">
<ele>1184.32</ele>
<time>2015-11-22T12:52:13Z</time>
</trkpt>
<trkpt lat="30.8249105" lon="35.6855332">
<ele>1183.86</ele>
<time>2015-11-22T12:52:14Z</time>
</trkpt>
<trkpt lat="30.8248778" lon="35.6854856">
<ele>1183.62</ele>
<time>2015-11-22T12:52:15Z</time>
</trkpt>
<trkpt lat="30.8248438" lon="35.6854394">
<ele>1183.01</ele>
<time>2015-11-22T12:52:16Z</time>
</trkpt>
<trkpt lat="30.8248110" lon="35.6853904">
<ele>1182.70</ele>
<time>2015-11-22T12:52:17Z</time>
</trkpt>
<trkpt lat="30.8247756" lon="35.6853325">
<ele>1182.55</ele>
<time>2015-11-22T12:52:18Z</time>
</trkpt>
<trkpt lat="30.8247384" lon="35.6852773">
<ele>1182.47</ele>
<time>2015-11-22T12:52:19Z</time>
</trkpt>
<trkpt lat="30.8246966" lon="35.6852205">
<ele>1181.93</ele>
<time>2015-11-22T12:52:20Z</time>
</trkpt>
<trkpt lat="30.8246496" lon="35.6851799">
<ele>1181.16</ele>
<time>2015-11-22T12:52:21Z</time>
</trkpt>
<trkpt lat="30.8246038" lon="35.6851397">
<ele>1180.78</ele>
<time>2015-11-22T12:52:22Z</time>
</trkpt>
<trkpt lat="30.8245618" lon="35.6851104">
<ele>1180.09</ele>
<time>2015-11-22T12:52:23Z</time>
</trkpt>
<trkpt lat="30.8245131" lon="35.6850888">
<ele>1179.24</ele>
<time>2015-11-22T12:52:24Z</time>
</trkpt>
<trkpt lat="30.8244552" lon="35.6850656">
<ele>1178.32</ele>
<time>2015-11-22T12:52:25Z</time>
</trkpt>
<trkpt lat="30.8243874" lon="35.6850454">
<ele>1178.36</ele>
<time>2015-11-22T12:52:26Z</time>
</trkpt>
<trkpt lat="30.8243230" lon="35.6850226">
<ele>1177.87</ele>
<time>2015-11-22T12:52:27Z</time>
</trkpt>
<trkpt lat="30.8242477" lon="35.6850065">
<ele>1177.63</ele>
<time>2015-11-22T12:52:28Z</time>
</trkpt>
<trkpt lat="30.8241796" lon="35.6849827">
<ele>1177.51</ele>
<time>2015-11-22T12:52:29Z</time>
</trkpt>
<trkpt lat="30.8241055" lon="35.6849464">
<ele>1176.95</ele>
<time>2015-11-22T12:52:30Z</time>
</trkpt>
<trkpt lat="30.8240246" lon="35.6849038">
<ele>1177.17</ele>
<time>2015-11-22T12:52:31Z</time>
</trkpt>
<trkpt lat="30.8239508" lon="35.6848614">
<ele>1176.78</ele>
<time>2015-11-22T12:52:32Z</time>
</trkpt>
<trkpt lat="30.8238702" lon="35.6848129">
<ele>1176.59</ele>
<time>2015-11-22T12:52:33Z</time>
</trkpt>
<trkpt lat="30.8237892" lon="35.6847646">
<ele>1175.99</ele>
<time>2015-11-22T12:52:34Z</time>
</trkpt>
<trkpt lat="30.8237162" lon="35.6847149">
<ele>1175.69</ele>
<time>2015-11-22T12:52:35Z</time>
</trkpt>
<trkpt lat="30.8236425" lon="35.6846557">
<ele>1176.04</ele>
<time>2015-11-22T12:52:36Z</time>
</trkpt>
<trkpt lat="30.8235821" lon="35.6845925">
<ele>1176.72</ele>
<time>2015-11-22T12:52:37Z</time>
</trkpt>
<trkpt lat="30.8235269" lon="35.6845249">
<ele>1177.06</ele>
<time>2015-11-22T12:52:38Z</time>
</trkpt>
<trkpt lat="30.8234740" lon="35.6844652">
<ele>1176.73</ele>
<time>2015-11-22T12:52:39Z</time>
</trkpt>
<trkpt lat="30.8234181" lon="35.6844175">
<ele>1176.06</ele>
<time>2015-11-22T12:52:40Z</time>
</trkpt>
<trkpt lat="30.8233720" lon="35.6843570">
<ele>1176.23</ele>
<time>2015-11-22T12:52:41Z</time>
</trkpt>
<trkpt lat="30.8233299" lon="35.6842988">
<ele>1176.31</ele>
<time>2015-11-22T12:52:42Z</time>
</trkpt>
<trkpt lat="30.8232992" lon="35.6842462">
<ele>1176.85</ele>
<time>2015-11-22T12:52:43Z</time>
</trkpt>
<trkpt lat="30.8232724" lon="35.6842017">
<ele>1176.62</ele>
<time>2015-11-22T12:52:44Z</time>
</trkpt>
<trkpt lat="30.8232432" lon="35.6841516">
<ele>1176.51</ele>
<time>2015-11-22T12:52:45Z</time>
</trkpt>
<trkpt lat="30.8231948" lon="35.6840856">
<ele>1176.17</ele>
<time>2015-11-22T12:52:47Z</time>
</trkpt>
<trkpt lat="30.8231629" lon="35.6840347">
<ele>1176.28</ele>
<time>2015-11-22T12:52:48Z</time>
</trkpt>
<trkpt lat="30.8231258" lon="35.6839934">
<ele>1176.34</ele>
<time>2015-11-22T12:52:49Z</time>
</trkpt>
<trkpt lat="30.8230943" lon="35.6839484">
<ele>1176.37</ele>
<time>2015-11-22T12:52:50Z</time>
</trkpt>
<trkpt lat="30.8230656" lon="35.6839008">
<ele>1176.38</ele>
<time>2015-11-22T12:52:51Z</time>
</trkpt>
<trkpt lat="30.8230312" lon="35.6838566">
<ele>1176.39</ele>
<time>2015-11-22T12:52:52Z</time>
</trkpt>
<trkpt lat="30.8229991" lon="35.6838163">
<ele>1176.39</ele>
<time>2015-11-22T12:52:53Z</time>
</trkpt>
<trkpt lat="30.8229552" lon="35.6837383">
<ele>1176.89</ele>
<time>2015-11-22T12:52:55Z</time>
</trkpt>
<trkpt lat="30.8229009" lon="35.6836519">
<ele>1177.02</ele>
<time>2015-11-22T12:52:57Z</time>
</trkpt>
<trkpt lat="30.8228754" lon="35.6836056">
<ele>1176.71</ele>
<time>2015-11-22T12:52:58Z</time>
</trkpt>
<trkpt lat="30.8228391" lon="35.6835665">
<ele>1176.55</ele>
<time>2015-11-22T12:52:59Z</time>
</trkpt>
<trkpt lat="30.8227803" lon="35.6835027">
<ele>1175.68</ele>
<time>2015-11-22T12:53:01Z</time>
</trkpt>
<trkpt lat="30.8227454" lon="35.6834683">
<ele>1176.04</ele>
<time>2015-11-22T12:53:02Z</time>
</trkpt>
<trkpt lat="30.8226908" lon="35.6834086">
<ele>1175.81</ele>
<time>2015-11-22T12:53:04Z</time>
</trkpt>
<trkpt lat="30.8226450" lon="35.6833575">
<ele>1176.32</ele>
<time>2015-11-22T12:53:07Z</time>
</trkpt>
<trkpt lat="30.8226000" lon="35.6833414">
<ele>1177.33</ele>
<time>2015-11-22T12:53:11Z</time>
</trkpt>
<trkpt lat="30.8226429" lon="35.6833254">
<ele>1175.64</ele>
<time>2015-11-22T12:53:43Z</time>
</trkpt>
<trkpt lat="30.8226100" lon="35.6832793">
<ele>1176.84</ele>
<time>2015-11-22T12:54:01Z</time>
</trkpt>
<trkpt lat="30.8225750" lon="35.6832234">
<ele>1177.48</ele>
<time>2015-11-22T12:54:05Z</time>
</trkpt>
<trkpt lat="30.8225251" lon="35.6831784">
<ele>1178.16</ele>
<time>2015-11-22T12:54:08Z</time>
</trkpt>
<trkpt lat="30.8224832" lon="35.6831431">
<ele>1178.83</ele>
<time>2015-11-22T12:54:10Z</time>
</trkpt>
<trkpt lat="30.8224407" lon="35.6831003">
<ele>1178.75</ele>
<time>2015-11-22T12:54:12Z</time>
</trkpt>
<trkpt lat="30.8224022" lon="35.6830532">
<ele>1179.23</ele>
<time>2015-11-22T12:54:14Z</time>
</trkpt>
<trkpt lat="30.8223632" lon="35.6830024">
<ele>1179.35</ele>
<time>2015-11-22T12:54:16Z</time>
</trkpt>
<trkpt lat="30.8223232" lon="35.6829431">
<ele>1179.38</ele>
<time>2015-11-22T12:54:18Z</time>
</trkpt>
<trkpt lat="30.8222818" lon="35.6828807">
<ele>1179.39</ele>
<time>2015-11-22T12:54:20Z</time>
</trkpt>
<trkpt lat="30.8222370" lon="35.6828224">
<ele>1179.39</ele>
<time>2015-11-22T12:54:22Z</time>
</trkpt>
<trkpt lat="30.8221928" lon="35.6827589">
<ele>1178.64</ele>
<time>2015-11-22T12:54:24Z</time>
</trkpt>
<trkpt lat="30.8221467" lon="35.6826958">
<ele>1178.21</ele>
<time>2015-11-22T12:54:26Z</time>
</trkpt>
<trkpt lat="30.8221006" lon="35.6826273">
<ele>1178.35</ele>
<time>2015-11-22T12:54:28Z</time>
</trkpt>
<trkpt lat="30.8220542" lon="35.6825572">
<ele>1178.38</ele>
<time>2015-11-22T12:54:30Z</time>
</trkpt>
<trkpt lat="30.8220155" lon="35.6824829">
<ele>1178.39</ele>
<time>2015-11-22T12:54:32Z</time>
</trkpt>
<trkpt lat="30.8219745" lon="35.6824075">
<ele>1177.64</ele>
<time>2015-11-22T12:54:34Z</time>
</trkpt>
<trkpt lat="30.8219273" lon="35.6823305">
<ele>1177.46</ele>
<time>2015-11-22T12:54:36Z</time>
</trkpt>
<trkpt lat="30.8218721" lon="35.6822461">
<ele>1176.91</ele>
<time>2015-11-22T12:54:38Z</time>
</trkpt>
<trkpt lat="30.8218436" lon="35.6822017">
<ele>1176.65</ele>
<time>2015-11-22T12:54:39Z</time>
</trkpt>
<trkpt lat="30.8218141" lon="35.6821560">
<ele>1176.52</ele>
<time>2015-11-22T12:54:40Z</time>
</trkpt>
<trkpt lat="30.8217742" lon="35.6820785">
<ele>1176.96</ele>
<time>2015-11-22T12:54:41Z</time>
</trkpt>
<trkpt lat="30.8217251" lon="35.6819948">
<ele>1177.54</ele>
<time>2015-11-22T12:54:43Z</time>
</trkpt>
<trkpt lat="30.8216835" lon="35.6819036">
<ele>1177.43</ele>
<time>2015-11-22T12:54:45Z</time>
</trkpt>
<trkpt lat="30.8216496" lon="35.6818493">
<ele>1177.91</ele>
<time>2015-11-22T12:54:46Z</time>
</trkpt>
<trkpt lat="30.8216251" lon="35.6818015">
<ele>1178.15</ele>
<time>2015-11-22T12:54:47Z</time>
</trkpt>
<trkpt lat="30.8215990" lon="35.6817559">
<ele>1178.27</ele>
<time>2015-11-22T12:54:48Z</time>
</trkpt>
<trkpt lat="30.8215720" lon="35.6817114">
<ele>1178.83</ele>
<time>2015-11-22T12:54:49Z</time>
</trkpt>
<trkpt lat="30.8215230" lon="35.6816130">
<ele>1179.75</ele>
<time>2015-11-22T12:54:51Z</time>
</trkpt>
<trkpt lat="30.8214736" lon="35.6815356">
<ele>1179.48</ele>
<time>2015-11-22T12:54:53Z</time>
</trkpt>
<trkpt lat="30.8214441" lon="35.6814899">
<ele>1179.44</ele>
<time>2015-11-22T12:54:54Z</time>
</trkpt>
<trkpt lat="30.8214121" lon="35.6814504">
<ele>1179.42</ele>
<time>2015-11-22T12:54:55Z</time>
</trkpt>
<trkpt lat="30.8213753" lon="35.6814171">
<ele>1179.41</ele>
<time>2015-11-22T12:54:56Z</time>
</trkpt>
<trkpt lat="30.8213146" lon="35.6813651">
<ele>1179.40</ele>
<time>2015-11-22T12:54:58Z</time>
</trkpt>
<trkpt lat="30.8212594" lon="35.6813054">
<ele>1179.39</ele>
<time>2015-11-22T12:55:00Z</time>
</trkpt>
<trkpt lat="30.8212081" lon="35.6812324">
<ele>1179.14</ele>
<time>2015-11-22T12:55:02Z</time>
</trkpt>
<trkpt lat="30.8211486" lon="35.6811622">
<ele>1178.58</ele>
<time>2015-11-22T12:55:04Z</time>
</trkpt>
<trkpt lat="30.8211144" lon="35.6811265">
<ele>1178.49</ele>
<time>2015-11-22T12:55:05Z</time>
</trkpt>
<trkpt lat="30.8210506" lon="35.6810681">
<ele>1179.17</ele>
<time>2015-11-22T12:55:07Z</time>
</trkpt>
<trkpt lat="30.8210082" lon="35.6810395">
<ele>1178.78</ele>
<time>2015-11-22T12:55:08Z</time>
</trkpt>
<trkpt lat="30.8209455" lon="35.6809696">
<ele>1177.99</ele>
<time>2015-11-22T12:55:10Z</time>
</trkpt>
<trkpt lat="30.8209108" lon="35.6809307">
<ele>1177.69</ele>
<time>2015-11-22T12:55:11Z</time>
</trkpt>
<trkpt lat="30.8208768" lon="35.6808918">
<ele>1177.54</ele>
<time>2015-11-22T12:55:12Z</time>
</trkpt>
<trkpt lat="30.8208341" lon="35.6808578">
<ele>1177.47</ele>
<time>2015-11-22T12:55:13Z</time>
</trkpt>
<trkpt lat="30.8207958" lon="35.6808216">
<ele>1177.43</ele>
<time>2015-11-22T12:55:14Z</time>
</trkpt>
<trkpt lat="30.8207618" lon="35.6807797">
<ele>1177.91</ele>
<time>2015-11-22T12:55:15Z</time>
</trkpt>
<trkpt lat="30.8207285" lon="35.6807355">
<ele>1178.15</ele>
<time>2015-11-22T12:55:16Z</time>
</trkpt>
<trkpt lat="30.8206595" lon="35.6806582">
<ele>1177.58</ele>
<time>2015-11-22T12:55:18Z</time>
</trkpt>
<trkpt lat="30.8206285" lon="35.6806202">
<ele>1177.49</ele>
<time>2015-11-22T12:55:19Z</time>
</trkpt>
<trkpt lat="30.8205936" lon="35.6805722">
<ele>1177.94</ele>
<time>2015-11-22T12:55:20Z</time>
</trkpt>
<trkpt lat="30.8205190" lon="35.6805044">
<ele>1178.28</ele>
<time>2015-11-22T12:55:22Z</time>
</trkpt>
<trkpt lat="30.8204493" lon="35.6804342">
<ele>1179.12</ele>
<time>2015-11-22T12:55:24Z</time>
</trkpt>
<trkpt lat="30.8204031" lon="35.6803673">
<ele>1178.57</ele>
<time>2015-11-22T12:55:26Z</time>
</trkpt>
<trkpt lat="30.8203641" lon="35.6803310">
<ele>1178.48</ele>
<time>2015-11-22T12:55:27Z</time>
</trkpt>
<trkpt lat="30.8203275" lon="35.6802955">
<ele>1178.44</ele>
<time>2015-11-22T12:55:28Z</time>
</trkpt>
<trkpt lat="30.8202918" lon="35.6802616">
<ele>1178.42</ele>
<time>2015-11-22T12:55:29Z</time>
</trkpt>
<trkpt lat="30.8202233" lon="35.6802035">
<ele>1178.40</ele>
<time>2015-11-22T12:55:31Z</time>
</trkpt>
<trkpt lat="30.8201543" lon="35.6801584">
<ele>1178.40</ele>
<time>2015-11-22T12:55:33Z</time>
</trkpt>
<trkpt lat="30.8200854" lon="35.6801064">
<ele>1178.64</ele>
<time>2015-11-22T12:55:35Z</time>
</trkpt>
<trkpt lat="30.8200137" lon="35.6800537">
<ele>1178.46</ele>
<time>2015-11-22T12:55:37Z</time>
</trkpt>
<trkpt lat="30.8199396" lon="35.6799996">
<ele>1179.16</ele>
<time>2015-11-22T12:55:39Z</time>
</trkpt>
<trkpt lat="30.8199062" lon="35.6799644">
<ele>1179.28</ele>
<time>2015-11-22T12:55:40Z</time>
</trkpt>
<trkpt lat="30.8198669" lon="35.6799287">
<ele>1179.34</ele>
<time>2015-11-22T12:55:41Z</time>
</trkpt>
<trkpt lat="30.8198197" lon="35.6798950">
<ele>1178.86</ele>
<time>2015-11-22T12:55:42Z</time>
</trkpt>
<trkpt lat="30.8197529" lon="35.6798335">
<ele>1177.76</ele>
<time>2015-11-22T12:55:44Z</time>
</trkpt>
<trkpt lat="30.8197147" lon="35.6797900">
<ele>1177.58</ele>
<time>2015-11-22T12:55:45Z</time>
</trkpt>
<trkpt lat="30.8196769" lon="35.6797615">
<ele>1177.99</ele>
<time>2015-11-22T12:55:46Z</time>
</trkpt>
<trkpt lat="30.8196466" lon="35.6797212">
<ele>1178.19</ele>
<time>2015-11-22T12:55:47Z</time>
</trkpt>
<trkpt lat="30.8195910" lon="35.6796647">
<ele>1179.09</ele>
<time>2015-11-22T12:55:49Z</time>
</trkpt>
<trkpt lat="30.8195375" lon="35.6795924">
<ele>1179.07</ele>
<time>2015-11-22T12:55:51Z</time>
</trkpt>
<trkpt lat="30.8194734" lon="35.6795229">
<ele>1180.06</ele>
<time>2015-11-22T12:55:53Z</time>
</trkpt>
<trkpt lat="30.8194358" lon="35.6794459">
<ele>1180.06</ele>
<time>2015-11-22T12:55:55Z</time>
</trkpt>
<trkpt lat="30.8193716" lon="35.6793727">
<ele>1180.31</ele>
<time>2015-11-22T12:55:57Z</time>
</trkpt>
<trkpt lat="30.8193179" lon="35.6793012">
<ele>1180.37</ele>
<time>2015-11-22T12:55:59Z</time>
</trkpt>
<trkpt lat="30.8192658" lon="35.6792318">
<ele>1180.39</ele>
<time>2015-11-22T12:56:01Z</time>
</trkpt>
<trkpt lat="30.8192056" lon="35.6791598">
<ele>1181.14</ele>
<time>2015-11-22T12:56:03Z</time>
</trkpt>
<trkpt lat="30.8191405" lon="35.6790998">
<ele>1181.33</ele>
<time>2015-11-22T12:56:05Z</time>
</trkpt>
<trkpt lat="30.8190823" lon="35.6790285">
<ele>1181.38</ele>
<time>2015-11-22T12:56:07Z</time>
</trkpt>
<trkpt lat="30.8190175" lon="35.6789654">
<ele>1181.89</ele>
<time>2015-11-22T12:56:09Z</time>
</trkpt>
<trkpt lat="30.8189585" lon="35.6788907">
<ele>1182.27</ele>
<time>2015-11-22T12:56:11Z</time>
</trkpt>
<trkpt lat="30.8188999" lon="35.6788269">
<ele>1182.36</ele>
<time>2015-11-22T12:56:13Z</time>
</trkpt>
<trkpt lat="30.8188397" lon="35.6787600">
<ele>1182.39</ele>
<time>2015-11-22T12:56:15Z</time>
</trkpt>
<trkpt lat="30.8187796" lon="35.6786992">
<ele>1181.89</ele>
<time>2015-11-22T12:56:17Z</time>
</trkpt>
<trkpt lat="30.8187145" lon="35.6786357">
<ele>1181.52</ele>
<time>2015-11-22T12:56:19Z</time>
</trkpt>
<trkpt lat="30.8186460" lon="35.6785809">
<ele>1180.93</ele>
<time>2015-11-22T12:56:21Z</time>
</trkpt>
<trkpt lat="30.8185792" lon="35.6785233">
<ele>1181.28</ele>
<time>2015-11-22T12:56:23Z</time>
</trkpt>
<trkpt lat="30.8185237" lon="35.6784590">
<ele>1181.36</ele>
<time>2015-11-22T12:56:25Z</time>
</trkpt>
<trkpt lat="30.8184707" lon="35.6783999">
<ele>1181.39</ele>
<time>2015-11-22T12:56:27Z</time>
</trkpt>
<trkpt lat="30.8184156" lon="35.6783412">
<ele>1181.39</ele>
<time>2015-11-22T12:56:29Z</time>
</trkpt>
<trkpt lat="30.8183637" lon="35.6782783">
<ele>1181.39</ele>
<time>2015-11-22T12:56:31Z</time>
</trkpt>
<trkpt lat="30.8183160" lon="35.6782100">
<ele>1181.39</ele>
<time>2015-11-22T12:56:33Z</time>
</trkpt>
<trkpt lat="30.8182687" lon="35.6781421">
<ele>1181.89</ele>
<time>2015-11-22T12:56:35Z</time>
</trkpt>
<trkpt lat="30.8182192" lon="35.6780804">
<ele>1181.77</ele>
<time>2015-11-22T12:56:37Z</time>
</trkpt>
<trkpt lat="30.8181697" lon="35.6780190">
<ele>1182.24</ele>
<time>2015-11-22T12:56:39Z</time>
</trkpt>
<trkpt lat="30.8181220" lon="35.6779628">
<ele>1182.35</ele>
<time>2015-11-22T12:56:41Z</time>
</trkpt>
<trkpt lat="30.8180749" lon="35.6779128">
<ele>1182.38</ele>
<time>2015-11-22T12:56:43Z</time>
</trkpt>
<trkpt lat="30.8180248" lon="35.6778747">
<ele>1182.39</ele>
<time>2015-11-22T12:56:45Z</time>
</trkpt>
<trkpt lat="30.8179751" lon="35.6778435">
<ele>1182.39</ele>
<time>2015-11-22T12:56:47Z</time>
</trkpt>
<trkpt lat="30.8179352" lon="35.6778184">
<ele>1182.64</ele>
<time>2015-11-22T12:56:49Z</time>
</trkpt>
<trkpt lat="30.8178830" lon="35.6777845">
<ele>1182.80</ele>
<time>2015-11-22T12:56:52Z</time>
</trkpt>
<trkpt lat="30.8178301" lon="35.6777575">
<ele>1182.94</ele>
<time>2015-11-22T12:56:55Z</time>
</trkpt>
<trkpt lat="30.8177872" lon="35.6777411">
<ele>1183.28</ele>
<time>2015-11-22T12:56:57Z</time>
</trkpt>
<trkpt lat="30.8177367" lon="35.6777280">
<ele>1183.37</ele>
<time>2015-11-22T12:56:59Z</time>
</trkpt>
<trkpt lat="30.8176809" lon="35.6777148">
<ele>1183.39</ele>
<time>2015-11-22T12:57:01Z</time>
</trkpt>
<trkpt lat="30.8176253" lon="35.6777006">
<ele>1183.39</ele>
<time>2015-11-22T12:57:03Z</time>
</trkpt>
<trkpt lat="30.8175692" lon="35.6776853">
<ele>1183.39</ele>
<time>2015-11-22T12:57:05Z</time>
</trkpt>
<trkpt lat="30.8175116" lon="35.6776680">
<ele>1183.89</ele>
<time>2015-11-22T12:57:07Z</time>
</trkpt>
<trkpt lat="30.8174533" lon="35.6776382">
<ele>1184.27</ele>
<time>2015-11-22T12:57:09Z</time>
</trkpt>
<trkpt lat="30.8173938" lon="35.6775989">
<ele>1184.36</ele>
<time>2015-11-22T12:57:11Z</time>
</trkpt>
<trkpt lat="30.8173248" lon="35.6775550">
<ele>1184.39</ele>
<time>2015-11-22T12:57:13Z</time>
</trkpt>
<trkpt lat="30.8172572" lon="35.6774992">
<ele>1183.89</ele>
<time>2015-11-22T12:57:15Z</time>
</trkpt>
<trkpt lat="30.8171903" lon="35.6774355">
<ele>1183.52</ele>
<time>2015-11-22T12:57:17Z</time>
</trkpt>
<trkpt lat="30.8171254" lon="35.6773647">
<ele>1183.18</ele>
<time>2015-11-22T12:57:19Z</time>
</trkpt>
<trkpt lat="30.8170645" lon="35.6772906">
<ele>1183.34</ele>
<time>2015-11-22T12:57:21Z</time>
</trkpt>
<trkpt lat="30.8170031" lon="35.6772186">
<ele>1183.38</ele>
<time>2015-11-22T12:57:23Z</time>
</trkpt>
<trkpt lat="30.8169436" lon="35.6771449">
<ele>1183.39</ele>
<time>2015-11-22T12:57:25Z</time>
</trkpt>
<trkpt lat="30.8168882" lon="35.6770688">
<ele>1183.39</ele>
<time>2015-11-22T12:57:27Z</time>
</trkpt>
<trkpt lat="30.8168332" lon="35.6769882">
<ele>1183.89</ele>
<time>2015-11-22T12:57:29Z</time>
</trkpt>
<trkpt lat="30.8167740" lon="35.6769127">
<ele>1183.52</ele>
<time>2015-11-22T12:57:31Z</time>
</trkpt>
<trkpt lat="30.8167123" lon="35.6768417">
<ele>1183.43</ele>
<time>2015-11-22T12:57:33Z</time>
</trkpt>
<trkpt lat="30.8166542" lon="35.6767679">
<ele>1183.40</ele>
<time>2015-11-22T12:57:35Z</time>
</trkpt>
<trkpt lat="30.8165992" lon="35.6766937">
<ele>1182.65</ele>
<time>2015-11-22T12:57:37Z</time>
</trkpt>
<trkpt lat="30.8165479" lon="35.6766242">
<ele>1182.96</ele>
<time>2015-11-22T12:57:39Z</time>
</trkpt>
<trkpt lat="30.8164996" lon="35.6765660">
<ele>1183.28</ele>
<time>2015-11-22T12:57:41Z</time>
</trkpt>
<trkpt lat="30.8164559" lon="35.6765224">
<ele>1182.62</ele>
<time>2015-11-22T12:57:43Z</time>
</trkpt>
<trkpt lat="30.8164064" lon="35.6764763">
<ele>1183.20</ele>
<time>2015-11-22T12:57:45Z</time>
</trkpt>
<trkpt lat="30.8163574" lon="35.6764225">
<ele>1183.35</ele>
<time>2015-11-22T12:57:47Z</time>
</trkpt>
<trkpt lat="30.8163062" lon="35.6763601">
<ele>1183.38</ele>
<time>2015-11-22T12:57:49Z</time>
</trkpt>
<trkpt lat="30.8162487" lon="35.6763010">
<ele>1182.64</ele>
<time>2015-11-22T12:57:51Z</time>
</trkpt>
<trkpt lat="30.8161869" lon="35.6762388">
<ele>1182.46</ele>
<time>2015-11-22T12:57:53Z</time>
</trkpt>
<trkpt lat="30.8161209" lon="35.6761783">
<ele>1182.41</ele>
<time>2015-11-22T12:57:55Z</time>
</trkpt>
<trkpt lat="30.8160557" lon="35.6761164">
<ele>1182.40</ele>
<time>2015-11-22T12:57:57Z</time>
</trkpt>
<trkpt lat="30.8159933" lon="35.6760501">
<ele>1183.15</ele>
<time>2015-11-22T12:57:59Z</time>
</trkpt>
<trkpt lat="30.8159308" lon="35.6759885">
<ele>1183.33</ele>
<time>2015-11-22T12:58:01Z</time>
</trkpt>
<trkpt lat="30.8158680" lon="35.6759376">
<ele>1183.38</ele>
<time>2015-11-22T12:58:03Z</time>
</trkpt>
<trkpt lat="30.8158089" lon="35.6758961">
<ele>1183.39</ele>
<time>2015-11-22T12:58:05Z</time>
</trkpt>
<trkpt lat="30.8157584" lon="35.6758637">
<ele>1183.39</ele>
<time>2015-11-22T12:58:07Z</time>
</trkpt>
<trkpt lat="30.8157119" lon="35.6758249">
<ele>1183.89</ele>
<time>2015-11-22T12:58:09Z</time>
</trkpt>
<trkpt lat="30.8156595" lon="35.6757894">
<ele>1184.27</ele>
<time>2015-11-22T12:58:11Z</time>
</trkpt>
<trkpt lat="30.8156067" lon="35.6757497">
<ele>1185.11</ele>
<time>2015-11-22T12:58:13Z</time>
</trkpt>
<trkpt lat="30.8155619" lon="35.6757013">
<ele>1185.32</ele>
<time>2015-11-22T12:58:15Z</time>
</trkpt>
<trkpt lat="30.8155320" lon="35.6756422">
<ele>1186.13</ele>
<time>2015-11-22T12:58:17Z</time>
</trkpt>
<trkpt lat="30.8155081" lon="35.6755897">
<ele>1186.33</ele>
<time>2015-11-22T12:58:19Z</time>
</trkpt>
<trkpt lat="30.8154752" lon="35.6755319">
<ele>1186.39</ele>
<time>2015-11-22T12:58:22Z</time>
</trkpt>
<trkpt lat="30.8154503" lon="35.6754804">
<ele>1185.14</ele>
<time>2015-11-22T12:58:53Z</time>
</trkpt>
<trkpt lat="30.8153966" lon="35.6754394">
<ele>1185.36</ele>
<time>2015-11-22T12:58:56Z</time>
</trkpt>
<trkpt lat="30.8153432" lon="35.6754026">
<ele>1186.14</ele>
<time>2015-11-22T12:58:58Z</time>
</trkpt>
<trkpt lat="30.8152882" lon="35.6753621">
<ele>1186.33</ele>
<time>2015-11-22T12:59:00Z</time>
</trkpt>
<trkpt lat="30.8152307" lon="35.6753223">
<ele>1187.13</ele>
<time>2015-11-22T12:59:02Z</time>
</trkpt>
<trkpt lat="30.8151732" lon="35.6752850">
<ele>1186.58</ele>
<time>2015-11-22T12:59:04Z</time>
</trkpt>
<trkpt lat="30.8151116" lon="35.6752544">
<ele>1187.19</ele>
<time>2015-11-22T12:59:06Z</time>
</trkpt>
<trkpt lat="30.8150444" lon="35.6752308">
<ele>1187.84</ele>
<time>2015-11-22T12:59:08Z</time>
</trkpt>
<trkpt lat="30.8149792" lon="35.6752122">
<ele>1189.01</ele>
<time>2015-11-22T12:59:10Z</time>
</trkpt>
<trkpt lat="30.8149156" lon="35.6752017">
<ele>1189.30</ele>
<time>2015-11-22T12:59:12Z</time>
</trkpt>
<trkpt lat="30.8148569" lon="35.6751894">
<ele>1189.37</ele>
<time>2015-11-22T12:59:14Z</time>
</trkpt>
<trkpt lat="30.8148042" lon="35.6751668">
<ele>1189.14</ele>
<time>2015-11-22T12:59:16Z</time>
</trkpt>
<trkpt lat="30.8147503" lon="35.6751450">
<ele>1189.33</ele>
<time>2015-11-22T12:59:18Z</time>
</trkpt>
<trkpt lat="30.8146952" lon="35.6751209">
<ele>1188.88</ele>
<time>2015-11-22T12:59:20Z</time>
</trkpt>
<trkpt lat="30.8146369" lon="35.6750932">
<ele>1188.52</ele>
<time>2015-11-22T12:59:22Z</time>
</trkpt>
<trkpt lat="30.8145776" lon="35.6750611">
<ele>1187.17</ele>
<time>2015-11-22T12:59:24Z</time>
</trkpt>
<trkpt lat="30.8145152" lon="35.6750310">
<ele>1186.59</ele>
<time>2015-11-22T12:59:26Z</time>
</trkpt>
<trkpt lat="30.8144472" lon="35.6750027">
<ele>1185.69</ele>
<time>2015-11-22T12:59:28Z</time>
</trkpt>
<trkpt lat="30.8143774" lon="35.6749782">
<ele>1186.22</ele>
<time>2015-11-22T12:59:30Z</time>
</trkpt>
<trkpt lat="30.8143082" lon="35.6749552">
<ele>1186.85</ele>
<time>2015-11-22T12:59:32Z</time>
</trkpt>
<trkpt lat="30.8142393" lon="35.6749294">
<ele>1187.26</ele>
<time>2015-11-22T12:59:34Z</time>
</trkpt>
<trkpt lat="30.8141695" lon="35.6749066">
<ele>1187.61</ele>
<time>2015-11-22T12:59:36Z</time>
</trkpt>
<trkpt lat="30.8140988" lon="35.6748858">
<ele>1187.45</ele>
<time>2015-11-22T12:59:38Z</time>
</trkpt>
<trkpt lat="30.8140262" lon="35.6748707">
<ele>1187.16</ele>
<time>2015-11-22T12:59:40Z</time>
</trkpt>
<trkpt lat="30.8139543" lon="35.6748625">
<ele>1188.08</ele>
<time>2015-11-22T12:59:42Z</time>
</trkpt>
<trkpt lat="30.8138813" lon="35.6748554">
<ele>1187.57</ele>
<time>2015-11-22T12:59:44Z</time>
</trkpt>
<trkpt lat="30.8138076" lon="35.6748488">
<ele>1187.44</ele>
<time>2015-11-22T12:59:46Z</time>
</trkpt>
<trkpt lat="30.8137340" lon="35.6748529">
<ele>1187.40</ele>
<time>2015-11-22T12:59:48Z</time>
</trkpt>
<trkpt lat="30.8136534" lon="35.6748667">
<ele>1186.15</ele>
<time>2015-11-22T12:59:50Z</time>
</trkpt>
<trkpt lat="30.8135756" lon="35.6748836">
<ele>1186.33</ele>
<time>2015-11-22T12:59:52Z</time>
</trkpt>
<trkpt lat="30.8135037" lon="35.6749063">
<ele>1185.88</ele>
<time>2015-11-22T12:59:54Z</time>
</trkpt>
<trkpt lat="30.8134372" lon="35.6749276">
<ele>1185.52</ele>
<time>2015-11-22T12:59:56Z</time>
</trkpt>
<trkpt lat="30.8133660" lon="35.6749467">
<ele>1184.92</ele>
<time>2015-11-22T12:59:58Z</time>
</trkpt>
<trkpt lat="30.8133002" lon="35.6749626">
<ele>1184.53</ele>
<time>2015-11-22T13:00:00Z</time>
</trkpt>
<trkpt lat="30.8132374" lon="35.6749726">
<ele>1184.43</ele>
<time>2015-11-22T13:00:02Z</time>
</trkpt>
<trkpt lat="30.8131724" lon="35.6749838">
<ele>1184.90</ele>
<time>2015-11-22T13:00:04Z</time>
</trkpt>
<trkpt lat="30.8131062" lon="35.6749910">
<ele>1185.27</ele>
<time>2015-11-22T13:00:06Z</time>
</trkpt>
<trkpt lat="30.8130393" lon="35.6749968">
<ele>1185.86</ele>
<time>2015-11-22T13:00:08Z</time>
</trkpt>
<trkpt lat="30.8129739" lon="35.6750037">
<ele>1186.26</ele>
<time>2015-11-22T13:00:10Z</time>
</trkpt>
<trkpt lat="30.8129079" lon="35.6750137">
<ele>1187.11</ele>
<time>2015-11-22T13:00:12Z</time>
</trkpt>
<trkpt lat="30.8128435" lon="35.6750227">
<ele>1187.82</ele>
<time>2015-11-22T13:00:14Z</time>
</trkpt>
<trkpt lat="30.8127776" lon="35.6750334">
<ele>1188.25</ele>
<time>2015-11-22T13:00:16Z</time>
</trkpt>
<trkpt lat="30.8127093" lon="35.6750524">
<ele>1187.11</ele>
<time>2015-11-22T13:00:18Z</time>
</trkpt>
<trkpt lat="30.8126447" lon="35.6750704">
<ele>1187.07</ele>
<time>2015-11-22T13:00:20Z</time>
</trkpt>
<trkpt lat="30.8125830" lon="35.6750845">
<ele>1187.31</ele>
<time>2015-11-22T13:00:22Z</time>
</trkpt>
<trkpt lat="30.8125268" lon="35.6750945">
<ele>1188.12</ele>
<time>2015-11-22T13:00:24Z</time>
</trkpt>
<trkpt lat="30.8124777" lon="35.6751154">
<ele>1188.33</ele>
<time>2015-11-22T13:00:26Z</time>
</trkpt>
<trkpt lat="30.8124295" lon="35.6751393">
<ele>1188.38</ele>
<time>2015-11-22T13:00:28Z</time>
</trkpt>
<trkpt lat="30.8123781" lon="35.6751440">
<ele>1188.89</ele>
<time>2015-11-22T13:00:30Z</time>
</trkpt>
<trkpt lat="30.8123284" lon="35.6751221">
<ele>1188.52</ele>
<time>2015-11-22T13:00:32Z</time>
</trkpt>
<trkpt lat="30.8122829" lon="35.6750694">
<ele>1187.67</ele>
<time>2015-11-22T13:00:34Z</time>
</trkpt>
<trkpt lat="30.8122433" lon="35.6749935">
<ele>1188.21</ele>
<time>2015-11-22T13:00:36Z</time>
</trkpt>
<trkpt lat="30.8121987" lon="35.6749248">
<ele>1188.35</ele>
<time>2015-11-22T13:00:38Z</time>
</trkpt>
<trkpt lat="30.8121487" lon="35.6748935">
<ele>1188.38</ele>
<time>2015-11-22T13:00:40Z</time>
</trkpt>
<trkpt lat="30.8120879" lon="35.6749042">
<ele>1187.89</ele>
<time>2015-11-22T13:00:43Z</time>
</trkpt>
<trkpt lat="30.8120336" lon="35.6749305">
<ele>1187.71</ele>
<time>2015-11-22T13:00:46Z</time>
</trkpt>
<trkpt lat="30.8119738" lon="35.6749533">
<ele>1186.68</ele>
<time>2015-11-22T13:00:49Z</time>
</trkpt>
<trkpt lat="30.8119141" lon="35.6749778">
<ele>1186.93</ele>
<time>2015-11-22T13:00:52Z</time>
</trkpt>
<trkpt lat="30.8118564" lon="35.6750084">
<ele>1187.34</ele>
<time>2015-11-22T13:00:55Z</time>
</trkpt>
<trkpt lat="30.8118131" lon="35.6750293">
<ele>1187.38</ele>
<time>2015-11-22T13:00:57Z</time>
</trkpt>
<trkpt lat="30.8117711" lon="35.6750479">
<ele>1187.39</ele>
<time>2015-11-22T13:00:59Z</time>
</trkpt>
<trkpt lat="30.8117091" lon="35.6750658">
<ele>1188.27</ele>
<time>2015-11-22T13:01:02Z</time>
</trkpt>
<trkpt lat="30.8116532" lon="35.6750995">
<ele>1188.38</ele>
<time>2015-11-22T13:01:05Z</time>
</trkpt>
<trkpt lat="30.8115977" lon="35.6751322">
<ele>1188.64</ele>
<time>2015-11-22T13:01:08Z</time>
</trkpt>
<trkpt lat="30.8115382" lon="35.6751703">
<ele>1189.18</ele>
<time>2015-11-22T13:01:11Z</time>
</trkpt>
<trkpt lat="30.8114944" lon="35.6751918">
<ele>1189.84</ele>
<time>2015-11-22T13:01:13Z</time>
</trkpt>
<trkpt lat="30.8114501" lon="35.6752113">
<ele>1190.26</ele>
<time>2015-11-22T13:01:15Z</time>
</trkpt>
<trkpt lat="30.8114049" lon="35.6752274">
<ele>1190.36</ele>
<time>2015-11-22T13:01:17Z</time>
</trkpt>
<trkpt lat="30.8113604" lon="35.6752448">
<ele>1191.64</ele>
<time>2015-11-22T13:01:19Z</time>
</trkpt>
<trkpt lat="30.8113186" lon="35.6752708">
<ele>1191.45</ele>
<time>2015-11-22T13:01:21Z</time>
</trkpt>
<trkpt lat="30.8112732" lon="35.6752928">
<ele>1190.66</ele>
<time>2015-11-22T13:01:23Z</time>
</trkpt>
<trkpt lat="30.8112258" lon="35.6753141">
<ele>1190.96</ele>
<time>2015-11-22T13:01:25Z</time>
</trkpt>
<trkpt lat="30.8111764" lon="35.6753340">
<ele>1191.29</ele>
<time>2015-11-22T13:01:27Z</time>
</trkpt>
<trkpt lat="30.8111306" lon="35.6753590">
<ele>1192.12</ele>
<time>2015-11-22T13:01:29Z</time>
</trkpt>
<trkpt lat="30.8110854" lon="35.6753890">
<ele>1192.32</ele>
<time>2015-11-22T13:01:31Z</time>
</trkpt>
<trkpt lat="30.8110429" lon="35.6754169">
<ele>1193.13</ele>
<time>2015-11-22T13:01:33Z</time>
</trkpt>
<trkpt lat="30.8110023" lon="35.6754456">
<ele>1193.33</ele>
<time>2015-11-22T13:01:35Z</time>
</trkpt>
<trkpt lat="30.8109501" lon="35.6754627">
<ele>1192.51</ele>
<time>2015-11-22T13:01:38Z</time>
</trkpt>
<trkpt lat="30.8109017" lon="35.6754266">
<ele>1191.65</ele>
<time>2015-11-22T13:01:42Z</time>
</trkpt>
<trkpt lat="30.8108591" lon="35.6753913">
<ele>1191.80</ele>
<time>2015-11-22T13:01:45Z</time>
</trkpt>
<trkpt lat="30.8108240" lon="35.6753497">
<ele>1191.82</ele>
<time>2015-11-22T13:01:48Z</time>
</trkpt>
<trkpt lat="30.8108101" lon="35.6752864">
<ele>1190.82</ele>
<time>2015-11-22T13:01:51Z</time>
</trkpt>
<trkpt lat="30.8107982" lon="35.6752232">
<ele>1192.07</ele>
<time>2015-11-22T13:01:54Z</time>
</trkpt>
<trkpt lat="30.8108039" lon="35.6751633">
<ele>1192.85</ele>
<time>2015-11-22T13:01:57Z</time>
</trkpt>
<trkpt lat="30.8108255" lon="35.6751088">
<ele>1192.58</ele>
<time>2015-11-22T13:02:00Z</time>
</trkpt>
<trkpt lat="30.8108690" lon="35.6750671">
<ele>1192.92</ele>
<time>2015-11-22T13:02:03Z</time>
</trkpt>
<trkpt lat="30.8109188" lon="35.6750207">
<ele>1193.46</ele>
<time>2015-11-22T13:02:06Z</time>
</trkpt>
<trkpt lat="30.8109596" lon="35.6749709">
<ele>1194.66</ele>
<time>2015-11-22T13:02:08Z</time>
</trkpt>
<trkpt lat="30.8110043" lon="35.6749111">
<ele>1193.96</ele>
<time>2015-11-22T13:02:10Z</time>
</trkpt>
<trkpt lat="30.8110493" lon="35.6748414">
<ele>1194.04</ele>
<time>2015-11-22T13:02:12Z</time>
</trkpt>
<trkpt lat="30.8110990" lon="35.6747650">
<ele>1193.80</ele>
<time>2015-11-22T13:02:14Z</time>
</trkpt>
<trkpt lat="30.8111293" lon="35.6747241">
<ele>1193.60</ele>
<time>2015-11-22T13:02:15Z</time>
</trkpt>
<trkpt lat="30.8111850" lon="35.6746588">
<ele>1194.00</ele>
<time>2015-11-22T13:02:16Z</time>
</trkpt>
<trkpt lat="30.8112182" lon="35.6746128">
<ele>1194.20</ele>
<time>2015-11-22T13:02:17Z</time>
</trkpt>
<trkpt lat="30.8112543" lon="35.6745608">
<ele>1194.29</ele>
<time>2015-11-22T13:02:18Z</time>
</trkpt>
<trkpt lat="30.8112883" lon="35.6745071">
<ele>1194.34</ele>
<time>2015-11-22T13:02:19Z</time>
</trkpt>
<trkpt lat="30.8113280" lon="35.6744464">
<ele>1194.37</ele>
<time>2015-11-22T13:02:20Z</time>
</trkpt>
<trkpt lat="30.8113713" lon="35.6743914">
<ele>1194.88</ele>
<time>2015-11-22T13:02:21Z</time>
</trkpt>
<trkpt lat="30.8114177" lon="35.6743283">
<ele>1195.14</ele>
<time>2015-11-22T13:02:22Z</time>
</trkpt>
<trkpt lat="30.8114674" lon="35.6742597">
<ele>1194.77</ele>
<time>2015-11-22T13:02:23Z</time>
</trkpt>
<trkpt lat="30.8115122" lon="35.6742003">
<ele>1194.58</ele>
<time>2015-11-22T13:02:24Z</time>
</trkpt>
<trkpt lat="30.8115588" lon="35.6741388">
<ele>1193.99</ele>
<time>2015-11-22T13:02:25Z</time>
</trkpt>
<trkpt lat="30.8116071" lon="35.6740737">
<ele>1193.19</ele>
<time>2015-11-22T13:02:26Z</time>
</trkpt>
<trkpt lat="30.8116571" lon="35.6740228">
<ele>1192.29</ele>
<time>2015-11-22T13:02:27Z</time>
</trkpt>
<trkpt lat="30.8117097" lon="35.6739632">
<ele>1192.34</ele>
<time>2015-11-22T13:02:28Z</time>
</trkpt>
<trkpt lat="30.8117601" lon="35.6738916">
<ele>1192.37</ele>
<time>2015-11-22T13:02:29Z</time>
</trkpt>
<trkpt lat="30.8118083" lon="35.6738257">
<ele>1192.88</ele>
<time>2015-11-22T13:02:30Z</time>
</trkpt>
<trkpt lat="30.8118539" lon="35.6737744">
<ele>1192.64</ele>
<time>2015-11-22T13:02:31Z</time>
</trkpt>
<trkpt lat="30.8118998" lon="35.6737150">
<ele>1192.52</ele>
<time>2015-11-22T13:02:32Z</time>
</trkpt>
<trkpt lat="30.8119426" lon="35.6736572">
<ele>1193.45</ele>
<time>2015-11-22T13:02:33Z</time>
</trkpt>
<trkpt lat="30.8119852" lon="35.6736080">
<ele>1194.92</ele>
<time>2015-11-22T13:02:34Z</time>
</trkpt>
<trkpt lat="30.8120264" lon="35.6735694">
<ele>1194.66</ele>
<time>2015-11-22T13:02:35Z</time>
</trkpt>
<trkpt lat="30.8120592" lon="35.6735252">
<ele>1193.03</ele>
<time>2015-11-22T13:02:36Z</time>
</trkpt>
<trkpt lat="30.8121018" lon="35.6734547">
<ele>1193.05</ele>
<time>2015-11-22T13:02:38Z</time>
</trkpt>
<trkpt lat="30.8121272" lon="35.6733977">
<ele>1193.81</ele>
<time>2015-11-22T13:02:40Z</time>
</trkpt>
<trkpt lat="30.8121518" lon="35.6733533">
<ele>1192.25</ele>
<time>2015-11-22T13:02:42Z</time>
</trkpt>
<trkpt lat="30.8121790" lon="35.6733081">
<ele>1192.13</ele>
<time>2015-11-22T13:02:45Z</time>
</trkpt>
<trkpt lat="30.8122076" lon="35.6732627">
<ele>1191.11</ele>
<time>2015-11-22T13:02:48Z</time>
</trkpt>
<trkpt lat="30.8122340" lon="35.6732154">
<ele>1190.36</ele>
<time>2015-11-22T13:02:51Z</time>
</trkpt>
<trkpt lat="30.8122545" lon="35.6731681">
<ele>1191.51</ele>
<time>2015-11-22T13:02:54Z</time>
</trkpt>
<trkpt lat="30.8122845" lon="35.6731072">
<ele>1192.71</ele>
<time>2015-11-22T13:02:58Z</time>
</trkpt>
<trkpt lat="30.8123091" lon="35.6730596">
<ele>1194.18</ele>
<time>2015-11-22T13:03:01Z</time>
</trkpt>
<trkpt lat="30.8123296" lon="35.6729988">
<ele>1192.76</ele>
<time>2015-11-22T13:03:05Z</time>
</trkpt>
<trkpt lat="30.8123422" lon="35.6729348">
<ele>1193.98</ele>
<time>2015-11-22T13:03:09Z</time>
</trkpt>
<trkpt lat="30.8123487" lon="35.6728827">
<ele>1195.59</ele>
<time>2015-11-22T13:03:12Z</time>
</trkpt>
<trkpt lat="30.8123603" lon="35.6728280">
<ele>1196.17</ele>
<time>2015-11-22T13:03:15Z</time>
</trkpt>
<trkpt lat="30.8123756" lon="35.6727744">
<ele>1196.74</ele>
<time>2015-11-22T13:03:18Z</time>
</trkpt>
<trkpt lat="30.8123908" lon="35.6727204">
<ele>1197.44</ele>
<time>2015-11-22T13:03:21Z</time>
</trkpt>
<trkpt lat="30.8124029" lon="35.6726636">
<ele>1197.65</ele>
<time>2015-11-22T13:03:24Z</time>
</trkpt>
<trkpt lat="30.8124098" lon="35.6726066">
<ele>1200.18</ele>
<time>2015-11-22T13:03:27Z</time>
</trkpt>
<trkpt lat="30.8124106" lon="35.6725484">
<ele>1200.62</ele>
<time>2015-11-22T13:03:30Z</time>
</trkpt>
<trkpt lat="30.8124062" lon="35.6724874">
<ele>1200.42</ele>
<time>2015-11-22T13:03:33Z</time>
</trkpt>
<trkpt lat="30.8123955" lon="35.6724266">
<ele>1200.90</ele>
<time>2015-11-22T13:03:36Z</time>
</trkpt>
<trkpt lat="30.8123754" lon="35.6723682">
<ele>1200.21</ele>
<time>2015-11-22T13:03:39Z</time>
</trkpt>
<trkpt lat="30.8123579" lon="35.6723089">
<ele>1200.62</ele>
<time>2015-11-22T13:03:42Z</time>
</trkpt>
<trkpt lat="30.8123359" lon="35.6722601">
<ele>1199.42</ele>
<time>2015-11-22T13:03:45Z</time>
</trkpt>
<trkpt lat="30.8123088" lon="35.6722103">
<ele>1200.15</ele>
<time>2015-11-22T13:03:48Z</time>
</trkpt>
<trkpt lat="30.8122871" lon="35.6721567">
<ele>1200.11</ele>
<time>2015-11-22T13:03:51Z</time>
</trkpt>
<trkpt lat="30.8122610" lon="35.6721012">
<ele>1200.36</ele>
<time>2015-11-22T13:03:54Z</time>
</trkpt>
<trkpt lat="30.8122261" lon="35.6720546">
<ele>1198.51</ele>
<time>2015-11-22T13:03:57Z</time>
</trkpt>
<trkpt lat="30.8121985" lon="35.6720036">
<ele>1198.16</ele>
<time>2015-11-22T13:04:00Z</time>
</trkpt>
<trkpt lat="30.8121741" lon="35.6719482">
<ele>1198.49</ele>
<time>2015-11-22T13:04:03Z</time>
</trkpt>
<trkpt lat="30.8121444" lon="35.6718928">
<ele>1200.91</ele>
<time>2015-11-22T13:04:06Z</time>
</trkpt>
<trkpt lat="30.8121119" lon="35.6718459">
<ele>1200.58</ele>
<time>2015-11-22T13:04:09Z</time>
</trkpt>
<trkpt lat="30.8120778" lon="35.6717985">
<ele>1201.04</ele>
<time>2015-11-22T13:04:12Z</time>
</trkpt>
<trkpt lat="30.8120470" lon="35.6717485">
<ele>1200.85</ele>
<time>2015-11-22T13:04:15Z</time>
</trkpt>
<trkpt lat="30.8120155" lon="35.6717059">
<ele>1200.95</ele>
<time>2015-11-22T13:04:18Z</time>
</trkpt>
<trkpt lat="30.8119876" lon="35.6716646">
<ele>1198.96</ele>
<time>2015-11-22T13:04:21Z</time>
</trkpt>
<trkpt lat="30.8119650" lon="35.6716165">
<ele>1201.34</ele>
<time>2015-11-22T13:04:24Z</time>
</trkpt>
<trkpt lat="30.8119380" lon="35.6715648">
<ele>1202.64</ele>
<time>2015-11-22T13:04:27Z</time>
</trkpt>
<trkpt lat="30.8119045" lon="35.6715276">
<ele>1204.42</ele>
<time>2015-11-22T13:04:30Z</time>
</trkpt>
<trkpt lat="30.8118691" lon="35.6714941">
<ele>1204.65</ele>
<time>2015-11-22T13:04:33Z</time>
</trkpt>
<trkpt lat="30.8118418" lon="35.6714356">
<ele>1213.35</ele>
<time>2015-11-22T13:04:37Z</time>
</trkpt>
<trkpt lat="30.8118138" lon="35.6713772">
<ele>1219.45</ele>
<time>2015-11-22T13:04:41Z</time>
</trkpt>
<trkpt lat="30.8117852" lon="35.6713216">
<ele>1220.84</ele>
<time>2015-11-22T13:04:45Z</time>
</trkpt>
<trkpt lat="30.8117597" lon="35.6712744">
<ele>1222.20</ele>
<time>2015-11-22T13:04:48Z</time>
</trkpt>
<trkpt lat="30.8117296" lon="35.6712308">
<ele>1221.87</ele>
<time>2015-11-22T13:04:51Z</time>
</trkpt>
<trkpt lat="30.8116878" lon="35.6711982">
<ele>1222.33</ele>
<time>2015-11-22T13:04:54Z</time>
</trkpt>
<trkpt lat="30.8116534" lon="35.6711585">
<ele>1222.39</ele>
<time>2015-11-22T13:04:57Z</time>
</trkpt>
<trkpt lat="30.8116090" lon="35.6711452">
<ele>1221.14</ele>
<time>2015-11-22T13:05:00Z</time>
</trkpt>
<trkpt lat="30.8115618" lon="35.6711574">
<ele>1220.49</ele>
<time>2015-11-22T13:05:03Z</time>
</trkpt>
<trkpt lat="30.8115179" lon="35.6711718">
<ele>1219.03</ele>
<time>2015-11-22T13:05:06Z</time>
</trkpt>
<trkpt lat="30.8114707" lon="35.6711870">
<ele>1218.47</ele>
<time>2015-11-22T13:05:09Z</time>
</trkpt>
<trkpt lat="30.8114363" lon="35.6712226">
<ele>1217.91</ele>
<time>2015-11-22T13:05:11Z</time>
</trkpt>
<trkpt lat="30.8114221" lon="35.6712748">
<ele>1215.39</ele>
<time>2015-11-22T13:06:00Z</time>
</trkpt>
<trkpt lat="30.8113982" lon="35.6713424">
<ele>1218.77</ele>
<time>2015-11-22T13:16:18Z</time>
</trkpt>
<trkpt lat="30.8113548" lon="35.6714021">
<ele>1218.49</ele>
<time>2015-11-22T13:16:20Z</time>
</trkpt>
<trkpt lat="30.8113011" lon="35.6714783">
<ele>1217.92</ele>
<time>2015-11-22T13:16:22Z</time>
</trkpt>
<trkpt lat="30.8112458" lon="35.6715511">
<ele>1217.66</ele>
<time>2015-11-22T13:16:23Z</time>
</trkpt>
<trkpt lat="30.8112010" lon="35.6716069">
<ele>1217.52</ele>
<time>2015-11-22T13:16:24Z</time>
</trkpt>
<trkpt lat="30.8111587" lon="35.6716649">
<ele>1217.46</ele>
<time>2015-11-22T13:16:25Z</time>
</trkpt>
<trkpt lat="30.8111164" lon="35.6717217">
<ele>1217.43</ele>
<time>2015-11-22T13:16:26Z</time>
</trkpt>
<trkpt lat="30.8110837" lon="35.6717850">
<ele>1217.41</ele>
<time>2015-11-22T13:16:27Z</time>
</trkpt>
<trkpt lat="30.8110406" lon="35.6718436">
<ele>1216.90</ele>
<time>2015-11-22T13:16:28Z</time>
</trkpt>
<trkpt lat="30.8109879" lon="35.6719077">
<ele>1216.65</ele>
<time>2015-11-22T13:16:29Z</time>
</trkpt>
<trkpt lat="30.8109417" lon="35.6719730">
<ele>1217.02</ele>
<time>2015-11-22T13:16:30Z</time>
</trkpt>
<trkpt lat="30.8108893" lon="35.6720373">
<ele>1217.21</ele>
<time>2015-11-22T13:16:31Z</time>
</trkpt>
<trkpt lat="30.8108425" lon="35.6721050">
<ele>1217.30</ele>
<time>2015-11-22T13:16:32Z</time>
</trkpt>
<trkpt lat="30.8107913" lon="35.6721720">
<ele>1217.35</ele>
<time>2015-11-22T13:16:33Z</time>
</trkpt>
<trkpt lat="30.8107370" lon="35.6722446">
<ele>1217.37</ele>
<time>2015-11-22T13:16:34Z</time>
</trkpt>
<trkpt lat="30.8106878" lon="35.6723127">
<ele>1217.88</ele>
<time>2015-11-22T13:16:35Z</time>
</trkpt>
<trkpt lat="30.8106410" lon="35.6723819">
<ele>1217.64</ele>
<time>2015-11-22T13:16:36Z</time>
</trkpt>
<trkpt lat="30.8105954" lon="35.6724474">
<ele>1218.02</ele>
<time>2015-11-22T13:16:37Z</time>
</trkpt>
<trkpt lat="30.8105565" lon="35.6725170">
<ele>1217.71</ele>
<time>2015-11-22T13:16:38Z</time>
</trkpt>
<trkpt lat="30.8105195" lon="35.6725818">
<ele>1217.55</ele>
<time>2015-11-22T13:16:39Z</time>
</trkpt>
<trkpt lat="30.8105000" lon="35.6726594">
<ele>1216.47</ele>
<time>2015-11-22T13:16:40Z</time>
</trkpt>
<trkpt lat="30.8104591" lon="35.6727188">
<ele>1215.93</ele>
<time>2015-11-22T13:16:41Z</time>
</trkpt>
<trkpt lat="30.8104156" lon="35.6727763">
<ele>1215.66</ele>
<time>2015-11-22T13:16:42Z</time>
</trkpt>
<trkpt lat="30.8103678" lon="35.6728295">
<ele>1215.53</ele>
<time>2015-11-22T13:16:43Z</time>
</trkpt>
<trkpt lat="30.8103256" lon="35.6728942">
<ele>1215.46</ele>
<time>2015-11-22T13:16:44Z</time>
</trkpt>
<trkpt lat="30.8102763" lon="35.6729607">
<ele>1215.43</ele>
<time>2015-11-22T13:16:45Z</time>
</trkpt>
<trkpt lat="30.8102275" lon="35.6730318">
<ele>1215.41</ele>
<time>2015-11-22T13:16:46Z</time>
</trkpt>
<trkpt lat="30.8101800" lon="35.6731072">
<ele>1215.40</ele>
<time>2015-11-22T13:16:47Z</time>
</trkpt>
<trkpt lat="30.8101374" lon="35.6731805">
<ele>1215.40</ele>
<time>2015-11-22T13:16:48Z</time>
</trkpt>
<trkpt lat="30.8100906" lon="35.6732560">
<ele>1215.40</ele>
<time>2015-11-22T13:16:49Z</time>
</trkpt>
<trkpt lat="30.8100445" lon="35.6733297">
<ele>1215.40</ele>
<time>2015-11-22T13:16:50Z</time>
</trkpt>
<trkpt lat="30.8100016" lon="35.6734029">
<ele>1215.39</ele>
<time>2015-11-22T13:16:51Z</time>
</trkpt>
<trkpt lat="30.8099526" lon="35.6734758">
<ele>1215.39</ele>
<time>2015-11-22T13:16:52Z</time>
</trkpt>
<trkpt lat="30.8099077" lon="35.6735332">
<ele>1215.39</ele>
<time>2015-11-22T13:16:53Z</time>
</trkpt>
<trkpt lat="30.8098667" lon="35.6735984">
<ele>1215.39</ele>
<time>2015-11-22T13:16:54Z</time>
</trkpt>
<trkpt lat="30.8098209" lon="35.6736623">
<ele>1215.89</ele>
<time>2015-11-22T13:16:55Z</time>
</trkpt>
<trkpt lat="30.8097731" lon="35.6737192">
<ele>1216.14</ele>
<time>2015-11-22T13:16:56Z</time>
</trkpt>
<trkpt lat="30.8097372" lon="35.6737807">
<ele>1216.77</ele>
<time>2015-11-22T13:16:57Z</time>
</trkpt>
<trkpt lat="30.8096932" lon="35.6738428">
<ele>1217.08</ele>
<time>2015-11-22T13:16:58Z</time>
</trkpt>
<trkpt lat="30.8096584" lon="35.6739065">
<ele>1217.74</ele>
<time>2015-11-22T13:16:59Z</time>
</trkpt>
<trkpt lat="30.8096184" lon="35.6739639">
<ele>1218.57</ele>
<time>2015-11-22T13:17:00Z</time>
</trkpt>
<trkpt lat="30.8095817" lon="35.6740196">
<ele>1218.48</ele>
<time>2015-11-22T13:17:01Z</time>
</trkpt>
<trkpt lat="30.8095355" lon="35.6740783">
<ele>1217.94</ele>
<time>2015-11-22T13:17:02Z</time>
</trkpt>
<trkpt lat="30.8094998" lon="35.6741264">
<ele>1217.67</ele>
<time>2015-11-22T13:17:03Z</time>
</trkpt>
<trkpt lat="30.8094731" lon="35.6741804">
<ele>1218.03</ele>
<time>2015-11-22T13:17:04Z</time>
</trkpt>
<trkpt lat="30.8094475" lon="35.6742248">
<ele>1218.21</ele>
<time>2015-11-22T13:17:05Z</time>
</trkpt>
<trkpt lat="30.8094120" lon="35.6742730">
<ele>1218.30</ele>
<time>2015-11-22T13:17:06Z</time>
</trkpt>
<trkpt lat="30.8093744" lon="35.6743281">
<ele>1218.35</ele>
<time>2015-11-22T13:17:07Z</time>
</trkpt>
<trkpt lat="30.8093357" lon="35.6743834">
<ele>1217.87</ele>
<time>2015-11-22T13:17:08Z</time>
</trkpt>
<trkpt lat="30.8093010" lon="35.6744294">
<ele>1218.13</ele>
<time>2015-11-22T13:17:09Z</time>
</trkpt>
<trkpt lat="30.8092705" lon="35.6744710">
<ele>1218.76</ele>
<time>2015-11-22T13:17:10Z</time>
</trkpt>
<trkpt lat="30.8092338" lon="35.6745199">
<ele>1218.58</ele>
<time>2015-11-22T13:17:11Z</time>
</trkpt>
<trkpt lat="30.8092015" lon="35.6745665">
<ele>1218.49</ele>
<time>2015-11-22T13:17:12Z</time>
</trkpt>
<trkpt lat="30.8091685" lon="35.6746188">
<ele>1217.94</ele>
<time>2015-11-22T13:17:13Z</time>
</trkpt>
<trkpt lat="30.8091354" lon="35.6746695">
<ele>1217.67</ele>
<time>2015-11-22T13:17:14Z</time>
</trkpt>
<trkpt lat="30.8091001" lon="35.6747122">
<ele>1217.53</ele>
<time>2015-11-22T13:17:15Z</time>
</trkpt>
<trkpt lat="30.8090717" lon="35.6747570">
<ele>1216.96</ele>
<time>2015-11-22T13:17:16Z</time>
</trkpt>
<trkpt lat="30.8090366" lon="35.6748070">
<ele>1216.68</ele>
<time>2015-11-22T13:17:17Z</time>
</trkpt>
<trkpt lat="30.8089963" lon="35.6748548">
<ele>1216.54</ele>
<time>2015-11-22T13:17:18Z</time>
</trkpt>
<trkpt lat="30.8089578" lon="35.6748962">
<ele>1216.97</ele>
<time>2015-11-22T13:17:19Z</time>
</trkpt>
<trkpt lat="30.8089240" lon="35.6749316">
<ele>1217.18</ele>
<time>2015-11-22T13:17:20Z</time>
</trkpt>
<trkpt lat="30.8088934" lon="35.6749762">
<ele>1216.79</ele>
<time>2015-11-22T13:17:21Z</time>
</trkpt>
<trkpt lat="30.8088578" lon="35.6750207">
<ele>1216.59</ele>
<time>2015-11-22T13:17:22Z</time>
</trkpt>
<trkpt lat="30.8088180" lon="35.6750626">
<ele>1216.49</ele>
<time>2015-11-22T13:17:23Z</time>
</trkpt>
<trkpt lat="30.8087787" lon="35.6751024">
<ele>1216.44</ele>
<time>2015-11-22T13:17:24Z</time>
</trkpt>
<trkpt lat="30.8087432" lon="35.6751377">
<ele>1216.42</ele>
<time>2015-11-22T13:17:25Z</time>
</trkpt>
<trkpt lat="30.8087010" lon="35.6751887">
<ele>1215.91</ele>
<time>2015-11-22T13:17:26Z</time>
</trkpt>
<trkpt lat="30.8086653" lon="35.6752365">
<ele>1215.65</ele>
<time>2015-11-22T13:17:27Z</time>
</trkpt>
<trkpt lat="30.8086229" lon="35.6752827">
<ele>1216.02</ele>
<time>2015-11-22T13:17:28Z</time>
</trkpt>
<trkpt lat="30.8085737" lon="35.6753342">
<ele>1216.21</ele>
<time>2015-11-22T13:17:29Z</time>
</trkpt>
<trkpt lat="30.8085327" lon="35.6753825">
<ele>1216.30</ele>
<time>2015-11-22T13:17:30Z</time>
</trkpt>
<trkpt lat="30.8085002" lon="35.6754277">
<ele>1216.35</ele>
<time>2015-11-22T13:17:31Z</time>
</trkpt>
<trkpt lat="30.8084671" lon="35.6754709">
<ele>1216.37</ele>
<time>2015-11-22T13:17:32Z</time>
</trkpt>
<trkpt lat="30.8084247" lon="35.6755063">
<ele>1216.88</ele>
<time>2015-11-22T13:17:33Z</time>
</trkpt>
<trkpt lat="30.8083702" lon="35.6755542">
<ele>1217.14</ele>
<time>2015-11-22T13:17:34Z</time>
</trkpt>
<trkpt lat="30.8083318" lon="35.6755955">
<ele>1216.77</ele>
<time>2015-11-22T13:17:35Z</time>
</trkpt>
<trkpt lat="30.8082839" lon="35.6756482">
<ele>1216.58</ele>
<time>2015-11-22T13:17:36Z</time>
</trkpt>
<trkpt lat="30.8082368" lon="35.6756930">
<ele>1216.99</ele>
<time>2015-11-22T13:17:37Z</time>
</trkpt>
<trkpt lat="30.8081866" lon="35.6757428">
<ele>1217.19</ele>
<time>2015-11-22T13:17:38Z</time>
</trkpt>
<trkpt lat="30.8081319" lon="35.6757925">
<ele>1216.79</ele>
<time>2015-11-22T13:17:39Z</time>
</trkpt>
<trkpt lat="30.8080755" lon="35.6758457">
<ele>1216.59</ele>
<time>2015-11-22T13:17:40Z</time>
</trkpt>
<trkpt lat="30.8080200" lon="35.6758958">
<ele>1216.49</ele>
<time>2015-11-22T13:17:41Z</time>
</trkpt>
<trkpt lat="30.8079697" lon="35.6759511">
<ele>1216.44</ele>
<time>2015-11-22T13:17:42Z</time>
</trkpt>
<trkpt lat="30.8079061" lon="35.6760235">
<ele>1215.42</ele>
<time>2015-11-22T13:17:43Z</time>
</trkpt>
<trkpt lat="30.8078394" lon="35.6760865">
<ele>1214.91</ele>
<time>2015-11-22T13:17:44Z</time>
</trkpt>
<trkpt lat="30.8077720" lon="35.6761498">
<ele>1214.15</ele>
<time>2015-11-22T13:17:45Z</time>
</trkpt>
<trkpt lat="30.8077126" lon="35.6762119">
<ele>1213.77</ele>
<time>2015-11-22T13:17:46Z</time>
</trkpt>
<trkpt lat="30.8076486" lon="35.6762757">
<ele>1213.58</ele>
<time>2015-11-22T13:17:47Z</time>
</trkpt>
<trkpt lat="30.8075974" lon="35.6763295">
<ele>1212.99</ele>
<time>2015-11-22T13:17:48Z</time>
</trkpt>
<trkpt lat="30.8075350" lon="35.6763918">
<ele>1212.69</ele>
<time>2015-11-22T13:17:49Z</time>
</trkpt>
<trkpt lat="30.8074666" lon="35.6764557">
<ele>1212.04</ele>
<time>2015-11-22T13:17:50Z</time>
</trkpt>
<trkpt lat="30.8074051" lon="35.6765233">
<ele>1211.72</ele>
<time>2015-11-22T13:17:51Z</time>
</trkpt>
<trkpt lat="30.8073455" lon="35.6765888">
<ele>1211.06</ele>
<time>2015-11-22T13:17:52Z</time>
</trkpt>
<trkpt lat="30.8072821" lon="35.6766586">
<ele>1210.73</ele>
<time>2015-11-22T13:17:53Z</time>
</trkpt>
<trkpt lat="30.8072212" lon="35.6767178">
<ele>1210.56</ele>
<time>2015-11-22T13:17:54Z</time>
</trkpt>
<trkpt lat="30.8071600" lon="35.6767870">
<ele>1210.48</ele>
<time>2015-11-22T13:17:55Z</time>
</trkpt>
<trkpt lat="30.8071050" lon="35.6768538">
<ele>1210.94</ele>
<time>2015-11-22T13:17:56Z</time>
</trkpt>
<trkpt lat="30.8070451" lon="35.6769189">
<ele>1211.16</ele>
<time>2015-11-22T13:17:57Z</time>
</trkpt>
<trkpt lat="30.8069855" lon="35.6769832">
<ele>1211.28</ele>
<time>2015-11-22T13:17:58Z</time>
</trkpt>
<trkpt lat="30.8069220" lon="35.6770498">
<ele>1211.34</ele>
<time>2015-11-22T13:17:59Z</time>
</trkpt>
<trkpt lat="30.8068667" lon="35.6771160">
<ele>1210.87</ele>
<time>2015-11-22T13:18:00Z</time>
</trkpt>
<trkpt lat="30.8068018" lon="35.6771886">
<ele>1210.63</ele>
<time>2015-11-22T13:18:01Z</time>
</trkpt>
<trkpt lat="30.8067433" lon="35.6772616">
<ele>1210.01</ele>
<time>2015-11-22T13:18:02Z</time>
</trkpt>
<trkpt lat="30.8066782" lon="35.6773411">
<ele>1209.70</ele>
<time>2015-11-22T13:18:03Z</time>
</trkpt>
<trkpt lat="30.8066012" lon="35.6774165">
<ele>1209.05</ele>
<time>2015-11-22T13:18:04Z</time>
</trkpt>
<trkpt lat="30.8065352" lon="35.6774918">
<ele>1208.22</ele>
<time>2015-11-22T13:18:05Z</time>
</trkpt>
<trkpt lat="30.8064770" lon="35.6775676">
<ele>1207.81</ele>
<time>2015-11-22T13:18:06Z</time>
</trkpt>
<trkpt lat="30.8064185" lon="35.6776465">
<ele>1207.10</ele>
<time>2015-11-22T13:18:07Z</time>
</trkpt>
<trkpt lat="30.8063540" lon="35.6777235">
<ele>1206.75</ele>
<time>2015-11-22T13:18:08Z</time>
</trkpt>
<trkpt lat="30.8062834" lon="35.6778005">
<ele>1206.57</ele>
<time>2015-11-22T13:18:09Z</time>
</trkpt>
<trkpt lat="30.8062152" lon="35.6778775">
<ele>1206.48</ele>
<time>2015-11-22T13:18:10Z</time>
</trkpt>
<trkpt lat="30.8061636" lon="35.6779484">
<ele>1205.94</ele>
<time>2015-11-22T13:18:11Z</time>
</trkpt>
<trkpt lat="30.8061048" lon="35.6780253">
<ele>1205.67</ele>
<time>2015-11-22T13:18:12Z</time>
</trkpt>
<trkpt lat="30.8060316" lon="35.6781114">
<ele>1206.03</ele>
<time>2015-11-22T13:18:13Z</time>
</trkpt>
<trkpt lat="30.8059648" lon="35.6781924">
<ele>1206.21</ele>
<time>2015-11-22T13:18:14Z</time>
</trkpt>
<trkpt lat="30.8059089" lon="35.6782734">
<ele>1206.30</ele>
<time>2015-11-22T13:18:15Z</time>
</trkpt>
<trkpt lat="30.8058532" lon="35.6783612">
<ele>1206.85</ele>
<time>2015-11-22T13:18:16Z</time>
</trkpt>
<trkpt lat="30.8057916" lon="35.6784407">
<ele>1206.62</ele>
<time>2015-11-22T13:18:17Z</time>
</trkpt>
<trkpt lat="30.8057273" lon="35.6785214">
<ele>1206.01</ele>
<time>2015-11-22T13:18:18Z</time>
</trkpt>
<trkpt lat="30.8056782" lon="35.6785978">
<ele>1205.70</ele>
<time>2015-11-22T13:18:19Z</time>
</trkpt>
<trkpt lat="30.8056341" lon="35.6786636">
<ele>1206.55</ele>
<time>2015-11-22T13:18:20Z</time>
</trkpt>
<trkpt lat="30.8055859" lon="35.6787361">
<ele>1206.97</ele>
<time>2015-11-22T13:18:21Z</time>
</trkpt>
<trkpt lat="30.8055440" lon="35.6788066">
<ele>1206.68</ele>
<time>2015-11-22T13:18:22Z</time>
</trkpt>
<trkpt lat="30.8054957" lon="35.6788760">
<ele>1206.54</ele>
<time>2015-11-22T13:18:23Z</time>
</trkpt>
<trkpt lat="30.8054541" lon="35.6789414">
<ele>1206.47</ele>
<time>2015-11-22T13:18:24Z</time>
</trkpt>
<trkpt lat="30.8054002" lon="35.6790087">
<ele>1206.43</ele>
<time>2015-11-22T13:18:25Z</time>
</trkpt>
<trkpt lat="30.8053538" lon="35.6790778">
<ele>1205.91</ele>
<time>2015-11-22T13:18:26Z</time>
</trkpt>
<trkpt lat="30.8053057" lon="35.6791456">
<ele>1205.65</ele>
<time>2015-11-22T13:18:27Z</time>
</trkpt>
<trkpt lat="30.8052727" lon="35.6792087">
<ele>1206.02</ele>
<time>2015-11-22T13:18:28Z</time>
</trkpt>
<trkpt lat="30.8052210" lon="35.6792749">
<ele>1206.71</ele>
<time>2015-11-22T13:18:29Z</time>
</trkpt>
<trkpt lat="30.8051890" lon="35.6793322">
<ele>1207.55</ele>
<time>2015-11-22T13:18:30Z</time>
</trkpt>
<trkpt lat="30.8051466" lon="35.6793929">
<ele>1208.47</ele>
<time>2015-11-22T13:18:31Z</time>
</trkpt>
<trkpt lat="30.8051012" lon="35.6794643">
<ele>1207.93</ele>
<time>2015-11-22T13:18:32Z</time>
</trkpt>
<trkpt lat="30.8050687" lon="35.6795155">
<ele>1207.66</ele>
<time>2015-11-22T13:18:33Z</time>
</trkpt>
<trkpt lat="30.8050261" lon="35.6795727">
<ele>1208.03</ele>
<time>2015-11-22T13:18:34Z</time>
</trkpt>
<trkpt lat="30.8049946" lon="35.6796258">
<ele>1208.21</ele>
<time>2015-11-22T13:18:35Z</time>
</trkpt>
<trkpt lat="30.8049586" lon="35.6796696">
<ele>1207.80</ele>
<time>2015-11-22T13:18:36Z</time>
</trkpt>
<trkpt lat="30.8049312" lon="35.6797159">
<ele>1208.10</ele>
<time>2015-11-22T13:18:37Z</time>
</trkpt>
<trkpt lat="30.8049062" lon="35.6797659">
<ele>1208.25</ele>
<time>2015-11-22T13:18:38Z</time>
</trkpt>
<trkpt lat="30.8048666" lon="35.6798490">
<ele>1207.11</ele>
<time>2015-11-22T13:18:40Z</time>
</trkpt>
<trkpt lat="30.8048365" lon="35.6798923">
<ele>1207.25</ele>
<time>2015-11-22T13:18:41Z</time>
</trkpt>
<trkpt lat="30.8047927" lon="35.6799714">
<ele>1207.36</ele>
<time>2015-11-22T13:18:43Z</time>
</trkpt>
<trkpt lat="30.8047477" lon="35.6800408">
<ele>1207.14</ele>
<time>2015-11-22T13:18:45Z</time>
</trkpt>
<trkpt lat="30.8047152" lon="35.6801122">
<ele>1208.08</ele>
<time>2015-11-22T13:18:47Z</time>
</trkpt>
<trkpt lat="30.8046808" lon="35.6801765">
<ele>1209.07</ele>
<time>2015-11-22T13:18:49Z</time>
</trkpt>
<trkpt lat="30.8046292" lon="35.6802475">
<ele>1208.56</ele>
<time>2015-11-22T13:18:51Z</time>
</trkpt>
<trkpt lat="30.8045908" lon="35.6803117">
<ele>1208.44</ele>
<time>2015-11-22T13:18:53Z</time>
</trkpt>
<trkpt lat="30.8045503" lon="35.6803752">
<ele>1208.90</ele>
<time>2015-11-22T13:18:55Z</time>
</trkpt>
<trkpt lat="30.8045082" lon="35.6804370">
<ele>1210.02</ele>
<time>2015-11-22T13:18:57Z</time>
</trkpt>
<trkpt lat="30.8044713" lon="35.6805010">
<ele>1209.30</ele>
<time>2015-11-22T13:18:59Z</time>
</trkpt>
<trkpt lat="30.8044322" lon="35.6805609">
<ele>1209.12</ele>
<time>2015-11-22T13:19:01Z</time>
</trkpt>
<trkpt lat="30.8043926" lon="35.6806233">
<ele>1209.58</ele>
<time>2015-11-22T13:19:03Z</time>
</trkpt>
<trkpt lat="30.8043553" lon="35.6806901">
<ele>1206.44</ele>
<time>2015-11-22T13:19:05Z</time>
</trkpt>
<trkpt lat="30.8043179" lon="35.6807560">
<ele>1205.91</ele>
<time>2015-11-22T13:19:07Z</time>
</trkpt>
<trkpt lat="30.8042834" lon="35.6808163">
<ele>1206.52</ele>
<time>2015-11-22T13:19:09Z</time>
</trkpt>
<trkpt lat="30.8042483" lon="35.6808737">
<ele>1206.93</ele>
<time>2015-11-22T13:19:11Z</time>
</trkpt>
<trkpt lat="30.8042114" lon="35.6809310">
<ele>1208.53</ele>
<time>2015-11-22T13:19:13Z</time>
</trkpt>
<trkpt lat="30.8041772" lon="35.6809877">
<ele>1209.68</ele>
<time>2015-11-22T13:19:15Z</time>
</trkpt>
<trkpt lat="30.8041431" lon="35.6810427">
<ele>1210.96</ele>
<time>2015-11-22T13:19:17Z</time>
</trkpt>
<trkpt lat="30.8041109" lon="35.6810960">
<ele>1212.04</ele>
<time>2015-11-22T13:19:19Z</time>
</trkpt>
<trkpt lat="30.8040820" lon="35.6811461">
<ele>1211.30</ele>
<time>2015-11-22T13:19:21Z</time>
</trkpt>
<trkpt lat="30.8040509" lon="35.6811965">
<ele>1211.87</ele>
<time>2015-11-22T13:19:23Z</time>
</trkpt>
<trkpt lat="30.8040201" lon="35.6812495">
<ele>1213.51</ele>
<time>2015-11-22T13:19:25Z</time>
</trkpt>
<trkpt lat="30.8039849" lon="35.6813020">
<ele>1214.42</ele>
<time>2015-11-22T13:19:27Z</time>
</trkpt>
<trkpt lat="30.8039500" lon="35.6813561">
<ele>1214.90</ele>
<time>2015-11-22T13:19:29Z</time>
</trkpt>
<trkpt lat="30.8039184" lon="35.6814115">
<ele>1215.27</ele>
<time>2015-11-22T13:19:31Z</time>
</trkpt>
<trkpt lat="30.8038859" lon="35.6814671">
<ele>1216.11</ele>
<time>2015-11-22T13:19:33Z</time>
</trkpt>
<trkpt lat="30.8038538" lon="35.6815207">
<ele>1216.57</ele>
<time>2015-11-22T13:19:35Z</time>
</trkpt>
<trkpt lat="30.8038196" lon="35.6815773">
<ele>1216.94</ele>
<time>2015-11-22T13:19:37Z</time>
</trkpt>
<trkpt lat="30.8037863" lon="35.6816362">
<ele>1217.28</ele>
<time>2015-11-22T13:19:39Z</time>
</trkpt>
<trkpt lat="30.8037536" lon="35.6816916">
<ele>1218.12</ele>
<time>2015-11-22T13:19:41Z</time>
</trkpt>
<trkpt lat="30.8037211" lon="35.6817462">
<ele>1218.82</ele>
<time>2015-11-22T13:19:43Z</time>
</trkpt>
<trkpt lat="30.8036894" lon="35.6818028">
<ele>1218.50</ele>
<time>2015-11-22T13:19:45Z</time>
</trkpt>
<trkpt lat="30.8036622" lon="35.6818596">
<ele>1218.67</ele>
<time>2015-11-22T13:19:47Z</time>
</trkpt>
<trkpt lat="30.8036312" lon="35.6819168">
<ele>1218.46</ele>
<time>2015-11-22T13:19:49Z</time>
</trkpt>
<trkpt lat="30.8035955" lon="35.6819764">
<ele>1217.91</ele>
<time>2015-11-22T13:19:51Z</time>
</trkpt>
<trkpt lat="30.8035612" lon="35.6820338">
<ele>1218.02</ele>
<time>2015-11-22T13:19:53Z</time>
</trkpt>
<trkpt lat="30.8035274" lon="35.6820917">
<ele>1218.80</ele>
<time>2015-11-22T13:19:55Z</time>
</trkpt>
<trkpt lat="30.8034946" lon="35.6821494">
<ele>1219.25</ele>
<time>2015-11-22T13:19:57Z</time>
</trkpt>
<trkpt lat="30.8034632" lon="35.6822092">
<ele>1218.61</ele>
<time>2015-11-22T13:19:59Z</time>
</trkpt>
<trkpt lat="30.8034218" lon="35.6822730">
<ele>1218.45</ele>
<time>2015-11-22T13:20:01Z</time>
</trkpt>
<trkpt lat="30.8033780" lon="35.6823490">
<ele>1217.91</ele>
<time>2015-11-22T13:20:03Z</time>
</trkpt>
<trkpt lat="30.8033368" lon="35.6824334">
<ele>1217.77</ele>
<time>2015-11-22T13:20:05Z</time>
</trkpt>
<trkpt lat="30.8032961" lon="35.6825206">
<ele>1216.99</ele>
<time>2015-11-22T13:20:07Z</time>
</trkpt>
<trkpt lat="30.8032522" lon="35.6826074">
<ele>1216.54</ele>
<time>2015-11-22T13:20:09Z</time>
</trkpt>
<trkpt lat="30.8032254" lon="35.6826639">
<ele>1216.47</ele>
<time>2015-11-22T13:20:10Z</time>
</trkpt>
<trkpt lat="30.8031865" lon="35.6827470">
<ele>1217.16</ele>
<time>2015-11-22T13:20:12Z</time>
</trkpt>
<trkpt lat="30.8031587" lon="35.6827974">
<ele>1217.28</ele>
<time>2015-11-22T13:20:13Z</time>
</trkpt>
<trkpt lat="30.8031297" lon="35.6828432">
<ele>1217.84</ele>
<time>2015-11-22T13:20:14Z</time>
</trkpt>
<trkpt lat="30.8031067" lon="35.6828905">
<ele>1218.12</ele>
<time>2015-11-22T13:20:15Z</time>
</trkpt>
<trkpt lat="30.8030759" lon="35.6829445">
<ele>1218.25</ele>
<time>2015-11-22T13:20:16Z</time>
</trkpt>
<trkpt lat="30.8030429" lon="35.6829981">
<ele>1217.82</ele>
<time>2015-11-22T13:20:17Z</time>
</trkpt>
<trkpt lat="30.8030173" lon="35.6830475">
<ele>1218.11</ele>
<time>2015-11-22T13:20:18Z</time>
</trkpt>
<trkpt lat="30.8029879" lon="35.6830966">
<ele>1218.25</ele>
<time>2015-11-22T13:20:19Z</time>
</trkpt>
<trkpt lat="30.8029635" lon="35.6831466">
<ele>1218.32</ele>
<time>2015-11-22T13:20:20Z</time>
</trkpt>
<trkpt lat="30.8029408" lon="35.6831941">
<ele>1218.36</ele>
<time>2015-11-22T13:20:21Z</time>
</trkpt>
<trkpt lat="30.8029204" lon="35.6832414">
<ele>1218.88</ele>
<time>2015-11-22T13:20:22Z</time>
</trkpt>
<trkpt lat="30.8028929" lon="35.6832872">
<ele>1219.64</ele>
<time>2015-11-22T13:20:23Z</time>
</trkpt>
<trkpt lat="30.8028705" lon="35.6833381">
<ele>1220.01</ele>
<time>2015-11-22T13:20:24Z</time>
</trkpt>
<trkpt lat="30.8028451" lon="35.6833908">
<ele>1220.70</ele>
<time>2015-11-22T13:20:25Z</time>
</trkpt>
<trkpt lat="30.8028146" lon="35.6834418">
<ele>1221.05</ele>
<time>2015-11-22T13:20:26Z</time>
</trkpt>
<trkpt lat="30.8027928" lon="35.6834960">
<ele>1220.72</ele>
<time>2015-11-22T13:20:27Z</time>
</trkpt>
<trkpt lat="30.8027707" lon="35.6835434">
<ele>1221.06</ele>
<time>2015-11-22T13:20:28Z</time>
</trkpt>
<trkpt lat="30.8027460" lon="35.6835912">
<ele>1221.23</ele>
<time>2015-11-22T13:20:29Z</time>
</trkpt>
<trkpt lat="30.8027192" lon="35.6836412">
<ele>1221.81</ele>
<time>2015-11-22T13:20:30Z</time>
</trkpt>
<trkpt lat="30.8026964" lon="35.6836902">
<ele>1222.10</ele>
<time>2015-11-22T13:20:31Z</time>
</trkpt>
<trkpt lat="30.8026688" lon="35.6837437">
<ele>1222.25</ele>
<time>2015-11-22T13:20:32Z</time>
</trkpt>
<trkpt lat="30.8026458" lon="35.6837942">
<ele>1221.82</ele>
<time>2015-11-22T13:20:33Z</time>
</trkpt>
<trkpt lat="30.8026159" lon="35.6838399">
<ele>1222.11</ele>
<time>2015-11-22T13:20:34Z</time>
</trkpt>
<trkpt lat="30.8025814" lon="35.6839255">
<ele>1221.57</ele>
<time>2015-11-22T13:20:36Z</time>
</trkpt>
<trkpt lat="30.8025525" lon="35.6839794">
<ele>1220.98</ele>
<time>2015-11-22T13:20:37Z</time>
</trkpt>
<trkpt lat="30.8025184" lon="35.6840375">
<ele>1220.69</ele>
<time>2015-11-22T13:20:38Z</time>
</trkpt>
<trkpt lat="30.8024964" lon="35.6840928">
<ele>1220.54</ele>
<time>2015-11-22T13:20:39Z</time>
</trkpt>
<trkpt lat="30.8024767" lon="35.6841414">
<ele>1219.97</ele>
<time>2015-11-22T13:20:40Z</time>
</trkpt>
<trkpt lat="30.8024479" lon="35.6841872">
<ele>1220.18</ele>
<time>2015-11-22T13:20:41Z</time>
</trkpt>
<trkpt lat="30.8024156" lon="35.6842801">
<ele>1220.84</ele>
<time>2015-11-22T13:20:43Z</time>
</trkpt>
<trkpt lat="30.8023834" lon="35.6843305">
<ele>1221.12</ele>
<time>2015-11-22T13:20:44Z</time>
</trkpt>
<trkpt lat="30.8023595" lon="35.6843814">
<ele>1221.26</ele>
<time>2015-11-22T13:20:45Z</time>
</trkpt>
<trkpt lat="30.8023296" lon="35.6844290">
<ele>1221.82</ele>
<time>2015-11-22T13:20:46Z</time>
</trkpt>
<trkpt lat="30.8023032" lon="35.6844720">
<ele>1221.61</ele>
<time>2015-11-22T13:20:47Z</time>
</trkpt>
<trkpt lat="30.8022793" lon="35.6845228">
<ele>1221.50</ele>
<time>2015-11-22T13:20:48Z</time>
</trkpt>
<trkpt lat="30.8022555" lon="35.6845787">
<ele>1221.45</ele>
<time>2015-11-22T13:20:49Z</time>
</trkpt>
<trkpt lat="30.8022311" lon="35.6846384">
<ele>1220.92</ele>
<time>2015-11-22T13:20:50Z</time>
</trkpt>
<trkpt lat="30.8022041" lon="35.6846850">
<ele>1221.16</ele>
<time>2015-11-22T13:20:51Z</time>
</trkpt>
<trkpt lat="30.8021813" lon="35.6847418">
<ele>1220.78</ele>
<time>2015-11-22T13:20:52Z</time>
</trkpt>
<trkpt lat="30.8021570" lon="35.6847969">
<ele>1220.08</ele>
<time>2015-11-22T13:20:53Z</time>
</trkpt>
<trkpt lat="30.8021273" lon="35.6848468">
<ele>1219.74</ele>
<time>2015-11-22T13:20:54Z</time>
</trkpt>
<trkpt lat="30.8021098" lon="35.6849082">
<ele>1219.57</ele>
<time>2015-11-22T13:20:55Z</time>
</trkpt>
<trkpt lat="30.8020834" lon="35.6849584">
<ele>1219.48</ele>
<time>2015-11-22T13:20:56Z</time>
</trkpt>
<trkpt lat="30.8020510" lon="35.6850071">
<ele>1219.44</ele>
<time>2015-11-22T13:20:57Z</time>
</trkpt>
<trkpt lat="30.8020258" lon="35.6850540">
<ele>1218.92</ele>
<time>2015-11-22T13:20:58Z</time>
</trkpt>
<trkpt lat="30.8020023" lon="35.6851012">
<ele>1219.15</ele>
<time>2015-11-22T13:20:59Z</time>
</trkpt>
<trkpt lat="30.8019737" lon="35.6851516">
<ele>1219.27</ele>
<time>2015-11-22T13:21:00Z</time>
</trkpt>
<trkpt lat="30.8019487" lon="35.6852088">
<ele>1219.33</ele>
<time>2015-11-22T13:21:01Z</time>
</trkpt>
<trkpt lat="30.8019221" lon="35.6852568">
<ele>1219.36</ele>
<time>2015-11-22T13:21:02Z</time>
</trkpt>
<trkpt lat="30.8018923" lon="35.6853035">
<ele>1219.88</ele>
<time>2015-11-22T13:21:03Z</time>
</trkpt>
<trkpt lat="30.8018534" lon="35.6853602">
<ele>1220.14</ele>
<time>2015-11-22T13:21:04Z</time>
</trkpt>
<trkpt lat="30.8018242" lon="35.6854031">
<ele>1220.77</ele>
<time>2015-11-22T13:21:05Z</time>
</trkpt>
<trkpt lat="30.8017971" lon="35.6854560">
<ele>1220.58</ele>
<time>2015-11-22T13:21:06Z</time>
</trkpt>
<trkpt lat="30.8017632" lon="35.6855088">
<ele>1220.99</ele>
<time>2015-11-22T13:21:07Z</time>
</trkpt>
<trkpt lat="30.8017395" lon="35.6855634">
<ele>1220.69</ele>
<time>2015-11-22T13:21:08Z</time>
</trkpt>
<trkpt lat="30.8017112" lon="35.6856100">
<ele>1221.04</ele>
<time>2015-11-22T13:21:09Z</time>
</trkpt>
<trkpt lat="30.8016902" lon="35.6856639">
<ele>1221.22</ele>
<time>2015-11-22T13:21:10Z</time>
</trkpt>
<trkpt lat="30.8016673" lon="35.6857158">
<ele>1221.31</ele>
<time>2015-11-22T13:21:11Z</time>
</trkpt>
<trkpt lat="30.8016357" lon="35.6857613">
<ele>1221.35</ele>
<time>2015-11-22T13:21:12Z</time>
</trkpt>
<trkpt lat="30.8016164" lon="35.6858132">
<ele>1221.37</ele>
<time>2015-11-22T13:21:13Z</time>
</trkpt>
<trkpt lat="30.8015858" lon="35.6858645">
<ele>1221.88</ele>
<time>2015-11-22T13:21:14Z</time>
</trkpt>
<trkpt lat="30.8015598" lon="35.6859148">
<ele>1222.14</ele>
<time>2015-11-22T13:21:15Z</time>
</trkpt>
<trkpt lat="30.8015338" lon="35.6859623">
<ele>1222.27</ele>
<time>2015-11-22T13:21:16Z</time>
</trkpt>
<trkpt lat="30.8015080" lon="35.6860089">
<ele>1222.83</ele>
<time>2015-11-22T13:21:17Z</time>
</trkpt>
<trkpt lat="30.8014886" lon="35.6860638">
<ele>1223.61</ele>
<time>2015-11-22T13:21:18Z</time>
</trkpt>
<trkpt lat="30.8014537" lon="35.6861160">
<ele>1224.00</ele>
<time>2015-11-22T13:21:19Z</time>
</trkpt>
<trkpt lat="30.8014305" lon="35.6861736">
<ele>1224.20</ele>
<time>2015-11-22T13:21:20Z</time>
</trkpt>
<trkpt lat="30.8013962" lon="35.6862312">
<ele>1224.80</ele>
<time>2015-11-22T13:21:21Z</time>
</trkpt>
<trkpt lat="30.8013510" lon="35.6863294">
<ele>1224.99</ele>
<time>2015-11-22T13:21:23Z</time>
</trkpt>
<trkpt lat="30.8013042" lon="35.6864324">
<ele>1224.54</ele>
<time>2015-11-22T13:21:25Z</time>
</trkpt>
<trkpt lat="30.8012594" lon="35.6865143">
<ele>1224.43</ele>
<time>2015-11-22T13:21:27Z</time>
</trkpt>
<trkpt lat="30.8012152" lon="35.6865958">
<ele>1224.90</ele>
<time>2015-11-22T13:21:29Z</time>
</trkpt>
<trkpt lat="30.8011766" lon="35.6866840">
<ele>1225.27</ele>
<time>2015-11-22T13:21:31Z</time>
</trkpt>
<trkpt lat="30.8011516" lon="35.6867489">
<ele>1224.61</ele>
<time>2015-11-22T13:21:33Z</time>
</trkpt>
<trkpt lat="30.8011120" lon="35.6868109">
<ele>1224.45</ele>
<time>2015-11-22T13:21:35Z</time>
</trkpt>
<trkpt lat="30.8010781" lon="35.6868853">
<ele>1223.91</ele>
<time>2015-11-22T13:21:37Z</time>
</trkpt>
<trkpt lat="30.8010658" lon="35.6869380">
<ele>1223.52</ele>
<time>2015-11-22T13:21:39Z</time>
</trkpt>
<trkpt lat="30.8010303" lon="35.6870014">
<ele>1223.41</ele>
<time>2015-11-22T13:21:42Z</time>
</trkpt>
<trkpt lat="30.8009922" lon="35.6870649">
<ele>1224.15</ele>
<time>2015-11-22T13:21:45Z</time>
</trkpt>
<trkpt lat="30.8009668" lon="35.6871089">
<ele>1224.83</ele>
<time>2015-11-22T13:21:47Z</time>
</trkpt>
<trkpt lat="30.8009404" lon="35.6871555">
<ele>1225.25</ele>
<time>2015-11-22T13:21:49Z</time>
</trkpt>
<trkpt lat="30.8009158" lon="35.6872032">
<ele>1226.11</ele>
<time>2015-11-22T13:21:51Z</time>
</trkpt>
<trkpt lat="30.8008923" lon="35.6872495">
<ele>1227.07</ele>
<time>2015-11-22T13:21:53Z</time>
</trkpt>
<trkpt lat="30.8008597" lon="35.6873096">
<ele>1228.23</ele>
<time>2015-11-22T13:21:56Z</time>
</trkpt>
<trkpt lat="30.8008367" lon="35.6873636">
<ele>1229.12</ele>
<time>2015-11-22T13:21:59Z</time>
</trkpt>
<trkpt lat="30.8008223" lon="35.6874161">
<ele>1229.11</ele>
<time>2015-11-22T13:22:02Z</time>
</trkpt>
<trkpt lat="30.8007896" lon="35.6874690">
<ele>1229.25</ele>
<time>2015-11-22T13:22:06Z</time>
</trkpt>
<trkpt lat="30.8007686" lon="35.6875338">
<ele>1229.39</ele>
<time>2015-11-22T13:22:10Z</time>
</trkpt>
<trkpt lat="30.8007399" lon="35.6875940">
<ele>1229.39</ele>
<time>2015-11-22T13:22:14Z</time>
</trkpt>
<trkpt lat="30.8007166" lon="35.6876567">
<ele>1226.08</ele>
<time>2015-11-22T13:22:18Z</time>
</trkpt>
<trkpt lat="30.8006997" lon="35.6877056">
<ele>1222.85</ele>
<time>2015-11-22T13:22:21Z</time>
</trkpt>
<trkpt lat="30.8006736" lon="35.6877518">
<ele>1224.08</ele>
<time>2015-11-22T13:22:24Z</time>
</trkpt>
<trkpt lat="30.8006432" lon="35.6878003">
<ele>1225.23</ele>
<time>2015-11-22T13:22:27Z</time>
</trkpt>
<trkpt lat="30.8006213" lon="35.6878548">
<ele>1225.62</ele>
<time>2015-11-22T13:22:30Z</time>
</trkpt>
<trkpt lat="30.8006033" lon="35.6879111">
<ele>1224.92</ele>
<time>2015-11-22T13:22:33Z</time>
</trkpt>
<trkpt lat="30.8005812" lon="35.6879630">
<ele>1225.34</ele>
<time>2015-11-22T13:22:36Z</time>
</trkpt>
<trkpt lat="30.8005658" lon="35.6880148">
<ele>1225.39</ele>
<time>2015-11-22T13:22:39Z</time>
</trkpt>
<trkpt lat="30.8005453" lon="35.6880681">
<ele>1225.89</ele>
<time>2015-11-22T13:22:42Z</time>
</trkpt>
<trkpt lat="30.8005198" lon="35.6881205">
<ele>1226.33</ele>
<time>2015-11-22T13:22:45Z</time>
</trkpt>
<trkpt lat="30.8004948" lon="35.6881747">
<ele>1226.39</ele>
<time>2015-11-22T13:22:48Z</time>
</trkpt>
<trkpt lat="30.8004746" lon="35.6882272">
<ele>1226.39</ele>
<time>2015-11-22T13:22:51Z</time>
</trkpt>
<trkpt lat="30.8004606" lon="35.6882863">
<ele>1226.02</ele>
<time>2015-11-22T13:22:55Z</time>
</trkpt>
<trkpt lat="30.8004367" lon="35.6883471">
<ele>1226.25</ele>
<time>2015-11-22T13:22:59Z</time>
</trkpt>
<trkpt lat="30.8004186" lon="35.6883989">
<ele>1226.13</ele>
<time>2015-11-22T13:23:02Z</time>
</trkpt>
<trkpt lat="30.8003973" lon="35.6884487">
<ele>1226.24</ele>
<time>2015-11-22T13:23:05Z</time>
</trkpt>
<trkpt lat="30.8003747" lon="35.6884969">
<ele>1226.12</ele>
<time>2015-11-22T13:23:08Z</time>
</trkpt>
<trkpt lat="30.8003546" lon="35.6885468">
<ele>1226.36</ele>
<time>2015-11-22T13:23:11Z</time>
</trkpt>
<trkpt lat="30.8003318" lon="35.6885946">
<ele>1226.39</ele>
<time>2015-11-22T13:23:14Z</time>
</trkpt>
<trkpt lat="30.8003055" lon="35.6886434">
<ele>1226.64</ele>
<time>2015-11-22T13:23:17Z</time>
</trkpt>
<trkpt lat="30.8002830" lon="35.6886958">
<ele>1227.05</ele>
<time>2015-11-22T13:23:20Z</time>
</trkpt>
<trkpt lat="30.8002638" lon="35.6887497">
<ele>1227.98</ele>
<time>2015-11-22T13:23:23Z</time>
</trkpt>
<trkpt lat="30.8002493" lon="35.6888015">
<ele>1227.47</ele>
<time>2015-11-22T13:23:26Z</time>
</trkpt>
<trkpt lat="30.8002315" lon="35.6888536">
<ele>1228.28</ele>
<time>2015-11-22T13:23:29Z</time>
</trkpt>
<trkpt lat="30.8002120" lon="35.6889076">
<ele>1228.38</ele>
<time>2015-11-22T13:23:32Z</time>
</trkpt>
<trkpt lat="30.8001955" lon="35.6889642">
<ele>1228.39</ele>
<time>2015-11-22T13:23:35Z</time>
</trkpt>
<trkpt lat="30.8001818" lon="35.6890159">
<ele>1228.27</ele>
<time>2015-11-22T13:23:38Z</time>
</trkpt>
<trkpt lat="30.8001696" lon="35.6890709">
<ele>1228.38</ele>
<time>2015-11-22T13:23:41Z</time>
</trkpt>
<trkpt lat="30.8001554" lon="35.6891293">
<ele>1228.39</ele>
<time>2015-11-22T13:23:44Z</time>
</trkpt>
<trkpt lat="30.8001407" lon="35.6891891">
<ele>1229.14</ele>
<time>2015-11-22T13:23:47Z</time>
</trkpt>
<trkpt lat="30.8001258" lon="35.6892458">
<ele>1228.49</ele>
<time>2015-11-22T13:23:50Z</time>
</trkpt>
<trkpt lat="30.8001154" lon="35.6892992">
<ele>1228.41</ele>
<time>2015-11-22T13:23:53Z</time>
</trkpt>
<trkpt lat="30.8000976" lon="35.6893556">
<ele>1228.39</ele>
<time>2015-11-22T13:23:57Z</time>
</trkpt>
<trkpt lat="30.8000757" lon="35.6894195">
<ele>1229.14</ele>
<time>2015-11-22T13:24:01Z</time>
</trkpt>
<trkpt lat="30.8000532" lon="35.6894665">
<ele>1229.86</ele>
<time>2015-11-22T13:24:04Z</time>
</trkpt>
<trkpt lat="30.8000304" lon="35.6895139">
<ele>1230.33</ele>
<time>2015-11-22T13:24:07Z</time>
</trkpt>
<trkpt lat="30.8000114" lon="35.6895755">
<ele>1228.64</ele>
<time>2015-11-22T13:24:11Z</time>
</trkpt>
<trkpt lat="30.8000019" lon="35.6896338">
<ele>1227.10</ele>
<time>2015-11-22T13:24:15Z</time>
</trkpt>
<trkpt lat="30.7999700" lon="35.6896948">
<ele>1227.69</ele>
<time>2015-11-22T13:24:19Z</time>
</trkpt>
<trkpt lat="30.7999534" lon="35.6897452">
<ele>1227.18</ele>
<time>2015-11-22T13:24:22Z</time>
</trkpt>
<trkpt lat="30.7999389" lon="35.6897978">
<ele>1226.99</ele>
<time>2015-11-22T13:24:25Z</time>
</trkpt>
<trkpt lat="30.7999168" lon="35.6898500">
<ele>1228.59</ele>
<time>2015-11-22T13:24:28Z</time>
</trkpt>
<trkpt lat="30.7999038" lon="35.6899024">
<ele>1230.17</ele>
<time>2015-11-22T13:24:31Z</time>
</trkpt>
<trkpt lat="30.7998951" lon="35.6899539">
<ele>1231.49</ele>
<time>2015-11-22T13:24:34Z</time>
</trkpt>
<trkpt lat="30.7998772" lon="35.6900045">
<ele>1232.28</ele>
<time>2015-11-22T13:24:37Z</time>
</trkpt>
<trkpt lat="30.7998581" lon="35.6900579">
<ele>1233.25</ele>
<time>2015-11-22T13:24:40Z</time>
</trkpt>
<trkpt lat="30.7998468" lon="35.6901147">
<ele>1233.25</ele>
<time>2015-11-22T13:24:43Z</time>
</trkpt>
<trkpt lat="30.7998384" lon="35.6901786">
<ele>1230.32</ele>
<time>2015-11-22T13:24:47Z</time>
</trkpt>
<trkpt lat="30.7998331" lon="35.6902336">
<ele>1228.76</ele>
<time>2015-11-22T13:24:50Z</time>
</trkpt>
<trkpt lat="30.7998210" lon="35.6902892">
<ele>1230.06</ele>
<time>2015-11-22T13:24:53Z</time>
</trkpt>
<trkpt lat="30.7998100" lon="35.6903464">
<ele>1230.60</ele>
<time>2015-11-22T13:24:56Z</time>
</trkpt>
<trkpt lat="30.7997965" lon="35.6904011">
<ele>1230.42</ele>
<time>2015-11-22T13:24:59Z</time>
</trkpt>
<trkpt lat="30.7997784" lon="35.6904529">
<ele>1229.77</ele>
<time>2015-11-22T13:25:02Z</time>
</trkpt>
<trkpt lat="30.7997710" lon="35.6905100">
<ele>1230.32</ele>
<time>2015-11-22T13:25:05Z</time>
</trkpt>
<trkpt lat="30.7997561" lon="35.6905655">
<ele>1233.38</ele>
<time>2015-11-22T13:25:08Z</time>
</trkpt>
<trkpt lat="30.7997326" lon="35.6906180">
<ele>1234.64</ele>
<time>2015-11-22T13:25:11Z</time>
</trkpt>
<trkpt lat="30.7997148" lon="35.6906699">
<ele>1232.80</ele>
<time>2015-11-22T13:25:14Z</time>
</trkpt>
<trkpt lat="30.7996994" lon="35.6907192">
<ele>1229.94</ele>
<time>2015-11-22T13:25:17Z</time>
</trkpt>
<trkpt lat="30.7996930" lon="35.6907728">
<ele>1229.96</ele>
<time>2015-11-22T13:25:20Z</time>
</trkpt>
<trkpt lat="30.7996748" lon="35.6908323">
<ele>1229.68</ele>
<time>2015-11-22T13:25:24Z</time>
</trkpt>
<trkpt lat="30.7996528" lon="35.6908943">
<ele>1238.97</ele>
<time>2015-11-22T13:25:28Z</time>
</trkpt>
<trkpt lat="30.7996434" lon="35.6909459">
<ele>1247.84</ele>
<time>2015-11-22T13:25:31Z</time>
</trkpt>
<trkpt lat="30.7996346" lon="35.6909985">
<ele>1251.70</ele>
<time>2015-11-22T13:25:34Z</time>
</trkpt>
<trkpt lat="30.7996216" lon="35.6910546">
<ele>1252.81</ele>
<time>2015-11-22T13:25:37Z</time>
</trkpt>
<trkpt lat="30.7996016" lon="35.6911095">
<ele>1253.32</ele>
<time>2015-11-22T13:25:40Z</time>
</trkpt>
<trkpt lat="30.7995859" lon="35.6911683">
<ele>1253.88</ele>
<time>2015-11-22T13:25:43Z</time>
</trkpt>
<trkpt lat="30.7995709" lon="35.6912287">
<ele>1252.58</ele>
<time>2015-11-22T13:25:46Z</time>
</trkpt>
<trkpt lat="30.7995537" lon="35.6912876">
<ele>1253.29</ele>
<time>2015-11-22T13:25:49Z</time>
</trkpt>
<trkpt lat="30.7995381" lon="35.6913426">
<ele>1253.38</ele>
<time>2015-11-22T13:25:52Z</time>
</trkpt>
<trkpt lat="30.7995260" lon="35.6913967">
<ele>1254.14</ele>
<time>2015-11-22T13:25:55Z</time>
</trkpt>
<trkpt lat="30.7995054" lon="35.6914628">
<ele>1256.50</ele>
<time>2015-11-22T13:25:59Z</time>
</trkpt>
<trkpt lat="30.7994892" lon="35.6915160">
<ele>1257.28</ele>
<time>2015-11-22T13:26:02Z</time>
</trkpt>
<trkpt lat="30.7994737" lon="35.6915734">
<ele>1256.45</ele>
<time>2015-11-22T13:26:06Z</time>
</trkpt>
<trkpt lat="30.7994627" lon="35.6916353">
<ele>1257.15</ele>
<time>2015-11-22T13:26:10Z</time>
</trkpt>
<trkpt lat="30.7994404" lon="35.6916963">
<ele>1258.32</ele>
<time>2015-11-22T13:26:14Z</time>
</trkpt>
<trkpt lat="30.7994256" lon="35.6917621">
<ele>1258.58</ele>
<time>2015-11-22T13:26:18Z</time>
</trkpt>
<trkpt lat="30.7994158" lon="35.6918294">
<ele>1259.22</ele>
<time>2015-11-22T13:26:22Z</time>
</trkpt>
<trkpt lat="30.7993936" lon="35.6918847">
<ele>1259.38</ele>
<time>2015-11-22T13:26:26Z</time>
</trkpt>
<trkpt lat="30.7993756" lon="35.6919495">
<ele>1259.89</ele>
<time>2015-11-22T13:26:30Z</time>
</trkpt>
<trkpt lat="30.7993664" lon="35.6920032">
<ele>1260.21</ele>
<time>2015-11-22T13:26:33Z</time>
</trkpt>
<trkpt lat="30.7993445" lon="35.6920543">
<ele>1261.62</ele>
<time>2015-11-22T13:26:36Z</time>
</trkpt>
<trkpt lat="30.7993234" lon="35.6921071">
<ele>1261.55</ele>
<time>2015-11-22T13:26:39Z</time>
</trkpt>
<trkpt lat="30.7993093" lon="35.6921590">
<ele>1261.91</ele>
<time>2015-11-22T13:26:42Z</time>
</trkpt>
<trkpt lat="30.7992870" lon="35.6922103">
<ele>1263.08</ele>
<time>2015-11-22T13:26:45Z</time>
</trkpt>
<trkpt lat="30.7992656" lon="35.6922594">
<ele>1262.98</ele>
<time>2015-11-22T13:26:48Z</time>
</trkpt>
<trkpt lat="30.7992511" lon="35.6923094">
<ele>1263.34</ele>
<time>2015-11-22T13:26:51Z</time>
</trkpt>
<trkpt lat="30.7992307" lon="35.6923611">
<ele>1265.89</ele>
<time>2015-11-22T13:26:54Z</time>
</trkpt>
<trkpt lat="30.7992159" lon="35.6924110">
<ele>1266.83</ele>
<time>2015-11-22T13:26:57Z</time>
</trkpt>
<trkpt lat="30.7991968" lon="35.6924751">
<ele>1266.48</ele>
<time>2015-11-22T13:27:01Z</time>
</trkpt>
<trkpt lat="30.7991863" lon="35.6925386">
<ele>1264.27</ele>
<time>2015-11-22T13:27:05Z</time>
</trkpt>
<trkpt lat="30.7991732" lon="35.6926049">
<ele>1264.89</ele>
<time>2015-11-22T13:27:09Z</time>
</trkpt>
<trkpt lat="30.7991549" lon="35.6926532">
<ele>1265.33</ele>
<time>2015-11-22T13:27:12Z</time>
</trkpt>
<trkpt lat="30.7991316" lon="35.6927073">
<ele>1267.01</ele>
<time>2015-11-22T13:27:15Z</time>
</trkpt>
<trkpt lat="30.7991113" lon="35.6927598">
<ele>1267.22</ele>
<time>2015-11-22T13:27:18Z</time>
</trkpt>
<trkpt lat="30.7990884" lon="35.6928121">
<ele>1268.75</ele>
<time>2015-11-22T13:27:21Z</time>
</trkpt>
<trkpt lat="30.7990698" lon="35.6928655">
<ele>1270.19</ele>
<time>2015-11-22T13:27:24Z</time>
</trkpt>
<trkpt lat="30.7990548" lon="35.6929207">
<ele>1271.62</ele>
<time>2015-11-22T13:27:27Z</time>
</trkpt>
<trkpt lat="30.7990405" lon="35.6929781">
<ele>1272.80</ele>
<time>2015-11-22T13:27:30Z</time>
</trkpt>
<trkpt lat="30.7990211" lon="35.6930349">
<ele>1272.57</ele>
<time>2015-11-22T13:27:33Z</time>
</trkpt>
<trkpt lat="30.7990072" lon="35.6930907">
<ele>1272.92</ele>
<time>2015-11-22T13:27:36Z</time>
</trkpt>
<trkpt lat="30.7989897" lon="35.6931422">
<ele>1273.33</ele>
<time>2015-11-22T13:27:39Z</time>
</trkpt>
<trkpt lat="30.7989766" lon="35.6932040">
<ele>1273.39</ele>
<time>2015-11-22T13:27:43Z</time>
</trkpt>
<trkpt lat="30.7989636" lon="35.6932596">
<ele>1274.14</ele>
<time>2015-11-22T13:27:47Z</time>
</trkpt>
<trkpt lat="30.7989547" lon="35.6933197">
<ele>1273.94</ele>
<time>2015-11-22T13:27:51Z</time>
</trkpt>
<trkpt lat="30.7989331" lon="35.6933827">
<ele>1273.93</ele>
<time>2015-11-22T13:27:55Z</time>
</trkpt>
<trkpt lat="30.7989218" lon="35.6934452">
<ele>1273.49</ele>
<time>2015-11-22T13:27:59Z</time>
</trkpt>
<trkpt lat="30.7989114" lon="35.6935112">
<ele>1273.46</ele>
<time>2015-11-22T13:28:03Z</time>
</trkpt>
<trkpt lat="30.7988948" lon="35.6935638">
<ele>1274.28</ele>
<time>2015-11-22T13:28:06Z</time>
</trkpt>
<trkpt lat="30.7988759" lon="35.6936180">
<ele>1275.25</ele>
<time>2015-11-22T13:28:09Z</time>
</trkpt>
<trkpt lat="30.7988507" lon="35.6936684">
<ele>1275.88</ele>
<time>2015-11-22T13:28:12Z</time>
</trkpt>
<trkpt lat="30.7988212" lon="35.6937158">
<ele>1276.33</ele>
<time>2015-11-22T13:28:15Z</time>
</trkpt>
<trkpt lat="30.7987942" lon="35.6937631">
<ele>1277.26</ele>
<time>2015-11-22T13:28:18Z</time>
</trkpt>
<trkpt lat="30.7987694" lon="35.6938275">
<ele>1278.76</ele>
<time>2015-11-22T13:28:22Z</time>
</trkpt>
<trkpt lat="30.7987498" lon="35.6938863">
<ele>1279.35</ele>
<time>2015-11-22T13:28:26Z</time>
</trkpt>
<trkpt lat="30.7987268" lon="35.6939422">
<ele>1264.02</ele>
<time>2015-11-22T13:28:30Z</time>
</trkpt>
<trkpt lat="30.7987066" lon="35.6940090">
<ele>1272.00</ele>
<time>2015-11-22T13:28:34Z</time>
</trkpt>
<trkpt lat="30.7986931" lon="35.6940769">
<ele>1280.12</ele>
<time>2015-11-22T13:28:38Z</time>
</trkpt>
<trkpt lat="30.7986742" lon="35.6941435">
<ele>1282.19</ele>
<time>2015-11-22T13:28:42Z</time>
</trkpt>
<trkpt lat="30.7986570" lon="35.6941987">
<ele>1282.99</ele>
<time>2015-11-22T13:28:45Z</time>
</trkpt>
<trkpt lat="30.7986415" lon="35.6942519">
<ele>1283.34</ele>
<time>2015-11-22T13:28:48Z</time>
</trkpt>
<trkpt lat="30.7986264" lon="35.6943029">
<ele>1284.14</ele>
<time>2015-11-22T13:28:51Z</time>
</trkpt>
<trkpt lat="30.7986151" lon="35.6943595">
<ele>1284.86</ele>
<time>2015-11-22T13:28:54Z</time>
</trkpt>
<trkpt lat="30.7986012" lon="35.6944138">
<ele>1285.33</ele>
<time>2015-11-22T13:28:57Z</time>
</trkpt>
<trkpt lat="30.7985914" lon="35.6944761">
<ele>1285.39</ele>
<time>2015-11-22T13:29:00Z</time>
</trkpt>
<trkpt lat="30.7985751" lon="35.6945419">
<ele>1285.39</ele>
<time>2015-11-22T13:29:03Z</time>
</trkpt>
<trkpt lat="30.7985565" lon="35.6946057">
<ele>1286.27</ele>
<time>2015-11-22T13:29:06Z</time>
</trkpt>
<trkpt lat="30.7985370" lon="35.6946653">
<ele>1286.36</ele>
<time>2015-11-22T13:29:08Z</time>
</trkpt>
<trkpt lat="30.7985206" lon="35.6947229">
<ele>1286.39</ele>
<time>2015-11-22T13:29:10Z</time>
</trkpt>
<trkpt lat="30.7985066" lon="35.6947808">
<ele>1286.39</ele>
<time>2015-11-22T13:29:12Z</time>
</trkpt>
<trkpt lat="30.7984929" lon="35.6948461">
<ele>1287.14</ele>
<time>2015-11-22T13:29:15Z</time>
</trkpt>
<trkpt lat="30.7984828" lon="35.6949050">
<ele>1287.36</ele>
<time>2015-11-22T13:29:18Z</time>
</trkpt>
<trkpt lat="30.7984684" lon="35.6949738">
<ele>1287.39</ele>
<time>2015-11-22T13:29:21Z</time>
</trkpt>
<trkpt lat="30.7984543" lon="35.6950486">
<ele>1288.33</ele>
<time>2015-11-22T13:29:25Z</time>
</trkpt>
<trkpt lat="30.7984315" lon="35.6951153">
<ele>1288.39</ele>
<time>2015-11-22T13:29:29Z</time>
</trkpt>
<trkpt lat="30.7984205" lon="35.6951808">
<ele>1289.14</ele>
<time>2015-11-22T13:29:32Z</time>
</trkpt>
<trkpt lat="30.7984106" lon="35.6952472">
<ele>1289.33</ele>
<time>2015-11-22T13:29:34Z</time>
</trkpt>
<trkpt lat="30.7983874" lon="35.6953010">
<ele>1289.38</ele>
<time>2015-11-22T13:29:36Z</time>
</trkpt>
<trkpt lat="30.7983770" lon="35.6953771">
<ele>1290.14</ele>
<time>2015-11-22T13:29:39Z</time>
</trkpt>
<trkpt lat="30.7983642" lon="35.6954496">
<ele>1290.36</ele>
<time>2015-11-22T13:29:42Z</time>
</trkpt>
<trkpt lat="30.7983484" lon="35.6955229">
<ele>1290.39</ele>
<time>2015-11-22T13:29:45Z</time>
</trkpt>
<trkpt lat="30.7983345" lon="35.6955960">
<ele>1290.39</ele>
<time>2015-11-22T13:29:48Z</time>
</trkpt>
<trkpt lat="30.7983190" lon="35.6956661">
<ele>1291.14</ele>
<time>2015-11-22T13:29:51Z</time>
</trkpt>
<trkpt lat="30.7983090" lon="35.6957373">
<ele>1291.36</ele>
<time>2015-11-22T13:29:54Z</time>
</trkpt>
<trkpt lat="30.7982952" lon="35.6958017">
<ele>1291.39</ele>
<time>2015-11-22T13:29:57Z</time>
</trkpt>
<trkpt lat="30.7982771" lon="35.6958645">
<ele>1291.39</ele>
<time>2015-11-22T13:30:00Z</time>
</trkpt>
<trkpt lat="30.7982688" lon="35.6959194">
<ele>1291.39</ele>
<time>2015-11-22T13:30:02Z</time>
</trkpt>
<trkpt lat="30.7982629" lon="35.6959752">
<ele>1291.39</ele>
<time>2015-11-22T13:30:04Z</time>
</trkpt>
<trkpt lat="30.7982558" lon="35.6960508">
<ele>1291.39</ele>
<time>2015-11-22T13:30:07Z</time>
</trkpt>
<trkpt lat="30.7982425" lon="35.6961039">
<ele>1292.14</ele>
<time>2015-11-22T13:30:09Z</time>
</trkpt>
<trkpt lat="30.7982278" lon="35.6961670">
<ele>1292.33</ele>
<time>2015-11-22T13:30:11Z</time>
</trkpt>
<trkpt lat="30.7982118" lon="35.6962354">
<ele>1292.38</ele>
<time>2015-11-22T13:30:13Z</time>
</trkpt>
<trkpt lat="30.7982009" lon="35.6963051">
<ele>1292.39</ele>
<time>2015-11-22T13:30:15Z</time>
</trkpt>
<trkpt lat="30.7981914" lon="35.6963676">
<ele>1291.89</ele>
<time>2015-11-22T13:30:17Z</time>
</trkpt>
<trkpt lat="30.7981758" lon="35.6964262">
<ele>1291.52</ele>
<time>2015-11-22T13:30:19Z</time>
</trkpt>
<trkpt lat="30.7981647" lon="35.6964850">
<ele>1290.93</ele>
<time>2015-11-22T13:30:21Z</time>
</trkpt>
<trkpt lat="30.7981546" lon="35.6965420">
<ele>1291.28</ele>
<time>2015-11-22T13:30:23Z</time>
</trkpt>
<trkpt lat="30.7981405" lon="35.6965979">
<ele>1291.36</ele>
<time>2015-11-22T13:30:25Z</time>
</trkpt>
<trkpt lat="30.7981253" lon="35.6966520">
<ele>1291.39</ele>
<time>2015-11-22T13:30:27Z</time>
</trkpt>
<trkpt lat="30.7981120" lon="35.6967032">
<ele>1291.39</ele>
<time>2015-11-22T13:30:29Z</time>
</trkpt>
<trkpt lat="30.7980979" lon="35.6967763">
<ele>1292.27</ele>
<time>2015-11-22T13:30:32Z</time>
</trkpt>
<trkpt lat="30.7980747" lon="35.6968437">
<ele>1292.38</ele>
<time>2015-11-22T13:30:35Z</time>
</trkpt>
<trkpt lat="30.7980504" lon="35.6969102">
<ele>1292.89</ele>
<time>2015-11-22T13:30:38Z</time>
</trkpt>
<trkpt lat="30.7980280" lon="35.6969721">
<ele>1291.96</ele>
<time>2015-11-22T13:30:41Z</time>
</trkpt>
<trkpt lat="30.7980398" lon="35.6970307">
<ele>1291.20</ele>
<time>2015-11-22T13:36:47Z</time>
</trkpt>
<trkpt lat="30.7980324" lon="35.6970963">
<ele>1292.26</ele>
<time>2015-11-22T13:36:51Z</time>
</trkpt>
<trkpt lat="30.7980208" lon="35.6971686">
<ele>1291.63</ele>
<time>2015-11-22T13:36:54Z</time>
</trkpt>
<trkpt lat="30.7980071" lon="35.6972448">
<ele>1292.30</ele>
<time>2015-11-22T13:36:57Z</time>
</trkpt>
<trkpt lat="30.7979959" lon="35.6972994">
<ele>1292.37</ele>
<time>2015-11-22T13:36:59Z</time>
</trkpt>
<trkpt lat="30.7979854" lon="35.6973604">
<ele>1292.39</ele>
<time>2015-11-22T13:37:01Z</time>
</trkpt>
<trkpt lat="30.7979724" lon="35.6974326">
<ele>1291.89</ele>
<time>2015-11-22T13:37:03Z</time>
</trkpt>
<trkpt lat="30.7979541" lon="35.6975122">
<ele>1291.77</ele>
<time>2015-11-22T13:37:05Z</time>
</trkpt>
<trkpt lat="30.7979365" lon="35.6975985">
<ele>1291.49</ele>
<time>2015-11-22T13:37:07Z</time>
</trkpt>
<trkpt lat="30.7979196" lon="35.6976919">
<ele>1291.42</ele>
<time>2015-11-22T13:37:09Z</time>
</trkpt>
<trkpt lat="30.7979031" lon="35.6977885">
<ele>1291.40</ele>
<time>2015-11-22T13:37:11Z</time>
</trkpt>
<trkpt lat="30.7978843" lon="35.6978880">
<ele>1290.15</ele>
<time>2015-11-22T13:37:13Z</time>
</trkpt>
<trkpt lat="30.7978674" lon="35.6979869">
<ele>1290.33</ele>
<time>2015-11-22T13:37:15Z</time>
</trkpt>
<trkpt lat="30.7978500" lon="35.6980867">
<ele>1289.88</ele>
<time>2015-11-22T13:37:17Z</time>
</trkpt>
<trkpt lat="30.7978411" lon="35.6981388">
<ele>1289.64</ele>
<time>2015-11-22T13:37:18Z</time>
</trkpt>
<trkpt lat="30.7978314" lon="35.6981912">
<ele>1289.52</ele>
<time>2015-11-22T13:37:19Z</time>
</trkpt>
<trkpt lat="30.7978206" lon="35.6982432">
<ele>1289.45</ele>
<time>2015-11-22T13:37:20Z</time>
</trkpt>
<trkpt lat="30.7978078" lon="35.6983238">
<ele>1289.42</ele>
<time>2015-11-22T13:37:21Z</time>
</trkpt>
<trkpt lat="30.7977937" lon="35.6983747">
<ele>1289.41</ele>
<time>2015-11-22T13:37:22Z</time>
</trkpt>
<trkpt lat="30.7977838" lon="35.6984313">
<ele>1288.90</ele>
<time>2015-11-22T13:37:23Z</time>
</trkpt>
<trkpt lat="30.7977748" lon="35.6984907">
<ele>1288.65</ele>
<time>2015-11-22T13:37:24Z</time>
</trkpt>
<trkpt lat="30.7977676" lon="35.6985510">
<ele>1288.52</ele>
<time>2015-11-22T13:37:25Z</time>
</trkpt>
<trkpt lat="30.7977496" lon="35.6986574">
<ele>1288.43</ele>
<time>2015-11-22T13:37:27Z</time>
</trkpt>
<trkpt lat="30.7977392" lon="35.6987275">
<ele>1287.91</ele>
<time>2015-11-22T13:37:28Z</time>
</trkpt>
<trkpt lat="30.7977288" lon="35.6987814">
<ele>1287.65</ele>
<time>2015-11-22T13:37:29Z</time>
</trkpt>
<trkpt lat="30.7977166" lon="35.6988417">
<ele>1287.02</ele>
<time>2015-11-22T13:37:30Z</time>
</trkpt>
<trkpt lat="30.7977050" lon="35.6988980">
<ele>1287.21</ele>
<time>2015-11-22T13:37:31Z</time>
</trkpt>
<trkpt lat="30.7976989" lon="35.6989537">
<ele>1287.30</ele>
<time>2015-11-22T13:37:32Z</time>
</trkpt>
<trkpt lat="30.7976887" lon="35.6990108">
<ele>1287.35</ele>
<time>2015-11-22T13:37:33Z</time>
</trkpt>
<trkpt lat="30.7976748" lon="35.6990735">
<ele>1287.37</ele>
<time>2015-11-22T13:37:34Z</time>
</trkpt>
<trkpt lat="30.7976681" lon="35.6991403">
<ele>1287.38</ele>
<time>2015-11-22T13:37:35Z</time>
</trkpt>
<trkpt lat="30.7976550" lon="35.6992099">
<ele>1287.39</ele>
<time>2015-11-22T13:37:36Z</time>
</trkpt>
<trkpt lat="30.7976388" lon="35.6992742">
<ele>1286.89</ele>
<time>2015-11-22T13:37:37Z</time>
</trkpt>
<trkpt lat="30.7976214" lon="35.6993303">
<ele>1286.64</ele>
<time>2015-11-22T13:37:38Z</time>
</trkpt>
<trkpt lat="30.7976097" lon="35.6993957">
<ele>1286.02</ele>
<time>2015-11-22T13:37:39Z</time>
</trkpt>
<trkpt lat="30.7975966" lon="35.6994654">
<ele>1285.71</ele>
<time>2015-11-22T13:37:40Z</time>
</trkpt>
<trkpt lat="30.7975820" lon="35.6995341">
<ele>1285.05</ele>
<time>2015-11-22T13:37:41Z</time>
</trkpt>
<trkpt lat="30.7975639" lon="35.6996048">
<ele>1284.72</ele>
<time>2015-11-22T13:37:42Z</time>
</trkpt>
<trkpt lat="30.7975469" lon="35.6996775">
<ele>1285.06</ele>
<time>2015-11-22T13:37:43Z</time>
</trkpt>
<trkpt lat="30.7975375" lon="35.6997547">
<ele>1285.23</ele>
<time>2015-11-22T13:37:44Z</time>
</trkpt>
<trkpt lat="30.7975240" lon="35.6998266">
<ele>1285.31</ele>
<time>2015-11-22T13:37:45Z</time>
</trkpt>
<trkpt lat="30.7975179" lon="35.6998946">
<ele>1284.85</ele>
<time>2015-11-22T13:37:46Z</time>
</trkpt>
<trkpt lat="30.7975092" lon="35.6999693">
<ele>1284.12</ele>
<time>2015-11-22T13:37:47Z</time>
</trkpt>
<trkpt lat="30.7974911" lon="35.7000490">
<ele>1284.26</ele>
<time>2015-11-22T13:37:48Z</time>
</trkpt>
<trkpt lat="30.7974746" lon="35.7001233">
<ele>1284.33</ele>
<time>2015-11-22T13:37:49Z</time>
</trkpt>
<trkpt lat="30.7974586" lon="35.7002038">
<ele>1284.36</ele>
<time>2015-11-22T13:37:50Z</time>
</trkpt>
<trkpt lat="30.7974478" lon="35.7002789">
<ele>1284.38</ele>
<time>2015-11-22T13:37:51Z</time>
</trkpt>
<trkpt lat="30.7974372" lon="35.7003576">
<ele>1284.39</ele>
<time>2015-11-22T13:37:52Z</time>
</trkpt>
<trkpt lat="30.7974209" lon="35.7004319">
<ele>1284.89</ele>
<time>2015-11-22T13:37:53Z</time>
</trkpt>
<trkpt lat="30.7974036" lon="35.7005070">
<ele>1285.64</ele>
<time>2015-11-22T13:37:54Z</time>
</trkpt>
<trkpt lat="30.7973878" lon="35.7005766">
<ele>1286.02</ele>
<time>2015-11-22T13:37:55Z</time>
</trkpt>
<trkpt lat="30.7973808" lon="35.7006515">
<ele>1286.21</ele>
<time>2015-11-22T13:37:56Z</time>
</trkpt>
<trkpt lat="30.7973727" lon="35.7007260">
<ele>1286.30</ele>
<time>2015-11-22T13:37:57Z</time>
</trkpt>
<trkpt lat="30.7973654" lon="35.7008003">
<ele>1286.35</ele>
<time>2015-11-22T13:37:58Z</time>
</trkpt>
<trkpt lat="30.7973659" lon="35.7008775">
<ele>1286.37</ele>
<time>2015-11-22T13:37:59Z</time>
</trkpt>
<trkpt lat="30.7973536" lon="35.7009511">
<ele>1286.38</ele>
<time>2015-11-22T13:38:00Z</time>
</trkpt>
<trkpt lat="30.7973452" lon="35.7010248">
<ele>1285.89</ele>
<time>2015-11-22T13:38:01Z</time>
</trkpt>
<trkpt lat="30.7973403" lon="35.7010989">
<ele>1285.64</ele>
<time>2015-11-22T13:38:02Z</time>
</trkpt>
<trkpt lat="30.7973352" lon="35.7011794">
<ele>1285.52</ele>
<time>2015-11-22T13:38:03Z</time>
</trkpt>
<trkpt lat="30.7973340" lon="35.7012516">
<ele>1285.46</ele>
<time>2015-11-22T13:38:04Z</time>
</trkpt>
<trkpt lat="30.7973258" lon="35.7013320">
<ele>1285.42</ele>
<time>2015-11-22T13:38:05Z</time>
</trkpt>
<trkpt lat="30.7973203" lon="35.7014213">
<ele>1284.91</ele>
<time>2015-11-22T13:38:06Z</time>
</trkpt>
<trkpt lat="30.7973251" lon="35.7014981">
<ele>1285.15</ele>
<time>2015-11-22T13:38:07Z</time>
</trkpt>
<trkpt lat="30.7973267" lon="35.7015784">
<ele>1285.27</ele>
<time>2015-11-22T13:38:08Z</time>
</trkpt>
<trkpt lat="30.7973314" lon="35.7016578">
<ele>1285.33</ele>
<time>2015-11-22T13:38:09Z</time>
</trkpt>
<trkpt lat="30.7973331" lon="35.7017376">
<ele>1285.36</ele>
<time>2015-11-22T13:38:10Z</time>
</trkpt>
<trkpt lat="30.7973370" lon="35.7018188">
<ele>1285.38</ele>
<time>2015-11-22T13:38:11Z</time>
</trkpt>
<trkpt lat="30.7973426" lon="35.7019036">
<ele>1285.39</ele>
<time>2015-11-22T13:38:12Z</time>
</trkpt>
<trkpt lat="30.7973404" lon="35.7019892">
<ele>1284.89</ele>
<time>2015-11-22T13:38:13Z</time>
</trkpt>
<trkpt lat="30.7973467" lon="35.7020751">
<ele>1284.64</ele>
<time>2015-11-22T13:38:14Z</time>
</trkpt>
<trkpt lat="30.7973448" lon="35.7021574">
<ele>1285.02</ele>
<time>2015-11-22T13:38:15Z</time>
</trkpt>
<trkpt lat="30.7973389" lon="35.7022411">
<ele>1285.21</ele>
<time>2015-11-22T13:38:16Z</time>
</trkpt>
<trkpt lat="30.7973446" lon="35.7023208">
<ele>1284.80</ele>
<time>2015-11-22T13:38:17Z</time>
</trkpt>
<trkpt lat="30.7973532" lon="35.7024002">
<ele>1284.10</ele>
<time>2015-11-22T13:38:18Z</time>
</trkpt>
<trkpt lat="30.7973406" lon="35.7024800">
<ele>1283.75</ele>
<time>2015-11-22T13:38:19Z</time>
</trkpt>
<trkpt lat="30.7973333" lon="35.7025649">
<ele>1284.07</ele>
<time>2015-11-22T13:38:20Z</time>
</trkpt>
<trkpt lat="30.7973223" lon="35.7026366">
<ele>1284.23</ele>
<time>2015-11-22T13:38:21Z</time>
</trkpt>
<trkpt lat="30.7973118" lon="35.7027059">
<ele>1284.31</ele>
<time>2015-11-22T13:38:22Z</time>
</trkpt>
<trkpt lat="30.7972991" lon="35.7027780">
<ele>1284.85</ele>
<time>2015-11-22T13:38:23Z</time>
</trkpt>
<trkpt lat="30.7972825" lon="35.7028489">
<ele>1285.12</ele>
<time>2015-11-22T13:38:24Z</time>
</trkpt>
<trkpt lat="30.7972681" lon="35.7029156">
<ele>1285.26</ele>
<time>2015-11-22T13:38:25Z</time>
</trkpt>
<trkpt lat="30.7972456" lon="35.7029892">
<ele>1285.33</ele>
<time>2015-11-22T13:38:26Z</time>
</trkpt>
<trkpt lat="30.7972276" lon="35.7030608">
<ele>1285.36</ele>
<time>2015-11-22T13:38:27Z</time>
</trkpt>
<trkpt lat="30.7972137" lon="35.7031258">
<ele>1285.38</ele>
<time>2015-11-22T13:38:28Z</time>
</trkpt>
<trkpt lat="30.7971893" lon="35.7031912">
<ele>1285.39</ele>
<time>2015-11-22T13:38:29Z</time>
</trkpt>
<trkpt lat="30.7971602" lon="35.7032596">
<ele>1284.89</ele>
<time>2015-11-22T13:38:30Z</time>
</trkpt>
<trkpt lat="30.7971360" lon="35.7033347">
<ele>1284.64</ele>
<time>2015-11-22T13:38:31Z</time>
</trkpt>
<trkpt lat="30.7971189" lon="35.7033960">
<ele>1284.52</ele>
<time>2015-11-22T13:38:32Z</time>
</trkpt>
<trkpt lat="30.7970994" lon="35.7034598">
<ele>1284.46</ele>
<time>2015-11-22T13:38:33Z</time>
</trkpt>
<trkpt lat="30.7970762" lon="35.7035176">
<ele>1284.42</ele>
<time>2015-11-22T13:38:34Z</time>
</trkpt>
<trkpt lat="30.7970564" lon="35.7035774">
<ele>1284.91</ele>
<time>2015-11-22T13:38:35Z</time>
</trkpt>
<trkpt lat="30.7970371" lon="35.7036318">
<ele>1284.65</ele>
<time>2015-11-22T13:38:36Z</time>
</trkpt>
<trkpt lat="30.7970208" lon="35.7036965">
<ele>1284.52</ele>
<time>2015-11-22T13:38:37Z</time>
</trkpt>
<trkpt lat="30.7970079" lon="35.7037523">
<ele>1284.96</ele>
<time>2015-11-22T13:38:38Z</time>
</trkpt>
<trkpt lat="30.7969930" lon="35.7038542">
<ele>1284.54</ele>
<time>2015-11-22T13:38:40Z</time>
</trkpt>
<trkpt lat="30.7969826" lon="35.7039356">
<ele>1284.43</ele>
<time>2015-11-22T13:38:42Z</time>
</trkpt>
<trkpt lat="30.7969827" lon="35.7040175">
<ele>1283.65</ele>
<time>2015-11-22T13:38:44Z</time>
</trkpt>
<trkpt lat="30.7969918" lon="35.7040958">
<ele>1282.96</ele>
<time>2015-11-22T13:38:46Z</time>
</trkpt>
<trkpt lat="30.7969855" lon="35.7041575">
<ele>1281.79</ele>
<time>2015-11-22T13:38:48Z</time>
</trkpt>
<trkpt lat="30.7969782" lon="35.7042269">
<ele>1280.07</ele>
<time>2015-11-22T13:38:51Z</time>
</trkpt>
<trkpt lat="30.7969714" lon="35.7042948">
<ele>1279.85</ele>
<time>2015-11-22T13:38:54Z</time>
</trkpt>
<trkpt lat="30.7969504" lon="35.7043411">
<ele>1279.89</ele>
<time>2015-11-22T13:39:21Z</time>
</trkpt>
<trkpt lat="30.7969487" lon="35.7044096">
<ele>1280.27</ele>
<time>2015-11-22T13:39:23Z</time>
</trkpt>
<trkpt lat="30.7969489" lon="35.7044928">
<ele>1280.36</ele>
<time>2015-11-22T13:39:25Z</time>
</trkpt>
<trkpt lat="30.7969510" lon="35.7045936">
<ele>1279.64</ele>
<time>2015-11-22T13:39:27Z</time>
</trkpt>
<trkpt lat="30.7969625" lon="35.7046932">
<ele>1279.02</ele>
<time>2015-11-22T13:39:28Z</time>
</trkpt>
<trkpt lat="30.7969648" lon="35.7047590">
<ele>1278.20</ele>
<time>2015-11-22T13:39:29Z</time>
</trkpt>
<trkpt lat="30.7969668" lon="35.7048278">
<ele>1277.80</ele>
<time>2015-11-22T13:39:30Z</time>
</trkpt>
<trkpt lat="30.7969670" lon="35.7048987">
<ele>1277.10</ele>
<time>2015-11-22T13:39:31Z</time>
</trkpt>
<trkpt lat="30.7969712" lon="35.7049802">
<ele>1276.25</ele>
<time>2015-11-22T13:39:32Z</time>
</trkpt>
<trkpt lat="30.7969725" lon="35.7050669">
<ele>1275.82</ele>
<time>2015-11-22T13:39:33Z</time>
</trkpt>
<trkpt lat="30.7969737" lon="35.7051529">
<ele>1275.11</ele>
<time>2015-11-22T13:39:34Z</time>
</trkpt>
<trkpt lat="30.7969760" lon="35.7052464">
<ele>1274.75</ele>
<time>2015-11-22T13:39:35Z</time>
</trkpt>
<trkpt lat="30.7969727" lon="35.7053511">
<ele>1274.07</ele>
<time>2015-11-22T13:39:36Z</time>
</trkpt>
<trkpt lat="30.7969586" lon="35.7054506">
<ele>1273.73</ele>
<time>2015-11-22T13:39:37Z</time>
</trkpt>
<trkpt lat="30.7969509" lon="35.7055570">
<ele>1273.06</ele>
<time>2015-11-22T13:39:38Z</time>
</trkpt>
<trkpt lat="30.7969385" lon="35.7056582">
<ele>1271.73</ele>
<time>2015-11-22T13:39:39Z</time>
</trkpt>
<trkpt lat="30.7969220" lon="35.7057688">
<ele>1271.06</ele>
<time>2015-11-22T13:39:40Z</time>
</trkpt>
<trkpt lat="30.7969120" lon="35.7058952">
<ele>1270.23</ele>
<time>2015-11-22T13:39:41Z</time>
</trkpt>
<trkpt lat="30.7969040" lon="35.7060067">
<ele>1269.81</ele>
<time>2015-11-22T13:39:42Z</time>
</trkpt>
<trkpt lat="30.7968848" lon="35.7061218">
<ele>1269.10</ele>
<time>2015-11-22T13:39:43Z</time>
</trkpt>
<trkpt lat="30.7968729" lon="35.7062341">
<ele>1268.75</ele>
<time>2015-11-22T13:39:44Z</time>
</trkpt>
<trkpt lat="30.7968607" lon="35.7063479">
<ele>1268.57</ele>
<time>2015-11-22T13:39:45Z</time>
</trkpt>
<trkpt lat="30.7968482" lon="35.7064677">
<ele>1267.48</ele>
<time>2015-11-22T13:39:46Z</time>
</trkpt>
<trkpt lat="30.7968384" lon="35.7065885">
<ele>1266.94</ele>
<time>2015-11-22T13:39:47Z</time>
</trkpt>
<trkpt lat="30.7968230" lon="35.7067044">
<ele>1266.17</ele>
<time>2015-11-22T13:39:48Z</time>
</trkpt>
<trkpt lat="30.7968047" lon="35.7068322">
<ele>1265.78</ele>
<time>2015-11-22T13:39:49Z</time>
</trkpt>
<trkpt lat="30.7967857" lon="35.7069578">
<ele>1264.59</ele>
<time>2015-11-22T13:39:50Z</time>
</trkpt>
<trkpt lat="30.7967743" lon="35.7070669">
<ele>1263.49</ele>
<time>2015-11-22T13:39:51Z</time>
</trkpt>
<trkpt lat="30.7967578" lon="35.7071948">
<ele>1262.94</ele>
<time>2015-11-22T13:39:52Z</time>
</trkpt>
<trkpt lat="30.7967410" lon="35.7073264">
<ele>1262.17</ele>
<time>2015-11-22T13:39:53Z</time>
</trkpt>
<trkpt lat="30.7967259" lon="35.7074491">
<ele>1261.28</ele>
<time>2015-11-22T13:39:54Z</time>
</trkpt>
<trkpt lat="30.7967177" lon="35.7075758">
<ele>1259.84</ele>
<time>2015-11-22T13:39:55Z</time>
</trkpt>
<trkpt lat="30.7966952" lon="35.7077064">
<ele>1259.12</ele>
<time>2015-11-22T13:39:56Z</time>
</trkpt>
<trkpt lat="30.7966817" lon="35.7078319">
<ele>1258.25</ele>
<time>2015-11-22T13:39:57Z</time>
</trkpt>
<trkpt lat="30.7966609" lon="35.7079663">
<ele>1257.32</ele>
<time>2015-11-22T13:39:58Z</time>
</trkpt>
<trkpt lat="30.7966441" lon="35.7080993">
<ele>1256.36</ele>
<time>2015-11-22T13:39:59Z</time>
</trkpt>
<trkpt lat="30.7966232" lon="35.7082322">
<ele>1255.88</ele>
<time>2015-11-22T13:40:00Z</time>
</trkpt>
<trkpt lat="30.7966012" lon="35.7083703">
<ele>1255.14</ele>
<time>2015-11-22T13:40:01Z</time>
</trkpt>
<trkpt lat="30.7965860" lon="35.7085075">
<ele>1254.76</ele>
<time>2015-11-22T13:40:02Z</time>
</trkpt>
<trkpt lat="30.7965824" lon="35.7086554">
<ele>1254.08</ele>
<time>2015-11-22T13:40:03Z</time>
</trkpt>
<trkpt lat="30.7965668" lon="35.7087989">
<ele>1253.74</ele>
<time>2015-11-22T13:40:04Z</time>
</trkpt>
<trkpt lat="30.7965441" lon="35.7089357">
<ele>1253.57</ele>
<time>2015-11-22T13:40:05Z</time>
</trkpt>
<trkpt lat="30.7965256" lon="35.7090706">
<ele>1253.48</ele>
<time>2015-11-22T13:40:06Z</time>
</trkpt>
<trkpt lat="30.7965067" lon="35.7092036">
<ele>1253.44</ele>
<time>2015-11-22T13:40:07Z</time>
</trkpt>
<trkpt lat="30.7964830" lon="35.7093361">
<ele>1253.92</ele>
<time>2015-11-22T13:40:08Z</time>
</trkpt>
<trkpt lat="30.7964598" lon="35.7094648">
<ele>1254.15</ele>
<time>2015-11-22T13:40:09Z</time>
</trkpt>
<trkpt lat="30.7964366" lon="35.7095884">
<ele>1254.27</ele>
<time>2015-11-22T13:40:10Z</time>
</trkpt>
<trkpt lat="30.7964231" lon="35.7096991">
<ele>1254.33</ele>
<time>2015-11-22T13:40:11Z</time>
</trkpt>
<trkpt lat="30.7964153" lon="35.7098104">
<ele>1255.36</ele>
<time>2015-11-22T13:40:12Z</time>
</trkpt>
<trkpt lat="30.7964056" lon="35.7099057">
<ele>1255.88</ele>
<time>2015-11-22T13:40:13Z</time>
</trkpt>
<trkpt lat="30.7963925" lon="35.7099993">
<ele>1256.64</ele>
<time>2015-11-22T13:40:14Z</time>
</trkpt>
<trkpt lat="30.7963847" lon="35.7100890">
<ele>1257.02</ele>
<time>2015-11-22T13:40:15Z</time>
</trkpt>
<trkpt lat="30.7963712" lon="35.7101752">
<ele>1257.20</ele>
<time>2015-11-22T13:40:16Z</time>
</trkpt>
<trkpt lat="30.7963613" lon="35.7102587">
<ele>1257.80</ele>
<time>2015-11-22T13:40:17Z</time>
</trkpt>
<trkpt lat="30.7963485" lon="35.7103284">
<ele>1258.60</ele>
<time>2015-11-22T13:40:18Z</time>
</trkpt>
<trkpt lat="30.7963385" lon="35.7104029">
<ele>1259.00</ele>
<time>2015-11-22T13:40:19Z</time>
</trkpt>
<trkpt lat="30.7963330" lon="35.7104590">
<ele>1259.19</ele>
<time>2015-11-22T13:40:20Z</time>
</trkpt>
<trkpt lat="30.7963280" lon="35.7105166">
<ele>1259.29</ele>
<time>2015-11-22T13:40:21Z</time>
</trkpt>
<trkpt lat="30.7963258" lon="35.7105706">
<ele>1259.84</ele>
<time>2015-11-22T13:40:22Z</time>
</trkpt>
<trkpt lat="30.7963172" lon="35.7106722">
<ele>1260.26</ele>
<time>2015-11-22T13:40:24Z</time>
</trkpt>
<trkpt lat="30.7963016" lon="35.7107715">
<ele>1261.61</ele>
<time>2015-11-22T13:40:26Z</time>
</trkpt>
<trkpt lat="30.7962939" lon="35.7108692">
<ele>1262.70</ele>
<time>2015-11-22T13:40:28Z</time>
</trkpt>
<trkpt lat="30.7962793" lon="35.7109625">
<ele>1262.47</ele>
<time>2015-11-22T13:40:30Z</time>
</trkpt>
<trkpt lat="30.7962624" lon="35.7110115">
<ele>1262.43</ele>
<time>2015-11-22T13:40:31Z</time>
</trkpt>
<trkpt lat="30.7962449" lon="35.7110922">
<ele>1262.40</ele>
<time>2015-11-22T13:40:33Z</time>
</trkpt>
<trkpt lat="30.7962320" lon="35.7111713">
<ele>1263.15</ele>
<time>2015-11-22T13:40:35Z</time>
</trkpt>
<trkpt lat="30.7962158" lon="35.7112477">
<ele>1262.83</ele>
<time>2015-11-22T13:40:37Z</time>
</trkpt>
<trkpt lat="30.7961994" lon="35.7113227">
<ele>1262.00</ele>
<time>2015-11-22T13:40:39Z</time>
</trkpt>
<trkpt lat="30.7961823" lon="35.7113976">
<ele>1261.05</ele>
<time>2015-11-22T13:40:41Z</time>
</trkpt>
<trkpt lat="30.7961616" lon="35.7114699">
<ele>1259.81</ele>
<time>2015-11-22T13:40:43Z</time>
</trkpt>
<trkpt lat="30.7961401" lon="35.7115428">
<ele>1259.50</ele>
<time>2015-11-22T13:40:45Z</time>
</trkpt>
<trkpt lat="30.7961172" lon="35.7116212">
<ele>1259.42</ele>
<time>2015-11-22T13:40:47Z</time>
</trkpt>
<trkpt lat="30.7960922" lon="35.7116999">
<ele>1259.40</ele>
<time>2015-11-22T13:40:49Z</time>
</trkpt>
<trkpt lat="30.7960664" lon="35.7117720">
<ele>1259.90</ele>
<time>2015-11-22T13:40:51Z</time>
</trkpt>
<trkpt lat="30.7960454" lon="35.7118439">
<ele>1259.77</ele>
<time>2015-11-22T13:40:53Z</time>
</trkpt>
<trkpt lat="30.7960282" lon="35.7119011">
<ele>1259.99</ele>
<time>2015-11-22T13:40:55Z</time>
</trkpt>
<trkpt lat="30.7960024" lon="35.7119618">
<ele>1260.34</ele>
<time>2015-11-22T13:40:58Z</time>
</trkpt>
<trkpt lat="30.7959794" lon="35.7120228">
<ele>1260.26</ele>
<time>2015-11-22T13:41:01Z</time>
</trkpt>
<trkpt lat="30.7959651" lon="35.7120817">
<ele>1258.36</ele>
<time>2015-11-22T13:41:03Z</time>
</trkpt>
<trkpt lat="30.7959466" lon="35.7121322">
<ele>1256.89</ele>
<time>2015-11-22T13:41:05Z</time>
</trkpt>
<trkpt lat="30.7959295" lon="35.7121888">
<ele>1252.03</ele>
<time>2015-11-22T13:41:32Z</time>
</trkpt>
<trkpt lat="30.7959187" lon="35.7122454">
<ele>1252.85</ele>
<time>2015-11-22T13:41:35Z</time>
</trkpt>
<trkpt lat="30.7958954" lon="35.7123228">
<ele>1252.58</ele>
<time>2015-11-22T13:41:38Z</time>
</trkpt>
<trkpt lat="30.7958709" lon="35.7124124">
<ele>1251.94</ele>
<time>2015-11-22T13:41:40Z</time>
</trkpt>
<trkpt lat="30.7958615" lon="35.7124644">
<ele>1252.17</ele>
<time>2015-11-22T13:41:41Z</time>
</trkpt>
<trkpt lat="30.7958523" lon="35.7125581">
<ele>1251.78</ele>
<time>2015-11-22T13:41:42Z</time>
</trkpt>
<trkpt lat="30.7958408" lon="35.7126153">
<ele>1252.09</ele>
<time>2015-11-22T13:41:43Z</time>
</trkpt>
<trkpt lat="30.7958329" lon="35.7126788">
<ele>1251.74</ele>
<time>2015-11-22T13:41:44Z</time>
</trkpt>
<trkpt lat="30.7958313" lon="35.7127402">
<ele>1251.07</ele>
<time>2015-11-22T13:41:45Z</time>
</trkpt>
<trkpt lat="30.7958224" lon="35.7128209">
<ele>1250.23</ele>
<time>2015-11-22T13:41:46Z</time>
</trkpt>
<trkpt lat="30.7958133" lon="35.7128929">
<ele>1249.81</ele>
<time>2015-11-22T13:41:47Z</time>
</trkpt>
<trkpt lat="30.7958156" lon="35.7129697">
<ele>1249.60</ele>
<time>2015-11-22T13:41:48Z</time>
</trkpt>
<trkpt lat="30.7958305" lon="35.7130403">
<ele>1248.50</ele>
<time>2015-11-22T13:41:49Z</time>
</trkpt>
<trkpt lat="30.7958331" lon="35.7131171">
<ele>1247.95</ele>
<time>2015-11-22T13:41:50Z</time>
</trkpt>
<trkpt lat="30.7958417" lon="35.7131980">
<ele>1247.67</ele>
<time>2015-11-22T13:41:51Z</time>
</trkpt>
<trkpt lat="30.7958573" lon="35.7132812">
<ele>1247.03</ele>
<time>2015-11-22T13:41:52Z</time>
</trkpt>
<trkpt lat="30.7958748" lon="35.7133744">
<ele>1247.21</ele>
<time>2015-11-22T13:41:53Z</time>
</trkpt>
<trkpt lat="30.7959018" lon="35.7134665">
<ele>1247.30</ele>
<time>2015-11-22T13:41:54Z</time>
</trkpt>
<trkpt lat="30.7959331" lon="35.7135631">
<ele>1246.85</ele>
<time>2015-11-22T13:41:55Z</time>
</trkpt>
<trkpt lat="30.7959628" lon="35.7136504">
<ele>1246.62</ele>
<time>2015-11-22T13:41:56Z</time>
</trkpt>
<trkpt lat="30.7959991" lon="35.7137528">
<ele>1246.01</ele>
<time>2015-11-22T13:41:57Z</time>
</trkpt>
<trkpt lat="30.7960474" lon="35.7138364">
<ele>1245.70</ele>
<time>2015-11-22T13:41:58Z</time>
</trkpt>
<trkpt lat="30.7961025" lon="35.7139137">
<ele>1245.05</ele>
<time>2015-11-22T13:41:59Z</time>
</trkpt>
<trkpt lat="30.7961565" lon="35.7140002">
<ele>1244.72</ele>
<time>2015-11-22T13:42:00Z</time>
</trkpt>
<trkpt lat="30.7962197" lon="35.7140781">
<ele>1244.06</ele>
<time>2015-11-22T13:42:01Z</time>
</trkpt>
<trkpt lat="30.7962890" lon="35.7141629">
<ele>1243.73</ele>
<time>2015-11-22T13:42:02Z</time>
</trkpt>
<trkpt lat="30.7963584" lon="35.7142371">
<ele>1243.06</ele>
<time>2015-11-22T13:42:03Z</time>
</trkpt>
<trkpt lat="30.7964308" lon="35.7143117">
<ele>1242.23</ele>
<time>2015-11-22T13:42:04Z</time>
</trkpt>
<trkpt lat="30.7965060" lon="35.7143843">
<ele>1241.81</ele>
<time>2015-11-22T13:42:05Z</time>
</trkpt>
<trkpt lat="30.7965892" lon="35.7144666">
<ele>1241.60</ele>
<time>2015-11-22T13:42:06Z</time>
</trkpt>
<trkpt lat="30.7966643" lon="35.7145531">
<ele>1242.00</ele>
<time>2015-11-22T13:42:07Z</time>
</trkpt>
<trkpt lat="30.7967386" lon="35.7146348">
<ele>1241.70</ele>
<time>2015-11-22T13:42:08Z</time>
</trkpt>
<trkpt lat="30.7968165" lon="35.7147245">
<ele>1241.05</ele>
<time>2015-11-22T13:42:09Z</time>
</trkpt>
<trkpt lat="30.7968960" lon="35.7148109">
<ele>1240.22</ele>
<time>2015-11-22T13:42:10Z</time>
</trkpt>
<trkpt lat="30.7969734" lon="35.7148932">
<ele>1238.81</ele>
<time>2015-11-22T13:42:11Z</time>
</trkpt>
<trkpt lat="30.7970549" lon="35.7149663">
<ele>1237.10</ele>
<time>2015-11-22T13:42:12Z</time>
</trkpt>
<trkpt lat="30.7971317" lon="35.7150509">
<ele>1236.25</ele>
<time>2015-11-22T13:42:13Z</time>
</trkpt>
<trkpt lat="30.7971969" lon="35.7151426">
<ele>1235.32</ele>
<time>2015-11-22T13:42:14Z</time>
</trkpt>
<trkpt lat="30.7972573" lon="35.7152346">
<ele>1234.36</ele>
<time>2015-11-22T13:42:15Z</time>
</trkpt>
<trkpt lat="30.7973099" lon="35.7153486">
<ele>1232.88</ele>
<time>2015-11-22T13:42:16Z</time>
</trkpt>
<trkpt lat="30.7973576" lon="35.7154628">
<ele>1232.13</ele>
<time>2015-11-22T13:42:17Z</time>
</trkpt>
<trkpt lat="30.7973934" lon="35.7155710">
<ele>1231.26</ele>
<time>2015-11-22T13:42:18Z</time>
</trkpt>
<trkpt lat="30.7974278" lon="35.7156859">
<ele>1230.83</ele>
<time>2015-11-22T13:42:19Z</time>
</trkpt>
<trkpt lat="30.7974414" lon="35.7158072">
<ele>1231.11</ele>
<time>2015-11-22T13:42:20Z</time>
</trkpt>
<trkpt lat="30.7974446" lon="35.7159226">
<ele>1230.75</ele>
<time>2015-11-22T13:42:21Z</time>
</trkpt>
<trkpt lat="30.7974418" lon="35.7160386">
<ele>1230.57</ele>
<time>2015-11-22T13:42:22Z</time>
</trkpt>
<trkpt lat="30.7974333" lon="35.7161615">
<ele>1229.98</ele>
<time>2015-11-22T13:42:23Z</time>
</trkpt>
<trkpt lat="30.7974106" lon="35.7162817">
<ele>1228.69</ele>
<time>2015-11-22T13:42:24Z</time>
</trkpt>
<trkpt lat="30.7973820" lon="35.7163952">
<ele>1227.54</ele>
<time>2015-11-22T13:42:25Z</time>
</trkpt>
<trkpt lat="30.7973578" lon="35.7165240">
<ele>1226.47</ele>
<time>2015-11-22T13:42:26Z</time>
</trkpt>
<trkpt lat="30.7973282" lon="35.7166581">
<ele>1225.93</ele>
<time>2015-11-22T13:42:27Z</time>
</trkpt>
<trkpt lat="30.7973042" lon="35.7167897">
<ele>1224.66</ele>
<time>2015-11-22T13:42:28Z</time>
</trkpt>
<trkpt lat="30.7972726" lon="35.7169245">
<ele>1224.03</ele>
<time>2015-11-22T13:42:29Z</time>
</trkpt>
<trkpt lat="30.7972381" lon="35.7170611">
<ele>1223.71</ele>
<time>2015-11-22T13:42:30Z</time>
</trkpt>
<trkpt lat="30.7972175" lon="35.7171954">
<ele>1223.05</ele>
<time>2015-11-22T13:42:31Z</time>
</trkpt>
<trkpt lat="30.7971925" lon="35.7173309">
<ele>1222.22</ele>
<time>2015-11-22T13:42:32Z</time>
</trkpt>
<trkpt lat="30.7971561" lon="35.7174731">
<ele>1220.81</ele>
<time>2015-11-22T13:42:33Z</time>
</trkpt>
<trkpt lat="30.7971296" lon="35.7176183">
<ele>1219.60</ele>
<time>2015-11-22T13:42:34Z</time>
</trkpt>
<trkpt lat="30.7971080" lon="35.7177461">
<ele>1218.00</ele>
<time>2015-11-22T13:42:35Z</time>
</trkpt>
<trkpt lat="30.7970798" lon="35.7178976">
<ele>1215.70</ele>
<time>2015-11-22T13:42:36Z</time>
</trkpt>
<trkpt lat="30.7970474" lon="35.7180407">
<ele>1214.04</ele>
<time>2015-11-22T13:42:37Z</time>
</trkpt>
<trkpt lat="30.7970136" lon="35.7181920">
<ele>1212.22</ele>
<time>2015-11-22T13:42:38Z</time>
</trkpt>
<trkpt lat="30.7969729" lon="35.7183388">
<ele>1210.81</ele>
<time>2015-11-22T13:42:39Z</time>
</trkpt>
<trkpt lat="30.7969304" lon="35.7184921">
<ele>1209.10</ele>
<time>2015-11-22T13:42:40Z</time>
</trkpt>
<trkpt lat="30.7968846" lon="35.7186426">
<ele>1207.75</ele>
<time>2015-11-22T13:42:41Z</time>
</trkpt>
<trkpt lat="30.7968396" lon="35.7188009">
<ele>1206.57</ele>
<time>2015-11-22T13:42:42Z</time>
</trkpt>
<trkpt lat="30.7967890" lon="35.7189587">
<ele>1205.48</ele>
<time>2015-11-22T13:42:43Z</time>
</trkpt>
<trkpt lat="30.7967348" lon="35.7191212">
<ele>1204.44</ele>
<time>2015-11-22T13:42:44Z</time>
</trkpt>
<trkpt lat="30.7966829" lon="35.7192849">
<ele>1202.92</ele>
<time>2015-11-22T13:42:45Z</time>
</trkpt>
<trkpt lat="30.7966167" lon="35.7194572">
<ele>1201.66</ele>
<time>2015-11-22T13:42:46Z</time>
</trkpt>
<trkpt lat="30.7965565" lon="35.7196304">
<ele>1200.52</ele>
<time>2015-11-22T13:42:47Z</time>
</trkpt>
<trkpt lat="30.7964928" lon="35.7197987">
<ele>1199.46</ele>
<time>2015-11-22T13:42:48Z</time>
</trkpt>
<trkpt lat="30.7964275" lon="35.7199728">
<ele>1197.93</ele>
<time>2015-11-22T13:42:49Z</time>
</trkpt>
<trkpt lat="30.7963576" lon="35.7201462">
<ele>1196.66</ele>
<time>2015-11-22T13:42:50Z</time>
</trkpt>
<trkpt lat="30.7962837" lon="35.7203146">
<ele>1195.53</ele>
<time>2015-11-22T13:42:51Z</time>
</trkpt>
<trkpt lat="30.7962065" lon="35.7204841">
<ele>1194.46</ele>
<time>2015-11-22T13:42:52Z</time>
</trkpt>
<trkpt lat="30.7961245" lon="35.7206533">
<ele>1192.93</ele>
<time>2015-11-22T13:42:53Z</time>
</trkpt>
<trkpt lat="30.7960428" lon="35.7208210">
<ele>1191.66</ele>
<time>2015-11-22T13:42:54Z</time>
</trkpt>
<trkpt lat="30.7959559" lon="35.7209856">
<ele>1190.53</ele>
<time>2015-11-22T13:42:55Z</time>
</trkpt>
<trkpt lat="30.7958684" lon="35.7211552">
<ele>1188.96</ele>
<time>2015-11-22T13:42:56Z</time>
</trkpt>
<trkpt lat="30.7957723" lon="35.7213074">
<ele>1187.68</ele>
<time>2015-11-22T13:42:57Z</time>
</trkpt>
<trkpt lat="30.7956771" lon="35.7214601">
<ele>1187.04</ele>
<time>2015-11-22T13:42:58Z</time>
</trkpt>
<trkpt lat="30.7955728" lon="35.7215930">
<ele>1185.71</ele>
<time>2015-11-22T13:42:59Z</time>
</trkpt>
<trkpt lat="30.7954597" lon="35.7217155">
<ele>1184.05</ele>
<time>2015-11-22T13:43:00Z</time>
</trkpt>
<trkpt lat="30.7953506" lon="35.7218426">
<ele>1182.72</ele>
<time>2015-11-22T13:43:01Z</time>
</trkpt>
<trkpt lat="30.7952377" lon="35.7219607">
<ele>1181.56</ele>
<time>2015-11-22T13:43:02Z</time>
</trkpt>
<trkpt lat="30.7951313" lon="35.7220680">
<ele>1180.48</ele>
<time>2015-11-22T13:43:03Z</time>
</trkpt>
<trkpt lat="30.7950260" lon="35.7221886">
<ele>1179.44</ele>
<time>2015-11-22T13:43:04Z</time>
</trkpt>
<trkpt lat="30.7949126" lon="35.7223107">
<ele>1178.41</ele>
<time>2015-11-22T13:43:05Z</time>
</trkpt>
<trkpt lat="30.7948061" lon="35.7224186">
<ele>1177.90</ele>
<time>2015-11-22T13:43:06Z</time>
</trkpt>
<trkpt lat="30.7947022" lon="35.7225283">
<ele>1177.65</ele>
<time>2015-11-22T13:43:07Z</time>
</trkpt>
<trkpt lat="30.7946050" lon="35.7226383">
<ele>1177.02</ele>
<time>2015-11-22T13:43:08Z</time>
</trkpt>
<trkpt lat="30.7945077" lon="35.7227508">
<ele>1176.71</ele>
<time>2015-11-22T13:43:09Z</time>
</trkpt>
<trkpt lat="30.7944167" lon="35.7228571">
<ele>1176.05</ele>
<time>2015-11-22T13:43:10Z</time>
</trkpt>
<trkpt lat="30.7943248" lon="35.7229494">
<ele>1175.72</ele>
<time>2015-11-22T13:43:11Z</time>
</trkpt>
<trkpt lat="30.7942298" lon="35.7230502">
<ele>1175.06</ele>
<time>2015-11-22T13:43:12Z</time>
</trkpt>
<trkpt lat="30.7941366" lon="35.7231472">
<ele>1174.23</ele>
<time>2015-11-22T13:43:13Z</time>
</trkpt>
<trkpt lat="30.7940354" lon="35.7232557">
<ele>1173.81</ele>
<time>2015-11-22T13:43:14Z</time>
</trkpt>
<trkpt lat="30.7939409" lon="35.7233628">
<ele>1173.10</ele>
<time>2015-11-22T13:43:15Z</time>
</trkpt>
<trkpt lat="30.7938451" lon="35.7234678">
<ele>1172.75</ele>
<time>2015-11-22T13:43:16Z</time>
</trkpt>
<trkpt lat="30.7937413" lon="35.7235791">
<ele>1172.07</ele>
<time>2015-11-22T13:43:17Z</time>
</trkpt>
<trkpt lat="30.7936438" lon="35.7236839">
<ele>1171.23</ele>
<time>2015-11-22T13:43:18Z</time>
</trkpt>
<trkpt lat="30.7935449" lon="35.7237882">
<ele>1170.31</ele>
<time>2015-11-22T13:43:19Z</time>
</trkpt>
<trkpt lat="30.7934461" lon="35.7238993">
<ele>1169.85</ele>
<time>2015-11-22T13:43:20Z</time>
</trkpt>
<trkpt lat="30.7933523" lon="35.7240036">
<ele>1169.62</ele>
<time>2015-11-22T13:43:21Z</time>
</trkpt>
<trkpt lat="30.7932559" lon="35.7240989">
<ele>1169.01</ele>
<time>2015-11-22T13:43:22Z</time>
</trkpt>
<trkpt lat="30.7931634" lon="35.7241984">
<ele>1169.20</ele>
<time>2015-11-22T13:43:23Z</time>
</trkpt>
<trkpt lat="30.7930798" lon="35.7242907">
<ele>1169.30</ele>
<time>2015-11-22T13:43:24Z</time>
</trkpt>
<trkpt lat="30.7930035" lon="35.7243762">
<ele>1169.85</ele>
<time>2015-11-22T13:43:25Z</time>
</trkpt>
<trkpt lat="30.7929313" lon="35.7244661">
<ele>1170.62</ele>
<time>2015-11-22T13:43:26Z</time>
</trkpt>
<trkpt lat="30.7928620" lon="35.7245410">
<ele>1171.51</ele>
<time>2015-11-22T13:43:27Z</time>
</trkpt>
<trkpt lat="30.7928036" lon="35.7246024">
<ele>1172.45</ele>
<time>2015-11-22T13:43:28Z</time>
</trkpt>
<trkpt lat="30.7927520" lon="35.7246591">
<ele>1173.42</ele>
<time>2015-11-22T13:43:29Z</time>
</trkpt>
<trkpt lat="30.7927032" lon="35.7247090">
<ele>1173.91</ele>
<time>2015-11-22T13:43:30Z</time>
</trkpt>
<trkpt lat="30.7926567" lon="35.7247591">
<ele>1174.65</ele>
<time>2015-11-22T13:43:31Z</time>
</trkpt>
<trkpt lat="30.7926130" lon="35.7248057">
<ele>1175.02</ele>
<time>2015-11-22T13:43:32Z</time>
</trkpt>
<trkpt lat="30.7925742" lon="35.7248434">
<ele>1175.21</ele>
<time>2015-11-22T13:43:33Z</time>
</trkpt>
<trkpt lat="30.7925380" lon="35.7248804">
<ele>1175.80</ele>
<time>2015-11-22T13:43:34Z</time>
</trkpt>
<trkpt lat="30.7924676" lon="35.7249485">
<ele>1176.25</ele>
<time>2015-11-22T13:43:36Z</time>
</trkpt>
<trkpt lat="30.7924205" lon="35.7249964">
<ele>1176.36</ele>
<time>2015-11-22T13:43:38Z</time>
</trkpt>
<trkpt lat="30.7923787" lon="35.7250445">
<ele>1177.63</ele>
<time>2015-11-22T13:43:40Z</time>
</trkpt>
<trkpt lat="30.7923418" lon="35.7250962">
<ele>1177.45</ele>
<time>2015-11-22T13:43:42Z</time>
</trkpt>
<trkpt lat="30.7922970" lon="35.7251232">
<ele>1177.66</ele>
<time>2015-11-22T13:43:44Z</time>
</trkpt>
<trkpt lat="30.7922598" lon="35.7251602">
<ele>1178.21</ele>
<time>2015-11-22T13:43:46Z</time>
</trkpt>
<trkpt lat="30.7922254" lon="35.7251945">
<ele>1178.35</ele>
<time>2015-11-22T13:43:48Z</time>
</trkpt>
<trkpt lat="30.7921868" lon="35.7252251">
<ele>1177.88</ele>
<time>2015-11-22T13:43:50Z</time>
</trkpt>
<trkpt lat="30.7921503" lon="35.7252591">
<ele>1178.02</ele>
<time>2015-11-22T13:43:52Z</time>
</trkpt>
<trkpt lat="30.7921087" lon="35.7252914">
<ele>1178.80</ele>
<time>2015-11-22T13:43:54Z</time>
</trkpt>
<trkpt lat="30.7920692" lon="35.7253317">
<ele>1178.50</ele>
<time>2015-11-22T13:43:56Z</time>
</trkpt>
<trkpt lat="30.7920289" lon="35.7253664">
<ele>1178.67</ele>
<time>2015-11-22T13:43:58Z</time>
</trkpt>
<trkpt lat="30.7919902" lon="35.7253991">
<ele>1177.71</ele>
<time>2015-11-22T13:44:00Z</time>
</trkpt>
<trkpt lat="30.7919370" lon="35.7254454">
<ele>1177.43</ele>
<time>2015-11-22T13:44:03Z</time>
</trkpt>
<trkpt lat="30.7918993" lon="35.7254745">
<ele>1176.15</ele>
<time>2015-11-22T13:44:05Z</time>
</trkpt>
<trkpt lat="30.7918647" lon="35.7255089">
<ele>1176.08</ele>
<time>2015-11-22T13:44:07Z</time>
</trkpt>
<trkpt lat="30.7918277" lon="35.7255488">
<ele>1175.32</ele>
<time>2015-11-22T13:44:09Z</time>
</trkpt>
<trkpt lat="30.7917822" lon="35.7255855">
<ele>1174.87</ele>
<time>2015-11-22T13:44:11Z</time>
</trkpt>
<trkpt lat="30.7917298" lon="35.7256270">
<ele>1174.51</ele>
<time>2015-11-22T13:44:13Z</time>
</trkpt>
<trkpt lat="30.7916721" lon="35.7256745">
<ele>1174.42</ele>
<time>2015-11-22T13:44:15Z</time>
</trkpt>
<trkpt lat="30.7916144" lon="35.7257209">
<ele>1174.40</ele>
<time>2015-11-22T13:44:17Z</time>
</trkpt>
<trkpt lat="30.7915592" lon="35.7257648">
<ele>1174.90</ele>
<time>2015-11-22T13:44:19Z</time>
</trkpt>
<trkpt lat="30.7915041" lon="35.7258127">
<ele>1174.52</ele>
<time>2015-11-22T13:44:21Z</time>
</trkpt>
<trkpt lat="30.7914472" lon="35.7258662">
<ele>1174.43</ele>
<time>2015-11-22T13:44:23Z</time>
</trkpt>
<trkpt lat="30.7913865" lon="35.7259212">
<ele>1172.90</ele>
<time>2015-11-22T13:44:25Z</time>
</trkpt>
<trkpt lat="30.7913232" lon="35.7259797">
<ele>1171.27</ele>
<time>2015-11-22T13:44:27Z</time>
</trkpt>
<trkpt lat="30.7912864" lon="35.7260106">
<ele>1171.33</ele>
<time>2015-11-22T13:44:28Z</time>
</trkpt>
<trkpt lat="30.7912506" lon="35.7260433">
<ele>1171.36</ele>
<time>2015-11-22T13:44:29Z</time>
</trkpt>
<trkpt lat="30.7911993" lon="35.7260951">
<ele>1171.38</ele>
<time>2015-11-22T13:44:30Z</time>
</trkpt>
<trkpt lat="30.7911332" lon="35.7261586">
<ele>1171.39</ele>
<time>2015-11-22T13:44:32Z</time>
</trkpt>
<trkpt lat="30.7910907" lon="35.7261935">
<ele>1171.89</ele>
<time>2015-11-22T13:44:33Z</time>
</trkpt>
<trkpt lat="30.7910475" lon="35.7262269">
<ele>1172.64</ele>
<time>2015-11-22T13:44:34Z</time>
</trkpt>
<trkpt lat="30.7910026" lon="35.7262560">
<ele>1173.02</ele>
<time>2015-11-22T13:44:35Z</time>
</trkpt>
<trkpt lat="30.7909638" lon="35.7262896">
<ele>1173.21</ele>
<time>2015-11-22T13:44:36Z</time>
</trkpt>
<trkpt lat="30.7909199" lon="35.7263194">
<ele>1173.30</ele>
<time>2015-11-22T13:44:37Z</time>
</trkpt>
<trkpt lat="30.7908841" lon="35.7263596">
<ele>1173.35</ele>
<time>2015-11-22T13:44:38Z</time>
</trkpt>
<trkpt lat="30.7908564" lon="35.7264013">
<ele>1173.37</ele>
<time>2015-11-22T13:44:39Z</time>
</trkpt>
<trkpt lat="30.7908148" lon="35.7264355">
<ele>1173.38</ele>
<time>2015-11-22T13:44:40Z</time>
</trkpt>
<trkpt lat="30.7907718" lon="35.7264707">
<ele>1173.39</ele>
<time>2015-11-22T13:44:41Z</time>
</trkpt>
<trkpt lat="30.7907248" lon="35.7265007">
<ele>1173.39</ele>
<time>2015-11-22T13:44:42Z</time>
</trkpt>
<trkpt lat="30.7906860" lon="35.7265312">
<ele>1172.89</ele>
<time>2015-11-22T13:44:43Z</time>
</trkpt>
<trkpt lat="30.7906484" lon="35.7265626">
<ele>1173.14</ele>
<time>2015-11-22T13:44:44Z</time>
</trkpt>
<trkpt lat="30.7906052" lon="35.7265937">
<ele>1173.27</ele>
<time>2015-11-22T13:44:45Z</time>
</trkpt>
<trkpt lat="30.7905649" lon="35.7266261">
<ele>1173.33</ele>
<time>2015-11-22T13:44:46Z</time>
</trkpt>
<trkpt lat="30.7904912" lon="35.7266891">
<ele>1173.38</ele>
<time>2015-11-22T13:44:48Z</time>
</trkpt>
<trkpt lat="30.7904532" lon="35.7267262">
<ele>1173.39</ele>
<time>2015-11-22T13:44:49Z</time>
</trkpt>
<trkpt lat="30.7903793" lon="35.7267898">
<ele>1173.39</ele>
<time>2015-11-22T13:44:51Z</time>
</trkpt>
<trkpt lat="30.7903228" lon="35.7268563">
<ele>1173.39</ele>
<time>2015-11-22T13:44:53Z</time>
</trkpt>
<trkpt lat="30.7902548" lon="35.7269229">
<ele>1175.39</ele>
<time>2015-11-22T13:44:55Z</time>
</trkpt>
<trkpt lat="30.7902109" lon="35.7269525">
<ele>1175.39</ele>
<time>2015-11-22T13:44:56Z</time>
</trkpt>
<trkpt lat="30.7901756" lon="35.7269860">
<ele>1175.39</ele>
<time>2015-11-22T13:44:57Z</time>
</trkpt>
<trkpt lat="30.7901132" lon="35.7270490">
<ele>1175.64</ele>
<time>2015-11-22T13:44:59Z</time>
</trkpt>
<trkpt lat="30.7900726" lon="35.7270808">
<ele>1175.02</ele>
<time>2015-11-22T13:45:00Z</time>
</trkpt>
<trkpt lat="30.7900343" lon="35.7271155">
<ele>1175.21</ele>
<time>2015-11-22T13:45:01Z</time>
</trkpt>
<trkpt lat="30.7899938" lon="35.7271584">
<ele>1175.30</ele>
<time>2015-11-22T13:45:02Z</time>
</trkpt>
<trkpt lat="30.7899526" lon="35.7271916">
<ele>1174.85</ele>
<time>2015-11-22T13:45:03Z</time>
</trkpt>
<trkpt lat="30.7899149" lon="35.7272241">
<ele>1175.12</ele>
<time>2015-11-22T13:45:04Z</time>
</trkpt>
<trkpt lat="30.7898742" lon="35.7272568">
<ele>1175.26</ele>
<time>2015-11-22T13:45:05Z</time>
</trkpt>
<trkpt lat="30.7898097" lon="35.7273192">
<ele>1176.11</ele>
<time>2015-11-22T13:45:07Z</time>
</trkpt>
<trkpt lat="30.7897475" lon="35.7273702">
<ele>1175.82</ele>
<time>2015-11-22T13:45:09Z</time>
</trkpt>
<trkpt lat="30.7897144" lon="35.7274060">
<ele>1175.61</ele>
<time>2015-11-22T13:45:10Z</time>
</trkpt>
<trkpt lat="30.7896388" lon="35.7274722">
<ele>1174.70</ele>
<time>2015-11-22T13:45:12Z</time>
</trkpt>
<trkpt lat="30.7895722" lon="35.7275346">
<ele>1174.47</ele>
<time>2015-11-22T13:45:14Z</time>
</trkpt>
<trkpt lat="30.7894960" lon="35.7275958">
<ele>1173.66</ele>
<time>2015-11-22T13:45:16Z</time>
</trkpt>
<trkpt lat="30.7894526" lon="35.7276285">
<ele>1173.53</ele>
<time>2015-11-22T13:45:17Z</time>
</trkpt>
<trkpt lat="30.7894080" lon="35.7276648">
<ele>1173.46</ele>
<time>2015-11-22T13:45:18Z</time>
</trkpt>
<trkpt lat="30.7893668" lon="35.7277039">
<ele>1173.93</ele>
<time>2015-11-22T13:45:19Z</time>
</trkpt>
<trkpt lat="30.7893292" lon="35.7277438">
<ele>1174.66</ele>
<time>2015-11-22T13:45:20Z</time>
</trkpt>
<trkpt lat="30.7892924" lon="35.7277760">
<ele>1174.53</ele>
<time>2015-11-22T13:45:21Z</time>
</trkpt>
<trkpt lat="30.7892492" lon="35.7278078">
<ele>1174.46</ele>
<time>2015-11-22T13:45:22Z</time>
</trkpt>
<trkpt lat="30.7892051" lon="35.7278355">
<ele>1174.43</ele>
<time>2015-11-22T13:45:23Z</time>
</trkpt>
<trkpt lat="30.7891229" lon="35.7279054">
<ele>1174.90</ele>
<time>2015-11-22T13:45:25Z</time>
</trkpt>
<trkpt lat="30.7890876" lon="35.7279487">
<ele>1174.65</ele>
<time>2015-11-22T13:45:26Z</time>
</trkpt>
<trkpt lat="30.7890413" lon="35.7279908">
<ele>1175.02</ele>
<time>2015-11-22T13:45:27Z</time>
</trkpt>
<trkpt lat="30.7889979" lon="35.7280286">
<ele>1175.21</ele>
<time>2015-11-22T13:45:28Z</time>
</trkpt>
<trkpt lat="30.7889572" lon="35.7280627">
<ele>1175.30</ele>
<time>2015-11-22T13:45:29Z</time>
</trkpt>
<trkpt lat="30.7889138" lon="35.7281017">
<ele>1174.85</ele>
<time>2015-11-22T13:45:30Z</time>
</trkpt>
<trkpt lat="30.7888693" lon="35.7281345">
<ele>1174.12</ele>
<time>2015-11-22T13:45:31Z</time>
</trkpt>
<trkpt lat="30.7887913" lon="35.7282178">
<ele>1173.08</ele>
<time>2015-11-22T13:45:33Z</time>
</trkpt>
<trkpt lat="30.7887454" lon="35.7282549">
<ele>1172.73</ele>
<time>2015-11-22T13:45:34Z</time>
</trkpt>
<trkpt lat="30.7886647" lon="35.7283282">
<ele>1170.98</ele>
<time>2015-11-22T13:45:36Z</time>
</trkpt>
<trkpt lat="30.7886130" lon="35.7283660">
<ele>1170.69</ele>
<time>2015-11-22T13:45:37Z</time>
</trkpt>
<trkpt lat="30.7885661" lon="35.7284087">
<ele>1171.04</ele>
<time>2015-11-22T13:45:38Z</time>
</trkpt>
<trkpt lat="30.7885199" lon="35.7284451">
<ele>1171.72</ele>
<time>2015-11-22T13:45:39Z</time>
</trkpt>
<trkpt lat="30.7884738" lon="35.7284824">
<ele>1172.06</ele>
<time>2015-11-22T13:45:40Z</time>
</trkpt>
<trkpt lat="30.7884312" lon="35.7285215">
<ele>1172.22</ele>
<time>2015-11-22T13:45:41Z</time>
</trkpt>
<trkpt lat="30.7883900" lon="35.7285627">
<ele>1172.31</ele>
<time>2015-11-22T13:45:42Z</time>
</trkpt>
<trkpt lat="30.7883464" lon="35.7286041">
<ele>1171.85</ele>
<time>2015-11-22T13:45:43Z</time>
</trkpt>
<trkpt lat="30.7883058" lon="35.7286360">
<ele>1171.62</ele>
<time>2015-11-22T13:45:44Z</time>
</trkpt>
<trkpt lat="30.7882547" lon="35.7286811">
<ele>1171.51</ele>
<time>2015-11-22T13:45:45Z</time>
</trkpt>
<trkpt lat="30.7882093" lon="35.7287210">
<ele>1171.45</ele>
<time>2015-11-22T13:45:46Z</time>
</trkpt>
<trkpt lat="30.7881602" lon="35.7287600">
<ele>1171.42</ele>
<time>2015-11-22T13:45:47Z</time>
</trkpt>
<trkpt lat="30.7881150" lon="35.7288010">
<ele>1171.41</ele>
<time>2015-11-22T13:45:48Z</time>
</trkpt>
<trkpt lat="30.7880656" lon="35.7288356">
<ele>1171.90</ele>
<time>2015-11-22T13:45:49Z</time>
</trkpt>
<trkpt lat="30.7880254" lon="35.7288733">
<ele>1172.15</ele>
<time>2015-11-22T13:45:50Z</time>
</trkpt>
<trkpt lat="30.7879876" lon="35.7289123">
<ele>1172.27</ele>
<time>2015-11-22T13:45:51Z</time>
</trkpt>
<trkpt lat="30.7879444" lon="35.7289478">
<ele>1172.83</ele>
<time>2015-11-22T13:45:52Z</time>
</trkpt>
<trkpt lat="30.7878956" lon="35.7289875">
<ele>1173.11</ele>
<time>2015-11-22T13:45:53Z</time>
</trkpt>
<trkpt lat="30.7878508" lon="35.7290376">
<ele>1173.25</ele>
<time>2015-11-22T13:45:54Z</time>
</trkpt>
<trkpt lat="30.7877992" lon="35.7290826">
<ele>1173.32</ele>
<time>2015-11-22T13:45:55Z</time>
</trkpt>
<trkpt lat="30.7877504" lon="35.7291282">
<ele>1173.36</ele>
<time>2015-11-22T13:45:56Z</time>
</trkpt>
<trkpt lat="30.7877002" lon="35.7291708">
<ele>1172.88</ele>
<time>2015-11-22T13:45:57Z</time>
</trkpt>
<trkpt lat="30.7876516" lon="35.7292117">
<ele>1173.14</ele>
<time>2015-11-22T13:45:58Z</time>
</trkpt>
<trkpt lat="30.7876138" lon="35.7292508">
<ele>1173.26</ele>
<time>2015-11-22T13:45:59Z</time>
</trkpt>
<trkpt lat="30.7875665" lon="35.7293007">
<ele>1173.33</ele>
<time>2015-11-22T13:46:00Z</time>
</trkpt>
<trkpt lat="30.7875210" lon="35.7293377">
<ele>1173.36</ele>
<time>2015-11-22T13:46:01Z</time>
</trkpt>
<trkpt lat="30.7874810" lon="35.7293750">
<ele>1172.38</ele>
<time>2015-11-22T13:46:02Z</time>
</trkpt>
<trkpt lat="30.7874374" lon="35.7294214">
<ele>1171.89</ele>
<time>2015-11-22T13:46:03Z</time>
</trkpt>
<trkpt lat="30.7874027" lon="35.7294611">
<ele>1171.64</ele>
<time>2015-11-22T13:46:04Z</time>
</trkpt>
<trkpt lat="30.7873648" lon="35.7294977">
<ele>1171.02</ele>
<time>2015-11-22T13:46:05Z</time>
</trkpt>
<trkpt lat="30.7873185" lon="35.7295386">
<ele>1171.21</ele>
<time>2015-11-22T13:46:06Z</time>
</trkpt>
<trkpt lat="30.7872724" lon="35.7295777">
<ele>1171.30</ele>
<time>2015-11-22T13:46:07Z</time>
</trkpt>
<trkpt lat="30.7872292" lon="35.7296112">
<ele>1171.35</ele>
<time>2015-11-22T13:46:08Z</time>
</trkpt>
<trkpt lat="30.7871828" lon="35.7296465">
<ele>1171.87</ele>
<time>2015-11-22T13:46:09Z</time>
</trkpt>
<trkpt lat="30.7871430" lon="35.7296838">
<ele>1172.13</ele>
<time>2015-11-22T13:46:10Z</time>
</trkpt>
<trkpt lat="30.7871055" lon="35.7297159">
<ele>1172.26</ele>
<time>2015-11-22T13:46:11Z</time>
</trkpt>
<trkpt lat="30.7870276" lon="35.7297740">
<ele>1172.11</ele>
<time>2015-11-22T13:46:13Z</time>
</trkpt>
<trkpt lat="30.7869895" lon="35.7298020">
<ele>1171.75</ele>
<time>2015-11-22T13:46:14Z</time>
</trkpt>
<trkpt lat="30.7869515" lon="35.7298344">
<ele>1171.57</ele>
<time>2015-11-22T13:46:15Z</time>
</trkpt>
<trkpt lat="30.7869104" lon="35.7298666">
<ele>1171.48</ele>
<time>2015-11-22T13:46:16Z</time>
</trkpt>
<trkpt lat="30.7868712" lon="35.7298998">
<ele>1171.44</ele>
<time>2015-11-22T13:46:17Z</time>
</trkpt>
<trkpt lat="30.7868319" lon="35.7299366">
<ele>1171.42</ele>
<time>2015-11-22T13:46:18Z</time>
</trkpt>
<trkpt lat="30.7867971" lon="35.7299720">
<ele>1171.91</ele>
<time>2015-11-22T13:46:19Z</time>
</trkpt>
<trkpt lat="30.7867556" lon="35.7300003">
<ele>1172.65</ele>
<time>2015-11-22T13:46:20Z</time>
</trkpt>
<trkpt lat="30.7867188" lon="35.7300314">
<ele>1173.52</ele>
<time>2015-11-22T13:46:21Z</time>
</trkpt>
<trkpt lat="30.7866802" lon="35.7300619">
<ele>1173.96</ele>
<time>2015-11-22T13:46:22Z</time>
</trkpt>
<trkpt lat="30.7866170" lon="35.7301191">
<ele>1174.29</ele>
<time>2015-11-22T13:46:24Z</time>
</trkpt>
<trkpt lat="30.7865512" lon="35.7301847">
<ele>1174.37</ele>
<time>2015-11-22T13:46:26Z</time>
</trkpt>
<trkpt lat="30.7864831" lon="35.7302283">
<ele>1173.89</ele>
<time>2015-11-22T13:46:28Z</time>
</trkpt>
<trkpt lat="30.7864146" lon="35.7302853">
<ele>1174.27</ele>
<time>2015-11-22T13:46:30Z</time>
</trkpt>
<trkpt lat="30.7863635" lon="35.7303327">
<ele>1174.36</ele>
<time>2015-11-22T13:46:32Z</time>
</trkpt>
<trkpt lat="30.7863172" lon="35.7303759">
<ele>1174.64</ele>
<time>2015-11-22T13:46:34Z</time>
</trkpt>
<trkpt lat="30.7862664" lon="35.7304164">
<ele>1174.45</ele>
<time>2015-11-22T13:46:36Z</time>
</trkpt>
<trkpt lat="30.7862132" lon="35.7304597">
<ele>1175.16</ele>
<time>2015-11-22T13:46:38Z</time>
</trkpt>
<trkpt lat="30.7861592" lon="35.7305066">
<ele>1175.34</ele>
<time>2015-11-22T13:46:40Z</time>
</trkpt>
<trkpt lat="30.7861063" lon="35.7305522">
<ele>1175.38</ele>
<time>2015-11-22T13:46:42Z</time>
</trkpt>
<trkpt lat="30.7860552" lon="35.7306016">
<ele>1175.89</ele>
<time>2015-11-22T13:46:44Z</time>
</trkpt>
<trkpt lat="30.7860028" lon="35.7306518">
<ele>1176.27</ele>
<time>2015-11-22T13:46:46Z</time>
</trkpt>
<trkpt lat="30.7859427" lon="35.7307063">
<ele>1176.36</ele>
<time>2015-11-22T13:46:48Z</time>
</trkpt>
<trkpt lat="30.7858825" lon="35.7307608">
<ele>1177.14</ele>
<time>2015-11-22T13:46:50Z</time>
</trkpt>
<trkpt lat="30.7858219" lon="35.7308158">
<ele>1177.33</ele>
<time>2015-11-22T13:46:52Z</time>
</trkpt>
<trkpt lat="30.7857603" lon="35.7308711">
<ele>1177.38</ele>
<time>2015-11-22T13:46:54Z</time>
</trkpt>
<trkpt lat="30.7856968" lon="35.7309270">
<ele>1178.14</ele>
<time>2015-11-22T13:46:56Z</time>
</trkpt>
<trkpt lat="30.7856334" lon="35.7309830">
<ele>1178.33</ele>
<time>2015-11-22T13:46:58Z</time>
</trkpt>
<trkpt lat="30.7855685" lon="35.7310390">
<ele>1178.38</ele>
<time>2015-11-22T13:47:00Z</time>
</trkpt>
<trkpt lat="30.7855030" lon="35.7310931">
<ele>1178.39</ele>
<time>2015-11-22T13:47:02Z</time>
</trkpt>
<trkpt lat="30.7854441" lon="35.7311447">
<ele>1178.89</ele>
<time>2015-11-22T13:47:04Z</time>
</trkpt>
<trkpt lat="30.7853873" lon="35.7311969">
<ele>1179.27</ele>
<time>2015-11-22T13:47:06Z</time>
</trkpt>
<trkpt lat="30.7853266" lon="35.7312506">
<ele>1179.36</ele>
<time>2015-11-22T13:47:08Z</time>
</trkpt>
<trkpt lat="30.7852645" lon="35.7313058">
<ele>1179.39</ele>
<time>2015-11-22T13:47:10Z</time>
</trkpt>
<trkpt lat="30.7852009" lon="35.7313645">
<ele>1180.14</ele>
<time>2015-11-22T13:47:12Z</time>
</trkpt>
<trkpt lat="30.7851327" lon="35.7314230">
<ele>1180.33</ele>
<time>2015-11-22T13:47:14Z</time>
</trkpt>
<trkpt lat="30.7850647" lon="35.7314812">
<ele>1180.38</ele>
<time>2015-11-22T13:47:16Z</time>
</trkpt>
<trkpt lat="30.7849996" lon="35.7315343">
<ele>1180.39</ele>
<time>2015-11-22T13:47:18Z</time>
</trkpt>
<trkpt lat="30.7849370" lon="35.7315892">
<ele>1180.89</ele>
<time>2015-11-22T13:47:20Z</time>
</trkpt>
<trkpt lat="30.7848744" lon="35.7316481">
<ele>1181.27</ele>
<time>2015-11-22T13:47:22Z</time>
</trkpt>
<trkpt lat="30.7848092" lon="35.7317069">
<ele>1181.36</ele>
<time>2015-11-22T13:47:24Z</time>
</trkpt>
<trkpt lat="30.7847462" lon="35.7317644">
<ele>1181.39</ele>
<time>2015-11-22T13:47:26Z</time>
</trkpt>
<trkpt lat="30.7846934" lon="35.7318174">
<ele>1181.39</ele>
<time>2015-11-22T13:47:28Z</time>
</trkpt>
<trkpt lat="30.7846376" lon="35.7318735">
<ele>1181.39</ele>
<time>2015-11-22T13:47:30Z</time>
</trkpt>
<trkpt lat="30.7845782" lon="35.7319320">
<ele>1182.14</ele>
<time>2015-11-22T13:47:32Z</time>
</trkpt>
<trkpt lat="30.7845160" lon="35.7319961">
<ele>1181.83</ele>
<time>2015-11-22T13:47:34Z</time>
</trkpt>
<trkpt lat="30.7844514" lon="35.7320661">
<ele>1182.00</ele>
<time>2015-11-22T13:47:36Z</time>
</trkpt>
<trkpt lat="30.7843904" lon="35.7321329">
<ele>1182.30</ele>
<time>2015-11-22T13:47:38Z</time>
</trkpt>
<trkpt lat="30.7843384" lon="35.7322031">
<ele>1182.37</ele>
<time>2015-11-22T13:47:40Z</time>
</trkpt>
<trkpt lat="30.7842918" lon="35.7322654">
<ele>1182.39</ele>
<time>2015-11-22T13:47:42Z</time>
</trkpt>
<trkpt lat="30.7842458" lon="35.7323256">
<ele>1182.39</ele>
<time>2015-11-22T13:47:44Z</time>
</trkpt>
<trkpt lat="30.7842041" lon="35.7323881">
<ele>1182.39</ele>
<time>2015-11-22T13:47:46Z</time>
</trkpt>
<trkpt lat="30.7841620" lon="35.7324542">
<ele>1181.89</ele>
<time>2015-11-22T13:47:48Z</time>
</trkpt>
<trkpt lat="30.7841074" lon="35.7325382">
<ele>1182.02</ele>
<time>2015-11-22T13:47:50Z</time>
</trkpt>
<trkpt lat="30.7840542" lon="35.7326209">
<ele>1181.55</ele>
<time>2015-11-22T13:47:52Z</time>
</trkpt>
<trkpt lat="30.7840030" lon="35.7327066">
<ele>1181.43</ele>
<time>2015-11-22T13:47:54Z</time>
</trkpt>
<trkpt lat="30.7839766" lon="35.7327493">
<ele>1181.41</ele>
<time>2015-11-22T13:47:55Z</time>
</trkpt>
<trkpt lat="30.7839495" lon="35.7327968">
<ele>1181.40</ele>
<time>2015-11-22T13:47:56Z</time>
</trkpt>
<trkpt lat="30.7839208" lon="35.7328454">
<ele>1181.40</ele>
<time>2015-11-22T13:47:57Z</time>
</trkpt>
<trkpt lat="30.7838931" lon="35.7328931">
<ele>1181.40</ele>
<time>2015-11-22T13:47:58Z</time>
</trkpt>
<trkpt lat="30.7838623" lon="35.7329419">
<ele>1181.40</ele>
<time>2015-11-22T13:47:59Z</time>
</trkpt>
<trkpt lat="30.7838321" lon="35.7329926">
<ele>1180.89</ele>
<time>2015-11-22T13:48:00Z</time>
</trkpt>
<trkpt lat="30.7837976" lon="35.7330429">
<ele>1180.64</ele>
<time>2015-11-22T13:48:01Z</time>
</trkpt>
<trkpt lat="30.7837665" lon="35.7330970">
<ele>1180.52</ele>
<time>2015-11-22T13:48:02Z</time>
</trkpt>
<trkpt lat="30.7837361" lon="35.7331516">
<ele>1180.46</ele>
<time>2015-11-22T13:48:03Z</time>
</trkpt>
<trkpt lat="30.7837070" lon="35.7332024">
<ele>1180.43</ele>
<time>2015-11-22T13:48:04Z</time>
</trkpt>
<trkpt lat="30.7836768" lon="35.7332534">
<ele>1180.41</ele>
<time>2015-11-22T13:48:05Z</time>
</trkpt>
<trkpt lat="30.7836450" lon="35.7333082">
<ele>1180.40</ele>
<time>2015-11-22T13:48:06Z</time>
</trkpt>
<trkpt lat="30.7836130" lon="35.7333604">
<ele>1179.90</ele>
<time>2015-11-22T13:48:07Z</time>
</trkpt>
<trkpt lat="30.7835845" lon="35.7334157">
<ele>1179.65</ele>
<time>2015-11-22T13:48:08Z</time>
</trkpt>
<trkpt lat="30.7835542" lon="35.7334687">
<ele>1179.02</ele>
<time>2015-11-22T13:48:09Z</time>
</trkpt>
<trkpt lat="30.7835228" lon="35.7335222">
<ele>1178.71</ele>
<time>2015-11-22T13:48:10Z</time>
</trkpt>
<trkpt lat="30.7834865" lon="35.7335783">
<ele>1178.55</ele>
<time>2015-11-22T13:48:11Z</time>
</trkpt>
<trkpt lat="30.7834564" lon="35.7336306">
<ele>1178.47</ele>
<time>2015-11-22T13:48:12Z</time>
</trkpt>
<trkpt lat="30.7834273" lon="35.7336822">
<ele>1177.93</ele>
<time>2015-11-22T13:48:13Z</time>
</trkpt>
<trkpt lat="30.7833953" lon="35.7337345">
<ele>1177.66</ele>
<time>2015-11-22T13:48:14Z</time>
</trkpt>
<trkpt lat="30.7833654" lon="35.7337894">
<ele>1177.53</ele>
<time>2015-11-22T13:48:15Z</time>
</trkpt>
<trkpt lat="30.7833342" lon="35.7338424">
<ele>1177.46</ele>
<time>2015-11-22T13:48:16Z</time>
</trkpt>
<trkpt lat="30.7832987" lon="35.7338928">
<ele>1177.43</ele>
<time>2015-11-22T13:48:17Z</time>
</trkpt>
<trkpt lat="30.7832658" lon="35.7339519">
<ele>1177.41</ele>
<time>2015-11-22T13:48:18Z</time>
</trkpt>
<trkpt lat="30.7832346" lon="35.7340127">
<ele>1176.90</ele>
<time>2015-11-22T13:48:19Z</time>
</trkpt>
<trkpt lat="30.7832024" lon="35.7340742">
<ele>1176.65</ele>
<time>2015-11-22T13:48:20Z</time>
</trkpt>
<trkpt lat="30.7831690" lon="35.7341309">
<ele>1176.52</ele>
<time>2015-11-22T13:48:21Z</time>
</trkpt>
<trkpt lat="30.7831356" lon="35.7341841">
<ele>1176.46</ele>
<time>2015-11-22T13:48:22Z</time>
</trkpt>
<trkpt lat="30.7831012" lon="35.7342392">
<ele>1176.43</ele>
<time>2015-11-22T13:48:23Z</time>
</trkpt>
<trkpt lat="30.7830708" lon="35.7342913">
<ele>1176.41</ele>
<time>2015-11-22T13:48:24Z</time>
</trkpt>
<trkpt lat="30.7830410" lon="35.7343419">
<ele>1176.40</ele>
<time>2015-11-22T13:48:25Z</time>
</trkpt>
<trkpt lat="30.7830131" lon="35.7343907">
<ele>1176.40</ele>
<time>2015-11-22T13:48:26Z</time>
</trkpt>
<trkpt lat="30.7829823" lon="35.7344387">
<ele>1176.40</ele>
<time>2015-11-22T13:48:27Z</time>
</trkpt>
<trkpt lat="30.7829532" lon="35.7344853">
<ele>1176.40</ele>
<time>2015-11-22T13:48:28Z</time>
</trkpt>
<trkpt lat="30.7829196" lon="35.7345389">
<ele>1176.39</ele>
<time>2015-11-22T13:48:29Z</time>
</trkpt>
<trkpt lat="30.7828906" lon="35.7345888">
<ele>1176.39</ele>
<time>2015-11-22T13:48:30Z</time>
</trkpt>
<trkpt lat="30.7828570" lon="35.7346409">
<ele>1176.39</ele>
<time>2015-11-22T13:48:31Z</time>
</trkpt>
<trkpt lat="30.7828250" lon="35.7346917">
<ele>1176.39</ele>
<time>2015-11-22T13:48:32Z</time>
</trkpt>
<trkpt lat="30.7827879" lon="35.7347435">
<ele>1176.39</ele>
<time>2015-11-22T13:48:33Z</time>
</trkpt>
<trkpt lat="30.7827563" lon="35.7347973">
<ele>1176.39</ele>
<time>2015-11-22T13:48:34Z</time>
</trkpt>
<trkpt lat="30.7827257" lon="35.7348557">
<ele>1176.39</ele>
<time>2015-11-22T13:48:35Z</time>
</trkpt>
<trkpt lat="30.7826955" lon="35.7349101">
<ele>1176.39</ele>
<time>2015-11-22T13:48:36Z</time>
</trkpt>
<trkpt lat="30.7826633" lon="35.7349633">
<ele>1176.89</ele>
<time>2015-11-22T13:48:37Z</time>
</trkpt>
<trkpt lat="30.7826293" lon="35.7350050">
<ele>1177.14</ele>
<time>2015-11-22T13:48:38Z</time>
</trkpt>
<trkpt lat="30.7825984" lon="35.7350545">
<ele>1177.27</ele>
<time>2015-11-22T13:48:39Z</time>
</trkpt>
<trkpt lat="30.7825715" lon="35.7351002">
<ele>1177.33</ele>
<time>2015-11-22T13:48:40Z</time>
</trkpt>
<trkpt lat="30.7825425" lon="35.7351477">
<ele>1177.36</ele>
<time>2015-11-22T13:48:41Z</time>
</trkpt>
<trkpt lat="30.7825118" lon="35.7351964">
<ele>1177.38</ele>
<time>2015-11-22T13:48:42Z</time>
</trkpt>
<trkpt lat="30.7824804" lon="35.7352439">
<ele>1177.39</ele>
<time>2015-11-22T13:48:43Z</time>
</trkpt>
<trkpt lat="30.7824508" lon="35.7352925">
<ele>1177.89</ele>
<time>2015-11-22T13:48:44Z</time>
</trkpt>
<trkpt lat="30.7824195" lon="35.7353461">
<ele>1177.64</ele>
<time>2015-11-22T13:48:45Z</time>
</trkpt>
<trkpt lat="30.7823891" lon="35.7353970">
<ele>1177.52</ele>
<time>2015-11-22T13:48:46Z</time>
</trkpt>
<trkpt lat="30.7823609" lon="35.7354473">
<ele>1177.46</ele>
<time>2015-11-22T13:48:47Z</time>
</trkpt>
<trkpt lat="30.7823296" lon="35.7354981">
<ele>1177.43</ele>
<time>2015-11-22T13:48:48Z</time>
</trkpt>
<trkpt lat="30.7822987" lon="35.7355511">
<ele>1177.41</ele>
<time>2015-11-22T13:48:49Z</time>
</trkpt>
<trkpt lat="30.7822679" lon="35.7356041">
<ele>1177.40</ele>
<time>2015-11-22T13:48:50Z</time>
</trkpt>
<trkpt lat="30.7822348" lon="35.7356593">
<ele>1177.40</ele>
<time>2015-11-22T13:48:51Z</time>
</trkpt>
<trkpt lat="30.7822016" lon="35.7357139">
<ele>1177.40</ele>
<time>2015-11-22T13:48:52Z</time>
</trkpt>
<trkpt lat="30.7821680" lon="35.7357680">
<ele>1177.40</ele>
<time>2015-11-22T13:48:53Z</time>
</trkpt>
<trkpt lat="30.7821368" lon="35.7358220">
<ele>1177.39</ele>
<time>2015-11-22T13:48:54Z</time>
</trkpt>
<trkpt lat="30.7821045" lon="35.7358760">
<ele>1177.39</ele>
<time>2015-11-22T13:48:55Z</time>
</trkpt>
<trkpt lat="30.7820751" lon="35.7359298">
<ele>1177.39</ele>
<time>2015-11-22T13:48:56Z</time>
</trkpt>
<trkpt lat="30.7820480" lon="35.7359728">
<ele>1177.39</ele>
<time>2015-11-22T13:48:57Z</time>
</trkpt>
<trkpt lat="30.7820204" lon="35.7360194">
<ele>1177.39</ele>
<time>2015-11-22T13:48:58Z</time>
</trkpt>
<trkpt lat="30.7819946" lon="35.7360628">
<ele>1177.39</ele>
<time>2015-11-22T13:48:59Z</time>
</trkpt>
<trkpt lat="30.7819445" lon="35.7361438">
<ele>1177.39</ele>
<time>2015-11-22T13:49:01Z</time>
</trkpt>
<trkpt lat="30.7818942" lon="35.7362167">
<ele>1177.89</ele>
<time>2015-11-22T13:49:03Z</time>
</trkpt>
<trkpt lat="30.7818518" lon="35.7362793">
<ele>1177.52</ele>
<time>2015-11-22T13:49:05Z</time>
</trkpt>
<trkpt lat="30.7818229" lon="35.7363475">
<ele>1177.93</ele>
<time>2015-11-22T13:49:07Z</time>
</trkpt>
<trkpt lat="30.7817867" lon="35.7364292">
<ele>1178.28</ele>
<time>2015-11-22T13:49:09Z</time>
</trkpt>
<trkpt lat="30.7817441" lon="35.7365083">
<ele>1177.61</ele>
<time>2015-11-22T13:49:11Z</time>
</trkpt>
<trkpt lat="30.7817027" lon="35.7365914">
<ele>1177.45</ele>
<time>2015-11-22T13:49:13Z</time>
</trkpt>
<trkpt lat="30.7816579" lon="35.7366763">
<ele>1177.41</ele>
<time>2015-11-22T13:49:15Z</time>
</trkpt>
<trkpt lat="30.7816109" lon="35.7367545">
<ele>1177.40</ele>
<time>2015-11-22T13:49:17Z</time>
</trkpt>
<trkpt lat="30.7815663" lon="35.7368308">
<ele>1178.14</ele>
<time>2015-11-22T13:49:19Z</time>
</trkpt>
<trkpt lat="30.7815195" lon="35.7369093">
<ele>1178.83</ele>
<time>2015-11-22T13:49:21Z</time>
</trkpt>
<trkpt lat="30.7814873" lon="35.7369468">
<ele>1179.11</ele>
<time>2015-11-22T13:49:22Z</time>
</trkpt>
<trkpt lat="30.7814559" lon="35.7369859">
<ele>1179.25</ele>
<time>2015-11-22T13:49:23Z</time>
</trkpt>
<trkpt lat="30.7814162" lon="35.7370525">
<ele>1179.86</ele>
<time>2015-11-22T13:49:25Z</time>
</trkpt>
<trkpt lat="30.7813797" lon="35.7371161">
<ele>1180.76</ele>
<time>2015-11-22T13:49:27Z</time>
</trkpt>
<trkpt lat="30.7813282" lon="35.7371463">
<ele>1181.74</ele>
<time>2015-11-22T13:49:29Z</time>
</trkpt>
<trkpt lat="30.7812801" lon="35.7371516">
<ele>1180.98</ele>
<time>2015-11-22T13:49:31Z</time>
</trkpt>
<trkpt lat="30.7812252" lon="35.7371386">
<ele>1179.93</ele>
<time>2015-11-22T13:49:35Z</time>
</trkpt>
<trkpt lat="30.7811784" lon="35.7371272">
<ele>1180.21</ele>
<time>2015-11-22T13:49:38Z</time>
</trkpt>
<trkpt lat="30.7811305" lon="35.7371020">
<ele>1180.87</ele>
<time>2015-11-22T13:49:41Z</time>
</trkpt>
<trkpt lat="30.7810828" lon="35.7370625">
<ele>1179.70</ele>
<time>2015-11-22T13:49:44Z</time>
</trkpt>
<trkpt lat="30.7810255" lon="35.7370367">
<ele>1179.43</ele>
<time>2015-11-22T13:49:47Z</time>
</trkpt>
<trkpt lat="30.7809827" lon="35.7370147">
<ele>1180.15</ele>
<time>2015-11-22T13:49:49Z</time>
</trkpt>
<trkpt lat="30.7809366" lon="35.7369954">
<ele>1179.83</ele>
<time>2015-11-22T13:49:51Z</time>
</trkpt>
<trkpt lat="30.7808887" lon="35.7369750">
<ele>1179.50</ele>
<time>2015-11-22T13:49:53Z</time>
</trkpt>
<trkpt lat="30.7808342" lon="35.7369548">
<ele>1179.92</ele>
<time>2015-11-22T13:49:55Z</time>
</trkpt>
<trkpt lat="30.7807721" lon="35.7369326">
<ele>1180.28</ele>
<time>2015-11-22T13:49:57Z</time>
</trkpt>
<trkpt lat="30.7807120" lon="35.7369079">
<ele>1180.86</ele>
<time>2015-11-22T13:49:59Z</time>
</trkpt>
<trkpt lat="30.7806568" lon="35.7368832">
<ele>1180.01</ele>
<time>2015-11-22T13:50:01Z</time>
</trkpt>
<trkpt lat="30.7806040" lon="35.7368566">
<ele>1179.05</ele>
<time>2015-11-22T13:50:03Z</time>
</trkpt>
<trkpt lat="30.7805521" lon="35.7368282">
<ele>1179.31</ele>
<time>2015-11-22T13:50:05Z</time>
</trkpt>
<trkpt lat="30.7805032" lon="35.7368016">
<ele>1179.87</ele>
<time>2015-11-22T13:50:07Z</time>
</trkpt>
<trkpt lat="30.7804508" lon="35.7367815">
<ele>1180.76</ele>
<time>2015-11-22T13:50:09Z</time>
</trkpt>
<trkpt lat="30.7803980" lon="35.7367601">
<ele>1181.74</ele>
<time>2015-11-22T13:50:11Z</time>
</trkpt>
<trkpt lat="30.7803460" lon="35.7367358">
<ele>1182.23</ele>
<time>2015-11-22T13:50:13Z</time>
</trkpt>
<trkpt lat="30.7802899" lon="35.7367174">
<ele>1183.10</ele>
<time>2015-11-22T13:50:15Z</time>
</trkpt>
<trkpt lat="30.7802319" lon="35.7366962">
<ele>1184.07</ele>
<time>2015-11-22T13:50:17Z</time>
</trkpt>
<trkpt lat="30.7801750" lon="35.7366712">
<ele>1184.31</ele>
<time>2015-11-22T13:50:19Z</time>
</trkpt>
<trkpt lat="30.7801191" lon="35.7366442">
<ele>1185.12</ele>
<time>2015-11-22T13:50:21Z</time>
</trkpt>
<trkpt lat="30.7800637" lon="35.7366177">
<ele>1185.83</ele>
<time>2015-11-22T13:50:23Z</time>
</trkpt>
<trkpt lat="30.7800074" lon="35.7365907">
<ele>1186.25</ele>
<time>2015-11-22T13:50:25Z</time>
</trkpt>
<trkpt lat="30.7799501" lon="35.7365643">
<ele>1185.61</ele>
<time>2015-11-22T13:50:27Z</time>
</trkpt>
<trkpt lat="30.7798918" lon="35.7365415">
<ele>1186.20</ele>
<time>2015-11-22T13:50:29Z</time>
</trkpt>
<trkpt lat="30.7798333" lon="35.7365180">
<ele>1186.09</ele>
<time>2015-11-22T13:50:31Z</time>
</trkpt>
<trkpt lat="30.7797707" lon="35.7364906">
<ele>1187.07</ele>
<time>2015-11-22T13:50:33Z</time>
</trkpt>
<trkpt lat="30.7797082" lon="35.7364595">
<ele>1187.56</ele>
<time>2015-11-22T13:50:35Z</time>
</trkpt>
<trkpt lat="30.7796492" lon="35.7364230">
<ele>1187.69</ele>
<time>2015-11-22T13:50:37Z</time>
</trkpt>
<trkpt lat="30.7795899" lon="35.7363902">
<ele>1188.22</ele>
<time>2015-11-22T13:50:39Z</time>
</trkpt>
<trkpt lat="30.7795317" lon="35.7363589">
<ele>1188.35</ele>
<time>2015-11-22T13:50:41Z</time>
</trkpt>
<trkpt lat="30.7794731" lon="35.7363251">
<ele>1187.63</ele>
<time>2015-11-22T13:50:43Z</time>
</trkpt>
<trkpt lat="30.7794146" lon="35.7362945">
<ele>1187.95</ele>
<time>2015-11-22T13:50:45Z</time>
</trkpt>
<trkpt lat="30.7793564" lon="35.7362630">
<ele>1188.28</ele>
<time>2015-11-22T13:50:47Z</time>
</trkpt>
<trkpt lat="30.7792997" lon="35.7362267">
<ele>1188.87</ele>
<time>2015-11-22T13:50:49Z</time>
</trkpt>
<trkpt lat="30.7792436" lon="35.7361884">
<ele>1188.51</ele>
<time>2015-11-22T13:50:51Z</time>
</trkpt>
<trkpt lat="30.7791905" lon="35.7361461">
<ele>1188.17</ele>
<time>2015-11-22T13:50:53Z</time>
</trkpt>
<trkpt lat="30.7791372" lon="35.7361032">
<ele>1187.59</ele>
<time>2015-11-22T13:50:55Z</time>
</trkpt>
<trkpt lat="30.7790849" lon="35.7360618">
<ele>1188.19</ele>
<time>2015-11-22T13:50:57Z</time>
</trkpt>
<trkpt lat="30.7790378" lon="35.7360223">
<ele>1188.34</ele>
<time>2015-11-22T13:50:59Z</time>
</trkpt>
<trkpt lat="30.7789940" lon="35.7359873">
<ele>1188.88</ele>
<time>2015-11-22T13:51:01Z</time>
</trkpt>
<trkpt lat="30.7789524" lon="35.7359542">
<ele>1189.27</ele>
<time>2015-11-22T13:51:03Z</time>
</trkpt>
<trkpt lat="30.7789126" lon="35.7359223">
<ele>1190.11</ele>
<time>2015-11-22T13:51:05Z</time>
</trkpt>
<trkpt lat="30.7788704" lon="35.7358925">
<ele>1190.57</ele>
<time>2015-11-22T13:51:07Z</time>
</trkpt>
<trkpt lat="30.7788262" lon="35.7358588">
<ele>1190.44</ele>
<time>2015-11-22T13:51:09Z</time>
</trkpt>
<trkpt lat="30.7787826" lon="35.7358193">
<ele>1190.41</ele>
<time>2015-11-22T13:51:11Z</time>
</trkpt>
<trkpt lat="30.7787357" lon="35.7357803">
<ele>1190.90</ele>
<time>2015-11-22T13:51:13Z</time>
</trkpt>
<trkpt lat="30.7786846" lon="35.7357429">
<ele>1190.52</ele>
<time>2015-11-22T13:51:15Z</time>
</trkpt>
<trkpt lat="30.7786314" lon="35.7357008">
<ele>1190.93</ele>
<time>2015-11-22T13:51:17Z</time>
</trkpt>
<trkpt lat="30.7785760" lon="35.7356596">
<ele>1191.53</ele>
<time>2015-11-22T13:51:19Z</time>
</trkpt>
<trkpt lat="30.7785172" lon="35.7356220">
<ele>1190.93</ele>
<time>2015-11-22T13:51:21Z</time>
</trkpt>
<trkpt lat="30.7784639" lon="35.7355799">
<ele>1190.53</ele>
<time>2015-11-22T13:51:23Z</time>
</trkpt>
<trkpt lat="30.7784114" lon="35.7355374">
<ele>1190.18</ele>
<time>2015-11-22T13:51:25Z</time>
</trkpt>
<trkpt lat="30.7783580" lon="35.7354966">
<ele>1189.59</ele>
<time>2015-11-22T13:51:27Z</time>
</trkpt>
<trkpt lat="30.7783017" lon="35.7354531">
<ele>1190.19</ele>
<time>2015-11-22T13:51:29Z</time>
</trkpt>
<trkpt lat="30.7782437" lon="35.7354056">
<ele>1189.84</ele>
<time>2015-11-22T13:51:31Z</time>
</trkpt>
<trkpt lat="30.7781837" lon="35.7353575">
<ele>1189.01</ele>
<time>2015-11-22T13:51:33Z</time>
</trkpt>
<trkpt lat="30.7781220" lon="35.7353119">
<ele>1189.30</ele>
<time>2015-11-22T13:51:35Z</time>
</trkpt>
<trkpt lat="30.7780591" lon="35.7352624">
<ele>1188.12</ele>
<time>2015-11-22T13:51:37Z</time>
</trkpt>
<trkpt lat="30.7779922" lon="35.7352076">
<ele>1187.58</ele>
<time>2015-11-22T13:51:39Z</time>
</trkpt>
<trkpt lat="30.7779547" lon="35.7351780">
<ele>1187.98</ele>
<time>2015-11-22T13:51:40Z</time>
</trkpt>
<trkpt lat="30.7779163" lon="35.7351484">
<ele>1188.19</ele>
<time>2015-11-22T13:51:41Z</time>
</trkpt>
<trkpt lat="30.7778766" lon="35.7351197">
<ele>1188.79</ele>
<time>2015-11-22T13:51:42Z</time>
</trkpt>
<trkpt lat="30.7778367" lon="35.7350903">
<ele>1189.09</ele>
<time>2015-11-22T13:51:43Z</time>
</trkpt>
<trkpt lat="30.7777963" lon="35.7350614">
<ele>1189.24</ele>
<time>2015-11-22T13:51:44Z</time>
</trkpt>
<trkpt lat="30.7777388" lon="35.7350190">
<ele>1189.32</ele>
<time>2015-11-22T13:51:45Z</time>
</trkpt>
<trkpt lat="30.7777050" lon="35.7349796">
<ele>1188.86</ele>
<time>2015-11-22T13:51:46Z</time>
</trkpt>
<trkpt lat="30.7776364" lon="35.7349242">
<ele>1188.51</ele>
<time>2015-11-22T13:51:48Z</time>
</trkpt>
<trkpt lat="30.7775981" lon="35.7348937">
<ele>1188.45</ele>
<time>2015-11-22T13:51:49Z</time>
</trkpt>
<trkpt lat="30.7775598" lon="35.7348648">
<ele>1188.92</ele>
<time>2015-11-22T13:51:50Z</time>
</trkpt>
<trkpt lat="30.7774889" lon="35.7347986">
<ele>1189.28</ele>
<time>2015-11-22T13:51:52Z</time>
</trkpt>
<trkpt lat="30.7774526" lon="35.7347662">
<ele>1189.84</ele>
<time>2015-11-22T13:51:53Z</time>
</trkpt>
<trkpt lat="30.7773828" lon="35.7347067">
<ele>1191.50</ele>
<time>2015-11-22T13:51:55Z</time>
</trkpt>
<trkpt lat="30.7773134" lon="35.7346542">
<ele>1192.17</ele>
<time>2015-11-22T13:51:57Z</time>
</trkpt>
<trkpt lat="30.7772583" lon="35.7345999">
<ele>1192.09</ele>
<time>2015-11-22T13:51:59Z</time>
</trkpt>
<trkpt lat="30.7772082" lon="35.7345524">
<ele>1192.07</ele>
<time>2015-11-22T13:52:01Z</time>
</trkpt>
<trkpt lat="30.7771608" lon="35.7345137">
<ele>1191.56</ele>
<time>2015-11-22T13:52:03Z</time>
</trkpt>
<trkpt lat="30.7771222" lon="35.7344727">
<ele>1191.44</ele>
<time>2015-11-22T13:52:05Z</time>
</trkpt>
<trkpt lat="30.7770841" lon="35.7344312">
<ele>1190.65</ele>
<time>2015-11-22T13:52:07Z</time>
</trkpt>
<trkpt lat="30.7770401" lon="35.7343899">
<ele>1190.96</ele>
<time>2015-11-22T13:52:09Z</time>
</trkpt>
<trkpt lat="30.7769909" lon="35.7343450">
<ele>1191.29</ele>
<time>2015-11-22T13:52:11Z</time>
</trkpt>
<trkpt lat="30.7769397" lon="35.7342947">
<ele>1192.12</ele>
<time>2015-11-22T13:52:13Z</time>
</trkpt>
<trkpt lat="30.7768860" lon="35.7342428">
<ele>1192.82</ele>
<time>2015-11-22T13:52:15Z</time>
</trkpt>
<trkpt lat="30.7768318" lon="35.7341881">
<ele>1192.75</ele>
<time>2015-11-22T13:52:17Z</time>
</trkpt>
<trkpt lat="30.7767750" lon="35.7341342">
<ele>1193.23</ele>
<time>2015-11-22T13:52:19Z</time>
</trkpt>
<trkpt lat="30.7767139" lon="35.7340828">
<ele>1194.10</ele>
<time>2015-11-22T13:52:21Z</time>
</trkpt>
<trkpt lat="30.7766540" lon="35.7340316">
<ele>1195.07</ele>
<time>2015-11-22T13:52:23Z</time>
</trkpt>
<trkpt lat="30.7765910" lon="35.7339864">
<ele>1195.56</ele>
<time>2015-11-22T13:52:25Z</time>
</trkpt>
<trkpt lat="30.7765210" lon="35.7339497">
<ele>1195.69</ele>
<time>2015-11-22T13:52:27Z</time>
</trkpt>
<trkpt lat="30.7764472" lon="35.7339147">
<ele>1194.97</ele>
<time>2015-11-22T13:52:29Z</time>
</trkpt>
<trkpt lat="30.7763430" lon="35.7338633">
<ele>1194.54</ele>
<time>2015-11-22T13:52:31Z</time>
</trkpt>
<trkpt lat="30.7762926" lon="35.7338406">
<ele>1194.47</ele>
<time>2015-11-22T13:52:32Z</time>
</trkpt>
<trkpt lat="30.7762476" lon="35.7338193">
<ele>1194.43</ele>
<time>2015-11-22T13:52:33Z</time>
</trkpt>
<trkpt lat="30.7762047" lon="35.7337935">
<ele>1194.41</ele>
<time>2015-11-22T13:52:34Z</time>
</trkpt>
<trkpt lat="30.7761616" lon="35.7337732">
<ele>1194.40</ele>
<time>2015-11-22T13:52:35Z</time>
</trkpt>
<trkpt lat="30.7761185" lon="35.7337490">
<ele>1194.40</ele>
<time>2015-11-22T13:52:36Z</time>
</trkpt>
<trkpt lat="30.7760414" lon="35.7337076">
<ele>1194.40</ele>
<time>2015-11-22T13:52:38Z</time>
</trkpt>
<trkpt lat="30.7759612" lon="35.7336728">
<ele>1193.89</ele>
<time>2015-11-22T13:52:40Z</time>
</trkpt>
<trkpt lat="30.7758818" lon="35.7336399">
<ele>1193.02</ele>
<time>2015-11-22T13:52:42Z</time>
</trkpt>
<trkpt lat="30.7758042" lon="35.7336034">
<ele>1192.80</ele>
<time>2015-11-22T13:52:44Z</time>
</trkpt>
<trkpt lat="30.7757223" lon="35.7335665">
<ele>1193.25</ele>
<time>2015-11-22T13:52:46Z</time>
</trkpt>
<trkpt lat="30.7756431" lon="35.7335266">
<ele>1192.86</ele>
<time>2015-11-22T13:52:48Z</time>
</trkpt>
<trkpt lat="30.7755648" lon="35.7334874">
<ele>1192.51</ele>
<time>2015-11-22T13:52:50Z</time>
</trkpt>
<trkpt lat="30.7754907" lon="35.7334516">
<ele>1192.42</ele>
<time>2015-11-22T13:52:52Z</time>
</trkpt>
<trkpt lat="30.7754248" lon="35.7334197">
<ele>1192.40</ele>
<time>2015-11-22T13:52:54Z</time>
</trkpt>
<trkpt lat="30.7753615" lon="35.7333928">
<ele>1192.65</ele>
<time>2015-11-22T13:52:56Z</time>
</trkpt>
<trkpt lat="30.7753011" lon="35.7333622">
<ele>1192.71</ele>
<time>2015-11-22T13:52:58Z</time>
</trkpt>
<trkpt lat="30.7752400" lon="35.7333275">
<ele>1192.47</ele>
<time>2015-11-22T13:53:00Z</time>
</trkpt>
<trkpt lat="30.7751744" lon="35.7332918">
<ele>1192.16</ele>
<time>2015-11-22T13:53:02Z</time>
</trkpt>
<trkpt lat="30.7751037" lon="35.7332555">
<ele>1192.34</ele>
<time>2015-11-22T13:53:04Z</time>
</trkpt>
<trkpt lat="30.7750305" lon="35.7332136">
<ele>1193.13</ele>
<time>2015-11-22T13:53:06Z</time>
</trkpt>
<trkpt lat="30.7749550" lon="35.7331683">
<ele>1193.83</ele>
<time>2015-11-22T13:53:08Z</time>
</trkpt>
<trkpt lat="30.7748754" lon="35.7331329">
<ele>1194.00</ele>
<time>2015-11-22T13:53:10Z</time>
</trkpt>
<trkpt lat="30.7747945" lon="35.7330985">
<ele>1194.30</ele>
<time>2015-11-22T13:53:12Z</time>
</trkpt>
<trkpt lat="30.7747149" lon="35.7330612">
<ele>1194.62</ele>
<time>2015-11-22T13:53:14Z</time>
</trkpt>
<trkpt lat="30.7746357" lon="35.7330233">
<ele>1194.70</ele>
<time>2015-11-22T13:53:16Z</time>
</trkpt>
<trkpt lat="30.7745394" lon="35.7329747">
<ele>1195.22</ele>
<time>2015-11-22T13:53:18Z</time>
</trkpt>
<trkpt lat="30.7744636" lon="35.7329261">
<ele>1195.35</ele>
<time>2015-11-22T13:53:20Z</time>
</trkpt>
<trkpt lat="30.7744173" lon="35.7329102">
<ele>1195.87</ele>
<time>2015-11-22T13:53:21Z</time>
</trkpt>
<trkpt lat="30.7743360" lon="35.7328746">
<ele>1196.26</ele>
<time>2015-11-22T13:53:23Z</time>
</trkpt>
<trkpt lat="30.7742901" lon="35.7328576">
<ele>1195.83</ele>
<time>2015-11-22T13:53:24Z</time>
</trkpt>
<trkpt lat="30.7742180" lon="35.7328196">
<ele>1195.25</ele>
<time>2015-11-22T13:53:26Z</time>
</trkpt>
<trkpt lat="30.7741402" lon="35.7327869">
<ele>1195.61</ele>
<time>2015-11-22T13:53:28Z</time>
</trkpt>
<trkpt lat="30.7740694" lon="35.7327410">
<ele>1195.45</ele>
<time>2015-11-22T13:53:30Z</time>
</trkpt>
<trkpt lat="30.7739968" lon="35.7327025">
<ele>1195.41</ele>
<time>2015-11-22T13:53:32Z</time>
</trkpt>
<trkpt lat="30.7739333" lon="35.7326735">
<ele>1195.15</ele>
<time>2015-11-22T13:53:34Z</time>
</trkpt>
<trkpt lat="30.7738738" lon="35.7326411">
<ele>1195.83</ele>
<time>2015-11-22T13:53:36Z</time>
</trkpt>
<trkpt lat="30.7738127" lon="35.7326103">
<ele>1197.00</ele>
<time>2015-11-22T13:53:38Z</time>
</trkpt>
<trkpt lat="30.7737515" lon="35.7325768">
<ele>1196.80</ele>
<time>2015-11-22T13:53:40Z</time>
</trkpt>
<trkpt lat="30.7736916" lon="35.7325441">
<ele>1196.49</ele>
<time>2015-11-22T13:53:42Z</time>
</trkpt>
<trkpt lat="30.7736280" lon="35.7325149">
<ele>1197.67</ele>
<time>2015-11-22T13:53:44Z</time>
</trkpt>
<trkpt lat="30.7735646" lon="35.7324829">
<ele>1198.21</ele>
<time>2015-11-22T13:53:46Z</time>
</trkpt>
<trkpt lat="30.7735015" lon="35.7324535">
<ele>1198.85</ele>
<time>2015-11-22T13:53:48Z</time>
</trkpt>
<trkpt lat="30.7734387" lon="35.7324236">
<ele>1200.01</ele>
<time>2015-11-22T13:53:50Z</time>
</trkpt>
<trkpt lat="30.7733741" lon="35.7323924">
<ele>1201.05</ele>
<time>2015-11-22T13:53:52Z</time>
</trkpt>
<trkpt lat="30.7733069" lon="35.7323686">
<ele>1202.06</ele>
<time>2015-11-22T13:53:54Z</time>
</trkpt>
<trkpt lat="30.7732400" lon="35.7323473">
<ele>1201.81</ele>
<time>2015-11-22T13:53:56Z</time>
</trkpt>
<trkpt lat="30.7731713" lon="35.7323253">
<ele>1202.25</ele>
<time>2015-11-22T13:53:58Z</time>
</trkpt>
<trkpt lat="30.7731022" lon="35.7323073">
<ele>1202.36</ele>
<time>2015-11-22T13:54:00Z</time>
</trkpt>
<trkpt lat="30.7730351" lon="35.7322891">
<ele>1203.13</ele>
<time>2015-11-22T13:54:02Z</time>
</trkpt>
<trkpt lat="30.7729680" lon="35.7322674">
<ele>1203.33</ele>
<time>2015-11-22T13:54:04Z</time>
</trkpt>
<trkpt lat="30.7729021" lon="35.7322469">
<ele>1203.88</ele>
<time>2015-11-22T13:54:06Z</time>
</trkpt>
<trkpt lat="30.7728370" lon="35.7322295">
<ele>1204.26</ele>
<time>2015-11-22T13:54:08Z</time>
</trkpt>
<trkpt lat="30.7727742" lon="35.7322060">
<ele>1203.86</ele>
<time>2015-11-22T13:54:10Z</time>
</trkpt>
<trkpt lat="30.7727126" lon="35.7321824">
<ele>1204.26</ele>
<time>2015-11-22T13:54:12Z</time>
</trkpt>
<trkpt lat="30.7726524" lon="35.7321584">
<ele>1204.36</ele>
<time>2015-11-22T13:54:14Z</time>
</trkpt>
<trkpt lat="30.7725921" lon="35.7321331">
<ele>1205.14</ele>
<time>2015-11-22T13:54:16Z</time>
</trkpt>
<trkpt lat="30.7725351" lon="35.7321113">
<ele>1204.58</ele>
<time>2015-11-22T13:54:18Z</time>
</trkpt>
<trkpt lat="30.7724828" lon="35.7320895">
<ele>1204.44</ele>
<time>2015-11-22T13:54:20Z</time>
</trkpt>
<trkpt lat="30.7724354" lon="35.7320617">
<ele>1204.41</ele>
<time>2015-11-22T13:54:22Z</time>
</trkpt>
<trkpt lat="30.7723872" lon="35.7320332">
<ele>1204.40</ele>
<time>2015-11-22T13:54:24Z</time>
</trkpt>
<trkpt lat="30.7723361" lon="35.7320030">
<ele>1204.89</ele>
<time>2015-11-22T13:54:26Z</time>
</trkpt>
<trkpt lat="30.7722776" lon="35.7319701">
<ele>1205.27</ele>
<time>2015-11-22T13:54:28Z</time>
</trkpt>
<trkpt lat="30.7722144" lon="35.7319364">
<ele>1204.61</ele>
<time>2015-11-22T13:54:30Z</time>
</trkpt>
<trkpt lat="30.7721483" lon="35.7318980">
<ele>1204.70</ele>
<time>2015-11-22T13:54:32Z</time>
</trkpt>
<trkpt lat="30.7720811" lon="35.7318541">
<ele>1204.47</ele>
<time>2015-11-22T13:54:34Z</time>
</trkpt>
<trkpt lat="30.7720012" lon="35.7318077">
<ele>1205.16</ele>
<time>2015-11-22T13:54:36Z</time>
</trkpt>
<trkpt lat="30.7719363" lon="35.7317679">
<ele>1204.78</ele>
<time>2015-11-22T13:54:37Z</time>
</trkpt>
<trkpt lat="30.7718885" lon="35.7317416">
<ele>1204.09</ele>
<time>2015-11-22T13:54:38Z</time>
</trkpt>
<trkpt lat="30.7718399" lon="35.7317045">
<ele>1203.24</ele>
<time>2015-11-22T13:54:39Z</time>
</trkpt>
<trkpt lat="30.7717940" lon="35.7316755">
<ele>1202.32</ele>
<time>2015-11-22T13:54:40Z</time>
</trkpt>
<trkpt lat="30.7717450" lon="35.7316427">
<ele>1201.86</ele>
<time>2015-11-22T13:54:41Z</time>
</trkpt>
<trkpt lat="30.7716959" lon="35.7316055">
<ele>1201.12</ele>
<time>2015-11-22T13:54:42Z</time>
</trkpt>
<trkpt lat="30.7716457" lon="35.7315703">
<ele>1200.76</ele>
<time>2015-11-22T13:54:43Z</time>
</trkpt>
<trkpt lat="30.7715953" lon="35.7315342">
<ele>1200.58</ele>
<time>2015-11-22T13:54:44Z</time>
</trkpt>
<trkpt lat="30.7715422" lon="35.7314938">
<ele>1199.99</ele>
<time>2015-11-22T13:54:45Z</time>
</trkpt>
<trkpt lat="30.7714902" lon="35.7314453">
<ele>1199.69</ele>
<time>2015-11-22T13:54:46Z</time>
</trkpt>
<trkpt lat="30.7714392" lon="35.7314013">
<ele>1199.54</ele>
<time>2015-11-22T13:54:47Z</time>
</trkpt>
<trkpt lat="30.7713871" lon="35.7313571">
<ele>1199.47</ele>
<time>2015-11-22T13:54:48Z</time>
</trkpt>
<trkpt lat="30.7713319" lon="35.7313051">
<ele>1199.43</ele>
<time>2015-11-22T13:54:49Z</time>
</trkpt>
<trkpt lat="30.7712731" lon="35.7312559">
<ele>1199.91</ele>
<time>2015-11-22T13:54:50Z</time>
</trkpt>
<trkpt lat="30.7712194" lon="35.7312108">
<ele>1200.15</ele>
<time>2015-11-22T13:54:51Z</time>
</trkpt>
<trkpt lat="30.7711627" lon="35.7311682">
<ele>1199.77</ele>
<time>2015-11-22T13:54:52Z</time>
</trkpt>
<trkpt lat="30.7710968" lon="35.7311231">
<ele>1199.58</ele>
<time>2015-11-22T13:54:53Z</time>
</trkpt>
<trkpt lat="30.7710360" lon="35.7310730">
<ele>1199.49</ele>
<time>2015-11-22T13:54:54Z</time>
</trkpt>
<trkpt lat="30.7709779" lon="35.7310266">
<ele>1194.44</ele>
<time>2015-11-22T13:54:55Z</time>
</trkpt>
<trkpt lat="30.7709187" lon="35.7309854">
<ele>1191.92</ele>
<time>2015-11-22T13:54:56Z</time>
</trkpt>
<trkpt lat="30.7708617" lon="35.7309337">
<ele>1190.66</ele>
<time>2015-11-22T13:54:57Z</time>
</trkpt>
<trkpt lat="30.7707953" lon="35.7308879">
<ele>1190.02</ele>
<time>2015-11-22T13:54:58Z</time>
</trkpt>
<trkpt lat="30.7707292" lon="35.7308386">
<ele>1189.71</ele>
<time>2015-11-22T13:54:59Z</time>
</trkpt>
<trkpt lat="30.7706615" lon="35.7307900">
<ele>1189.55</ele>
<time>2015-11-22T13:55:00Z</time>
</trkpt>
<trkpt lat="30.7706040" lon="35.7307330">
<ele>1189.97</ele>
<time>2015-11-22T13:55:01Z</time>
</trkpt>
<trkpt lat="30.7705424" lon="35.7306803">
<ele>1190.18</ele>
<time>2015-11-22T13:55:02Z</time>
</trkpt>
<trkpt lat="30.7704779" lon="35.7306166">
<ele>1190.29</ele>
<time>2015-11-22T13:55:03Z</time>
</trkpt>
<trkpt lat="30.7704186" lon="35.7305563">
<ele>1190.34</ele>
<time>2015-11-22T13:55:04Z</time>
</trkpt>
<trkpt lat="30.7703507" lon="35.7305026">
<ele>1189.37</ele>
<time>2015-11-22T13:55:05Z</time>
</trkpt>
<trkpt lat="30.7702898" lon="35.7304648">
<ele>1188.38</ele>
<time>2015-11-22T13:55:06Z</time>
</trkpt>
<trkpt lat="30.7702364" lon="35.7304176">
<ele>1187.89</ele>
<time>2015-11-22T13:55:07Z</time>
</trkpt>
<trkpt lat="30.7701673" lon="35.7303774">
<ele>1187.64</ele>
<time>2015-11-22T13:55:08Z</time>
</trkpt>
<trkpt lat="30.7701020" lon="35.7303497">
<ele>1187.02</ele>
<time>2015-11-22T13:55:09Z</time>
</trkpt>
<trkpt lat="30.7700351" lon="35.7303215">
<ele>1186.71</ele>
<time>2015-11-22T13:55:10Z</time>
</trkpt>
<trkpt lat="30.7699716" lon="35.7302999">
<ele>1186.55</ele>
<time>2015-11-22T13:55:11Z</time>
</trkpt>
<trkpt lat="30.7699004" lon="35.7302766">
<ele>1186.47</ele>
<time>2015-11-22T13:55:12Z</time>
</trkpt>
<trkpt lat="30.7698358" lon="35.7302517">
<ele>1186.43</ele>
<time>2015-11-22T13:55:13Z</time>
</trkpt>
<trkpt lat="30.7697648" lon="35.7302234">
<ele>1185.91</ele>
<time>2015-11-22T13:55:14Z</time>
</trkpt>
<trkpt lat="30.7696921" lon="35.7301969">
<ele>1186.15</ele>
<time>2015-11-22T13:55:15Z</time>
</trkpt>
<trkpt lat="30.7696270" lon="35.7301652">
<ele>1186.77</ele>
<time>2015-11-22T13:55:16Z</time>
</trkpt>
<trkpt lat="30.7695541" lon="35.7301310">
<ele>1187.08</ele>
<time>2015-11-22T13:55:17Z</time>
</trkpt>
<trkpt lat="30.7694832" lon="35.7301080">
<ele>1187.74</ele>
<time>2015-11-22T13:55:18Z</time>
</trkpt>
<trkpt lat="30.7694203" lon="35.7300761">
<ele>1187.57</ele>
<time>2015-11-22T13:55:19Z</time>
</trkpt>
<trkpt lat="30.7693558" lon="35.7300454">
<ele>1187.48</ele>
<time>2015-11-22T13:55:20Z</time>
</trkpt>
<trkpt lat="30.7692888" lon="35.7300160">
<ele>1187.44</ele>
<time>2015-11-22T13:55:21Z</time>
</trkpt>
<trkpt lat="30.7692204" lon="35.7299883">
<ele>1187.42</ele>
<time>2015-11-22T13:55:22Z</time>
</trkpt>
<trkpt lat="30.7691580" lon="35.7299603">
<ele>1187.40</ele>
<time>2015-11-22T13:55:23Z</time>
</trkpt>
<trkpt lat="30.7690995" lon="35.7299432">
<ele>1187.40</ele>
<time>2015-11-22T13:55:24Z</time>
</trkpt>
<trkpt lat="30.7690415" lon="35.7299161">
<ele>1187.40</ele>
<time>2015-11-22T13:55:25Z</time>
</trkpt>
<trkpt lat="30.7689824" lon="35.7298869">
<ele>1187.90</ele>
<time>2015-11-22T13:55:26Z</time>
</trkpt>
<trkpt lat="30.7689198" lon="35.7298706">
<ele>1188.14</ele>
<time>2015-11-22T13:55:27Z</time>
</trkpt>
<trkpt lat="30.7688585" lon="35.7298430">
<ele>1188.27</ele>
<time>2015-11-22T13:55:28Z</time>
</trkpt>
<trkpt lat="30.7687940" lon="35.7298143">
<ele>1188.33</ele>
<time>2015-11-22T13:55:29Z</time>
</trkpt>
<trkpt lat="30.7687310" lon="35.7297859">
<ele>1188.36</ele>
<time>2015-11-22T13:55:30Z</time>
</trkpt>
<trkpt lat="30.7686766" lon="35.7297605">
<ele>1188.38</ele>
<time>2015-11-22T13:55:31Z</time>
</trkpt>
<trkpt lat="30.7686192" lon="35.7297350">
<ele>1188.39</ele>
<time>2015-11-22T13:55:32Z</time>
</trkpt>
<trkpt lat="30.7685662" lon="35.7297191">
<ele>1187.89</ele>
<time>2015-11-22T13:55:33Z</time>
</trkpt>
<trkpt lat="30.7685112" lon="35.7296942">
<ele>1187.64</ele>
<time>2015-11-22T13:55:34Z</time>
</trkpt>
<trkpt lat="30.7684550" lon="35.7296644">
<ele>1188.02</ele>
<time>2015-11-22T13:55:35Z</time>
</trkpt>
<trkpt lat="30.7683995" lon="35.7296340">
<ele>1188.21</ele>
<time>2015-11-22T13:55:36Z</time>
</trkpt>
<trkpt lat="30.7683440" lon="35.7296096">
<ele>1188.30</ele>
<time>2015-11-22T13:55:37Z</time>
</trkpt>
<trkpt lat="30.7682898" lon="35.7295809">
<ele>1188.35</ele>
<time>2015-11-22T13:55:38Z</time>
</trkpt>
<trkpt lat="30.7682352" lon="35.7295594">
<ele>1188.37</ele>
<time>2015-11-22T13:55:39Z</time>
</trkpt>
<trkpt lat="30.7681757" lon="35.7295298">
<ele>1188.38</ele>
<time>2015-11-22T13:55:40Z</time>
</trkpt>
<trkpt lat="30.7681144" lon="35.7295056">
<ele>1188.39</ele>
<time>2015-11-22T13:55:41Z</time>
</trkpt>
<trkpt lat="30.7680506" lon="35.7294742">
<ele>1188.39</ele>
<time>2015-11-22T13:55:42Z</time>
</trkpt>
<trkpt lat="30.7679892" lon="35.7294464">
<ele>1188.39</ele>
<time>2015-11-22T13:55:43Z</time>
</trkpt>
<trkpt lat="30.7679299" lon="35.7294202">
<ele>1187.89</ele>
<time>2015-11-22T13:55:44Z</time>
</trkpt>
<trkpt lat="30.7678697" lon="35.7293950">
<ele>1188.14</ele>
<time>2015-11-22T13:55:45Z</time>
</trkpt>
<trkpt lat="30.7678117" lon="35.7293646">
<ele>1188.27</ele>
<time>2015-11-22T13:55:46Z</time>
</trkpt>
<trkpt lat="30.7677509" lon="35.7293364">
<ele>1188.33</ele>
<time>2015-11-22T13:55:47Z</time>
</trkpt>
<trkpt lat="30.7676977" lon="35.7293028">
<ele>1188.86</ele>
<time>2015-11-22T13:55:48Z</time>
</trkpt>
<trkpt lat="30.7676507" lon="35.7292762">
<ele>1189.13</ele>
<time>2015-11-22T13:55:49Z</time>
</trkpt>
<trkpt lat="30.7676027" lon="35.7292409">
<ele>1189.26</ele>
<time>2015-11-22T13:55:50Z</time>
</trkpt>
<trkpt lat="30.7675533" lon="35.7292090">
<ele>1189.33</ele>
<time>2015-11-22T13:55:51Z</time>
</trkpt>
<trkpt lat="30.7675094" lon="35.7291760">
<ele>1189.36</ele>
<time>2015-11-22T13:55:52Z</time>
</trkpt>
<trkpt lat="30.7674662" lon="35.7291444">
<ele>1189.38</ele>
<time>2015-11-22T13:55:53Z</time>
</trkpt>
<trkpt lat="30.7674153" lon="35.7291199">
<ele>1189.39</ele>
<time>2015-11-22T13:55:54Z</time>
</trkpt>
<trkpt lat="30.7673746" lon="35.7290869">
<ele>1188.89</ele>
<time>2015-11-22T13:55:55Z</time>
</trkpt>
<trkpt lat="30.7673241" lon="35.7290488">
<ele>1188.64</ele>
<time>2015-11-22T13:55:56Z</time>
</trkpt>
<trkpt lat="30.7672744" lon="35.7290048">
<ele>1188.52</ele>
<time>2015-11-22T13:55:57Z</time>
</trkpt>
<trkpt lat="30.7672288" lon="35.7289658">
<ele>1188.46</ele>
<time>2015-11-22T13:55:58Z</time>
</trkpt>
<trkpt lat="30.7671746" lon="35.7289305">
<ele>1188.43</ele>
<time>2015-11-22T13:55:59Z</time>
</trkpt>
<trkpt lat="30.7671226" lon="35.7288925">
<ele>1188.41</ele>
<time>2015-11-22T13:56:00Z</time>
</trkpt>
<trkpt lat="30.7670736" lon="35.7288567">
<ele>1188.40</ele>
<time>2015-11-22T13:56:01Z</time>
</trkpt>
<trkpt lat="30.7670248" lon="35.7288198">
<ele>1188.90</ele>
<time>2015-11-22T13:56:02Z</time>
</trkpt>
<trkpt lat="30.7669792" lon="35.7287718">
<ele>1189.15</ele>
<time>2015-11-22T13:56:03Z</time>
</trkpt>
<trkpt lat="30.7669264" lon="35.7287338">
<ele>1189.27</ele>
<time>2015-11-22T13:56:04Z</time>
</trkpt>
<trkpt lat="30.7668738" lon="35.7287046">
<ele>1189.33</ele>
<time>2015-11-22T13:56:05Z</time>
</trkpt>
<trkpt lat="30.7668225" lon="35.7286685">
<ele>1189.36</ele>
<time>2015-11-22T13:56:06Z</time>
</trkpt>
<trkpt lat="30.7667684" lon="35.7286357">
<ele>1189.38</ele>
<time>2015-11-22T13:56:07Z</time>
</trkpt>
<trkpt lat="30.7667191" lon="35.7286002">
<ele>1189.39</ele>
<time>2015-11-22T13:56:08Z</time>
</trkpt>
<trkpt lat="30.7666694" lon="35.7285587">
<ele>1189.39</ele>
<time>2015-11-22T13:56:09Z</time>
</trkpt>
<trkpt lat="30.7665824" lon="35.7284951">
<ele>1189.14</ele>
<time>2015-11-22T13:56:11Z</time>
</trkpt>
<trkpt lat="30.7665274" lon="35.7284594">
<ele>1189.27</ele>
<time>2015-11-22T13:56:12Z</time>
</trkpt>
<trkpt lat="30.7664754" lon="35.7284278">
<ele>1189.33</ele>
<time>2015-11-22T13:56:13Z</time>
</trkpt>
<trkpt lat="30.7664223" lon="35.7283841">
<ele>1189.36</ele>
<time>2015-11-22T13:56:14Z</time>
</trkpt>
<trkpt lat="30.7663645" lon="35.7283468">
<ele>1189.38</ele>
<time>2015-11-22T13:56:15Z</time>
</trkpt>
<trkpt lat="30.7663098" lon="35.7283058">
<ele>1189.39</ele>
<time>2015-11-22T13:56:16Z</time>
</trkpt>
<trkpt lat="30.7662538" lon="35.7282589">
<ele>1189.39</ele>
<time>2015-11-22T13:56:17Z</time>
</trkpt>
<trkpt lat="30.7661973" lon="35.7282253">
<ele>1189.39</ele>
<time>2015-11-22T13:56:18Z</time>
</trkpt>
<trkpt lat="30.7661401" lon="35.7281844">
<ele>1189.39</ele>
<time>2015-11-22T13:56:19Z</time>
</trkpt>
<trkpt lat="30.7660829" lon="35.7281455">
<ele>1189.89</ele>
<time>2015-11-22T13:56:20Z</time>
</trkpt>
<trkpt lat="30.7660308" lon="35.7281085">
<ele>1190.14</ele>
<time>2015-11-22T13:56:21Z</time>
</trkpt>
<trkpt lat="30.7659920" lon="35.7280799">
<ele>1189.77</ele>
<time>2015-11-22T13:56:22Z</time>
</trkpt>
<trkpt lat="30.7659483" lon="35.7280451">
<ele>1189.58</ele>
<time>2015-11-22T13:56:23Z</time>
</trkpt>
<trkpt lat="30.7659056" lon="35.7280108">
<ele>1189.49</ele>
<time>2015-11-22T13:56:24Z</time>
</trkpt>
<trkpt lat="30.7658573" lon="35.7279895">
<ele>1187.94</ele>
<time>2015-11-22T13:56:25Z</time>
</trkpt>
<trkpt lat="30.7658109" lon="35.7279532">
<ele>1187.17</ele>
<time>2015-11-22T13:56:26Z</time>
</trkpt>
<trkpt lat="30.7657568" lon="35.7279198">
<ele>1186.28</ele>
<time>2015-11-22T13:56:27Z</time>
</trkpt>
<trkpt lat="30.7657054" lon="35.7278794">
<ele>1186.34</ele>
<time>2015-11-22T13:56:28Z</time>
</trkpt>
<trkpt lat="30.7656570" lon="35.7278433">
<ele>1186.87</ele>
<time>2015-11-22T13:56:29Z</time>
</trkpt>
<trkpt lat="30.7656051" lon="35.7278124">
<ele>1187.63</ele>
<time>2015-11-22T13:56:30Z</time>
</trkpt>
<trkpt lat="30.7655497" lon="35.7277762">
<ele>1188.01</ele>
<time>2015-11-22T13:56:31Z</time>
</trkpt>
<trkpt lat="30.7655046" lon="35.7277383">
<ele>1188.20</ele>
<time>2015-11-22T13:56:32Z</time>
</trkpt>
<trkpt lat="30.7654608" lon="35.7276941">
<ele>1188.30</ele>
<time>2015-11-22T13:56:33Z</time>
</trkpt>
<trkpt lat="30.7654166" lon="35.7276544">
<ele>1188.35</ele>
<time>2015-11-22T13:56:34Z</time>
</trkpt>
<trkpt lat="30.7653710" lon="35.7276165">
<ele>1188.37</ele>
<time>2015-11-22T13:56:35Z</time>
</trkpt>
<trkpt lat="30.7653279" lon="35.7275744">
<ele>1188.38</ele>
<time>2015-11-22T13:56:36Z</time>
</trkpt>
<trkpt lat="30.7652792" lon="35.7275320">
<ele>1188.39</ele>
<time>2015-11-22T13:56:37Z</time>
</trkpt>
<trkpt lat="30.7652427" lon="35.7275005">
<ele>1188.89</ele>
<time>2015-11-22T13:56:38Z</time>
</trkpt>
<trkpt lat="30.7651640" lon="35.7274348">
<ele>1189.27</ele>
<time>2015-11-22T13:56:40Z</time>
</trkpt>
<trkpt lat="30.7651177" lon="35.7273930">
<ele>1189.33</ele>
<time>2015-11-22T13:56:41Z</time>
</trkpt>
<trkpt lat="30.7650725" lon="35.7273533">
<ele>1189.36</ele>
<time>2015-11-22T13:56:42Z</time>
</trkpt>
<trkpt lat="30.7650320" lon="35.7273097">
<ele>1189.38</ele>
<time>2015-11-22T13:56:43Z</time>
</trkpt>
<trkpt lat="30.7649869" lon="35.7272650">
<ele>1189.89</ele>
<time>2015-11-22T13:56:44Z</time>
</trkpt>
<trkpt lat="30.7649482" lon="35.7272235">
<ele>1190.14</ele>
<time>2015-11-22T13:56:45Z</time>
</trkpt>
<trkpt lat="30.7649094" lon="35.7271732">
<ele>1189.77</ele>
<time>2015-11-22T13:56:46Z</time>
</trkpt>
<trkpt lat="30.7648625" lon="35.7271304">
<ele>1190.08</ele>
<time>2015-11-22T13:56:47Z</time>
</trkpt>
<trkpt lat="30.7648182" lon="35.7270818">
<ele>1190.24</ele>
<time>2015-11-22T13:56:48Z</time>
</trkpt>
<trkpt lat="30.7647624" lon="35.7270450">
<ele>1190.32</ele>
<time>2015-11-22T13:56:49Z</time>
</trkpt>
<trkpt lat="30.7647107" lon="35.7270048">
<ele>1189.85</ele>
<time>2015-11-22T13:56:50Z</time>
</trkpt>
<trkpt lat="30.7646623" lon="35.7269634">
<ele>1189.62</ele>
<time>2015-11-22T13:56:51Z</time>
</trkpt>
<trkpt lat="30.7646198" lon="35.7269195">
<ele>1189.01</ele>
<time>2015-11-22T13:56:52Z</time>
</trkpt>
<trkpt lat="30.7645948" lon="35.7268702">
<ele>1187.70</ele>
<time>2015-11-22T13:56:53Z</time>
</trkpt>
<trkpt lat="30.7645484" lon="35.7268363">
<ele>1187.05</ele>
<time>2015-11-22T13:56:54Z</time>
</trkpt>
<trkpt lat="30.7644993" lon="35.7267917">
<ele>1186.72</ele>
<time>2015-11-22T13:56:55Z</time>
</trkpt>
<trkpt lat="30.7644457" lon="35.7267485">
<ele>1187.06</ele>
<time>2015-11-22T13:56:56Z</time>
</trkpt>
<trkpt lat="30.7643974" lon="35.7267071">
<ele>1187.73</ele>
<time>2015-11-22T13:56:57Z</time>
</trkpt>
<trkpt lat="30.7643551" lon="35.7266519">
<ele>1188.06</ele>
<time>2015-11-22T13:56:58Z</time>
</trkpt>
<trkpt lat="30.7643124" lon="35.7265988">
<ele>1188.23</ele>
<time>2015-11-22T13:56:59Z</time>
</trkpt>
<trkpt lat="30.7642641" lon="35.7265527">
<ele>1188.81</ele>
<time>2015-11-22T13:57:00Z</time>
</trkpt>
<trkpt lat="30.7642124" lon="35.7265017">
<ele>1192.60</ele>
<time>2015-11-22T13:57:01Z</time>
</trkpt>
<trkpt lat="30.7641547" lon="35.7264514">
<ele>1196.50</ele>
<time>2015-11-22T13:57:02Z</time>
</trkpt>
<trkpt lat="30.7641014" lon="35.7264044">
<ele>1198.95</ele>
<time>2015-11-22T13:57:03Z</time>
</trkpt>
<trkpt lat="30.7640498" lon="35.7263549">
<ele>1200.67</ele>
<time>2015-11-22T13:57:04Z</time>
</trkpt>
<trkpt lat="30.7639958" lon="35.7263042">
<ele>1202.03</ele>
<time>2015-11-22T13:57:05Z</time>
</trkpt>
<trkpt lat="30.7639470" lon="35.7262569">
<ele>1202.71</ele>
<time>2015-11-22T13:57:06Z</time>
</trkpt>
<trkpt lat="30.7638917" lon="35.7262157">
<ele>1203.05</ele>
<time>2015-11-22T13:57:07Z</time>
</trkpt>
<trkpt lat="30.7638407" lon="35.7261712">
<ele>1203.22</ele>
<time>2015-11-22T13:57:08Z</time>
</trkpt>
<trkpt lat="30.7637905" lon="35.7261280">
<ele>1203.31</ele>
<time>2015-11-22T13:57:09Z</time>
</trkpt>
<trkpt lat="30.7636897" lon="35.7260551">
<ele>1203.35</ele>
<time>2015-11-22T13:57:11Z</time>
</trkpt>
<trkpt lat="30.7636390" lon="35.7260282">
<ele>1203.37</ele>
<time>2015-11-22T13:57:12Z</time>
</trkpt>
<trkpt lat="30.7635905" lon="35.7260046">
<ele>1203.38</ele>
<time>2015-11-22T13:57:13Z</time>
</trkpt>
<trkpt lat="30.7635424" lon="35.7259840">
<ele>1203.89</ele>
<time>2015-11-22T13:57:14Z</time>
</trkpt>
<trkpt lat="30.7634978" lon="35.7259557">
<ele>1204.14</ele>
<time>2015-11-22T13:57:15Z</time>
</trkpt>
<trkpt lat="30.7634222" lon="35.7259135">
<ele>1204.33</ele>
<time>2015-11-22T13:57:17Z</time>
</trkpt>
<trkpt lat="30.7633373" lon="35.7258725">
<ele>1204.88</ele>
<time>2015-11-22T13:57:19Z</time>
</trkpt>
<trkpt lat="30.7632581" lon="35.7258236">
<ele>1205.27</ele>
<time>2015-11-22T13:57:21Z</time>
</trkpt>
<trkpt lat="30.7632164" lon="35.7258017">
<ele>1205.33</ele>
<time>2015-11-22T13:57:22Z</time>
</trkpt>
<trkpt lat="30.7631699" lon="35.7257796">
<ele>1204.86</ele>
<time>2015-11-22T13:57:23Z</time>
</trkpt>
<trkpt lat="30.7631238" lon="35.7257541">
<ele>1205.13</ele>
<time>2015-11-22T13:57:24Z</time>
</trkpt>
<trkpt lat="30.7630807" lon="35.7257291">
<ele>1205.26</ele>
<time>2015-11-22T13:57:25Z</time>
</trkpt>
<trkpt lat="30.7630372" lon="35.7257104">
<ele>1205.33</ele>
<time>2015-11-22T13:57:26Z</time>
</trkpt>
<trkpt lat="30.7629914" lon="35.7256832">
<ele>1205.36</ele>
<time>2015-11-22T13:57:27Z</time>
</trkpt>
<trkpt lat="30.7629472" lon="35.7256593">
<ele>1205.38</ele>
<time>2015-11-22T13:57:28Z</time>
</trkpt>
<trkpt lat="30.7629037" lon="35.7256235">
<ele>1205.39</ele>
<time>2015-11-22T13:57:29Z</time>
</trkpt>
<trkpt lat="30.7628145" lon="35.7255734">
<ele>1205.89</ele>
<time>2015-11-22T13:57:31Z</time>
</trkpt>
<trkpt lat="30.7627704" lon="35.7255469">
<ele>1206.14</ele>
<time>2015-11-22T13:57:32Z</time>
</trkpt>
<trkpt lat="30.7627265" lon="35.7255263">
<ele>1206.27</ele>
<time>2015-11-22T13:57:33Z</time>
</trkpt>
<trkpt lat="30.7626480" lon="35.7254788">
<ele>1207.11</ele>
<time>2015-11-22T13:57:35Z</time>
</trkpt>
<trkpt lat="30.7625756" lon="35.7254368">
<ele>1208.07</ele>
<time>2015-11-22T13:57:37Z</time>
</trkpt>
<trkpt lat="30.7624996" lon="35.7253926">
<ele>1208.31</ele>
<time>2015-11-22T13:57:39Z</time>
</trkpt>
<trkpt lat="30.7624251" lon="35.7253590">
<ele>1208.37</ele>
<time>2015-11-22T13:57:41Z</time>
</trkpt>
<trkpt lat="30.7623461" lon="35.7253180">
<ele>1208.39</ele>
<time>2015-11-22T13:57:43Z</time>
</trkpt>
<trkpt lat="30.7623055" lon="35.7252953">
<ele>1208.89</ele>
<time>2015-11-22T13:57:44Z</time>
</trkpt>
<trkpt lat="30.7622646" lon="35.7252717">
<ele>1209.14</ele>
<time>2015-11-22T13:57:45Z</time>
</trkpt>
<trkpt lat="30.7622167" lon="35.7252436">
<ele>1209.27</ele>
<time>2015-11-22T13:57:46Z</time>
</trkpt>
<trkpt lat="30.7621772" lon="35.7252183">
<ele>1209.33</ele>
<time>2015-11-22T13:57:47Z</time>
</trkpt>
<trkpt lat="30.7621098" lon="35.7251820">
<ele>1209.38</ele>
<time>2015-11-22T13:57:49Z</time>
</trkpt>
<trkpt lat="30.7620417" lon="35.7251505">
<ele>1208.89</ele>
<time>2015-11-22T13:57:51Z</time>
</trkpt>
<trkpt lat="30.7619773" lon="35.7251299">
<ele>1209.02</ele>
<time>2015-11-22T13:57:53Z</time>
</trkpt>
<trkpt lat="30.7619101" lon="35.7251089">
<ele>1209.30</ele>
<time>2015-11-22T13:57:55Z</time>
</trkpt>
<trkpt lat="30.7618493" lon="35.7250955">
<ele>1209.37</ele>
<time>2015-11-22T13:57:57Z</time>
</trkpt>
<trkpt lat="30.7617897" lon="35.7250885">
<ele>1209.89</ele>
<time>2015-11-22T13:57:59Z</time>
</trkpt>
<trkpt lat="30.7617274" lon="35.7250864">
<ele>1210.27</ele>
<time>2015-11-22T13:58:01Z</time>
</trkpt>
<trkpt lat="30.7616659" lon="35.7250940">
<ele>1210.86</ele>
<time>2015-11-22T13:58:03Z</time>
</trkpt>
<trkpt lat="30.7616080" lon="35.7251050">
<ele>1210.51</ele>
<time>2015-11-22T13:58:05Z</time>
</trkpt>
<trkpt lat="30.7615574" lon="35.7251112">
<ele>1210.42</ele>
<time>2015-11-22T13:58:07Z</time>
</trkpt>
<trkpt lat="30.7614923" lon="35.7251190">
<ele>1210.40</ele>
<time>2015-11-22T13:58:10Z</time>
</trkpt>
<trkpt lat="30.7614308" lon="35.7251284">
<ele>1210.64</ele>
<time>2015-11-22T13:58:13Z</time>
</trkpt>
<trkpt lat="30.7613633" lon="35.7251240">
<ele>1210.43</ele>
<time>2015-11-22T13:58:16Z</time>
</trkpt>
<trkpt lat="30.7613136" lon="35.7251217">
<ele>1211.15</ele>
<time>2015-11-22T13:58:18Z</time>
</trkpt>
<trkpt lat="30.7612586" lon="35.7251280">
<ele>1211.33</ele>
<time>2015-11-22T13:58:20Z</time>
</trkpt>
<trkpt lat="30.7611999" lon="35.7251385">
<ele>1212.13</ele>
<time>2015-11-22T13:58:22Z</time>
</trkpt>
<trkpt lat="30.7611416" lon="35.7251474">
<ele>1212.33</ele>
<time>2015-11-22T13:58:24Z</time>
</trkpt>
<trkpt lat="30.7610891" lon="35.7251535">
<ele>1212.88</ele>
<time>2015-11-22T13:58:26Z</time>
</trkpt>
<trkpt lat="30.7610379" lon="35.7251554">
<ele>1214.01</ele>
<time>2015-11-22T13:58:28Z</time>
</trkpt>
<trkpt lat="30.7609872" lon="35.7251578">
<ele>1214.30</ele>
<time>2015-11-22T13:58:30Z</time>
</trkpt>
<trkpt lat="30.7609358" lon="35.7251602">
<ele>1214.37</ele>
<time>2015-11-22T13:58:32Z</time>
</trkpt>
<trkpt lat="30.7608884" lon="35.7251621">
<ele>1214.64</ele>
<time>2015-11-22T13:58:34Z</time>
</trkpt>
<trkpt lat="30.7608418" lon="35.7251681">
<ele>1214.46</ele>
<time>2015-11-22T13:58:36Z</time>
</trkpt>
<trkpt lat="30.7607924" lon="35.7251773">
<ele>1214.41</ele>
<time>2015-11-22T13:58:38Z</time>
</trkpt>
<trkpt lat="30.7607409" lon="35.7251830">
<ele>1214.40</ele>
<time>2015-11-22T13:58:40Z</time>
</trkpt>
<trkpt lat="30.7606875" lon="35.7251879">
<ele>1215.14</ele>
<time>2015-11-22T13:58:42Z</time>
</trkpt>
<trkpt lat="30.7606330" lon="35.7251959">
<ele>1215.83</ele>
<time>2015-11-22T13:58:44Z</time>
</trkpt>
<trkpt lat="30.7605742" lon="35.7252044">
<ele>1216.25</ele>
<time>2015-11-22T13:58:46Z</time>
</trkpt>
<trkpt lat="30.7605128" lon="35.7252100">
<ele>1217.11</ele>
<time>2015-11-22T13:58:48Z</time>
</trkpt>
<trkpt lat="30.7604482" lon="35.7252161">
<ele>1216.07</ele>
<time>2015-11-22T13:58:50Z</time>
</trkpt>
<trkpt lat="30.7603808" lon="35.7252216">
<ele>1214.81</ele>
<time>2015-11-22T13:58:52Z</time>
</trkpt>
<trkpt lat="30.7603124" lon="35.7252262">
<ele>1214.50</ele>
<time>2015-11-22T13:58:54Z</time>
</trkpt>
<trkpt lat="30.7602492" lon="35.7252257">
<ele>1214.42</ele>
<time>2015-11-22T13:58:56Z</time>
</trkpt>
<trkpt lat="30.7601884" lon="35.7252282">
<ele>1214.40</ele>
<time>2015-11-22T13:58:58Z</time>
</trkpt>
<trkpt lat="30.7601271" lon="35.7252329">
<ele>1214.40</ele>
<time>2015-11-22T13:59:00Z</time>
</trkpt>
<trkpt lat="30.7600639" lon="35.7252350">
<ele>1214.39</ele>
<time>2015-11-22T13:59:02Z</time>
</trkpt>
<trkpt lat="30.7599999" lon="35.7252400">
<ele>1214.39</ele>
<time>2015-11-22T13:59:04Z</time>
</trkpt>
<trkpt lat="30.7599364" lon="35.7252442">
<ele>1214.39</ele>
<time>2015-11-22T13:59:06Z</time>
</trkpt>
<trkpt lat="30.7598715" lon="35.7252484">
<ele>1214.39</ele>
<time>2015-11-22T13:59:08Z</time>
</trkpt>
<trkpt lat="30.7598063" lon="35.7252548">
<ele>1214.39</ele>
<time>2015-11-22T13:59:10Z</time>
</trkpt>
<trkpt lat="30.7597421" lon="35.7252578">
<ele>1214.39</ele>
<time>2015-11-22T13:59:12Z</time>
</trkpt>
<trkpt lat="30.7596748" lon="35.7252600">
<ele>1214.39</ele>
<time>2015-11-22T13:59:14Z</time>
</trkpt>
<trkpt lat="30.7596059" lon="35.7252608">
<ele>1214.39</ele>
<time>2015-11-22T13:59:16Z</time>
</trkpt>
<trkpt lat="30.7595355" lon="35.7252646">
<ele>1214.39</ele>
<time>2015-11-22T13:59:18Z</time>
</trkpt>
<trkpt lat="30.7594665" lon="35.7252712">
<ele>1214.39</ele>
<time>2015-11-22T13:59:20Z</time>
</trkpt>
<trkpt lat="30.7593986" lon="35.7252788">
<ele>1214.39</ele>
<time>2015-11-22T13:59:22Z</time>
</trkpt>
<trkpt lat="30.7593308" lon="35.7252871">
<ele>1214.39</ele>
<time>2015-11-22T13:59:24Z</time>
</trkpt>
<trkpt lat="30.7592620" lon="35.7252923">
<ele>1214.89</ele>
<time>2015-11-22T13:59:26Z</time>
</trkpt>
<trkpt lat="30.7591932" lon="35.7253021">
<ele>1215.27</ele>
<time>2015-11-22T13:59:28Z</time>
</trkpt>
<trkpt lat="30.7591241" lon="35.7253141">
<ele>1215.36</ele>
<time>2015-11-22T13:59:30Z</time>
</trkpt>
<trkpt lat="30.7590539" lon="35.7253280">
<ele>1215.39</ele>
<time>2015-11-22T13:59:32Z</time>
</trkpt>
<trkpt lat="30.7589853" lon="35.7253431">
<ele>1215.39</ele>
<time>2015-11-22T13:59:34Z</time>
</trkpt>
<trkpt lat="30.7589162" lon="35.7253596">
<ele>1215.39</ele>
<time>2015-11-22T13:59:36Z</time>
</trkpt>
<trkpt lat="30.7588470" lon="35.7253764">
<ele>1216.14</ele>
<time>2015-11-22T13:59:38Z</time>
</trkpt>
<trkpt lat="30.7587784" lon="35.7253972">
<ele>1216.33</ele>
<time>2015-11-22T13:59:40Z</time>
</trkpt>
<trkpt lat="30.7587095" lon="35.7254261">
<ele>1216.88</ele>
<time>2015-11-22T13:59:42Z</time>
</trkpt>
<trkpt lat="30.7586423" lon="35.7254552">
<ele>1217.27</ele>
<time>2015-11-22T13:59:44Z</time>
</trkpt>
<trkpt lat="30.7585774" lon="35.7254869">
<ele>1217.36</ele>
<time>2015-11-22T13:59:46Z</time>
</trkpt>
<trkpt lat="30.7585118" lon="35.7255229">
<ele>1217.39</ele>
<time>2015-11-22T13:59:48Z</time>
</trkpt>
<trkpt lat="30.7584512" lon="35.7255579">
<ele>1217.39</ele>
<time>2015-11-22T13:59:50Z</time>
</trkpt>
<trkpt lat="30.7583938" lon="35.7255932">
<ele>1217.89</ele>
<time>2015-11-22T13:59:52Z</time>
</trkpt>
<trkpt lat="30.7583422" lon="35.7256329">
<ele>1217.77</ele>
<time>2015-11-22T13:59:54Z</time>
</trkpt>
<trkpt lat="30.7582936" lon="35.7256800">
<ele>1217.49</ele>
<time>2015-11-22T13:59:56Z</time>
</trkpt>
<trkpt lat="30.7582411" lon="35.7257268">
<ele>1217.42</ele>
<time>2015-11-22T13:59:58Z</time>
</trkpt>
<trkpt lat="30.7581896" lon="35.7257747">
<ele>1218.15</ele>
<time>2015-11-22T14:00:00Z</time>
</trkpt>
<trkpt lat="30.7581378" lon="35.7258255">
<ele>1218.33</ele>
<time>2015-11-22T14:00:02Z</time>
</trkpt>
<trkpt lat="30.7580868" lon="35.7258775">
<ele>1218.38</ele>
<time>2015-11-22T14:00:04Z</time>
</trkpt>
<trkpt lat="30.7580426" lon="35.7259311">
<ele>1218.14</ele>
<time>2015-11-22T14:00:06Z</time>
</trkpt>
<trkpt lat="30.7580018" lon="35.7259866">
<ele>1217.58</ele>
<time>2015-11-22T14:00:08Z</time>
</trkpt>
<trkpt lat="30.7579602" lon="35.7260470">
<ele>1217.94</ele>
<time>2015-11-22T14:00:10Z</time>
</trkpt>
<trkpt lat="30.7579178" lon="35.7261100">
<ele>1217.78</ele>
<time>2015-11-22T14:00:12Z</time>
</trkpt>
<trkpt lat="30.7578750" lon="35.7261742">
<ele>1218.24</ele>
<time>2015-11-22T14:00:14Z</time>
</trkpt>
<trkpt lat="30.7578314" lon="35.7262344">
<ele>1217.86</ele>
<time>2015-11-22T14:00:16Z</time>
</trkpt>
<trkpt lat="30.7577840" lon="35.7262914">
<ele>1217.51</ele>
<time>2015-11-22T14:00:18Z</time>
</trkpt>
<trkpt lat="30.7577350" lon="35.7263447">
<ele>1217.42</ele>
<time>2015-11-22T14:00:20Z</time>
</trkpt>
<trkpt lat="30.7576880" lon="35.7263996">
<ele>1217.90</ele>
<time>2015-11-22T14:00:22Z</time>
</trkpt>
<trkpt lat="30.7576394" lon="35.7264564">
<ele>1218.27</ele>
<time>2015-11-22T14:00:24Z</time>
</trkpt>
<trkpt lat="30.7575936" lon="35.7265154">
<ele>1218.36</ele>
<time>2015-11-22T14:00:26Z</time>
</trkpt>
<trkpt lat="30.7575510" lon="35.7265778">
<ele>1218.89</ele>
<time>2015-11-22T14:00:28Z</time>
</trkpt>
<trkpt lat="30.7575085" lon="35.7266442">
<ele>1218.77</ele>
<time>2015-11-22T14:00:30Z</time>
</trkpt>
<trkpt lat="30.7574616" lon="35.7267065">
<ele>1218.49</ele>
<time>2015-11-22T14:00:32Z</time>
</trkpt>
<trkpt lat="30.7574146" lon="35.7267600">
<ele>1218.67</ele>
<time>2015-11-22T14:00:34Z</time>
</trkpt>
<trkpt lat="30.7573789" lon="35.7268096">
<ele>1218.46</ele>
<time>2015-11-22T14:00:36Z</time>
</trkpt>
<trkpt lat="30.7573360" lon="35.7268661">
<ele>1218.90</ele>
<time>2015-11-22T14:00:39Z</time>
</trkpt>
<trkpt lat="30.7573013" lon="35.7269072">
<ele>1219.27</ele>
<time>2015-11-22T14:00:41Z</time>
</trkpt>
<trkpt lat="30.7572648" lon="35.7269574">
<ele>1219.36</ele>
<time>2015-11-22T14:00:43Z</time>
</trkpt>
<trkpt lat="30.7572185" lon="35.7270144">
<ele>1217.89</ele>
<time>2015-11-22T14:00:45Z</time>
</trkpt>
<trkpt lat="30.7571612" lon="35.7270782">
<ele>1218.77</ele>
<time>2015-11-22T14:00:47Z</time>
</trkpt>
<trkpt lat="30.7570961" lon="35.7271402">
<ele>1218.49</ele>
<time>2015-11-22T14:00:49Z</time>
</trkpt>
<trkpt lat="30.7570334" lon="35.7271991">
<ele>1218.42</ele>
<time>2015-11-22T14:00:51Z</time>
</trkpt>
<trkpt lat="30.7569695" lon="35.7272486">
<ele>1218.40</ele>
<time>2015-11-22T14:00:53Z</time>
</trkpt>
<trkpt lat="30.7569062" lon="35.7272844">
<ele>1219.15</ele>
<time>2015-11-22T14:00:55Z</time>
</trkpt>
<trkpt lat="30.7568398" lon="35.7273108">
<ele>1219.33</ele>
<time>2015-11-22T14:00:57Z</time>
</trkpt>
<trkpt lat="30.7567695" lon="35.7273293">
<ele>1219.38</ele>
<time>2015-11-22T14:00:59Z</time>
</trkpt>
<trkpt lat="30.7566964" lon="35.7273422">
<ele>1221.39</ele>
<time>2015-11-22T14:01:01Z</time>
</trkpt>
<trkpt lat="30.7566243" lon="35.7273491">
<ele>1224.14</ele>
<time>2015-11-22T14:01:03Z</time>
</trkpt>
<trkpt lat="30.7565553" lon="35.7273537">
<ele>1225.58</ele>
<time>2015-11-22T14:01:05Z</time>
</trkpt>
<trkpt lat="30.7564881" lon="35.7273501">
<ele>1226.94</ele>
<time>2015-11-22T14:01:07Z</time>
</trkpt>
<trkpt lat="30.7564257" lon="35.7273410">
<ele>1227.28</ele>
<time>2015-11-22T14:01:09Z</time>
</trkpt>
<trkpt lat="30.7563630" lon="35.7273343">
<ele>1228.12</ele>
<time>2015-11-22T14:01:11Z</time>
</trkpt>
<trkpt lat="30.7562964" lon="35.7273266">
<ele>1228.32</ele>
<time>2015-11-22T14:01:13Z</time>
</trkpt>
<trkpt lat="30.7562270" lon="35.7273130">
<ele>1228.38</ele>
<time>2015-11-22T14:01:15Z</time>
</trkpt>
<trkpt lat="30.7561553" lon="35.7272980">
<ele>1228.89</ele>
<time>2015-11-22T14:01:17Z</time>
</trkpt>
<trkpt lat="30.7560847" lon="35.7272864">
<ele>1229.27</ele>
<time>2015-11-22T14:01:19Z</time>
</trkpt>
<trkpt lat="30.7560181" lon="35.7272748">
<ele>1229.36</ele>
<time>2015-11-22T14:01:21Z</time>
</trkpt>
<trkpt lat="30.7559516" lon="35.7272656">
<ele>1229.39</ele>
<time>2015-11-22T14:01:23Z</time>
</trkpt>
<trkpt lat="30.7558855" lon="35.7272560">
<ele>1229.14</ele>
<time>2015-11-22T14:01:25Z</time>
</trkpt>
<trkpt lat="30.7558193" lon="35.7272476">
<ele>1229.33</ele>
<time>2015-11-22T14:01:27Z</time>
</trkpt>
<trkpt lat="30.7557507" lon="35.7272331">
<ele>1229.38</ele>
<time>2015-11-22T14:01:29Z</time>
</trkpt>
<trkpt lat="30.7556799" lon="35.7272203">
<ele>1229.39</ele>
<time>2015-11-22T14:01:31Z</time>
</trkpt>
<trkpt lat="30.7556063" lon="35.7272157">
<ele>1229.39</ele>
<time>2015-11-22T14:01:33Z</time>
</trkpt>
<trkpt lat="30.7555342" lon="35.7272047">
<ele>1229.89</ele>
<time>2015-11-22T14:01:35Z</time>
</trkpt>
<trkpt lat="30.7554658" lon="35.7271936">
<ele>1230.27</ele>
<time>2015-11-22T14:01:37Z</time>
</trkpt>
<trkpt lat="30.7553999" lon="35.7271856">
<ele>1231.11</ele>
<time>2015-11-22T14:01:39Z</time>
</trkpt>
<trkpt lat="30.7553355" lon="35.7271767">
<ele>1230.57</ele>
<time>2015-11-22T14:01:41Z</time>
</trkpt>
<trkpt lat="30.7552687" lon="35.7271659">
<ele>1230.94</ele>
<time>2015-11-22T14:01:43Z</time>
</trkpt>
<trkpt lat="30.7551980" lon="35.7271528">
<ele>1231.28</ele>
<time>2015-11-22T14:01:45Z</time>
</trkpt>
<trkpt lat="30.7551270" lon="35.7271441">
<ele>1231.37</ele>
<time>2015-11-22T14:01:47Z</time>
</trkpt>
<trkpt lat="30.7550631" lon="35.7271347">
<ele>1230.89</ele>
<time>2015-11-22T14:01:49Z</time>
</trkpt>
<trkpt lat="30.7550163" lon="35.7271277">
<ele>1231.27</ele>
<time>2015-11-22T14:01:51Z</time>
</trkpt>
<trkpt lat="30.7549524" lon="35.7271207">
<ele>1229.50</ele>
<time>2015-11-22T14:01:54Z</time>
</trkpt>
<trkpt lat="30.7549019" lon="35.7271112">
<ele>1228.67</ele>
<time>2015-11-22T14:01:56Z</time>
</trkpt>
<trkpt lat="30.7548514" lon="35.7270952">
<ele>1227.96</ele>
<time>2015-11-22T14:01:58Z</time>
</trkpt>
<trkpt lat="30.7547987" lon="35.7270775">
<ele>1227.54</ele>
<time>2015-11-22T14:02:00Z</time>
</trkpt>
<trkpt lat="30.7547487" lon="35.7270602">
<ele>1227.93</ele>
<time>2015-11-22T14:02:02Z</time>
</trkpt>
<trkpt lat="30.7547036" lon="35.7270451">
<ele>1228.78</ele>
<time>2015-11-22T14:02:04Z</time>
</trkpt>
<trkpt lat="30.7546401" lon="35.7270275">
<ele>1228.44</ele>
<time>2015-11-22T14:02:07Z</time>
</trkpt>
<trkpt lat="30.7545953" lon="35.7270117">
<ele>1228.41</ele>
<time>2015-11-22T14:02:09Z</time>
</trkpt>
<trkpt lat="30.7545467" lon="35.7269882">
<ele>1228.90</ele>
<time>2015-11-22T14:02:11Z</time>
</trkpt>
<trkpt lat="30.7544953" lon="35.7269643">
<ele>1230.02</ele>
<time>2015-11-22T14:02:13Z</time>
</trkpt>
<trkpt lat="30.7544451" lon="35.7269392">
<ele>1231.05</ele>
<time>2015-11-22T14:02:15Z</time>
</trkpt>
<trkpt lat="30.7543947" lon="35.7269154">
<ele>1232.06</ele>
<time>2015-11-22T14:02:17Z</time>
</trkpt>
<trkpt lat="30.7543436" lon="35.7268905">
<ele>1232.31</ele>
<time>2015-11-22T14:02:19Z</time>
</trkpt>
<trkpt lat="30.7542893" lon="35.7268633">
<ele>1232.37</ele>
<time>2015-11-22T14:02:21Z</time>
</trkpt>
<trkpt lat="30.7542350" lon="35.7268327">
<ele>1232.64</ele>
<time>2015-11-22T14:02:23Z</time>
</trkpt>
<trkpt lat="30.7541818" lon="35.7268038">
<ele>1232.46</ele>
<time>2015-11-22T14:02:25Z</time>
</trkpt>
<trkpt lat="30.7541293" lon="35.7267740">
<ele>1233.16</ele>
<time>2015-11-22T14:02:27Z</time>
</trkpt>
<trkpt lat="30.7540750" lon="35.7267465">
<ele>1233.84</ele>
<time>2015-11-22T14:02:29Z</time>
</trkpt>
<trkpt lat="30.7540205" lon="35.7267168">
<ele>1234.25</ele>
<time>2015-11-22T14:02:31Z</time>
</trkpt>
<trkpt lat="30.7539671" lon="35.7266816">
<ele>1234.36</ele>
<time>2015-11-22T14:02:33Z</time>
</trkpt>
<trkpt lat="30.7539128" lon="35.7266492">
<ele>1234.39</ele>
<time>2015-11-22T14:02:35Z</time>
</trkpt>
<trkpt lat="30.7538565" lon="35.7266190">
<ele>1234.39</ele>
<time>2015-11-22T14:02:37Z</time>
</trkpt>
<trkpt lat="30.7538040" lon="35.7265885">
<ele>1234.89</ele>
<time>2015-11-22T14:02:39Z</time>
</trkpt>
<trkpt lat="30.7537541" lon="35.7265577">
<ele>1235.27</ele>
<time>2015-11-22T14:02:41Z</time>
</trkpt>
<trkpt lat="30.7537039" lon="35.7265309">
<ele>1236.11</ele>
<time>2015-11-22T14:02:43Z</time>
</trkpt>
<trkpt lat="30.7536523" lon="35.7265062">
<ele>1236.82</ele>
<time>2015-11-22T14:02:45Z</time>
</trkpt>
<trkpt lat="30.7536004" lon="35.7264803">
<ele>1237.25</ele>
<time>2015-11-22T14:02:47Z</time>
</trkpt>
<trkpt lat="30.7535447" lon="35.7264521">
<ele>1237.36</ele>
<time>2015-11-22T14:02:49Z</time>
</trkpt>
<trkpt lat="30.7534855" lon="35.7264216">
<ele>1238.14</ele>
<time>2015-11-22T14:02:51Z</time>
</trkpt>
<trkpt lat="30.7534257" lon="35.7263915">
<ele>1237.83</ele>
<time>2015-11-22T14:02:53Z</time>
</trkpt>
<trkpt lat="30.7533632" lon="35.7263591">
<ele>1238.00</ele>
<time>2015-11-22T14:02:55Z</time>
</trkpt>
<trkpt lat="30.7532961" lon="35.7263240">
<ele>1238.30</ele>
<time>2015-11-22T14:02:57Z</time>
</trkpt>
<trkpt lat="30.7532302" lon="35.7262883">
<ele>1239.12</ele>
<time>2015-11-22T14:02:59Z</time>
</trkpt>
<trkpt lat="30.7531669" lon="35.7262529">
<ele>1240.08</ele>
<time>2015-11-22T14:03:01Z</time>
</trkpt>
<trkpt lat="30.7531080" lon="35.7262264">
<ele>1241.06</ele>
<time>2015-11-22T14:03:03Z</time>
</trkpt>
<trkpt lat="30.7530593" lon="35.7261994">
<ele>1240.06</ele>
<time>2015-11-22T14:03:05Z</time>
</trkpt>
<trkpt lat="30.7530140" lon="35.7261691">
<ele>1239.56</ele>
<time>2015-11-22T14:03:07Z</time>
</trkpt>
<trkpt lat="30.7529662" lon="35.7261374">
<ele>1239.44</ele>
<time>2015-11-22T14:03:09Z</time>
</trkpt>
<trkpt lat="30.7529154" lon="35.7261073">
<ele>1239.40</ele>
<time>2015-11-22T14:03:11Z</time>
</trkpt>
<trkpt lat="30.7528635" lon="35.7260755">
<ele>1239.90</ele>
<time>2015-11-22T14:03:13Z</time>
</trkpt>
<trkpt lat="30.7528088" lon="35.7260437">
<ele>1240.27</ele>
<time>2015-11-22T14:03:15Z</time>
</trkpt>
<trkpt lat="30.7527546" lon="35.7260170">
<ele>1240.36</ele>
<time>2015-11-22T14:03:17Z</time>
</trkpt>
<trkpt lat="30.7527038" lon="35.7259906">
<ele>1239.64</ele>
<time>2015-11-22T14:03:19Z</time>
</trkpt>
<trkpt lat="30.7526556" lon="35.7259645">
<ele>1239.45</ele>
<time>2015-11-22T14:03:21Z</time>
</trkpt>
<trkpt lat="30.7526030" lon="35.7259396">
<ele>1239.91</ele>
<time>2015-11-22T14:03:23Z</time>
</trkpt>
<trkpt lat="30.7525499" lon="35.7259124">
<ele>1240.27</ele>
<time>2015-11-22T14:03:25Z</time>
</trkpt>
<trkpt lat="30.7524962" lon="35.7258824">
<ele>1240.86</ele>
<time>2015-11-22T14:03:27Z</time>
</trkpt>
<trkpt lat="30.7524390" lon="35.7258499">
<ele>1241.76</ele>
<time>2015-11-22T14:03:29Z</time>
</trkpt>
<trkpt lat="30.7523846" lon="35.7258159">
<ele>1241.74</ele>
<time>2015-11-22T14:03:31Z</time>
</trkpt>
<trkpt lat="30.7523355" lon="35.7257817">
<ele>1241.98</ele>
<time>2015-11-22T14:03:33Z</time>
</trkpt>
<trkpt lat="30.7522842" lon="35.7257486">
<ele>1242.29</ele>
<time>2015-11-22T14:03:35Z</time>
</trkpt>
<trkpt lat="30.7522317" lon="35.7257124">
<ele>1241.87</ele>
<time>2015-11-22T14:03:37Z</time>
</trkpt>
<trkpt lat="30.7521786" lon="35.7256809">
<ele>1242.76</ele>
<time>2015-11-22T14:03:39Z</time>
</trkpt>
<trkpt lat="30.7521270" lon="35.7256544">
<ele>1242.49</ele>
<time>2015-11-22T14:03:41Z</time>
</trkpt>
<trkpt lat="30.7520742" lon="35.7256231">
<ele>1242.92</ele>
<time>2015-11-22T14:03:43Z</time>
</trkpt>
<trkpt lat="30.7520252" lon="35.7255889">
<ele>1242.02</ele>
<time>2015-11-22T14:03:45Z</time>
</trkpt>
<trkpt lat="30.7519769" lon="35.7255520">
<ele>1240.55</ele>
<time>2015-11-22T14:03:47Z</time>
</trkpt>
<trkpt lat="30.7519249" lon="35.7255196">
<ele>1240.43</ele>
<time>2015-11-22T14:03:49Z</time>
</trkpt>
<trkpt lat="30.7518700" lon="35.7254893">
<ele>1240.40</ele>
<time>2015-11-22T14:03:51Z</time>
</trkpt>
<trkpt lat="30.7518136" lon="35.7254563">
<ele>1240.40</ele>
<time>2015-11-22T14:03:53Z</time>
</trkpt>
<trkpt lat="30.7517582" lon="35.7254205">
<ele>1240.39</ele>
<time>2015-11-22T14:03:55Z</time>
</trkpt>
<trkpt lat="30.7517002" lon="35.7253845">
<ele>1240.14</ele>
<time>2015-11-22T14:03:57Z</time>
</trkpt>
<trkpt lat="30.7516396" lon="35.7253461">
<ele>1240.33</ele>
<time>2015-11-22T14:03:59Z</time>
</trkpt>
<trkpt lat="30.7515786" lon="35.7253064">
<ele>1240.38</ele>
<time>2015-11-22T14:04:01Z</time>
</trkpt>
<trkpt lat="30.7515130" lon="35.7252661">
<ele>1241.14</ele>
<time>2015-11-22T14:04:03Z</time>
</trkpt>
<trkpt lat="30.7514454" lon="35.7252226">
<ele>1241.33</ele>
<time>2015-11-22T14:04:05Z</time>
</trkpt>
<trkpt lat="30.7513832" lon="35.7251773">
<ele>1242.13</ele>
<time>2015-11-22T14:04:07Z</time>
</trkpt>
<trkpt lat="30.7513232" lon="35.7251409">
<ele>1242.33</ele>
<time>2015-11-22T14:04:09Z</time>
</trkpt>
<trkpt lat="30.7512695" lon="35.7251120">
<ele>1242.38</ele>
<time>2015-11-22T14:04:11Z</time>
</trkpt>
<trkpt lat="30.7512279" lon="35.7250851">
<ele>1241.64</ele>
<time>2015-11-22T14:04:13Z</time>
</trkpt>
<trkpt lat="30.7511808" lon="35.7250474">
<ele>1240.67</ele>
<time>2015-11-22T14:04:16Z</time>
</trkpt>
<trkpt lat="30.7511260" lon="35.7250035">
<ele>1239.55</ele>
<time>2015-11-22T14:04:19Z</time>
</trkpt>
<trkpt lat="30.7510832" lon="35.7249755">
<ele>1239.93</ele>
<time>2015-11-22T14:04:21Z</time>
</trkpt>
<trkpt lat="30.7510370" lon="35.7249445">
<ele>1240.28</ele>
<time>2015-11-22T14:04:23Z</time>
</trkpt>
<trkpt lat="30.7509891" lon="35.7249122">
<ele>1241.12</ele>
<time>2015-11-22T14:04:25Z</time>
</trkpt>
<trkpt lat="30.7509386" lon="35.7248854">
<ele>1241.32</ele>
<time>2015-11-22T14:04:27Z</time>
</trkpt>
<trkpt lat="30.7508854" lon="35.7248527">
<ele>1242.13</ele>
<time>2015-11-22T14:04:29Z</time>
</trkpt>
<trkpt lat="30.7508294" lon="35.7248143">
<ele>1243.08</ele>
<time>2015-11-22T14:04:31Z</time>
</trkpt>
<trkpt lat="30.7507745" lon="35.7247740">
<ele>1243.31</ele>
<time>2015-11-22T14:04:33Z</time>
</trkpt>
<trkpt lat="30.7507183" lon="35.7247315">
<ele>1243.37</ele>
<time>2015-11-22T14:04:35Z</time>
</trkpt>
<trkpt lat="30.7506627" lon="35.7246876">
<ele>1243.89</ele>
<time>2015-11-22T14:04:37Z</time>
</trkpt>
<trkpt lat="30.7506075" lon="35.7246395">
<ele>1245.02</ele>
<time>2015-11-22T14:04:39Z</time>
</trkpt>
<trkpt lat="30.7505496" lon="35.7245933">
<ele>1244.05</ele>
<time>2015-11-22T14:04:41Z</time>
</trkpt>
<trkpt lat="30.7504919" lon="35.7245429">
<ele>1243.81</ele>
<time>2015-11-22T14:04:43Z</time>
</trkpt>
<trkpt lat="30.7504333" lon="35.7244878">
<ele>1243.50</ele>
<time>2015-11-22T14:04:45Z</time>
</trkpt>
<trkpt lat="30.7503769" lon="35.7244297">
<ele>1243.42</ele>
<time>2015-11-22T14:04:47Z</time>
</trkpt>
<trkpt lat="30.7503216" lon="35.7243675">
<ele>1244.15</ele>
<time>2015-11-22T14:04:49Z</time>
</trkpt>
<trkpt lat="30.7502700" lon="35.7243069">
<ele>1243.58</ele>
<time>2015-11-22T14:04:51Z</time>
</trkpt>
<trkpt lat="30.7502160" lon="35.7242498">
<ele>1243.69</ele>
<time>2015-11-22T14:04:53Z</time>
</trkpt>
<trkpt lat="30.7501620" lon="35.7241898">
<ele>1244.22</ele>
<time>2015-11-22T14:04:55Z</time>
</trkpt>
<trkpt lat="30.7501057" lon="35.7241304">
<ele>1244.35</ele>
<time>2015-11-22T14:04:57Z</time>
</trkpt>
<trkpt lat="30.7500488" lon="35.7240707">
<ele>1245.13</ele>
<time>2015-11-22T14:04:59Z</time>
</trkpt>
<trkpt lat="30.7499927" lon="35.7240133">
<ele>1245.08</ele>
<time>2015-11-22T14:05:01Z</time>
</trkpt>
<trkpt lat="30.7499395" lon="35.7239596">
<ele>1244.57</ele>
<time>2015-11-22T14:05:03Z</time>
</trkpt>
<trkpt lat="30.7498840" lon="35.7239050">
<ele>1244.69</ele>
<time>2015-11-22T14:05:05Z</time>
</trkpt>
<trkpt lat="30.7498279" lon="35.7238526">
<ele>1244.47</ele>
<time>2015-11-22T14:05:07Z</time>
</trkpt>
<trkpt lat="30.7497722" lon="35.7238023">
<ele>1244.41</ele>
<time>2015-11-22T14:05:09Z</time>
</trkpt>
<trkpt lat="30.7497167" lon="35.7237473">
<ele>1245.15</ele>
<time>2015-11-22T14:05:11Z</time>
</trkpt>
<trkpt lat="30.7496614" lon="35.7236904">
<ele>1244.08</ele>
<time>2015-11-22T14:05:13Z</time>
</trkpt>
<trkpt lat="30.7496042" lon="35.7236308">
<ele>1243.57</ele>
<time>2015-11-22T14:05:15Z</time>
</trkpt>
<trkpt lat="30.7495462" lon="35.7235714">
<ele>1243.44</ele>
<time>2015-11-22T14:05:17Z</time>
</trkpt>
<trkpt lat="30.7494865" lon="35.7235127">
<ele>1243.90</ele>
<time>2015-11-22T14:05:19Z</time>
</trkpt>
<trkpt lat="30.7494222" lon="35.7234570">
<ele>1244.27</ele>
<time>2015-11-22T14:05:21Z</time>
</trkpt>
<trkpt lat="30.7493594" lon="35.7233990">
<ele>1244.36</ele>
<time>2015-11-22T14:05:23Z</time>
</trkpt>
<trkpt lat="30.7492942" lon="35.7233409">
<ele>1245.14</ele>
<time>2015-11-22T14:05:25Z</time>
</trkpt>
<trkpt lat="30.7492255" lon="35.7232883">
<ele>1245.83</ele>
<time>2015-11-22T14:05:27Z</time>
</trkpt>
<trkpt lat="30.7491531" lon="35.7232438">
<ele>1245.00</ele>
<time>2015-11-22T14:05:29Z</time>
</trkpt>
<trkpt lat="30.7490741" lon="35.7232043">
<ele>1245.30</ele>
<time>2015-11-22T14:05:31Z</time>
</trkpt>
<trkpt lat="30.7489926" lon="35.7231730">
<ele>1245.37</ele>
<time>2015-11-22T14:05:33Z</time>
</trkpt>
<trkpt lat="30.7489086" lon="35.7231497">
<ele>1245.39</ele>
<time>2015-11-22T14:05:35Z</time>
</trkpt>
<trkpt lat="30.7488266" lon="35.7231356">
<ele>1244.89</ele>
<time>2015-11-22T14:05:37Z</time>
</trkpt>
<trkpt lat="30.7487435" lon="35.7231310">
<ele>1244.52</ele>
<time>2015-11-22T14:05:39Z</time>
</trkpt>
<trkpt lat="30.7486629" lon="35.7231310">
<ele>1244.43</ele>
<time>2015-11-22T14:05:41Z</time>
</trkpt>
<trkpt lat="30.7485851" lon="35.7231305">
<ele>1243.65</ele>
<time>2015-11-22T14:05:43Z</time>
</trkpt>
<trkpt lat="30.7485094" lon="35.7231282">
<ele>1243.46</ele>
<time>2015-11-22T14:05:45Z</time>
</trkpt>
<trkpt lat="30.7484336" lon="35.7231260">
<ele>1243.41</ele>
<time>2015-11-22T14:05:47Z</time>
</trkpt>
<trkpt lat="30.7483563" lon="35.7231200">
<ele>1243.90</ele>
<time>2015-11-22T14:05:49Z</time>
</trkpt>
<trkpt lat="30.7482767" lon="35.7231177">
<ele>1245.02</ele>
<time>2015-11-22T14:05:51Z</time>
</trkpt>
<trkpt lat="30.7481961" lon="35.7231164">
<ele>1245.30</ele>
<time>2015-11-22T14:05:53Z</time>
</trkpt>
<trkpt lat="30.7481146" lon="35.7231145">
<ele>1245.37</ele>
<time>2015-11-22T14:05:55Z</time>
</trkpt>
<trkpt lat="30.7480310" lon="35.7231134">
<ele>1245.89</ele>
<time>2015-11-22T14:05:57Z</time>
</trkpt>
<trkpt lat="30.7479492" lon="35.7231182">
<ele>1247.02</ele>
<time>2015-11-22T14:05:59Z</time>
</trkpt>
<trkpt lat="30.7478690" lon="35.7231199">
<ele>1247.05</ele>
<time>2015-11-22T14:06:01Z</time>
</trkpt>
<trkpt lat="30.7477879" lon="35.7231198">
<ele>1246.56</ele>
<time>2015-11-22T14:06:03Z</time>
</trkpt>
<trkpt lat="30.7477096" lon="35.7231202">
<ele>1246.43</ele>
<time>2015-11-22T14:06:05Z</time>
</trkpt>
<trkpt lat="30.7476338" lon="35.7231226">
<ele>1246.90</ele>
<time>2015-11-22T14:06:07Z</time>
</trkpt>
<trkpt lat="30.7475635" lon="35.7231251">
<ele>1246.52</ele>
<time>2015-11-22T14:06:09Z</time>
</trkpt>
<trkpt lat="30.7474959" lon="35.7231280">
<ele>1246.18</ele>
<time>2015-11-22T14:06:11Z</time>
</trkpt>
<trkpt lat="30.7474284" lon="35.7231252">
<ele>1247.09</ele>
<time>2015-11-22T14:06:13Z</time>
</trkpt>
<trkpt lat="30.7473599" lon="35.7231186">
<ele>1247.32</ele>
<time>2015-11-22T14:06:15Z</time>
</trkpt>
<trkpt lat="30.7472918" lon="35.7231146">
<ele>1247.88</ele>
<time>2015-11-22T14:06:17Z</time>
</trkpt>
<trkpt lat="30.7472220" lon="35.7231103">
<ele>1247.51</ele>
<time>2015-11-22T14:06:19Z</time>
</trkpt>
<trkpt lat="30.7471495" lon="35.7231043">
<ele>1247.42</ele>
<time>2015-11-22T14:06:21Z</time>
</trkpt>
<trkpt lat="30.7470760" lon="35.7231000">
<ele>1247.40</ele>
<time>2015-11-22T14:06:23Z</time>
</trkpt>
<trkpt lat="30.7470015" lon="35.7230973">
<ele>1247.40</ele>
<time>2015-11-22T14:06:25Z</time>
</trkpt>
<trkpt lat="30.7469224" lon="35.7230919">
<ele>1246.64</ele>
<time>2015-11-22T14:06:27Z</time>
</trkpt>
<trkpt lat="30.7468468" lon="35.7230838">
<ele>1246.96</ele>
<time>2015-11-22T14:06:29Z</time>
</trkpt>
<trkpt lat="30.7467826" lon="35.7230718">
<ele>1246.78</ele>
<time>2015-11-22T14:06:31Z</time>
</trkpt>
<trkpt lat="30.7467318" lon="35.7230659">
<ele>1246.49</ele>
<time>2015-11-22T14:06:33Z</time>
</trkpt>
<trkpt lat="30.7466644" lon="35.7230582">
<ele>1247.16</ele>
<time>2015-11-22T14:06:36Z</time>
</trkpt>
<trkpt lat="30.7466150" lon="35.7230516">
<ele>1247.58</ele>
<time>2015-11-22T14:06:38Z</time>
</trkpt>
<trkpt lat="30.7465637" lon="35.7230472">
<ele>1247.94</ele>
<time>2015-11-22T14:06:40Z</time>
</trkpt>
<trkpt lat="30.7465081" lon="35.7230420">
<ele>1248.28</ele>
<time>2015-11-22T14:06:42Z</time>
</trkpt>
<trkpt lat="30.7464472" lon="35.7230368">
<ele>1248.37</ele>
<time>2015-11-22T14:06:44Z</time>
</trkpt>
<trkpt lat="30.7463840" lon="35.7230337">
<ele>1249.14</ele>
<time>2015-11-22T14:06:46Z</time>
</trkpt>
<trkpt lat="30.7463198" lon="35.7230315">
<ele>1249.33</ele>
<time>2015-11-22T14:06:48Z</time>
</trkpt>
<trkpt lat="30.7462556" lon="35.7230260">
<ele>1249.88</ele>
<time>2015-11-22T14:06:50Z</time>
</trkpt>
<trkpt lat="30.7461903" lon="35.7230220">
<ele>1250.02</ele>
<time>2015-11-22T14:06:52Z</time>
</trkpt>
<trkpt lat="30.7461232" lon="35.7230177">
<ele>1250.30</ele>
<time>2015-11-22T14:06:54Z</time>
</trkpt>
<trkpt lat="30.7460558" lon="35.7230157">
<ele>1250.37</ele>
<time>2015-11-22T14:06:56Z</time>
</trkpt>
<trkpt lat="30.7459888" lon="35.7230174">
<ele>1251.14</ele>
<time>2015-11-22T14:06:58Z</time>
</trkpt>
<trkpt lat="30.7459237" lon="35.7230216">
<ele>1251.33</ele>
<time>2015-11-22T14:07:00Z</time>
</trkpt>
<trkpt lat="30.7458670" lon="35.7230331">
<ele>1251.63</ele>
<time>2015-11-22T14:07:02Z</time>
</trkpt>
<trkpt lat="30.7458142" lon="35.7230461">
<ele>1251.95</ele>
<time>2015-11-22T14:07:04Z</time>
</trkpt>
<trkpt lat="30.7457606" lon="35.7230546">
<ele>1251.78</ele>
<time>2015-11-22T14:07:06Z</time>
</trkpt>
<trkpt lat="30.7457079" lon="35.7230627">
<ele>1251.99</ele>
<time>2015-11-22T14:07:08Z</time>
</trkpt>
<trkpt lat="30.7456539" lon="35.7230780">
<ele>1252.79</ele>
<time>2015-11-22T14:07:10Z</time>
</trkpt>
<trkpt lat="30.7455974" lon="35.7231050">
<ele>1253.24</ele>
<time>2015-11-22T14:07:12Z</time>
</trkpt>
<trkpt lat="30.7455362" lon="35.7231388">
<ele>1252.86</ele>
<time>2015-11-22T14:07:14Z</time>
</trkpt>
<trkpt lat="30.7454806" lon="35.7231794">
<ele>1253.26</ele>
<time>2015-11-22T14:07:16Z</time>
</trkpt>
<trkpt lat="30.7454278" lon="35.7232257">
<ele>1252.61</ele>
<time>2015-11-22T14:07:18Z</time>
</trkpt>
<trkpt lat="30.7453729" lon="35.7232694">
<ele>1252.95</ele>
<time>2015-11-22T14:07:20Z</time>
</trkpt>
<trkpt lat="30.7453178" lon="35.7233108">
<ele>1253.28</ele>
<time>2015-11-22T14:07:22Z</time>
</trkpt>
<trkpt lat="30.7452710" lon="35.7233515">
<ele>1254.12</ele>
<time>2015-11-22T14:07:24Z</time>
</trkpt>
<trkpt lat="30.7452344" lon="35.7233864">
<ele>1254.32</ele>
<time>2015-11-22T14:07:26Z</time>
</trkpt>
<trkpt lat="30.7451834" lon="35.7234309">
<ele>1253.89</ele>
<time>2015-11-22T14:07:29Z</time>
</trkpt>
<trkpt lat="30.7451429" lon="35.7234659">
<ele>1254.27</ele>
<time>2015-11-22T14:07:31Z</time>
</trkpt>
<trkpt lat="30.7450966" lon="35.7235043">
<ele>1254.36</ele>
<time>2015-11-22T14:07:33Z</time>
</trkpt>
<trkpt lat="30.7450456" lon="35.7235381">
<ele>1255.14</ele>
<time>2015-11-22T14:07:35Z</time>
</trkpt>
<trkpt lat="30.7449912" lon="35.7235746">
<ele>1254.58</ele>
<time>2015-11-22T14:07:37Z</time>
</trkpt>
<trkpt lat="30.7449344" lon="35.7236099">
<ele>1254.94</ele>
<time>2015-11-22T14:07:39Z</time>
</trkpt>
<trkpt lat="30.7448720" lon="35.7236405">
<ele>1255.78</ele>
<time>2015-11-22T14:07:41Z</time>
</trkpt>
<trkpt lat="30.7448105" lon="35.7236688">
<ele>1256.24</ele>
<time>2015-11-22T14:07:43Z</time>
</trkpt>
<trkpt lat="30.7447521" lon="35.7236945">
<ele>1255.86</ele>
<time>2015-11-22T14:07:45Z</time>
</trkpt>
<trkpt lat="30.7446952" lon="35.7237155">
<ele>1254.76</ele>
<time>2015-11-22T14:07:47Z</time>
</trkpt>
<trkpt lat="30.7446313" lon="35.7237295">
<ele>1255.24</ele>
<time>2015-11-22T14:07:49Z</time>
</trkpt>
<trkpt lat="30.7445638" lon="35.7237418">
<ele>1255.35</ele>
<time>2015-11-22T14:07:51Z</time>
</trkpt>
<trkpt lat="30.7444984" lon="35.7237531">
<ele>1256.13</ele>
<time>2015-11-22T14:07:53Z</time>
</trkpt>
<trkpt lat="30.7444383" lon="35.7237627">
<ele>1256.33</ele>
<time>2015-11-22T14:07:55Z</time>
</trkpt>
<trkpt lat="30.7443820" lon="35.7237696">
<ele>1256.88</ele>
<time>2015-11-22T14:07:57Z</time>
</trkpt>
<trkpt lat="30.7443263" lon="35.7237746">
<ele>1256.76</ele>
<time>2015-11-22T14:07:59Z</time>
</trkpt>
<trkpt lat="30.7442671" lon="35.7237826">
<ele>1257.24</ele>
<time>2015-11-22T14:08:01Z</time>
</trkpt>
<trkpt lat="30.7442045" lon="35.7237915">
<ele>1257.35</ele>
<time>2015-11-22T14:08:03Z</time>
</trkpt>
<trkpt lat="30.7441420" lon="35.7237976">
<ele>1258.13</ele>
<time>2015-11-22T14:08:05Z</time>
</trkpt>
<trkpt lat="30.7440827" lon="35.7237987">
<ele>1257.83</ele>
<time>2015-11-22T14:08:07Z</time>
</trkpt>
<trkpt lat="30.7440281" lon="35.7238007">
<ele>1258.25</ele>
<time>2015-11-22T14:08:09Z</time>
</trkpt>
<trkpt lat="30.7439810" lon="35.7238012">
<ele>1258.36</ele>
<time>2015-11-22T14:08:11Z</time>
</trkpt>
<trkpt lat="30.7439324" lon="35.7238000">
<ele>1259.14</ele>
<time>2015-11-22T14:08:13Z</time>
</trkpt>
<trkpt lat="30.7438813" lon="35.7238025">
<ele>1259.33</ele>
<time>2015-11-22T14:08:15Z</time>
</trkpt>
<trkpt lat="30.7438255" lon="35.7238053">
<ele>1258.63</ele>
<time>2015-11-22T14:08:17Z</time>
</trkpt>
<trkpt lat="30.7437682" lon="35.7238063">
<ele>1258.45</ele>
<time>2015-11-22T14:08:19Z</time>
</trkpt>
<trkpt lat="30.7437117" lon="35.7238072">
<ele>1259.16</ele>
<time>2015-11-22T14:08:21Z</time>
</trkpt>
<trkpt lat="30.7436597" lon="35.7238042">
<ele>1259.34</ele>
<time>2015-11-22T14:08:23Z</time>
</trkpt>
<trkpt lat="30.7436094" lon="35.7238017">
<ele>1259.13</ele>
<time>2015-11-22T14:08:25Z</time>
</trkpt>
<trkpt lat="30.7435564" lon="35.7237999">
<ele>1259.83</ele>
<time>2015-11-22T14:08:27Z</time>
</trkpt>
<trkpt lat="30.7435006" lon="35.7237981">
<ele>1260.25</ele>
<time>2015-11-22T14:08:29Z</time>
</trkpt>
<trkpt lat="30.7434413" lon="35.7237966">
<ele>1260.36</ele>
<time>2015-11-22T14:08:31Z</time>
</trkpt>
<trkpt lat="30.7433813" lon="35.7237942">
<ele>1260.39</ele>
<time>2015-11-22T14:08:33Z</time>
</trkpt>
<trkpt lat="30.7433257" lon="35.7237959">
<ele>1260.39</ele>
<time>2015-11-22T14:08:35Z</time>
</trkpt>
<trkpt lat="30.7432728" lon="35.7238024">
<ele>1260.14</ele>
<time>2015-11-22T14:08:37Z</time>
</trkpt>
<trkpt lat="30.7432210" lon="35.7238048">
<ele>1260.33</ele>
<time>2015-11-22T14:08:39Z</time>
</trkpt>
<trkpt lat="30.7431661" lon="35.7238021">
<ele>1260.38</ele>
<time>2015-11-22T14:08:41Z</time>
</trkpt>
<trkpt lat="30.7431060" lon="35.7238028">
<ele>1260.39</ele>
<time>2015-11-22T14:08:43Z</time>
</trkpt>
<trkpt lat="30.7430413" lon="35.7238029">
<ele>1260.89</ele>
<time>2015-11-22T14:08:45Z</time>
</trkpt>
<trkpt lat="30.7429734" lon="35.7238003">
<ele>1262.02</ele>
<time>2015-11-22T14:08:47Z</time>
</trkpt>
<trkpt lat="30.7429055" lon="35.7237980">
<ele>1262.30</ele>
<time>2015-11-22T14:08:49Z</time>
</trkpt>
<trkpt lat="30.7428443" lon="35.7238003">
<ele>1262.37</ele>
<time>2015-11-22T14:08:51Z</time>
</trkpt>
<trkpt lat="30.7427835" lon="35.7238049">
<ele>1262.89</ele>
<time>2015-11-22T14:08:53Z</time>
</trkpt>
<trkpt lat="30.7427206" lon="35.7238036">
<ele>1263.27</ele>
<time>2015-11-22T14:08:55Z</time>
</trkpt>
<trkpt lat="30.7426560" lon="35.7237985">
<ele>1263.36</ele>
<time>2015-11-22T14:08:57Z</time>
</trkpt>
<trkpt lat="30.7425916" lon="35.7237962">
<ele>1262.89</ele>
<time>2015-11-22T14:08:59Z</time>
</trkpt>
<trkpt lat="30.7425317" lon="35.7237954">
<ele>1263.27</ele>
<time>2015-11-22T14:09:01Z</time>
</trkpt>
<trkpt lat="30.7424753" lon="35.7237876">
<ele>1263.36</ele>
<time>2015-11-22T14:09:03Z</time>
</trkpt>
<trkpt lat="30.7424303" lon="35.7237787">
<ele>1262.14</ele>
<time>2015-11-22T14:09:05Z</time>
</trkpt>
<trkpt lat="30.7423772" lon="35.7237755">
<ele>1262.86</ele>
<time>2015-11-22T14:09:08Z</time>
</trkpt>
<trkpt lat="30.7423104" lon="35.7237671">
<ele>1262.58</ele>
<time>2015-11-22T14:09:11Z</time>
</trkpt>
<trkpt lat="30.7422566" lon="35.7237565">
<ele>1261.94</ele>
<time>2015-11-22T14:09:13Z</time>
</trkpt>
<trkpt lat="30.7421998" lon="35.7237441">
<ele>1261.53</ele>
<time>2015-11-22T14:09:15Z</time>
</trkpt>
<trkpt lat="30.7421471" lon="35.7237286">
<ele>1261.43</ele>
<time>2015-11-22T14:09:17Z</time>
</trkpt>
<trkpt lat="30.7420978" lon="35.7237169">
<ele>1262.15</ele>
<time>2015-11-22T14:09:19Z</time>
</trkpt>
<trkpt lat="30.7420472" lon="35.7237115">
<ele>1262.58</ele>
<time>2015-11-22T14:09:21Z</time>
</trkpt>
<trkpt lat="30.7419947" lon="35.7237056">
<ele>1262.94</ele>
<time>2015-11-22T14:09:23Z</time>
</trkpt>
<trkpt lat="30.7419422" lon="35.7236934">
<ele>1263.28</ele>
<time>2015-11-22T14:09:25Z</time>
</trkpt>
<trkpt lat="30.7418884" lon="35.7236820">
<ele>1263.37</ele>
<time>2015-11-22T14:09:27Z</time>
</trkpt>
<trkpt lat="30.7418344" lon="35.7236720">
<ele>1263.14</ele>
<time>2015-11-22T14:09:29Z</time>
</trkpt>
<trkpt lat="30.7417774" lon="35.7236605">
<ele>1263.33</ele>
<time>2015-11-22T14:09:31Z</time>
</trkpt>
<trkpt lat="30.7417182" lon="35.7236448">
<ele>1263.38</ele>
<time>2015-11-22T14:09:33Z</time>
</trkpt>
<trkpt lat="30.7416568" lon="35.7236274">
<ele>1263.89</ele>
<time>2015-11-22T14:09:35Z</time>
</trkpt>
<trkpt lat="30.7415922" lon="35.7236077">
<ele>1264.27</ele>
<time>2015-11-22T14:09:37Z</time>
</trkpt>
<trkpt lat="30.7415273" lon="35.7235894">
<ele>1264.86</ele>
<time>2015-11-22T14:09:39Z</time>
</trkpt>
<trkpt lat="30.7414631" lon="35.7235735">
<ele>1264.76</ele>
<time>2015-11-22T14:09:41Z</time>
</trkpt>
<trkpt lat="30.7414026" lon="35.7235587">
<ele>1264.99</ele>
<time>2015-11-22T14:09:43Z</time>
</trkpt>
<trkpt lat="30.7413444" lon="35.7235422">
<ele>1265.04</ele>
<time>2015-11-22T14:09:45Z</time>
</trkpt>
<trkpt lat="30.7412844" lon="35.7235231">
<ele>1265.31</ele>
<time>2015-11-22T14:09:47Z</time>
</trkpt>
<trkpt lat="30.7412235" lon="35.7235065">
<ele>1264.87</ele>
<time>2015-11-22T14:09:49Z</time>
</trkpt>
<trkpt lat="30.7411606" lon="35.7234930">
<ele>1264.51</ele>
<time>2015-11-22T14:09:51Z</time>
</trkpt>
<trkpt lat="30.7410938" lon="35.7234762">
<ele>1264.92</ele>
<time>2015-11-22T14:09:53Z</time>
</trkpt>
<trkpt lat="30.7410245" lon="35.7234603">
<ele>1265.28</ele>
<time>2015-11-22T14:09:55Z</time>
</trkpt>
<trkpt lat="30.7409514" lon="35.7234412">
<ele>1265.36</ele>
<time>2015-11-22T14:09:57Z</time>
</trkpt>
<trkpt lat="30.7408803" lon="35.7234187">
<ele>1266.14</ele>
<time>2015-11-22T14:09:59Z</time>
</trkpt>
<trkpt lat="30.7408113" lon="35.7233981">
<ele>1265.83</ele>
<time>2015-11-22T14:10:01Z</time>
</trkpt>
<trkpt lat="30.7407429" lon="35.7233804">
<ele>1265.75</ele>
<time>2015-11-22T14:10:03Z</time>
</trkpt>
<trkpt lat="30.7406746" lon="35.7233593">
<ele>1266.23</ele>
<time>2015-11-22T14:10:05Z</time>
</trkpt>
<trkpt lat="30.7406086" lon="35.7233381">
<ele>1266.35</ele>
<time>2015-11-22T14:10:07Z</time>
</trkpt>
<trkpt lat="30.7405428" lon="35.7233198">
<ele>1265.63</ele>
<time>2015-11-22T14:10:09Z</time>
</trkpt>
<trkpt lat="30.7404801" lon="35.7232990">
<ele>1265.45</ele>
<time>2015-11-22T14:10:11Z</time>
</trkpt>
<trkpt lat="30.7404166" lon="35.7232788">
<ele>1265.41</ele>
<time>2015-11-22T14:10:13Z</time>
</trkpt>
<trkpt lat="30.7403488" lon="35.7232651">
<ele>1265.90</ele>
<time>2015-11-22T14:10:15Z</time>
</trkpt>
<trkpt lat="30.7402799" lon="35.7232472">
<ele>1266.27</ele>
<time>2015-11-22T14:10:17Z</time>
</trkpt>
<trkpt lat="30.7402103" lon="35.7232240">
<ele>1266.36</ele>
<time>2015-11-22T14:10:19Z</time>
</trkpt>
<trkpt lat="30.7401396" lon="35.7231985">
<ele>1266.39</ele>
<time>2015-11-22T14:10:21Z</time>
</trkpt>
<trkpt lat="30.7400675" lon="35.7231733">
<ele>1266.39</ele>
<time>2015-11-22T14:10:23Z</time>
</trkpt>
<trkpt lat="30.7399947" lon="35.7231508">
<ele>1267.14</ele>
<time>2015-11-22T14:10:25Z</time>
</trkpt>
<trkpt lat="30.7399236" lon="35.7231332">
<ele>1267.33</ele>
<time>2015-11-22T14:10:27Z</time>
</trkpt>
<trkpt lat="30.7398557" lon="35.7231143">
<ele>1267.13</ele>
<time>2015-11-22T14:10:29Z</time>
</trkpt>
<trkpt lat="30.7397872" lon="35.7230967">
<ele>1267.33</ele>
<time>2015-11-22T14:10:31Z</time>
</trkpt>
<trkpt lat="30.7397186" lon="35.7230821">
<ele>1267.38</ele>
<time>2015-11-22T14:10:33Z</time>
</trkpt>
<trkpt lat="30.7396504" lon="35.7230646">
<ele>1267.39</ele>
<time>2015-11-22T14:10:35Z</time>
</trkpt>
<trkpt lat="30.7395822" lon="35.7230459">
<ele>1267.39</ele>
<time>2015-11-22T14:10:37Z</time>
</trkpt>
<trkpt lat="30.7395148" lon="35.7230271">
<ele>1267.39</ele>
<time>2015-11-22T14:10:39Z</time>
</trkpt>
<trkpt lat="30.7394479" lon="35.7230079">
<ele>1267.39</ele>
<time>2015-11-22T14:10:41Z</time>
</trkpt>
<trkpt lat="30.7393794" lon="35.7229896">
<ele>1267.39</ele>
<time>2015-11-22T14:10:43Z</time>
</trkpt>
<trkpt lat="30.7393098" lon="35.7229711">
<ele>1266.89</ele>
<time>2015-11-22T14:10:45Z</time>
</trkpt>
<trkpt lat="30.7392404" lon="35.7229507">
<ele>1266.52</ele>
<time>2015-11-22T14:10:47Z</time>
</trkpt>
<trkpt lat="30.7391714" lon="35.7229317">
<ele>1267.18</ele>
<time>2015-11-22T14:10:49Z</time>
</trkpt>
<trkpt lat="30.7391036" lon="35.7229158">
<ele>1267.34</ele>
<time>2015-11-22T14:10:51Z</time>
</trkpt>
<trkpt lat="30.7390374" lon="35.7228976">
<ele>1268.13</ele>
<time>2015-11-22T14:10:53Z</time>
</trkpt>
<trkpt lat="30.7389722" lon="35.7228789">
<ele>1268.33</ele>
<time>2015-11-22T14:10:55Z</time>
</trkpt>
<trkpt lat="30.7389056" lon="35.7228626">
<ele>1268.38</ele>
<time>2015-11-22T14:10:57Z</time>
</trkpt>
<trkpt lat="30.7388378" lon="35.7228442">
<ele>1269.14</ele>
<time>2015-11-22T14:10:59Z</time>
</trkpt>
<trkpt lat="30.7387709" lon="35.7228251">
<ele>1269.83</ele>
<time>2015-11-22T14:11:01Z</time>
</trkpt>
<trkpt lat="30.7387058" lon="35.7228057">
<ele>1270.25</ele>
<time>2015-11-22T14:11:03Z</time>
</trkpt>
<trkpt lat="30.7386418" lon="35.7227875">
<ele>1270.61</ele>
<time>2015-11-22T14:11:05Z</time>
</trkpt>
<trkpt lat="30.7385791" lon="35.7227683">
<ele>1270.45</ele>
<time>2015-11-22T14:11:07Z</time>
</trkpt>
<trkpt lat="30.7385157" lon="35.7227513">
<ele>1270.41</ele>
<time>2015-11-22T14:11:09Z</time>
</trkpt>
<trkpt lat="30.7384535" lon="35.7227343">
<ele>1269.90</ele>
<time>2015-11-22T14:11:11Z</time>
</trkpt>
<trkpt lat="30.7383912" lon="35.7227154">
<ele>1269.52</ele>
<time>2015-11-22T14:11:13Z</time>
</trkpt>
<trkpt lat="30.7383262" lon="35.7226976">
<ele>1269.93</ele>
<time>2015-11-22T14:11:15Z</time>
</trkpt>
<trkpt lat="30.7382605" lon="35.7226770">
<ele>1270.28</ele>
<time>2015-11-22T14:11:17Z</time>
</trkpt>
<trkpt lat="30.7381960" lon="35.7226589">
<ele>1269.86</ele>
<time>2015-11-22T14:11:19Z</time>
</trkpt>
<trkpt lat="30.7381289" lon="35.7226452">
<ele>1269.51</ele>
<time>2015-11-22T14:11:21Z</time>
</trkpt>
<trkpt lat="30.7380629" lon="35.7226244">
<ele>1268.92</ele>
<time>2015-11-22T14:11:23Z</time>
</trkpt>
<trkpt lat="30.7379954" lon="35.7226019">
<ele>1268.53</ele>
<time>2015-11-22T14:11:25Z</time>
</trkpt>
<trkpt lat="30.7379262" lon="35.7225804">
<ele>1268.93</ele>
<time>2015-11-22T14:11:27Z</time>
</trkpt>
<trkpt lat="30.7378559" lon="35.7225623">
<ele>1269.28</ele>
<time>2015-11-22T14:11:29Z</time>
</trkpt>
<trkpt lat="30.7377845" lon="35.7225527">
<ele>1269.36</ele>
<time>2015-11-22T14:11:31Z</time>
</trkpt>
<trkpt lat="30.7377160" lon="35.7225450">
<ele>1268.89</ele>
<time>2015-11-22T14:11:33Z</time>
</trkpt>
<trkpt lat="30.7376512" lon="35.7225336">
<ele>1269.02</ele>
<time>2015-11-22T14:11:35Z</time>
</trkpt>
<trkpt lat="30.7375870" lon="35.7225253">
<ele>1269.30</ele>
<time>2015-11-22T14:11:37Z</time>
</trkpt>
<trkpt lat="30.7375192" lon="35.7225246">
<ele>1269.87</ele>
<time>2015-11-22T14:11:39Z</time>
</trkpt>
<trkpt lat="30.7374484" lon="35.7225280">
<ele>1270.01</ele>
<time>2015-11-22T14:11:41Z</time>
</trkpt>
<trkpt lat="30.7373752" lon="35.7225353">
<ele>1270.80</ele>
<time>2015-11-22T14:11:43Z</time>
</trkpt>
<trkpt lat="30.7373009" lon="35.7225478">
<ele>1271.25</ele>
<time>2015-11-22T14:11:45Z</time>
</trkpt>
<trkpt lat="30.7372255" lon="35.7225628">
<ele>1271.86</ele>
<time>2015-11-22T14:11:47Z</time>
</trkpt>
<trkpt lat="30.7371512" lon="35.7225753">
<ele>1272.26</ele>
<time>2015-11-22T14:11:49Z</time>
</trkpt>
<trkpt lat="30.7370800" lon="35.7225893">
<ele>1272.36</ele>
<time>2015-11-22T14:11:51Z</time>
</trkpt>
<trkpt lat="30.7370116" lon="35.7225995">
<ele>1272.39</ele>
<time>2015-11-22T14:11:53Z</time>
</trkpt>
<trkpt lat="30.7369425" lon="35.7226063">
<ele>1272.89</ele>
<time>2015-11-22T14:11:55Z</time>
</trkpt>
<trkpt lat="30.7368714" lon="35.7226144">
<ele>1273.27</ele>
<time>2015-11-22T14:11:57Z</time>
</trkpt>
<trkpt lat="30.7368001" lon="35.7226254">
<ele>1273.36</ele>
<time>2015-11-22T14:11:59Z</time>
</trkpt>
<trkpt lat="30.7367295" lon="35.7226380">
<ele>1273.39</ele>
<time>2015-11-22T14:12:01Z</time>
</trkpt>
<trkpt lat="30.7366583" lon="35.7226499">
<ele>1272.64</ele>
<time>2015-11-22T14:12:03Z</time>
</trkpt>
<trkpt lat="30.7365893" lon="35.7226655">
<ele>1272.96</ele>
<time>2015-11-22T14:12:05Z</time>
</trkpt>
<trkpt lat="30.7365245" lon="35.7226785">
<ele>1273.28</ele>
<time>2015-11-22T14:12:07Z</time>
</trkpt>
<trkpt lat="30.7364603" lon="35.7226918">
<ele>1272.87</ele>
<time>2015-11-22T14:12:09Z</time>
</trkpt>
<trkpt lat="30.7363934" lon="35.7227049">
<ele>1272.51</ele>
<time>2015-11-22T14:12:11Z</time>
</trkpt>
<trkpt lat="30.7363270" lon="35.7227182">
<ele>1272.92</ele>
<time>2015-11-22T14:12:13Z</time>
</trkpt>
<trkpt lat="30.7362653" lon="35.7227291">
<ele>1273.03</ele>
<time>2015-11-22T14:12:15Z</time>
</trkpt>
<trkpt lat="30.7362088" lon="35.7227411">
<ele>1272.55</ele>
<time>2015-11-22T14:12:17Z</time>
</trkpt>
<trkpt lat="30.7361533" lon="35.7227490">
<ele>1272.43</ele>
<time>2015-11-22T14:12:19Z</time>
</trkpt>
<trkpt lat="30.7360930" lon="35.7227540">
<ele>1272.40</ele>
<time>2015-11-22T14:12:21Z</time>
</trkpt>
<trkpt lat="30.7360282" lon="35.7227613">
<ele>1273.15</ele>
<time>2015-11-22T14:12:23Z</time>
</trkpt>
<trkpt lat="30.7359621" lon="35.7227680">
<ele>1274.08</ele>
<time>2015-11-22T14:12:25Z</time>
</trkpt>
<trkpt lat="30.7358966" lon="35.7227733">
<ele>1274.82</ele>
<time>2015-11-22T14:12:27Z</time>
</trkpt>
<trkpt lat="30.7358315" lon="35.7227777">
<ele>1275.75</ele>
<time>2015-11-22T14:12:29Z</time>
</trkpt>
<trkpt lat="30.7357639" lon="35.7227836">
<ele>1275.98</ele>
<time>2015-11-22T14:12:31Z</time>
</trkpt>
<trkpt lat="30.7356930" lon="35.7227920">
<ele>1275.54</ele>
<time>2015-11-22T14:12:33Z</time>
</trkpt>
<trkpt lat="30.7356224" lon="35.7228006">
<ele>1276.18</ele>
<time>2015-11-22T14:12:35Z</time>
</trkpt>
<trkpt lat="30.7355508" lon="35.7228103">
<ele>1275.59</ele>
<time>2015-11-22T14:12:37Z</time>
</trkpt>
<trkpt lat="30.7354802" lon="35.7228248">
<ele>1275.44</ele>
<time>2015-11-22T14:12:39Z</time>
</trkpt>
<trkpt lat="30.7354136" lon="35.7228486">
<ele>1276.16</ele>
<time>2015-11-22T14:12:41Z</time>
</trkpt>
<trkpt lat="30.7353513" lon="35.7228650">
<ele>1276.33</ele>
<time>2015-11-22T14:12:43Z</time>
</trkpt>
<trkpt lat="30.7352987" lon="35.7228760">
<ele>1276.88</ele>
<time>2015-11-22T14:12:45Z</time>
</trkpt>
<trkpt lat="30.7352498" lon="35.7228930">
<ele>1277.27</ele>
<time>2015-11-22T14:12:47Z</time>
</trkpt>
<trkpt lat="30.7351986" lon="35.7229021">
<ele>1277.36</ele>
<time>2015-11-22T14:12:49Z</time>
</trkpt>
<trkpt lat="30.7351417" lon="35.7229014">
<ele>1278.14</ele>
<time>2015-11-22T14:12:51Z</time>
</trkpt>
<trkpt lat="30.7350820" lon="35.7229134">
<ele>1278.83</ele>
<time>2015-11-22T14:12:53Z</time>
</trkpt>
<trkpt lat="30.7350220" lon="35.7229246">
<ele>1280.00</ele>
<time>2015-11-22T14:12:55Z</time>
</trkpt>
<trkpt lat="30.7349585" lon="35.7229352">
<ele>1280.30</ele>
<time>2015-11-22T14:12:57Z</time>
</trkpt>
<trkpt lat="30.7348895" lon="35.7229453">
<ele>1279.62</ele>
<time>2015-11-22T14:12:59Z</time>
</trkpt>
<trkpt lat="30.7348202" lon="35.7229539">
<ele>1279.45</ele>
<time>2015-11-22T14:13:01Z</time>
</trkpt>
<trkpt lat="30.7347512" lon="35.7229648">
<ele>1279.41</ele>
<time>2015-11-22T14:13:03Z</time>
</trkpt>
<trkpt lat="30.7346813" lon="35.7229766">
<ele>1279.40</ele>
<time>2015-11-22T14:13:05Z</time>
</trkpt>
<trkpt lat="30.7346092" lon="35.7229858">
<ele>1279.39</ele>
<time>2015-11-22T14:13:07Z</time>
</trkpt>
<trkpt lat="30.7345346" lon="35.7229967">
<ele>1280.14</ele>
<time>2015-11-22T14:13:09Z</time>
</trkpt>
<trkpt lat="30.7344613" lon="35.7230066">
<ele>1280.33</ele>
<time>2015-11-22T14:13:11Z</time>
</trkpt>
<trkpt lat="30.7343898" lon="35.7230187">
<ele>1279.88</ele>
<time>2015-11-22T14:13:13Z</time>
</trkpt>
<trkpt lat="30.7343189" lon="35.7230250">
<ele>1280.27</ele>
<time>2015-11-22T14:13:15Z</time>
</trkpt>
<trkpt lat="30.7342505" lon="35.7230272">
<ele>1279.86</ele>
<time>2015-11-22T14:13:17Z</time>
</trkpt>
<trkpt lat="30.7341859" lon="35.7230320">
<ele>1279.51</ele>
<time>2015-11-22T14:13:19Z</time>
</trkpt>
<trkpt lat="30.7341233" lon="35.7230359">
<ele>1279.17</ele>
<time>2015-11-22T14:13:21Z</time>
</trkpt>
<trkpt lat="30.7340589" lon="35.7230384">
<ele>1279.34</ele>
<time>2015-11-22T14:13:23Z</time>
</trkpt>
<trkpt lat="30.7339938" lon="35.7230324">
<ele>1279.88</ele>
<time>2015-11-22T14:13:25Z</time>
</trkpt>
<trkpt lat="30.7339258" lon="35.7230197">
<ele>1280.27</ele>
<time>2015-11-22T14:13:27Z</time>
</trkpt>
<trkpt lat="30.7338586" lon="35.7230051">
<ele>1280.36</ele>
<time>2015-11-22T14:13:29Z</time>
</trkpt>
<trkpt lat="30.7337942" lon="35.7229898">
<ele>1280.39</ele>
<time>2015-11-22T14:13:31Z</time>
</trkpt>
<trkpt lat="30.7337280" lon="35.7229729">
<ele>1281.14</ele>
<time>2015-11-22T14:13:33Z</time>
</trkpt>
<trkpt lat="30.7336592" lon="35.7229558">
<ele>1282.08</ele>
<time>2015-11-22T14:13:35Z</time>
</trkpt>
<trkpt lat="30.7335895" lon="35.7229368">
<ele>1282.32</ele>
<time>2015-11-22T14:13:37Z</time>
</trkpt>
<trkpt lat="30.7335189" lon="35.7229211">
<ele>1282.37</ele>
<time>2015-11-22T14:13:39Z</time>
</trkpt>
<trkpt lat="30.7334480" lon="35.7229052">
<ele>1282.39</ele>
<time>2015-11-22T14:13:41Z</time>
</trkpt>
<trkpt lat="30.7333751" lon="35.7228871">
<ele>1282.39</ele>
<time>2015-11-22T14:13:43Z</time>
</trkpt>
<trkpt lat="30.7333011" lon="35.7228690">
<ele>1283.14</ele>
<time>2015-11-22T14:13:45Z</time>
</trkpt>
<trkpt lat="30.7332281" lon="35.7228519">
<ele>1282.83</ele>
<time>2015-11-22T14:13:47Z</time>
</trkpt>
<trkpt lat="30.7331566" lon="35.7228342">
<ele>1283.00</ele>
<time>2015-11-22T14:13:49Z</time>
</trkpt>
<trkpt lat="30.7330846" lon="35.7228168">
<ele>1283.30</ele>
<time>2015-11-22T14:13:51Z</time>
</trkpt>
<trkpt lat="30.7330098" lon="35.7228016">
<ele>1283.37</ele>
<time>2015-11-22T14:13:53Z</time>
</trkpt>
<trkpt lat="30.7329335" lon="35.7227893">
<ele>1283.39</ele>
<time>2015-11-22T14:13:55Z</time>
</trkpt>
<trkpt lat="30.7328566" lon="35.7227851">
<ele>1284.14</ele>
<time>2015-11-22T14:13:57Z</time>
</trkpt>
<trkpt lat="30.7327841" lon="35.7227819">
<ele>1284.33</ele>
<time>2015-11-22T14:13:59Z</time>
</trkpt>
<trkpt lat="30.7327134" lon="35.7227768">
<ele>1284.38</ele>
<time>2015-11-22T14:14:01Z</time>
</trkpt>
<trkpt lat="30.7326454" lon="35.7227766">
<ele>1283.64</ele>
<time>2015-11-22T14:14:03Z</time>
</trkpt>
<trkpt lat="30.7325779" lon="35.7227814">
<ele>1282.96</ele>
<time>2015-11-22T14:14:05Z</time>
</trkpt>
<trkpt lat="30.7325103" lon="35.7227877">
<ele>1283.28</ele>
<time>2015-11-22T14:14:07Z</time>
</trkpt>
<trkpt lat="30.7324446" lon="35.7227953">
<ele>1282.87</ele>
<time>2015-11-22T14:14:09Z</time>
</trkpt>
<trkpt lat="30.7323790" lon="35.7228049">
<ele>1282.01</ele>
<time>2015-11-22T14:14:11Z</time>
</trkpt>
<trkpt lat="30.7323132" lon="35.7228068">
<ele>1282.30</ele>
<time>2015-11-22T14:14:13Z</time>
</trkpt>
<trkpt lat="30.7322492" lon="35.7228179">
<ele>1282.62</ele>
<time>2015-11-22T14:14:15Z</time>
</trkpt>
<trkpt lat="30.7321864" lon="35.7228377">
<ele>1283.20</ele>
<time>2015-11-22T14:14:17Z</time>
</trkpt>
<trkpt lat="30.7321229" lon="35.7228536">
<ele>1282.60</ele>
<time>2015-11-22T14:14:19Z</time>
</trkpt>
<trkpt lat="30.7320594" lon="35.7228639">
<ele>1282.94</ele>
<time>2015-11-22T14:14:21Z</time>
</trkpt>
<trkpt lat="30.7319928" lon="35.7228771">
<ele>1283.28</ele>
<time>2015-11-22T14:14:23Z</time>
</trkpt>
<trkpt lat="30.7319261" lon="35.7228979">
<ele>1283.87</ele>
<time>2015-11-22T14:14:25Z</time>
</trkpt>
<trkpt lat="30.7318594" lon="35.7229141">
<ele>1284.51</ele>
<time>2015-11-22T14:14:27Z</time>
</trkpt>
<trkpt lat="30.7317942" lon="35.7229236">
<ele>1284.67</ele>
<time>2015-11-22T14:14:29Z</time>
</trkpt>
<trkpt lat="30.7317335" lon="35.7229386">
<ele>1285.21</ele>
<time>2015-11-22T14:14:31Z</time>
</trkpt>
<trkpt lat="30.7316758" lon="35.7229522">
<ele>1285.85</ele>
<time>2015-11-22T14:14:33Z</time>
</trkpt>
<trkpt lat="30.7316173" lon="35.7229659">
<ele>1286.26</ele>
<time>2015-11-22T14:14:35Z</time>
</trkpt>
<trkpt lat="30.7315621" lon="35.7229861">
<ele>1286.36</ele>
<time>2015-11-22T14:14:37Z</time>
</trkpt>
<trkpt lat="30.7315053" lon="35.7230040">
<ele>1286.89</ele>
<time>2015-11-22T14:14:39Z</time>
</trkpt>
<trkpt lat="30.7314470" lon="35.7230193">
<ele>1287.77</ele>
<time>2015-11-22T14:14:41Z</time>
</trkpt>
<trkpt lat="30.7313890" lon="35.7230346">
<ele>1288.24</ele>
<time>2015-11-22T14:14:43Z</time>
</trkpt>
<trkpt lat="30.7313344" lon="35.7230575">
<ele>1288.85</ele>
<time>2015-11-22T14:14:45Z</time>
</trkpt>
<trkpt lat="30.7312809" lon="35.7230846">
<ele>1289.26</ele>
<time>2015-11-22T14:14:47Z</time>
</trkpt>
<trkpt lat="30.7312245" lon="35.7231050">
<ele>1289.36</ele>
<time>2015-11-22T14:14:49Z</time>
</trkpt>
<trkpt lat="30.7311652" lon="35.7231244">
<ele>1290.14</ele>
<time>2015-11-22T14:14:51Z</time>
</trkpt>
<trkpt lat="30.7311044" lon="35.7231434">
<ele>1290.33</ele>
<time>2015-11-22T14:14:53Z</time>
</trkpt>
<trkpt lat="30.7310436" lon="35.7231585">
<ele>1289.88</ele>
<time>2015-11-22T14:14:55Z</time>
</trkpt>
<trkpt lat="30.7309828" lon="35.7231773">
<ele>1290.27</ele>
<time>2015-11-22T14:14:57Z</time>
</trkpt>
<trkpt lat="30.7309238" lon="35.7231983">
<ele>1290.36</ele>
<time>2015-11-22T14:14:59Z</time>
</trkpt>
<trkpt lat="30.7308647" lon="35.7232099">
<ele>1291.14</ele>
<time>2015-11-22T14:15:01Z</time>
</trkpt>
<trkpt lat="30.7308046" lon="35.7232192">
<ele>1291.83</ele>
<time>2015-11-22T14:15:03Z</time>
</trkpt>
<trkpt lat="30.7307446" lon="35.7232357">
<ele>1291.50</ele>
<time>2015-11-22T14:15:05Z</time>
</trkpt>
<trkpt lat="30.7306871" lon="35.7232555">
<ele>1291.42</ele>
<time>2015-11-22T14:15:07Z</time>
</trkpt>
<trkpt lat="30.7306310" lon="35.7232737">
<ele>1291.40</ele>
<time>2015-11-22T14:15:09Z</time>
</trkpt>
<trkpt lat="30.7305737" lon="35.7232848">
<ele>1291.40</ele>
<time>2015-11-22T14:15:11Z</time>
</trkpt>
<trkpt lat="30.7305156" lon="35.7232975">
<ele>1292.14</ele>
<time>2015-11-22T14:15:13Z</time>
</trkpt>
<trkpt lat="30.7304588" lon="35.7233154">
<ele>1292.33</ele>
<time>2015-11-22T14:15:15Z</time>
</trkpt>
<trkpt lat="30.7304009" lon="35.7233275">
<ele>1292.38</ele>
<time>2015-11-22T14:15:17Z</time>
</trkpt>
<trkpt lat="30.7303426" lon="35.7233395">
<ele>1292.89</ele>
<time>2015-11-22T14:15:19Z</time>
</trkpt>
<trkpt lat="30.7302838" lon="35.7233526">
<ele>1293.27</ele>
<time>2015-11-22T14:15:21Z</time>
</trkpt>
<trkpt lat="30.7302255" lon="35.7233654">
<ele>1293.86</ele>
<time>2015-11-22T14:15:23Z</time>
</trkpt>
<trkpt lat="30.7301685" lon="35.7233799">
<ele>1294.26</ele>
<time>2015-11-22T14:15:25Z</time>
</trkpt>
<trkpt lat="30.7301136" lon="35.7233944">
<ele>1294.86</ele>
<time>2015-11-22T14:15:27Z</time>
</trkpt>
<trkpt lat="30.7300582" lon="35.7234110">
<ele>1295.26</ele>
<time>2015-11-22T14:15:29Z</time>
</trkpt>
<trkpt lat="30.7300030" lon="35.7234251">
<ele>1294.86</ele>
<time>2015-11-22T14:15:31Z</time>
</trkpt>
<trkpt lat="30.7299508" lon="35.7234446">
<ele>1295.26</ele>
<time>2015-11-22T14:15:33Z</time>
</trkpt>
<trkpt lat="30.7298988" lon="35.7234601">
<ele>1295.86</ele>
<time>2015-11-22T14:15:35Z</time>
</trkpt>
<trkpt lat="30.7298465" lon="35.7234727">
<ele>1297.01</ele>
<time>2015-11-22T14:15:37Z</time>
</trkpt>
<trkpt lat="30.7297967" lon="35.7234876">
<ele>1296.30</ele>
<time>2015-11-22T14:15:39Z</time>
</trkpt>
<trkpt lat="30.7297486" lon="35.7235069">
<ele>1296.37</ele>
<time>2015-11-22T14:15:41Z</time>
</trkpt>
<trkpt lat="30.7296967" lon="35.7235151">
<ele>1295.89</ele>
<time>2015-11-22T14:15:43Z</time>
</trkpt>
<trkpt lat="30.7296413" lon="35.7235209">
<ele>1295.52</ele>
<time>2015-11-22T14:15:45Z</time>
</trkpt>
<trkpt lat="30.7295854" lon="35.7235265">
<ele>1295.92</ele>
<time>2015-11-22T14:15:47Z</time>
</trkpt>
<trkpt lat="30.7295286" lon="35.7235250">
<ele>1296.28</ele>
<time>2015-11-22T14:15:49Z</time>
</trkpt>
<trkpt lat="30.7294744" lon="35.7235320">
<ele>1296.11</ele>
<time>2015-11-22T14:15:51Z</time>
</trkpt>
<trkpt lat="30.7294204" lon="35.7235346">
<ele>1296.82</ele>
<time>2015-11-22T14:15:53Z</time>
</trkpt>
<trkpt lat="30.7293658" lon="35.7235269">
<ele>1297.25</ele>
<time>2015-11-22T14:15:55Z</time>
</trkpt>
<trkpt lat="30.7293110" lon="35.7235158">
<ele>1297.86</ele>
<time>2015-11-22T14:15:57Z</time>
</trkpt>
<trkpt lat="30.7292560" lon="35.7235086">
<ele>1298.01</ele>
<time>2015-11-22T14:15:59Z</time>
</trkpt>
<trkpt lat="30.7292029" lon="35.7234993">
<ele>1299.05</ele>
<time>2015-11-22T14:16:01Z</time>
</trkpt>
<trkpt lat="30.7291497" lon="35.7234972">
<ele>1299.31</ele>
<time>2015-11-22T14:16:03Z</time>
</trkpt>
<trkpt lat="30.7290948" lon="35.7234904">
<ele>1300.12</ele>
<time>2015-11-22T14:16:05Z</time>
</trkpt>
<trkpt lat="30.7290377" lon="35.7234770">
<ele>1301.08</ele>
<time>2015-11-22T14:16:07Z</time>
</trkpt>
<trkpt lat="30.7289777" lon="35.7234660">
<ele>1301.31</ele>
<time>2015-11-22T14:16:09Z</time>
</trkpt>
<trkpt lat="30.7289178" lon="35.7234598">
<ele>1301.37</ele>
<time>2015-11-22T14:16:11Z</time>
</trkpt>
<trkpt lat="30.7288615" lon="35.7234553">
<ele>1300.64</ele>
<time>2015-11-22T14:16:13Z</time>
</trkpt>
<trkpt lat="30.7288065" lon="35.7234415">
<ele>1300.46</ele>
<time>2015-11-22T14:16:15Z</time>
</trkpt>
<trkpt lat="30.7287503" lon="35.7234283">
<ele>1299.66</ele>
<time>2015-11-22T14:16:17Z</time>
</trkpt>
<trkpt lat="30.7286896" lon="35.7234152">
<ele>1299.96</ele>
<time>2015-11-22T14:16:19Z</time>
</trkpt>
<trkpt lat="30.7286309" lon="35.7233996">
<ele>1299.79</ele>
<time>2015-11-22T14:16:21Z</time>
</trkpt>
<trkpt lat="30.7285727" lon="35.7233831">
<ele>1300.24</ele>
<time>2015-11-22T14:16:23Z</time>
</trkpt>
<trkpt lat="30.7285145" lon="35.7233693">
<ele>1300.36</ele>
<time>2015-11-22T14:16:25Z</time>
</trkpt>
<trkpt lat="30.7284620" lon="35.7233542">
<ele>1300.38</ele>
<time>2015-11-22T14:16:27Z</time>
</trkpt>
<trkpt lat="30.7284111" lon="35.7233437">
<ele>1300.39</ele>
<time>2015-11-22T14:16:29Z</time>
</trkpt>
<trkpt lat="30.7283645" lon="35.7233368">
<ele>1299.89</ele>
<time>2015-11-22T14:16:31Z</time>
</trkpt>
<trkpt lat="30.7283204" lon="35.7233237">
<ele>1300.27</ele>
<time>2015-11-22T14:16:33Z</time>
</trkpt>
<trkpt lat="30.7282715" lon="35.7233125">
<ele>1301.11</ele>
<time>2015-11-22T14:16:35Z</time>
</trkpt>
<trkpt lat="30.7282226" lon="35.7233003">
<ele>1301.32</ele>
<time>2015-11-22T14:16:37Z</time>
</trkpt>
<trkpt lat="30.7281760" lon="35.7232899">
<ele>1300.63</ele>
<time>2015-11-22T14:16:39Z</time>
</trkpt>
<trkpt lat="30.7281298" lon="35.7232852">
<ele>1299.70</ele>
<time>2015-11-22T14:16:41Z</time>
</trkpt>
<trkpt lat="30.7280836" lon="35.7232829">
<ele>1300.22</ele>
<time>2015-11-22T14:16:43Z</time>
</trkpt>
<trkpt lat="30.7280391" lon="35.7232741">
<ele>1300.85</ele>
<time>2015-11-22T14:16:45Z</time>
</trkpt>
<trkpt lat="30.7279824" lon="35.7232432">
<ele>1301.83</ele>
<time>2015-11-22T14:16:48Z</time>
</trkpt>
<trkpt lat="30.7279266" lon="35.7232295">
<ele>1302.20</ele>
<time>2015-11-22T14:16:51Z</time>
</trkpt>
<trkpt lat="30.7278867" lon="35.7232014">
<ele>1301.89</ele>
<time>2015-11-22T14:16:56Z</time>
</trkpt>
<trkpt lat="30.7278345" lon="35.7232052">
<ele>1301.39</ele>
<time>2015-11-22T14:34:29Z</time>
</trkpt>
<trkpt lat="30.7277731" lon="35.7231942">
<ele>1302.27</ele>
<time>2015-11-22T14:34:33Z</time>
</trkpt>
<trkpt lat="30.7277218" lon="35.7231797">
<ele>1302.38</ele>
<time>2015-11-22T14:34:36Z</time>
</trkpt>
<trkpt lat="30.7276683" lon="35.7231689">
<ele>1303.14</ele>
<time>2015-11-22T14:34:39Z</time>
</trkpt>
<trkpt lat="30.7276138" lon="35.7231503">
<ele>1302.61</ele>
<time>2015-11-22T14:34:42Z</time>
</trkpt>
<trkpt lat="30.7275644" lon="35.7231182">
<ele>1303.30</ele>
<time>2015-11-22T14:34:45Z</time>
</trkpt>
<trkpt lat="30.7275046" lon="35.7230779">
<ele>1302.63</ele>
<time>2015-11-22T14:34:48Z</time>
</trkpt>
<trkpt lat="30.7274593" lon="35.7230496">
<ele>1302.20</ele>
<time>2015-11-22T14:34:50Z</time>
</trkpt>
<trkpt lat="30.7274170" lon="35.7230195">
<ele>1302.35</ele>
<time>2015-11-22T14:34:52Z</time>
</trkpt>
<trkpt lat="30.7273772" lon="35.7229890">
<ele>1302.88</ele>
<time>2015-11-22T14:34:54Z</time>
</trkpt>
<trkpt lat="30.7273261" lon="35.7229449">
<ele>1302.45</ele>
<time>2015-11-22T14:34:57Z</time>
</trkpt>
<trkpt lat="30.7272806" lon="35.7229042">
<ele>1301.90</ele>
<time>2015-11-22T14:35:00Z</time>
</trkpt>
<trkpt lat="30.7272324" lon="35.7228610">
<ele>1302.33</ele>
<time>2015-11-22T14:35:03Z</time>
</trkpt>
<trkpt lat="30.7271892" lon="35.7228284">
<ele>1302.26</ele>
<time>2015-11-22T14:35:06Z</time>
</trkpt>
<trkpt lat="30.7271500" lon="35.7227976">
<ele>1302.88</ele>
<time>2015-11-22T14:35:09Z</time>
</trkpt>
<trkpt lat="30.7271072" lon="35.7227486">
<ele>1303.36</ele>
<time>2015-11-22T14:35:13Z</time>
</trkpt>
<trkpt lat="30.7270610" lon="35.7227109">
<ele>1302.89</ele>
<time>2015-11-22T14:35:16Z</time>
</trkpt>
<trkpt lat="30.7270228" lon="35.7226786">
<ele>1302.52</ele>
<time>2015-11-22T14:35:18Z</time>
</trkpt>
<trkpt lat="30.7269816" lon="35.7226437">
<ele>1302.43</ele>
<time>2015-11-22T14:35:20Z</time>
</trkpt>
<trkpt lat="30.7269437" lon="35.7226045">
<ele>1302.15</ele>
<time>2015-11-22T14:35:22Z</time>
</trkpt>
<trkpt lat="30.7269083" lon="35.7225619">
<ele>1301.58</ele>
<time>2015-11-22T14:35:24Z</time>
</trkpt>
<trkpt lat="30.7268719" lon="35.7225212">
<ele>1300.94</ele>
<time>2015-11-22T14:35:26Z</time>
</trkpt>
<trkpt lat="30.7268350" lon="35.7224813">
<ele>1300.53</ele>
<time>2015-11-22T14:35:28Z</time>
</trkpt>
<trkpt lat="30.7267982" lon="35.7224363">
<ele>1301.18</ele>
<time>2015-11-22T14:35:30Z</time>
</trkpt>
<trkpt lat="30.7267581" lon="35.7223884">
<ele>1301.34</ele>
<time>2015-11-22T14:35:32Z</time>
</trkpt>
<trkpt lat="30.7267156" lon="35.7223305">
<ele>1301.13</ele>
<time>2015-11-22T14:35:34Z</time>
</trkpt>
<trkpt lat="30.7266668" lon="35.7222643">
<ele>1301.33</ele>
<time>2015-11-22T14:35:36Z</time>
</trkpt>
<trkpt lat="30.7266171" lon="35.7221983">
<ele>1301.88</ele>
<time>2015-11-22T14:35:38Z</time>
</trkpt>
<trkpt lat="30.7265689" lon="35.7221362">
<ele>1302.26</ele>
<time>2015-11-22T14:35:40Z</time>
</trkpt>
<trkpt lat="30.7265249" lon="35.7220732">
<ele>1302.11</ele>
<time>2015-11-22T14:35:42Z</time>
</trkpt>
<trkpt lat="30.7264849" lon="35.7220126">
<ele>1301.82</ele>
<time>2015-11-22T14:35:44Z</time>
</trkpt>
<trkpt lat="30.7264472" lon="35.7219517">
<ele>1300.75</ele>
<time>2015-11-22T14:35:46Z</time>
</trkpt>
<trkpt lat="30.7264054" lon="35.7218904">
<ele>1300.48</ele>
<time>2015-11-22T14:35:48Z</time>
</trkpt>
<trkpt lat="30.7263577" lon="35.7218304">
<ele>1300.42</ele>
<time>2015-11-22T14:35:50Z</time>
</trkpt>
<trkpt lat="30.7263072" lon="35.7217694">
<ele>1301.65</ele>
<time>2015-11-22T14:35:52Z</time>
</trkpt>
<trkpt lat="30.7262532" lon="35.7217043">
<ele>1303.46</ele>
<time>2015-11-22T14:35:54Z</time>
</trkpt>
<trkpt lat="30.7261986" lon="35.7216367">
<ele>1303.66</ele>
<time>2015-11-22T14:35:56Z</time>
</trkpt>
<trkpt lat="30.7261428" lon="35.7215651">
<ele>1303.46</ele>
<time>2015-11-22T14:35:58Z</time>
</trkpt>
<trkpt lat="30.7260835" lon="35.7214912">
<ele>1302.66</ele>
<time>2015-11-22T14:36:00Z</time>
</trkpt>
<trkpt lat="30.7260228" lon="35.7214185">
<ele>1302.46</ele>
<time>2015-11-22T14:36:02Z</time>
</trkpt>
<trkpt lat="30.7259592" lon="35.7213521">
<ele>1302.91</ele>
<time>2015-11-22T14:36:04Z</time>
</trkpt>
<trkpt lat="30.7258961" lon="35.7212890">
<ele>1303.27</ele>
<time>2015-11-22T14:36:06Z</time>
</trkpt>
<trkpt lat="30.7258337" lon="35.7212313">
<ele>1304.11</ele>
<time>2015-11-22T14:36:08Z</time>
</trkpt>
<trkpt lat="30.7257686" lon="35.7211759">
<ele>1304.82</ele>
<time>2015-11-22T14:36:10Z</time>
</trkpt>
<trkpt lat="30.7257004" lon="35.7211253">
<ele>1305.25</ele>
<time>2015-11-22T14:36:12Z</time>
</trkpt>
<trkpt lat="30.7256305" lon="35.7210755">
<ele>1305.36</ele>
<time>2015-11-22T14:36:14Z</time>
</trkpt>
<trkpt lat="30.7255584" lon="35.7210271">
<ele>1306.14</ele>
<time>2015-11-22T14:36:16Z</time>
</trkpt>
<trkpt lat="30.7254848" lon="35.7209822">
<ele>1307.08</ele>
<time>2015-11-22T14:36:18Z</time>
</trkpt>
<trkpt lat="30.7254097" lon="35.7209457">
<ele>1306.57</ele>
<time>2015-11-22T14:36:20Z</time>
</trkpt>
<trkpt lat="30.7253370" lon="35.7209144">
<ele>1306.19</ele>
<time>2015-11-22T14:36:22Z</time>
</trkpt>
<trkpt lat="30.7252639" lon="35.7208893">
<ele>1306.34</ele>
<time>2015-11-22T14:36:24Z</time>
</trkpt>
<trkpt lat="30.7251908" lon="35.7208642">
<ele>1306.38</ele>
<time>2015-11-22T14:36:26Z</time>
</trkpt>
<trkpt lat="30.7251163" lon="35.7208414">
<ele>1307.14</ele>
<time>2015-11-22T14:36:28Z</time>
</trkpt>
<trkpt lat="30.7250406" lon="35.7208180">
<ele>1307.33</ele>
<time>2015-11-22T14:36:30Z</time>
</trkpt>
<trkpt lat="30.7249623" lon="35.7207982">
<ele>1307.13</ele>
<time>2015-11-22T14:36:32Z</time>
</trkpt>
<trkpt lat="30.7248819" lon="35.7207798">
<ele>1307.83</ele>
<time>2015-11-22T14:36:34Z</time>
</trkpt>
<trkpt lat="30.7248000" lon="35.7207620">
<ele>1307.50</ele>
<time>2015-11-22T14:36:36Z</time>
</trkpt>
<trkpt lat="30.7247171" lon="35.7207461">
<ele>1307.92</ele>
<time>2015-11-22T14:36:38Z</time>
</trkpt>
<trkpt lat="30.7246330" lon="35.7207283">
<ele>1308.78</ele>
<time>2015-11-22T14:36:40Z</time>
</trkpt>
<trkpt lat="30.7245500" lon="35.7207076">
<ele>1309.24</ele>
<time>2015-11-22T14:36:42Z</time>
</trkpt>
<trkpt lat="30.7244718" lon="35.7206888">
<ele>1309.36</ele>
<time>2015-11-22T14:36:44Z</time>
</trkpt>
<trkpt lat="30.7243959" lon="35.7206709">
<ele>1309.13</ele>
<time>2015-11-22T14:36:46Z</time>
</trkpt>
<trkpt lat="30.7243194" lon="35.7206462">
<ele>1309.33</ele>
<time>2015-11-22T14:36:48Z</time>
</trkpt>
<trkpt lat="30.7242434" lon="35.7206249">
<ele>1308.38</ele>
<time>2015-11-22T14:36:50Z</time>
</trkpt>
<trkpt lat="30.7241707" lon="35.7206016">
<ele>1308.89</ele>
<time>2015-11-22T14:36:52Z</time>
</trkpt>
<trkpt lat="30.7240954" lon="35.7205790">
<ele>1310.52</ele>
<time>2015-11-22T14:36:54Z</time>
</trkpt>
<trkpt lat="30.7240168" lon="35.7205598">
<ele>1310.43</ele>
<time>2015-11-22T14:36:56Z</time>
</trkpt>
<trkpt lat="30.7239358" lon="35.7205408">
<ele>1310.90</ele>
<time>2015-11-22T14:36:58Z</time>
</trkpt>
<trkpt lat="30.7238542" lon="35.7205186">
<ele>1311.02</ele>
<time>2015-11-22T14:37:00Z</time>
</trkpt>
<trkpt lat="30.7237713" lon="35.7204982">
<ele>1312.05</ele>
<time>2015-11-22T14:37:02Z</time>
</trkpt>
<trkpt lat="30.7236891" lon="35.7204800">
<ele>1313.06</ele>
<time>2015-11-22T14:37:04Z</time>
</trkpt>
<trkpt lat="30.7236049" lon="35.7204621">
<ele>1313.81</ele>
<time>2015-11-22T14:37:06Z</time>
</trkpt>
<trkpt lat="30.7235470" lon="35.7204469">
<ele>1314.10</ele>
<time>2015-11-22T14:37:07Z</time>
</trkpt>
<trkpt lat="30.7234993" lon="35.7204338">
<ele>1314.25</ele>
<time>2015-11-22T14:37:08Z</time>
</trkpt>
<trkpt lat="30.7234486" lon="35.7204188">
<ele>1314.32</ele>
<time>2015-11-22T14:37:09Z</time>
</trkpt>
<trkpt lat="30.7233699" lon="35.7203946">
<ele>1314.88</ele>
<time>2015-11-22T14:37:11Z</time>
</trkpt>
<trkpt lat="30.7232816" lon="35.7203726">
<ele>1315.01</ele>
<time>2015-11-22T14:37:13Z</time>
</trkpt>
<trkpt lat="30.7232362" lon="35.7203631">
<ele>1315.20</ele>
<time>2015-11-22T14:37:14Z</time>
</trkpt>
<trkpt lat="30.7231898" lon="35.7203536">
<ele>1315.30</ele>
<time>2015-11-22T14:37:15Z</time>
</trkpt>
<trkpt lat="30.7231073" lon="35.7203448">
<ele>1315.37</ele>
<time>2015-11-22T14:37:17Z</time>
</trkpt>
<trkpt lat="30.7230243" lon="35.7203245">
<ele>1315.39</ele>
<time>2015-11-22T14:37:19Z</time>
</trkpt>
<trkpt lat="30.7229335" lon="35.7203001">
<ele>1314.89</ele>
<time>2015-11-22T14:37:21Z</time>
</trkpt>
<trkpt lat="30.7228493" lon="35.7202780">
<ele>1314.52</ele>
<time>2015-11-22T14:37:23Z</time>
</trkpt>
<trkpt lat="30.7227728" lon="35.7202489">
<ele>1314.93</ele>
<time>2015-11-22T14:37:25Z</time>
</trkpt>
<trkpt lat="30.7226952" lon="35.7202132">
<ele>1315.28</ele>
<time>2015-11-22T14:37:27Z</time>
</trkpt>
<trkpt lat="30.7226161" lon="35.7201736">
<ele>1315.36</ele>
<time>2015-11-22T14:37:29Z</time>
</trkpt>
<trkpt lat="30.7225660" lon="35.7201387">
<ele>1315.38</ele>
<time>2015-11-22T14:37:30Z</time>
</trkpt>
<trkpt lat="30.7224894" lon="35.7201018">
<ele>1314.89</ele>
<time>2015-11-22T14:37:32Z</time>
</trkpt>
<trkpt lat="30.7224120" lon="35.7200571">
<ele>1314.52</ele>
<time>2015-11-22T14:37:34Z</time>
</trkpt>
<trkpt lat="30.7223379" lon="35.7200146">
<ele>1314.93</ele>
<time>2015-11-22T14:37:36Z</time>
</trkpt>
<trkpt lat="30.7222697" lon="35.7199746">
<ele>1315.28</ele>
<time>2015-11-22T14:37:38Z</time>
</trkpt>
<trkpt lat="30.7222010" lon="35.7199319">
<ele>1315.11</ele>
<time>2015-11-22T14:37:40Z</time>
</trkpt>
<trkpt lat="30.7221272" lon="35.7198860">
<ele>1314.57</ele>
<time>2015-11-22T14:37:42Z</time>
</trkpt>
<trkpt lat="30.7220484" lon="35.7198424">
<ele>1314.44</ele>
<time>2015-11-22T14:37:44Z</time>
</trkpt>
<trkpt lat="30.7219673" lon="35.7197878">
<ele>1314.41</ele>
<time>2015-11-22T14:37:46Z</time>
</trkpt>
<trkpt lat="30.7218884" lon="35.7197604">
<ele>1314.40</ele>
<time>2015-11-22T14:37:48Z</time>
</trkpt>
<trkpt lat="30.7218022" lon="35.7197192">
<ele>1314.39</ele>
<time>2015-11-22T14:37:50Z</time>
</trkpt>
<trkpt lat="30.7217576" lon="35.7196945">
<ele>1314.39</ele>
<time>2015-11-22T14:37:51Z</time>
</trkpt>
<trkpt lat="30.7217108" lon="35.7196687">
<ele>1314.89</ele>
<time>2015-11-22T14:37:52Z</time>
</trkpt>
<trkpt lat="30.7216230" lon="35.7196263">
<ele>1315.77</ele>
<time>2015-11-22T14:37:54Z</time>
</trkpt>
<trkpt lat="30.7215326" lon="35.7195876">
<ele>1315.74</ele>
<time>2015-11-22T14:37:56Z</time>
</trkpt>
<trkpt lat="30.7214512" lon="35.7195700">
<ele>1316.73</ele>
<time>2015-11-22T14:37:58Z</time>
</trkpt>
<trkpt lat="30.7214038" lon="35.7195533">
<ele>1317.06</ele>
<time>2015-11-22T14:37:59Z</time>
</trkpt>
<trkpt lat="30.7213564" lon="35.7195473">
<ele>1317.23</ele>
<time>2015-11-22T14:38:00Z</time>
</trkpt>
<trkpt lat="30.7212743" lon="35.7195272">
<ele>1317.10</ele>
<time>2015-11-22T14:38:02Z</time>
</trkpt>
<trkpt lat="30.7211893" lon="35.7195086">
<ele>1317.32</ele>
<time>2015-11-22T14:38:04Z</time>
</trkpt>
<trkpt lat="30.7211099" lon="35.7194806">
<ele>1317.38</ele>
<time>2015-11-22T14:38:06Z</time>
</trkpt>
<trkpt lat="30.7210245" lon="35.7194499">
<ele>1317.39</ele>
<time>2015-11-22T14:38:08Z</time>
</trkpt>
<trkpt lat="30.7209397" lon="35.7194351">
<ele>1317.39</ele>
<time>2015-11-22T14:38:10Z</time>
</trkpt>
<trkpt lat="30.7208789" lon="35.7194311">
<ele>1316.89</ele>
<time>2015-11-22T14:38:12Z</time>
</trkpt>
<trkpt lat="30.7208043" lon="35.7194091">
<ele>1316.02</ele>
<time>2015-11-22T14:38:14Z</time>
</trkpt>
<trkpt lat="30.7207246" lon="35.7193894">
<ele>1315.55</ele>
<time>2015-11-22T14:38:16Z</time>
</trkpt>
<trkpt lat="30.7206423" lon="35.7193702">
<ele>1315.93</ele>
<time>2015-11-22T14:38:18Z</time>
</trkpt>
<trkpt lat="30.7205595" lon="35.7193508">
<ele>1315.53</ele>
<time>2015-11-22T14:38:20Z</time>
</trkpt>
<trkpt lat="30.7204750" lon="35.7193304">
<ele>1316.68</ele>
<time>2015-11-22T14:38:22Z</time>
</trkpt>
<trkpt lat="30.7203916" lon="35.7193066">
<ele>1317.71</ele>
<time>2015-11-22T14:38:24Z</time>
</trkpt>
<trkpt lat="30.7203089" lon="35.7192893">
<ele>1317.72</ele>
<time>2015-11-22T14:38:26Z</time>
</trkpt>
<trkpt lat="30.7202274" lon="35.7192726">
<ele>1318.23</ele>
<time>2015-11-22T14:38:28Z</time>
</trkpt>
<trkpt lat="30.7201532" lon="35.7192535">
<ele>1318.35</ele>
<time>2015-11-22T14:38:30Z</time>
</trkpt>
<trkpt lat="30.7200798" lon="35.7192318">
<ele>1318.38</ele>
<time>2015-11-22T14:38:32Z</time>
</trkpt>
<trkpt lat="30.7200071" lon="35.7192095">
<ele>1319.14</ele>
<time>2015-11-22T14:38:34Z</time>
</trkpt>
<trkpt lat="30.7199379" lon="35.7191887">
<ele>1319.33</ele>
<time>2015-11-22T14:38:36Z</time>
</trkpt>
<trkpt lat="30.7198699" lon="35.7191661">
<ele>1319.38</ele>
<time>2015-11-22T14:38:38Z</time>
</trkpt>
<trkpt lat="30.7198034" lon="35.7191460">
<ele>1319.89</ele>
<time>2015-11-22T14:38:40Z</time>
</trkpt>
<trkpt lat="30.7197345" lon="35.7191243">
<ele>1319.52</ele>
<time>2015-11-22T14:38:42Z</time>
</trkpt>
<trkpt lat="30.7196640" lon="35.7191016">
<ele>1319.93</ele>
<time>2015-11-22T14:38:44Z</time>
</trkpt>
<trkpt lat="30.7195938" lon="35.7190760">
<ele>1320.78</ele>
<time>2015-11-22T14:38:46Z</time>
</trkpt>
<trkpt lat="30.7195265" lon="35.7190407">
<ele>1321.24</ele>
<time>2015-11-22T14:38:48Z</time>
</trkpt>
<trkpt lat="30.7194609" lon="35.7189968">
<ele>1321.86</ele>
<time>2015-11-22T14:38:50Z</time>
</trkpt>
<trkpt lat="30.7193972" lon="35.7189528">
<ele>1322.26</ele>
<time>2015-11-22T14:38:52Z</time>
</trkpt>
<trkpt lat="30.7193363" lon="35.7189059">
<ele>1322.36</ele>
<time>2015-11-22T14:38:54Z</time>
</trkpt>
<trkpt lat="30.7192744" lon="35.7188602">
<ele>1322.39</ele>
<time>2015-11-22T14:38:56Z</time>
</trkpt>
<trkpt lat="30.7192090" lon="35.7188164">
<ele>1323.14</ele>
<time>2015-11-22T14:38:58Z</time>
</trkpt>
<trkpt lat="30.7191458" lon="35.7187715">
<ele>1322.83</ele>
<time>2015-11-22T14:39:00Z</time>
</trkpt>
<trkpt lat="30.7190798" lon="35.7187284">
<ele>1322.75</ele>
<time>2015-11-22T14:39:02Z</time>
</trkpt>
<trkpt lat="30.7190128" lon="35.7186862">
<ele>1323.23</ele>
<time>2015-11-22T14:39:04Z</time>
</trkpt>
<trkpt lat="30.7189413" lon="35.7186428">
<ele>1323.85</ele>
<time>2015-11-22T14:39:06Z</time>
</trkpt>
<trkpt lat="30.7188725" lon="35.7185999">
<ele>1324.01</ele>
<time>2015-11-22T14:39:08Z</time>
</trkpt>
<trkpt lat="30.7188052" lon="35.7185608">
<ele>1322.80</ele>
<time>2015-11-22T14:39:10Z</time>
</trkpt>
<trkpt lat="30.7187372" lon="35.7185198">
<ele>1323.24</ele>
<time>2015-11-22T14:39:12Z</time>
</trkpt>
<trkpt lat="30.7186686" lon="35.7184776">
<ele>1323.86</ele>
<time>2015-11-22T14:39:14Z</time>
</trkpt>
<trkpt lat="30.7186010" lon="35.7184392">
<ele>1324.26</ele>
<time>2015-11-22T14:39:16Z</time>
</trkpt>
<trkpt lat="30.7185331" lon="35.7184004">
<ele>1325.11</ele>
<time>2015-11-22T14:39:18Z</time>
</trkpt>
<trkpt lat="30.7184703" lon="35.7183660">
<ele>1325.32</ele>
<time>2015-11-22T14:39:20Z</time>
</trkpt>
<trkpt lat="30.7184165" lon="35.7183329">
<ele>1326.63</ele>
<time>2015-11-22T14:39:22Z</time>
</trkpt>
<trkpt lat="30.7183679" lon="35.7182929">
<ele>1327.80</ele>
<time>2015-11-22T14:39:25Z</time>
</trkpt>
<trkpt lat="30.7183311" lon="35.7182586">
<ele>1327.57</ele>
<time>2015-11-22T14:39:28Z</time>
</trkpt>
<trkpt lat="30.7182829" lon="35.7182292">
<ele>1327.92</ele>
<time>2015-11-22T14:39:31Z</time>
</trkpt>
<trkpt lat="30.7182309" lon="35.7181937">
<ele>1326.58</ele>
<time>2015-11-22T14:39:34Z</time>
</trkpt>
<trkpt lat="30.7181762" lon="35.7181489">
<ele>1326.04</ele>
<time>2015-11-22T14:39:37Z</time>
</trkpt>
<trkpt lat="30.7181327" lon="35.7181164">
<ele>1325.56</ele>
<time>2015-11-22T14:39:39Z</time>
</trkpt>
<trkpt lat="30.7180806" lon="35.7180793">
<ele>1325.68</ele>
<time>2015-11-22T14:39:41Z</time>
</trkpt>
<trkpt lat="30.7180214" lon="35.7180350">
<ele>1324.97</ele>
<time>2015-11-22T14:39:43Z</time>
</trkpt>
<trkpt lat="30.7179598" lon="35.7179901">
<ele>1325.04</ele>
<time>2015-11-22T14:39:45Z</time>
</trkpt>
<trkpt lat="30.7178957" lon="35.7179425">
<ele>1325.80</ele>
<time>2015-11-22T14:39:47Z</time>
</trkpt>
<trkpt lat="30.7178293" lon="35.7178962">
<ele>1327.00</ele>
<time>2015-11-22T14:39:49Z</time>
</trkpt>
<trkpt lat="30.7177594" lon="35.7178536">
<ele>1326.79</ele>
<time>2015-11-22T14:39:51Z</time>
</trkpt>
<trkpt lat="30.7176876" lon="35.7178081">
<ele>1327.24</ele>
<time>2015-11-22T14:39:53Z</time>
</trkpt>
<trkpt lat="30.7176156" lon="35.7177578">
<ele>1326.86</ele>
<time>2015-11-22T14:39:55Z</time>
</trkpt>
<trkpt lat="30.7175484" lon="35.7177034">
<ele>1327.01</ele>
<time>2015-11-22T14:39:57Z</time>
</trkpt>
<trkpt lat="30.7174845" lon="35.7176483">
<ele>1327.05</ele>
<time>2015-11-22T14:39:59Z</time>
</trkpt>
<trkpt lat="30.7174211" lon="35.7175875">
<ele>1327.31</ele>
<time>2015-11-22T14:40:01Z</time>
</trkpt>
<trkpt lat="30.7173581" lon="35.7175251">
<ele>1327.37</ele>
<time>2015-11-22T14:40:03Z</time>
</trkpt>
<trkpt lat="30.7172999" lon="35.7174608">
<ele>1327.39</ele>
<time>2015-11-22T14:40:05Z</time>
</trkpt>
<trkpt lat="30.7172457" lon="35.7173962">
<ele>1327.39</ele>
<time>2015-11-22T14:40:07Z</time>
</trkpt>
<trkpt lat="30.7171933" lon="35.7173349">
<ele>1327.89</ele>
<time>2015-11-22T14:40:09Z</time>
</trkpt>
<trkpt lat="30.7171462" lon="35.7172786">
<ele>1328.02</ele>
<time>2015-11-22T14:40:11Z</time>
</trkpt>
<trkpt lat="30.7171005" lon="35.7172271">
<ele>1328.05</ele>
<time>2015-11-22T14:40:13Z</time>
</trkpt>
<trkpt lat="30.7170593" lon="35.7171782">
<ele>1327.81</ele>
<time>2015-11-22T14:40:15Z</time>
</trkpt>
<trkpt lat="30.7170205" lon="35.7171276">
<ele>1328.25</ele>
<time>2015-11-22T14:40:17Z</time>
</trkpt>
<trkpt lat="30.7169822" lon="35.7170841">
<ele>1328.36</ele>
<time>2015-11-22T14:40:19Z</time>
</trkpt>
<trkpt lat="30.7169444" lon="35.7170418">
<ele>1328.38</ele>
<time>2015-11-22T14:40:21Z</time>
</trkpt>
<trkpt lat="30.7169051" lon="35.7170010">
<ele>1328.39</ele>
<time>2015-11-22T14:40:23Z</time>
</trkpt>
<trkpt lat="30.7168663" lon="35.7169589">
<ele>1328.39</ele>
<time>2015-11-22T14:40:25Z</time>
</trkpt>
<trkpt lat="30.7168293" lon="35.7169143">
<ele>1327.89</ele>
<time>2015-11-22T14:40:27Z</time>
</trkpt>
<trkpt lat="30.7167933" lon="35.7168635">
<ele>1327.77</ele>
<time>2015-11-22T14:40:29Z</time>
</trkpt>
<trkpt lat="30.7167573" lon="35.7168082">
<ele>1326.74</ele>
<time>2015-11-22T14:40:31Z</time>
</trkpt>
<trkpt lat="30.7167143" lon="35.7167568">
<ele>1326.98</ele>
<time>2015-11-22T14:40:33Z</time>
</trkpt>
<trkpt lat="30.7166718" lon="35.7167068">
<ele>1327.29</ele>
<time>2015-11-22T14:40:35Z</time>
</trkpt>
<trkpt lat="30.7166313" lon="35.7166572">
<ele>1328.12</ele>
<time>2015-11-22T14:40:37Z</time>
</trkpt>
<trkpt lat="30.7165911" lon="35.7166117">
<ele>1329.08</ele>
<time>2015-11-22T14:40:39Z</time>
</trkpt>
<trkpt lat="30.7165514" lon="35.7165650">
<ele>1329.31</ele>
<time>2015-11-22T14:40:41Z</time>
</trkpt>
<trkpt lat="30.7165127" lon="35.7165205">
<ele>1328.62</ele>
<time>2015-11-22T14:40:43Z</time>
</trkpt>
<trkpt lat="30.7164761" lon="35.7164740">
<ele>1328.95</ele>
<time>2015-11-22T14:40:45Z</time>
</trkpt>
<trkpt lat="30.7164361" lon="35.7164304">
<ele>1329.78</ele>
<time>2015-11-22T14:40:47Z</time>
</trkpt>
<trkpt lat="30.7163986" lon="35.7163856">
<ele>1330.24</ele>
<time>2015-11-22T14:40:49Z</time>
</trkpt>
<trkpt lat="30.7163617" lon="35.7163380">
<ele>1330.86</ele>
<time>2015-11-22T14:40:51Z</time>
</trkpt>
<trkpt lat="30.7163246" lon="35.7162921">
<ele>1332.51</ele>
<time>2015-11-22T14:40:53Z</time>
</trkpt>
<trkpt lat="30.7162910" lon="35.7162471">
<ele>1333.17</ele>
<time>2015-11-22T14:40:55Z</time>
</trkpt>
<trkpt lat="30.7162585" lon="35.7162018">
<ele>1334.09</ele>
<time>2015-11-22T14:40:57Z</time>
</trkpt>
<trkpt lat="30.7162246" lon="35.7161576">
<ele>1334.32</ele>
<time>2015-11-22T14:40:59Z</time>
</trkpt>
<trkpt lat="30.7161914" lon="35.7161143">
<ele>1335.12</ele>
<time>2015-11-22T14:41:01Z</time>
</trkpt>
<trkpt lat="30.7161580" lon="35.7160707">
<ele>1336.58</ele>
<time>2015-11-22T14:41:03Z</time>
</trkpt>
<trkpt lat="30.7161264" lon="35.7160273">
<ele>1336.69</ele>
<time>2015-11-22T14:41:05Z</time>
</trkpt>
<trkpt lat="30.7160943" lon="35.7159838">
<ele>1335.97</ele>
<time>2015-11-22T14:41:07Z</time>
</trkpt>
<trkpt lat="30.7160611" lon="35.7159450">
<ele>1335.54</ele>
<time>2015-11-22T14:41:09Z</time>
</trkpt>
<trkpt lat="30.7160285" lon="35.7159018">
<ele>1336.16</ele>
<time>2015-11-22T14:41:12Z</time>
</trkpt>
<trkpt lat="30.7159895" lon="35.7158508">
<ele>1336.88</ele>
<time>2015-11-22T14:41:16Z</time>
</trkpt>
<trkpt lat="30.7159562" lon="35.7158116">
<ele>1338.08</ele>
<time>2015-11-22T14:41:19Z</time>
</trkpt>
<trkpt lat="30.7159226" lon="35.7157689">
<ele>1338.85</ele>
<time>2015-11-22T14:41:22Z</time>
</trkpt>
<trkpt lat="30.7158864" lon="35.7157282">
<ele>1339.33</ele>
<time>2015-11-22T14:41:25Z</time>
</trkpt>
<trkpt lat="30.7158504" lon="35.7156884">
<ele>1339.89</ele>
<time>2015-11-22T14:41:28Z</time>
</trkpt>
<trkpt lat="30.7158192" lon="35.7156418">
<ele>1340.08</ele>
<time>2015-11-22T14:41:31Z</time>
</trkpt>
<trkpt lat="30.7157794" lon="35.7156023">
<ele>1341.10</ele>
<time>2015-11-22T14:41:34Z</time>
</trkpt>
<trkpt lat="30.7157429" lon="35.7155639">
<ele>1342.73</ele>
<time>2015-11-22T14:41:37Z</time>
</trkpt>
<trkpt lat="30.7157099" lon="35.7155227">
<ele>1343.31</ele>
<time>2015-11-22T14:41:40Z</time>
</trkpt>
<trkpt lat="30.7156790" lon="35.7154815">
<ele>1343.38</ele>
<time>2015-11-22T14:41:43Z</time>
</trkpt>
<trkpt lat="30.7156458" lon="35.7154370">
<ele>1344.27</ele>
<time>2015-11-22T14:41:46Z</time>
</trkpt>
<trkpt lat="30.7156099" lon="35.7153973">
<ele>1346.00</ele>
<time>2015-11-22T14:41:49Z</time>
</trkpt>
<trkpt lat="30.7155754" lon="35.7153600">
<ele>1347.72</ele>
<time>2015-11-22T14:41:52Z</time>
</trkpt>
<trkpt lat="30.7155484" lon="35.7153177">
<ele>1346.68</ele>
<time>2015-11-22T14:41:55Z</time>
</trkpt>
<trkpt lat="30.7155063" lon="35.7152668">
<ele>1347.85</ele>
<time>2015-11-22T14:41:59Z</time>
</trkpt>
<trkpt lat="30.7154670" lon="35.7152223">
<ele>1348.17</ele>
<time>2015-11-22T14:42:03Z</time>
</trkpt>
<trkpt lat="30.7154242" lon="35.7151786">
<ele>1349.76</ele>
<time>2015-11-22T14:42:07Z</time>
</trkpt>
<trkpt lat="30.7153911" lon="35.7151230">
<ele>1351.23</ele>
<time>2015-11-22T14:42:11Z</time>
</trkpt>
<trkpt lat="30.7153640" lon="35.7150692">
<ele>1350.82</ele>
<time>2015-11-22T14:42:15Z</time>
</trkpt>
<trkpt lat="30.7153307" lon="35.7150187">
<ele>1351.80</ele>
<time>2015-11-22T14:42:19Z</time>
</trkpt>
<trkpt lat="30.7152915" lon="35.7149777">
<ele>1353.29</ele>
<time>2015-11-22T14:42:23Z</time>
</trkpt>
<trkpt lat="30.7152574" lon="35.7149312">
<ele>1354.01</ele>
<time>2015-11-22T14:42:27Z</time>
</trkpt>
<trkpt lat="30.7152204" lon="35.7148836">
<ele>1353.43</ele>
<time>2015-11-22T14:42:31Z</time>
</trkpt>
<trkpt lat="30.7151786" lon="35.7148394">
<ele>1354.77</ele>
<time>2015-11-22T14:42:35Z</time>
</trkpt>
<trkpt lat="30.7151398" lon="35.7147901">
<ele>1355.61</ele>
<time>2015-11-22T14:42:39Z</time>
</trkpt>
<trkpt lat="30.7151007" lon="35.7147407">
<ele>1357.09</ele>
<time>2015-11-22T14:42:43Z</time>
</trkpt>
<trkpt lat="30.7150628" lon="35.7146953">
<ele>1359.69</ele>
<time>2015-11-22T14:42:47Z</time>
</trkpt>
<trkpt lat="30.7150343" lon="35.7146520">
<ele>1359.85</ele>
<time>2015-11-22T14:42:51Z</time>
</trkpt>
<trkpt lat="30.7150021" lon="35.7146132">
<ele>1361.23</ele>
<time>2015-11-22T14:42:55Z</time>
</trkpt>
<trkpt lat="30.7149588" lon="35.7145825">
<ele>1362.75</ele>
<time>2015-11-22T14:43:04Z</time>
</trkpt>
<trkpt lat="30.7149276" lon="35.7145435">
<ele>1363.35</ele>
<time>2015-11-22T14:43:08Z</time>
</trkpt>
<trkpt lat="30.7148947" lon="35.7145018">
<ele>1362.64</ele>
<time>2015-11-22T14:43:13Z</time>
</trkpt>
<trkpt lat="30.7148575" lon="35.7144631">
<ele>1362.63</ele>
<time>2015-11-22T14:43:19Z</time>
</trkpt>
<trkpt lat="30.7148228" lon="35.7144173">
<ele>1363.75</ele>
<time>2015-11-22T14:43:24Z</time>
</trkpt>
<trkpt lat="30.7147928" lon="35.7143655">
<ele>1363.84</ele>
<time>2015-11-22T14:43:29Z</time>
</trkpt>
<trkpt lat="30.7147665" lon="35.7143228">
<ele>1361.45</ele>
<time>2015-11-22T14:43:35Z</time>
</trkpt>
<trkpt lat="30.7147376" lon="35.7142783">
<ele>1362.36</ele>
<time>2015-11-22T14:43:41Z</time>
</trkpt>
<trkpt lat="30.7147129" lon="35.7142342">
<ele>1360.67</ele>
<time>2015-11-22T14:43:46Z</time>
</trkpt>
<trkpt lat="30.7146810" lon="35.7141906">
<ele>1360.45</ele>
<time>2015-11-22T14:43:52Z</time>
</trkpt>
<trkpt lat="30.7146475" lon="35.7141495">
<ele>1361.72</ele>
<time>2015-11-22T14:43:58Z</time>
</trkpt>
<trkpt lat="30.7146174" lon="35.7141032">
<ele>1363.26</ele>
<time>2015-11-22T14:44:04Z</time>
</trkpt>
<trkpt lat="30.7145849" lon="35.7140549">
<ele>1364.70</ele>
<time>2015-11-22T14:44:09Z</time>
</trkpt>
<trkpt lat="30.7145482" lon="35.7140104">
<ele>1366.03</ele>
<time>2015-11-22T14:44:14Z</time>
</trkpt>
<trkpt lat="30.7145091" lon="35.7139709">
<ele>1368.16</ele>
<time>2015-11-22T14:44:19Z</time>
</trkpt>
<trkpt lat="30.7144680" lon="35.7139327">
<ele>1369.11</ele>
<time>2015-11-22T14:44:25Z</time>
</trkpt>
<trkpt lat="30.7144334" lon="35.7138914">
<ele>1370.89</ele>
<time>2015-11-22T14:44:31Z</time>
</trkpt>
<trkpt lat="30.7143944" lon="35.7138543">
<ele>1371.28</ele>
<time>2015-11-22T14:44:36Z</time>
</trkpt>
<trkpt lat="30.7143535" lon="35.7138156">
<ele>1372.58</ele>
<time>2015-11-22T14:44:41Z</time>
</trkpt>
<trkpt lat="30.7143162" lon="35.7137826">
<ele>1372.81</ele>
<time>2015-11-22T14:44:46Z</time>
</trkpt>
<trkpt lat="30.7142753" lon="35.7137482">
<ele>1373.28</ele>
<time>2015-11-22T14:44:51Z</time>
</trkpt>
<trkpt lat="30.7142392" lon="35.7137134">
<ele>1374.86</ele>
<time>2015-11-22T14:44:56Z</time>
</trkpt>
<trkpt lat="30.7142017" lon="35.7136741">
<ele>1375.28</ele>
<time>2015-11-22T14:45:01Z</time>
</trkpt>
<trkpt lat="30.7141669" lon="35.7136389">
<ele>1376.95</ele>
<time>2015-11-22T14:45:06Z</time>
</trkpt>
<trkpt lat="30.7141302" lon="35.7136044">
<ele>1377.86</ele>
<time>2015-11-22T14:45:12Z</time>
</trkpt>
<trkpt lat="30.7140909" lon="35.7135745">
<ele>1377.95</ele>
<time>2015-11-22T14:45:19Z</time>
</trkpt>
<trkpt lat="30.7140483" lon="35.7135464">
<ele>1377.02</ele>
<time>2015-11-22T14:45:26Z</time>
</trkpt>
<trkpt lat="30.7140039" lon="35.7135276">
<ele>1376.65</ele>
<time>2015-11-22T14:45:32Z</time>
</trkpt>
<trkpt lat="30.7139606" lon="35.7135052">
<ele>1377.54</ele>
<time>2015-11-22T14:45:38Z</time>
</trkpt>
<trkpt lat="30.7139141" lon="35.7134758">
<ele>1377.46</ele>
<time>2015-11-22T14:45:44Z</time>
</trkpt>
<trkpt lat="30.7138691" lon="35.7134513">
<ele>1376.03</ele>
<time>2015-11-22T14:45:51Z</time>
</trkpt>
<trkpt lat="30.7138225" lon="35.7134246">
<ele>1377.14</ele>
<time>2015-11-22T14:45:57Z</time>
</trkpt>
<trkpt lat="30.7137762" lon="35.7133996">
<ele>1378.85</ele>
<time>2015-11-22T14:46:02Z</time>
</trkpt>
<trkpt lat="30.7137321" lon="35.7133730">
<ele>1379.38</ele>
<time>2015-11-22T14:46:07Z</time>
</trkpt>
<trkpt lat="30.7136896" lon="35.7133519">
<ele>1380.14</ele>
<time>2015-11-22T14:46:12Z</time>
</trkpt>
<trkpt lat="30.7136471" lon="35.7133346">
<ele>1381.35</ele>
<time>2015-11-22T14:46:17Z</time>
</trkpt>
<trkpt lat="30.7136039" lon="35.7133122">
<ele>1382.61</ele>
<time>2015-11-22T14:46:22Z</time>
</trkpt>
<trkpt lat="30.7135566" lon="35.7132859">
<ele>1384.44</ele>
<time>2015-11-22T14:46:28Z</time>
</trkpt>
<trkpt lat="30.7135151" lon="35.7132655">
<ele>1384.86</ele>
<time>2015-11-22T14:46:33Z</time>
</trkpt>
<trkpt lat="30.7134722" lon="35.7132489">
<ele>1384.90</ele>
<time>2015-11-22T14:46:39Z</time>
</trkpt>
<trkpt lat="30.7134245" lon="35.7132234">
<ele>1385.39</ele>
<time>2015-11-22T14:46:45Z</time>
</trkpt>
<trkpt lat="30.7133790" lon="35.7132015">
<ele>1384.64</ele>
<time>2015-11-22T14:46:51Z</time>
</trkpt>
<trkpt lat="30.7133364" lon="35.7131736">
<ele>1384.40</ele>
<time>2015-11-22T14:46:57Z</time>
</trkpt>
<trkpt lat="30.7132934" lon="35.7131472">
<ele>1386.24</ele>
<time>2015-11-22T14:47:02Z</time>
</trkpt>
<trkpt lat="30.7132510" lon="35.7131252">
<ele>1386.39</ele>
<time>2015-11-22T14:47:07Z</time>
</trkpt>
<trkpt lat="30.7132040" lon="35.7130952">
<ele>1387.38</ele>
<time>2015-11-22T14:47:13Z</time>
</trkpt>
<trkpt lat="30.7131604" lon="35.7130621">
<ele>1387.39</ele>
<time>2015-11-22T14:47:19Z</time>
</trkpt>
<trkpt lat="30.7131213" lon="35.7130307">
<ele>1387.46</ele>
<time>2015-11-22T14:47:24Z</time>
</trkpt>
<trkpt lat="30.7130822" lon="35.7129966">
<ele>1388.27</ele>
<time>2015-11-22T14:47:29Z</time>
</trkpt>
<trkpt lat="30.7130412" lon="35.7129675">
<ele>1389.14</ele>
<time>2015-11-22T14:47:34Z</time>
</trkpt>
<trkpt lat="30.7129992" lon="35.7129351">
<ele>1389.39</ele>
<time>2015-11-22T14:47:39Z</time>
</trkpt>
<trkpt lat="30.7129598" lon="35.7128964">
<ele>1388.43</ele>
<time>2015-11-22T14:47:44Z</time>
</trkpt>
<trkpt lat="30.7129257" lon="35.7128562">
<ele>1387.93</ele>
<time>2015-11-22T14:47:49Z</time>
</trkpt>
<trkpt lat="30.7128879" lon="35.7128036">
<ele>1388.38</ele>
<time>2015-11-22T14:47:55Z</time>
</trkpt>
<trkpt lat="30.7128583" lon="35.7127556">
<ele>1388.39</ele>
<time>2015-11-22T14:48:00Z</time>
</trkpt>
<trkpt lat="30.7128280" lon="35.7127111">
<ele>1389.27</ele>
<time>2015-11-22T14:48:05Z</time>
</trkpt>
<trkpt lat="30.7127947" lon="35.7126622">
<ele>1389.89</ele>
<time>2015-11-22T14:48:11Z</time>
</trkpt>
<trkpt lat="30.7127649" lon="35.7126134">
<ele>1390.38</ele>
<time>2015-11-22T14:48:16Z</time>
</trkpt>
<trkpt lat="30.7127361" lon="35.7125656">
<ele>1391.08</ele>
<time>2015-11-22T14:48:21Z</time>
</trkpt>
<trkpt lat="30.7127118" lon="35.7125173">
<ele>1392.13</ele>
<time>2015-11-22T14:48:26Z</time>
</trkpt>
<trkpt lat="30.7126882" lon="35.7124666">
<ele>1393.35</ele>
<time>2015-11-22T14:48:31Z</time>
</trkpt>
<trkpt lat="30.7126595" lon="35.7124182">
<ele>1394.21</ele>
<time>2015-11-22T14:48:36Z</time>
</trkpt>
<trkpt lat="30.7126344" lon="35.7123652">
<ele>1394.39</ele>
<time>2015-11-22T14:48:41Z</time>
</trkpt>
<trkpt lat="30.7126079" lon="35.7123112">
<ele>1394.89</ele>
<time>2015-11-22T14:48:46Z</time>
</trkpt>
<trkpt lat="30.7125806" lon="35.7122565">
<ele>1395.38</ele>
<time>2015-11-22T14:48:51Z</time>
</trkpt>
<trkpt lat="30.7125550" lon="35.7122015">
<ele>1396.36</ele>
<time>2015-11-22T14:48:56Z</time>
</trkpt>
<trkpt lat="30.7125292" lon="35.7121489">
<ele>1396.39</ele>
<time>2015-11-22T14:49:01Z</time>
</trkpt>
<trkpt lat="30.7125053" lon="35.7120965">
<ele>1397.27</ele>
<time>2015-11-22T14:49:06Z</time>
</trkpt>
<trkpt lat="30.7124792" lon="35.7120404">
<ele>1398.33</ele>
<time>2015-11-22T14:49:11Z</time>
</trkpt>
<trkpt lat="30.7124560" lon="35.7119844">
<ele>1398.39</ele>
<time>2015-11-22T14:49:16Z</time>
</trkpt>
<trkpt lat="30.7124286" lon="35.7119313">
<ele>1399.14</ele>
<time>2015-11-22T14:49:21Z</time>
</trkpt>
<trkpt lat="30.7124078" lon="35.7118747">
<ele>1399.39</ele>
<time>2015-11-22T14:49:26Z</time>
</trkpt>
<trkpt lat="30.7123814" lon="35.7118238">
<ele>1400.33</ele>
<time>2015-11-22T14:49:31Z</time>
</trkpt>
<trkpt lat="30.7123580" lon="35.7117725">
<ele>1400.45</ele>
<time>2015-11-22T14:49:36Z</time>
</trkpt>
<trkpt lat="30.7123343" lon="35.7117228">
<ele>1400.96</ele>
<time>2015-11-22T14:49:41Z</time>
</trkpt>
<trkpt lat="30.7123141" lon="35.7116732">
<ele>1401.38</ele>
<time>2015-11-22T14:49:46Z</time>
</trkpt>
<trkpt lat="30.7122932" lon="35.7116218">
<ele>1402.36</ele>
<time>2015-11-22T14:49:51Z</time>
</trkpt>
<trkpt lat="30.7122673" lon="35.7115674">
<ele>1402.39</ele>
<time>2015-11-22T14:49:57Z</time>
</trkpt>
<trkpt lat="30.7122508" lon="35.7115156">
<ele>1403.33</ele>
<time>2015-11-22T14:50:02Z</time>
</trkpt>
<trkpt lat="30.7122308" lon="35.7114610">
<ele>1403.39</ele>
<time>2015-11-22T14:50:07Z</time>
</trkpt>
<trkpt lat="30.7122018" lon="35.7114108">
<ele>1403.39</ele>
<time>2015-11-22T14:50:12Z</time>
</trkpt>
<trkpt lat="30.7121749" lon="35.7113602">
<ele>1403.89</ele>
<time>2015-11-22T14:50:17Z</time>
</trkpt>
<trkpt lat="30.7121458" lon="35.7113103">
<ele>1406.00</ele>
<time>2015-11-22T14:50:22Z</time>
</trkpt>
<trkpt lat="30.7121223" lon="35.7112609">
<ele>1407.82</ele>
<time>2015-11-22T14:50:27Z</time>
</trkpt>
<trkpt lat="30.7120949" lon="35.7112135">
<ele>1408.38</ele>
<time>2015-11-22T14:50:32Z</time>
</trkpt>
<trkpt lat="30.7120744" lon="35.7111619">
<ele>1409.33</ele>
<time>2015-11-22T14:50:37Z</time>
</trkpt>
<trkpt lat="30.7120593" lon="35.7111040">
<ele>1409.49</ele>
<time>2015-11-22T14:50:43Z</time>
</trkpt>
<trkpt lat="30.7120407" lon="35.7110543">
<ele>1411.71</ele>
<time>2015-11-22T14:50:48Z</time>
</trkpt>
<trkpt lat="30.7120168" lon="35.7110071">
<ele>1412.47</ele>
<time>2015-11-22T14:51:03Z</time>
</trkpt>
<trkpt lat="30.7119991" lon="35.7109579">
<ele>1413.58</ele>
<time>2015-11-22T14:51:09Z</time>
</trkpt>
<trkpt lat="30.7119810" lon="35.7109010">
<ele>1414.35</ele>
<time>2015-11-22T14:51:15Z</time>
</trkpt>
<trkpt lat="30.7119599" lon="35.7108528">
<ele>1416.71</ele>
<time>2015-11-22T14:51:20Z</time>
</trkpt>
<trkpt lat="30.7119528" lon="35.7107988">
<ele>1417.87</ele>
<time>2015-11-22T14:51:25Z</time>
</trkpt>
<trkpt lat="30.7119493" lon="35.7107410">
<ele>1417.75</ele>
<time>2015-11-22T14:51:30Z</time>
</trkpt>
<trkpt lat="30.7119278" lon="35.7106931">
<ele>1416.46</ele>
<time>2015-11-22T14:51:37Z</time>
</trkpt>
<trkpt lat="30.7119148" lon="35.7106392">
<ele>1416.44</ele>
<time>2015-11-22T14:51:44Z</time>
</trkpt>
<trkpt lat="30.7119153" lon="35.7105846">
<ele>1418.30</ele>
<time>2015-11-22T14:51:50Z</time>
</trkpt>
<trkpt lat="30.7119132" lon="35.7105269">
<ele>1418.86</ele>
<time>2015-11-22T14:51:56Z</time>
</trkpt>
<trkpt lat="30.7119120" lon="35.7104683">
<ele>1419.03</ele>
<time>2015-11-22T14:52:01Z</time>
</trkpt>
<trkpt lat="30.7119125" lon="35.7104105">
<ele>1420.35</ele>
<time>2015-11-22T14:52:06Z</time>
</trkpt>
<trkpt lat="30.7119133" lon="35.7103571">
<ele>1420.55</ele>
<time>2015-11-22T14:52:11Z</time>
</trkpt>
<trkpt lat="30.7119213" lon="35.7103047">
<ele>1421.37</ele>
<time>2015-11-22T14:52:17Z</time>
</trkpt>
<trkpt lat="30.7119325" lon="35.7102476">
<ele>1423.30</ele>
<time>2015-11-22T14:52:24Z</time>
</trkpt>
<trkpt lat="30.7119335" lon="35.7101939">
<ele>1423.39</ele>
<time>2015-11-22T14:52:30Z</time>
</trkpt>
<trkpt lat="30.7119372" lon="35.7101373">
<ele>1419.00</ele>
<time>2015-11-22T14:53:00Z</time>
</trkpt>
<trkpt lat="30.7119401" lon="35.7100811">
<ele>1420.12</ele>
<time>2015-11-22T14:53:04Z</time>
</trkpt>
<trkpt lat="30.7119511" lon="35.7100210">
<ele>1420.32</ele>
<time>2015-11-22T14:53:09Z</time>
</trkpt>
<trkpt lat="30.7119525" lon="35.7099667">
<ele>1419.92</ele>
<time>2015-11-22T14:53:14Z</time>
</trkpt>
<trkpt lat="30.7119612" lon="35.7099139">
<ele>1423.29</ele>
<time>2015-11-22T14:53:19Z</time>
</trkpt>
<trkpt lat="30.7119647" lon="35.7098608">
<ele>1424.86</ele>
<time>2015-11-22T14:53:24Z</time>
</trkpt>
<trkpt lat="30.7119681" lon="35.7098014">
<ele>1424.64</ele>
<time>2015-11-22T14:53:30Z</time>
</trkpt>
<trkpt lat="30.7119737" lon="35.7097482">
<ele>1424.90</ele>
<time>2015-11-22T14:53:35Z</time>
</trkpt>
<trkpt lat="30.7119832" lon="35.7096888">
<ele>1426.82</ele>
<time>2015-11-22T14:53:40Z</time>
</trkpt>
<trkpt lat="30.7119969" lon="35.7096350">
<ele>1426.75</ele>
<time>2015-11-22T14:53:45Z</time>
</trkpt>
<trkpt lat="30.7120059" lon="35.7095836">
<ele>1426.41</ele>
<time>2015-11-22T14:53:50Z</time>
</trkpt>
<trkpt lat="30.7120119" lon="35.7095267">
<ele>1409.21</ele>
<time>2015-11-22T14:53:55Z</time>
</trkpt>
<trkpt lat="30.7120264" lon="35.7094683">
<ele>1411.58</ele>
<time>2015-11-22T14:54:00Z</time>
</trkpt>
<trkpt lat="30.7120358" lon="35.7094092">
<ele>1413.21</ele>
<time>2015-11-22T14:54:05Z</time>
</trkpt>
<trkpt lat="30.7120522" lon="35.7093605">
<ele>1414.73</ele>
<time>2015-11-22T14:54:10Z</time>
</trkpt>
<trkpt lat="30.7120795" lon="35.7093123">
<ele>1412.30</ele>
<time>2015-11-22T14:54:17Z</time>
</trkpt>
<trkpt lat="30.7120913" lon="35.7092581">
<ele>1412.97</ele>
<time>2015-11-22T14:54:23Z</time>
</trkpt>
<trkpt lat="30.7120912" lon="35.7091998">
<ele>1413.82</ele>
<time>2015-11-22T14:54:29Z</time>
</trkpt>
<trkpt lat="30.7120894" lon="35.7091466">
<ele>1413.37</ele>
<time>2015-11-22T14:54:35Z</time>
</trkpt>
<trkpt lat="30.7120837" lon="35.7090866">
<ele>1417.00</ele>
<time>2015-11-22T14:54:41Z</time>
</trkpt>
<trkpt lat="30.7120978" lon="35.7090265">
<ele>1412.23</ele>
<time>2015-11-22T14:54:47Z</time>
</trkpt>
<trkpt lat="30.7120993" lon="35.7089690">
<ele>1411.16</ele>
<time>2015-11-22T14:54:53Z</time>
</trkpt>
<trkpt lat="30.7120946" lon="35.7089139">
<ele>1412.89</ele>
<time>2015-11-22T14:54:58Z</time>
</trkpt>
<trkpt lat="30.7120704" lon="35.7088674">
<ele>1417.60</ele>
<time>2015-11-22T14:55:03Z</time>
</trkpt>
<trkpt lat="30.7120529" lon="35.7088162">
<ele>1419.46</ele>
<time>2015-11-22T14:55:08Z</time>
</trkpt>
<trkpt lat="30.7120292" lon="35.7087695">
<ele>1415.86</ele>
<time>2015-11-22T14:55:13Z</time>
</trkpt>
<trkpt lat="30.7119933" lon="35.7087355">
<ele>1416.44</ele>
<time>2015-11-22T14:55:18Z</time>
</trkpt>
<trkpt lat="30.7119595" lon="35.7086916">
<ele>1411.74</ele>
<time>2015-11-22T14:55:23Z</time>
</trkpt>
<trkpt lat="30.7119306" lon="35.7086476">
<ele>1410.15</ele>
<time>2015-11-22T14:55:28Z</time>
</trkpt>
<trkpt lat="30.7118939" lon="35.7086007">
<ele>1411.95</ele>
<time>2015-11-22T14:55:34Z</time>
</trkpt>
<trkpt lat="30.7118530" lon="35.7085770">
<ele>1428.47</ele>
<time>2015-11-22T14:55:39Z</time>
</trkpt>
<trkpt lat="30.7118161" lon="35.7085448">
<ele>1434.71</ele>
<time>2015-11-22T14:55:44Z</time>
</trkpt>
<trkpt lat="30.7117644" lon="35.7085311">
<ele>1436.07</ele>
<time>2015-11-22T14:55:50Z</time>
</trkpt>
<trkpt lat="30.7117145" lon="35.7085256">
<ele>1434.56</ele>
<time>2015-11-22T14:55:56Z</time>
</trkpt>
<trkpt lat="30.7116677" lon="35.7084969">
<ele>1435.83</ele>
<time>2015-11-22T14:56:02Z</time>
</trkpt>
<trkpt lat="30.7116237" lon="35.7084738">
<ele>1437.10</ele>
<time>2015-11-22T14:56:07Z</time>
</trkpt>
<trkpt lat="30.7115749" lon="35.7084515">
<ele>1438.35</ele>
<time>2015-11-22T14:56:12Z</time>
</trkpt>
<trkpt lat="30.7115241" lon="35.7084316">
<ele>1440.71</ele>
<time>2015-11-22T14:56:17Z</time>
</trkpt>
<trkpt lat="30.7114761" lon="35.7084061">
<ele>1442.50</ele>
<time>2015-11-22T14:56:22Z</time>
</trkpt>
<trkpt lat="30.7114326" lon="35.7083829">
<ele>1442.08</ele>
<time>2015-11-22T14:56:27Z</time>
</trkpt>
<trkpt lat="30.7113901" lon="35.7083560">
<ele>1444.07</ele>
<time>2015-11-22T14:56:32Z</time>
</trkpt>
<trkpt lat="30.7113446" lon="35.7083448">
<ele>1445.33</ele>
<time>2015-11-22T14:56:38Z</time>
</trkpt>
<trkpt lat="30.7113005" lon="35.7083166">
<ele>1444.46</ele>
<time>2015-11-22T14:56:45Z</time>
</trkpt>
<trkpt lat="30.7112547" lon="35.7082843">
<ele>1445.27</ele>
<time>2015-11-22T14:56:50Z</time>
</trkpt>
<trkpt lat="30.7112077" lon="35.7082803">
<ele>1433.24</ele>
<time>2015-11-22T15:02:30Z</time>
</trkpt>
<trkpt lat="30.7111626" lon="35.7082809">
<ele>1433.12</ele>
<time>2015-11-22T15:03:05Z</time>
</trkpt>
<trkpt lat="30.7111224" lon="35.7082450">
<ele>1429.99</ele>
<time>2015-11-22T15:03:12Z</time>
</trkpt>
<trkpt lat="30.7110652" lon="35.7082164">
<ele>1429.93</ele>
<time>2015-11-22T15:03:16Z</time>
</trkpt>
<trkpt lat="30.7110153" lon="35.7081913">
<ele>1430.84</ele>
<time>2015-11-22T15:03:19Z</time>
</trkpt>
<trkpt lat="30.7109612" lon="35.7081646">
<ele>1433.45</ele>
<time>2015-11-22T15:03:22Z</time>
</trkpt>
<trkpt lat="30.7109104" lon="35.7081254">
<ele>1433.90</ele>
<time>2015-11-22T15:03:25Z</time>
</trkpt>
<trkpt lat="30.7108539" lon="35.7081002">
<ele>1433.33</ele>
<time>2015-11-22T15:03:28Z</time>
</trkpt>
<trkpt lat="30.7107959" lon="35.7080739">
<ele>1434.26</ele>
<time>2015-11-22T15:03:31Z</time>
</trkpt>
<trkpt lat="30.7107392" lon="35.7080470">
<ele>1435.00</ele>
<time>2015-11-22T15:03:34Z</time>
</trkpt>
<trkpt lat="30.7106896" lon="35.7080218">
<ele>1434.60</ele>
<time>2015-11-22T15:03:37Z</time>
</trkpt>
<trkpt lat="30.7106391" lon="35.7080001">
<ele>1436.54</ele>
<time>2015-11-22T15:03:40Z</time>
</trkpt>
<trkpt lat="30.7105943" lon="35.7079685">
<ele>1435.29</ele>
<time>2015-11-22T15:03:43Z</time>
</trkpt>
<trkpt lat="30.7105532" lon="35.7079378">
<ele>1432.88</ele>
<time>2015-11-22T15:03:46Z</time>
</trkpt>
<trkpt lat="30.7105053" lon="35.7079010">
<ele>1435.67</ele>
<time>2015-11-22T15:03:50Z</time>
</trkpt>
<trkpt lat="30.7104522" lon="35.7078724">
<ele>1437.88</ele>
<time>2015-11-22T15:03:54Z</time>
</trkpt>
<trkpt lat="30.7104123" lon="35.7078468">
<ele>1438.91</ele>
<time>2015-11-22T15:03:57Z</time>
</trkpt>
<trkpt lat="30.7103719" lon="35.7078232">
<ele>1437.66</ele>
<time>2015-11-22T15:04:00Z</time>
</trkpt>
<trkpt lat="30.7103182" lon="35.7077906">
<ele>1439.85</ele>
<time>2015-11-22T15:04:04Z</time>
</trkpt>
<trkpt lat="30.7102766" lon="35.7077566">
<ele>1435.40</ele>
<time>2015-11-22T15:04:07Z</time>
</trkpt>
<trkpt lat="30.7102337" lon="35.7077266">
<ele>1436.60</ele>
<time>2015-11-22T15:04:10Z</time>
</trkpt>
<trkpt lat="30.7101960" lon="35.7076971">
<ele>1434.37</ele>
<time>2015-11-22T15:04:13Z</time>
</trkpt>
<trkpt lat="30.7101588" lon="35.7076664">
<ele>1435.09</ele>
<time>2015-11-22T15:04:16Z</time>
</trkpt>
<trkpt lat="30.7101255" lon="35.7076288">
<ele>1438.43</ele>
<time>2015-11-22T15:04:19Z</time>
</trkpt>
<trkpt lat="30.7100970" lon="35.7075810">
<ele>1440.35</ele>
<time>2015-11-22T15:04:22Z</time>
</trkpt>
<trkpt lat="30.7100658" lon="35.7075316">
<ele>1439.72</ele>
<time>2015-11-22T15:04:25Z</time>
</trkpt>
<trkpt lat="30.7100402" lon="35.7074836">
<ele>1439.14</ele>
<time>2015-11-22T15:04:28Z</time>
</trkpt>
<trkpt lat="30.7100251" lon="35.7074291">
<ele>1441.94</ele>
<time>2015-11-22T15:04:31Z</time>
</trkpt>
<trkpt lat="30.7100098" lon="35.7073706">
<ele>1440.54</ele>
<time>2015-11-22T15:04:34Z</time>
</trkpt>
<trkpt lat="30.7099956" lon="35.7073130">
<ele>1439.74</ele>
<time>2015-11-22T15:04:37Z</time>
</trkpt>
<trkpt lat="30.7099839" lon="35.7072541">
<ele>1441.26</ele>
<time>2015-11-22T15:04:40Z</time>
</trkpt>
<trkpt lat="30.7099727" lon="35.7071940">
<ele>1444.45</ele>
<time>2015-11-22T15:04:43Z</time>
</trkpt>
<trkpt lat="30.7099671" lon="35.7071302">
<ele>1446.60</ele>
<time>2015-11-22T15:04:46Z</time>
</trkpt>
<trkpt lat="30.7099602" lon="35.7070659">
<ele>1447.12</ele>
<time>2015-11-22T15:04:49Z</time>
</trkpt>
<trkpt lat="30.7099493" lon="35.7070022">
<ele>1446.94</ele>
<time>2015-11-22T15:04:52Z</time>
</trkpt>
<trkpt lat="30.7099447" lon="35.7069344">
<ele>1448.04</ele>
<time>2015-11-22T15:04:55Z</time>
</trkpt>
<trkpt lat="30.7099444" lon="35.7068666">
<ele>1447.68</ele>
<time>2015-11-22T15:04:58Z</time>
</trkpt>
<trkpt lat="30.7099455" lon="35.7068004">
<ele>1445.51</ele>
<time>2015-11-22T15:05:01Z</time>
</trkpt>
<trkpt lat="30.7099529" lon="35.7067317">
<ele>1444.23</ele>
<time>2015-11-22T15:05:04Z</time>
</trkpt>
<trkpt lat="30.7099572" lon="35.7066631">
<ele>1446.58</ele>
<time>2015-11-22T15:05:07Z</time>
</trkpt>
<trkpt lat="30.7099596" lon="35.7065954">
<ele>1448.49</ele>
<time>2015-11-22T15:05:10Z</time>
</trkpt>
<trkpt lat="30.7099570" lon="35.7065316">
<ele>1449.11</ele>
<time>2015-11-22T15:05:13Z</time>
</trkpt>
<trkpt lat="30.7099575" lon="35.7064653">
<ele>1449.69</ele>
<time>2015-11-22T15:05:16Z</time>
</trkpt>
<trkpt lat="30.7099567" lon="35.7064007">
<ele>1449.76</ele>
<time>2015-11-22T15:05:19Z</time>
</trkpt>
<trkpt lat="30.7099588" lon="35.7063375">
<ele>1449.77</ele>
<time>2015-11-22T15:05:22Z</time>
</trkpt>
<trkpt lat="30.7099567" lon="35.7062758">
<ele>1449.14</ele>
<time>2015-11-22T15:05:25Z</time>
</trkpt>
<trkpt lat="30.7099495" lon="35.7062162">
<ele>1449.94</ele>
<time>2015-11-22T15:05:28Z</time>
</trkpt>
<trkpt lat="30.7099460" lon="35.7061547">
<ele>1443.16</ele>
<time>2015-11-22T15:05:31Z</time>
</trkpt>
<trkpt lat="30.7099449" lon="35.7060936">
<ele>1439.57</ele>
<time>2015-11-22T15:05:34Z</time>
</trkpt>
<trkpt lat="30.7099508" lon="35.7060300">
<ele>1443.37</ele>
<time>2015-11-22T15:05:37Z</time>
</trkpt>
<trkpt lat="30.7099559" lon="35.7059626">
<ele>1447.22</ele>
<time>2015-11-22T15:05:40Z</time>
</trkpt>
<trkpt lat="30.7099590" lon="35.7058889">
<ele>1449.70</ele>
<time>2015-11-22T15:05:43Z</time>
</trkpt>
<trkpt lat="30.7099556" lon="35.7058147">
<ele>1449.13</ele>
<time>2015-11-22T15:05:46Z</time>
</trkpt>
<trkpt lat="30.7099607" lon="35.7057411">
<ele>1450.06</ele>
<time>2015-11-22T15:05:49Z</time>
</trkpt>
<trkpt lat="30.7099689" lon="35.7056667">
<ele>1450.93</ele>
<time>2015-11-22T15:05:52Z</time>
</trkpt>
<trkpt lat="30.7099818" lon="35.7056046">
<ele>1449.29</ele>
<time>2015-11-22T15:05:55Z</time>
</trkpt>
<trkpt lat="30.7099998" lon="35.7055509">
<ele>1447.33</ele>
<time>2015-11-22T15:05:58Z</time>
</trkpt>
<trkpt lat="30.7100152" lon="35.7054904">
<ele>1444.70</ele>
<time>2015-11-22T15:06:02Z</time>
</trkpt>
<trkpt lat="30.7099910" lon="35.7054456">
<ele>1465.72</ele>
<time>2015-11-22T15:07:33Z</time>
</trkpt>
<trkpt lat="30.7099736" lon="35.7053974">
<ele>1466.82</ele>
<time>2015-11-22T15:07:56Z</time>
</trkpt>
<trkpt lat="30.7099715" lon="35.7053362">
<ele>1467.85</ele>
<time>2015-11-22T15:07:58Z</time>
</trkpt>
<trkpt lat="30.7099709" lon="35.7052588">
<ele>1468.11</ele>
<time>2015-11-22T15:08:00Z</time>
</trkpt>
<trkpt lat="30.7099713" lon="35.7051794">
<ele>1468.17</ele>
<time>2015-11-22T15:08:02Z</time>
</trkpt>
<trkpt lat="30.7099732" lon="35.7051006">
<ele>1467.69</ele>
<time>2015-11-22T15:08:04Z</time>
</trkpt>
<trkpt lat="30.7099797" lon="35.7050225">
<ele>1468.07</ele>
<time>2015-11-22T15:08:06Z</time>
</trkpt>
<trkpt lat="30.7099827" lon="35.7049440">
<ele>1468.91</ele>
<time>2015-11-22T15:08:08Z</time>
</trkpt>
<trkpt lat="30.7099845" lon="35.7048599">
<ele>1468.38</ele>
<time>2015-11-22T15:08:10Z</time>
</trkpt>
<trkpt lat="30.7099877" lon="35.7047631">
<ele>1467.49</ele>
<time>2015-11-22T15:08:12Z</time>
</trkpt>
<trkpt lat="30.7099866" lon="35.7046585">
<ele>1467.27</ele>
<time>2015-11-22T15:08:14Z</time>
</trkpt>
<trkpt lat="30.7099823" lon="35.7045817">
<ele>1467.23</ele>
<time>2015-11-22T15:08:15Z</time>
</trkpt>
<trkpt lat="30.7099816" lon="35.7045246">
<ele>1467.21</ele>
<time>2015-11-22T15:08:16Z</time>
</trkpt>
<trkpt lat="30.7099789" lon="35.7044577">
<ele>1467.21</ele>
<time>2015-11-22T15:08:17Z</time>
</trkpt>
<trkpt lat="30.7099759" lon="35.7043984">
<ele>1467.20</ele>
<time>2015-11-22T15:08:18Z</time>
</trkpt>
<trkpt lat="30.7099770" lon="35.7043284">
<ele>1467.20</ele>
<time>2015-11-22T15:08:19Z</time>
</trkpt>
<trkpt lat="30.7099763" lon="35.7042565">
<ele>1466.70</ele>
<time>2015-11-22T15:08:20Z</time>
</trkpt>
<trkpt lat="30.7099783" lon="35.7041894">
<ele>1466.45</ele>
<time>2015-11-22T15:08:21Z</time>
</trkpt>
<trkpt lat="30.7099721" lon="35.7041144">
<ele>1466.32</ele>
<time>2015-11-22T15:08:22Z</time>
</trkpt>
<trkpt lat="30.7099779" lon="35.7040270">
<ele>1465.76</ele>
<time>2015-11-22T15:08:23Z</time>
</trkpt>
<trkpt lat="30.7099778" lon="35.7039533">
<ele>1465.48</ele>
<time>2015-11-22T15:08:24Z</time>
</trkpt>
<trkpt lat="30.7099718" lon="35.7038708">
<ele>1465.34</ele>
<time>2015-11-22T15:08:25Z</time>
</trkpt>
<trkpt lat="30.7099738" lon="35.7037917">
<ele>1465.77</ele>
<time>2015-11-22T15:08:26Z</time>
</trkpt>
<trkpt lat="30.7099709" lon="35.7037115">
<ele>1465.98</ele>
<time>2015-11-22T15:08:27Z</time>
</trkpt>
<trkpt lat="30.7099716" lon="35.7036344">
<ele>1467.09</ele>
<time>2015-11-22T15:08:28Z</time>
</trkpt>
<trkpt lat="30.7099685" lon="35.7035511">
<ele>1467.64</ele>
<time>2015-11-22T15:08:29Z</time>
</trkpt>
<trkpt lat="30.7099673" lon="35.7034722">
<ele>1467.42</ele>
<time>2015-11-22T15:08:30Z</time>
</trkpt>
<trkpt lat="30.7099637" lon="35.7033989">
<ele>1467.31</ele>
<time>2015-11-22T15:08:31Z</time>
</trkpt>
<trkpt lat="30.7099630" lon="35.7033222">
<ele>1467.25</ele>
<time>2015-11-22T15:08:32Z</time>
</trkpt>
<trkpt lat="30.7099614" lon="35.7032431">
<ele>1467.22</ele>
<time>2015-11-22T15:08:33Z</time>
</trkpt>
<trkpt lat="30.7099688" lon="35.7031774">
<ele>1467.21</ele>
<time>2015-11-22T15:08:34Z</time>
</trkpt>
<trkpt lat="30.7099650" lon="35.7031028">
<ele>1467.70</ele>
<time>2015-11-22T15:08:35Z</time>
</trkpt>
<trkpt lat="30.7099702" lon="35.7030215">
<ele>1468.45</ele>
<time>2015-11-22T15:08:36Z</time>
</trkpt>
<trkpt lat="30.7099647" lon="35.7029483">
<ele>1468.32</ele>
<time>2015-11-22T15:08:37Z</time>
</trkpt>
<trkpt lat="30.7099619" lon="35.7028672">
<ele>1468.26</ele>
<time>2015-11-22T15:08:38Z</time>
</trkpt>
<trkpt lat="30.7099602" lon="35.7027948">
<ele>1468.73</ele>
<time>2015-11-22T15:08:39Z</time>
</trkpt>
<trkpt lat="30.7099624" lon="35.7027165">
<ele>1468.46</ele>
<time>2015-11-22T15:08:40Z</time>
</trkpt>
<trkpt lat="30.7099632" lon="35.7026428">
<ele>1468.33</ele>
<time>2015-11-22T15:08:41Z</time>
</trkpt>
<trkpt lat="30.7099604" lon="35.7025690">
<ele>1468.26</ele>
<time>2015-11-22T15:08:42Z</time>
</trkpt>
<trkpt lat="30.7099635" lon="35.7024915">
<ele>1467.73</ele>
<time>2015-11-22T15:08:43Z</time>
</trkpt>
<trkpt lat="30.7099578" lon="35.7024154">
<ele>1467.96</ele>
<time>2015-11-22T15:08:44Z</time>
</trkpt>
<trkpt lat="30.7099540" lon="35.7023375">
<ele>1467.58</ele>
<time>2015-11-22T15:08:45Z</time>
</trkpt>
<trkpt lat="30.7099584" lon="35.7022595">
<ele>1467.39</ele>
<time>2015-11-22T15:08:46Z</time>
</trkpt>
<trkpt lat="30.7099610" lon="35.7021874">
<ele>1466.79</ele>
<time>2015-11-22T15:08:47Z</time>
</trkpt>
<trkpt lat="30.7099556" lon="35.7021244">
<ele>1466.49</ele>
<time>2015-11-22T15:08:48Z</time>
</trkpt>
<trkpt lat="30.7099574" lon="35.7020458">
<ele>1466.34</ele>
<time>2015-11-22T15:08:49Z</time>
</trkpt>
<trkpt lat="30.7099552" lon="35.7019744">
<ele>1465.77</ele>
<time>2015-11-22T15:08:50Z</time>
</trkpt>
<trkpt lat="30.7099515" lon="35.7019044">
<ele>1465.48</ele>
<time>2015-11-22T15:08:51Z</time>
</trkpt>
<trkpt lat="30.7099496" lon="35.7018309">
<ele>1465.34</ele>
<time>2015-11-22T15:08:52Z</time>
</trkpt>
<trkpt lat="30.7099524" lon="35.7017542">
<ele>1465.27</ele>
<time>2015-11-22T15:08:53Z</time>
</trkpt>
<trkpt lat="30.7099459" lon="35.7016752">
<ele>1465.73</ele>
<time>2015-11-22T15:08:54Z</time>
</trkpt>
<trkpt lat="30.7099408" lon="35.7016003">
<ele>1465.96</ele>
<time>2015-11-22T15:08:55Z</time>
</trkpt>
<trkpt lat="30.7099453" lon="35.7015064">
<ele>1466.08</ele>
<time>2015-11-22T15:08:56Z</time>
</trkpt>
<trkpt lat="30.7099390" lon="35.7014303">
<ele>1466.14</ele>
<time>2015-11-22T15:08:57Z</time>
</trkpt>
<trkpt lat="30.7099399" lon="35.7013628">
<ele>1465.67</ele>
<time>2015-11-22T15:08:58Z</time>
</trkpt>
<trkpt lat="30.7099352" lon="35.7012854">
<ele>1465.43</ele>
<time>2015-11-22T15:08:59Z</time>
</trkpt>
<trkpt lat="30.7099377" lon="35.7011910">
<ele>1465.31</ele>
<time>2015-11-22T15:09:00Z</time>
</trkpt>
<trkpt lat="30.7099340" lon="35.7011048">
<ele>1465.25</ele>
<time>2015-11-22T15:09:01Z</time>
</trkpt>
<trkpt lat="30.7099326" lon="35.7010067">
<ele>1465.23</ele>
<time>2015-11-22T15:09:02Z</time>
</trkpt>
<trkpt lat="30.7099297" lon="35.7009183">
<ele>1465.21</ele>
<time>2015-11-22T15:09:03Z</time>
</trkpt>
<trkpt lat="30.7099275" lon="35.7008281">
<ele>1465.20</ele>
<time>2015-11-22T15:09:04Z</time>
</trkpt>
<trkpt lat="30.7099234" lon="35.7007523">
<ele>1464.70</ele>
<time>2015-11-22T15:09:05Z</time>
</trkpt>
<trkpt lat="30.7099268" lon="35.7006633">
<ele>1464.95</ele>
<time>2015-11-22T15:09:06Z</time>
</trkpt>
<trkpt lat="30.7099249" lon="35.7005778">
<ele>1465.07</ele>
<time>2015-11-22T15:09:07Z</time>
</trkpt>
<trkpt lat="30.7099250" lon="35.7004891">
<ele>1464.63</ele>
<time>2015-11-22T15:09:08Z</time>
</trkpt>
<trkpt lat="30.7099253" lon="35.7004107">
<ele>1464.92</ele>
<time>2015-11-22T15:09:09Z</time>
</trkpt>
<trkpt lat="30.7099248" lon="35.7003264">
<ele>1465.06</ele>
<time>2015-11-22T15:09:10Z</time>
</trkpt>
<trkpt lat="30.7099179" lon="35.7002529">
<ele>1464.63</ele>
<time>2015-11-22T15:09:11Z</time>
</trkpt>
<trkpt lat="30.7099140" lon="35.7001745">
<ele>1464.41</ele>
<time>2015-11-22T15:09:12Z</time>
</trkpt>
<trkpt lat="30.7099070" lon="35.7001148">
<ele>1464.30</ele>
<time>2015-11-22T15:09:13Z</time>
</trkpt>
<trkpt lat="30.7099073" lon="35.7000525">
<ele>1464.25</ele>
<time>2015-11-22T15:09:14Z</time>
</trkpt>
<trkpt lat="30.7099036" lon="35.6999916">
<ele>1463.72</ele>
<time>2015-11-22T15:09:15Z</time>
</trkpt>
<trkpt lat="30.7099051" lon="35.6999256">
<ele>1463.46</ele>
<time>2015-11-22T15:09:16Z</time>
</trkpt>
<trkpt lat="30.7098979" lon="35.6998603">
<ele>1463.33</ele>
<time>2015-11-22T15:09:17Z</time>
</trkpt>
<trkpt lat="30.7098934" lon="35.6997948">
<ele>1463.76</ele>
<time>2015-11-22T15:09:18Z</time>
</trkpt>
<trkpt lat="30.7098916" lon="35.6997396">
<ele>1464.48</ele>
<time>2015-11-22T15:09:19Z</time>
</trkpt>
<trkpt lat="30.7098870" lon="35.6996362">
<ele>1465.52</ele>
<time>2015-11-22T15:09:21Z</time>
</trkpt>
<trkpt lat="30.7098842" lon="35.6995382">
<ele>1466.28</ele>
<time>2015-11-22T15:09:23Z</time>
</trkpt>
<trkpt lat="30.7098731" lon="35.6994876">
<ele>1466.24</ele>
<time>2015-11-22T15:09:24Z</time>
</trkpt>
<trkpt lat="30.7098520" lon="35.6993942">
<ele>1466.21</ele>
<time>2015-11-22T15:09:26Z</time>
</trkpt>
<trkpt lat="30.7098380" lon="35.6993072">
<ele>1465.95</ele>
<time>2015-11-22T15:09:28Z</time>
</trkpt>
<trkpt lat="30.7098182" lon="35.6992332">
<ele>1466.88</ele>
<time>2015-11-22T15:09:30Z</time>
</trkpt>
<trkpt lat="30.7098086" lon="35.6991627">
<ele>1466.62</ele>
<time>2015-11-22T15:09:32Z</time>
</trkpt>
<trkpt lat="30.7098031" lon="35.6990906">
<ele>1465.05</ele>
<time>2015-11-22T15:09:34Z</time>
</trkpt>
<trkpt lat="30.7097943" lon="35.6990147">
<ele>1465.16</ele>
<time>2015-11-22T15:09:36Z</time>
</trkpt>
<trkpt lat="30.7097833" lon="35.6989388">
<ele>1466.19</ele>
<time>2015-11-22T15:09:38Z</time>
</trkpt>
<trkpt lat="30.7097716" lon="35.6988664">
<ele>1468.69</ele>
<time>2015-11-22T15:09:40Z</time>
</trkpt>
<trkpt lat="30.7097569" lon="35.6987942">
<ele>1469.82</ele>
<time>2015-11-22T15:09:42Z</time>
</trkpt>
<trkpt lat="30.7097383" lon="35.6987348">
<ele>1470.10</ele>
<time>2015-11-22T15:09:44Z</time>
</trkpt>
<trkpt lat="30.7097228" lon="35.6986818">
<ele>1471.17</ele>
<time>2015-11-22T15:09:46Z</time>
</trkpt>
<trkpt lat="30.7097085" lon="35.6986290">
<ele>1471.69</ele>
<time>2015-11-22T15:09:48Z</time>
</trkpt>
<trkpt lat="30.7096988" lon="35.6985722">
<ele>1471.32</ele>
<time>2015-11-22T15:09:50Z</time>
</trkpt>
<trkpt lat="30.7096923" lon="35.6985101">
<ele>1471.73</ele>
<time>2015-11-22T15:09:52Z</time>
</trkpt>
<trkpt lat="30.7096833" lon="35.6984454">
<ele>1472.08</ele>
<time>2015-11-22T15:09:54Z</time>
</trkpt>
<trkpt lat="30.7096720" lon="35.6983745">
<ele>1472.17</ele>
<time>2015-11-22T15:09:56Z</time>
</trkpt>
<trkpt lat="30.7096620" lon="35.6982944">
<ele>1472.19</ele>
<time>2015-11-22T15:09:58Z</time>
</trkpt>
<trkpt lat="30.7096478" lon="35.6982079">
<ele>1472.19</ele>
<time>2015-11-22T15:10:00Z</time>
</trkpt>
<trkpt lat="30.7096307" lon="35.6981178">
<ele>1472.20</ele>
<time>2015-11-22T15:10:02Z</time>
</trkpt>
<trkpt lat="30.7096156" lon="35.6980273">
<ele>1471.70</ele>
<time>2015-11-22T15:10:04Z</time>
</trkpt>
<trkpt lat="30.7095986" lon="35.6979357">
<ele>1471.32</ele>
<time>2015-11-22T15:10:06Z</time>
</trkpt>
<trkpt lat="30.7095776" lon="35.6978341">
<ele>1471.23</ele>
<time>2015-11-22T15:10:08Z</time>
</trkpt>
<trkpt lat="30.7095660" lon="35.6977810">
<ele>1471.21</ele>
<time>2015-11-22T15:10:09Z</time>
</trkpt>
<trkpt lat="30.7095551" lon="35.6977285">
<ele>1471.20</ele>
<time>2015-11-22T15:10:10Z</time>
</trkpt>
<trkpt lat="30.7095435" lon="35.6976532">
<ele>1471.70</ele>
<time>2015-11-22T15:10:11Z</time>
</trkpt>
<trkpt lat="30.7095262" lon="35.6975893">
<ele>1471.95</ele>
<time>2015-11-22T15:10:12Z</time>
</trkpt>
<trkpt lat="30.7095116" lon="35.6975298">
<ele>1472.07</ele>
<time>2015-11-22T15:10:13Z</time>
</trkpt>
<trkpt lat="30.7094747" lon="35.6974185">
<ele>1472.17</ele>
<time>2015-11-22T15:10:15Z</time>
</trkpt>
<trkpt lat="30.7094600" lon="35.6973571">
<ele>1472.18</ele>
<time>2015-11-22T15:10:16Z</time>
</trkpt>
<trkpt lat="30.7094395" lon="35.6972916">
<ele>1471.69</ele>
<time>2015-11-22T15:10:17Z</time>
</trkpt>
<trkpt lat="30.7094256" lon="35.6972301">
<ele>1471.94</ele>
<time>2015-11-22T15:10:18Z</time>
</trkpt>
<trkpt lat="30.7094122" lon="35.6971665">
<ele>1472.07</ele>
<time>2015-11-22T15:10:19Z</time>
</trkpt>
<trkpt lat="30.7093929" lon="35.6970977">
<ele>1472.13</ele>
<time>2015-11-22T15:10:20Z</time>
</trkpt>
<trkpt lat="30.7093713" lon="35.6970311">
<ele>1472.16</ele>
<time>2015-11-22T15:10:21Z</time>
</trkpt>
<trkpt lat="30.7093515" lon="35.6969578">
<ele>1471.68</ele>
<time>2015-11-22T15:10:22Z</time>
</trkpt>
<trkpt lat="30.7093346" lon="35.6968810">
<ele>1471.44</ele>
<time>2015-11-22T15:10:23Z</time>
</trkpt>
<trkpt lat="30.7093183" lon="35.6968008">
<ele>1471.32</ele>
<time>2015-11-22T15:10:24Z</time>
</trkpt>
<trkpt lat="30.7093025" lon="35.6967155">
<ele>1470.76</ele>
<time>2015-11-22T15:10:25Z</time>
</trkpt>
<trkpt lat="30.7092829" lon="35.6966346">
<ele>1470.48</ele>
<time>2015-11-22T15:10:26Z</time>
</trkpt>
<trkpt lat="30.7092563" lon="35.6965502">
<ele>1469.84</ele>
<time>2015-11-22T15:10:27Z</time>
</trkpt>
<trkpt lat="30.7092346" lon="35.6964629">
<ele>1469.52</ele>
<time>2015-11-22T15:10:28Z</time>
</trkpt>
<trkpt lat="30.7092054" lon="35.6963741">
<ele>1469.36</ele>
<time>2015-11-22T15:10:29Z</time>
</trkpt>
<trkpt lat="30.7091828" lon="35.6962852">
<ele>1469.28</ele>
<time>2015-11-22T15:10:30Z</time>
</trkpt>
<trkpt lat="30.7091588" lon="35.6961935">
<ele>1469.24</ele>
<time>2015-11-22T15:10:31Z</time>
</trkpt>
<trkpt lat="30.7091348" lon="35.6960974">
<ele>1469.22</ele>
<time>2015-11-22T15:10:32Z</time>
</trkpt>
<trkpt lat="30.7091131" lon="35.6960050">
<ele>1469.21</ele>
<time>2015-11-22T15:10:33Z</time>
</trkpt>
<trkpt lat="30.7090893" lon="35.6959102">
<ele>1468.70</ele>
<time>2015-11-22T15:10:34Z</time>
</trkpt>
<trkpt lat="30.7090667" lon="35.6958137">
<ele>1468.45</ele>
<time>2015-11-22T15:10:35Z</time>
</trkpt>
<trkpt lat="30.7090445" lon="35.6957130">
<ele>1468.82</ele>
<time>2015-11-22T15:10:36Z</time>
</trkpt>
<trkpt lat="30.7090213" lon="35.6956121">
<ele>1469.01</ele>
<time>2015-11-22T15:10:37Z</time>
</trkpt>
<trkpt lat="30.7089987" lon="35.6955010">
<ele>1468.60</ele>
<time>2015-11-22T15:10:38Z</time>
</trkpt>
<trkpt lat="30.7089767" lon="35.6953935">
<ele>1468.40</ele>
<time>2015-11-22T15:10:39Z</time>
</trkpt>
<trkpt lat="30.7089614" lon="35.6952782">
<ele>1467.80</ele>
<time>2015-11-22T15:10:40Z</time>
</trkpt>
<trkpt lat="30.7089447" lon="35.6951614">
<ele>1467.50</ele>
<time>2015-11-22T15:10:41Z</time>
</trkpt>
<trkpt lat="30.7089315" lon="35.6950424">
<ele>1466.85</ele>
<time>2015-11-22T15:10:42Z</time>
</trkpt>
<trkpt lat="30.7089281" lon="35.6949265">
<ele>1467.02</ele>
<time>2015-11-22T15:10:43Z</time>
</trkpt>
<trkpt lat="30.7089348" lon="35.6948150">
<ele>1467.11</ele>
<time>2015-11-22T15:10:44Z</time>
</trkpt>
<trkpt lat="30.7089411" lon="35.6947077">
<ele>1467.15</ele>
<time>2015-11-22T15:10:45Z</time>
</trkpt>
<trkpt lat="30.7089446" lon="35.6946051">
<ele>1467.67</ele>
<time>2015-11-22T15:10:46Z</time>
</trkpt>
<trkpt lat="30.7089558" lon="35.6945022">
<ele>1467.94</ele>
<time>2015-11-22T15:10:47Z</time>
</trkpt>
<trkpt lat="30.7089582" lon="35.6944065">
<ele>1468.07</ele>
<time>2015-11-22T15:10:48Z</time>
</trkpt>
<trkpt lat="30.7089698" lon="35.6943278">
<ele>1468.63</ele>
<time>2015-11-22T15:10:49Z</time>
</trkpt>
<trkpt lat="30.7089802" lon="35.6942520">
<ele>1468.91</ele>
<time>2015-11-22T15:10:50Z</time>
</trkpt>
<trkpt lat="30.7089926" lon="35.6941802">
<ele>1469.55</ele>
<time>2015-11-22T15:10:51Z</time>
</trkpt>
<trkpt lat="30.7089987" lon="35.6941162">
<ele>1469.88</ele>
<time>2015-11-22T15:10:52Z</time>
</trkpt>
<trkpt lat="30.7090096" lon="35.6940540">
<ele>1470.54</ele>
<time>2015-11-22T15:10:53Z</time>
</trkpt>
<trkpt lat="30.7090268" lon="35.6939679">
<ele>1471.53</ele>
<time>2015-11-22T15:10:55Z</time>
</trkpt>
<trkpt lat="30.7090402" lon="35.6938757">
<ele>1472.78</ele>
<time>2015-11-22T15:10:57Z</time>
</trkpt>
<trkpt lat="30.7090665" lon="35.6937941">
<ele>1473.84</ele>
<time>2015-11-22T15:10:59Z</time>
</trkpt>
<trkpt lat="30.7090794" lon="35.6937423">
<ele>1474.02</ele>
<time>2015-11-22T15:11:00Z</time>
</trkpt>
<trkpt lat="30.7090910" lon="35.6936474">
<ele>1474.40</ele>
<time>2015-11-22T15:11:02Z</time>
</trkpt>
<trkpt lat="30.7091085" lon="35.6935690">
<ele>1475.25</ele>
<time>2015-11-22T15:11:04Z</time>
</trkpt>
<trkpt lat="30.7091227" lon="35.6934823">
<ele>1475.21</ele>
<time>2015-11-22T15:11:06Z</time>
</trkpt>
<trkpt lat="30.7091315" lon="35.6933916">
<ele>1475.45</ele>
<time>2015-11-22T15:11:08Z</time>
</trkpt>
<trkpt lat="30.7091376" lon="35.6932933">
<ele>1475.26</ele>
<time>2015-11-22T15:11:10Z</time>
</trkpt>
<trkpt lat="30.7091436" lon="35.6931976">
<ele>1475.21</ele>
<time>2015-11-22T15:11:12Z</time>
</trkpt>
<trkpt lat="30.7091500" lon="35.6931046">
<ele>1475.20</ele>
<time>2015-11-22T15:11:14Z</time>
</trkpt>
<trkpt lat="30.7091535" lon="35.6930131">
<ele>1475.20</ele>
<time>2015-11-22T15:11:16Z</time>
</trkpt>
<trkpt lat="30.7091551" lon="35.6929218">
<ele>1474.70</ele>
<time>2015-11-22T15:11:18Z</time>
</trkpt>
<trkpt lat="30.7091586" lon="35.6928272">
<ele>1474.57</ele>
<time>2015-11-22T15:11:20Z</time>
</trkpt>
<trkpt lat="30.7091550" lon="35.6927621">
<ele>1474.38</ele>
<time>2015-11-22T15:11:21Z</time>
</trkpt>
<trkpt lat="30.7091513" lon="35.6926984">
<ele>1473.79</ele>
<time>2015-11-22T15:11:22Z</time>
</trkpt>
<trkpt lat="30.7091519" lon="35.6926341">
<ele>1473.49</ele>
<time>2015-11-22T15:11:23Z</time>
</trkpt>
<trkpt lat="30.7091468" lon="35.6925657">
<ele>1473.34</ele>
<time>2015-11-22T15:11:24Z</time>
</trkpt>
<trkpt lat="30.7091474" lon="35.6924971">
<ele>1473.27</ele>
<time>2015-11-22T15:11:25Z</time>
</trkpt>
<trkpt lat="30.7091431" lon="35.6924041">
<ele>1472.73</ele>
<time>2015-11-22T15:11:26Z</time>
</trkpt>
<trkpt lat="30.7091450" lon="35.6923212">
<ele>1471.96</ele>
<time>2015-11-22T15:11:27Z</time>
</trkpt>
<trkpt lat="30.7091432" lon="35.6922282">
<ele>1471.58</ele>
<time>2015-11-22T15:11:28Z</time>
</trkpt>
<trkpt lat="30.7091396" lon="35.6921326">
<ele>1471.39</ele>
<time>2015-11-22T15:11:29Z</time>
</trkpt>
<trkpt lat="30.7091354" lon="35.6920318">
<ele>1470.79</ele>
<time>2015-11-22T15:11:30Z</time>
</trkpt>
<trkpt lat="30.7091356" lon="35.6919242">
<ele>1470.49</ele>
<time>2015-11-22T15:11:31Z</time>
</trkpt>
<trkpt lat="30.7091335" lon="35.6918161">
<ele>1469.84</ele>
<time>2015-11-22T15:11:32Z</time>
</trkpt>
<trkpt lat="30.7091295" lon="35.6917010">
<ele>1469.52</ele>
<time>2015-11-22T15:11:33Z</time>
</trkpt>
<trkpt lat="30.7091283" lon="35.6915788">
<ele>1468.86</ele>
<time>2015-11-22T15:11:34Z</time>
</trkpt>
<trkpt lat="30.7091229" lon="35.6914563">
<ele>1469.03</ele>
<time>2015-11-22T15:11:35Z</time>
</trkpt>
<trkpt lat="30.7091169" lon="35.6913278">
<ele>1469.11</ele>
<time>2015-11-22T15:11:36Z</time>
</trkpt>
<trkpt lat="30.7091159" lon="35.6912023">
<ele>1469.15</ele>
<time>2015-11-22T15:11:37Z</time>
</trkpt>
<trkpt lat="30.7091114" lon="35.6910765">
<ele>1469.17</ele>
<time>2015-11-22T15:11:38Z</time>
</trkpt>
<trkpt lat="30.7091120" lon="35.6909469">
<ele>1469.19</ele>
<time>2015-11-22T15:11:39Z</time>
</trkpt>
<trkpt lat="30.7091069" lon="35.6908328">
<ele>1469.69</ele>
<time>2015-11-22T15:11:40Z</time>
</trkpt>
<trkpt lat="30.7091046" lon="35.6907216">
<ele>1469.94</ele>
<time>2015-11-22T15:11:41Z</time>
</trkpt>
<trkpt lat="30.7090985" lon="35.6906157">
<ele>1470.57</ele>
<time>2015-11-22T15:11:42Z</time>
</trkpt>
<trkpt lat="30.7091006" lon="35.6905167">
<ele>1470.88</ele>
<time>2015-11-22T15:11:43Z</time>
</trkpt>
<trkpt lat="30.7091019" lon="35.6904205">
<ele>1471.54</ele>
<time>2015-11-22T15:11:44Z</time>
</trkpt>
<trkpt lat="30.7091040" lon="35.6903290">
<ele>1471.87</ele>
<time>2015-11-22T15:11:45Z</time>
</trkpt>
<trkpt lat="30.7091081" lon="35.6902424">
<ele>1472.53</ele>
<time>2015-11-22T15:11:46Z</time>
</trkpt>
<trkpt lat="30.7091115" lon="35.6901606">
<ele>1472.86</ele>
<time>2015-11-22T15:11:47Z</time>
</trkpt>
<trkpt lat="30.7091093" lon="35.6900868">
<ele>1473.53</ele>
<time>2015-11-22T15:11:48Z</time>
</trkpt>
<trkpt lat="30.7091056" lon="35.6900216">
<ele>1474.36</ele>
<time>2015-11-22T15:11:49Z</time>
</trkpt>
<trkpt lat="30.7091036" lon="35.6899534">
<ele>1474.78</ele>
<time>2015-11-22T15:11:50Z</time>
</trkpt>
<trkpt lat="30.7091052" lon="35.6898934">
<ele>1474.99</ele>
<time>2015-11-22T15:11:51Z</time>
</trkpt>
<trkpt lat="30.7091060" lon="35.6898372">
<ele>1475.09</ele>
<time>2015-11-22T15:11:52Z</time>
</trkpt>
<trkpt lat="30.7091095" lon="35.6897341">
<ele>1475.92</ele>
<time>2015-11-22T15:11:54Z</time>
</trkpt>
<trkpt lat="30.7091174" lon="35.6896509">
<ele>1476.88</ele>
<time>2015-11-22T15:11:56Z</time>
</trkpt>
<trkpt lat="30.7091256" lon="35.6895842">
<ele>1477.87</ele>
<time>2015-11-22T15:11:58Z</time>
</trkpt>
<trkpt lat="30.7091360" lon="35.6895206">
<ele>1478.11</ele>
<time>2015-11-22T15:12:00Z</time>
</trkpt>
<trkpt lat="30.7091447" lon="35.6894652">
<ele>1478.68</ele>
<time>2015-11-22T15:12:02Z</time>
</trkpt>
<trkpt lat="30.7091553" lon="35.6894084">
<ele>1479.07</ele>
<time>2015-11-22T15:12:04Z</time>
</trkpt>
<trkpt lat="30.7091633" lon="35.6893341">
<ele>1479.18</ele>
<time>2015-11-22T15:12:07Z</time>
</trkpt>
<trkpt lat="30.7091702" lon="35.6892583">
<ele>1479.19</ele>
<time>2015-11-22T15:12:10Z</time>
</trkpt>
<trkpt lat="30.7091770" lon="35.6891850">
<ele>1480.07</ele>
<time>2015-11-22T15:12:13Z</time>
</trkpt>
<trkpt lat="30.7091883" lon="35.6891115">
<ele>1480.93</ele>
<time>2015-11-22T15:12:16Z</time>
</trkpt>
<trkpt lat="30.7091989" lon="35.6890425">
<ele>1481.66</ele>
<time>2015-11-22T15:12:19Z</time>
</trkpt>
<trkpt lat="30.7092056" lon="35.6889839">
<ele>1481.25</ele>
<time>2015-11-22T15:12:22Z</time>
</trkpt>
<trkpt lat="30.7092119" lon="35.6889260">
<ele>1481.45</ele>
<time>2015-11-22T15:12:25Z</time>
</trkpt>
<trkpt lat="30.7092155" lon="35.6888677">
<ele>1481.73</ele>
<time>2015-11-22T15:12:28Z</time>
</trkpt>
<trkpt lat="30.7092181" lon="35.6888069">
<ele>1482.89</ele>
<time>2015-11-22T15:12:31Z</time>
</trkpt>
<trkpt lat="30.7092237" lon="35.6887488">
<ele>1483.91</ele>
<time>2015-11-22T15:12:34Z</time>
</trkpt>
<trkpt lat="30.7092320" lon="35.6886918">
<ele>1483.41</ele>
<time>2015-11-22T15:12:37Z</time>
</trkpt>
<trkpt lat="30.7092413" lon="35.6886354">
<ele>1483.97</ele>
<time>2015-11-22T15:12:40Z</time>
</trkpt>
<trkpt lat="30.7092447" lon="35.6885755">
<ele>1484.92</ele>
<time>2015-11-22T15:12:43Z</time>
</trkpt>
<trkpt lat="30.7092507" lon="35.6885163">
<ele>1485.16</ele>
<time>2015-11-22T15:12:46Z</time>
</trkpt>
<trkpt lat="30.7092652" lon="35.6884584">
<ele>1484.69</ele>
<time>2015-11-22T15:12:49Z</time>
</trkpt>
<trkpt lat="30.7092765" lon="35.6884022">
<ele>1485.01</ele>
<time>2015-11-22T15:12:52Z</time>
</trkpt>
<trkpt lat="30.7092808" lon="35.6883448">
<ele>1484.67</ele>
<time>2015-11-22T15:12:55Z</time>
</trkpt>
<trkpt lat="30.7092863" lon="35.6882865">
<ele>1485.13</ele>
<time>2015-11-22T15:12:58Z</time>
</trkpt>
<trkpt lat="30.7092896" lon="35.6882259">
<ele>1486.06</ele>
<time>2015-11-22T15:13:01Z</time>
</trkpt>
<trkpt lat="30.7092945" lon="35.6881666">
<ele>1486.68</ele>
<time>2015-11-22T15:13:04Z</time>
</trkpt>
<trkpt lat="30.7093066" lon="35.6881066">
<ele>1487.13</ele>
<time>2015-11-22T15:13:07Z</time>
</trkpt>
<trkpt lat="30.7093185" lon="35.6880472">
<ele>1487.19</ele>
<time>2015-11-22T15:13:10Z</time>
</trkpt>
<trkpt lat="30.7093328" lon="35.6879884">
<ele>1486.57</ele>
<time>2015-11-22T15:13:13Z</time>
</trkpt>
<trkpt lat="30.7093389" lon="35.6879289">
<ele>1484.87</ele>
<time>2015-11-22T15:13:16Z</time>
</trkpt>
<trkpt lat="30.7093456" lon="35.6878710">
<ele>1484.28</ele>
<time>2015-11-22T15:13:19Z</time>
</trkpt>
<trkpt lat="30.7093526" lon="35.6878147">
<ele>1484.33</ele>
<time>2015-11-22T15:13:22Z</time>
</trkpt>
<trkpt lat="30.7093669" lon="35.6877630">
<ele>1484.96</ele>
<time>2015-11-22T15:13:25Z</time>
</trkpt>
<trkpt lat="30.7093799" lon="35.6877089">
<ele>1486.79</ele>
<time>2015-11-22T15:13:28Z</time>
</trkpt>
<trkpt lat="30.7093907" lon="35.6876464">
<ele>1486.90</ele>
<time>2015-11-22T15:13:31Z</time>
</trkpt>
<trkpt lat="30.7094034" lon="35.6875835">
<ele>1486.41</ele>
<time>2015-11-22T15:13:34Z</time>
</trkpt>
<trkpt lat="30.7094063" lon="35.6875239">
<ele>1492.10</ele>
<time>2015-11-22T15:13:37Z</time>
</trkpt>
<trkpt lat="30.7094047" lon="35.6874664">
<ele>1494.68</ele>
<time>2015-11-22T15:13:40Z</time>
</trkpt>
<trkpt lat="30.7094142" lon="35.6873998">
<ele>1496.10</ele>
<time>2015-11-22T15:13:44Z</time>
</trkpt>
<trkpt lat="30.7094194" lon="35.6873428">
<ele>1497.06</ele>
<time>2015-11-22T15:13:47Z</time>
</trkpt>
<trkpt lat="30.7094261" lon="35.6872854">
<ele>1497.93</ele>
<time>2015-11-22T15:13:50Z</time>
</trkpt>
<trkpt lat="30.7094327" lon="35.6872260">
<ele>1498.16</ele>
<time>2015-11-22T15:13:53Z</time>
</trkpt>
<trkpt lat="30.7094387" lon="35.6871641">
<ele>1499.07</ele>
<time>2015-11-22T15:13:56Z</time>
</trkpt>
<trkpt lat="30.7094443" lon="35.6871011">
<ele>1499.93</ele>
<time>2015-11-22T15:13:59Z</time>
</trkpt>
<trkpt lat="30.7094522" lon="35.6870363">
<ele>1500.91</ele>
<time>2015-11-22T15:14:02Z</time>
</trkpt>
<trkpt lat="30.7094574" lon="35.6869786">
<ele>1501.16</ele>
<time>2015-11-22T15:14:05Z</time>
</trkpt>
<trkpt lat="30.7094659" lon="35.6869222">
<ele>1501.69</ele>
<time>2015-11-22T15:14:08Z</time>
</trkpt>
<trkpt lat="30.7094796" lon="35.6868628">
<ele>1502.13</ele>
<time>2015-11-22T15:14:11Z</time>
</trkpt>
<trkpt lat="30.7094961" lon="35.6868077">
<ele>1502.06</ele>
<time>2015-11-22T15:14:14Z</time>
</trkpt>
<trkpt lat="30.7095154" lon="35.6867417">
<ele>1502.19</ele>
<time>2015-11-22T15:14:18Z</time>
</trkpt>
<trkpt lat="30.7095214" lon="35.6866794">
<ele>1502.19</ele>
<time>2015-11-22T15:14:21Z</time>
</trkpt>
<trkpt lat="30.7095327" lon="35.6866280">
<ele>1502.70</ele>
<time>2015-11-22T15:14:23Z</time>
</trkpt>
<trkpt lat="30.7095454" lon="35.6865763">
<ele>1503.13</ele>
<time>2015-11-22T15:14:26Z</time>
</trkpt>
<trkpt lat="30.7095683" lon="35.6865103">
<ele>1503.69</ele>
<time>2015-11-22T15:14:30Z</time>
</trkpt>
<trkpt lat="30.7095853" lon="35.6864568">
<ele>1504.13</ele>
<time>2015-11-22T15:14:33Z</time>
</trkpt>
<trkpt lat="30.7096073" lon="35.6863984">
<ele>1504.19</ele>
<time>2015-11-22T15:14:36Z</time>
</trkpt>
<trkpt lat="30.7096380" lon="35.6863339">
<ele>1504.20</ele>
<time>2015-11-22T15:14:39Z</time>
</trkpt>
<trkpt lat="30.7096626" lon="35.6862703">
<ele>1504.20</ele>
<time>2015-11-22T15:14:42Z</time>
</trkpt>
<trkpt lat="30.7096857" lon="35.6862051">
<ele>1504.20</ele>
<time>2015-11-22T15:14:45Z</time>
</trkpt>
<trkpt lat="30.7097063" lon="35.6861398">
<ele>1504.20</ele>
<time>2015-11-22T15:14:48Z</time>
</trkpt>
<trkpt lat="30.7097256" lon="35.6860816">
<ele>1504.20</ele>
<time>2015-11-22T15:14:51Z</time>
</trkpt>
<trkpt lat="30.7097528" lon="35.6860188">
<ele>1504.20</ele>
<time>2015-11-22T15:14:54Z</time>
</trkpt>
<trkpt lat="30.7097720" lon="35.6859700">
<ele>1504.20</ele>
<time>2015-11-22T15:14:56Z</time>
</trkpt>
<trkpt lat="30.7097884" lon="35.6859211">
<ele>1504.70</ele>
<time>2015-11-22T15:14:58Z</time>
</trkpt>
<trkpt lat="30.7098058" lon="35.6858520">
<ele>1505.88</ele>
<time>2015-11-22T15:15:01Z</time>
</trkpt>
<trkpt lat="30.7098291" lon="35.6857930">
<ele>1505.78</ele>
<time>2015-11-22T15:15:04Z</time>
</trkpt>
<trkpt lat="30.7098420" lon="35.6857392">
<ele>1507.77</ele>
<time>2015-11-22T15:15:07Z</time>
</trkpt>
<trkpt lat="30.7098623" lon="35.6856915">
<ele>1509.39</ele>
<time>2015-11-22T15:15:10Z</time>
</trkpt>
<trkpt lat="30.7098738" lon="35.6856399">
<ele>1510.10</ele>
<time>2015-11-22T15:15:13Z</time>
</trkpt>
<trkpt lat="30.7098951" lon="35.6855839">
<ele>1510.06</ele>
<time>2015-11-22T15:15:16Z</time>
</trkpt>
<trkpt lat="30.7099158" lon="35.6855239">
<ele>1510.18</ele>
<time>2015-11-22T15:15:19Z</time>
</trkpt>
<trkpt lat="30.7099337" lon="35.6854524">
<ele>1509.44</ele>
<time>2015-11-22T15:15:22Z</time>
</trkpt>
<trkpt lat="30.7099493" lon="35.6854016">
<ele>1508.76</ele>
<time>2015-11-22T15:15:24Z</time>
</trkpt>
<trkpt lat="30.7099681" lon="35.6853474">
<ele>1508.84</ele>
<time>2015-11-22T15:15:26Z</time>
</trkpt>
<trkpt lat="30.7099847" lon="35.6852891">
<ele>1508.36</ele>
<time>2015-11-22T15:15:28Z</time>
</trkpt>
<trkpt lat="30.7099993" lon="35.6852250">
<ele>1508.24</ele>
<time>2015-11-22T15:15:30Z</time>
</trkpt>
<trkpt lat="30.7100146" lon="35.6851550">
<ele>1507.46</ele>
<time>2015-11-22T15:15:32Z</time>
</trkpt>
<trkpt lat="30.7100358" lon="35.6850737">
<ele>1507.26</ele>
<time>2015-11-22T15:15:34Z</time>
</trkpt>
<trkpt lat="30.7100569" lon="35.6849892">
<ele>1507.96</ele>
<time>2015-11-22T15:15:36Z</time>
</trkpt>
<trkpt lat="30.7100735" lon="35.6849042">
<ele>1508.14</ele>
<time>2015-11-22T15:15:38Z</time>
</trkpt>
<trkpt lat="30.7100878" lon="35.6848189">
<ele>1508.18</ele>
<time>2015-11-22T15:15:40Z</time>
</trkpt>
<trkpt lat="30.7100984" lon="35.6847311">
<ele>1507.69</ele>
<time>2015-11-22T15:15:42Z</time>
</trkpt>
<trkpt lat="30.7101078" lon="35.6846368">
<ele>1506.82</ele>
<time>2015-11-22T15:15:44Z</time>
</trkpt>
<trkpt lat="30.7101081" lon="35.6845520">
<ele>1507.01</ele>
<time>2015-11-22T15:15:45Z</time>
</trkpt>
<trkpt lat="30.7101132" lon="35.6844939">
<ele>1507.10</ele>
<time>2015-11-22T15:15:46Z</time>
</trkpt>
<trkpt lat="30.7101169" lon="35.6844374">
<ele>1506.65</ele>
<time>2015-11-22T15:15:47Z</time>
</trkpt>
<trkpt lat="30.7101282" lon="35.6843744">
<ele>1505.92</ele>
<time>2015-11-22T15:15:48Z</time>
</trkpt>
<trkpt lat="30.7101314" lon="35.6843071">
<ele>1505.06</ele>
<time>2015-11-22T15:15:49Z</time>
</trkpt>
<trkpt lat="30.7101466" lon="35.6842386">
<ele>1504.63</ele>
<time>2015-11-22T15:15:50Z</time>
</trkpt>
<trkpt lat="30.7101510" lon="35.6841765">
<ele>1503.91</ele>
<time>2015-11-22T15:15:51Z</time>
</trkpt>
<trkpt lat="30.7101644" lon="35.6840965">
<ele>1503.05</ele>
<time>2015-11-22T15:15:52Z</time>
</trkpt>
<trkpt lat="30.7101637" lon="35.6840147">
<ele>1502.12</ele>
<time>2015-11-22T15:15:53Z</time>
</trkpt>
<trkpt lat="30.7101654" lon="35.6839282">
<ele>1501.66</ele>
<time>2015-11-22T15:15:54Z</time>
</trkpt>
<trkpt lat="30.7101738" lon="35.6838360">
<ele>1501.43</ele>
<time>2015-11-22T15:15:55Z</time>
</trkpt>
<trkpt lat="30.7101870" lon="35.6837433">
<ele>1501.31</ele>
<time>2015-11-22T15:15:56Z</time>
</trkpt>
<trkpt lat="30.7101968" lon="35.6836536">
<ele>1500.75</ele>
<time>2015-11-22T15:15:57Z</time>
</trkpt>
<trkpt lat="30.7102064" lon="35.6835566">
<ele>1500.47</ele>
<time>2015-11-22T15:15:58Z</time>
</trkpt>
<trkpt lat="30.7102224" lon="35.6834552">
<ele>1500.84</ele>
<time>2015-11-22T15:15:59Z</time>
</trkpt>
<trkpt lat="30.7102553" lon="35.6833536">
<ele>1500.52</ele>
<time>2015-11-22T15:16:00Z</time>
</trkpt>
<trkpt lat="30.7102747" lon="35.6832508">
<ele>1499.86</ele>
<time>2015-11-22T15:16:01Z</time>
</trkpt>
<trkpt lat="30.7103046" lon="35.6831414">
<ele>1499.53</ele>
<time>2015-11-22T15:16:02Z</time>
</trkpt>
<trkpt lat="30.7103347" lon="35.6830318">
<ele>1498.36</ele>
<time>2015-11-22T15:16:03Z</time>
</trkpt>
<trkpt lat="30.7103749" lon="35.6829217">
<ele>1497.78</ele>
<time>2015-11-22T15:16:04Z</time>
</trkpt>
<trkpt lat="30.7104069" lon="35.6828132">
<ele>1496.99</ele>
<time>2015-11-22T15:16:05Z</time>
</trkpt>
<trkpt lat="30.7104504" lon="35.6827020">
<ele>1495.59</ele>
<time>2015-11-22T15:16:06Z</time>
</trkpt>
<trkpt lat="30.7105094" lon="35.6825792">
<ele>1494.89</ele>
<time>2015-11-22T15:16:07Z</time>
</trkpt>
<trkpt lat="30.7105486" lon="35.6824601">
<ele>1493.54</ele>
<time>2015-11-22T15:16:08Z</time>
</trkpt>
<trkpt lat="30.7106011" lon="35.6823362">
<ele>1492.37</ele>
<time>2015-11-22T15:16:09Z</time>
</trkpt>
<trkpt lat="30.7106515" lon="35.6822070">
<ele>1490.78</ele>
<time>2015-11-22T15:16:10Z</time>
</trkpt>
<trkpt lat="30.7107023" lon="35.6820710">
<ele>1489.49</ele>
<time>2015-11-22T15:16:11Z</time>
</trkpt>
<trkpt lat="30.7107636" lon="35.6819398">
<ele>1488.34</ele>
<time>2015-11-22T15:16:12Z</time>
</trkpt>
<trkpt lat="30.7108271" lon="35.6818049">
<ele>1486.77</ele>
<time>2015-11-22T15:16:13Z</time>
</trkpt>
<trkpt lat="30.7108868" lon="35.6816663">
<ele>1484.98</ele>
<time>2015-11-22T15:16:14Z</time>
</trkpt>
<trkpt lat="30.7109466" lon="35.6815228">
<ele>1483.59</ele>
<time>2015-11-22T15:16:15Z</time>
</trkpt>
<trkpt lat="30.7110106" lon="35.6813765">
<ele>1481.89</ele>
<time>2015-11-22T15:16:16Z</time>
</trkpt>
<trkpt lat="30.7110728" lon="35.6812208">
<ele>1480.54</ele>
<time>2015-11-22T15:16:17Z</time>
</trkpt>
<trkpt lat="30.7111342" lon="35.6810688">
<ele>1478.87</ele>
<time>2015-11-22T15:16:18Z</time>
</trkpt>
<trkpt lat="30.7111996" lon="35.6809088">
<ele>1477.03</ele>
<time>2015-11-22T15:16:19Z</time>
</trkpt>
<trkpt lat="30.7112671" lon="35.6807483">
<ele>1475.11</ele>
<time>2015-11-22T15:16:20Z</time>
</trkpt>
<trkpt lat="30.7113358" lon="35.6805873">
<ele>1473.16</ele>
<time>2015-11-22T15:16:21Z</time>
</trkpt>
<trkpt lat="30.7114056" lon="35.6804222">
<ele>1471.18</ele>
<time>2015-11-22T15:16:22Z</time>
</trkpt>
<trkpt lat="30.7114646" lon="35.6802536">
<ele>1470.19</ele>
<time>2015-11-22T15:16:23Z</time>
</trkpt>
<trkpt lat="30.7115273" lon="35.6800816">
<ele>1469.69</ele>
<time>2015-11-22T15:16:24Z</time>
</trkpt>
<trkpt lat="30.7115779" lon="35.6799038">
<ele>1469.44</ele>
<time>2015-11-22T15:16:25Z</time>
</trkpt>
<trkpt lat="30.7116216" lon="35.6797297">
<ele>1469.32</ele>
<time>2015-11-22T15:16:26Z</time>
</trkpt>
<trkpt lat="30.7116450" lon="35.6795538">
<ele>1469.26</ele>
<time>2015-11-22T15:16:27Z</time>
</trkpt>
<trkpt lat="30.7116593" lon="35.6793836">
<ele>1468.73</ele>
<time>2015-11-22T15:16:28Z</time>
</trkpt>
<trkpt lat="30.7116654" lon="35.6792120">
<ele>1468.96</ele>
<time>2015-11-22T15:16:29Z</time>
</trkpt>
<trkpt lat="30.7116628" lon="35.6790516">
<ele>1469.08</ele>
<time>2015-11-22T15:16:30Z</time>
</trkpt>
<trkpt lat="30.7116599" lon="35.6788911">
<ele>1469.14</ele>
<time>2015-11-22T15:16:31Z</time>
</trkpt>
<trkpt lat="30.7116571" lon="35.6787457">
<ele>1469.17</ele>
<time>2015-11-22T15:16:32Z</time>
</trkpt>
<trkpt lat="30.7116569" lon="35.6785906">
<ele>1469.18</ele>
<time>2015-11-22T15:16:33Z</time>
</trkpt>
<trkpt lat="30.7116687" lon="35.6784457">
<ele>1469.69</ele>
<time>2015-11-22T15:16:34Z</time>
</trkpt>
<trkpt lat="30.7116687" lon="35.6783018">
<ele>1470.44</ele>
<time>2015-11-22T15:16:35Z</time>
</trkpt>
<trkpt lat="30.7116746" lon="35.6781622">
<ele>1470.82</ele>
<time>2015-11-22T15:16:36Z</time>
</trkpt>
<trkpt lat="30.7116698" lon="35.6780336">
<ele>1471.01</ele>
<time>2015-11-22T15:16:37Z</time>
</trkpt>
<trkpt lat="30.7116752" lon="35.6779128">
<ele>1471.10</ele>
<time>2015-11-22T15:16:38Z</time>
</trkpt>
<trkpt lat="30.7116838" lon="35.6777877">
<ele>1471.15</ele>
<time>2015-11-22T15:16:39Z</time>
</trkpt>
<trkpt lat="30.7116868" lon="35.6776849">
<ele>1471.17</ele>
<time>2015-11-22T15:16:40Z</time>
</trkpt>
<trkpt lat="30.7116956" lon="35.6775887">
<ele>1471.68</ele>
<time>2015-11-22T15:16:41Z</time>
</trkpt>
<trkpt lat="30.7117008" lon="35.6775029">
<ele>1471.94</ele>
<time>2015-11-22T15:16:42Z</time>
</trkpt>
<trkpt lat="30.7117078" lon="35.6774210">
<ele>1472.57</ele>
<time>2015-11-22T15:16:43Z</time>
</trkpt>
<trkpt lat="30.7117176" lon="35.6773482">
<ele>1473.38</ele>
<time>2015-11-22T15:16:44Z</time>
</trkpt>
<trkpt lat="30.7117292" lon="35.6772792">
<ele>1473.29</ele>
<time>2015-11-22T15:16:45Z</time>
</trkpt>
<trkpt lat="30.7117730" lon="35.6771858">
<ele>1473.97</ele>
<time>2015-11-22T15:16:47Z</time>
</trkpt>
<trkpt lat="30.7117729" lon="35.6771198">
<ele>1474.14</ele>
<time>2015-11-22T15:16:49Z</time>
</trkpt>
<trkpt lat="30.7117347" lon="35.6770878">
<ele>1474.19</ele>
<time>2015-11-22T15:16:52Z</time>
</trkpt>
<trkpt lat="30.7116881" lon="35.6770971">
<ele>1473.44</ele>
<time>2015-11-22T15:16:54Z</time>
</trkpt>
<trkpt lat="30.7116210" lon="35.6771093">
<ele>1473.23</ele>
<time>2015-11-22T15:16:57Z</time>
</trkpt>
<trkpt lat="30.7115688" lon="35.6771139">
<ele>1473.20</ele>
<time>2015-11-22T15:16:59Z</time>
</trkpt>
<trkpt lat="30.7115241" lon="35.6771200">
<ele>1473.20</ele>
<time>2015-11-22T15:17:01Z</time>
</trkpt>
<trkpt lat="30.7114680" lon="35.6771179">
<ele>1473.20</ele>
<time>2015-11-22T15:17:04Z</time>
</trkpt>
<trkpt lat="30.7114228" lon="35.6771164">
<ele>1473.20</ele>
<time>2015-11-22T15:17:07Z</time>
</trkpt>
<trkpt lat="30.7113763" lon="35.6771101">
<ele>1473.32</ele>
<time>2015-11-22T15:17:10Z</time>
</trkpt>
<trkpt lat="30.7113200" lon="35.6771103">
<ele>1473.71</ele>
<time>2015-11-22T15:17:13Z</time>
</trkpt>
<trkpt lat="30.7112749" lon="35.6771129">
<ele>1474.07</ele>
<time>2015-11-22T15:17:15Z</time>
</trkpt>
<trkpt lat="30.7112274" lon="35.6771166">
<ele>1474.17</ele>
<time>2015-11-22T15:17:17Z</time>
</trkpt>
<trkpt lat="30.7111750" lon="35.6771189">
<ele>1473.44</ele>
<time>2015-11-22T15:17:19Z</time>
</trkpt>
<trkpt lat="30.7111203" lon="35.6771228">
<ele>1473.76</ele>
<time>2015-11-22T15:17:21Z</time>
</trkpt>
<trkpt lat="30.7110602" lon="35.6771217">
<ele>1473.34</ele>
<time>2015-11-22T15:17:23Z</time>
</trkpt>
<trkpt lat="30.7109969" lon="35.6771165">
<ele>1472.48</ele>
<time>2015-11-22T15:17:25Z</time>
</trkpt>
<trkpt lat="30.7109236" lon="35.6771148">
<ele>1473.02</ele>
<time>2015-11-22T15:17:27Z</time>
</trkpt>
<trkpt lat="30.7108488" lon="35.6771135">
<ele>1473.15</ele>
<time>2015-11-22T15:17:29Z</time>
</trkpt>
<trkpt lat="30.7107716" lon="35.6771043">
<ele>1473.18</ele>
<time>2015-11-22T15:17:31Z</time>
</trkpt>
<trkpt lat="30.7106940" lon="35.6770870">
<ele>1473.69</ele>
<time>2015-11-22T15:17:33Z</time>
</trkpt>
<trkpt lat="30.7106244" lon="35.6770763">
<ele>1474.07</ele>
<time>2015-11-22T15:17:35Z</time>
</trkpt>
<trkpt lat="30.7105708" lon="35.6770699">
<ele>1474.16</ele>
<time>2015-11-22T15:17:37Z</time>
</trkpt>
<trkpt lat="30.7105051" lon="35.6770666">
<ele>1473.94</ele>
<time>2015-11-22T15:17:40Z</time>
</trkpt>
<trkpt lat="30.7104556" lon="35.6770680">
<ele>1474.13</ele>
<time>2015-11-22T15:17:42Z</time>
</trkpt>
<trkpt lat="30.7103999" lon="35.6770733">
<ele>1474.18</ele>
<time>2015-11-22T15:17:44Z</time>
</trkpt>
<trkpt lat="30.7103415" lon="35.6770794">
<ele>1474.69</ele>
<time>2015-11-22T15:17:46Z</time>
</trkpt>
<trkpt lat="30.7102881" lon="35.6770897">
<ele>1475.57</ele>
<time>2015-11-22T15:17:48Z</time>
</trkpt>
<trkpt lat="30.7102392" lon="35.6771047">
<ele>1475.29</ele>
<time>2015-11-22T15:17:50Z</time>
</trkpt>
<trkpt lat="30.7101878" lon="35.6771203">
<ele>1475.22</ele>
<time>2015-11-22T15:17:52Z</time>
</trkpt>
<trkpt lat="30.7101320" lon="35.6771335">
<ele>1475.20</ele>
<time>2015-11-22T15:17:54Z</time>
</trkpt>
<trkpt lat="30.7100769" lon="35.6771482">
<ele>1475.70</ele>
<time>2015-11-22T15:17:56Z</time>
</trkpt>
<trkpt lat="30.7100222" lon="35.6771644">
<ele>1476.07</ele>
<time>2015-11-22T15:17:58Z</time>
</trkpt>
<trkpt lat="30.7099667" lon="35.6771800">
<ele>1476.16</ele>
<time>2015-11-22T15:18:00Z</time>
</trkpt>
<trkpt lat="30.7099097" lon="35.6771955">
<ele>1476.19</ele>
<time>2015-11-22T15:18:02Z</time>
</trkpt>
<trkpt lat="30.7098508" lon="35.6772072">
<ele>1476.19</ele>
<time>2015-11-22T15:18:04Z</time>
</trkpt>
<trkpt lat="30.7097906" lon="35.6772169">
<ele>1476.70</ele>
<time>2015-11-22T15:18:06Z</time>
</trkpt>
<trkpt lat="30.7097323" lon="35.6772218">
<ele>1477.07</ele>
<time>2015-11-22T15:18:08Z</time>
</trkpt>
<trkpt lat="30.7096750" lon="35.6772244">
<ele>1477.16</ele>
<time>2015-11-22T15:18:10Z</time>
</trkpt>
<trkpt lat="30.7096202" lon="35.6772238">
<ele>1477.69</ele>
<time>2015-11-22T15:18:12Z</time>
</trkpt>
<trkpt lat="30.7095670" lon="35.6772210">
<ele>1478.07</ele>
<time>2015-11-22T15:18:14Z</time>
</trkpt>
<trkpt lat="30.7095153" lon="35.6772181">
<ele>1478.16</ele>
<time>2015-11-22T15:18:16Z</time>
</trkpt>
<trkpt lat="30.7094621" lon="35.6772166">
<ele>1478.19</ele>
<time>2015-11-22T15:18:18Z</time>
</trkpt>
<trkpt lat="30.7094093" lon="35.6772186">
<ele>1478.19</ele>
<time>2015-11-22T15:18:20Z</time>
</trkpt>
<trkpt lat="30.7093569" lon="35.6772199">
<ele>1478.20</ele>
<time>2015-11-22T15:18:22Z</time>
</trkpt>
<trkpt lat="30.7093064" lon="35.6772136">
<ele>1478.20</ele>
<time>2015-11-22T15:18:24Z</time>
</trkpt>
<trkpt lat="30.7092596" lon="35.6772076">
<ele>1478.20</ele>
<time>2015-11-22T15:18:26Z</time>
</trkpt>
<trkpt lat="30.7091968" lon="35.6772018">
<ele>1478.20</ele>
<time>2015-11-22T15:18:29Z</time>
</trkpt>
<trkpt lat="30.7091324" lon="35.6772000">
<ele>1478.70</ele>
<time>2015-11-22T15:18:32Z</time>
</trkpt>
<trkpt lat="30.7090700" lon="35.6771976">
<ele>1479.88</ele>
<time>2015-11-22T15:18:35Z</time>
</trkpt>
<trkpt lat="30.7090078" lon="35.6771930">
<ele>1479.53</ele>
<time>2015-11-22T15:18:38Z</time>
</trkpt>
<trkpt lat="30.7089463" lon="35.6771928">
<ele>1479.49</ele>
<time>2015-11-22T15:18:41Z</time>
</trkpt>
<trkpt lat="30.7088889" lon="35.6771977">
<ele>1480.11</ele>
<time>2015-11-22T15:18:44Z</time>
</trkpt>
<trkpt lat="30.7088357" lon="35.6772092">
<ele>1480.68</ele>
<time>2015-11-22T15:18:47Z</time>
</trkpt>
<trkpt lat="30.7087795" lon="35.6772211">
<ele>1480.63</ele>
<time>2015-11-22T15:18:50Z</time>
</trkpt>
<trkpt lat="30.7087256" lon="35.6772364">
<ele>1480.25</ele>
<time>2015-11-22T15:18:53Z</time>
</trkpt>
<trkpt lat="30.7086646" lon="35.6772502">
<ele>1480.20</ele>
<time>2015-11-22T15:18:56Z</time>
</trkpt>
<trkpt lat="30.7086176" lon="35.6772566">
<ele>1480.45</ele>
<time>2015-11-22T15:18:58Z</time>
</trkpt>
<trkpt lat="30.7085713" lon="35.6772661">
<ele>1480.26</ele>
<time>2015-11-22T15:19:00Z</time>
</trkpt>
<trkpt lat="30.7085234" lon="35.6772705">
<ele>1480.71</ele>
<time>2015-11-22T15:19:02Z</time>
</trkpt>
<trkpt lat="30.7084733" lon="35.6772753">
<ele>1480.57</ele>
<time>2015-11-22T15:19:04Z</time>
</trkpt>
<trkpt lat="30.7084205" lon="35.6772786">
<ele>1480.29</ele>
<time>2015-11-22T15:19:06Z</time>
</trkpt>
<trkpt lat="30.7083672" lon="35.6772777">
<ele>1480.22</ele>
<time>2015-11-22T15:19:08Z</time>
</trkpt>
<trkpt lat="30.7083141" lon="35.6772747">
<ele>1480.20</ele>
<time>2015-11-22T15:19:10Z</time>
</trkpt>
<trkpt lat="30.7082570" lon="35.6772719">
<ele>1480.20</ele>
<time>2015-11-22T15:19:12Z</time>
</trkpt>
<trkpt lat="30.7081998" lon="35.6772694">
<ele>1480.20</ele>
<time>2015-11-22T15:19:14Z</time>
</trkpt>
<trkpt lat="30.7081439" lon="35.6772727">
<ele>1479.70</ele>
<time>2015-11-22T15:19:16Z</time>
</trkpt>
<trkpt lat="30.7080809" lon="35.6772829">
<ele>1479.32</ele>
<time>2015-11-22T15:19:18Z</time>
</trkpt>
<trkpt lat="30.7080033" lon="35.6772950">
<ele>1479.23</ele>
<time>2015-11-22T15:19:20Z</time>
</trkpt>
<trkpt lat="30.7079189" lon="35.6773026">
<ele>1479.20</ele>
<time>2015-11-22T15:19:22Z</time>
</trkpt>
<trkpt lat="30.7078318" lon="35.6773120">
<ele>1479.20</ele>
<time>2015-11-22T15:19:24Z</time>
</trkpt>
<trkpt lat="30.7077428" lon="35.6773201">
<ele>1479.95</ele>
<time>2015-11-22T15:19:26Z</time>
</trkpt>
<trkpt lat="30.7076545" lon="35.6773288">
<ele>1480.13</ele>
<time>2015-11-22T15:19:28Z</time>
</trkpt>
<trkpt lat="30.7075659" lon="35.6773376">
<ele>1480.18</ele>
<time>2015-11-22T15:19:30Z</time>
</trkpt>
<trkpt lat="30.7074782" lon="35.6773456">
<ele>1480.19</ele>
<time>2015-11-22T15:19:32Z</time>
</trkpt>
<trkpt lat="30.7073930" lon="35.6773541">
<ele>1480.45</ele>
<time>2015-11-22T15:19:34Z</time>
</trkpt>
<trkpt lat="30.7073086" lon="35.6773643">
<ele>1480.76</ele>
<time>2015-11-22T15:19:36Z</time>
</trkpt>
<trkpt lat="30.7072248" lon="35.6773769">
<ele>1481.59</ele>
<time>2015-11-22T15:19:38Z</time>
</trkpt>
<trkpt lat="30.7071416" lon="35.6773906">
<ele>1482.04</ele>
<time>2015-11-22T15:19:40Z</time>
</trkpt>
<trkpt lat="30.7070612" lon="35.6774019">
<ele>1482.66</ele>
<time>2015-11-22T15:19:42Z</time>
</trkpt>
<trkpt lat="30.7069802" lon="35.6774119">
<ele>1483.06</ele>
<time>2015-11-22T15:19:44Z</time>
</trkpt>
<trkpt lat="30.7068983" lon="35.6774282">
<ele>1481.91</ele>
<time>2015-11-22T15:19:46Z</time>
</trkpt>
<trkpt lat="30.7068189" lon="35.6774388">
<ele>1482.13</ele>
<time>2015-11-22T15:19:48Z</time>
</trkpt>
<trkpt lat="30.7067394" lon="35.6774501">
<ele>1481.68</ele>
<time>2015-11-22T15:19:50Z</time>
</trkpt>
<trkpt lat="30.7066601" lon="35.6774596">
<ele>1481.32</ele>
<time>2015-11-22T15:19:52Z</time>
</trkpt>
<trkpt lat="30.7065841" lon="35.6774640">
<ele>1481.98</ele>
<time>2015-11-22T15:19:54Z</time>
</trkpt>
<trkpt lat="30.7065120" lon="35.6774666">
<ele>1481.64</ele>
<time>2015-11-22T15:19:56Z</time>
</trkpt>
<trkpt lat="30.7064429" lon="35.6774754">
<ele>1482.06</ele>
<time>2015-11-22T15:19:58Z</time>
</trkpt>
<trkpt lat="30.7063762" lon="35.6774809">
<ele>1482.16</ele>
<time>2015-11-22T15:20:00Z</time>
</trkpt>
<trkpt lat="30.7063112" lon="35.6774829">
<ele>1482.19</ele>
<time>2015-11-22T15:20:02Z</time>
</trkpt>
<trkpt lat="30.7062483" lon="35.6774899">
<ele>1482.69</ele>
<time>2015-11-22T15:20:04Z</time>
</trkpt>
<trkpt lat="30.7061851" lon="35.6774932">
<ele>1483.07</ele>
<time>2015-11-22T15:20:06Z</time>
</trkpt>
<trkpt lat="30.7061235" lon="35.6774998">
<ele>1483.16</ele>
<time>2015-11-22T15:20:08Z</time>
</trkpt>
<trkpt lat="30.7060714" lon="35.6775083">
<ele>1483.19</ele>
<time>2015-11-22T15:20:10Z</time>
</trkpt>
<trkpt lat="30.7060254" lon="35.6775150">
<ele>1483.19</ele>
<time>2015-11-22T15:20:12Z</time>
</trkpt>
<trkpt lat="30.7059730" lon="35.6775234">
<ele>1483.20</ele>
<time>2015-11-22T15:20:14Z</time>
</trkpt>
<trkpt lat="30.7059169" lon="35.6775349">
<ele>1483.20</ele>
<time>2015-11-22T15:20:16Z</time>
</trkpt>
<trkpt lat="30.7058598" lon="35.6775528">
<ele>1482.95</ele>
<time>2015-11-22T15:20:18Z</time>
</trkpt>
<trkpt lat="30.7058008" lon="35.6775690">
<ele>1483.88</ele>
<time>2015-11-22T15:20:20Z</time>
</trkpt>
<trkpt lat="30.7057414" lon="35.6775826">
<ele>1484.12</ele>
<time>2015-11-22T15:20:22Z</time>
</trkpt>
<trkpt lat="30.7056796" lon="35.6775951">
<ele>1484.68</ele>
<time>2015-11-22T15:20:24Z</time>
</trkpt>
<trkpt lat="30.7056168" lon="35.6776062">
<ele>1484.82</ele>
<time>2015-11-22T15:20:26Z</time>
</trkpt>
<trkpt lat="30.7055559" lon="35.6776188">
<ele>1484.60</ele>
<time>2015-11-22T15:20:28Z</time>
</trkpt>
<trkpt lat="30.7054952" lon="35.6776339">
<ele>1485.05</ele>
<time>2015-11-22T15:20:30Z</time>
</trkpt>
<trkpt lat="30.7054358" lon="35.6776478">
<ele>1485.66</ele>
<time>2015-11-22T15:20:32Z</time>
</trkpt>
<trkpt lat="30.7053763" lon="35.6776581">
<ele>1484.81</ele>
<time>2015-11-22T15:20:34Z</time>
</trkpt>
<trkpt lat="30.7053166" lon="35.6776736">
<ele>1483.85</ele>
<time>2015-11-22T15:20:36Z</time>
</trkpt>
<trkpt lat="30.7052551" lon="35.6776889">
<ele>1483.36</ele>
<time>2015-11-22T15:20:38Z</time>
</trkpt>
<trkpt lat="30.7051928" lon="35.6777023">
<ele>1483.74</ele>
<time>2015-11-22T15:20:40Z</time>
</trkpt>
<trkpt lat="30.7051329" lon="35.6777185">
<ele>1483.58</ele>
<time>2015-11-22T15:20:42Z</time>
</trkpt>
<trkpt lat="30.7050752" lon="35.6777331">
<ele>1484.04</ele>
<time>2015-11-22T15:20:44Z</time>
</trkpt>
<trkpt lat="30.7050230" lon="35.6777507">
<ele>1484.16</ele>
<time>2015-11-22T15:20:46Z</time>
</trkpt>
<trkpt lat="30.7049748" lon="35.6777705">
<ele>1484.44</ele>
<time>2015-11-22T15:20:48Z</time>
</trkpt>
<trkpt lat="30.7049273" lon="35.6777857">
<ele>1484.26</ele>
<time>2015-11-22T15:20:50Z</time>
</trkpt>
<trkpt lat="30.7048795" lon="35.6777977">
<ele>1484.21</ele>
<time>2015-11-22T15:20:52Z</time>
</trkpt>
<trkpt lat="30.7048318" lon="35.6778126">
<ele>1484.95</ele>
<time>2015-11-22T15:20:54Z</time>
</trkpt>
<trkpt lat="30.7047854" lon="35.6778296">
<ele>1485.13</ele>
<time>2015-11-22T15:20:56Z</time>
</trkpt>
<trkpt lat="30.7047416" lon="35.6778488">
<ele>1483.93</ele>
<time>2015-11-22T15:20:58Z</time>
</trkpt>
<trkpt lat="30.7046794" lon="35.6778696">
<ele>1482.91</ele>
<time>2015-11-22T15:21:01Z</time>
</trkpt>
<trkpt lat="30.7046283" lon="35.6778795">
<ele>1483.12</ele>
<time>2015-11-22T15:21:05Z</time>
</trkpt>
<trkpt lat="30.7045777" lon="35.6778870">
<ele>1483.94</ele>
<time>2015-11-22T15:21:09Z</time>
</trkpt>
<trkpt lat="30.7045230" lon="35.6778955">
<ele>1485.62</ele>
<time>2015-11-22T15:21:13Z</time>
</trkpt>
<trkpt lat="30.7044650" lon="35.6779056">
<ele>1484.53</ele>
<time>2015-11-22T15:21:17Z</time>
</trkpt>
<trkpt lat="30.7044195" lon="35.6779142">
<ele>1484.86</ele>
<time>2015-11-22T15:21:20Z</time>
</trkpt>
<trkpt lat="30.7043668" lon="35.6779150">
<ele>1485.90</ele>
<time>2015-11-22T15:21:23Z</time>
</trkpt>
<trkpt lat="30.7043134" lon="35.6779206">
<ele>1486.16</ele>
<time>2015-11-22T15:21:26Z</time>
</trkpt>
<trkpt lat="30.7042596" lon="35.6779263">
<ele>1493.57</ele>
<time>2015-11-22T15:21:29Z</time>
</trkpt>
<trkpt lat="30.7042103" lon="35.6779341">
<ele>1499.37</ele>
<time>2015-11-22T15:21:32Z</time>
</trkpt>
<trkpt lat="30.7041619" lon="35.6779411">
<ele>1501.72</ele>
<time>2015-11-22T15:21:35Z</time>
</trkpt>
<trkpt lat="30.7041024" lon="35.6779544">
<ele>1502.17</ele>
<time>2015-11-22T15:21:39Z</time>
</trkpt>
<trkpt lat="30.7040552" lon="35.6779661">
<ele>1503.44</ele>
<time>2015-11-22T15:21:42Z</time>
</trkpt>
<trkpt lat="30.7040040" lon="35.6779827">
<ele>1504.60</ele>
<time>2015-11-22T15:21:45Z</time>
</trkpt>
<trkpt lat="30.7039487" lon="35.6779959">
<ele>1505.12</ele>
<time>2015-11-22T15:21:48Z</time>
</trkpt>
<trkpt lat="30.7038939" lon="35.6780053">
<ele>1504.56</ele>
<time>2015-11-22T15:21:51Z</time>
</trkpt>
<trkpt lat="30.7038401" lon="35.6780136">
<ele>1504.87</ele>
<time>2015-11-22T15:21:54Z</time>
</trkpt>
<trkpt lat="30.7037870" lon="35.6780255">
<ele>1505.15</ele>
<time>2015-11-22T15:21:57Z</time>
</trkpt>
<trkpt lat="30.7037391" lon="35.6780393">
<ele>1504.94</ele>
<time>2015-11-22T15:22:00Z</time>
</trkpt>
<trkpt lat="30.7036900" lon="35.6780480">
<ele>1505.66</ele>
<time>2015-11-22T15:22:03Z</time>
</trkpt>
<trkpt lat="30.7036400" lon="35.6780639">
<ele>1506.13</ele>
<time>2015-11-22T15:22:06Z</time>
</trkpt>
<trkpt lat="30.7035858" lon="35.6780767">
<ele>1506.19</ele>
<time>2015-11-22T15:22:10Z</time>
</trkpt>
<trkpt lat="30.7035444" lon="35.6781000">
<ele>1506.95</ele>
<time>2015-11-22T15:22:13Z</time>
</trkpt>
<trkpt lat="30.7034966" lon="35.6781151">
<ele>1507.16</ele>
<time>2015-11-22T15:22:16Z</time>
</trkpt>
<trkpt lat="30.7034436" lon="35.6781237">
<ele>1507.69</ele>
<time>2015-11-22T15:22:19Z</time>
</trkpt>
<trkpt lat="30.7033935" lon="35.6781358">
<ele>1508.13</ele>
<time>2015-11-22T15:22:22Z</time>
</trkpt>
<trkpt lat="30.7033426" lon="35.6781432">
<ele>1508.19</ele>
<time>2015-11-22T15:22:25Z</time>
</trkpt>
<trkpt lat="30.7032920" lon="35.6781518">
<ele>1508.20</ele>
<time>2015-11-22T15:22:28Z</time>
</trkpt>
<trkpt lat="30.7032423" lon="35.6781610">
<ele>1508.95</ele>
<time>2015-11-22T15:22:31Z</time>
</trkpt>
<trkpt lat="30.7031919" lon="35.6781665">
<ele>1509.16</ele>
<time>2015-11-22T15:22:34Z</time>
</trkpt>
<trkpt lat="30.7031376" lon="35.6781663">
<ele>1509.19</ele>
<time>2015-11-22T15:22:37Z</time>
</trkpt>
<trkpt lat="30.7030922" lon="35.6781673">
<ele>1509.20</ele>
<time>2015-11-22T15:22:39Z</time>
</trkpt>
<trkpt lat="30.7030372" lon="35.6781671">
<ele>1509.20</ele>
<time>2015-11-22T15:22:42Z</time>
</trkpt>
<trkpt lat="30.7029840" lon="35.6781653">
<ele>1509.70</ele>
<time>2015-11-22T15:22:45Z</time>
</trkpt>
<trkpt lat="30.7029384" lon="35.6781612">
<ele>1510.07</ele>
<time>2015-11-22T15:22:47Z</time>
</trkpt>
<trkpt lat="30.7028770" lon="35.6781566">
<ele>1510.18</ele>
<time>2015-11-22T15:22:50Z</time>
</trkpt>
<trkpt lat="30.7028210" lon="35.6781533">
<ele>1510.19</ele>
<time>2015-11-22T15:22:53Z</time>
</trkpt>
<trkpt lat="30.7027664" lon="35.6781428">
<ele>1510.20</ele>
<time>2015-11-22T15:22:56Z</time>
</trkpt>
<trkpt lat="30.7027032" lon="35.6781408">
<ele>1509.45</ele>
<time>2015-11-22T15:22:59Z</time>
</trkpt>
<trkpt lat="30.7026509" lon="35.6781373">
<ele>1509.26</ele>
<time>2015-11-22T15:23:01Z</time>
</trkpt>
<trkpt lat="30.7025977" lon="35.6781314">
<ele>1509.21</ele>
<time>2015-11-22T15:23:03Z</time>
</trkpt>
<trkpt lat="30.7025418" lon="35.6781325">
<ele>1509.20</ele>
<time>2015-11-22T15:23:05Z</time>
</trkpt>
<trkpt lat="30.7024831" lon="35.6781348">
<ele>1509.20</ele>
<time>2015-11-22T15:23:07Z</time>
</trkpt>
<trkpt lat="30.7024228" lon="35.6781388">
<ele>1509.20</ele>
<time>2015-11-22T15:23:09Z</time>
</trkpt>
<trkpt lat="30.7023635" lon="35.6781499">
<ele>1509.20</ele>
<time>2015-11-22T15:23:11Z</time>
</trkpt>
<trkpt lat="30.7023072" lon="35.6781598">
<ele>1509.45</ele>
<time>2015-11-22T15:23:13Z</time>
</trkpt>
<trkpt lat="30.7022584" lon="35.6781578">
<ele>1510.20</ele>
<time>2015-11-22T15:26:38Z</time>
</trkpt>
<trkpt lat="30.7022042" lon="35.6781708">
<ele>1509.38</ele>
<time>2015-11-22T15:26:42Z</time>
</trkpt>
<trkpt lat="30.7021574" lon="35.6781768">
<ele>1510.09</ele>
<time>2015-11-22T15:26:45Z</time>
</trkpt>
<trkpt lat="30.7021043" lon="35.6781807">
<ele>1510.06</ele>
<time>2015-11-22T15:26:48Z</time>
</trkpt>
<trkpt lat="30.7020542" lon="35.6781795">
<ele>1510.18</ele>
<time>2015-11-22T15:26:51Z</time>
</trkpt>
<trkpt lat="30.7020045" lon="35.6781748">
<ele>1511.07</ele>
<time>2015-11-22T15:26:54Z</time>
</trkpt>
<trkpt lat="30.7019512" lon="35.6781707">
<ele>1511.18</ele>
<time>2015-11-22T15:26:57Z</time>
</trkpt>
<trkpt lat="30.7018976" lon="35.6781635">
<ele>1511.69</ele>
<time>2015-11-22T15:27:00Z</time>
</trkpt>
<trkpt lat="30.7018431" lon="35.6781555">
<ele>1513.51</ele>
<time>2015-11-22T15:27:03Z</time>
</trkpt>
<trkpt lat="30.7017873" lon="35.6781564">
<ele>1513.86</ele>
<time>2015-11-22T15:27:06Z</time>
</trkpt>
<trkpt lat="30.7017309" lon="35.6781619">
<ele>1514.65</ele>
<time>2015-11-22T15:27:09Z</time>
</trkpt>
<trkpt lat="30.7016714" lon="35.6781620">
<ele>1515.13</ele>
<time>2015-11-22T15:27:12Z</time>
</trkpt>
<trkpt lat="30.7016104" lon="35.6781682">
<ele>1515.94</ele>
<time>2015-11-22T15:27:15Z</time>
</trkpt>
<trkpt lat="30.7015492" lon="35.6781724">
<ele>1513.91</ele>
<time>2015-11-22T15:27:18Z</time>
</trkpt>
<trkpt lat="30.7014882" lon="35.6781713">
<ele>1514.91</ele>
<time>2015-11-22T15:27:21Z</time>
</trkpt>
<trkpt lat="30.7014304" lon="35.6781658">
<ele>1515.66</ele>
<time>2015-11-22T15:27:24Z</time>
</trkpt>
<trkpt lat="30.7013704" lon="35.6781478">
<ele>1514.50</ele>
<time>2015-11-22T15:27:27Z</time>
</trkpt>
<trkpt lat="30.7013099" lon="35.6781243">
<ele>1514.23</ele>
<time>2015-11-22T15:27:30Z</time>
</trkpt>
<trkpt lat="30.7012498" lon="35.6781020">
<ele>1514.20</ele>
<time>2015-11-22T15:27:33Z</time>
</trkpt>
<trkpt lat="30.7011900" lon="35.6780757">
<ele>1515.70</ele>
<time>2015-11-22T15:27:36Z</time>
</trkpt>
<trkpt lat="30.7011325" lon="35.6780479">
<ele>1517.01</ele>
<time>2015-11-22T15:27:39Z</time>
</trkpt>
<trkpt lat="30.7010757" lon="35.6780179">
<ele>1516.80</ele>
<time>2015-11-22T15:27:42Z</time>
</trkpt>
<trkpt lat="30.7010347" lon="35.6779964">
<ele>1517.10</ele>
<time>2015-11-22T15:27:44Z</time>
</trkpt>
<trkpt lat="30.7009917" lon="35.6779759">
<ele>1517.17</ele>
<time>2015-11-22T15:27:46Z</time>
</trkpt>
<trkpt lat="30.7009465" lon="35.6779575">
<ele>1517.19</ele>
<time>2015-11-22T15:27:48Z</time>
</trkpt>
<trkpt lat="30.7008991" lon="35.6779386">
<ele>1517.19</ele>
<time>2015-11-22T15:27:50Z</time>
</trkpt>
<trkpt lat="30.7008408" lon="35.6779088">
<ele>1516.07</ele>
<time>2015-11-22T15:27:53Z</time>
</trkpt>
<trkpt lat="30.7007782" lon="35.6778820">
<ele>1516.06</ele>
<time>2015-11-22T15:27:56Z</time>
</trkpt>
<trkpt lat="30.7007333" lon="35.6778588">
<ele>1516.66</ele>
<time>2015-11-22T15:27:58Z</time>
</trkpt>
<trkpt lat="30.7006899" lon="35.6778305">
<ele>1517.56</ele>
<time>2015-11-22T15:28:00Z</time>
</trkpt>
<trkpt lat="30.7006427" lon="35.6778046">
<ele>1517.29</ele>
<time>2015-11-22T15:28:02Z</time>
</trkpt>
<trkpt lat="30.7005970" lon="35.6777795">
<ele>1517.22</ele>
<time>2015-11-22T15:28:04Z</time>
</trkpt>
<trkpt lat="30.7005522" lon="35.6777542">
<ele>1517.95</ele>
<time>2015-11-22T15:28:06Z</time>
</trkpt>
<trkpt lat="30.7005073" lon="35.6777296">
<ele>1518.13</ele>
<time>2015-11-22T15:28:08Z</time>
</trkpt>
<trkpt lat="30.7004613" lon="35.6777077">
<ele>1518.18</ele>
<time>2015-11-22T15:28:10Z</time>
</trkpt>
<trkpt lat="30.7004181" lon="35.6776827">
<ele>1517.69</ele>
<time>2015-11-22T15:28:12Z</time>
</trkpt>
<trkpt lat="30.7003772" lon="35.6776482">
<ele>1518.07</ele>
<time>2015-11-22T15:28:14Z</time>
</trkpt>
<trkpt lat="30.7003369" lon="35.6776105">
<ele>1518.66</ele>
<time>2015-11-22T15:28:16Z</time>
</trkpt>
<trkpt lat="30.7002991" lon="35.6775693">
<ele>1519.06</ele>
<time>2015-11-22T15:28:18Z</time>
</trkpt>
<trkpt lat="30.7002608" lon="35.6775319">
<ele>1519.16</ele>
<time>2015-11-22T15:28:20Z</time>
</trkpt>
<trkpt lat="30.7002222" lon="35.6774966">
<ele>1519.19</ele>
<time>2015-11-22T15:28:22Z</time>
</trkpt>
<trkpt lat="30.7001868" lon="35.6774574">
<ele>1518.69</ele>
<time>2015-11-22T15:28:24Z</time>
</trkpt>
<trkpt lat="30.7001516" lon="35.6774173">
<ele>1518.32</ele>
<time>2015-11-22T15:28:26Z</time>
</trkpt>
<trkpt lat="30.7001204" lon="35.6773762">
<ele>1518.73</ele>
<time>2015-11-22T15:28:28Z</time>
</trkpt>
<trkpt lat="30.7000940" lon="35.6773335">
<ele>1519.58</ele>
<time>2015-11-22T15:28:30Z</time>
</trkpt>
<trkpt lat="30.7000539" lon="35.6772752">
<ele>1520.12</ele>
<time>2015-11-22T15:28:33Z</time>
</trkpt>
<trkpt lat="30.7000116" lon="35.6772256">
<ele>1522.31</ele>
<time>2015-11-22T15:28:36Z</time>
</trkpt>
<trkpt lat="30.6999705" lon="35.6771760">
<ele>1523.96</ele>
<time>2015-11-22T15:28:39Z</time>
</trkpt>
<trkpt lat="30.6999308" lon="35.6771258">
<ele>1525.04</ele>
<time>2015-11-22T15:28:42Z</time>
</trkpt>
<trkpt lat="30.6998895" lon="35.6770798">
<ele>1526.05</ele>
<time>2015-11-22T15:28:45Z</time>
</trkpt>
<trkpt lat="30.6998439" lon="35.6770444">
<ele>1526.93</ele>
<time>2015-11-22T15:28:48Z</time>
</trkpt>
<trkpt lat="30.6997963" lon="35.6770036">
<ele>1528.54</ele>
<time>2015-11-22T15:28:51Z</time>
</trkpt>
<trkpt lat="30.6997517" lon="35.6769680">
<ele>1529.11</ele>
<time>2015-11-22T15:28:54Z</time>
</trkpt>
<trkpt lat="30.6997109" lon="35.6769369">
<ele>1527.94</ele>
<time>2015-11-22T15:28:57Z</time>
</trkpt>
<trkpt lat="30.6996716" lon="35.6769073">
<ele>1528.04</ele>
<time>2015-11-22T15:29:00Z</time>
</trkpt>
<trkpt lat="30.6996395" lon="35.6768664">
<ele>1526.37</ele>
<time>2015-11-22T15:29:04Z</time>
</trkpt>
<trkpt lat="30.6996028" lon="35.6768251">
<ele>1526.47</ele>
<time>2015-11-22T15:29:07Z</time>
</trkpt>
<trkpt lat="30.6995435" lon="35.6767722">
<ele>1527.10</ele>
<time>2015-11-22T15:29:10Z</time>
</trkpt>
<trkpt lat="30.6994842" lon="35.6767263">
<ele>1527.17</ele>
<time>2015-11-22T15:29:12Z</time>
</trkpt>
<trkpt lat="30.6994230" lon="35.6766752">
<ele>1526.69</ele>
<time>2015-11-22T15:29:14Z</time>
</trkpt>
<trkpt lat="30.6993655" lon="35.6766232">
<ele>1525.82</ele>
<time>2015-11-22T15:29:16Z</time>
</trkpt>
<trkpt lat="30.6993102" lon="35.6765685">
<ele>1524.85</ele>
<time>2015-11-22T15:29:18Z</time>
</trkpt>
<trkpt lat="30.6992466" lon="35.6765182">
<ele>1524.86</ele>
<time>2015-11-22T15:29:20Z</time>
</trkpt>
<trkpt lat="30.6991786" lon="35.6764791">
<ele>1524.36</ele>
<time>2015-11-22T15:29:22Z</time>
</trkpt>
<trkpt lat="30.6991179" lon="35.6764372">
<ele>1524.24</ele>
<time>2015-11-22T15:29:24Z</time>
</trkpt>
<trkpt lat="30.6990682" lon="35.6763900">
<ele>1523.71</ele>
<time>2015-11-22T15:29:26Z</time>
</trkpt>
<trkpt lat="30.6990135" lon="35.6763458">
<ele>1523.32</ele>
<time>2015-11-22T15:29:28Z</time>
</trkpt>
<trkpt lat="30.6989267" lon="35.6763058">
<ele>1522.48</ele>
<time>2015-11-22T15:29:30Z</time>
</trkpt>
<trkpt lat="30.6988486" lon="35.6762725">
<ele>1520.27</ele>
<time>2015-11-22T15:29:32Z</time>
</trkpt>
<trkpt lat="30.6988053" lon="35.6762540">
<ele>1519.73</ele>
<time>2015-11-22T15:29:33Z</time>
</trkpt>
<trkpt lat="30.6987318" lon="35.6762206">
<ele>1518.08</ele>
<time>2015-11-22T15:29:35Z</time>
</trkpt>
<trkpt lat="30.6986875" lon="35.6761961">
<ele>1517.14</ele>
<time>2015-11-22T15:29:36Z</time>
</trkpt>
<trkpt lat="30.6986423" lon="35.6761694">
<ele>1516.67</ele>
<time>2015-11-22T15:29:37Z</time>
</trkpt>
<trkpt lat="30.6985966" lon="35.6761473">
<ele>1515.93</ele>
<time>2015-11-22T15:29:38Z</time>
</trkpt>
<trkpt lat="30.6985441" lon="35.6761190">
<ele>1515.06</ele>
<time>2015-11-22T15:29:39Z</time>
</trkpt>
<trkpt lat="30.6984918" lon="35.6760991">
<ele>1514.63</ele>
<time>2015-11-22T15:29:40Z</time>
</trkpt>
<trkpt lat="30.6984360" lon="35.6760700">
<ele>1513.41</ele>
<time>2015-11-22T15:29:41Z</time>
</trkpt>
<trkpt lat="30.6983810" lon="35.6760504">
<ele>1512.30</ele>
<time>2015-11-22T15:29:42Z</time>
</trkpt>
<trkpt lat="30.6983252" lon="35.6760254">
<ele>1511.25</ele>
<time>2015-11-22T15:29:43Z</time>
</trkpt>
<trkpt lat="30.6982711" lon="35.6760053">
<ele>1510.22</ele>
<time>2015-11-22T15:29:44Z</time>
</trkpt>
<trkpt lat="30.6982121" lon="35.6759959">
<ele>1509.21</ele>
<time>2015-11-22T15:29:45Z</time>
</trkpt>
<trkpt lat="30.6981516" lon="35.6759768">
<ele>1508.20</ele>
<time>2015-11-22T15:29:46Z</time>
</trkpt>
<trkpt lat="30.6980871" lon="35.6759665">
<ele>1507.20</ele>
<time>2015-11-22T15:29:47Z</time>
</trkpt>
<trkpt lat="30.6980230" lon="35.6759590">
<ele>1505.70</ele>
<time>2015-11-22T15:29:48Z</time>
</trkpt>
<trkpt lat="30.6979706" lon="35.6759590">
<ele>1503.95</ele>
<time>2015-11-22T15:29:49Z</time>
</trkpt>
<trkpt lat="30.6979181" lon="35.6759586">
<ele>1502.57</ele>
<time>2015-11-22T15:29:50Z</time>
</trkpt>
<trkpt lat="30.6978701" lon="35.6759482">
<ele>1501.88</ele>
<time>2015-11-22T15:29:51Z</time>
</trkpt>
<trkpt lat="30.6978242" lon="35.6759345">
<ele>1501.04</ele>
<time>2015-11-22T15:29:52Z</time>
</trkpt>
<trkpt lat="30.6977328" lon="35.6759226">
<ele>1499.16</ele>
<time>2015-11-22T15:29:54Z</time>
</trkpt>
<trkpt lat="30.6976772" lon="35.6759151">
<ele>1498.18</ele>
<time>2015-11-22T15:29:55Z</time>
</trkpt>
<trkpt lat="30.6975921" lon="35.6759061">
<ele>1496.94</ele>
<time>2015-11-22T15:29:57Z</time>
</trkpt>
<trkpt lat="30.6975476" lon="35.6758928">
<ele>1495.57</ele>
<time>2015-11-22T15:29:58Z</time>
</trkpt>
<trkpt lat="30.6975026" lon="35.6758755">
<ele>1494.38</ele>
<time>2015-11-22T15:29:59Z</time>
</trkpt>
<trkpt lat="30.6974624" lon="35.6758511">
<ele>1493.29</ele>
<time>2015-11-22T15:30:00Z</time>
</trkpt>
<trkpt lat="30.6974140" lon="35.6758348">
<ele>1492.74</ele>
<time>2015-11-22T15:30:01Z</time>
</trkpt>
<trkpt lat="30.6973639" lon="35.6758218">
<ele>1491.97</ele>
<time>2015-11-22T15:30:02Z</time>
</trkpt>
<trkpt lat="30.6973047" lon="35.6758026">
<ele>1491.58</ele>
<time>2015-11-22T15:30:03Z</time>
</trkpt>
<trkpt lat="30.6972408" lon="35.6757846">
<ele>1490.89</ele>
<time>2015-11-22T15:30:04Z</time>
</trkpt>
<trkpt lat="30.6971715" lon="35.6757668">
<ele>1490.04</ele>
<time>2015-11-22T15:30:05Z</time>
</trkpt>
<trkpt lat="30.6970984" lon="35.6757427">
<ele>1489.62</ele>
<time>2015-11-22T15:30:06Z</time>
</trkpt>
<trkpt lat="30.6970230" lon="35.6757253">
<ele>1490.41</ele>
<time>2015-11-22T15:30:07Z</time>
</trkpt>
<trkpt lat="30.6969557" lon="35.6757119">
<ele>1490.30</ele>
<time>2015-11-22T15:30:08Z</time>
</trkpt>
<trkpt lat="30.6968816" lon="35.6756969">
<ele>1490.25</ele>
<time>2015-11-22T15:30:09Z</time>
</trkpt>
<trkpt lat="30.6968085" lon="35.6756907">
<ele>1490.22</ele>
<time>2015-11-22T15:30:10Z</time>
</trkpt>
<trkpt lat="30.6967393" lon="35.6756728">
<ele>1490.71</ele>
<time>2015-11-22T15:30:11Z</time>
</trkpt>
<trkpt lat="30.6966669" lon="35.6756587">
<ele>1490.95</ele>
<time>2015-11-22T15:30:12Z</time>
</trkpt>
<trkpt lat="30.6965948" lon="35.6756452">
<ele>1491.07</ele>
<time>2015-11-22T15:30:13Z</time>
</trkpt>
<trkpt lat="30.6965230" lon="35.6756362">
<ele>1491.64</ele>
<time>2015-11-22T15:30:14Z</time>
</trkpt>
<trkpt lat="30.6964520" lon="35.6756347">
<ele>1491.92</ele>
<time>2015-11-22T15:30:15Z</time>
</trkpt>
<trkpt lat="30.6963895" lon="35.6756438">
<ele>1492.56</ele>
<time>2015-11-22T15:30:16Z</time>
</trkpt>
<trkpt lat="30.6963212" lon="35.6756482">
<ele>1492.88</ele>
<time>2015-11-22T15:30:17Z</time>
</trkpt>
<trkpt lat="30.6962595" lon="35.6756609">
<ele>1493.54</ele>
<time>2015-11-22T15:30:18Z</time>
</trkpt>
<trkpt lat="30.6962012" lon="35.6756648">
<ele>1493.87</ele>
<time>2015-11-22T15:30:19Z</time>
</trkpt>
<trkpt lat="30.6961445" lon="35.6756789">
<ele>1494.53</ele>
<time>2015-11-22T15:30:20Z</time>
</trkpt>
<trkpt lat="30.6960981" lon="35.6756935">
<ele>1495.86</ele>
<time>2015-11-22T15:30:21Z</time>
</trkpt>
<trkpt lat="30.6960265" lon="35.6757204">
<ele>1496.86</ele>
<time>2015-11-22T15:30:23Z</time>
</trkpt>
<trkpt lat="30.6959700" lon="35.6757498">
<ele>1497.11</ele>
<time>2015-11-22T15:30:25Z</time>
</trkpt>
<trkpt lat="30.6959243" lon="35.6757575">
<ele>1497.18</ele>
<time>2015-11-22T15:30:27Z</time>
</trkpt>
<trkpt lat="30.6958750" lon="35.6757716">
<ele>1497.32</ele>
<time>2015-11-22T15:30:30Z</time>
</trkpt>
<trkpt lat="30.6958181" lon="35.6757957">
<ele>1497.21</ele>
<time>2015-11-22T15:30:33Z</time>
</trkpt>
<trkpt lat="30.6957714" lon="35.6758136">
<ele>1494.82</ele>
<time>2015-11-22T15:30:36Z</time>
</trkpt>
<trkpt lat="30.6957186" lon="35.6758452">
<ele>1494.67</ele>
<time>2015-11-22T15:30:40Z</time>
</trkpt>
<trkpt lat="30.6956770" lon="35.6758738">
<ele>1495.63</ele>
<time>2015-11-22T15:30:43Z</time>
</trkpt>
<trkpt lat="30.6956270" lon="35.6759074">
<ele>1495.66</ele>
<time>2015-11-22T15:30:47Z</time>
</trkpt>
<trkpt lat="30.6955793" lon="35.6759399">
<ele>1497.79</ele>
<time>2015-11-22T15:30:51Z</time>
</trkpt>
<trkpt lat="30.6955407" lon="35.6759856">
<ele>1498.86</ele>
<time>2015-11-22T15:30:55Z</time>
</trkpt>
<trkpt lat="30.6954928" lon="35.6760154">
<ele>1501.36</ele>
<time>2015-11-22T15:30:59Z</time>
</trkpt>
<trkpt lat="30.6954536" lon="35.6760514">
<ele>1501.21</ele>
<time>2015-11-22T15:31:03Z</time>
</trkpt>
<trkpt lat="30.6954123" lon="35.6760879">
<ele>1501.20</ele>
<time>2015-11-22T15:31:07Z</time>
</trkpt>
<trkpt lat="30.6953655" lon="35.6761279">
<ele>1503.01</ele>
<time>2015-11-22T15:31:11Z</time>
</trkpt>
<trkpt lat="30.6953247" lon="35.6761738">
<ele>1503.37</ele>
<time>2015-11-22T15:31:15Z</time>
</trkpt>
<trkpt lat="30.6952859" lon="35.6762261">
<ele>1505.08</ele>
<time>2015-11-22T15:31:19Z</time>
</trkpt>
<trkpt lat="30.6952354" lon="35.6762645">
<ele>1505.75</ele>
<time>2015-11-22T15:31:23Z</time>
</trkpt>
<trkpt lat="30.6951895" lon="35.6763068">
<ele>1505.29</ele>
<time>2015-11-22T15:31:27Z</time>
</trkpt>
<trkpt lat="30.6951519" lon="35.6763423">
<ele>1505.08</ele>
<time>2015-11-22T15:31:30Z</time>
</trkpt>
<trkpt lat="30.6951098" lon="35.6763813">
<ele>1505.93</ele>
<time>2015-11-22T15:31:33Z</time>
</trkpt>
<trkpt lat="30.6950716" lon="35.6764240">
<ele>1505.79</ele>
<time>2015-11-22T15:31:36Z</time>
</trkpt>
<trkpt lat="30.6950333" lon="35.6764594">
<ele>1504.77</ele>
<time>2015-11-22T15:31:39Z</time>
</trkpt>
<trkpt lat="30.6949936" lon="35.6764986">
<ele>1505.14</ele>
<time>2015-11-22T15:31:42Z</time>
</trkpt>
<trkpt lat="30.6949504" lon="35.6765389">
<ele>1505.56</ele>
<time>2015-11-22T15:31:45Z</time>
</trkpt>
<trkpt lat="30.6949098" lon="35.6765790">
<ele>1505.37</ele>
<time>2015-11-22T15:31:48Z</time>
</trkpt>
<trkpt lat="30.6948735" lon="35.6766152">
<ele>1502.72</ele>
<time>2015-11-22T15:31:51Z</time>
</trkpt>
<trkpt lat="30.6948368" lon="35.6766529">
<ele>1502.76</ele>
<time>2015-11-22T15:31:54Z</time>
</trkpt>
<trkpt lat="30.6947900" lon="35.6766851">
<ele>1503.89</ele>
<time>2015-11-22T15:31:57Z</time>
</trkpt>
<trkpt lat="30.6947396" lon="35.6767126">
<ele>1504.16</ele>
<time>2015-11-22T15:32:00Z</time>
</trkpt>
<trkpt lat="30.6946926" lon="35.6767499">
<ele>1503.82</ele>
<time>2015-11-22T15:32:03Z</time>
</trkpt>
<trkpt lat="30.6946371" lon="35.6767810">
<ele>1504.90</ele>
<time>2015-11-22T15:32:06Z</time>
</trkpt>
<trkpt lat="30.6945815" lon="35.6768129">
<ele>1505.53</ele>
<time>2015-11-22T15:32:09Z</time>
</trkpt>
<trkpt lat="30.6945290" lon="35.6768512">
<ele>1505.11</ele>
<time>2015-11-22T15:32:12Z</time>
</trkpt>
<trkpt lat="30.6944754" lon="35.6768792">
<ele>1505.69</ele>
<time>2015-11-22T15:32:15Z</time>
</trkpt>
<trkpt lat="30.6944181" lon="35.6769012">
<ele>1506.88</ele>
<time>2015-11-22T15:32:18Z</time>
</trkpt>
<trkpt lat="30.6943665" lon="35.6769228">
<ele>1507.91</ele>
<time>2015-11-22T15:32:21Z</time>
</trkpt>
<trkpt lat="30.6943219" lon="35.6769458">
<ele>1509.41</ele>
<time>2015-11-22T15:32:24Z</time>
</trkpt>
<trkpt lat="30.6942773" lon="35.6769715">
<ele>1510.10</ele>
<time>2015-11-22T15:32:27Z</time>
</trkpt>
<trkpt lat="30.6942346" lon="35.6769990">
<ele>1510.18</ele>
<time>2015-11-22T15:32:30Z</time>
</trkpt>
<trkpt lat="30.6941914" lon="35.6770244">
<ele>1510.94</ele>
<time>2015-11-22T15:32:33Z</time>
</trkpt>
<trkpt lat="30.6941488" lon="35.6770562">
<ele>1512.04</ele>
<time>2015-11-22T15:32:36Z</time>
</trkpt>
<trkpt lat="30.6941057" lon="35.6770930">
<ele>1512.68</ele>
<time>2015-11-22T15:32:39Z</time>
</trkpt>
<trkpt lat="30.6940680" lon="35.6771329">
<ele>1513.63</ele>
<time>2015-11-22T15:32:42Z</time>
</trkpt>
<trkpt lat="30.6940248" lon="35.6771556">
<ele>1513.88</ele>
<time>2015-11-22T15:32:45Z</time>
</trkpt>
<trkpt lat="30.6939809" lon="35.6771792">
<ele>1514.66</ele>
<time>2015-11-22T15:32:48Z</time>
</trkpt>
<trkpt lat="30.6939438" lon="35.6772169">
<ele>1514.63</ele>
<time>2015-11-22T15:32:51Z</time>
</trkpt>
<trkpt lat="30.6939050" lon="35.6772536">
<ele>1514.25</ele>
<time>2015-11-22T15:32:54Z</time>
</trkpt>
<trkpt lat="30.6938644" lon="35.6772899">
<ele>1514.33</ele>
<time>2015-11-22T15:32:57Z</time>
</trkpt>
<trkpt lat="30.6938257" lon="35.6773222">
<ele>1513.96</ele>
<time>2015-11-22T15:33:00Z</time>
</trkpt>
<trkpt lat="30.6937890" lon="35.6773635">
<ele>1514.67</ele>
<time>2015-11-22T15:33:03Z</time>
</trkpt>
<trkpt lat="30.6937499" lon="35.6774030">
<ele>1515.63</ele>
<time>2015-11-22T15:33:06Z</time>
</trkpt>
<trkpt lat="30.6937085" lon="35.6774452">
<ele>1516.88</ele>
<time>2015-11-22T15:33:09Z</time>
</trkpt>
<trkpt lat="30.6936664" lon="35.6774841">
<ele>1516.66</ele>
<time>2015-11-22T15:33:12Z</time>
</trkpt>
<trkpt lat="30.6936236" lon="35.6775193">
<ele>1517.63</ele>
<time>2015-11-22T15:33:15Z</time>
</trkpt>
<trkpt lat="30.6935823" lon="35.6775584">
<ele>1518.50</ele>
<time>2015-11-22T15:33:18Z</time>
</trkpt>
<trkpt lat="30.6935444" lon="35.6775981">
<ele>1518.36</ele>
<time>2015-11-22T15:33:21Z</time>
</trkpt>
<trkpt lat="30.6935045" lon="35.6776315">
<ele>1519.59</ele>
<time>2015-11-22T15:33:24Z</time>
</trkpt>
<trkpt lat="30.6934656" lon="35.6776650">
<ele>1519.75</ele>
<time>2015-11-22T15:33:27Z</time>
</trkpt>
<trkpt lat="30.6934212" lon="35.6776995">
<ele>1521.04</ele>
<time>2015-11-22T15:33:31Z</time>
</trkpt>
<trkpt lat="30.6933752" lon="35.6777352">
<ele>1519.72</ele>
<time>2015-11-22T15:33:36Z</time>
</trkpt>
<trkpt lat="30.6933399" lon="35.6777685">
<ele>1519.48</ele>
<time>2015-11-22T15:33:40Z</time>
</trkpt>
<trkpt lat="30.6933067" lon="35.6778061">
<ele>1519.78</ele>
<time>2015-11-22T15:33:44Z</time>
</trkpt>
<trkpt lat="30.6932579" lon="35.6778361">
<ele>1519.67</ele>
<time>2015-11-22T15:33:48Z</time>
</trkpt>
<trkpt lat="30.6932101" lon="35.6778776">
<ele>1521.04</ele>
<time>2015-11-22T15:33:52Z</time>
</trkpt>
<trkpt lat="30.6931702" lon="35.6779100">
<ele>1522.43</ele>
<time>2015-11-22T15:33:55Z</time>
</trkpt>
<trkpt lat="30.6931284" lon="35.6779412">
<ele>1523.72</ele>
<time>2015-11-22T15:33:58Z</time>
</trkpt>
<trkpt lat="30.6930910" lon="35.6779720">
<ele>1523.26</ele>
<time>2015-11-22T15:34:01Z</time>
</trkpt>
<trkpt lat="30.6930482" lon="35.6780208">
<ele>1523.95</ele>
<time>2015-11-22T15:34:05Z</time>
</trkpt>
<trkpt lat="30.6930018" lon="35.6780583">
<ele>1523.68</ele>
<time>2015-11-22T15:34:09Z</time>
</trkpt>
<trkpt lat="30.6929559" lon="35.6780929">
<ele>1521.85</ele>
<time>2015-11-22T15:34:13Z</time>
</trkpt>
<trkpt lat="30.6929263" lon="35.6781328">
<ele>1522.15</ele>
<time>2015-11-22T15:34:16Z</time>
</trkpt>
<trkpt lat="30.6928937" lon="35.6781717">
<ele>1524.82</ele>
<time>2015-11-22T15:34:19Z</time>
</trkpt>
<trkpt lat="30.6928546" lon="35.6782090">
<ele>1527.40</ele>
<time>2015-11-22T15:34:22Z</time>
</trkpt>
<trkpt lat="30.6928210" lon="35.6782508">
<ele>1527.72</ele>
<time>2015-11-22T15:34:25Z</time>
</trkpt>
<trkpt lat="30.6927875" lon="35.6782863">
<ele>1528.26</ele>
<time>2015-11-22T15:34:28Z</time>
</trkpt>
<trkpt lat="30.6927370" lon="35.6783224">
<ele>1529.20</ele>
<time>2015-11-22T15:34:32Z</time>
</trkpt>
<trkpt lat="30.6927022" lon="35.6783759">
<ele>1528.76</ele>
<time>2015-11-22T15:34:36Z</time>
</trkpt>
<trkpt lat="30.6926587" lon="35.6784220">
<ele>1528.92</ele>
<time>2015-11-22T15:34:40Z</time>
</trkpt>
<trkpt lat="30.6926238" lon="35.6784573">
<ele>1529.29</ele>
<time>2015-11-22T15:34:43Z</time>
</trkpt>
<trkpt lat="30.6925851" lon="35.6784861">
<ele>1530.83</ele>
<time>2015-11-22T15:34:46Z</time>
</trkpt>
<trkpt lat="30.6925366" lon="35.6785270">
<ele>1531.17</ele>
<time>2015-11-22T15:34:50Z</time>
</trkpt>
<trkpt lat="30.6924997" lon="35.6785645">
<ele>1530.94</ele>
<time>2015-11-22T15:34:53Z</time>
</trkpt>
<trkpt lat="30.6924543" lon="35.6786028">
<ele>1530.31</ele>
<time>2015-11-22T15:34:57Z</time>
</trkpt>
<trkpt lat="30.6924157" lon="35.6786315">
<ele>1532.58</ele>
<time>2015-11-22T15:35:00Z</time>
</trkpt>
<trkpt lat="30.6923796" lon="35.6786642">
<ele>1535.49</ele>
<time>2015-11-22T15:35:03Z</time>
</trkpt>
<trkpt lat="30.6923447" lon="35.6787099">
<ele>1536.11</ele>
<time>2015-11-22T15:35:06Z</time>
</trkpt>
<trkpt lat="30.6923102" lon="35.6787498">
<ele>1536.94</ele>
<time>2015-11-22T15:35:09Z</time>
</trkpt>
<trkpt lat="30.6922785" lon="35.6787915">
<ele>1536.29</ele>
<time>2015-11-22T15:35:12Z</time>
</trkpt>
<trkpt lat="30.6922374" lon="35.6788380">
<ele>1534.76</ele>
<time>2015-11-22T15:35:16Z</time>
</trkpt>
<trkpt lat="30.6921926" lon="35.6788835">
<ele>1536.86</ele>
<time>2015-11-22T15:35:20Z</time>
</trkpt>
<trkpt lat="30.6921568" lon="35.6789402">
<ele>1537.67</ele>
<time>2015-11-22T15:35:24Z</time>
</trkpt>
<trkpt lat="30.6921245" lon="35.6789810">
<ele>1539.38</ele>
<time>2015-11-22T15:35:27Z</time>
</trkpt>
<trkpt lat="30.6920917" lon="35.6790378">
<ele>1539.21</ele>
<time>2015-11-22T15:35:31Z</time>
</trkpt>
<trkpt lat="30.6920639" lon="35.6790795">
<ele>1538.32</ele>
<time>2015-11-22T15:35:34Z</time>
</trkpt>
<trkpt lat="30.6920318" lon="35.6791161">
<ele>1537.34</ele>
<time>2015-11-22T15:35:37Z</time>
</trkpt>
<trkpt lat="30.6919849" lon="35.6791573">
<ele>1538.89</ele>
<time>2015-11-22T15:35:41Z</time>
</trkpt>
<trkpt lat="30.6919512" lon="35.6791945">
<ele>1539.28</ele>
<time>2015-11-22T15:35:44Z</time>
</trkpt>
<trkpt lat="30.6919184" lon="35.6792342">
<ele>1540.58</ele>
<time>2015-11-22T15:35:47Z</time>
</trkpt>
<trkpt lat="30.6918845" lon="35.6792776">
<ele>1539.99</ele>
<time>2015-11-22T15:35:50Z</time>
</trkpt>
<trkpt lat="30.6918444" lon="35.6793278">
<ele>1540.67</ele>
<time>2015-11-22T15:35:53Z</time>
</trkpt>
<trkpt lat="30.6918054" lon="35.6793717">
<ele>1541.26</ele>
<time>2015-11-22T15:35:56Z</time>
</trkpt>
<trkpt lat="30.6917730" lon="35.6794125">
<ele>1539.95</ele>
<time>2015-11-22T15:35:59Z</time>
</trkpt>
<trkpt lat="30.6917356" lon="35.6794522">
<ele>1538.04</ele>
<time>2015-11-22T15:36:02Z</time>
</trkpt>
<trkpt lat="30.6916997" lon="35.6794973">
<ele>1536.80</ele>
<time>2015-11-22T15:36:05Z</time>
</trkpt>
<trkpt lat="30.6916654" lon="35.6795433">
<ele>1535.90</ele>
<time>2015-11-22T15:36:08Z</time>
</trkpt>
<trkpt lat="30.6916340" lon="35.6795878">
<ele>1535.78</ele>
<time>2015-11-22T15:36:11Z</time>
</trkpt>
<trkpt lat="30.6916002" lon="35.6796297">
<ele>1537.39</ele>
<time>2015-11-22T15:36:14Z</time>
</trkpt>
<trkpt lat="30.6915632" lon="35.6796680">
<ele>1538.10</ele>
<time>2015-11-22T15:36:17Z</time>
</trkpt>
<trkpt lat="30.6915250" lon="35.6797088">
<ele>1538.68</ele>
<time>2015-11-22T15:36:20Z</time>
</trkpt>
<trkpt lat="30.6914890" lon="35.6797554">
<ele>1539.13</ele>
<time>2015-11-22T15:36:23Z</time>
</trkpt>
<trkpt lat="30.6914480" lon="35.6798061">
<ele>1539.06</ele>
<time>2015-11-22T15:36:26Z</time>
</trkpt>
<trkpt lat="30.6914057" lon="35.6798592">
<ele>1538.93</ele>
<time>2015-11-22T15:36:29Z</time>
</trkpt>
<trkpt lat="30.6913667" lon="35.6799133">
<ele>1539.66</ele>
<time>2015-11-22T15:36:32Z</time>
</trkpt>
<trkpt lat="30.6913285" lon="35.6799691">
<ele>1540.38</ele>
<time>2015-11-22T15:36:35Z</time>
</trkpt>
<trkpt lat="30.6912917" lon="35.6800269">
<ele>1540.34</ele>
<time>2015-11-22T15:36:38Z</time>
</trkpt>
<trkpt lat="30.6912610" lon="35.6800753">
<ele>1539.34</ele>
<time>2015-11-22T15:36:41Z</time>
</trkpt>
<trkpt lat="30.6912359" lon="35.6801197">
<ele>1536.45</ele>
<time>2015-11-22T15:38:38Z</time>
</trkpt>
<trkpt lat="30.6912037" lon="35.6801780">
<ele>1539.26</ele>
<time>2015-11-22T15:38:53Z</time>
</trkpt>
<trkpt lat="30.6911612" lon="35.6802360">
<ele>1539.70</ele>
<time>2015-11-22T15:38:56Z</time>
</trkpt>
<trkpt lat="30.6911174" lon="35.6802885">
<ele>1539.57</ele>
<time>2015-11-22T15:38:58Z</time>
</trkpt>
<trkpt lat="30.6910688" lon="35.6803418">
<ele>1538.04</ele>
<time>2015-11-22T15:39:00Z</time>
</trkpt>
<trkpt lat="30.6910111" lon="35.6804011">
<ele>1536.91</ele>
<time>2015-11-22T15:39:02Z</time>
</trkpt>
<trkpt lat="30.6909566" lon="35.6804621">
<ele>1536.55</ele>
<time>2015-11-22T15:39:03Z</time>
</trkpt>
<trkpt lat="30.6909208" lon="35.6805063">
<ele>1535.87</ele>
<time>2015-11-22T15:39:04Z</time>
</trkpt>
<trkpt lat="30.6908826" lon="35.6805497">
<ele>1535.03</ele>
<time>2015-11-22T15:39:05Z</time>
</trkpt>
<trkpt lat="30.6908444" lon="35.6806000">
<ele>1534.12</ele>
<time>2015-11-22T15:39:06Z</time>
</trkpt>
<trkpt lat="30.6908015" lon="35.6806520">
<ele>1533.66</ele>
<time>2015-11-22T15:39:07Z</time>
</trkpt>
<trkpt lat="30.6907646" lon="35.6807166">
<ele>1532.93</ele>
<time>2015-11-22T15:39:08Z</time>
</trkpt>
<trkpt lat="30.6907295" lon="35.6807768">
<ele>1532.06</ele>
<time>2015-11-22T15:39:09Z</time>
</trkpt>
<trkpt lat="30.6906883" lon="35.6808344">
<ele>1531.13</ele>
<time>2015-11-22T15:39:10Z</time>
</trkpt>
<trkpt lat="30.6906388" lon="35.6809054">
<ele>1530.16</ele>
<time>2015-11-22T15:39:11Z</time>
</trkpt>
<trkpt lat="30.6905754" lon="35.6809787">
<ele>1529.18</ele>
<time>2015-11-22T15:39:12Z</time>
</trkpt>
<trkpt lat="30.6905162" lon="35.6810528">
<ele>1528.69</ele>
<time>2015-11-22T15:39:13Z</time>
</trkpt>
<trkpt lat="30.6904498" lon="35.6811253">
<ele>1527.44</ele>
<time>2015-11-22T15:39:14Z</time>
</trkpt>
<trkpt lat="30.6903830" lon="35.6812058">
<ele>1526.32</ele>
<time>2015-11-22T15:39:15Z</time>
</trkpt>
<trkpt lat="30.6903161" lon="35.6812790">
<ele>1524.76</ele>
<time>2015-11-22T15:39:16Z</time>
</trkpt>
<trkpt lat="30.6902473" lon="35.6813491">
<ele>1522.98</ele>
<time>2015-11-22T15:39:17Z</time>
</trkpt>
<trkpt lat="30.6901746" lon="35.6814131">
<ele>1522.09</ele>
<time>2015-11-22T15:39:18Z</time>
</trkpt>
<trkpt lat="30.6900968" lon="35.6814817">
<ele>1521.64</ele>
<time>2015-11-22T15:39:19Z</time>
</trkpt>
<trkpt lat="30.6900196" lon="35.6815339">
<ele>1520.92</ele>
<time>2015-11-22T15:39:20Z</time>
</trkpt>
<trkpt lat="30.6899501" lon="35.6815689">
<ele>1520.06</ele>
<time>2015-11-22T15:39:21Z</time>
</trkpt>
<trkpt lat="30.6898748" lon="35.6815938">
<ele>1519.63</ele>
<time>2015-11-22T15:39:22Z</time>
</trkpt>
<trkpt lat="30.6898018" lon="35.6816198">
<ele>1518.91</ele>
<time>2015-11-22T15:39:23Z</time>
</trkpt>
<trkpt lat="30.6897216" lon="35.6816429">
<ele>1518.55</ele>
<time>2015-11-22T15:39:24Z</time>
</trkpt>
<trkpt lat="30.6896558" lon="35.6816774">
<ele>1517.87</ele>
<time>2015-11-22T15:39:25Z</time>
</trkpt>
<trkpt lat="30.6895899" lon="35.6817280">
<ele>1517.54</ele>
<time>2015-11-22T15:39:26Z</time>
</trkpt>
<trkpt lat="30.6895254" lon="35.6817804">
<ele>1517.87</ele>
<time>2015-11-22T15:39:27Z</time>
</trkpt>
<trkpt lat="30.6894686" lon="35.6818311">
<ele>1517.53</ele>
<time>2015-11-22T15:39:28Z</time>
</trkpt>
<trkpt lat="30.6894095" lon="35.6818676">
<ele>1516.86</ele>
<time>2015-11-22T15:39:29Z</time>
</trkpt>
<trkpt lat="30.6893418" lon="35.6818917">
<ele>1516.53</ele>
<time>2015-11-22T15:39:30Z</time>
</trkpt>
<trkpt lat="30.6892615" lon="35.6819115">
<ele>1516.36</ele>
<time>2015-11-22T15:39:31Z</time>
</trkpt>
<trkpt lat="30.6891821" lon="35.6819347">
<ele>1515.78</ele>
<time>2015-11-22T15:39:32Z</time>
</trkpt>
<trkpt lat="30.6891013" lon="35.6819551">
<ele>1514.99</ele>
<time>2015-11-22T15:39:33Z</time>
</trkpt>
<trkpt lat="30.6890364" lon="35.6819901">
<ele>1514.09</ele>
<time>2015-11-22T15:39:34Z</time>
</trkpt>
<trkpt lat="30.6889724" lon="35.6820194">
<ele>1513.14</ele>
<time>2015-11-22T15:39:35Z</time>
</trkpt>
<trkpt lat="30.6889133" lon="35.6820472">
<ele>1512.17</ele>
<time>2015-11-22T15:39:36Z</time>
</trkpt>
<trkpt lat="30.6888635" lon="35.6820687">
<ele>1511.68</ele>
<time>2015-11-22T15:39:37Z</time>
</trkpt>
<trkpt lat="30.6888228" lon="35.6821000">
<ele>1511.44</ele>
<time>2015-11-22T15:39:38Z</time>
</trkpt>
<trkpt lat="30.6887805" lon="35.6821227">
<ele>1511.32</ele>
<time>2015-11-22T15:39:39Z</time>
</trkpt>
<trkpt lat="30.6887384" lon="35.6821518">
<ele>1510.76</ele>
<time>2015-11-22T15:39:40Z</time>
</trkpt>
<trkpt lat="30.6886966" lon="35.6821848">
<ele>1510.48</ele>
<time>2015-11-22T15:39:41Z</time>
</trkpt>
<trkpt lat="30.6886245" lon="35.6822526">
<ele>1508.77</ele>
<time>2015-11-22T15:39:43Z</time>
</trkpt>
<trkpt lat="30.6885695" lon="35.6822884">
<ele>1508.48</ele>
<time>2015-11-22T15:39:44Z</time>
</trkpt>
<trkpt lat="30.6885290" lon="35.6823290">
<ele>1507.84</ele>
<time>2015-11-22T15:39:45Z</time>
</trkpt>
<trkpt lat="30.6884792" lon="35.6823834">
<ele>1507.52</ele>
<time>2015-11-22T15:39:46Z</time>
</trkpt>
<trkpt lat="30.6884226" lon="35.6824364">
<ele>1507.36</ele>
<time>2015-11-22T15:39:47Z</time>
</trkpt>
<trkpt lat="30.6883786" lon="35.6825006">
<ele>1507.28</ele>
<time>2015-11-22T15:39:48Z</time>
</trkpt>
<trkpt lat="30.6883204" lon="35.6825642">
<ele>1507.74</ele>
<time>2015-11-22T15:39:49Z</time>
</trkpt>
<trkpt lat="30.6882609" lon="35.6826240">
<ele>1507.97</ele>
<time>2015-11-22T15:39:50Z</time>
</trkpt>
<trkpt lat="30.6882115" lon="35.6826790">
<ele>1507.08</ele>
<time>2015-11-22T15:39:51Z</time>
</trkpt>
<trkpt lat="30.6881460" lon="35.6827484">
<ele>1507.14</ele>
<time>2015-11-22T15:39:52Z</time>
</trkpt>
<trkpt lat="30.6880902" lon="35.6828235">
<ele>1506.67</ele>
<time>2015-11-22T15:39:53Z</time>
</trkpt>
<trkpt lat="30.6880377" lon="35.6828991">
<ele>1505.43</ele>
<time>2015-11-22T15:39:54Z</time>
</trkpt>
<trkpt lat="30.6879950" lon="35.6829546">
<ele>1505.31</ele>
<time>2015-11-22T15:39:55Z</time>
</trkpt>
<trkpt lat="30.6879639" lon="35.6830051">
<ele>1504.75</ele>
<time>2015-11-22T15:39:56Z</time>
</trkpt>
<trkpt lat="30.6879283" lon="35.6830406">
<ele>1504.14</ele>
<time>2015-11-22T15:39:59Z</time>
</trkpt>
<trkpt lat="30.6878875" lon="35.6830977">
<ele>1503.20</ele>
<time>2015-11-22T15:40:12Z</time>
</trkpt>
<trkpt lat="30.6878303" lon="35.6831564">
<ele>1502.95</ele>
<time>2015-11-22T15:40:14Z</time>
</trkpt>
<trkpt lat="30.6877953" lon="35.6831907">
<ele>1502.57</ele>
<time>2015-11-22T15:40:15Z</time>
</trkpt>
<trkpt lat="30.6877571" lon="35.6832244">
<ele>1501.88</ele>
<time>2015-11-22T15:40:16Z</time>
</trkpt>
<trkpt lat="30.6877141" lon="35.6832650">
<ele>1501.54</ele>
<time>2015-11-22T15:40:17Z</time>
</trkpt>
<trkpt lat="30.6876610" lon="35.6833072">
<ele>1501.37</ele>
<time>2015-11-22T15:40:18Z</time>
</trkpt>
<trkpt lat="30.6876017" lon="35.6833531">
<ele>1500.78</ele>
<time>2015-11-22T15:40:19Z</time>
</trkpt>
<trkpt lat="30.6875401" lon="35.6833984">
<ele>1500.49</ele>
<time>2015-11-22T15:40:20Z</time>
</trkpt>
<trkpt lat="30.6874696" lon="35.6834358">
<ele>1499.84</ele>
<time>2015-11-22T15:40:21Z</time>
</trkpt>
<trkpt lat="30.6874055" lon="35.6834867">
<ele>1499.02</ele>
<time>2015-11-22T15:40:22Z</time>
</trkpt>
<trkpt lat="30.6873244" lon="35.6835281">
<ele>1498.11</ele>
<time>2015-11-22T15:40:23Z</time>
</trkpt>
<trkpt lat="30.6872505" lon="35.6835908">
<ele>1496.65</ele>
<time>2015-11-22T15:40:24Z</time>
</trkpt>
<trkpt lat="30.6871658" lon="35.6836503">
<ele>1494.92</ele>
<time>2015-11-22T15:40:25Z</time>
</trkpt>
<trkpt lat="30.6870760" lon="35.6837088">
<ele>1493.56</ele>
<time>2015-11-22T15:40:26Z</time>
</trkpt>
<trkpt lat="30.6869841" lon="35.6837742">
<ele>1491.88</ele>
<time>2015-11-22T15:40:27Z</time>
</trkpt>
<trkpt lat="30.6868928" lon="35.6838438">
<ele>1490.54</ele>
<time>2015-11-22T15:40:28Z</time>
</trkpt>
<trkpt lat="30.6868018" lon="35.6839167">
<ele>1488.87</ele>
<time>2015-11-22T15:40:29Z</time>
</trkpt>
<trkpt lat="30.6867037" lon="35.6839930">
<ele>1488.03</ele>
<time>2015-11-22T15:40:30Z</time>
</trkpt>
<trkpt lat="30.6866024" lon="35.6840534">
<ele>1487.11</ele>
<time>2015-11-22T15:40:31Z</time>
</trkpt>
<trkpt lat="30.6865150" lon="35.6841060">
<ele>1485.65</ele>
<time>2015-11-22T15:40:32Z</time>
</trkpt>
<trkpt lat="30.6864160" lon="35.6841382">
<ele>1484.43</ele>
<time>2015-11-22T15:40:33Z</time>
</trkpt>
<trkpt lat="30.6863152" lon="35.6841439">
<ele>1482.81</ele>
<time>2015-11-22T15:40:34Z</time>
</trkpt>
<trkpt lat="30.6862151" lon="35.6841464">
<ele>1482.00</ele>
<time>2015-11-22T15:40:35Z</time>
</trkpt>
<trkpt lat="30.6861059" lon="35.6841292">
<ele>1480.60</ele>
<time>2015-11-22T15:40:36Z</time>
</trkpt>
<trkpt lat="30.6859936" lon="35.6841123">
<ele>1479.40</ele>
<time>2015-11-22T15:40:37Z</time>
</trkpt>
<trkpt lat="30.6858846" lon="35.6841073">
<ele>1478.80</ele>
<time>2015-11-22T15:40:38Z</time>
</trkpt>
<trkpt lat="30.6857598" lon="35.6841004">
<ele>1478.00</ele>
<time>2015-11-22T15:40:39Z</time>
</trkpt>
<trkpt lat="30.6856374" lon="35.6840858">
<ele>1476.60</ele>
<time>2015-11-22T15:40:40Z</time>
</trkpt>
<trkpt lat="30.6855235" lon="35.6840613">
<ele>1475.90</ele>
<time>2015-11-22T15:40:41Z</time>
</trkpt>
<trkpt lat="30.6854258" lon="35.6840206">
<ele>1475.05</ele>
<time>2015-11-22T15:40:42Z</time>
</trkpt>
<trkpt lat="30.6853406" lon="35.6839725">
<ele>1474.12</ele>
<time>2015-11-22T15:40:43Z</time>
</trkpt>
<trkpt lat="30.6852662" lon="35.6838978">
<ele>1473.16</ele>
<time>2015-11-22T15:40:44Z</time>
</trkpt>
<trkpt lat="30.6852080" lon="35.6838120">
<ele>1472.18</ele>
<time>2015-11-22T15:40:45Z</time>
</trkpt>
<trkpt lat="30.6851542" lon="35.6837281">
<ele>1471.69</ele>
<time>2015-11-22T15:40:46Z</time>
</trkpt>
<trkpt lat="30.6850887" lon="35.6836376">
<ele>1470.44</ele>
<time>2015-11-22T15:40:47Z</time>
</trkpt>
<trkpt lat="30.6850308" lon="35.6835368">
<ele>1469.82</ele>
<time>2015-11-22T15:40:48Z</time>
</trkpt>
<trkpt lat="30.6849682" lon="35.6834432">
<ele>1469.01</ele>
<time>2015-11-22T15:40:49Z</time>
</trkpt>
<trkpt lat="30.6849016" lon="35.6833357">
<ele>1468.10</ele>
<time>2015-11-22T15:40:50Z</time>
</trkpt>
<trkpt lat="30.6848370" lon="35.6832354">
<ele>1467.65</ele>
<time>2015-11-22T15:40:51Z</time>
</trkpt>
<trkpt lat="30.6847804" lon="35.6831270">
<ele>1467.42</ele>
<time>2015-11-22T15:40:52Z</time>
</trkpt>
<trkpt lat="30.6847143" lon="35.6830195">
<ele>1467.31</ele>
<time>2015-11-22T15:40:53Z</time>
</trkpt>
<trkpt lat="30.6846538" lon="35.6829107">
<ele>1466.75</ele>
<time>2015-11-22T15:40:54Z</time>
</trkpt>
<trkpt lat="30.6845947" lon="35.6828035">
<ele>1465.97</ele>
<time>2015-11-22T15:40:55Z</time>
</trkpt>
<trkpt lat="30.6845334" lon="35.6826942">
<ele>1465.59</ele>
<time>2015-11-22T15:40:56Z</time>
</trkpt>
<trkpt lat="30.6844729" lon="35.6825807">
<ele>1465.39</ele>
<time>2015-11-22T15:40:57Z</time>
</trkpt>
<trkpt lat="30.6844155" lon="35.6824698">
<ele>1464.79</ele>
<time>2015-11-22T15:40:58Z</time>
</trkpt>
<trkpt lat="30.6843594" lon="35.6823502">
<ele>1464.49</ele>
<time>2015-11-22T15:40:59Z</time>
</trkpt>
<trkpt lat="30.6843119" lon="35.6822364">
<ele>1464.35</ele>
<time>2015-11-22T15:41:00Z</time>
</trkpt>
<trkpt lat="30.6842636" lon="35.6821223">
<ele>1464.27</ele>
<time>2015-11-22T15:41:01Z</time>
</trkpt>
<trkpt lat="30.6842115" lon="35.6820019">
<ele>1464.23</ele>
<time>2015-11-22T15:41:02Z</time>
</trkpt>
<trkpt lat="30.6841666" lon="35.6818780">
<ele>1463.71</ele>
<time>2015-11-22T15:41:03Z</time>
</trkpt>
<trkpt lat="30.6841117" lon="35.6817617">
<ele>1462.96</ele>
<time>2015-11-22T15:41:04Z</time>
</trkpt>
<trkpt lat="30.6840570" lon="35.6816432">
<ele>1461.58</ele>
<time>2015-11-22T15:41:05Z</time>
</trkpt>
<trkpt lat="30.6840052" lon="35.6815277">
<ele>1460.89</ele>
<time>2015-11-22T15:41:06Z</time>
</trkpt>
<trkpt lat="30.6839565" lon="35.6814048">
<ele>1460.54</ele>
<time>2015-11-22T15:41:07Z</time>
</trkpt>
<trkpt lat="30.6839076" lon="35.6812842">
<ele>1460.37</ele>
<time>2015-11-22T15:41:08Z</time>
</trkpt>
<trkpt lat="30.6838682" lon="35.6811644">
<ele>1460.28</ele>
<time>2015-11-22T15:41:09Z</time>
</trkpt>
<trkpt lat="30.6838308" lon="35.6810498">
<ele>1459.74</ele>
<time>2015-11-22T15:41:10Z</time>
</trkpt>
<trkpt lat="30.6838104" lon="35.6809203">
<ele>1458.97</ele>
<time>2015-11-22T15:41:11Z</time>
</trkpt>
<trkpt lat="30.6837786" lon="35.6807995">
<ele>1458.08</ele>
<time>2015-11-22T15:41:12Z</time>
</trkpt>
<trkpt lat="30.6837431" lon="35.6806854">
<ele>1457.14</ele>
<time>2015-11-22T15:41:13Z</time>
</trkpt>
<trkpt lat="30.6837141" lon="35.6805620">
<ele>1456.67</ele>
<time>2015-11-22T15:41:14Z</time>
</trkpt>
<trkpt lat="30.6836815" lon="35.6804438">
<ele>1456.93</ele>
<time>2015-11-22T15:41:15Z</time>
</trkpt>
<trkpt lat="30.6836530" lon="35.6803180">
<ele>1456.56</ele>
<time>2015-11-22T15:41:16Z</time>
</trkpt>
<trkpt lat="30.6836281" lon="35.6802035">
<ele>1456.38</ele>
<time>2015-11-22T15:41:17Z</time>
</trkpt>
<trkpt lat="30.6835973" lon="35.6800789">
<ele>1456.29</ele>
<time>2015-11-22T15:41:18Z</time>
</trkpt>
<trkpt lat="30.6835634" lon="35.6799554">
<ele>1455.74</ele>
<time>2015-11-22T15:41:19Z</time>
</trkpt>
<trkpt lat="30.6835436" lon="35.6798389">
<ele>1455.47</ele>
<time>2015-11-22T15:41:20Z</time>
</trkpt>
<trkpt lat="30.6835078" lon="35.6797238">
<ele>1455.33</ele>
<time>2015-11-22T15:41:21Z</time>
</trkpt>
<trkpt lat="30.6834641" lon="35.6795990">
<ele>1454.76</ele>
<time>2015-11-22T15:41:22Z</time>
</trkpt>
<trkpt lat="30.6834367" lon="35.6794707">
<ele>1454.98</ele>
<time>2015-11-22T15:41:23Z</time>
</trkpt>
<trkpt lat="30.6834129" lon="35.6793500">
<ele>1455.59</ele>
<time>2015-11-22T15:41:24Z</time>
</trkpt>
<trkpt lat="30.6833772" lon="35.6792507">
<ele>1455.89</ele>
<time>2015-11-22T15:41:25Z</time>
</trkpt>
<trkpt lat="30.6833397" lon="35.6791396">
<ele>1456.04</ele>
<time>2015-11-22T15:41:26Z</time>
</trkpt>
<trkpt lat="30.6833012" lon="35.6790219">
<ele>1456.12</ele>
<time>2015-11-22T15:41:27Z</time>
</trkpt>
<trkpt lat="30.6832645" lon="35.6789109">
<ele>1456.16</ele>
<time>2015-11-22T15:41:28Z</time>
</trkpt>
<trkpt lat="30.6832250" lon="35.6788109">
<ele>1456.18</ele>
<time>2015-11-22T15:41:29Z</time>
</trkpt>
<trkpt lat="30.6831832" lon="35.6787058">
<ele>1456.19</ele>
<time>2015-11-22T15:41:30Z</time>
</trkpt>
<trkpt lat="30.6831264" lon="35.6786082">
<ele>1455.69</ele>
<time>2015-11-22T15:41:31Z</time>
</trkpt>
<trkpt lat="30.6830699" lon="35.6785223">
<ele>1455.44</ele>
<time>2015-11-22T15:41:32Z</time>
</trkpt>
<trkpt lat="30.6830155" lon="35.6784378">
<ele>1455.32</ele>
<time>2015-11-22T15:41:33Z</time>
</trkpt>
<trkpt lat="30.6829494" lon="35.6783507">
<ele>1455.26</ele>
<time>2015-11-22T15:41:34Z</time>
</trkpt>
<trkpt lat="30.6828954" lon="35.6782699">
<ele>1454.73</ele>
<time>2015-11-22T15:41:35Z</time>
</trkpt>
<trkpt lat="30.6828388" lon="35.6781792">
<ele>1454.46</ele>
<time>2015-11-22T15:41:36Z</time>
</trkpt>
<trkpt lat="30.6827737" lon="35.6780909">
<ele>1454.33</ele>
<time>2015-11-22T15:41:37Z</time>
</trkpt>
<trkpt lat="30.6827075" lon="35.6780150">
<ele>1454.26</ele>
<time>2015-11-22T15:41:38Z</time>
</trkpt>
<trkpt lat="30.6826423" lon="35.6779393">
<ele>1454.23</ele>
<time>2015-11-22T15:41:39Z</time>
</trkpt>
<trkpt lat="30.6825729" lon="35.6778627">
<ele>1454.21</ele>
<time>2015-11-22T15:41:40Z</time>
</trkpt>
<trkpt lat="30.6825062" lon="35.6777808">
<ele>1454.20</ele>
<time>2015-11-22T15:41:41Z</time>
</trkpt>
<trkpt lat="30.6824356" lon="35.6776985">
<ele>1454.20</ele>
<time>2015-11-22T15:41:42Z</time>
</trkpt>
<trkpt lat="30.6823633" lon="35.6776150">
<ele>1453.70</ele>
<time>2015-11-22T15:41:43Z</time>
</trkpt>
<trkpt lat="30.6822973" lon="35.6775328">
<ele>1453.95</ele>
<time>2015-11-22T15:41:44Z</time>
</trkpt>
<trkpt lat="30.6822344" lon="35.6774543">
<ele>1453.57</ele>
<time>2015-11-22T15:41:45Z</time>
</trkpt>
<trkpt lat="30.6821609" lon="35.6773718">
<ele>1453.38</ele>
<time>2015-11-22T15:41:46Z</time>
</trkpt>
<trkpt lat="30.6820908" lon="35.6772917">
<ele>1453.29</ele>
<time>2015-11-22T15:41:47Z</time>
</trkpt>
<trkpt lat="30.6820210" lon="35.6772115">
<ele>1453.24</ele>
<time>2015-11-22T15:41:48Z</time>
</trkpt>
<trkpt lat="30.6819513" lon="35.6771338">
<ele>1453.22</ele>
<time>2015-11-22T15:41:49Z</time>
</trkpt>
<trkpt lat="30.6818906" lon="35.6770495">
<ele>1453.21</ele>
<time>2015-11-22T15:41:50Z</time>
</trkpt>
<trkpt lat="30.6818251" lon="35.6769717">
<ele>1453.20</ele>
<time>2015-11-22T15:41:51Z</time>
</trkpt>
<trkpt lat="30.6817681" lon="35.6768947">
<ele>1452.20</ele>
<time>2015-11-22T15:41:52Z</time>
</trkpt>
<trkpt lat="30.6816941" lon="35.6768359">
<ele>1451.20</ele>
<time>2015-11-22T15:41:53Z</time>
</trkpt>
<trkpt lat="30.6816274" lon="35.6767668">
<ele>1450.20</ele>
<time>2015-11-22T15:41:54Z</time>
</trkpt>
<trkpt lat="30.6815435" lon="35.6766929">
<ele>1449.70</ele>
<time>2015-11-22T15:41:55Z</time>
</trkpt>
<trkpt lat="30.6814738" lon="35.6766254">
<ele>1449.45</ele>
<time>2015-11-22T15:41:56Z</time>
</trkpt>
<trkpt lat="30.6813978" lon="35.6765535">
<ele>1449.32</ele>
<time>2015-11-22T15:41:57Z</time>
</trkpt>
<trkpt lat="30.6813262" lon="35.6764960">
<ele>1450.26</ele>
<time>2015-11-22T15:41:58Z</time>
</trkpt>
<trkpt lat="30.6812503" lon="35.6764280">
<ele>1450.23</ele>
<time>2015-11-22T15:41:59Z</time>
</trkpt>
<trkpt lat="30.6811742" lon="35.6763499">
<ele>1450.21</ele>
<time>2015-11-22T15:42:00Z</time>
</trkpt>
<trkpt lat="30.6811063" lon="35.6762905">
<ele>1450.20</ele>
<time>2015-11-22T15:42:01Z</time>
</trkpt>
<trkpt lat="30.6810407" lon="35.6762257">
<ele>1449.70</ele>
<time>2015-11-22T15:42:02Z</time>
</trkpt>
<trkpt lat="30.6809711" lon="35.6761728">
<ele>1449.45</ele>
<time>2015-11-22T15:42:03Z</time>
</trkpt>
<trkpt lat="30.6808929" lon="35.6761021">
<ele>1448.82</ele>
<time>2015-11-22T15:42:04Z</time>
</trkpt>
<trkpt lat="30.6808189" lon="35.6760479">
<ele>1448.51</ele>
<time>2015-11-22T15:42:05Z</time>
</trkpt>
<trkpt lat="30.6807490" lon="35.6759950">
<ele>1448.35</ele>
<time>2015-11-22T15:42:06Z</time>
</trkpt>
<trkpt lat="30.6806881" lon="35.6759333">
<ele>1447.77</ele>
<time>2015-11-22T15:42:07Z</time>
</trkpt>
<trkpt lat="30.6806191" lon="35.6758828">
<ele>1447.49</ele>
<time>2015-11-22T15:42:08Z</time>
</trkpt>
<trkpt lat="30.6805449" lon="35.6758216">
<ele>1447.84</ele>
<time>2015-11-22T15:42:09Z</time>
</trkpt>
<trkpt lat="30.6804753" lon="35.6757709">
<ele>1448.02</ele>
<time>2015-11-22T15:42:10Z</time>
</trkpt>
<trkpt lat="30.6804028" lon="35.6757078">
<ele>1448.11</ele>
<time>2015-11-22T15:42:11Z</time>
</trkpt>
<trkpt lat="30.6803350" lon="35.6756496">
<ele>1447.65</ele>
<time>2015-11-22T15:42:12Z</time>
</trkpt>
<trkpt lat="30.6802615" lon="35.6755959">
<ele>1447.42</ele>
<time>2015-11-22T15:42:13Z</time>
</trkpt>
<trkpt lat="30.6801939" lon="35.6755434">
<ele>1447.31</ele>
<time>2015-11-22T15:42:14Z</time>
</trkpt>
<trkpt lat="30.6801159" lon="35.6754866">
<ele>1447.25</ele>
<time>2015-11-22T15:42:15Z</time>
</trkpt>
<trkpt lat="30.6800372" lon="35.6754371">
<ele>1447.22</ele>
<time>2015-11-22T15:42:16Z</time>
</trkpt>
<trkpt lat="30.6799628" lon="35.6753764">
<ele>1447.71</ele>
<time>2015-11-22T15:42:17Z</time>
</trkpt>
<trkpt lat="30.6798824" lon="35.6753188">
<ele>1447.45</ele>
<time>2015-11-22T15:42:18Z</time>
</trkpt>
<trkpt lat="30.6797984" lon="35.6752532">
<ele>1446.82</ele>
<time>2015-11-22T15:42:19Z</time>
</trkpt>
<trkpt lat="30.6797272" lon="35.6751898">
<ele>1446.51</ele>
<time>2015-11-22T15:42:20Z</time>
</trkpt>
<trkpt lat="30.6796573" lon="35.6751148">
<ele>1446.35</ele>
<time>2015-11-22T15:42:21Z</time>
</trkpt>
<trkpt lat="30.6795731" lon="35.6750389">
<ele>1446.27</ele>
<time>2015-11-22T15:42:22Z</time>
</trkpt>
<trkpt lat="30.6795016" lon="35.6749712">
<ele>1445.74</ele>
<time>2015-11-22T15:42:23Z</time>
</trkpt>
<trkpt lat="30.6794206" lon="35.6748964">
<ele>1444.97</ele>
<time>2015-11-22T15:42:24Z</time>
</trkpt>
<trkpt lat="30.6793389" lon="35.6748273">
<ele>1444.58</ele>
<time>2015-11-22T15:42:25Z</time>
</trkpt>
<trkpt lat="30.6792595" lon="35.6747576">
<ele>1443.89</ele>
<time>2015-11-22T15:42:26Z</time>
</trkpt>
<trkpt lat="30.6791783" lon="35.6746846">
<ele>1444.04</ele>
<time>2015-11-22T15:42:27Z</time>
</trkpt>
<trkpt lat="30.6790906" lon="35.6746136">
<ele>1443.62</ele>
<time>2015-11-22T15:42:28Z</time>
</trkpt>
<trkpt lat="30.6790046" lon="35.6745402">
<ele>1443.41</ele>
<time>2015-11-22T15:42:29Z</time>
</trkpt>
<trkpt lat="30.6789353" lon="35.6744594">
<ele>1443.30</ele>
<time>2015-11-22T15:42:30Z</time>
</trkpt>
<trkpt lat="30.6788485" lon="35.6743869">
<ele>1443.25</ele>
<time>2015-11-22T15:42:31Z</time>
</trkpt>
<trkpt lat="30.6787658" lon="35.6743162">
<ele>1443.22</ele>
<time>2015-11-22T15:42:32Z</time>
</trkpt>
<trkpt lat="30.6786792" lon="35.6742536">
<ele>1442.71</ele>
<time>2015-11-22T15:42:33Z</time>
</trkpt>
<trkpt lat="30.6785876" lon="35.6741825">
<ele>1442.45</ele>
<time>2015-11-22T15:42:34Z</time>
</trkpt>
<trkpt lat="30.6784950" lon="35.6741142">
<ele>1442.32</ele>
<time>2015-11-22T15:42:35Z</time>
</trkpt>
<trkpt lat="30.6784053" lon="35.6740432">
<ele>1442.76</ele>
<time>2015-11-22T15:42:36Z</time>
</trkpt>
<trkpt lat="30.6783118" lon="35.6739832">
<ele>1442.98</ele>
<time>2015-11-22T15:42:37Z</time>
</trkpt>
<trkpt lat="30.6782226" lon="35.6739275">
<ele>1443.59</ele>
<time>2015-11-22T15:42:38Z</time>
</trkpt>
<trkpt lat="30.6781301" lon="35.6738692">
<ele>1443.39</ele>
<time>2015-11-22T15:42:39Z</time>
</trkpt>
<trkpt lat="30.6780438" lon="35.6738144">
<ele>1443.29</ele>
<time>2015-11-22T15:42:40Z</time>
</trkpt>
<trkpt lat="30.6779572" lon="35.6737532">
<ele>1443.24</ele>
<time>2015-11-22T15:42:41Z</time>
</trkpt>
<trkpt lat="30.6778672" lon="35.6737019">
<ele>1443.22</ele>
<time>2015-11-22T15:42:42Z</time>
</trkpt>
<trkpt lat="30.6777892" lon="35.6736437">
<ele>1443.71</ele>
<time>2015-11-22T15:42:43Z</time>
</trkpt>
<trkpt lat="30.6777114" lon="35.6735953">
<ele>1443.45</ele>
<time>2015-11-22T15:42:44Z</time>
</trkpt>
<trkpt lat="30.6776206" lon="35.6735474">
<ele>1443.32</ele>
<time>2015-11-22T15:42:45Z</time>
</trkpt>
<trkpt lat="30.6775309" lon="35.6734973">
<ele>1443.26</ele>
<time>2015-11-22T15:42:46Z</time>
</trkpt>
<trkpt lat="30.6774423" lon="35.6734534">
<ele>1443.23</ele>
<time>2015-11-22T15:42:47Z</time>
</trkpt>
<trkpt lat="30.6773568" lon="35.6734006">
<ele>1443.21</ele>
<time>2015-11-22T15:42:48Z</time>
</trkpt>
<trkpt lat="30.6772803" lon="35.6733522">
<ele>1442.70</ele>
<time>2015-11-22T15:42:49Z</time>
</trkpt>
<trkpt lat="30.6771932" lon="35.6733059">
<ele>1441.95</ele>
<time>2015-11-22T15:42:50Z</time>
</trkpt>
<trkpt lat="30.6771153" lon="35.6732494">
<ele>1441.07</ele>
<time>2015-11-22T15:42:51Z</time>
</trkpt>
<trkpt lat="30.6770276" lon="35.6732004">
<ele>1440.63</ele>
<time>2015-11-22T15:42:52Z</time>
</trkpt>
<trkpt lat="30.6769392" lon="35.6731549">
<ele>1440.92</ele>
<time>2015-11-22T15:42:53Z</time>
</trkpt>
<trkpt lat="30.6768492" lon="35.6730939">
<ele>1441.06</ele>
<time>2015-11-22T15:42:54Z</time>
</trkpt>
<trkpt lat="30.6767644" lon="35.6730318">
<ele>1441.13</ele>
<time>2015-11-22T15:42:55Z</time>
</trkpt>
<trkpt lat="30.6766762" lon="35.6729856">
<ele>1441.66</ele>
<time>2015-11-22T15:42:56Z</time>
</trkpt>
<trkpt lat="30.6765887" lon="35.6729349">
<ele>1441.93</ele>
<time>2015-11-22T15:42:57Z</time>
</trkpt>
<trkpt lat="30.6765069" lon="35.6728805">
<ele>1442.56</ele>
<time>2015-11-22T15:42:58Z</time>
</trkpt>
<trkpt lat="30.6764142" lon="35.6728277">
<ele>1442.38</ele>
<time>2015-11-22T15:42:59Z</time>
</trkpt>
<trkpt lat="30.6763209" lon="35.6727755">
<ele>1442.29</ele>
<time>2015-11-22T15:43:00Z</time>
</trkpt>
<trkpt lat="30.6762280" lon="35.6727229">
<ele>1441.74</ele>
<time>2015-11-22T15:43:01Z</time>
</trkpt>
<trkpt lat="30.6761398" lon="35.6726702">
<ele>1441.47</ele>
<time>2015-11-22T15:43:02Z</time>
</trkpt>
<trkpt lat="30.6760534" lon="35.6726190">
<ele>1441.33</ele>
<time>2015-11-22T15:43:03Z</time>
</trkpt>
<trkpt lat="30.6759655" lon="35.6725701">
<ele>1440.76</ele>
<time>2015-11-22T15:43:04Z</time>
</trkpt>
<trkpt lat="30.6758778" lon="35.6725186">
<ele>1440.48</ele>
<time>2015-11-22T15:43:05Z</time>
</trkpt>
<trkpt lat="30.6757946" lon="35.6724683">
<ele>1440.34</ele>
<time>2015-11-22T15:43:06Z</time>
</trkpt>
<trkpt lat="30.6757170" lon="35.6724223">
<ele>1439.77</ele>
<time>2015-11-22T15:43:07Z</time>
</trkpt>
<trkpt lat="30.6756332" lon="35.6723535">
<ele>1439.48</ele>
<time>2015-11-22T15:43:08Z</time>
</trkpt>
<trkpt lat="30.6755496" lon="35.6722836">
<ele>1439.84</ele>
<time>2015-11-22T15:43:09Z</time>
</trkpt>
<trkpt lat="30.6754697" lon="35.6722153">
<ele>1440.02</ele>
<time>2015-11-22T15:43:10Z</time>
</trkpt>
<trkpt lat="30.6753937" lon="35.6721501">
<ele>1440.11</ele>
<time>2015-11-22T15:43:11Z</time>
</trkpt>
<trkpt lat="30.6753135" lon="35.6720850">
<ele>1440.15</ele>
<time>2015-11-22T15:43:12Z</time>
</trkpt>
<trkpt lat="30.6752268" lon="35.6720146">
<ele>1440.67</ele>
<time>2015-11-22T15:43:13Z</time>
</trkpt>
<trkpt lat="30.6751445" lon="35.6719510">
<ele>1441.43</ele>
<time>2015-11-22T15:43:14Z</time>
</trkpt>
<trkpt lat="30.6750678" lon="35.6718906">
<ele>1441.82</ele>
<time>2015-11-22T15:43:15Z</time>
</trkpt>
<trkpt lat="30.6749851" lon="35.6718356">
<ele>1442.01</ele>
<time>2015-11-22T15:43:16Z</time>
</trkpt>
<trkpt lat="30.6749055" lon="35.6717776">
<ele>1442.60</ele>
<time>2015-11-22T15:43:17Z</time>
</trkpt>
<trkpt lat="30.6748246" lon="35.6717211">
<ele>1442.40</ele>
<time>2015-11-22T15:43:18Z</time>
</trkpt>
<trkpt lat="30.6747450" lon="35.6716658">
<ele>1442.30</ele>
<time>2015-11-22T15:43:19Z</time>
</trkpt>
<trkpt lat="30.6746634" lon="35.6716136">
<ele>1442.25</ele>
<time>2015-11-22T15:43:20Z</time>
</trkpt>
<trkpt lat="30.6745933" lon="35.6715680">
<ele>1441.72</ele>
<time>2015-11-22T15:43:21Z</time>
</trkpt>
<trkpt lat="30.6745214" lon="35.6715125">
<ele>1441.46</ele>
<time>2015-11-22T15:43:22Z</time>
</trkpt>
<trkpt lat="30.6744479" lon="35.6714676">
<ele>1440.83</ele>
<time>2015-11-22T15:43:23Z</time>
</trkpt>
<trkpt lat="30.6743764" lon="35.6714170">
<ele>1440.51</ele>
<time>2015-11-22T15:43:24Z</time>
</trkpt>
<trkpt lat="30.6743105" lon="35.6713589">
<ele>1439.85</ele>
<time>2015-11-22T15:43:25Z</time>
</trkpt>
<trkpt lat="30.6742370" lon="35.6713064">
<ele>1439.02</ele>
<time>2015-11-22T15:43:26Z</time>
</trkpt>
<trkpt lat="30.6741692" lon="35.6712482">
<ele>1438.61</ele>
<time>2015-11-22T15:43:27Z</time>
</trkpt>
<trkpt lat="30.6741138" lon="35.6711988">
<ele>1438.40</ele>
<time>2015-11-22T15:43:28Z</time>
</trkpt>
<trkpt lat="30.6740455" lon="35.6711479">
<ele>1438.80</ele>
<time>2015-11-22T15:43:29Z</time>
</trkpt>
<trkpt lat="30.6739751" lon="35.6710930">
<ele>1438.50</ele>
<time>2015-11-22T15:43:30Z</time>
</trkpt>
<trkpt lat="30.6739125" lon="35.6710337">
<ele>1438.35</ele>
<time>2015-11-22T15:43:31Z</time>
</trkpt>
<trkpt lat="30.6738426" lon="35.6709735">
<ele>1437.77</ele>
<time>2015-11-22T15:43:32Z</time>
</trkpt>
<trkpt lat="30.6737813" lon="35.6709109">
<ele>1437.48</ele>
<time>2015-11-22T15:43:33Z</time>
</trkpt>
<trkpt lat="30.6737246" lon="35.6708633">
<ele>1437.34</ele>
<time>2015-11-22T15:43:34Z</time>
</trkpt>
<trkpt lat="30.6736692" lon="35.6708076">
<ele>1437.27</ele>
<time>2015-11-22T15:43:35Z</time>
</trkpt>
<trkpt lat="30.6736082" lon="35.6707469">
<ele>1437.23</ele>
<time>2015-11-22T15:43:36Z</time>
</trkpt>
<trkpt lat="30.6735463" lon="35.6706938">
<ele>1436.71</ele>
<time>2015-11-22T15:43:37Z</time>
</trkpt>
<trkpt lat="30.6734805" lon="35.6706318">
<ele>1436.95</ele>
<time>2015-11-22T15:43:38Z</time>
</trkpt>
<trkpt lat="30.6734148" lon="35.6705627">
<ele>1437.08</ele>
<time>2015-11-22T15:43:39Z</time>
</trkpt>
<trkpt lat="30.6733520" lon="35.6704963">
<ele>1437.64</ele>
<time>2015-11-22T15:43:40Z</time>
</trkpt>
<trkpt lat="30.6732866" lon="35.6704337">
<ele>1438.42</ele>
<time>2015-11-22T15:43:41Z</time>
</trkpt>
<trkpt lat="30.6732206" lon="35.6703684">
<ele>1438.31</ele>
<time>2015-11-22T15:43:42Z</time>
</trkpt>
<trkpt lat="30.6731504" lon="35.6703010">
<ele>1438.25</ele>
<time>2015-11-22T15:43:43Z</time>
</trkpt>
<trkpt lat="30.6730825" lon="35.6702353">
<ele>1439.22</ele>
<time>2015-11-22T15:43:44Z</time>
</trkpt>
<trkpt lat="30.6730199" lon="35.6701626">
<ele>1440.21</ele>
<time>2015-11-22T15:43:45Z</time>
</trkpt>
<trkpt lat="30.6729544" lon="35.6700985">
<ele>1440.20</ele>
<time>2015-11-22T15:43:46Z</time>
</trkpt>
<trkpt lat="30.6728923" lon="35.6700360">
<ele>1440.70</ele>
<time>2015-11-22T15:43:47Z</time>
</trkpt>
<trkpt lat="30.6728220" lon="35.6699722">
<ele>1441.45</ele>
<time>2015-11-22T15:43:48Z</time>
</trkpt>
<trkpt lat="30.6727655" lon="35.6699188">
<ele>1442.32</ele>
<time>2015-11-22T15:43:49Z</time>
</trkpt>
<trkpt lat="30.6726952" lon="35.6698657">
<ele>1442.76</ele>
<time>2015-11-22T15:43:50Z</time>
</trkpt>
<trkpt lat="30.6726298" lon="35.6698134">
<ele>1443.48</ele>
<time>2015-11-22T15:43:51Z</time>
</trkpt>
<trkpt lat="30.6725647" lon="35.6697623">
<ele>1443.34</ele>
<time>2015-11-22T15:43:52Z</time>
</trkpt>
<trkpt lat="30.6724978" lon="35.6697104">
<ele>1443.77</ele>
<time>2015-11-22T15:43:53Z</time>
</trkpt>
<trkpt lat="30.6724421" lon="35.6696509">
<ele>1443.48</ele>
<time>2015-11-22T15:43:54Z</time>
</trkpt>
<trkpt lat="30.6723865" lon="35.6695839">
<ele>1443.34</ele>
<time>2015-11-22T15:43:55Z</time>
</trkpt>
<trkpt lat="30.6723236" lon="35.6695257">
<ele>1443.77</ele>
<time>2015-11-22T15:43:56Z</time>
</trkpt>
<trkpt lat="30.6722626" lon="35.6694726">
<ele>1443.48</ele>
<time>2015-11-22T15:43:57Z</time>
</trkpt>
<trkpt lat="30.6722026" lon="35.6694146">
<ele>1443.34</ele>
<time>2015-11-22T15:43:58Z</time>
</trkpt>
<trkpt lat="30.6721373" lon="35.6693602">
<ele>1442.77</ele>
<time>2015-11-22T15:43:59Z</time>
</trkpt>
<trkpt lat="30.6720757" lon="35.6692986">
<ele>1442.98</ele>
<time>2015-11-22T15:44:00Z</time>
</trkpt>
<trkpt lat="30.6720175" lon="35.6692361">
<ele>1442.59</ele>
<time>2015-11-22T15:44:01Z</time>
</trkpt>
<trkpt lat="30.6719702" lon="35.6691745">
<ele>1441.89</ele>
<time>2015-11-22T15:44:02Z</time>
</trkpt>
<trkpt lat="30.6719117" lon="35.6691152">
<ele>1441.54</ele>
<time>2015-11-22T15:44:03Z</time>
</trkpt>
<trkpt lat="30.6718475" lon="35.6690523">
<ele>1441.37</ele>
<time>2015-11-22T15:44:04Z</time>
</trkpt>
<trkpt lat="30.6717888" lon="35.6689805">
<ele>1440.78</ele>
<time>2015-11-22T15:44:05Z</time>
</trkpt>
<trkpt lat="30.6717289" lon="35.6689181">
<ele>1439.99</ele>
<time>2015-11-22T15:44:06Z</time>
</trkpt>
<trkpt lat="30.6716702" lon="35.6688658">
<ele>1438.59</ele>
<time>2015-11-22T15:44:07Z</time>
</trkpt>
<trkpt lat="30.6716142" lon="35.6688107">
<ele>1437.39</ele>
<time>2015-11-22T15:44:08Z</time>
</trkpt>
<trkpt lat="30.6715513" lon="35.6687486">
<ele>1436.30</ele>
<time>2015-11-22T15:44:09Z</time>
</trkpt>
<trkpt lat="30.6714858" lon="35.6686803">
<ele>1435.75</ele>
<time>2015-11-22T15:44:10Z</time>
</trkpt>
<trkpt lat="30.6714257" lon="35.6686196">
<ele>1435.47</ele>
<time>2015-11-22T15:44:11Z</time>
</trkpt>
<trkpt lat="30.6713606" lon="35.6685534">
<ele>1435.83</ele>
<time>2015-11-22T15:44:12Z</time>
</trkpt>
<trkpt lat="30.6712884" lon="35.6684810">
<ele>1436.01</ele>
<time>2015-11-22T15:44:13Z</time>
</trkpt>
<trkpt lat="30.6712185" lon="35.6684077">
<ele>1436.61</ele>
<time>2015-11-22T15:44:14Z</time>
</trkpt>
<trkpt lat="30.6711530" lon="35.6683374">
<ele>1436.40</ele>
<time>2015-11-22T15:44:15Z</time>
</trkpt>
<trkpt lat="30.6710870" lon="35.6682773">
<ele>1436.30</ele>
<time>2015-11-22T15:44:16Z</time>
</trkpt>
<trkpt lat="30.6710224" lon="35.6682067">
<ele>1435.75</ele>
<time>2015-11-22T15:44:17Z</time>
</trkpt>
<trkpt lat="30.6709507" lon="35.6681333">
<ele>1435.47</ele>
<time>2015-11-22T15:44:18Z</time>
</trkpt>
<trkpt lat="30.6708888" lon="35.6680616">
<ele>1435.33</ele>
<time>2015-11-22T15:44:19Z</time>
</trkpt>
<trkpt lat="30.6708238" lon="35.6679922">
<ele>1435.26</ele>
<time>2015-11-22T15:44:20Z</time>
</trkpt>
<trkpt lat="30.6707549" lon="35.6679249">
<ele>1435.23</ele>
<time>2015-11-22T15:44:21Z</time>
</trkpt>
<trkpt lat="30.6706859" lon="35.6678602">
<ele>1435.21</ele>
<time>2015-11-22T15:44:22Z</time>
</trkpt>
<trkpt lat="30.6706236" lon="35.6677972">
<ele>1434.70</ele>
<time>2015-11-22T15:44:23Z</time>
</trkpt>
<trkpt lat="30.6705773" lon="35.6677421">
<ele>1434.45</ele>
<time>2015-11-22T15:44:24Z</time>
</trkpt>
<trkpt lat="30.6705218" lon="35.6676803">
<ele>1434.32</ele>
<time>2015-11-22T15:44:25Z</time>
</trkpt>
<trkpt lat="30.6704713" lon="35.6676158">
<ele>1435.26</ele>
<time>2015-11-22T15:44:26Z</time>
</trkpt>
<trkpt lat="30.6704218" lon="35.6675570">
<ele>1435.73</ele>
<time>2015-11-22T15:44:27Z</time>
</trkpt>
<trkpt lat="30.6703732" lon="35.6674992">
<ele>1435.96</ele>
<time>2015-11-22T15:44:28Z</time>
</trkpt>
<trkpt lat="30.6703298" lon="35.6674422">
<ele>1436.58</ele>
<time>2015-11-22T15:44:29Z</time>
</trkpt>
<trkpt lat="30.6702923" lon="35.6673962">
<ele>1436.39</ele>
<time>2015-11-22T15:44:30Z</time>
</trkpt>
<trkpt lat="30.6702247" lon="35.6673305">
<ele>1436.74</ele>
<time>2015-11-22T15:44:32Z</time>
</trkpt>
<trkpt lat="30.6701624" lon="35.6672748">
<ele>1437.58</ele>
<time>2015-11-22T15:44:34Z</time>
</trkpt>
<trkpt lat="30.6701275" lon="35.6672406">
<ele>1438.39</ele>
<time>2015-11-22T15:44:35Z</time>
</trkpt>
<trkpt lat="30.6700916" lon="35.6671986">
<ele>1440.24</ele>
<time>2015-11-22T15:44:37Z</time>
</trkpt>
<trkpt lat="30.6700610" lon="35.6671516">
<ele>1441.08</ele>
<time>2015-11-22T15:44:40Z</time>
</trkpt>
<trkpt lat="30.6700218" lon="35.6671016">
<ele>1442.18</ele>
<time>2015-11-22T15:44:43Z</time>
</trkpt>
<trkpt lat="30.6699809" lon="35.6670569">
<ele>1443.13</ele>
<time>2015-11-22T15:44:47Z</time>
</trkpt>
<trkpt lat="30.6699341" lon="35.6670208">
<ele>1442.75</ele>
<time>2015-11-22T15:44:51Z</time>
</trkpt>
<trkpt lat="30.6698938" lon="35.6669824">
<ele>1444.42</ele>
<time>2015-11-22T15:44:55Z</time>
</trkpt>
<trkpt lat="30.6698608" lon="35.6669430">
<ele>1445.85</ele>
<time>2015-11-22T15:44:58Z</time>
</trkpt>
<trkpt lat="30.6698195" lon="35.6669007">
<ele>1446.92</ele>
<time>2015-11-22T15:45:02Z</time>
</trkpt>
<trkpt lat="30.6697811" lon="35.6668550">
<ele>1447.18</ele>
<time>2015-11-22T15:45:06Z</time>
</trkpt>
<trkpt lat="30.6697525" lon="35.6668121">
<ele>1447.94</ele>
<time>2015-11-22T15:45:09Z</time>
</trkpt>
<trkpt lat="30.6697204" lon="35.6667697">
<ele>1448.91</ele>
<time>2015-11-22T15:45:12Z</time>
</trkpt>
<trkpt lat="30.6696774" lon="35.6667236">
<ele>1449.80</ele>
<time>2015-11-22T15:45:16Z</time>
</trkpt>
<trkpt lat="30.6696378" lon="35.6666786">
<ele>1451.05</ele>
<time>2015-11-22T15:45:20Z</time>
</trkpt>
<trkpt lat="30.6695931" lon="35.6666391">
<ele>1452.37</ele>
<time>2015-11-22T15:45:24Z</time>
</trkpt>
<trkpt lat="30.6695554" lon="35.6666078">
<ele>1453.59</ele>
<time>2015-11-22T15:45:27Z</time>
</trkpt>
<trkpt lat="30.6695190" lon="35.6665756">
<ele>1454.12</ele>
<time>2015-11-22T15:45:30Z</time>
</trkpt>
<trkpt lat="30.6694715" lon="35.6665365">
<ele>1455.63</ele>
<time>2015-11-22T15:45:34Z</time>
</trkpt>
<trkpt lat="30.6694292" lon="35.6664993">
<ele>1457.04</ele>
<time>2015-11-22T15:45:38Z</time>
</trkpt>
<trkpt lat="30.6693785" lon="35.6664622">
<ele>1458.12</ele>
<time>2015-11-22T15:45:42Z</time>
</trkpt>
<trkpt lat="30.6693363" lon="35.6664342">
<ele>1458.19</ele>
<time>2015-11-22T15:45:45Z</time>
</trkpt>
<trkpt lat="30.6692900" lon="35.6664110">
<ele>1458.19</ele>
<time>2015-11-22T15:45:48Z</time>
</trkpt>
<trkpt lat="30.6692447" lon="35.6663906">
<ele>1458.70</ele>
<time>2015-11-22T15:45:51Z</time>
</trkpt>
<trkpt lat="30.6692000" lon="35.6663712">
<ele>1459.13</ele>
<time>2015-11-22T15:45:54Z</time>
</trkpt>
<trkpt lat="30.6691530" lon="35.6663427">
<ele>1458.69</ele>
<time>2015-11-22T15:45:57Z</time>
</trkpt>
<trkpt lat="30.6691014" lon="35.6663059">
<ele>1459.88</ele>
<time>2015-11-22T15:46:00Z</time>
</trkpt>
<trkpt lat="30.6690459" lon="35.6662685">
<ele>1460.16</ele>
<time>2015-11-22T15:46:03Z</time>
</trkpt>
<trkpt lat="30.6689933" lon="35.6662245">
<ele>1461.07</ele>
<time>2015-11-22T15:46:06Z</time>
</trkpt>
<trkpt lat="30.6689581" lon="35.6661895">
<ele>1462.16</ele>
<time>2015-11-22T15:46:08Z</time>
</trkpt>
<trkpt lat="30.6689146" lon="35.6661404">
<ele>1462.32</ele>
<time>2015-11-22T15:46:11Z</time>
</trkpt>
<trkpt lat="30.6688695" lon="35.6660893">
<ele>1462.96</ele>
<time>2015-11-22T15:46:14Z</time>
</trkpt>
<trkpt lat="30.6688383" lon="35.6660500">
<ele>1463.14</ele>
<time>2015-11-22T15:46:16Z</time>
</trkpt>
<trkpt lat="30.6688064" lon="35.6660077">
<ele>1462.93</ele>
<time>2015-11-22T15:46:18Z</time>
</trkpt>
<trkpt lat="30.6687782" lon="35.6659647">
<ele>1462.63</ele>
<time>2015-11-22T15:46:20Z</time>
</trkpt>
<trkpt lat="30.6687407" lon="35.6659044">
<ele>1462.88</ele>
<time>2015-11-22T15:46:23Z</time>
</trkpt>
<trkpt lat="30.6687002" lon="35.6658555">
<ele>1462.78</ele>
<time>2015-11-22T15:46:26Z</time>
</trkpt>
<trkpt lat="30.6686656" lon="35.6658218">
<ele>1463.59</ele>
<time>2015-11-22T15:46:28Z</time>
</trkpt>
<trkpt lat="30.6686266" lon="35.6657824">
<ele>1464.05</ele>
<time>2015-11-22T15:46:30Z</time>
</trkpt>
<trkpt lat="30.6685769" lon="35.6657398">
<ele>1464.16</ele>
<time>2015-11-22T15:46:32Z</time>
</trkpt>
<trkpt lat="30.6685306" lon="35.6657004">
<ele>1464.19</ele>
<time>2015-11-22T15:46:34Z</time>
</trkpt>
<trkpt lat="30.6684907" lon="35.6656646">
<ele>1464.19</ele>
<time>2015-11-22T15:46:36Z</time>
</trkpt>
<trkpt lat="30.6684449" lon="35.6656309">
<ele>1464.20</ele>
<time>2015-11-22T15:46:38Z</time>
</trkpt>
<trkpt lat="30.6683934" lon="35.6655977">
<ele>1464.20</ele>
<time>2015-11-22T15:46:40Z</time>
</trkpt>
<trkpt lat="30.6683410" lon="35.6655697">
<ele>1464.20</ele>
<time>2015-11-22T15:46:42Z</time>
</trkpt>
<trkpt lat="30.6682944" lon="35.6655442">
<ele>1464.20</ele>
<time>2015-11-22T15:46:44Z</time>
</trkpt>
<trkpt lat="30.6682504" lon="35.6655276">
<ele>1464.95</ele>
<time>2015-11-22T15:46:46Z</time>
</trkpt>
<trkpt lat="30.6682060" lon="35.6655159">
<ele>1464.63</ele>
<time>2015-11-22T15:46:48Z</time>
</trkpt>
<trkpt lat="30.6681600" lon="35.6655052">
<ele>1464.06</ele>
<time>2015-11-22T15:46:50Z</time>
</trkpt>
<trkpt lat="30.6681086" lon="35.6654979">
<ele>1464.16</ele>
<time>2015-11-22T15:46:52Z</time>
</trkpt>
<trkpt lat="30.6680499" lon="35.6654931">
<ele>1464.69</ele>
<time>2015-11-22T15:46:54Z</time>
</trkpt>
<trkpt lat="30.6679885" lon="35.6654851">
<ele>1465.07</ele>
<time>2015-11-22T15:46:56Z</time>
</trkpt>
<trkpt lat="30.6679279" lon="35.6654765">
<ele>1465.41</ele>
<time>2015-11-22T15:46:58Z</time>
</trkpt>
<trkpt lat="30.6678702" lon="35.6654752">
<ele>1465.25</ele>
<time>2015-11-22T15:47:00Z</time>
</trkpt>
<trkpt lat="30.6678153" lon="35.6654792">
<ele>1465.96</ele>
<time>2015-11-22T15:47:02Z</time>
</trkpt>
<trkpt lat="30.6677607" lon="35.6654785">
<ele>1466.64</ele>
<time>2015-11-22T15:47:04Z</time>
</trkpt>
<trkpt lat="30.6677058" lon="35.6654731">
<ele>1467.06</ele>
<time>2015-11-22T15:47:06Z</time>
</trkpt>
<trkpt lat="30.6676540" lon="35.6654677">
<ele>1467.16</ele>
<time>2015-11-22T15:47:08Z</time>
</trkpt>
<trkpt lat="30.6676040" lon="35.6654626">
<ele>1467.19</ele>
<time>2015-11-22T15:47:10Z</time>
</trkpt>
<trkpt lat="30.6675554" lon="35.6654507">
<ele>1467.19</ele>
<time>2015-11-22T15:47:12Z</time>
</trkpt>
<trkpt lat="30.6675137" lon="35.6654232">
<ele>1467.20</ele>
<time>2015-11-22T15:47:14Z</time>
</trkpt>
<trkpt lat="30.6674779" lon="35.6653820">
<ele>1467.20</ele>
<time>2015-11-22T15:47:16Z</time>
</trkpt>
<trkpt lat="30.6674505" lon="35.6653303">
<ele>1466.45</ele>
<time>2015-11-22T15:47:18Z</time>
</trkpt>
<trkpt lat="30.6674385" lon="35.6652679">
<ele>1466.26</ele>
<time>2015-11-22T15:47:20Z</time>
</trkpt>
<trkpt lat="30.6674389" lon="35.6651980">
<ele>1464.96</ele>
<time>2015-11-22T15:47:22Z</time>
</trkpt>
<trkpt lat="30.6674495" lon="35.6651248">
<ele>1463.89</ele>
<time>2015-11-22T15:47:24Z</time>
</trkpt>
<trkpt lat="30.6674632" lon="35.6650475">
<ele>1464.12</ele>
<time>2015-11-22T15:47:26Z</time>
</trkpt>
<trkpt lat="30.6674751" lon="35.6649639">
<ele>1463.68</ele>
<time>2015-11-22T15:47:28Z</time>
</trkpt>
<trkpt lat="30.6674906" lon="35.6648715">
<ele>1464.07</ele>
<time>2015-11-22T15:47:30Z</time>
</trkpt>
<trkpt lat="30.6675094" lon="35.6647776">
<ele>1464.16</ele>
<time>2015-11-22T15:47:32Z</time>
</trkpt>
<trkpt lat="30.6675304" lon="35.6646820">
<ele>1464.19</ele>
<time>2015-11-22T15:47:34Z</time>
</trkpt>
<trkpt lat="30.6675513" lon="35.6645870">
<ele>1464.19</ele>
<time>2015-11-22T15:47:36Z</time>
</trkpt>
<trkpt lat="30.6675739" lon="35.6644990">
<ele>1464.70</ele>
<time>2015-11-22T15:47:38Z</time>
</trkpt>
<trkpt lat="30.6676033" lon="35.6643844">
<ele>1464.32</ele>
<time>2015-11-22T15:47:41Z</time>
</trkpt>
<trkpt lat="30.6676212" lon="35.6643176">
<ele>1464.23</ele>
<time>2015-11-22T15:47:43Z</time>
</trkpt>
<trkpt lat="30.6676374" lon="35.6642534">
<ele>1463.45</ele>
<time>2015-11-22T15:47:45Z</time>
</trkpt>
<trkpt lat="30.6676580" lon="35.6641938">
<ele>1462.76</ele>
<time>2015-11-22T15:47:47Z</time>
</trkpt>
<trkpt lat="30.6676885" lon="35.6641384">
<ele>1462.34</ele>
<time>2015-11-22T15:47:49Z</time>
</trkpt>
<trkpt lat="30.6677292" lon="35.6640837">
<ele>1462.48</ele>
<time>2015-11-22T15:47:51Z</time>
</trkpt>
<trkpt lat="30.6677793" lon="35.6640301">
<ele>1463.02</ele>
<time>2015-11-22T15:47:53Z</time>
</trkpt>
<trkpt lat="30.6678374" lon="35.6639804">
<ele>1462.90</ele>
<time>2015-11-22T15:47:55Z</time>
</trkpt>
<trkpt lat="30.6678888" lon="35.6639442">
<ele>1463.12</ele>
<time>2015-11-22T15:47:57Z</time>
</trkpt>
<trkpt lat="30.6679374" lon="35.6639102">
<ele>1461.32</ele>
<time>2015-11-22T15:56:40Z</time>
</trkpt>
<trkpt lat="30.6679860" lon="35.6638751">
<ele>1463.34</ele>
<time>2015-11-22T15:56:43Z</time>
</trkpt>
<trkpt lat="30.6680258" lon="35.6638488">
<ele>1463.98</ele>
<time>2015-11-22T15:56:45Z</time>
</trkpt>
<trkpt lat="30.6680800" lon="35.6638134">
<ele>1463.29</ele>
<time>2015-11-22T15:56:48Z</time>
</trkpt>
<trkpt lat="30.6681184" lon="35.6637735">
<ele>1462.46</ele>
<time>2015-11-22T15:56:51Z</time>
</trkpt>
<trkpt lat="30.6681601" lon="35.6637416">
<ele>1462.23</ele>
<time>2015-11-22T15:56:54Z</time>
</trkpt>
<trkpt lat="30.6682057" lon="35.6637162">
<ele>1461.70</ele>
<time>2015-11-22T15:56:57Z</time>
</trkpt>
<trkpt lat="30.6682575" lon="35.6636868">
<ele>1462.10</ele>
<time>2015-11-22T15:57:01Z</time>
</trkpt>
<trkpt lat="30.6683078" lon="35.6636383">
<ele>1463.06</ele>
<time>2015-11-22T15:57:04Z</time>
</trkpt>
<trkpt lat="30.6683582" lon="35.6635884">
<ele>1463.16</ele>
<time>2015-11-22T15:57:06Z</time>
</trkpt>
<trkpt lat="30.6684063" lon="35.6635461">
<ele>1463.19</ele>
<time>2015-11-22T15:57:08Z</time>
</trkpt>
<trkpt lat="30.6684452" lon="35.6635100">
<ele>1463.94</ele>
<time>2015-11-22T15:57:10Z</time>
</trkpt>
<trkpt lat="30.6684812" lon="35.6634701">
<ele>1464.16</ele>
<time>2015-11-22T15:57:13Z</time>
</trkpt>
<trkpt lat="30.6685199" lon="35.6634272">
<ele>1464.94</ele>
<time>2015-11-22T15:57:16Z</time>
</trkpt>
<trkpt lat="30.6685596" lon="35.6633909">
<ele>1465.41</ele>
<time>2015-11-22T15:57:19Z</time>
</trkpt>
<trkpt lat="30.6685966" lon="35.6633543">
<ele>1466.65</ele>
<time>2015-11-22T15:57:23Z</time>
</trkpt>
<trkpt lat="30.6686422" lon="35.6633146">
<ele>1466.66</ele>
<time>2015-11-22T15:57:27Z</time>
</trkpt>
<trkpt lat="30.6686793" lon="35.6632674">
<ele>1466.25</ele>
<time>2015-11-22T15:57:30Z</time>
</trkpt>
<trkpt lat="30.6687258" lon="35.6632152">
<ele>1466.20</ele>
<time>2015-11-22T15:57:33Z</time>
</trkpt>
<trkpt lat="30.6687642" lon="35.6631798">
<ele>1466.20</ele>
<time>2015-11-22T15:57:35Z</time>
</trkpt>
<trkpt lat="30.6688109" lon="35.6631397">
<ele>1466.95</ele>
<time>2015-11-22T15:57:37Z</time>
</trkpt>
<trkpt lat="30.6688698" lon="35.6630942">
<ele>1467.88</ele>
<time>2015-11-22T15:57:39Z</time>
</trkpt>
<trkpt lat="30.6689312" lon="35.6630481">
<ele>1468.12</ele>
<time>2015-11-22T15:57:41Z</time>
</trkpt>
<trkpt lat="30.6689944" lon="35.6629990">
<ele>1467.68</ele>
<time>2015-11-22T15:57:43Z</time>
</trkpt>
<trkpt lat="30.6690600" lon="35.6629492">
<ele>1467.82</ele>
<time>2015-11-22T15:57:45Z</time>
</trkpt>
<trkpt lat="30.6691231" lon="35.6628988">
<ele>1468.10</ele>
<time>2015-11-22T15:57:47Z</time>
</trkpt>
<trkpt lat="30.6691833" lon="35.6628510">
<ele>1468.17</ele>
<time>2015-11-22T15:57:49Z</time>
</trkpt>
<trkpt lat="30.6692418" lon="35.6628055">
<ele>1468.19</ele>
<time>2015-11-22T15:57:51Z</time>
</trkpt>
<trkpt lat="30.6692980" lon="35.6627613">
<ele>1468.69</ele>
<time>2015-11-22T15:57:53Z</time>
</trkpt>
<trkpt lat="30.6693505" lon="35.6627146">
<ele>1469.57</ele>
<time>2015-11-22T15:57:55Z</time>
</trkpt>
<trkpt lat="30.6693866" lon="35.6626556">
<ele>1470.04</ele>
<time>2015-11-22T15:57:57Z</time>
</trkpt>
<trkpt lat="30.6694028" lon="35.6625873">
<ele>1470.16</ele>
<time>2015-11-22T15:57:59Z</time>
</trkpt>
<trkpt lat="30.6694043" lon="35.6625180">
<ele>1470.19</ele>
<time>2015-11-22T15:58:01Z</time>
</trkpt>
<trkpt lat="30.6693717" lon="35.6624646">
<ele>1469.69</ele>
<time>2015-11-22T15:58:03Z</time>
</trkpt>
<trkpt lat="30.6693086" lon="35.6624509">
<ele>1469.32</ele>
<time>2015-11-22T15:58:05Z</time>
</trkpt>
<trkpt lat="30.6692036" lon="35.6625059">
<ele>1467.98</ele>
<time>2015-11-22T15:58:08Z</time>
</trkpt>
<trkpt lat="30.6691674" lon="35.6625378">
<ele>1467.59</ele>
<time>2015-11-22T15:58:09Z</time>
</trkpt>
<trkpt lat="30.6691296" lon="35.6625726">
<ele>1467.39</ele>
<time>2015-11-22T15:58:10Z</time>
</trkpt>
<trkpt lat="30.6690900" lon="35.6626067">
<ele>1467.29</ele>
<time>2015-11-22T15:58:11Z</time>
</trkpt>
<trkpt lat="30.6690285" lon="35.6626606">
<ele>1466.74</ele>
<time>2015-11-22T15:58:12Z</time>
</trkpt>
<trkpt lat="30.6689863" lon="35.6626912">
<ele>1465.97</ele>
<time>2015-11-22T15:58:13Z</time>
</trkpt>
<trkpt lat="30.6689395" lon="35.6627182">
<ele>1465.58</ele>
<time>2015-11-22T15:58:14Z</time>
</trkpt>
<trkpt lat="30.6688847" lon="35.6627452">
<ele>1465.39</ele>
<time>2015-11-22T15:58:15Z</time>
</trkpt>
<trkpt lat="30.6688353" lon="35.6627899">
<ele>1464.79</ele>
<time>2015-11-22T15:58:16Z</time>
</trkpt>
<trkpt lat="30.6687850" lon="35.6628263">
<ele>1464.49</ele>
<time>2015-11-22T15:58:17Z</time>
</trkpt>
<trkpt lat="30.6687270" lon="35.6628665">
<ele>1464.35</ele>
<time>2015-11-22T15:58:18Z</time>
</trkpt>
<trkpt lat="30.6686692" lon="35.6629016">
<ele>1463.77</ele>
<time>2015-11-22T15:58:19Z</time>
</trkpt>
<trkpt lat="30.6686189" lon="35.6629324">
<ele>1463.48</ele>
<time>2015-11-22T15:58:20Z</time>
</trkpt>
<trkpt lat="30.6685571" lon="35.6629696">
<ele>1462.84</ele>
<time>2015-11-22T15:58:21Z</time>
</trkpt>
<trkpt lat="30.6684882" lon="35.6630104">
<ele>1462.52</ele>
<time>2015-11-22T15:58:22Z</time>
</trkpt>
<trkpt lat="30.6684219" lon="35.6630463">
<ele>1461.86</ele>
<time>2015-11-22T15:58:23Z</time>
</trkpt>
<trkpt lat="30.6683450" lon="35.6630807">
<ele>1461.53</ele>
<time>2015-11-22T15:58:24Z</time>
</trkpt>
<trkpt lat="30.6682747" lon="35.6631148">
<ele>1461.86</ele>
<time>2015-11-22T15:58:25Z</time>
</trkpt>
<trkpt lat="30.6681924" lon="35.6631544">
<ele>1462.03</ele>
<time>2015-11-22T15:58:26Z</time>
</trkpt>
<trkpt lat="30.6681264" lon="35.6631905">
<ele>1461.61</ele>
<time>2015-11-22T15:58:27Z</time>
</trkpt>
<trkpt lat="30.6680527" lon="35.6632195">
<ele>1461.40</ele>
<time>2015-11-22T15:58:28Z</time>
</trkpt>
<trkpt lat="30.6679800" lon="35.6632511">
<ele>1461.30</ele>
<time>2015-11-22T15:58:29Z</time>
</trkpt>
<trkpt lat="30.6678952" lon="35.6632834">
<ele>1460.75</ele>
<time>2015-11-22T15:58:30Z</time>
</trkpt>
<trkpt lat="30.6678146" lon="35.6633172">
<ele>1460.47</ele>
<time>2015-11-22T15:58:31Z</time>
</trkpt>
<trkpt lat="30.6677267" lon="35.6633431">
<ele>1460.33</ele>
<time>2015-11-22T15:58:32Z</time>
</trkpt>
<trkpt lat="30.6676382" lon="35.6633700">
<ele>1460.27</ele>
<time>2015-11-22T15:58:33Z</time>
</trkpt>
<trkpt lat="30.6675501" lon="35.6633895">
<ele>1459.73</ele>
<time>2015-11-22T15:58:34Z</time>
</trkpt>
<trkpt lat="30.6674632" lon="35.6634191">
<ele>1458.96</ele>
<time>2015-11-22T15:58:35Z</time>
</trkpt>
<trkpt lat="30.6673752" lon="35.6634482">
<ele>1458.08</ele>
<time>2015-11-22T15:58:36Z</time>
</trkpt>
<trkpt lat="30.6672881" lon="35.6634694">
<ele>1458.14</ele>
<time>2015-11-22T15:58:37Z</time>
</trkpt>
<trkpt lat="30.6672103" lon="35.6634864">
<ele>1458.17</ele>
<time>2015-11-22T15:58:38Z</time>
</trkpt>
<trkpt lat="30.6671285" lon="35.6635123">
<ele>1457.68</ele>
<time>2015-11-22T15:58:39Z</time>
</trkpt>
<trkpt lat="30.6670414" lon="35.6635302">
<ele>1456.94</ele>
<time>2015-11-22T15:58:40Z</time>
</trkpt>
<trkpt lat="30.6669532" lon="35.6635542">
<ele>1456.57</ele>
<time>2015-11-22T15:58:41Z</time>
</trkpt>
<trkpt lat="30.6668601" lon="35.6635753">
<ele>1456.38</ele>
<time>2015-11-22T15:58:42Z</time>
</trkpt>
<trkpt lat="30.6667729" lon="35.6635904">
<ele>1455.29</ele>
<time>2015-11-22T15:58:43Z</time>
</trkpt>
<trkpt lat="30.6666938" lon="35.6636101">
<ele>1453.74</ele>
<time>2015-11-22T15:58:44Z</time>
</trkpt>
<trkpt lat="30.6665971" lon="35.6636288">
<ele>1451.97</ele>
<time>2015-11-22T15:58:45Z</time>
</trkpt>
<trkpt lat="30.6664991" lon="35.6636436">
<ele>1450.58</ele>
<time>2015-11-22T15:58:46Z</time>
</trkpt>
<trkpt lat="30.6663948" lon="35.6636575">
<ele>1449.39</ele>
<time>2015-11-22T15:58:47Z</time>
</trkpt>
<trkpt lat="30.6662955" lon="35.6636637">
<ele>1448.29</ele>
<time>2015-11-22T15:58:48Z</time>
</trkpt>
<trkpt lat="30.6661879" lon="35.6636856">
<ele>1447.74</ele>
<time>2015-11-22T15:58:49Z</time>
</trkpt>
<trkpt lat="30.6660791" lon="35.6636985">
<ele>1446.97</ele>
<time>2015-11-22T15:58:50Z</time>
</trkpt>
<trkpt lat="30.6659628" lon="35.6637151">
<ele>1446.08</ele>
<time>2015-11-22T15:58:51Z</time>
</trkpt>
<trkpt lat="30.6658537" lon="35.6637251">
<ele>1445.14</ele>
<time>2015-11-22T15:58:52Z</time>
</trkpt>
<trkpt lat="30.6657468" lon="35.6637457">
<ele>1444.17</ele>
<time>2015-11-22T15:58:53Z</time>
</trkpt>
<trkpt lat="30.6656288" lon="35.6637570">
<ele>1443.68</ele>
<time>2015-11-22T15:58:54Z</time>
</trkpt>
<trkpt lat="30.6655173" lon="35.6637695">
<ele>1442.44</ele>
<time>2015-11-22T15:58:55Z</time>
</trkpt>
<trkpt lat="30.6654026" lon="35.6637844">
<ele>1441.32</ele>
<time>2015-11-22T15:58:56Z</time>
</trkpt>
<trkpt lat="30.6652890" lon="35.6638040">
<ele>1440.26</ele>
<time>2015-11-22T15:58:57Z</time>
</trkpt>
<trkpt lat="30.6651751" lon="35.6638170">
<ele>1439.73</ele>
<time>2015-11-22T15:58:58Z</time>
</trkpt>
<trkpt lat="30.6650574" lon="35.6638249">
<ele>1438.96</ele>
<time>2015-11-22T15:58:59Z</time>
</trkpt>
<trkpt lat="30.6649454" lon="35.6638301">
<ele>1438.08</ele>
<time>2015-11-22T15:59:00Z</time>
</trkpt>
<trkpt lat="30.6648362" lon="35.6638443">
<ele>1437.64</ele>
<time>2015-11-22T15:59:01Z</time>
</trkpt>
<trkpt lat="30.6647304" lon="35.6638613">
<ele>1436.92</ele>
<time>2015-11-22T15:59:02Z</time>
</trkpt>
<trkpt lat="30.6646143" lon="35.6638618">
<ele>1436.06</ele>
<time>2015-11-22T15:59:03Z</time>
</trkpt>
<trkpt lat="30.6645075" lon="35.6638750">
<ele>1435.13</ele>
<time>2015-11-22T15:59:04Z</time>
</trkpt>
<trkpt lat="30.6643972" lon="35.6638870">
<ele>1434.16</ele>
<time>2015-11-22T15:59:05Z</time>
</trkpt>
<trkpt lat="30.6642821" lon="35.6638886">
<ele>1433.18</ele>
<time>2015-11-22T15:59:06Z</time>
</trkpt>
<trkpt lat="30.6641683" lon="35.6638926">
<ele>1432.69</ele>
<time>2015-11-22T15:59:07Z</time>
</trkpt>
<trkpt lat="30.6640606" lon="35.6638965">
<ele>1432.94</ele>
<time>2015-11-22T15:59:08Z</time>
</trkpt>
<trkpt lat="30.6639527" lon="35.6639047">
<ele>1432.07</ele>
<time>2015-11-22T15:59:09Z</time>
</trkpt>
<trkpt lat="30.6638340" lon="35.6639036">
<ele>1431.63</ele>
<time>2015-11-22T15:59:10Z</time>
</trkpt>
<trkpt lat="30.6637148" lon="35.6639004">
<ele>1431.41</ele>
<time>2015-11-22T15:59:11Z</time>
</trkpt>
<trkpt lat="30.6635986" lon="35.6638987">
<ele>1430.81</ele>
<time>2015-11-22T15:59:12Z</time>
</trkpt>
<trkpt lat="30.6634788" lon="35.6638912">
<ele>1430.50</ele>
<time>2015-11-22T15:59:13Z</time>
</trkpt>
<trkpt lat="30.6633576" lon="35.6638901">
<ele>1429.35</ele>
<time>2015-11-22T15:59:14Z</time>
</trkpt>
<trkpt lat="30.6632396" lon="35.6638764">
<ele>1428.27</ele>
<time>2015-11-22T15:59:15Z</time>
</trkpt>
<trkpt lat="30.6631196" lon="35.6638674">
<ele>1427.23</ele>
<time>2015-11-22T15:59:16Z</time>
</trkpt>
<trkpt lat="30.6629937" lon="35.6638558">
<ele>1426.72</ele>
<time>2015-11-22T15:59:17Z</time>
</trkpt>
<trkpt lat="30.6628782" lon="35.6638456">
<ele>1425.96</ele>
<time>2015-11-22T15:59:18Z</time>
</trkpt>
<trkpt lat="30.6627547" lon="35.6638411">
<ele>1425.08</ele>
<time>2015-11-22T15:59:19Z</time>
</trkpt>
<trkpt lat="30.6626326" lon="35.6638225">
<ele>1425.14</ele>
<time>2015-11-22T15:59:20Z</time>
</trkpt>
<trkpt lat="30.6625116" lon="35.6638026">
<ele>1425.17</ele>
<time>2015-11-22T15:59:21Z</time>
</trkpt>
<trkpt lat="30.6623969" lon="35.6637861">
<ele>1425.18</ele>
<time>2015-11-22T15:59:22Z</time>
</trkpt>
<trkpt lat="30.6622797" lon="35.6637638">
<ele>1425.19</ele>
<time>2015-11-22T15:59:23Z</time>
</trkpt>
<trkpt lat="30.6621555" lon="35.6637415">
<ele>1424.69</ele>
<time>2015-11-22T15:59:24Z</time>
</trkpt>
<trkpt lat="30.6620367" lon="35.6637152">
<ele>1423.94</ele>
<time>2015-11-22T15:59:25Z</time>
</trkpt>
<trkpt lat="30.6619324" lon="35.6636812">
<ele>1422.57</ele>
<time>2015-11-22T15:59:26Z</time>
</trkpt>
<trkpt lat="30.6618135" lon="35.6636597">
<ele>1422.38</ele>
<time>2015-11-22T15:59:27Z</time>
</trkpt>
<trkpt lat="30.6616953" lon="35.6636301">
<ele>1421.79</ele>
<time>2015-11-22T15:59:28Z</time>
</trkpt>
<trkpt lat="30.6615718" lon="35.6636087">
<ele>1420.99</ele>
<time>2015-11-22T15:59:29Z</time>
</trkpt>
<trkpt lat="30.6614606" lon="35.6635716">
<ele>1420.09</ele>
<time>2015-11-22T15:59:30Z</time>
</trkpt>
<trkpt lat="30.6613476" lon="35.6635358">
<ele>1419.15</ele>
<time>2015-11-22T15:59:31Z</time>
</trkpt>
<trkpt lat="30.6612366" lon="35.6635089">
<ele>1419.17</ele>
<time>2015-11-22T15:59:32Z</time>
</trkpt>
<trkpt lat="30.6611284" lon="35.6634732">
<ele>1418.68</ele>
<time>2015-11-22T15:59:33Z</time>
</trkpt>
<trkpt lat="30.6610201" lon="35.6634480">
<ele>1418.44</ele>
<time>2015-11-22T15:59:34Z</time>
</trkpt>
<trkpt lat="30.6609066" lon="35.6634192">
<ele>1418.32</ele>
<time>2015-11-22T15:59:35Z</time>
</trkpt>
<trkpt lat="30.6607982" lon="35.6633815">
<ele>1418.26</ele>
<time>2015-11-22T15:59:36Z</time>
</trkpt>
<trkpt lat="30.6606934" lon="35.6633489">
<ele>1417.73</ele>
<time>2015-11-22T15:59:37Z</time>
</trkpt>
<trkpt lat="30.6605919" lon="35.6633106">
<ele>1416.96</ele>
<time>2015-11-22T15:59:38Z</time>
</trkpt>
<trkpt lat="30.6604890" lon="35.6632788">
<ele>1416.08</ele>
<time>2015-11-22T15:59:39Z</time>
</trkpt>
<trkpt lat="30.6603889" lon="35.6632436">
<ele>1416.14</ele>
<time>2015-11-22T15:59:40Z</time>
</trkpt>
<trkpt lat="30.6602884" lon="35.6632044">
<ele>1415.67</ele>
<time>2015-11-22T15:59:41Z</time>
</trkpt>
<trkpt lat="30.6601835" lon="35.6631610">
<ele>1415.43</ele>
<time>2015-11-22T15:59:42Z</time>
</trkpt>
<trkpt lat="30.6600813" lon="35.6631161">
<ele>1415.31</ele>
<time>2015-11-22T15:59:43Z</time>
</trkpt>
<trkpt lat="30.6599744" lon="35.6630700">
<ele>1415.25</ele>
<time>2015-11-22T15:59:44Z</time>
</trkpt>
<trkpt lat="30.6598738" lon="35.6630239">
<ele>1414.73</ele>
<time>2015-11-22T15:59:45Z</time>
</trkpt>
<trkpt lat="30.6597844" lon="35.6629687">
<ele>1414.46</ele>
<time>2015-11-22T15:59:46Z</time>
</trkpt>
<trkpt lat="30.6596866" lon="35.6629198">
<ele>1413.83</ele>
<time>2015-11-22T15:59:47Z</time>
</trkpt>
<trkpt lat="30.6595780" lon="35.6628635">
<ele>1413.51</ele>
<time>2015-11-22T15:59:48Z</time>
</trkpt>
<trkpt lat="30.6594768" lon="35.6628168">
<ele>1412.85</ele>
<time>2015-11-22T15:59:49Z</time>
</trkpt>
<trkpt lat="30.6593757" lon="35.6627650">
<ele>1412.53</ele>
<time>2015-11-22T15:59:50Z</time>
</trkpt>
<trkpt lat="30.6592823" lon="35.6627141">
<ele>1411.86</ele>
<time>2015-11-22T15:59:51Z</time>
</trkpt>
<trkpt lat="30.6591870" lon="35.6626556">
<ele>1411.03</ele>
<time>2015-11-22T15:59:52Z</time>
</trkpt>
<trkpt lat="30.6590849" lon="35.6625982">
<ele>1411.11</ele>
<time>2015-11-22T15:59:53Z</time>
</trkpt>
<trkpt lat="30.6589897" lon="35.6625474">
<ele>1411.15</ele>
<time>2015-11-22T15:59:54Z</time>
</trkpt>
<trkpt lat="30.6588936" lon="35.6624903">
<ele>1411.18</ele>
<time>2015-11-22T15:59:55Z</time>
</trkpt>
<trkpt lat="30.6588039" lon="35.6624436">
<ele>1410.69</ele>
<time>2015-11-22T15:59:56Z</time>
</trkpt>
<trkpt lat="30.6587065" lon="35.6623893">
<ele>1410.44</ele>
<time>2015-11-22T15:59:57Z</time>
</trkpt>
<trkpt lat="30.6586029" lon="35.6623459">
<ele>1409.32</ele>
<time>2015-11-22T15:59:58Z</time>
</trkpt>
<trkpt lat="30.6585086" lon="35.6622825">
<ele>1408.26</ele>
<time>2015-11-22T15:59:59Z</time>
</trkpt>
<trkpt lat="30.6584145" lon="35.6622314">
<ele>1407.73</ele>
<time>2015-11-22T16:00:00Z</time>
</trkpt>
<trkpt lat="30.6583247" lon="35.6621859">
<ele>1407.46</ele>
<time>2015-11-22T16:00:01Z</time>
</trkpt>
<trkpt lat="30.6582284" lon="35.6621329">
<ele>1407.33</ele>
<time>2015-11-22T16:00:02Z</time>
</trkpt>
<trkpt lat="30.6581407" lon="35.6620759">
<ele>1406.76</ele>
<time>2015-11-22T16:00:03Z</time>
</trkpt>
<trkpt lat="30.6580454" lon="35.6620260">
<ele>1406.48</ele>
<time>2015-11-22T16:00:04Z</time>
</trkpt>
<trkpt lat="30.6579577" lon="35.6619794">
<ele>1405.34</ele>
<time>2015-11-22T16:00:05Z</time>
</trkpt>
<trkpt lat="30.6578712" lon="35.6619398">
<ele>1404.77</ele>
<time>2015-11-22T16:00:06Z</time>
</trkpt>
<trkpt lat="30.6577875" lon="35.6618975">
<ele>1403.98</ele>
<time>2015-11-22T16:00:07Z</time>
</trkpt>
<trkpt lat="30.6577029" lon="35.6618543">
<ele>1403.59</ele>
<time>2015-11-22T16:00:08Z</time>
</trkpt>
<trkpt lat="30.6576157" lon="35.6618058">
<ele>1403.39</ele>
<time>2015-11-22T16:00:09Z</time>
</trkpt>
<trkpt lat="30.6575258" lon="35.6617630">
<ele>1402.79</ele>
<time>2015-11-22T16:00:10Z</time>
</trkpt>
<trkpt lat="30.6574403" lon="35.6617162">
<ele>1402.50</ele>
<time>2015-11-22T16:00:11Z</time>
</trkpt>
<trkpt lat="30.6573511" lon="35.6616773">
<ele>1402.85</ele>
<time>2015-11-22T16:00:12Z</time>
</trkpt>
<trkpt lat="30.6572719" lon="35.6616396">
<ele>1403.02</ele>
<time>2015-11-22T16:00:13Z</time>
</trkpt>
<trkpt lat="30.6571895" lon="35.6615868">
<ele>1403.61</ele>
<time>2015-11-22T16:00:14Z</time>
</trkpt>
<trkpt lat="30.6571029" lon="35.6615339">
<ele>1403.90</ele>
<time>2015-11-22T16:00:15Z</time>
</trkpt>
<trkpt lat="30.6570247" lon="35.6614851">
<ele>1404.05</ele>
<time>2015-11-22T16:00:16Z</time>
</trkpt>
<trkpt lat="30.6569386" lon="35.6614444">
<ele>1404.12</ele>
<time>2015-11-22T16:00:17Z</time>
</trkpt>
<trkpt lat="30.6568524" lon="35.6614042">
<ele>1404.66</ele>
<time>2015-11-22T16:00:18Z</time>
</trkpt>
<trkpt lat="30.6567748" lon="35.6613635">
<ele>1404.43</ele>
<time>2015-11-22T16:00:19Z</time>
</trkpt>
<trkpt lat="30.6566852" lon="35.6613280">
<ele>1404.81</ele>
<time>2015-11-22T16:00:20Z</time>
</trkpt>
<trkpt lat="30.6566126" lon="35.6612883">
<ele>1404.50</ele>
<time>2015-11-22T16:00:21Z</time>
</trkpt>
<trkpt lat="30.6565329" lon="35.6612560">
<ele>1404.35</ele>
<time>2015-11-22T16:00:22Z</time>
</trkpt>
<trkpt lat="30.6564570" lon="35.6612266">
<ele>1404.77</ele>
<time>2015-11-22T16:00:23Z</time>
</trkpt>
<trkpt lat="30.6563793" lon="35.6611907">
<ele>1404.98</ele>
<time>2015-11-22T16:00:24Z</time>
</trkpt>
<trkpt lat="30.6562946" lon="35.6611552">
<ele>1405.59</ele>
<time>2015-11-22T16:00:25Z</time>
</trkpt>
<trkpt lat="30.6562255" lon="35.6611262">
<ele>1405.39</ele>
<time>2015-11-22T16:00:26Z</time>
</trkpt>
<trkpt lat="30.6561548" lon="35.6610995">
<ele>1405.79</ele>
<time>2015-11-22T16:00:27Z</time>
</trkpt>
<trkpt lat="30.6560860" lon="35.6610605">
<ele>1405.50</ele>
<time>2015-11-22T16:00:28Z</time>
</trkpt>
<trkpt lat="30.6560119" lon="35.6610289">
<ele>1405.35</ele>
<time>2015-11-22T16:00:29Z</time>
</trkpt>
<trkpt lat="30.6559504" lon="35.6610022">
<ele>1404.77</ele>
<time>2015-11-22T16:00:30Z</time>
</trkpt>
<trkpt lat="30.6558969" lon="35.6609805">
<ele>1404.48</ele>
<time>2015-11-22T16:00:31Z</time>
</trkpt>
<trkpt lat="30.6558537" lon="35.6609623">
<ele>1404.34</ele>
<time>2015-11-22T16:00:32Z</time>
</trkpt>
<trkpt lat="30.6557852" lon="35.6609478">
<ele>1403.73</ele>
<time>2015-11-22T16:00:34Z</time>
</trkpt>
<trkpt lat="30.6557596" lon="35.6609047">
<ele>1403.33</ele>
<time>2015-11-22T16:00:36Z</time>
</trkpt>
<trkpt lat="30.6557730" lon="35.6608200">
<ele>1405.34</ele>
<time>2015-11-22T16:00:39Z</time>
</trkpt>
<trkpt lat="30.6557868" lon="35.6607524">
<ele>1405.98</ele>
<time>2015-11-22T16:00:41Z</time>
</trkpt>
<trkpt lat="30.6557941" lon="35.6606767">
<ele>1406.64</ele>
<time>2015-11-22T16:00:43Z</time>
</trkpt>
<trkpt lat="30.6557882" lon="35.6605975">
<ele>1406.56</ele>
<time>2015-11-22T16:00:45Z</time>
</trkpt>
<trkpt lat="30.6557722" lon="35.6605197">
<ele>1407.04</ele>
<time>2015-11-22T16:00:47Z</time>
</trkpt>
<trkpt lat="30.6557524" lon="35.6604379">
<ele>1407.16</ele>
<time>2015-11-22T16:00:49Z</time>
</trkpt>
<trkpt lat="30.6557283" lon="35.6603580">
<ele>1407.94</ele>
<time>2015-11-22T16:00:51Z</time>
</trkpt>
<trkpt lat="30.6557047" lon="35.6602804">
<ele>1407.13</ele>
<time>2015-11-22T16:00:53Z</time>
</trkpt>
<trkpt lat="30.6556841" lon="35.6602023">
<ele>1407.18</ele>
<time>2015-11-22T16:00:55Z</time>
</trkpt>
<trkpt lat="30.6556618" lon="35.6601262">
<ele>1406.94</ele>
<time>2015-11-22T16:00:57Z</time>
</trkpt>
<trkpt lat="30.6556368" lon="35.6600487">
<ele>1406.63</ele>
<time>2015-11-22T16:00:59Z</time>
</trkpt>
<trkpt lat="30.6556114" lon="35.6599707">
<ele>1407.06</ele>
<time>2015-11-22T16:01:01Z</time>
</trkpt>
<trkpt lat="30.6555826" lon="35.6598858">
<ele>1407.16</ele>
<time>2015-11-22T16:01:03Z</time>
</trkpt>
<trkpt lat="30.6555441" lon="35.6597623">
<ele>1407.19</ele>
<time>2015-11-22T16:01:05Z</time>
</trkpt>
<trkpt lat="30.6555381" lon="35.6597022">
<ele>1407.19</ele>
<time>2015-11-22T16:01:06Z</time>
</trkpt>
<trkpt lat="30.6555319" lon="35.6596472">
<ele>1407.19</ele>
<time>2015-11-22T16:01:07Z</time>
</trkpt>
<trkpt lat="30.6555267" lon="35.6595915">
<ele>1406.69</ele>
<time>2015-11-22T16:01:08Z</time>
</trkpt>
<trkpt lat="30.6555061" lon="35.6595023">
<ele>1406.57</ele>
<time>2015-11-22T16:01:10Z</time>
</trkpt>
<trkpt lat="30.6554961" lon="35.6594487">
<ele>1406.88</ele>
<time>2015-11-22T16:01:11Z</time>
</trkpt>
<trkpt lat="30.6554806" lon="35.6593986">
<ele>1406.54</ele>
<time>2015-11-22T16:01:12Z</time>
</trkpt>
<trkpt lat="30.6554734" lon="35.6593387">
<ele>1406.37</ele>
<time>2015-11-22T16:01:13Z</time>
</trkpt>
<trkpt lat="30.6554703" lon="35.6592841">
<ele>1405.78</ele>
<time>2015-11-22T16:01:14Z</time>
</trkpt>
<trkpt lat="30.6554662" lon="35.6592312">
<ele>1405.49</ele>
<time>2015-11-22T16:01:15Z</time>
</trkpt>
<trkpt lat="30.6554402" lon="35.6591276">
<ele>1406.02</ele>
<time>2015-11-22T16:01:17Z</time>
</trkpt>
<trkpt lat="30.6554235" lon="35.6590275">
<ele>1406.65</ele>
<time>2015-11-22T16:01:19Z</time>
</trkpt>
<trkpt lat="30.6553917" lon="35.6589351">
<ele>1407.56</ele>
<time>2015-11-22T16:01:21Z</time>
</trkpt>
<trkpt lat="30.6553569" lon="35.6588591">
<ele>1408.04</ele>
<time>2015-11-22T16:01:23Z</time>
</trkpt>
<trkpt lat="30.6553346" lon="35.6587893">
<ele>1408.66</ele>
<time>2015-11-22T16:01:25Z</time>
</trkpt>
<trkpt lat="30.6553027" lon="35.6587093">
<ele>1409.56</ele>
<time>2015-11-22T16:01:27Z</time>
</trkpt>
<trkpt lat="30.6552626" lon="35.6586358">
<ele>1411.29</ele>
<time>2015-11-22T16:01:29Z</time>
</trkpt>
<trkpt lat="30.6552251" lon="35.6585524">
<ele>1411.97</ele>
<time>2015-11-22T16:01:31Z</time>
</trkpt>
<trkpt lat="30.6551821" lon="35.6584765">
<ele>1411.39</ele>
<time>2015-11-22T16:01:33Z</time>
</trkpt>
<trkpt lat="30.6551436" lon="35.6583976">
<ele>1411.49</ele>
<time>2015-11-22T16:01:35Z</time>
</trkpt>
<trkpt lat="30.6551129" lon="35.6583177">
<ele>1412.02</ele>
<time>2015-11-22T16:01:37Z</time>
</trkpt>
<trkpt lat="30.6550930" lon="35.6582384">
<ele>1412.15</ele>
<time>2015-11-22T16:01:39Z</time>
</trkpt>
<trkpt lat="30.6550820" lon="35.6581636">
<ele>1412.19</ele>
<time>2015-11-22T16:01:41Z</time>
</trkpt>
<trkpt lat="30.6550789" lon="35.6581071">
<ele>1412.44</ele>
<time>2015-11-22T16:01:43Z</time>
</trkpt>
<trkpt lat="30.6550778" lon="35.6580374">
<ele>1413.10</ele>
<time>2015-11-22T16:01:46Z</time>
</trkpt>
<trkpt lat="30.6550770" lon="35.6579648">
<ele>1413.18</ele>
<time>2015-11-22T16:01:49Z</time>
</trkpt>
<trkpt lat="30.6550766" lon="35.6578908">
<ele>1413.94</ele>
<time>2015-11-22T16:01:52Z</time>
</trkpt>
<trkpt lat="30.6550776" lon="35.6578145">
<ele>1413.29</ele>
<time>2015-11-22T16:01:55Z</time>
</trkpt>
<trkpt lat="30.6550868" lon="35.6577388">
<ele>1413.96</ele>
<time>2015-11-22T16:01:58Z</time>
</trkpt>
<trkpt lat="30.6551000" lon="35.6576871">
<ele>1414.14</ele>
<time>2015-11-22T16:02:00Z</time>
</trkpt>
<trkpt lat="30.6551092" lon="35.6576329">
<ele>1414.68</ele>
<time>2015-11-22T16:02:02Z</time>
</trkpt>
<trkpt lat="30.6551184" lon="35.6575793">
<ele>1415.07</ele>
<time>2015-11-22T16:02:04Z</time>
</trkpt>
<trkpt lat="30.6551296" lon="35.6575246">
<ele>1414.91</ele>
<time>2015-11-22T16:02:06Z</time>
</trkpt>
<trkpt lat="30.6551410" lon="35.6574713">
<ele>1415.13</ele>
<time>2015-11-22T16:02:08Z</time>
</trkpt>
<trkpt lat="30.6551545" lon="35.6574204">
<ele>1415.68</ele>
<time>2015-11-22T16:02:10Z</time>
</trkpt>
<trkpt lat="30.6551718" lon="35.6573660">
<ele>1416.07</ele>
<time>2015-11-22T16:02:12Z</time>
</trkpt>
<trkpt lat="30.6551891" lon="35.6573090">
<ele>1416.16</ele>
<time>2015-11-22T16:02:14Z</time>
</trkpt>
<trkpt lat="30.6552022" lon="35.6572490">
<ele>1416.69</ele>
<time>2015-11-22T16:02:16Z</time>
</trkpt>
<trkpt lat="30.6552147" lon="35.6571885">
<ele>1417.57</ele>
<time>2015-11-22T16:02:18Z</time>
</trkpt>
<trkpt lat="30.6552232" lon="35.6571294">
<ele>1417.29</ele>
<time>2015-11-22T16:02:20Z</time>
</trkpt>
<trkpt lat="30.6552308" lon="35.6570744">
<ele>1417.97</ele>
<time>2015-11-22T16:02:22Z</time>
</trkpt>
<trkpt lat="30.6552444" lon="35.6570023">
<ele>1419.54</ele>
<time>2015-11-22T16:02:25Z</time>
</trkpt>
<trkpt lat="30.6552540" lon="35.6569270">
<ele>1420.11</ele>
<time>2015-11-22T16:02:28Z</time>
</trkpt>
<trkpt lat="30.6552601" lon="35.6568519">
<ele>1418.56</ele>
<time>2015-11-22T16:02:31Z</time>
</trkpt>
<trkpt lat="30.6552665" lon="35.6567787">
<ele>1419.12</ele>
<time>2015-11-22T16:02:34Z</time>
</trkpt>
<trkpt lat="30.6552731" lon="35.6567040">
<ele>1419.19</ele>
<time>2015-11-22T16:02:37Z</time>
</trkpt>
<trkpt lat="30.6552746" lon="35.6566517">
<ele>1419.69</ele>
<time>2015-11-22T16:02:39Z</time>
</trkpt>
<trkpt lat="30.6552794" lon="35.6565757">
<ele>1420.88</ele>
<time>2015-11-22T16:02:42Z</time>
</trkpt>
<trkpt lat="30.6552866" lon="35.6565033">
<ele>1421.16</ele>
<time>2015-11-22T16:02:45Z</time>
</trkpt>
<trkpt lat="30.6552890" lon="35.6564371">
<ele>1420.94</ele>
<time>2015-11-22T16:02:48Z</time>
</trkpt>
<trkpt lat="30.6552926" lon="35.6563691">
<ele>1421.16</ele>
<time>2015-11-22T16:02:51Z</time>
</trkpt>
<trkpt lat="30.6552910" lon="35.6562985">
<ele>1421.19</ele>
<time>2015-11-22T16:02:54Z</time>
</trkpt>
<trkpt lat="30.6552936" lon="35.6562242">
<ele>1421.20</ele>
<time>2015-11-22T16:02:57Z</time>
</trkpt>
<trkpt lat="30.6553048" lon="35.6561571">
<ele>1420.45</ele>
<time>2015-11-22T16:03:00Z</time>
</trkpt>
<trkpt lat="30.6553226" lon="35.6560890">
<ele>1421.10</ele>
<time>2015-11-22T16:03:03Z</time>
</trkpt>
<trkpt lat="30.6553467" lon="35.6560185">
<ele>1421.18</ele>
<time>2015-11-22T16:03:06Z</time>
</trkpt>
<trkpt lat="30.6553780" lon="35.6559549">
<ele>1422.07</ele>
<time>2015-11-22T16:03:09Z</time>
</trkpt>
<trkpt lat="30.6554096" lon="35.6558872">
<ele>1422.18</ele>
<time>2015-11-22T16:03:12Z</time>
</trkpt>
<trkpt lat="30.6554293" lon="35.6558364">
<ele>1422.19</ele>
<time>2015-11-22T16:03:14Z</time>
</trkpt>
<trkpt lat="30.6554518" lon="35.6557832">
<ele>1422.70</ele>
<time>2015-11-22T16:03:16Z</time>
</trkpt>
<trkpt lat="30.6554699" lon="35.6557285">
<ele>1423.82</ele>
<time>2015-11-22T16:03:18Z</time>
</trkpt>
<trkpt lat="30.6554841" lon="35.6556765">
<ele>1424.10</ele>
<time>2015-11-22T16:03:20Z</time>
</trkpt>
<trkpt lat="30.6554885" lon="35.6556225">
<ele>1424.92</ele>
<time>2015-11-22T16:03:22Z</time>
</trkpt>
<trkpt lat="30.6554855" lon="35.6555664">
<ele>1425.38</ele>
<time>2015-11-22T16:03:24Z</time>
</trkpt>
<trkpt lat="30.6554736" lon="35.6554913">
<ele>1425.72</ele>
<time>2015-11-22T16:03:27Z</time>
</trkpt>
<trkpt lat="30.6554548" lon="35.6554181">
<ele>1425.64</ele>
<time>2015-11-22T16:03:30Z</time>
</trkpt>
<trkpt lat="30.6554334" lon="35.6553459">
<ele>1426.13</ele>
<time>2015-11-22T16:03:33Z</time>
</trkpt>
<trkpt lat="30.6554136" lon="35.6552740">
<ele>1426.19</ele>
<time>2015-11-22T16:03:36Z</time>
</trkpt>
<trkpt lat="30.6554067" lon="35.6551999">
<ele>1426.19</ele>
<time>2015-11-22T16:03:39Z</time>
</trkpt>
<trkpt lat="30.6553957" lon="35.6551257">
<ele>1425.70</ele>
<time>2015-11-22T16:03:42Z</time>
</trkpt>
<trkpt lat="30.6553891" lon="35.6550493">
<ele>1424.51</ele>
<time>2015-11-22T16:03:45Z</time>
</trkpt>
<trkpt lat="30.6553892" lon="35.6549966">
<ele>1424.27</ele>
<time>2015-11-22T16:03:47Z</time>
</trkpt>
<trkpt lat="30.6553924" lon="35.6549394">
<ele>1424.22</ele>
<time>2015-11-22T16:03:49Z</time>
</trkpt>
<trkpt lat="30.6553997" lon="35.6548770">
<ele>1424.20</ele>
<time>2015-11-22T16:03:51Z</time>
</trkpt>
<trkpt lat="30.6554143" lon="35.6548066">
<ele>1424.20</ele>
<time>2015-11-22T16:03:53Z</time>
</trkpt>
<trkpt lat="30.6554311" lon="35.6547372">
<ele>1424.20</ele>
<time>2015-11-22T16:03:55Z</time>
</trkpt>
<trkpt lat="30.6554486" lon="35.6546733">
<ele>1424.20</ele>
<time>2015-11-22T16:03:57Z</time>
</trkpt>
<trkpt lat="30.6554690" lon="35.6546116">
<ele>1423.95</ele>
<time>2015-11-22T16:03:59Z</time>
</trkpt>
<trkpt lat="30.6554952" lon="35.6545511">
<ele>1424.13</ele>
<time>2015-11-22T16:04:01Z</time>
</trkpt>
<trkpt lat="30.6555212" lon="35.6544918">
<ele>1424.68</ele>
<time>2015-11-22T16:04:03Z</time>
</trkpt>
<trkpt lat="30.6555451" lon="35.6544343">
<ele>1425.07</ele>
<time>2015-11-22T16:04:05Z</time>
</trkpt>
<trkpt lat="30.6555667" lon="35.6543763">
<ele>1424.66</ele>
<time>2015-11-22T16:04:07Z</time>
</trkpt>
<trkpt lat="30.6555887" lon="35.6543175">
<ele>1424.31</ele>
<time>2015-11-22T16:04:09Z</time>
</trkpt>
<trkpt lat="30.6556100" lon="35.6542604">
<ele>1424.98</ele>
<time>2015-11-22T16:04:11Z</time>
</trkpt>
<trkpt lat="30.6556308" lon="35.6542045">
<ele>1425.14</ele>
<time>2015-11-22T16:04:13Z</time>
</trkpt>
<trkpt lat="30.6556492" lon="35.6541500">
<ele>1425.18</ele>
<time>2015-11-22T16:04:15Z</time>
</trkpt>
<trkpt lat="30.6556622" lon="35.6540910">
<ele>1424.44</ele>
<time>2015-11-22T16:04:17Z</time>
</trkpt>
<trkpt lat="30.6556734" lon="35.6540303">
<ele>1425.01</ele>
<time>2015-11-22T16:04:19Z</time>
</trkpt>
<trkpt lat="30.6556861" lon="35.6539661">
<ele>1425.15</ele>
<time>2015-11-22T16:04:21Z</time>
</trkpt>
<trkpt lat="30.6556984" lon="35.6538960">
<ele>1424.68</ele>
<time>2015-11-22T16:04:23Z</time>
</trkpt>
<trkpt lat="30.6557152" lon="35.6538212">
<ele>1424.32</ele>
<time>2015-11-22T16:04:25Z</time>
</trkpt>
<trkpt lat="30.6557355" lon="35.6537449">
<ele>1424.23</ele>
<time>2015-11-22T16:04:27Z</time>
</trkpt>
<trkpt lat="30.6557542" lon="35.6536656">
<ele>1423.45</ele>
<time>2015-11-22T16:04:29Z</time>
</trkpt>
<trkpt lat="30.6557729" lon="35.6535685">
<ele>1422.51</ele>
<time>2015-11-22T16:04:31Z</time>
</trkpt>
<trkpt lat="30.6557816" lon="35.6535161">
<ele>1422.85</ele>
<time>2015-11-22T16:04:32Z</time>
</trkpt>
<trkpt lat="30.6557906" lon="35.6534633">
<ele>1423.02</ele>
<time>2015-11-22T16:04:33Z</time>
</trkpt>
<trkpt lat="30.6558006" lon="35.6534107">
<ele>1423.11</ele>
<time>2015-11-22T16:04:34Z</time>
</trkpt>
<trkpt lat="30.6558201" lon="35.6533366">
<ele>1423.15</ele>
<time>2015-11-22T16:04:35Z</time>
</trkpt>
<trkpt lat="30.6558343" lon="35.6532852">
<ele>1423.17</ele>
<time>2015-11-22T16:04:36Z</time>
</trkpt>
<trkpt lat="30.6558596" lon="35.6531965">
<ele>1423.69</ele>
<time>2015-11-22T16:04:38Z</time>
</trkpt>
<trkpt lat="30.6558963" lon="35.6531006">
<ele>1424.07</ele>
<time>2015-11-22T16:04:40Z</time>
</trkpt>
<trkpt lat="30.6559173" lon="35.6530487">
<ele>1424.13</ele>
<time>2015-11-22T16:04:41Z</time>
</trkpt>
<trkpt lat="30.6559620" lon="35.6529617">
<ele>1424.18</ele>
<time>2015-11-22T16:04:43Z</time>
</trkpt>
<trkpt lat="30.6559865" lon="35.6529171">
<ele>1423.69</ele>
<time>2015-11-22T16:04:44Z</time>
</trkpt>
<trkpt lat="30.6560265" lon="35.6528330">
<ele>1423.32</ele>
<time>2015-11-22T16:04:46Z</time>
</trkpt>
<trkpt lat="30.6560593" lon="35.6527545">
<ele>1422.48</ele>
<time>2015-11-22T16:04:48Z</time>
</trkpt>
<trkpt lat="30.6560887" lon="35.6526926">
<ele>1422.27</ele>
<time>2015-11-22T16:04:50Z</time>
</trkpt>
<trkpt lat="30.6561102" lon="35.6526392">
<ele>1421.46</ele>
<time>2015-11-22T16:04:52Z</time>
</trkpt>
<trkpt lat="30.6561239" lon="35.6525646">
<ele>1420.35</ele>
<time>2015-11-22T16:04:55Z</time>
</trkpt>
<trkpt lat="30.6561382" lon="35.6524931">
<ele>1419.47</ele>
<time>2015-11-22T16:04:58Z</time>
</trkpt>
<trkpt lat="30.6561475" lon="35.6524240">
<ele>1419.23</ele>
<time>2015-11-22T16:05:01Z</time>
</trkpt>
<trkpt lat="30.6561525" lon="35.6523570">
<ele>1419.95</ele>
<time>2015-11-22T16:05:04Z</time>
</trkpt>
<trkpt lat="30.6561586" lon="35.6522919">
<ele>1421.04</ele>
<time>2015-11-22T16:05:07Z</time>
</trkpt>
<trkpt lat="30.6561635" lon="35.6522132">
<ele>1421.18</ele>
<time>2015-11-22T16:05:10Z</time>
</trkpt>
<trkpt lat="30.6561702" lon="35.6521585">
<ele>1421.44</ele>
<time>2015-11-22T16:05:12Z</time>
</trkpt>
<trkpt lat="30.6561769" lon="35.6521018">
<ele>1422.01</ele>
<time>2015-11-22T16:05:14Z</time>
</trkpt>
<trkpt lat="30.6561756" lon="35.6520451">
<ele>1422.15</ele>
<time>2015-11-22T16:05:16Z</time>
</trkpt>
<trkpt lat="30.6561727" lon="35.6519900">
<ele>1422.68</ele>
<time>2015-11-22T16:05:18Z</time>
</trkpt>
<trkpt lat="30.6561692" lon="35.6519356">
<ele>1424.32</ele>
<time>2015-11-22T16:05:20Z</time>
</trkpt>
<trkpt lat="30.6561616" lon="35.6518765">
<ele>1425.48</ele>
<time>2015-11-22T16:05:22Z</time>
</trkpt>
<trkpt lat="30.6561511" lon="35.6518138">
<ele>1425.77</ele>
<time>2015-11-22T16:05:24Z</time>
</trkpt>
<trkpt lat="30.6561405" lon="35.6517483">
<ele>1426.09</ele>
<time>2015-11-22T16:05:26Z</time>
</trkpt>
<trkpt lat="30.6561332" lon="35.6516808">
<ele>1425.67</ele>
<time>2015-11-22T16:05:28Z</time>
</trkpt>
<trkpt lat="30.6561356" lon="35.6516095">
<ele>1425.31</ele>
<time>2015-11-22T16:05:30Z</time>
</trkpt>
<trkpt lat="30.6561361" lon="35.6515362">
<ele>1425.23</ele>
<time>2015-11-22T16:05:32Z</time>
</trkpt>
<trkpt lat="30.6561374" lon="35.6514535">
<ele>1425.20</ele>
<time>2015-11-22T16:05:34Z</time>
</trkpt>
<trkpt lat="30.6561399" lon="35.6513708">
<ele>1425.20</ele>
<time>2015-11-22T16:05:36Z</time>
</trkpt>
<trkpt lat="30.6561428" lon="35.6512902">
<ele>1425.20</ele>
<time>2015-11-22T16:05:38Z</time>
</trkpt>
<trkpt lat="30.6561456" lon="35.6512108">
<ele>1424.70</ele>
<time>2015-11-22T16:05:40Z</time>
</trkpt>
<trkpt lat="30.6561508" lon="35.6511364">
<ele>1424.82</ele>
<time>2015-11-22T16:05:42Z</time>
</trkpt>
<trkpt lat="30.6561559" lon="35.6510621">
<ele>1424.85</ele>
<time>2015-11-22T16:05:44Z</time>
</trkpt>
<trkpt lat="30.6561658" lon="35.6509900">
<ele>1425.61</ele>
<time>2015-11-22T16:05:46Z</time>
</trkpt>
<trkpt lat="30.6561784" lon="35.6509153">
<ele>1425.30</ele>
<time>2015-11-22T16:05:48Z</time>
</trkpt>
<trkpt lat="30.6561880" lon="35.6508366">
<ele>1425.97</ele>
<time>2015-11-22T16:05:50Z</time>
</trkpt>
<trkpt lat="30.6561970" lon="35.6507533">
<ele>1426.14</ele>
<time>2015-11-22T16:05:52Z</time>
</trkpt>
<trkpt lat="30.6562119" lon="35.6506664">
<ele>1425.68</ele>
<time>2015-11-22T16:05:54Z</time>
</trkpt>
<trkpt lat="30.6562252" lon="35.6505763">
<ele>1425.32</ele>
<time>2015-11-22T16:05:56Z</time>
</trkpt>
<trkpt lat="30.6562390" lon="35.6504790">
<ele>1425.23</ele>
<time>2015-11-22T16:05:58Z</time>
</trkpt>
<trkpt lat="30.6562521" lon="35.6503973">
<ele>1425.21</ele>
<time>2015-11-22T16:05:59Z</time>
</trkpt>
<trkpt lat="30.6562656" lon="35.6503442">
<ele>1425.20</ele>
<time>2015-11-22T16:06:00Z</time>
</trkpt>
<trkpt lat="30.6562754" lon="35.6502515">
<ele>1424.20</ele>
<time>2015-11-22T16:06:02Z</time>
</trkpt>
<trkpt lat="30.6562817" lon="35.6501838">
<ele>1423.45</ele>
<time>2015-11-22T16:06:04Z</time>
</trkpt>
<trkpt lat="30.6562881" lon="35.6501271">
<ele>1419.04</ele>
<time>2015-11-22T16:07:02Z</time>
</trkpt>
<trkpt lat="30.6562947" lon="35.6500720">
<ele>1419.05</ele>
<time>2015-11-22T16:07:05Z</time>
</trkpt>
<trkpt lat="30.6563021" lon="35.6500146">
<ele>1419.66</ele>
<time>2015-11-22T16:07:07Z</time>
</trkpt>
<trkpt lat="30.6563137" lon="35.6499564">
<ele>1420.06</ele>
<time>2015-11-22T16:07:09Z</time>
</trkpt>
<trkpt lat="30.6563222" lon="35.6499036">
<ele>1420.16</ele>
<time>2015-11-22T16:07:11Z</time>
</trkpt>
<trkpt lat="30.6563175" lon="35.6498365">
<ele>1420.95</ele>
<time>2015-11-22T16:07:17Z</time>
</trkpt>
<trkpt lat="30.6563265" lon="35.6497820">
<ele>1420.38</ele>
<time>2015-11-22T16:07:19Z</time>
</trkpt>
<trkpt lat="30.6563406" lon="35.6497152">
<ele>1420.24</ele>
<time>2015-11-22T16:07:21Z</time>
</trkpt>
<trkpt lat="30.6563557" lon="35.6496492">
<ele>1420.21</ele>
<time>2015-11-22T16:07:23Z</time>
</trkpt>
<trkpt lat="30.6563697" lon="35.6495886">
<ele>1420.70</ele>
<time>2015-11-22T16:07:25Z</time>
</trkpt>
<trkpt lat="30.6563857" lon="35.6495342">
<ele>1421.07</ele>
<time>2015-11-22T16:07:27Z</time>
</trkpt>
<trkpt lat="30.6564023" lon="35.6494716">
<ele>1419.70</ele>
<time>2015-11-22T16:07:47Z</time>
</trkpt>
<trkpt lat="30.6564121" lon="35.6493867">
<ele>1419.26</ele>
<time>2015-11-22T16:07:50Z</time>
</trkpt>
<trkpt lat="30.6564250" lon="35.6493042">
<ele>1418.71</ele>
<time>2015-11-22T16:07:52Z</time>
</trkpt>
<trkpt lat="30.6564296" lon="35.6492033">
<ele>1418.57</ele>
<time>2015-11-22T16:07:54Z</time>
</trkpt>
<trkpt lat="30.6564288" lon="35.6491476">
<ele>1418.89</ele>
<time>2015-11-22T16:07:55Z</time>
</trkpt>
<trkpt lat="30.6564266" lon="35.6490512">
<ele>1418.54</ele>
<time>2015-11-22T16:07:56Z</time>
</trkpt>
<trkpt lat="30.6564268" lon="35.6489849">
<ele>1418.37</ele>
<time>2015-11-22T16:07:57Z</time>
</trkpt>
<trkpt lat="30.6564280" lon="35.6489236">
<ele>1417.78</ele>
<time>2015-11-22T16:07:58Z</time>
</trkpt>
<trkpt lat="30.6564247" lon="35.6488570">
<ele>1417.49</ele>
<time>2015-11-22T16:07:59Z</time>
</trkpt>
<trkpt lat="30.6564293" lon="35.6487951">
<ele>1416.84</ele>
<time>2015-11-22T16:08:00Z</time>
</trkpt>
<trkpt lat="30.6564341" lon="35.6487383">
<ele>1416.52</ele>
<time>2015-11-22T16:08:01Z</time>
</trkpt>
<trkpt lat="30.6564392" lon="35.6486814">
<ele>1416.36</ele>
<time>2015-11-22T16:08:02Z</time>
</trkpt>
<trkpt lat="30.6564463" lon="35.6486101">
<ele>1416.28</ele>
<time>2015-11-22T16:08:03Z</time>
</trkpt>
<trkpt lat="30.6564556" lon="35.6485398">
<ele>1415.74</ele>
<time>2015-11-22T16:08:04Z</time>
</trkpt>
<trkpt lat="30.6564654" lon="35.6484754">
<ele>1415.97</ele>
<time>2015-11-22T16:08:05Z</time>
</trkpt>
<trkpt lat="30.6564789" lon="35.6484120">
<ele>1416.08</ele>
<time>2015-11-22T16:08:06Z</time>
</trkpt>
<trkpt lat="30.6564927" lon="35.6483464">
<ele>1415.64</ele>
<time>2015-11-22T16:08:07Z</time>
</trkpt>
<trkpt lat="30.6565040" lon="35.6482850">
<ele>1415.42</ele>
<time>2015-11-22T16:08:08Z</time>
</trkpt>
<trkpt lat="30.6565113" lon="35.6482196">
<ele>1415.31</ele>
<time>2015-11-22T16:08:09Z</time>
</trkpt>
<trkpt lat="30.6565206" lon="35.6481506">
<ele>1415.25</ele>
<time>2015-11-22T16:08:10Z</time>
</trkpt>
<trkpt lat="30.6565296" lon="35.6480922">
<ele>1415.22</ele>
<time>2015-11-22T16:08:11Z</time>
</trkpt>
<trkpt lat="30.6565310" lon="35.6480373">
<ele>1415.21</ele>
<time>2015-11-22T16:08:12Z</time>
</trkpt>
<trkpt lat="30.6565348" lon="35.6479784">
<ele>1415.20</ele>
<time>2015-11-22T16:08:13Z</time>
</trkpt>
<trkpt lat="30.6565524" lon="35.6478802">
<ele>1414.45</ele>
<time>2015-11-22T16:08:15Z</time>
</trkpt>
<trkpt lat="30.6565530" lon="35.6477949">
<ele>1414.26</ele>
<time>2015-11-22T16:08:17Z</time>
</trkpt>
<trkpt lat="30.6565613" lon="35.6477056">
<ele>1413.46</ele>
<time>2015-11-22T16:08:19Z</time>
</trkpt>
<trkpt lat="30.6565759" lon="35.6476310">
<ele>1413.26</ele>
<time>2015-11-22T16:08:21Z</time>
</trkpt>
<trkpt lat="30.6565907" lon="35.6475557">
<ele>1413.21</ele>
<time>2015-11-22T16:08:23Z</time>
</trkpt>
<trkpt lat="30.6566049" lon="35.6474867">
<ele>1413.95</ele>
<time>2015-11-22T16:08:25Z</time>
</trkpt>
<trkpt lat="30.6566159" lon="35.6474137">
<ele>1414.13</ele>
<time>2015-11-22T16:08:27Z</time>
</trkpt>
<trkpt lat="30.6566261" lon="35.6473359">
<ele>1414.18</ele>
<time>2015-11-22T16:08:29Z</time>
</trkpt>
<trkpt lat="30.6566436" lon="35.6472576">
<ele>1414.19</ele>
<time>2015-11-22T16:08:31Z</time>
</trkpt>
<trkpt lat="30.6566580" lon="35.6471772">
<ele>1414.95</ele>
<time>2015-11-22T16:08:33Z</time>
</trkpt>
<trkpt lat="30.6566724" lon="35.6470957">
<ele>1414.38</ele>
<time>2015-11-22T16:08:35Z</time>
</trkpt>
<trkpt lat="30.6566873" lon="35.6470151">
<ele>1414.49</ele>
<time>2015-11-22T16:08:37Z</time>
</trkpt>
<trkpt lat="30.6567053" lon="35.6469387">
<ele>1414.77</ele>
<time>2015-11-22T16:08:39Z</time>
</trkpt>
<trkpt lat="30.6567230" lon="35.6468656">
<ele>1415.09</ele>
<time>2015-11-22T16:08:41Z</time>
</trkpt>
<trkpt lat="30.6567369" lon="35.6467940">
<ele>1415.67</ele>
<time>2015-11-22T16:08:43Z</time>
</trkpt>
<trkpt lat="30.6567486" lon="35.6467280">
<ele>1416.06</ele>
<time>2015-11-22T16:08:45Z</time>
</trkpt>
<trkpt lat="30.6567587" lon="35.6466658">
<ele>1416.91</ele>
<time>2015-11-22T16:08:47Z</time>
</trkpt>
<trkpt lat="30.6567699" lon="35.6466059">
<ele>1417.63</ele>
<time>2015-11-22T16:08:49Z</time>
</trkpt>
<trkpt lat="30.6567766" lon="35.6465466">
<ele>1418.55</ele>
<time>2015-11-22T16:08:51Z</time>
</trkpt>
<trkpt lat="30.6567816" lon="35.6464892">
<ele>1420.29</ele>
<time>2015-11-22T16:08:53Z</time>
</trkpt>
<trkpt lat="30.6567865" lon="35.6464338">
<ele>1421.72</ele>
<time>2015-11-22T16:08:55Z</time>
</trkpt>
<trkpt lat="30.6567912" lon="35.6463774">
<ele>1422.58</ele>
<time>2015-11-22T16:08:57Z</time>
</trkpt>
<trkpt lat="30.6568009" lon="35.6463219">
<ele>1423.79</ele>
<time>2015-11-22T16:08:59Z</time>
</trkpt>
<trkpt lat="30.6568107" lon="35.6462665">
<ele>1424.09</ele>
<time>2015-11-22T16:09:01Z</time>
</trkpt>
<trkpt lat="30.6568178" lon="35.6462112">
<ele>1424.17</ele>
<time>2015-11-22T16:09:03Z</time>
</trkpt>
<trkpt lat="30.6568338" lon="35.6461435">
<ele>1424.19</ele>
<time>2015-11-22T16:09:06Z</time>
</trkpt>
<trkpt lat="30.6568422" lon="35.6460906">
<ele>1425.13</ele>
<time>2015-11-22T16:09:11Z</time>
</trkpt>
<trkpt lat="30.6568556" lon="35.6460353">
<ele>1425.70</ele>
<time>2015-11-22T16:09:22Z</time>
</trkpt>
<trkpt lat="30.6568678" lon="35.6459806">
<ele>1426.67</ele>
<time>2015-11-22T16:09:26Z</time>
</trkpt>
<trkpt lat="30.6568701" lon="35.6459252">
<ele>1426.38</ele>
<time>2015-11-22T16:09:29Z</time>
</trkpt>
<trkpt lat="30.6568797" lon="35.6458562">
<ele>1425.34</ele>
<time>2015-11-22T16:09:32Z</time>
</trkpt>
<trkpt lat="30.6568880" lon="35.6457921">
<ele>1425.23</ele>
<time>2015-11-22T16:09:34Z</time>
</trkpt>
<trkpt lat="30.6568959" lon="35.6457198">
<ele>1425.21</ele>
<time>2015-11-22T16:09:36Z</time>
</trkpt>
<trkpt lat="30.6569064" lon="35.6456386">
<ele>1424.45</ele>
<time>2015-11-22T16:09:38Z</time>
</trkpt>
<trkpt lat="30.6569194" lon="35.6455414">
<ele>1423.51</ele>
<time>2015-11-22T16:09:40Z</time>
</trkpt>
<trkpt lat="30.6569255" lon="35.6454892">
<ele>1423.35</ele>
<time>2015-11-22T16:09:41Z</time>
</trkpt>
<trkpt lat="30.6569310" lon="35.6454059">
<ele>1422.77</ele>
<time>2015-11-22T16:09:42Z</time>
</trkpt>
<trkpt lat="30.6569424" lon="35.6453476">
<ele>1422.49</ele>
<time>2015-11-22T16:09:43Z</time>
</trkpt>
<trkpt lat="30.6569504" lon="35.6452878">
<ele>1421.84</ele>
<time>2015-11-22T16:09:44Z</time>
</trkpt>
<trkpt lat="30.6569647" lon="35.6452242">
<ele>1421.52</ele>
<time>2015-11-22T16:09:45Z</time>
</trkpt>
<trkpt lat="30.6569741" lon="35.6451674">
<ele>1421.36</ele>
<time>2015-11-22T16:09:46Z</time>
</trkpt>
<trkpt lat="30.6569932" lon="35.6450898">
<ele>1421.24</ele>
<time>2015-11-22T16:09:48Z</time>
</trkpt>
<trkpt lat="30.6570070" lon="35.6450350">
<ele>1420.71</ele>
<time>2015-11-22T16:09:50Z</time>
</trkpt>
<trkpt lat="30.6570199" lon="35.6449685">
<ele>1420.57</ele>
<time>2015-11-22T16:09:52Z</time>
</trkpt>
<trkpt lat="30.6570363" lon="35.6448704">
<ele>1420.29</ele>
<time>2015-11-22T16:09:54Z</time>
</trkpt>
<trkpt lat="30.6570511" lon="35.6447615">
<ele>1419.72</ele>
<time>2015-11-22T16:09:56Z</time>
</trkpt>
<trkpt lat="30.6570621" lon="35.6447056">
<ele>1419.33</ele>
<time>2015-11-22T16:09:58Z</time>
</trkpt>
<trkpt lat="30.6570655" lon="35.6446310">
<ele>1417.95</ele>
<time>2015-11-22T16:10:03Z</time>
</trkpt>
<trkpt lat="30.6570783" lon="35.6445557">
<ele>1417.38</ele>
<time>2015-11-22T16:10:05Z</time>
</trkpt>
<trkpt lat="30.6570886" lon="35.6444668">
<ele>1417.24</ele>
<time>2015-11-22T16:10:07Z</time>
</trkpt>
<trkpt lat="30.6571131" lon="35.6443622">
<ele>1416.46</ele>
<time>2015-11-22T16:10:09Z</time>
</trkpt>
<trkpt lat="30.6571274" lon="35.6443092">
<ele>1416.33</ele>
<time>2015-11-22T16:10:10Z</time>
</trkpt>
<trkpt lat="30.6571440" lon="35.6442540">
<ele>1416.26</ele>
<time>2015-11-22T16:10:11Z</time>
</trkpt>
<trkpt lat="30.6571675" lon="35.6441998">
<ele>1416.23</ele>
<time>2015-11-22T16:10:12Z</time>
</trkpt>
<trkpt lat="30.6571896" lon="35.6441537">
<ele>1415.71</ele>
<time>2015-11-22T16:10:13Z</time>
</trkpt>
<trkpt lat="30.6572098" lon="35.6441060">
<ele>1414.95</ele>
<time>2015-11-22T16:10:14Z</time>
</trkpt>
<trkpt lat="30.6572327" lon="35.6440607">
<ele>1414.58</ele>
<time>2015-11-22T16:10:15Z</time>
</trkpt>
<trkpt lat="30.6572622" lon="35.6440162">
<ele>1414.39</ele>
<time>2015-11-22T16:10:16Z</time>
</trkpt>
<trkpt lat="30.6573101" lon="35.6439532">
<ele>1414.99</ele>
<time>2015-11-22T16:10:18Z</time>
</trkpt>
<trkpt lat="30.6573546" lon="35.6438747">
<ele>1414.40</ele>
<time>2015-11-22T16:10:20Z</time>
</trkpt>
<trkpt lat="30.6573940" lon="35.6437995">
<ele>1413.75</ele>
<time>2015-11-22T16:10:22Z</time>
</trkpt>
<trkpt lat="30.6574356" lon="35.6437121">
<ele>1412.58</ele>
<time>2015-11-22T16:10:24Z</time>
</trkpt>
<trkpt lat="30.6574732" lon="35.6436275">
<ele>1411.79</ele>
<time>2015-11-22T16:10:26Z</time>
</trkpt>
<trkpt lat="30.6575131" lon="35.6435518">
<ele>1411.35</ele>
<time>2015-11-22T16:10:28Z</time>
</trkpt>
<trkpt lat="30.6575443" lon="35.6435029">
<ele>1410.77</ele>
<time>2015-11-22T16:10:29Z</time>
</trkpt>
<trkpt lat="30.6575765" lon="35.6434514">
<ele>1410.48</ele>
<time>2015-11-22T16:10:30Z</time>
</trkpt>
<trkpt lat="30.6576077" lon="35.6433977">
<ele>1409.84</ele>
<time>2015-11-22T16:10:31Z</time>
</trkpt>
<trkpt lat="30.6576476" lon="35.6433333">
<ele>1409.02</ele>
<time>2015-11-22T16:10:32Z</time>
</trkpt>
<trkpt lat="30.6576891" lon="35.6432658">
<ele>1408.11</ele>
<time>2015-11-22T16:10:33Z</time>
</trkpt>
<trkpt lat="30.6577302" lon="35.6432010">
<ele>1407.15</ele>
<time>2015-11-22T16:10:34Z</time>
</trkpt>
<trkpt lat="30.6577689" lon="35.6431461">
<ele>1407.17</ele>
<time>2015-11-22T16:10:35Z</time>
</trkpt>
<trkpt lat="30.6578144" lon="35.6430540">
<ele>1406.69</ele>
<time>2015-11-22T16:10:37Z</time>
</trkpt>
<trkpt lat="30.6578344" lon="35.6430060">
<ele>1406.44</ele>
<time>2015-11-22T16:10:38Z</time>
</trkpt>
<trkpt lat="30.6578700" lon="35.6429216">
<ele>1406.76</ele>
<time>2015-11-22T16:10:40Z</time>
</trkpt>
<trkpt lat="30.6579005" lon="35.6428361">
<ele>1407.59</ele>
<time>2015-11-22T16:10:42Z</time>
</trkpt>
<trkpt lat="30.6579083" lon="35.6427619">
<ele>1408.04</ele>
<time>2015-11-22T16:10:44Z</time>
</trkpt>
<trkpt lat="30.6579345" lon="35.6426731">
<ele>1408.16</ele>
<time>2015-11-22T16:10:46Z</time>
</trkpt>
<trkpt lat="30.6579534" lon="35.6426244">
<ele>1408.68</ele>
<time>2015-11-22T16:10:47Z</time>
</trkpt>
<trkpt lat="30.6579784" lon="35.6425342">
<ele>1409.07</ele>
<time>2015-11-22T16:10:49Z</time>
</trkpt>
<trkpt lat="30.6580015" lon="35.6424487">
<ele>1408.66</ele>
<time>2015-11-22T16:10:51Z</time>
</trkpt>
<trkpt lat="30.6580179" lon="35.6423653">
<ele>1408.31</ele>
<time>2015-11-22T16:10:53Z</time>
</trkpt>
<trkpt lat="30.6580304" lon="35.6422843">
<ele>1408.23</ele>
<time>2015-11-22T16:10:55Z</time>
</trkpt>
<trkpt lat="30.6580395" lon="35.6422109">
<ele>1408.20</ele>
<time>2015-11-22T16:10:57Z</time>
</trkpt>
<trkpt lat="30.6580312" lon="35.6421504">
<ele>1409.45</ele>
<time>2015-11-22T16:10:59Z</time>
</trkpt>
<trkpt lat="30.6579932" lon="35.6420892">
<ele>1410.10</ele>
<time>2015-11-22T16:11:02Z</time>
</trkpt>
<trkpt lat="30.6579552" lon="35.6420525">
<ele>1410.17</ele>
<time>2015-11-22T16:11:04Z</time>
</trkpt>
<trkpt lat="30.6579215" lon="35.6420101">
<ele>1410.94</ele>
<time>2015-11-22T16:11:06Z</time>
</trkpt>
<trkpt lat="30.6578874" lon="35.6419668">
<ele>1412.38</ele>
<time>2015-11-22T16:11:08Z</time>
</trkpt>
<trkpt lat="30.6578485" lon="35.6419234">
<ele>1412.99</ele>
<time>2015-11-22T16:11:10Z</time>
</trkpt>
<trkpt lat="30.6578099" lon="35.6418754">
<ele>1413.15</ele>
<time>2015-11-22T16:11:12Z</time>
</trkpt>
<trkpt lat="30.6577683" lon="35.6418158">
<ele>1412.68</ele>
<time>2015-11-22T16:11:14Z</time>
</trkpt>
<trkpt lat="30.6577219" lon="35.6417496">
<ele>1412.32</ele>
<time>2015-11-22T16:11:16Z</time>
</trkpt>
<trkpt lat="30.6576840" lon="35.6416884">
<ele>1412.48</ele>
<time>2015-11-22T16:11:18Z</time>
</trkpt>
<trkpt lat="30.6576572" lon="35.6416417">
<ele>1412.98</ele>
<time>2015-11-22T16:11:21Z</time>
</trkpt>
<trkpt lat="30.6576173" lon="35.6416065">
<ele>1413.11</ele>
<time>2015-11-22T16:11:46Z</time>
</trkpt>
<trkpt lat="30.6575950" lon="35.6415508">
<ele>1413.57</ele>
<time>2015-11-22T16:11:50Z</time>
</trkpt>
<trkpt lat="30.6575860" lon="35.6414861">
<ele>1413.91</ele>
<time>2015-11-22T16:11:54Z</time>
</trkpt>
<trkpt lat="30.6575516" lon="35.6414523">
<ele>1412.19</ele>
<time>2015-11-22T16:16:43Z</time>
</trkpt>
<trkpt lat="30.6575063" lon="35.6414144">
<ele>1412.18</ele>
<time>2015-11-22T16:16:49Z</time>
</trkpt>
<trkpt lat="30.6574618" lon="35.6413698">
<ele>1412.19</ele>
<time>2015-11-22T16:16:52Z</time>
</trkpt>
<trkpt lat="30.6574196" lon="35.6413301">
<ele>1412.20</ele>
<time>2015-11-22T16:16:55Z</time>
</trkpt>
<trkpt lat="30.6573849" lon="35.6412819">
<ele>1413.45</ele>
<time>2015-11-22T16:16:58Z</time>
</trkpt>
<trkpt lat="30.6573508" lon="35.6412381">
<ele>1415.73</ele>
<time>2015-11-22T16:17:01Z</time>
</trkpt>
<trkpt lat="30.6573165" lon="35.6411914">
<ele>1416.51</ele>
<time>2015-11-22T16:17:04Z</time>
</trkpt>
<trkpt lat="30.6572746" lon="35.6411424">
<ele>1416.74</ele>
<time>2015-11-22T16:17:07Z</time>
</trkpt>
<trkpt lat="30.6572402" lon="35.6410943">
<ele>1416.26</ele>
<time>2015-11-22T16:17:10Z</time>
</trkpt>
<trkpt lat="30.6572084" lon="35.6410438">
<ele>1417.58</ele>
<time>2015-11-22T16:17:13Z</time>
</trkpt>
<trkpt lat="30.6571717" lon="35.6409925">
<ele>1416.37</ele>
<time>2015-11-22T16:17:16Z</time>
</trkpt>
<trkpt lat="30.6571365" lon="35.6409442">
<ele>1414.47</ele>
<time>2015-11-22T16:17:19Z</time>
</trkpt>
<trkpt lat="30.6571004" lon="35.6408890">
<ele>1413.48</ele>
<time>2015-11-22T16:17:22Z</time>
</trkpt>
<trkpt lat="30.6570632" lon="35.6408363">
<ele>1413.73</ele>
<time>2015-11-22T16:17:25Z</time>
</trkpt>
<trkpt lat="30.6570222" lon="35.6407797">
<ele>1415.76</ele>
<time>2015-11-22T16:17:28Z</time>
</trkpt>
<trkpt lat="30.6569842" lon="35.6407223">
<ele>1416.64</ele>
<time>2015-11-22T16:17:31Z</time>
</trkpt>
<trkpt lat="30.6569437" lon="35.6406719">
<ele>1417.13</ele>
<time>2015-11-22T16:17:34Z</time>
</trkpt>
<trkpt lat="30.6569019" lon="35.6406236">
<ele>1417.94</ele>
<time>2015-11-22T16:17:37Z</time>
</trkpt>
<trkpt lat="30.6568590" lon="35.6405770">
<ele>1419.04</ele>
<time>2015-11-22T16:17:40Z</time>
</trkpt>
<trkpt lat="30.6568189" lon="35.6405284">
<ele>1418.68</ele>
<time>2015-11-22T16:17:43Z</time>
</trkpt>
<trkpt lat="30.6567779" lon="35.6404783">
<ele>1419.13</ele>
<time>2015-11-22T16:17:46Z</time>
</trkpt>
<trkpt lat="30.6567342" lon="35.6404325">
<ele>1419.19</ele>
<time>2015-11-22T16:17:49Z</time>
</trkpt>
<trkpt lat="30.6566924" lon="35.6403922">
<ele>1419.94</ele>
<time>2015-11-22T16:17:52Z</time>
</trkpt>
<trkpt lat="30.6566508" lon="35.6403569">
<ele>1419.41</ele>
<time>2015-11-22T16:17:55Z</time>
</trkpt>
<trkpt lat="30.6566215" lon="35.6403083">
<ele>1420.97</ele>
<time>2015-11-22T16:17:58Z</time>
</trkpt>
<trkpt lat="30.6565887" lon="35.6402586">
<ele>1422.54</ele>
<time>2015-11-22T16:18:01Z</time>
</trkpt>
<trkpt lat="30.6565474" lon="35.6402137">
<ele>1423.61</ele>
<time>2015-11-22T16:18:04Z</time>
</trkpt>
<trkpt lat="30.6565087" lon="35.6401605">
<ele>1424.87</ele>
<time>2015-11-22T16:18:07Z</time>
</trkpt>
<trkpt lat="30.6564711" lon="35.6401071">
<ele>1425.16</ele>
<time>2015-11-22T16:18:10Z</time>
</trkpt>
<trkpt lat="30.6564286" lon="35.6400557">
<ele>1424.32</ele>
<time>2015-11-22T16:18:13Z</time>
</trkpt>
<trkpt lat="30.6563863" lon="35.6400019">
<ele>1425.09</ele>
<time>2015-11-22T16:18:16Z</time>
</trkpt>
<trkpt lat="30.6563443" lon="35.6399470">
<ele>1425.43</ele>
<time>2015-11-22T16:18:19Z</time>
</trkpt>
<trkpt lat="30.6563167" lon="35.6399056">
<ele>1425.51</ele>
<time>2015-11-22T16:18:21Z</time>
</trkpt>
<trkpt lat="30.6562877" lon="35.6398623">
<ele>1426.02</ele>
<time>2015-11-22T16:18:23Z</time>
</trkpt>
<trkpt lat="30.6562614" lon="35.6398169">
<ele>1427.65</ele>
<time>2015-11-22T16:18:25Z</time>
</trkpt>
<trkpt lat="30.6562329" lon="35.6397744">
<ele>1428.81</ele>
<time>2015-11-22T16:18:27Z</time>
</trkpt>
<trkpt lat="30.6562045" lon="35.6397326">
<ele>1429.10</ele>
<time>2015-11-22T16:18:29Z</time>
</trkpt>
<trkpt lat="30.6561583" lon="35.6396756">
<ele>1430.06</ele>
<time>2015-11-22T16:18:32Z</time>
</trkpt>
<trkpt lat="30.6561160" lon="35.6396190">
<ele>1430.68</ele>
<time>2015-11-22T16:18:35Z</time>
</trkpt>
<trkpt lat="30.6560664" lon="35.6395732">
<ele>1430.38</ele>
<time>2015-11-22T16:18:38Z</time>
</trkpt>
<trkpt lat="30.6560299" lon="35.6395261">
<ele>1430.72</ele>
<time>2015-11-22T16:18:41Z</time>
</trkpt>
<trkpt lat="30.6559897" lon="35.6394867">
<ele>1432.01</ele>
<time>2015-11-22T16:18:44Z</time>
</trkpt>
<trkpt lat="30.6559482" lon="35.6394535">
<ele>1432.55</ele>
<time>2015-11-22T16:18:47Z</time>
</trkpt>
<trkpt lat="30.6559037" lon="35.6394144">
<ele>1432.36</ele>
<time>2015-11-22T16:18:50Z</time>
</trkpt>
<trkpt lat="30.6558612" lon="35.6393842">
<ele>1433.59</ele>
<time>2015-11-22T16:18:53Z</time>
</trkpt>
<trkpt lat="30.6558168" lon="35.6393402">
<ele>1436.28</ele>
<time>2015-11-22T16:18:57Z</time>
</trkpt>
<trkpt lat="30.6557812" lon="35.6393023">
<ele>1437.58</ele>
<time>2015-11-22T16:19:00Z</time>
</trkpt>
<trkpt lat="30.6557335" lon="35.6392728">
<ele>1438.37</ele>
<time>2015-11-22T16:19:03Z</time>
</trkpt>
<trkpt lat="30.6556832" lon="35.6392408">
<ele>1440.22</ele>
<time>2015-11-22T16:19:06Z</time>
</trkpt>
<trkpt lat="30.6556303" lon="35.6392021">
<ele>1442.95</ele>
<time>2015-11-22T16:19:09Z</time>
</trkpt>
<trkpt lat="30.6555784" lon="35.6391657">
<ele>1443.79</ele>
<time>2015-11-22T16:19:12Z</time>
</trkpt>
<trkpt lat="30.6555277" lon="35.6391288">
<ele>1444.02</ele>
<time>2015-11-22T16:19:15Z</time>
</trkpt>
<trkpt lat="30.6554758" lon="35.6390875">
<ele>1445.30</ele>
<time>2015-11-22T16:19:18Z</time>
</trkpt>
<trkpt lat="30.6554225" lon="35.6390512">
<ele>1446.83</ele>
<time>2015-11-22T16:19:21Z</time>
</trkpt>
<trkpt lat="30.6553722" lon="35.6390156">
<ele>1447.03</ele>
<time>2015-11-22T16:19:24Z</time>
</trkpt>
<trkpt lat="30.6553276" lon="35.6389799">
<ele>1447.17</ele>
<time>2015-11-22T16:19:27Z</time>
</trkpt>
<trkpt lat="30.6552866" lon="35.6389284">
<ele>1447.32</ele>
<time>2015-11-22T16:19:31Z</time>
</trkpt>
<trkpt lat="30.6552563" lon="35.6388841">
<ele>1447.59</ele>
<time>2015-11-22T16:19:34Z</time>
</trkpt>
<trkpt lat="30.6552225" lon="35.6388418">
<ele>1447.24</ele>
<time>2015-11-22T16:19:37Z</time>
</trkpt>
<trkpt lat="30.6551807" lon="35.6387998">
<ele>1447.33</ele>
<time>2015-11-22T16:19:40Z</time>
</trkpt>
<trkpt lat="30.6551350" lon="35.6387598">
<ele>1447.21</ele>
<time>2015-11-22T16:19:43Z</time>
</trkpt>
<trkpt lat="30.6550912" lon="35.6387240">
<ele>1446.45</ele>
<time>2015-11-22T16:19:46Z</time>
</trkpt>
<trkpt lat="30.6550491" lon="35.6386872">
<ele>1445.73</ele>
<time>2015-11-22T16:19:49Z</time>
</trkpt>
<trkpt lat="30.6550078" lon="35.6386515">
<ele>1444.39</ele>
<time>2015-11-22T16:19:52Z</time>
</trkpt>
<trkpt lat="30.6549654" lon="35.6386062">
<ele>1443.34</ele>
<time>2015-11-22T16:19:55Z</time>
</trkpt>
<trkpt lat="30.6549190" lon="35.6385588">
<ele>1443.96</ele>
<time>2015-11-22T16:19:58Z</time>
</trkpt>
<trkpt lat="30.6548707" lon="35.6385142">
<ele>1444.54</ele>
<time>2015-11-22T16:20:01Z</time>
</trkpt>
<trkpt lat="30.6548121" lon="35.6384524">
<ele>1445.86</ele>
<time>2015-11-22T16:20:05Z</time>
</trkpt>
<trkpt lat="30.6547616" lon="35.6384073">
<ele>1446.40</ele>
<time>2015-11-22T16:20:08Z</time>
</trkpt>
<trkpt lat="30.6547125" lon="35.6383654">
<ele>1446.22</ele>
<time>2015-11-22T16:20:11Z</time>
</trkpt>
<trkpt lat="30.6546638" lon="35.6383205">
<ele>1447.32</ele>
<time>2015-11-22T16:20:14Z</time>
</trkpt>
<trkpt lat="30.6546277" lon="35.6382726">
<ele>1447.84</ele>
<time>2015-11-22T16:20:17Z</time>
</trkpt>
<trkpt lat="30.6545984" lon="35.6382268">
<ele>1448.90</ele>
<time>2015-11-22T16:20:20Z</time>
</trkpt>
<trkpt lat="30.6545975" lon="35.6381610">
<ele>1448.62</ele>
<time>2015-11-22T16:20:24Z</time>
</trkpt>
<trkpt lat="30.6546027" lon="35.6381008">
<ele>1448.78</ele>
<time>2015-11-22T16:20:28Z</time>
</trkpt>
<trkpt lat="30.6545976" lon="35.6380461">
<ele>1446.45</ele>
<time>2015-11-22T16:20:59Z</time>
</trkpt>
<trkpt lat="30.6545937" lon="35.6379902">
<ele>1446.10</ele>
<time>2015-11-22T16:21:02Z</time>
</trkpt>
<trkpt lat="30.6545915" lon="35.6379251">
<ele>1447.56</ele>
<time>2015-11-22T16:21:05Z</time>
</trkpt>
<trkpt lat="30.6545910" lon="35.6378575">
<ele>1448.62</ele>
<time>2015-11-22T16:21:08Z</time>
</trkpt>
<trkpt lat="30.6545997" lon="35.6377878">
<ele>1449.12</ele>
<time>2015-11-22T16:21:11Z</time>
</trkpt>
<trkpt lat="30.6545972" lon="35.6377136">
<ele>1449.19</ele>
<time>2015-11-22T16:21:14Z</time>
</trkpt>
<trkpt lat="30.6545990" lon="35.6376384">
<ele>1450.07</ele>
<time>2015-11-22T16:21:17Z</time>
</trkpt>
<trkpt lat="30.6546038" lon="35.6375673">
<ele>1449.56</ele>
<time>2015-11-22T16:21:20Z</time>
</trkpt>
<trkpt lat="30.6546100" lon="35.6374975">
<ele>1449.37</ele>
<time>2015-11-22T16:21:23Z</time>
</trkpt>
<trkpt lat="30.6546151" lon="35.6374319">
<ele>1448.97</ele>
<time>2015-11-22T16:21:26Z</time>
</trkpt>
<trkpt lat="30.6546267" lon="35.6373674">
<ele>1449.17</ele>
<time>2015-11-22T16:21:29Z</time>
</trkpt>
<trkpt lat="30.6546455" lon="35.6373075">
<ele>1449.69</ele>
<time>2015-11-22T16:21:32Z</time>
</trkpt>
<trkpt lat="30.6546680" lon="35.6372520">
<ele>1450.13</ele>
<time>2015-11-22T16:21:35Z</time>
</trkpt>
<trkpt lat="30.6546978" lon="35.6371976">
<ele>1450.19</ele>
<time>2015-11-22T16:21:38Z</time>
</trkpt>
<trkpt lat="30.6547317" lon="35.6371463">
<ele>1450.20</ele>
<time>2015-11-22T16:21:41Z</time>
</trkpt>
<trkpt lat="30.6547743" lon="35.6370931">
<ele>1450.07</ele>
<time>2015-11-22T16:21:44Z</time>
</trkpt>
<trkpt lat="30.6548131" lon="35.6370374">
<ele>1450.18</ele>
<time>2015-11-22T16:21:47Z</time>
</trkpt>
<trkpt lat="30.6548568" lon="35.6369858">
<ele>1449.32</ele>
<time>2015-11-22T16:21:50Z</time>
</trkpt>
<trkpt lat="30.6549004" lon="35.6369336">
<ele>1449.59</ele>
<time>2015-11-22T16:21:53Z</time>
</trkpt>
<trkpt lat="30.6549347" lon="35.6368808">
<ele>1449.74</ele>
<time>2015-11-22T16:21:56Z</time>
</trkpt>
<trkpt lat="30.6549700" lon="35.6368374">
<ele>1450.64</ele>
<time>2015-11-22T16:21:59Z</time>
</trkpt>
<trkpt lat="30.6549759" lon="35.6367807">
<ele>1451.50</ele>
<time>2015-11-22T16:22:02Z</time>
</trkpt>
<trkpt lat="30.6549947" lon="35.6367326">
<ele>1451.36</ele>
<time>2015-11-22T16:22:05Z</time>
</trkpt>
<trkpt lat="30.6550162" lon="35.6366856">
<ele>1451.34</ele>
<time>2015-11-22T16:22:08Z</time>
</trkpt>
<trkpt lat="30.6550398" lon="35.6366278">
<ele>1450.39</ele>
<time>2015-11-22T16:22:12Z</time>
</trkpt>
<trkpt lat="30.6550584" lon="35.6365687">
<ele>1450.83</ele>
<time>2015-11-22T16:22:16Z</time>
</trkpt>
<trkpt lat="30.6550635" lon="35.6365052">
<ele>1453.30</ele>
<time>2015-11-22T16:22:20Z</time>
</trkpt>
<trkpt lat="30.6550725" lon="35.6364520">
<ele>1454.83</ele>
<time>2015-11-22T16:22:23Z</time>
</trkpt>
<trkpt lat="30.6550831" lon="35.6364006">
<ele>1455.90</ele>
<time>2015-11-22T16:22:26Z</time>
</trkpt>
<trkpt lat="30.6550899" lon="35.6363347">
<ele>1456.55</ele>
<time>2015-11-22T16:22:30Z</time>
</trkpt>
<trkpt lat="30.6550956" lon="35.6362719">
<ele>1457.84</ele>
<time>2015-11-22T16:22:34Z</time>
</trkpt>
<trkpt lat="30.6550962" lon="35.6362033">
<ele>1458.67</ele>
<time>2015-11-22T16:22:38Z</time>
</trkpt>
<trkpt lat="30.6551097" lon="35.6361374">
<ele>1459.91</ele>
<time>2015-11-22T16:22:42Z</time>
</trkpt>
<trkpt lat="30.6551194" lon="35.6360750">
<ele>1460.18</ele>
<time>2015-11-22T16:22:46Z</time>
</trkpt>
<trkpt lat="30.6551282" lon="35.6360101">
<ele>1459.32</ele>
<time>2015-11-22T16:22:50Z</time>
</trkpt>
<trkpt lat="30.6551411" lon="35.6359524">
<ele>1461.20</ele>
<time>2015-11-22T16:22:54Z</time>
</trkpt>
<trkpt lat="30.6551582" lon="35.6358933">
<ele>1461.20</ele>
<time>2015-11-22T16:22:58Z</time>
</trkpt>
<trkpt lat="30.6551822" lon="35.6358389">
<ele>1462.07</ele>
<time>2015-11-22T16:23:02Z</time>
</trkpt>
<trkpt lat="30.6551933" lon="35.6357880">
<ele>1465.06</ele>
<time>2015-11-22T16:23:06Z</time>
</trkpt>
<trkpt lat="30.6552088" lon="35.6357389">
<ele>1465.38</ele>
<time>2015-11-22T16:23:10Z</time>
</trkpt>
<trkpt lat="30.6551758" lon="35.6356954">
<ele>1465.95</ele>
<time>2015-11-22T16:23:15Z</time>
</trkpt>
<trkpt lat="30.6551206" lon="35.6356821">
<ele>1467.43</ele>
<time>2015-11-22T16:23:19Z</time>
</trkpt>
<trkpt lat="30.6550695" lon="35.6356665">
<ele>1468.09</ele>
<time>2015-11-22T16:23:23Z</time>
</trkpt>
<trkpt lat="30.6550256" lon="35.6356547">
<ele>1466.81</ele>
<time>2015-11-22T16:23:26Z</time>
</trkpt>
<trkpt lat="30.6549725" lon="35.6356343">
<ele>1466.40</ele>
<time>2015-11-22T16:23:29Z</time>
</trkpt>
<trkpt lat="30.6549153" lon="35.6356081">
<ele>1465.35</ele>
<time>2015-11-22T16:23:32Z</time>
</trkpt>
<trkpt lat="30.6548548" lon="35.6355799">
<ele>1464.46</ele>
<time>2015-11-22T16:23:35Z</time>
</trkpt>
<trkpt lat="30.6547724" lon="35.6355578">
<ele>1464.85</ele>
<time>2015-11-22T16:23:38Z</time>
</trkpt>
<trkpt lat="30.6547006" lon="35.6355402">
<ele>1465.11</ele>
<time>2015-11-22T16:23:40Z</time>
</trkpt>
<trkpt lat="30.6546242" lon="35.6355167">
<ele>1465.42</ele>
<time>2015-11-22T16:23:42Z</time>
</trkpt>
<trkpt lat="30.6545442" lon="35.6354933">
<ele>1465.25</ele>
<time>2015-11-22T16:23:44Z</time>
</trkpt>
<trkpt lat="30.6544588" lon="35.6354754">
<ele>1465.21</ele>
<time>2015-11-22T16:23:46Z</time>
</trkpt>
<trkpt lat="30.6543794" lon="35.6354598">
<ele>1463.95</ele>
<time>2015-11-22T16:23:48Z</time>
</trkpt>
<trkpt lat="30.6543040" lon="35.6354413">
<ele>1462.63</ele>
<time>2015-11-22T16:23:50Z</time>
</trkpt>
<trkpt lat="30.6542343" lon="35.6354245">
<ele>1462.56</ele>
<time>2015-11-22T16:23:52Z</time>
</trkpt>
<trkpt lat="30.6541803" lon="35.6354024">
<ele>1461.54</ele>
<time>2015-11-22T16:23:54Z</time>
</trkpt>
<trkpt lat="30.6541401" lon="35.6353459">
<ele>1460.74</ele>
<time>2015-11-22T16:23:57Z</time>
</trkpt>
<trkpt lat="30.6541659" lon="35.6352800">
<ele>1459.76</ele>
<time>2015-11-22T16:24:00Z</time>
</trkpt>
<trkpt lat="30.6542019" lon="35.6352478">
<ele>1457.59</ele>
<time>2015-11-22T16:24:02Z</time>
</trkpt>
<trkpt lat="30.6542535" lon="35.6351950">
<ele>1456.62</ele>
<time>2015-11-22T16:24:05Z</time>
</trkpt>
<trkpt lat="30.6542857" lon="35.6351532">
<ele>1457.05</ele>
<time>2015-11-22T16:24:07Z</time>
</trkpt>
<trkpt lat="30.6543261" lon="35.6350941">
<ele>1456.93</ele>
<time>2015-11-22T16:24:10Z</time>
</trkpt>
<trkpt lat="30.6543682" lon="35.6350406">
<ele>1457.54</ele>
<time>2015-11-22T16:24:13Z</time>
</trkpt>
<trkpt lat="30.6544113" lon="35.6349855">
<ele>1457.24</ele>
<time>2015-11-22T16:24:16Z</time>
</trkpt>
<trkpt lat="30.6544524" lon="35.6349298">
<ele>1458.08</ele>
<time>2015-11-22T16:24:19Z</time>
</trkpt>
<trkpt lat="30.6544943" lon="35.6348846">
<ele>1459.43</ele>
<time>2015-11-22T16:24:22Z</time>
</trkpt>
<trkpt lat="30.6545238" lon="35.6348344">
<ele>1460.10</ele>
<time>2015-11-22T16:24:25Z</time>
</trkpt>
<trkpt lat="30.6545577" lon="35.6347912">
<ele>1461.18</ele>
<time>2015-11-22T16:24:28Z</time>
</trkpt>
<trkpt lat="30.6545792" lon="35.6347275">
<ele>1462.13</ele>
<time>2015-11-22T16:24:32Z</time>
</trkpt>
<trkpt lat="30.6546008" lon="35.6346746">
<ele>1462.76</ele>
<time>2015-11-22T16:25:11Z</time>
</trkpt>
<trkpt lat="30.6546450" lon="35.6346253">
<ele>1463.67</ele>
<time>2015-11-22T16:25:15Z</time>
</trkpt>
<trkpt lat="30.6546912" lon="35.6346106">
<ele>1463.22</ele>
<time>2015-11-22T16:25:21Z</time>
</trkpt>
<trkpt lat="30.6547167" lon="35.6345632">
<ele>1464.13</ele>
<time>2015-11-22T16:25:28Z</time>
</trkpt>
<trkpt lat="30.6547359" lon="35.6345089">
<ele>1464.19</ele>
<time>2015-11-22T16:25:31Z</time>
</trkpt>
<trkpt lat="30.6547571" lon="35.6344548">
<ele>1464.63</ele>
<time>2015-11-22T16:25:35Z</time>
</trkpt>
<trkpt lat="30.6547928" lon="35.6343986">
<ele>1463.29</ele>
<time>2015-11-22T16:25:39Z</time>
</trkpt>
<trkpt lat="30.6548254" lon="35.6343539">
<ele>1463.96</ele>
<time>2015-11-22T16:25:42Z</time>
</trkpt>
<trkpt lat="30.6548553" lon="35.6343029">
<ele>1464.67</ele>
<time>2015-11-22T16:25:45Z</time>
</trkpt>
<trkpt lat="30.6548848" lon="35.6342523">
<ele>1464.25</ele>
<time>2015-11-22T16:25:48Z</time>
</trkpt>
<trkpt lat="30.6549196" lon="35.6342014">
<ele>1463.70</ele>
<time>2015-11-22T16:25:51Z</time>
</trkpt>
<trkpt lat="30.6549586" lon="35.6341497">
<ele>1461.38</ele>
<time>2015-11-22T16:25:54Z</time>
</trkpt>
<trkpt lat="30.6549855" lon="35.6341007">
<ele>1460.34</ele>
<time>2015-11-22T16:25:57Z</time>
</trkpt>
<trkpt lat="30.6550166" lon="35.6340479">
<ele>1460.71</ele>
<time>2015-11-22T16:26:00Z</time>
</trkpt>
<trkpt lat="30.6550364" lon="35.6339956">
<ele>1461.51</ele>
<time>2015-11-22T16:26:03Z</time>
</trkpt>
<trkpt lat="30.6550623" lon="35.6339458">
<ele>1462.36</ele>
<time>2015-11-22T16:26:06Z</time>
</trkpt>
<trkpt lat="30.6550854" lon="35.6338938">
<ele>1463.59</ele>
<time>2015-11-22T16:26:09Z</time>
</trkpt>
<trkpt lat="30.6551203" lon="35.6338413">
<ele>1463.28</ele>
<time>2015-11-22T16:26:13Z</time>
</trkpt>
<trkpt lat="30.6551461" lon="35.6337848">
<ele>1463.20</ele>
<time>2015-11-22T16:26:17Z</time>
</trkpt>
<trkpt lat="30.6551738" lon="35.6337327">
<ele>1463.95</ele>
<time>2015-11-22T16:26:21Z</time>
</trkpt>
<trkpt lat="30.6552027" lon="35.6336756">
<ele>1464.18</ele>
<time>2015-11-22T16:26:25Z</time>
</trkpt>
<trkpt lat="30.6552317" lon="35.6336342">
<ele>1465.07</ele>
<time>2015-11-22T16:26:28Z</time>
</trkpt>
<trkpt lat="30.6552534" lon="35.6335864">
<ele>1465.93</ele>
<time>2015-11-22T16:26:31Z</time>
</trkpt>
<trkpt lat="30.6552756" lon="35.6335370">
<ele>1466.66</ele>
<time>2015-11-22T16:26:34Z</time>
</trkpt>
<trkpt lat="30.6553118" lon="35.6334841">
<ele>1467.10</ele>
<time>2015-11-22T16:26:38Z</time>
</trkpt>
<trkpt lat="30.6553373" lon="35.6334405">
<ele>1467.68</ele>
<time>2015-11-22T16:26:41Z</time>
</trkpt>
<trkpt lat="30.6553671" lon="35.6333994">
<ele>1468.51</ele>
<time>2015-11-22T16:26:44Z</time>
</trkpt>
<trkpt lat="30.6554004" lon="35.6333468">
<ele>1469.65</ele>
<time>2015-11-22T16:26:48Z</time>
</trkpt>
<trkpt lat="30.6554243" lon="35.6332908">
<ele>1468.97</ele>
<time>2015-11-22T16:26:52Z</time>
</trkpt>
<trkpt lat="30.6554440" lon="35.6332418">
<ele>1470.04</ele>
<time>2015-11-22T16:26:55Z</time>
</trkpt>
<trkpt lat="30.6554402" lon="35.6331768">
<ele>1470.55</ele>
<time>2015-11-22T16:26:58Z</time>
</trkpt>
<trkpt lat="30.6554440" lon="35.6330855">
<ele>1470.24</ele>
<time>2015-11-22T16:27:01Z</time>
</trkpt>
<trkpt lat="30.6554580" lon="35.6330126">
<ele>1470.96</ele>
<time>2015-11-22T16:27:03Z</time>
</trkpt>
<trkpt lat="30.6554557" lon="35.6329509">
<ele>1469.89</ele>
<time>2015-11-22T16:27:05Z</time>
</trkpt>
<trkpt lat="30.6554367" lon="35.6328989">
<ele>1469.62</ele>
<time>2015-11-22T16:27:07Z</time>
</trkpt>
<trkpt lat="30.6554121" lon="35.6328519">
<ele>1470.05</ele>
<time>2015-11-22T16:27:09Z</time>
</trkpt>
<trkpt lat="30.6553821" lon="35.6328123">
<ele>1470.16</ele>
<time>2015-11-22T16:27:11Z</time>
</trkpt>
<trkpt lat="30.6553453" lon="35.6327532">
<ele>1470.19</ele>
<time>2015-11-22T16:27:14Z</time>
</trkpt>
<trkpt lat="30.6553151" lon="35.6327014">
<ele>1469.70</ele>
<time>2015-11-22T16:27:17Z</time>
</trkpt>
<trkpt lat="30.6552896" lon="35.6326559">
<ele>1470.13</ele>
<time>2015-11-22T16:27:20Z</time>
</trkpt>
<trkpt lat="30.6552560" lon="35.6326105">
<ele>1470.81</ele>
<time>2015-11-22T16:27:23Z</time>
</trkpt>
<trkpt lat="30.6552174" lon="35.6325710">
<ele>1470.85</ele>
<time>2015-11-22T16:27:25Z</time>
</trkpt>
<trkpt lat="30.6551580" lon="35.6325185">
<ele>1470.61</ele>
<time>2015-11-22T16:27:27Z</time>
</trkpt>
<trkpt lat="30.6550822" lon="35.6324593">
<ele>1470.30</ele>
<time>2015-11-22T16:27:29Z</time>
</trkpt>
<trkpt lat="30.6550421" lon="35.6324276">
<ele>1470.25</ele>
<time>2015-11-22T16:27:30Z</time>
</trkpt>
<trkpt lat="30.6549939" lon="35.6323648">
<ele>1470.71</ele>
<time>2015-11-22T16:27:32Z</time>
</trkpt>
<trkpt lat="30.6549716" lon="35.6323086">
<ele>1471.57</ele>
<time>2015-11-22T16:27:34Z</time>
</trkpt>
<trkpt lat="30.6549800" lon="35.6322517">
<ele>1471.79</ele>
<time>2015-11-22T16:27:36Z</time>
</trkpt>
<trkpt lat="30.6549825" lon="35.6321851">
<ele>1472.17</ele>
<time>2015-11-22T16:27:40Z</time>
</trkpt>
<trkpt lat="30.6550028" lon="35.6321241">
<ele>1472.63</ele>
<time>2015-11-22T16:27:44Z</time>
</trkpt>
<trkpt lat="30.6550260" lon="35.6320702">
<ele>1472.22</ele>
<time>2015-11-22T16:27:48Z</time>
</trkpt>
<trkpt lat="30.6550546" lon="35.6320248">
<ele>1472.70</ele>
<time>2015-11-22T16:27:52Z</time>
</trkpt>
<trkpt lat="30.6550713" lon="35.6319664">
<ele>1473.16</ele>
<time>2015-11-22T16:27:56Z</time>
</trkpt>
<trkpt lat="30.6550854" lon="35.6319033">
<ele>1473.19</ele>
<time>2015-11-22T16:28:00Z</time>
</trkpt>
<trkpt lat="30.6551033" lon="35.6318396">
<ele>1474.13</ele>
<time>2015-11-22T16:28:04Z</time>
</trkpt>
<trkpt lat="30.6551185" lon="35.6317774">
<ele>1474.19</ele>
<time>2015-11-22T16:28:08Z</time>
</trkpt>
<trkpt lat="30.6551357" lon="35.6317166">
<ele>1475.13</ele>
<time>2015-11-22T16:28:12Z</time>
</trkpt>
<trkpt lat="30.6551536" lon="35.6316537">
<ele>1476.07</ele>
<time>2015-11-22T16:28:16Z</time>
</trkpt>
<trkpt lat="30.6551714" lon="35.6315892">
<ele>1476.94</ele>
<time>2015-11-22T16:28:20Z</time>
</trkpt>
<trkpt lat="30.6551892" lon="35.6315268">
<ele>1478.12</ele>
<time>2015-11-22T16:28:24Z</time>
</trkpt>
<trkpt lat="30.6552110" lon="35.6314677">
<ele>1479.13</ele>
<time>2015-11-22T16:28:28Z</time>
</trkpt>
<trkpt lat="30.6552318" lon="35.6314048">
<ele>1479.88</ele>
<time>2015-11-22T16:28:32Z</time>
</trkpt>
<trkpt lat="30.6552568" lon="35.6313493">
<ele>1479.99</ele>
<time>2015-11-22T16:28:36Z</time>
</trkpt>
<trkpt lat="30.6552759" lon="35.6312960">
<ele>1479.31</ele>
<time>2015-11-22T16:28:40Z</time>
</trkpt>
<trkpt lat="30.6552913" lon="35.6312400">
<ele>1479.27</ele>
<time>2015-11-22T16:28:44Z</time>
</trkpt>
<trkpt lat="30.6553113" lon="35.6311825">
<ele>1480.14</ele>
<time>2015-11-22T16:28:48Z</time>
</trkpt>
<trkpt lat="30.6553311" lon="35.6311195">
<ele>1480.19</ele>
<time>2015-11-22T16:28:52Z</time>
</trkpt>
<trkpt lat="30.6553456" lon="35.6310573">
<ele>1480.95</ele>
<time>2015-11-22T16:28:56Z</time>
</trkpt>
<trkpt lat="30.6553530" lon="35.6309991">
<ele>1481.18</ele>
<time>2015-11-22T16:29:00Z</time>
</trkpt>
<trkpt lat="30.6553674" lon="35.6309432">
<ele>1481.95</ele>
<time>2015-11-22T16:29:04Z</time>
</trkpt>
<trkpt lat="30.6553815" lon="35.6308870">
<ele>1483.06</ele>
<time>2015-11-22T16:29:08Z</time>
</trkpt>
<trkpt lat="30.6553939" lon="35.6308280">
<ele>1483.69</ele>
<time>2015-11-22T16:29:12Z</time>
</trkpt>
<trkpt lat="30.6554118" lon="35.6307671">
<ele>1484.66</ele>
<time>2015-11-22T16:29:16Z</time>
</trkpt>
<trkpt lat="30.6554268" lon="35.6307067">
<ele>1485.16</ele>
<time>2015-11-22T16:29:20Z</time>
</trkpt>
<trkpt lat="30.6554456" lon="35.6306460">
<ele>1485.94</ele>
<time>2015-11-22T16:29:24Z</time>
</trkpt>
<trkpt lat="30.6554610" lon="35.6305830">
<ele>1487.06</ele>
<time>2015-11-22T16:29:28Z</time>
</trkpt>
<trkpt lat="30.6554843" lon="35.6305227">
<ele>1487.19</ele>
<time>2015-11-22T16:29:32Z</time>
</trkpt>
<trkpt lat="30.6555007" lon="35.6304724">
<ele>1488.07</ele>
<time>2015-11-22T16:29:35Z</time>
</trkpt>
<trkpt lat="30.6555124" lon="35.6304083">
<ele>1488.81</ele>
<time>2015-11-22T16:29:39Z</time>
</trkpt>
<trkpt lat="30.6555244" lon="35.6303441">
<ele>1489.17</ele>
<time>2015-11-22T16:29:43Z</time>
</trkpt>
<trkpt lat="30.6555458" lon="35.6302814">
<ele>1489.94</ele>
<time>2015-11-22T16:29:47Z</time>
</trkpt>
<trkpt lat="30.6555626" lon="35.6302185">
<ele>1490.18</ele>
<time>2015-11-22T16:29:51Z</time>
</trkpt>
<trkpt lat="30.6555694" lon="35.6301594">
<ele>1491.07</ele>
<time>2015-11-22T16:29:55Z</time>
</trkpt>
<trkpt lat="30.6555700" lon="35.6300977">
<ele>1491.06</ele>
<time>2015-11-22T16:29:59Z</time>
</trkpt>
<trkpt lat="30.6555902" lon="35.6300371">
<ele>1491.94</ele>
<time>2015-11-22T16:30:03Z</time>
</trkpt>
<trkpt lat="30.6556124" lon="35.6299765">
<ele>1492.37</ele>
<time>2015-11-22T16:30:07Z</time>
</trkpt>
<trkpt lat="30.6556269" lon="35.6299263">
<ele>1492.97</ele>
<time>2015-11-22T16:30:10Z</time>
</trkpt>
<trkpt lat="30.6556390" lon="35.6298738">
<ele>1494.04</ele>
<time>2015-11-22T16:30:13Z</time>
</trkpt>
<trkpt lat="30.6556536" lon="35.6298182">
<ele>1495.68</ele>
<time>2015-11-22T16:30:16Z</time>
</trkpt>
<trkpt lat="30.6556667" lon="35.6297635">
<ele>1496.13</ele>
<time>2015-11-22T16:30:19Z</time>
</trkpt>
<trkpt lat="30.6556801" lon="35.6297030">
<ele>1496.94</ele>
<time>2015-11-22T16:30:23Z</time>
</trkpt>
<trkpt lat="30.6556901" lon="35.6296407">
<ele>1497.93</ele>
<time>2015-11-22T16:30:27Z</time>
</trkpt>
<trkpt lat="30.6557041" lon="35.6295758">
<ele>1497.93</ele>
<time>2015-11-22T16:30:31Z</time>
</trkpt>
<trkpt lat="30.6557162" lon="35.6295240">
<ele>1497.66</ele>
<time>2015-11-22T16:30:34Z</time>
</trkpt>
<trkpt lat="30.6557272" lon="35.6294686">
<ele>1497.50</ele>
<time>2015-11-22T16:30:37Z</time>
</trkpt>
<trkpt lat="30.6557397" lon="35.6294119">
<ele>1497.23</ele>
<time>2015-11-22T16:30:40Z</time>
</trkpt>
<trkpt lat="30.6557543" lon="35.6293504">
<ele>1495.95</ele>
<time>2015-11-22T16:30:43Z</time>
</trkpt>
<trkpt lat="30.6557774" lon="35.6292856">
<ele>1495.29</ele>
<time>2015-11-22T16:30:46Z</time>
</trkpt>
<trkpt lat="30.6558040" lon="35.6292264">
<ele>1495.33</ele>
<time>2015-11-22T16:30:49Z</time>
</trkpt>
<trkpt lat="30.6558265" lon="35.6291729">
<ele>1496.84</ele>
<time>2015-11-22T16:30:52Z</time>
</trkpt>
<trkpt lat="30.6558460" lon="35.6291207">
<ele>1495.53</ele>
<time>2015-11-22T16:30:55Z</time>
</trkpt>
<trkpt lat="30.6558732" lon="35.6290672">
<ele>1495.24</ele>
<time>2015-11-22T16:30:58Z</time>
</trkpt>
<trkpt lat="30.6559020" lon="35.6290166">
<ele>1494.45</ele>
<time>2015-11-22T16:31:01Z</time>
</trkpt>
<trkpt lat="30.6559262" lon="35.6289654">
<ele>1493.48</ele>
<time>2015-11-22T16:31:04Z</time>
</trkpt>
<trkpt lat="30.6559485" lon="35.6289088">
<ele>1494.48</ele>
<time>2015-11-22T16:31:07Z</time>
</trkpt>
<trkpt lat="30.6559764" lon="35.6288488">
<ele>1495.61</ele>
<time>2015-11-22T16:31:10Z</time>
</trkpt>
<trkpt lat="30.6559993" lon="35.6287862">
<ele>1495.62</ele>
<time>2015-11-22T16:31:13Z</time>
</trkpt>
<trkpt lat="30.6560218" lon="35.6287261">
<ele>1494.75</ele>
<time>2015-11-22T16:31:16Z</time>
</trkpt>
<trkpt lat="30.6560484" lon="35.6286673">
<ele>1494.27</ele>
<time>2015-11-22T16:31:19Z</time>
</trkpt>
<trkpt lat="30.6560744" lon="35.6286080">
<ele>1494.70</ele>
<time>2015-11-22T16:31:22Z</time>
</trkpt>
<trkpt lat="30.6561070" lon="35.6285468">
<ele>1495.13</ele>
<time>2015-11-22T16:31:25Z</time>
</trkpt>
<trkpt lat="30.6561327" lon="35.6285022">
<ele>1496.43</ele>
<time>2015-11-22T16:31:27Z</time>
</trkpt>
<trkpt lat="30.6561726" lon="35.6284474">
<ele>1495.73</ele>
<time>2015-11-22T16:31:30Z</time>
</trkpt>
<trkpt lat="30.6561981" lon="35.6284037">
<ele>1495.26</ele>
<time>2015-11-22T16:31:33Z</time>
</trkpt>
<trkpt lat="30.6562258" lon="35.6283609">
<ele>1496.08</ele>
<time>2015-11-22T16:31:36Z</time>
</trkpt>
<trkpt lat="30.6562797" lon="35.6283499">
<ele>1497.06</ele>
<time>2015-11-22T16:31:40Z</time>
</trkpt>
<trkpt lat="30.6563185" lon="35.6283898">
<ele>1498.05</ele>
<time>2015-11-22T16:31:43Z</time>
</trkpt>
<trkpt lat="30.6562995" lon="35.6283379">
<ele>1499.23</ele>
<time>2015-11-22T16:34:57Z</time>
</trkpt>
<trkpt lat="30.6562695" lon="35.6282917">
<ele>1501.51</ele>
<time>2015-11-22T16:35:20Z</time>
</trkpt>
<trkpt lat="30.6562852" lon="35.6282399">
<ele>1501.25</ele>
<time>2015-11-22T16:35:26Z</time>
</trkpt>
<trkpt lat="30.6563126" lon="35.6281906">
<ele>1501.45</ele>
<time>2015-11-22T16:35:30Z</time>
</trkpt>
<trkpt lat="30.6563382" lon="35.6281318">
<ele>1501.23</ele>
<time>2015-11-22T16:35:33Z</time>
</trkpt>
<trkpt lat="30.6563675" lon="35.6280743">
<ele>1501.20</ele>
<time>2015-11-22T16:35:36Z</time>
</trkpt>
<trkpt lat="30.6563948" lon="35.6280192">
<ele>1500.45</ele>
<time>2015-11-22T16:35:39Z</time>
</trkpt>
<trkpt lat="30.6564267" lon="35.6279670">
<ele>1500.73</ele>
<time>2015-11-22T16:35:42Z</time>
</trkpt>
<trkpt lat="30.6564568" lon="35.6279166">
<ele>1500.26</ele>
<time>2015-11-22T16:35:45Z</time>
</trkpt>
<trkpt lat="30.6564955" lon="35.6278674">
<ele>1498.95</ele>
<time>2015-11-22T16:35:48Z</time>
</trkpt>
<trkpt lat="30.6565328" lon="35.6278099">
<ele>1499.29</ele>
<time>2015-11-22T16:35:51Z</time>
</trkpt>
<trkpt lat="30.6565718" lon="35.6277475">
<ele>1500.21</ele>
<time>2015-11-22T16:35:54Z</time>
</trkpt>
<trkpt lat="30.6565984" lon="35.6277048">
<ele>1500.95</ele>
<time>2015-11-22T16:35:56Z</time>
</trkpt>
<trkpt lat="30.6566409" lon="35.6276447">
<ele>1501.92</ele>
<time>2015-11-22T16:35:59Z</time>
</trkpt>
<trkpt lat="30.6566671" lon="35.6275904">
<ele>1502.91</ele>
<time>2015-11-22T16:36:02Z</time>
</trkpt>
<trkpt lat="30.6566863" lon="35.6275411">
<ele>1504.04</ele>
<time>2015-11-22T16:36:05Z</time>
</trkpt>
<trkpt lat="30.6567152" lon="35.6274884">
<ele>1503.94</ele>
<time>2015-11-22T16:36:09Z</time>
</trkpt>
<trkpt lat="30.6567481" lon="35.6274368">
<ele>1504.12</ele>
<time>2015-11-22T16:36:13Z</time>
</trkpt>
<trkpt lat="30.6567780" lon="35.6273771">
<ele>1504.69</ele>
<time>2015-11-22T16:36:17Z</time>
</trkpt>
<trkpt lat="30.6567965" lon="35.6273287">
<ele>1505.13</ele>
<time>2015-11-22T16:36:20Z</time>
</trkpt>
<trkpt lat="30.6568152" lon="35.6272797">
<ele>1506.44</ele>
<time>2015-11-22T16:36:23Z</time>
</trkpt>
<trkpt lat="30.6568474" lon="35.6272412">
<ele>1507.23</ele>
<time>2015-11-22T16:36:26Z</time>
</trkpt>
<trkpt lat="30.6568848" lon="35.6272039">
<ele>1508.95</ele>
<time>2015-11-22T16:36:29Z</time>
</trkpt>
<trkpt lat="30.6569143" lon="35.6271622">
<ele>1507.92</ele>
<time>2015-11-22T16:36:32Z</time>
</trkpt>
<trkpt lat="30.6569502" lon="35.6271098">
<ele>1507.74</ele>
<time>2015-11-22T16:36:36Z</time>
</trkpt>
<trkpt lat="30.6569751" lon="35.6270477">
<ele>1509.04</ele>
<time>2015-11-22T16:36:40Z</time>
</trkpt>
<trkpt lat="30.6569950" lon="35.6269920">
<ele>1509.25</ele>
<time>2015-11-22T16:36:44Z</time>
</trkpt>
<trkpt lat="30.6570173" lon="35.6269307">
<ele>1509.95</ele>
<time>2015-11-22T16:36:48Z</time>
</trkpt>
<trkpt lat="30.6570480" lon="35.6268685">
<ele>1510.68</ele>
<time>2015-11-22T16:36:52Z</time>
</trkpt>
<trkpt lat="30.6570740" lon="35.6268241">
<ele>1511.51</ele>
<time>2015-11-22T16:36:55Z</time>
</trkpt>
<trkpt lat="30.6570966" lon="35.6267745">
<ele>1512.48</ele>
<time>2015-11-22T16:36:58Z</time>
</trkpt>
<trkpt lat="30.6571228" lon="35.6267213">
<ele>1515.23</ele>
<time>2015-11-22T16:37:01Z</time>
</trkpt>
<trkpt lat="30.6571517" lon="35.6266720">
<ele>1515.08</ele>
<time>2015-11-22T16:37:04Z</time>
</trkpt>
<trkpt lat="30.6571825" lon="35.6266210">
<ele>1514.31</ele>
<time>2015-11-22T16:37:07Z</time>
</trkpt>
<trkpt lat="30.6572107" lon="35.6265690">
<ele>1514.96</ele>
<time>2015-11-22T16:37:10Z</time>
</trkpt>
<trkpt lat="30.6572341" lon="35.6265222">
<ele>1515.17</ele>
<time>2015-11-22T16:37:13Z</time>
</trkpt>
<trkpt lat="30.6572630" lon="35.6264759">
<ele>1516.07</ele>
<time>2015-11-22T16:37:16Z</time>
</trkpt>
<trkpt lat="30.6572884" lon="35.6264312">
<ele>1517.05</ele>
<time>2015-11-22T16:37:19Z</time>
</trkpt>
<trkpt lat="30.6573188" lon="35.6263861">
<ele>1517.68</ele>
<time>2015-11-22T16:37:22Z</time>
</trkpt>
<trkpt lat="30.6573493" lon="35.6263373">
<ele>1518.13</ele>
<time>2015-11-22T16:37:25Z</time>
</trkpt>
<trkpt lat="30.6573781" lon="35.6262771">
<ele>1518.19</ele>
<time>2015-11-22T16:37:29Z</time>
</trkpt>
<trkpt lat="30.6574047" lon="35.6262317">
<ele>1517.82</ele>
<time>2015-11-22T16:37:32Z</time>
</trkpt>
<trkpt lat="30.6574367" lon="35.6261876">
<ele>1518.15</ele>
<time>2015-11-22T16:37:35Z</time>
</trkpt>
<trkpt lat="30.6574628" lon="35.6261433">
<ele>1503.69</ele>
<time>2015-11-22T16:37:38Z</time>
</trkpt>
<trkpt lat="30.6574889" lon="35.6260965">
<ele>1501.51</ele>
<time>2015-11-22T16:37:41Z</time>
</trkpt>
<trkpt lat="30.6575098" lon="35.6260337">
<ele>1502.47</ele>
<time>2015-11-22T16:37:45Z</time>
</trkpt>
<trkpt lat="30.6575298" lon="35.6259707">
<ele>1504.84</ele>
<time>2015-11-22T16:37:49Z</time>
</trkpt>
<trkpt lat="30.6575593" lon="35.6259256">
<ele>1505.90</ele>
<time>2015-11-22T16:37:52Z</time>
</trkpt>
<trkpt lat="30.6575908" lon="35.6258810">
<ele>1503.66</ele>
<time>2015-11-22T16:37:55Z</time>
</trkpt>
<trkpt lat="30.6576254" lon="35.6258392">
<ele>1503.00</ele>
<time>2015-11-22T16:37:58Z</time>
</trkpt>
<trkpt lat="30.6576547" lon="35.6257929">
<ele>1503.30</ele>
<time>2015-11-22T16:38:01Z</time>
</trkpt>
<trkpt lat="30.6576929" lon="35.6257479">
<ele>1503.58</ele>
<time>2015-11-22T16:38:04Z</time>
</trkpt>
<trkpt lat="30.6577255" lon="35.6257029">
<ele>1504.49</ele>
<time>2015-11-22T16:38:07Z</time>
</trkpt>
<trkpt lat="30.6577604" lon="35.6256532">
<ele>1503.28</ele>
<time>2015-11-22T16:38:11Z</time>
</trkpt>
<trkpt lat="30.6577872" lon="35.6256002">
<ele>1502.20</ele>
<time>2015-11-22T16:38:15Z</time>
</trkpt>
<trkpt lat="30.6578085" lon="35.6255438">
<ele>1501.32</ele>
<time>2015-11-22T16:38:19Z</time>
</trkpt>
<trkpt lat="30.6578393" lon="35.6254936">
<ele>1501.70</ele>
<time>2015-11-22T16:38:23Z</time>
</trkpt>
<trkpt lat="30.6578746" lon="35.6254390">
<ele>1503.60</ele>
<time>2015-11-22T16:38:27Z</time>
</trkpt>
<trkpt lat="30.6579026" lon="35.6253773">
<ele>1507.47</ele>
<time>2015-11-22T16:38:31Z</time>
</trkpt>
<trkpt lat="30.6579399" lon="35.6253249">
<ele>1504.96</ele>
<time>2015-11-22T16:38:35Z</time>
</trkpt>
<trkpt lat="30.6579643" lon="35.6252660">
<ele>1504.62</ele>
<time>2015-11-22T16:38:39Z</time>
</trkpt>
<trkpt lat="30.6579917" lon="35.6252060">
<ele>1504.03</ele>
<time>2015-11-22T16:38:43Z</time>
</trkpt>
<trkpt lat="30.6580250" lon="35.6251513">
<ele>1505.81</ele>
<time>2015-11-22T16:38:47Z</time>
</trkpt>
<trkpt lat="30.6580535" lon="35.6250988">
<ele>1505.36</ele>
<time>2015-11-22T16:38:51Z</time>
</trkpt>
<trkpt lat="30.6580778" lon="35.6250410">
<ele>1504.96</ele>
<time>2015-11-22T16:38:55Z</time>
</trkpt>
<trkpt lat="30.6581041" lon="35.6249803">
<ele>1504.74</ele>
<time>2015-11-22T16:38:59Z</time>
</trkpt>
<trkpt lat="30.6581302" lon="35.6249200">
<ele>1505.98</ele>
<time>2015-11-22T16:39:03Z</time>
</trkpt>
<trkpt lat="30.6581596" lon="35.6248659">
<ele>1507.87</ele>
<time>2015-11-22T16:39:07Z</time>
</trkpt>
<trkpt lat="30.6581884" lon="35.6248125">
<ele>1513.49</ele>
<time>2015-11-22T16:39:11Z</time>
</trkpt>
<trkpt lat="30.6582200" lon="35.6247671">
<ele>1525.78</ele>
<time>2015-11-22T16:39:15Z</time>
</trkpt>
<trkpt lat="30.6582489" lon="35.6247168">
<ele>1530.61</ele>
<time>2015-11-22T16:39:19Z</time>
</trkpt>
<trkpt lat="30.6582770" lon="35.6246704">
<ele>1531.91</ele>
<time>2015-11-22T16:39:23Z</time>
</trkpt>
<trkpt lat="30.6583075" lon="35.6246258">
<ele>1532.93</ele>
<time>2015-11-22T16:39:27Z</time>
</trkpt>
<trkpt lat="30.6583387" lon="35.6245776">
<ele>1533.68</ele>
<time>2015-11-22T16:39:31Z</time>
</trkpt>
<trkpt lat="30.6583732" lon="35.6245319">
<ele>1534.16</ele>
<time>2015-11-22T16:39:35Z</time>
</trkpt>
<trkpt lat="30.6584028" lon="35.6244838">
<ele>1534.19</ele>
<time>2015-11-22T16:39:39Z</time>
</trkpt>
<trkpt lat="30.6584331" lon="35.6244314">
<ele>1535.63</ele>
<time>2015-11-22T16:39:43Z</time>
</trkpt>
<trkpt lat="30.6584684" lon="35.6243811">
<ele>1536.91</ele>
<time>2015-11-22T16:39:47Z</time>
</trkpt>
<trkpt lat="30.6585016" lon="35.6243321">
<ele>1538.55</ele>
<time>2015-11-22T16:39:51Z</time>
</trkpt>
<trkpt lat="30.6585354" lon="35.6242818">
<ele>1539.16</ele>
<time>2015-11-22T16:39:55Z</time>
</trkpt>
<trkpt lat="30.6585705" lon="35.6242275">
<ele>1540.07</ele>
<time>2015-11-22T16:39:59Z</time>
</trkpt>
<trkpt lat="30.6586080" lon="35.6241749">
<ele>1540.19</ele>
<time>2015-11-22T16:40:03Z</time>
</trkpt>
<trkpt lat="30.6586442" lon="35.6241206">
<ele>1541.07</ele>
<time>2015-11-22T16:40:07Z</time>
</trkpt>
<trkpt lat="30.6586804" lon="35.6240656">
<ele>1542.06</ele>
<time>2015-11-22T16:40:11Z</time>
</trkpt>
<trkpt lat="30.6587139" lon="35.6240108">
<ele>1542.19</ele>
<time>2015-11-22T16:40:15Z</time>
</trkpt>
<trkpt lat="30.6587457" lon="35.6239528">
<ele>1542.20</ele>
<time>2015-11-22T16:40:19Z</time>
</trkpt>
<trkpt lat="30.6587802" lon="35.6239011">
<ele>1543.13</ele>
<time>2015-11-22T16:40:23Z</time>
</trkpt>
<trkpt lat="30.6588157" lon="35.6238554">
<ele>1542.69</ele>
<time>2015-11-22T16:40:27Z</time>
</trkpt>
<trkpt lat="30.6588492" lon="35.6238079">
<ele>1543.60</ele>
<time>2015-11-22T16:40:31Z</time>
</trkpt>
<trkpt lat="30.6588767" lon="35.6237564">
<ele>1543.97</ele>
<time>2015-11-22T16:40:35Z</time>
</trkpt>
<trkpt lat="30.6589076" lon="35.6237071">
<ele>1544.68</ele>
<time>2015-11-22T16:40:39Z</time>
</trkpt>
<trkpt lat="30.6589398" lon="35.6236525">
<ele>1544.29</ele>
<time>2015-11-22T16:40:43Z</time>
</trkpt>
<trkpt lat="30.6589740" lon="35.6236034">
<ele>1544.95</ele>
<time>2015-11-22T16:40:47Z</time>
</trkpt>
<trkpt lat="30.6590055" lon="35.6235569">
<ele>1545.68</ele>
<time>2015-11-22T16:40:51Z</time>
</trkpt>
<trkpt lat="30.6590327" lon="35.6235060">
<ele>1546.10</ele>
<time>2015-11-22T16:40:55Z</time>
</trkpt>
<trkpt lat="30.6590626" lon="35.6234554">
<ele>1546.19</ele>
<time>2015-11-22T16:40:59Z</time>
</trkpt>
<trkpt lat="30.6590958" lon="35.6234088">
<ele>1547.07</ele>
<time>2015-11-22T16:41:03Z</time>
</trkpt>
<trkpt lat="30.6591358" lon="35.6233600">
<ele>1547.19</ele>
<time>2015-11-22T16:41:07Z</time>
</trkpt>
<trkpt lat="30.6591682" lon="35.6233077">
<ele>1546.45</ele>
<time>2015-11-22T16:41:11Z</time>
</trkpt>
<trkpt lat="30.6592060" lon="35.6232601">
<ele>1546.21</ele>
<time>2015-11-22T16:41:15Z</time>
</trkpt>
<trkpt lat="30.6592270" lon="35.6232003">
<ele>1547.13</ele>
<time>2015-11-22T16:41:19Z</time>
</trkpt>
<trkpt lat="30.6592450" lon="35.6231390">
<ele>1547.69</ele>
<time>2015-11-22T16:41:23Z</time>
</trkpt>
<trkpt lat="30.6592592" lon="35.6230791">
<ele>1548.16</ele>
<time>2015-11-22T16:41:27Z</time>
</trkpt>
<trkpt lat="30.6592664" lon="35.6230230">
<ele>1548.19</ele>
<time>2015-11-22T16:41:31Z</time>
</trkpt>
<trkpt lat="30.6592616" lon="35.6229582">
<ele>1548.70</ele>
<time>2015-11-22T16:41:36Z</time>
</trkpt>
<trkpt lat="30.6592659" lon="35.6228946">
<ele>1548.38</ele>
<time>2015-11-22T16:42:19Z</time>
</trkpt>
<trkpt lat="30.6592633" lon="35.6228325">
<ele>1548.24</ele>
<time>2015-11-22T16:42:21Z</time>
</trkpt>
<trkpt lat="30.6592592" lon="35.6227536">
<ele>1548.21</ele>
<time>2015-11-22T16:42:23Z</time>
</trkpt>
<trkpt lat="30.6592590" lon="35.6226669">
<ele>1548.20</ele>
<time>2015-11-22T16:42:25Z</time>
</trkpt>
<trkpt lat="30.6592628" lon="35.6225724">
<ele>1548.20</ele>
<time>2015-11-22T16:42:27Z</time>
</trkpt>
<trkpt lat="30.6592689" lon="35.6224758">
<ele>1548.20</ele>
<time>2015-11-22T16:42:29Z</time>
</trkpt>
<trkpt lat="30.6592822" lon="35.6223766">
<ele>1548.20</ele>
<time>2015-11-22T16:42:31Z</time>
</trkpt>
<trkpt lat="30.6592971" lon="35.6222967">
<ele>1547.70</ele>
<time>2015-11-22T16:42:32Z</time>
</trkpt>
<trkpt lat="30.6593131" lon="35.6221862">
<ele>1547.32</ele>
<time>2015-11-22T16:42:34Z</time>
</trkpt>
<trkpt lat="30.6593365" lon="35.6221181">
<ele>1546.76</ele>
<time>2015-11-22T16:42:35Z</time>
</trkpt>
<trkpt lat="30.6593608" lon="35.6220462">
<ele>1546.48</ele>
<time>2015-11-22T16:42:36Z</time>
</trkpt>
<trkpt lat="30.6593877" lon="35.6219740">
<ele>1546.34</ele>
<time>2015-11-22T16:42:37Z</time>
</trkpt>
<trkpt lat="30.6594167" lon="35.6218993">
<ele>1546.27</ele>
<time>2015-11-22T16:42:38Z</time>
</trkpt>
<trkpt lat="30.6594488" lon="35.6218101">
<ele>1546.23</ele>
<time>2015-11-22T16:42:39Z</time>
</trkpt>
<trkpt lat="30.6594892" lon="35.6217223">
<ele>1545.71</ele>
<time>2015-11-22T16:42:40Z</time>
</trkpt>
<trkpt lat="30.6595322" lon="35.6216464">
<ele>1545.45</ele>
<time>2015-11-22T16:42:41Z</time>
</trkpt>
<trkpt lat="30.6595661" lon="35.6215587">
<ele>1545.33</ele>
<time>2015-11-22T16:42:42Z</time>
</trkpt>
<trkpt lat="30.6595988" lon="35.6214735">
<ele>1543.76</ele>
<time>2015-11-22T16:42:43Z</time>
</trkpt>
<trkpt lat="30.6596368" lon="35.6214015">
<ele>1543.98</ele>
<time>2015-11-22T16:42:44Z</time>
</trkpt>
<trkpt lat="30.6596716" lon="35.6213245">
<ele>1543.59</ele>
<time>2015-11-22T16:42:45Z</time>
</trkpt>
<trkpt lat="30.6597035" lon="35.6212592">
<ele>1543.89</ele>
<time>2015-11-22T16:42:46Z</time>
</trkpt>
<trkpt lat="30.6597447" lon="35.6211847">
<ele>1544.04</ele>
<time>2015-11-22T16:42:47Z</time>
</trkpt>
<trkpt lat="30.6597744" lon="35.6211153">
<ele>1544.12</ele>
<time>2015-11-22T16:42:48Z</time>
</trkpt>
<trkpt lat="30.6598056" lon="35.6210423">
<ele>1543.66</ele>
<time>2015-11-22T16:42:49Z</time>
</trkpt>
<trkpt lat="30.6598383" lon="35.6209879">
<ele>1542.93</ele>
<time>2015-11-22T16:42:50Z</time>
</trkpt>
<trkpt lat="30.6598630" lon="35.6209350">
<ele>1542.56</ele>
<time>2015-11-22T16:42:51Z</time>
</trkpt>
<trkpt lat="30.6598934" lon="35.6208705">
<ele>1541.38</ele>
<time>2015-11-22T16:42:52Z</time>
</trkpt>
<trkpt lat="30.6599249" lon="35.6208019">
<ele>1540.79</ele>
<time>2015-11-22T16:42:53Z</time>
</trkpt>
<trkpt lat="30.6599638" lon="35.6207384">
<ele>1540.49</ele>
<time>2015-11-22T16:42:54Z</time>
</trkpt>
<trkpt lat="30.6599970" lon="35.6206655">
<ele>1539.84</ele>
<time>2015-11-22T16:42:55Z</time>
</trkpt>
<trkpt lat="30.6600264" lon="35.6205918">
<ele>1539.02</ele>
<time>2015-11-22T16:42:56Z</time>
</trkpt>
<trkpt lat="30.6600462" lon="35.6205242">
<ele>1539.11</ele>
<time>2015-11-22T16:42:57Z</time>
</trkpt>
<trkpt lat="30.6600851" lon="35.6204420">
<ele>1538.65</ele>
<time>2015-11-22T16:42:58Z</time>
</trkpt>
<trkpt lat="30.6601136" lon="35.6203489">
<ele>1537.92</ele>
<time>2015-11-22T16:42:59Z</time>
</trkpt>
<trkpt lat="30.6601367" lon="35.6202645">
<ele>1537.06</ele>
<time>2015-11-22T16:43:00Z</time>
</trkpt>
<trkpt lat="30.6601709" lon="35.6201776">
<ele>1537.13</ele>
<time>2015-11-22T16:43:01Z</time>
</trkpt>
<trkpt lat="30.6601981" lon="35.6200819">
<ele>1536.16</ele>
<time>2015-11-22T16:43:02Z</time>
</trkpt>
<trkpt lat="30.6602208" lon="35.6199838">
<ele>1536.18</ele>
<time>2015-11-22T16:43:03Z</time>
</trkpt>
<trkpt lat="30.6602370" lon="35.6198948">
<ele>1535.19</ele>
<time>2015-11-22T16:43:04Z</time>
</trkpt>
<trkpt lat="30.6602434" lon="35.6198000">
<ele>1535.19</ele>
<time>2015-11-22T16:43:05Z</time>
</trkpt>
<trkpt lat="30.6602533" lon="35.6197082">
<ele>1535.19</ele>
<time>2015-11-22T16:43:06Z</time>
</trkpt>
<trkpt lat="30.6602728" lon="35.6196141">
<ele>1534.19</ele>
<time>2015-11-22T16:43:07Z</time>
</trkpt>
<trkpt lat="30.6602857" lon="35.6195220">
<ele>1533.20</ele>
<time>2015-11-22T16:43:08Z</time>
</trkpt>
<trkpt lat="30.6603030" lon="35.6194286">
<ele>1532.20</ele>
<time>2015-11-22T16:43:09Z</time>
</trkpt>
<trkpt lat="30.6603165" lon="35.6193367">
<ele>1531.20</ele>
<time>2015-11-22T16:43:10Z</time>
</trkpt>
<trkpt lat="30.6603396" lon="35.6192441">
<ele>1531.20</ele>
<time>2015-11-22T16:43:11Z</time>
</trkpt>
<trkpt lat="30.6603614" lon="35.6191546">
<ele>1530.70</ele>
<time>2015-11-22T16:43:12Z</time>
</trkpt>
<trkpt lat="30.6603812" lon="35.6190581">
<ele>1529.95</ele>
<time>2015-11-22T16:43:13Z</time>
</trkpt>
<trkpt lat="30.6604027" lon="35.6189569">
<ele>1530.57</ele>
<time>2015-11-22T16:43:14Z</time>
</trkpt>
<trkpt lat="30.6604273" lon="35.6188529">
<ele>1530.88</ele>
<time>2015-11-22T16:43:15Z</time>
</trkpt>
<trkpt lat="30.6604439" lon="35.6187565">
<ele>1531.04</ele>
<time>2015-11-22T16:43:16Z</time>
</trkpt>
<trkpt lat="30.6604736" lon="35.6186497">
<ele>1534.12</ele>
<time>2015-11-22T16:43:17Z</time>
</trkpt>
<trkpt lat="30.6604896" lon="35.6185642">
<ele>1535.66</ele>
<time>2015-11-22T16:43:18Z</time>
</trkpt>
<trkpt lat="30.6605190" lon="35.6184638">
<ele>1535.93</ele>
<time>2015-11-22T16:43:19Z</time>
</trkpt>
<trkpt lat="30.6605464" lon="35.6183716">
<ele>1535.56</ele>
<time>2015-11-22T16:43:20Z</time>
</trkpt>
<trkpt lat="30.6605801" lon="35.6182770">
<ele>1534.38</ele>
<time>2015-11-22T16:43:21Z</time>
</trkpt>
<trkpt lat="30.6606127" lon="35.6181916">
<ele>1533.29</ele>
<time>2015-11-22T16:43:22Z</time>
</trkpt>
<trkpt lat="30.6606544" lon="35.6180965">
<ele>1532.74</ele>
<time>2015-11-22T16:43:23Z</time>
</trkpt>
<trkpt lat="30.6607040" lon="35.6179930">
<ele>1532.47</ele>
<time>2015-11-22T16:43:24Z</time>
</trkpt>
<trkpt lat="30.6607470" lon="35.6178999">
<ele>1531.83</ele>
<time>2015-11-22T16:43:25Z</time>
</trkpt>
<trkpt lat="30.6607970" lon="35.6178028">
<ele>1532.01</ele>
<time>2015-11-22T16:43:26Z</time>
</trkpt>
<trkpt lat="30.6608435" lon="35.6177152">
<ele>1532.11</ele>
<time>2015-11-22T16:43:27Z</time>
</trkpt>
<trkpt lat="30.6608822" lon="35.6176304">
<ele>1531.15</ele>
<time>2015-11-22T16:43:28Z</time>
</trkpt>
<trkpt lat="30.6609295" lon="35.6175524">
<ele>1530.17</ele>
<time>2015-11-22T16:43:29Z</time>
</trkpt>
<trkpt lat="30.6609706" lon="35.6174962">
<ele>1528.18</ele>
<time>2015-11-22T16:43:30Z</time>
</trkpt>
<trkpt lat="30.6610090" lon="35.6174444">
<ele>1526.19</ele>
<time>2015-11-22T16:43:31Z</time>
</trkpt>
<trkpt lat="30.6610472" lon="35.6174036">
<ele>1524.19</ele>
<time>2015-11-22T16:43:32Z</time>
</trkpt>
<trkpt lat="30.6611002" lon="35.6173500">
<ele>1523.45</ele>
<time>2015-11-22T16:43:34Z</time>
</trkpt>
<trkpt lat="30.6611624" lon="35.6173076">
<ele>1524.01</ele>
<time>2015-11-22T16:43:36Z</time>
</trkpt>
<trkpt lat="30.6612269" lon="35.6172804">
<ele>1522.40</ele>
<time>2015-11-22T16:43:38Z</time>
</trkpt>
<trkpt lat="30.6612995" lon="35.6172616">
<ele>1519.25</ele>
<time>2015-11-22T16:43:40Z</time>
</trkpt>
<trkpt lat="30.6613463" lon="35.6172572">
<ele>1519.72</ele>
<time>2015-11-22T16:43:41Z</time>
</trkpt>
<trkpt lat="30.6613910" lon="35.6172484">
<ele>1520.96</ele>
<time>2015-11-22T16:43:42Z</time>
</trkpt>
<trkpt lat="30.6614370" lon="35.6172473">
<ele>1520.58</ele>
<time>2015-11-22T16:43:43Z</time>
</trkpt>
<trkpt lat="30.6615272" lon="35.6172636">
<ele>1519.54</ele>
<time>2015-11-22T16:43:45Z</time>
</trkpt>
<trkpt lat="30.6615787" lon="35.6172730">
<ele>1519.87</ele>
<time>2015-11-22T16:43:46Z</time>
</trkpt>
<trkpt lat="30.6616228" lon="35.6172866">
<ele>1519.53</ele>
<time>2015-11-22T16:43:47Z</time>
</trkpt>
<trkpt lat="30.6616712" lon="35.6173050">
<ele>1519.36</ele>
<time>2015-11-22T16:43:48Z</time>
</trkpt>
<trkpt lat="30.6617202" lon="35.6173256">
<ele>1519.28</ele>
<time>2015-11-22T16:43:49Z</time>
</trkpt>
<trkpt lat="30.6617643" lon="35.6173495">
<ele>1519.24</ele>
<time>2015-11-22T16:43:50Z</time>
</trkpt>
<trkpt lat="30.6618197" lon="35.6173632">
<ele>1525.22</ele>
<time>2015-11-22T16:43:51Z</time>
</trkpt>
<trkpt lat="30.6618686" lon="35.6173904">
<ele>1527.71</ele>
<time>2015-11-22T16:43:52Z</time>
</trkpt>
<trkpt lat="30.6619180" lon="35.6174090">
<ele>1526.95</ele>
<time>2015-11-22T16:43:53Z</time>
</trkpt>
<trkpt lat="30.6619658" lon="35.6174320">
<ele>1525.07</ele>
<time>2015-11-22T16:43:54Z</time>
</trkpt>
<trkpt lat="30.6620171" lon="35.6174549">
<ele>1524.63</ele>
<time>2015-11-22T16:43:55Z</time>
</trkpt>
<trkpt lat="30.6620789" lon="35.6174739">
<ele>1523.42</ele>
<time>2015-11-22T16:43:56Z</time>
</trkpt>
<trkpt lat="30.6621357" lon="35.6174910">
<ele>1522.31</ele>
<time>2015-11-22T16:43:57Z</time>
</trkpt>
<trkpt lat="30.6621952" lon="35.6175017">
<ele>1520.25</ele>
<time>2015-11-22T16:43:58Z</time>
</trkpt>
<trkpt lat="30.6622487" lon="35.6175165">
<ele>1519.22</ele>
<time>2015-11-22T16:43:59Z</time>
</trkpt>
<trkpt lat="30.6623088" lon="35.6175180">
<ele>1518.21</ele>
<time>2015-11-22T16:44:00Z</time>
</trkpt>
<trkpt lat="30.6623738" lon="35.6175165">
<ele>1518.20</ele>
<time>2015-11-22T16:44:01Z</time>
</trkpt>
<trkpt lat="30.6624298" lon="35.6175209">
<ele>1518.70</ele>
<time>2015-11-22T16:44:02Z</time>
</trkpt>
<trkpt lat="30.6625001" lon="35.6175139">
<ele>1518.95</ele>
<time>2015-11-22T16:44:03Z</time>
</trkpt>
<trkpt lat="30.6625613" lon="35.6175085">
<ele>1518.57</ele>
<time>2015-11-22T16:44:04Z</time>
</trkpt>
<trkpt lat="30.6626231" lon="35.6174958">
<ele>1517.88</ele>
<time>2015-11-22T16:44:05Z</time>
</trkpt>
<trkpt lat="30.6626949" lon="35.6174766">
<ele>1516.04</ele>
<time>2015-11-22T16:44:06Z</time>
</trkpt>
<trkpt lat="30.6627682" lon="35.6174554">
<ele>1514.62</ele>
<time>2015-11-22T16:44:07Z</time>
</trkpt>
<trkpt lat="30.6628414" lon="35.6174255">
<ele>1512.91</ele>
<time>2015-11-22T16:44:08Z</time>
</trkpt>
<trkpt lat="30.6629167" lon="35.6173977">
<ele>1512.05</ele>
<time>2015-11-22T16:44:09Z</time>
</trkpt>
<trkpt lat="30.6629837" lon="35.6173582">
<ele>1512.12</ele>
<time>2015-11-22T16:44:10Z</time>
</trkpt>
<trkpt lat="30.6630598" lon="35.6173131">
<ele>1512.66</ele>
<time>2015-11-22T16:44:11Z</time>
</trkpt>
<trkpt lat="30.6631313" lon="35.6172703">
<ele>1514.93</ele>
<time>2015-11-22T16:44:12Z</time>
</trkpt>
<trkpt lat="30.6632026" lon="35.6172100">
<ele>1520.06</ele>
<time>2015-11-22T16:44:13Z</time>
</trkpt>
<trkpt lat="30.6632692" lon="35.6171439">
<ele>1524.63</ele>
<time>2015-11-22T16:44:14Z</time>
</trkpt>
<trkpt lat="30.6633271" lon="35.6170944">
<ele>1526.41</ele>
<time>2015-11-22T16:44:15Z</time>
</trkpt>
<trkpt lat="30.6633899" lon="35.6170408">
<ele>1527.80</ele>
<time>2015-11-22T16:44:16Z</time>
</trkpt>
<trkpt lat="30.6634494" lon="35.6169909">
<ele>1528.00</ele>
<time>2015-11-22T16:44:17Z</time>
</trkpt>
<trkpt lat="30.6635051" lon="35.6169466">
<ele>1528.60</ele>
<time>2015-11-22T16:44:18Z</time>
</trkpt>
<trkpt lat="30.6635610" lon="35.6169062">
<ele>1530.90</ele>
<time>2015-11-22T16:44:19Z</time>
</trkpt>
<trkpt lat="30.6636152" lon="35.6168711">
<ele>1530.05</ele>
<time>2015-11-22T16:44:20Z</time>
</trkpt>
<trkpt lat="30.6636619" lon="35.6168549">
<ele>1529.12</ele>
<time>2015-11-22T16:44:21Z</time>
</trkpt>
<trkpt lat="30.6637136" lon="35.6168434">
<ele>1527.66</ele>
<time>2015-11-22T16:44:22Z</time>
</trkpt>
<trkpt lat="30.6638139" lon="35.6168048">
<ele>1529.56</ele>
<time>2015-11-22T16:44:24Z</time>
</trkpt>
<trkpt lat="30.6638748" lon="35.6167812">
<ele>1529.38</ele>
<time>2015-11-22T16:44:25Z</time>
</trkpt>
<trkpt lat="30.6639379" lon="35.6167599">
<ele>1527.79</ele>
<time>2015-11-22T16:44:26Z</time>
</trkpt>
<trkpt lat="30.6640030" lon="35.6167426">
<ele>1525.99</ele>
<time>2015-11-22T16:44:27Z</time>
</trkpt>
<trkpt lat="30.6640657" lon="35.6167076">
<ele>1515.59</ele>
<time>2015-11-22T16:44:28Z</time>
</trkpt>
<trkpt lat="30.6641271" lon="35.6166798">
<ele>1503.39</ele>
<time>2015-11-22T16:44:29Z</time>
</trkpt>
<trkpt lat="30.6641875" lon="35.6166496">
<ele>1492.80</ele>
<time>2015-11-22T16:44:30Z</time>
</trkpt>
<trkpt lat="30.6642485" lon="35.6166267">
<ele>1485.50</ele>
<time>2015-11-22T16:44:31Z</time>
</trkpt>
<trkpt lat="30.6643211" lon="35.6166084">
<ele>1478.85</ele>
<time>2015-11-22T16:44:32Z</time>
</trkpt>
<trkpt lat="30.6643707" lon="35.6165934">
<ele>1473.02</ele>
<time>2015-11-22T16:44:33Z</time>
</trkpt>
<trkpt lat="30.6644187" lon="35.6165819">
<ele>1468.61</ele>
<time>2015-11-22T16:44:34Z</time>
</trkpt>
<trkpt lat="30.6644775" lon="35.6165680">
<ele>1465.40</ele>
<time>2015-11-22T16:44:35Z</time>
</trkpt>
<trkpt lat="30.6645290" lon="35.6165561">
<ele>1463.30</ele>
<time>2015-11-22T16:44:36Z</time>
</trkpt>
<trkpt lat="30.6645798" lon="35.6165479">
<ele>1461.75</ele>
<time>2015-11-22T16:44:37Z</time>
</trkpt>
<trkpt lat="30.6646311" lon="35.6165459">
<ele>1460.47</ele>
<time>2015-11-22T16:44:38Z</time>
</trkpt>
<trkpt lat="30.6646878" lon="35.6165439">
<ele>1458.83</ele>
<time>2015-11-22T16:44:39Z</time>
</trkpt>
<trkpt lat="30.6647386" lon="35.6165500">
<ele>1458.01</ele>
<time>2015-11-22T16:44:40Z</time>
</trkpt>
<trkpt lat="30.6647921" lon="35.6165549">
<ele>1456.61</ele>
<time>2015-11-22T16:44:41Z</time>
</trkpt>
<trkpt lat="30.6648432" lon="35.6165619">
<ele>1455.40</ele>
<time>2015-11-22T16:44:42Z</time>
</trkpt>
<trkpt lat="30.6648920" lon="35.6165686">
<ele>1454.30</ele>
<time>2015-11-22T16:44:43Z</time>
</trkpt>
<trkpt lat="30.6649440" lon="35.6165751">
<ele>1453.25</ele>
<time>2015-11-22T16:44:44Z</time>
</trkpt>
<trkpt lat="30.6649925" lon="35.6165776">
<ele>1452.22</ele>
<time>2015-11-22T16:44:45Z</time>
</trkpt>
<trkpt lat="30.6650404" lon="35.6165890">
<ele>1451.21</ele>
<time>2015-11-22T16:44:46Z</time>
</trkpt>
<trkpt lat="30.6650907" lon="35.6165911">
<ele>1450.20</ele>
<time>2015-11-22T16:44:47Z</time>
</trkpt>
<trkpt lat="30.6651396" lon="35.6165924">
<ele>1449.20</ele>
<time>2015-11-22T16:44:48Z</time>
</trkpt>
<trkpt lat="30.6652280" lon="35.6165823">
<ele>1447.20</ele>
<time>2015-11-22T16:44:50Z</time>
</trkpt>
<trkpt lat="30.6652766" lon="35.6165765">
<ele>1446.20</ele>
<time>2015-11-22T16:44:51Z</time>
</trkpt>
<trkpt lat="30.6653260" lon="35.6165661">
<ele>1445.20</ele>
<time>2015-11-22T16:44:52Z</time>
</trkpt>
<trkpt lat="30.6653744" lon="35.6165538">
<ele>1444.20</ele>
<time>2015-11-22T16:44:53Z</time>
</trkpt>
<trkpt lat="30.6654220" lon="35.6165378">
<ele>1443.70</ele>
<time>2015-11-22T16:44:54Z</time>
</trkpt>
<trkpt lat="30.6654665" lon="35.6165217">
<ele>1442.45</ele>
<time>2015-11-22T16:44:55Z</time>
</trkpt>
<trkpt lat="30.6655177" lon="35.6164914">
<ele>1441.32</ele>
<time>2015-11-22T16:44:56Z</time>
</trkpt>
<trkpt lat="30.6655679" lon="35.6164638">
<ele>1440.26</ele>
<time>2015-11-22T16:44:57Z</time>
</trkpt>
<trkpt lat="30.6656225" lon="35.6164272">
<ele>1439.23</ele>
<time>2015-11-22T16:44:58Z</time>
</trkpt>
<trkpt lat="30.6656742" lon="35.6163831">
<ele>1438.21</ele>
<time>2015-11-22T16:44:59Z</time>
</trkpt>
<trkpt lat="30.6657240" lon="35.6163378">
<ele>1437.20</ele>
<time>2015-11-22T16:45:00Z</time>
</trkpt>
<trkpt lat="30.6657727" lon="35.6162926">
<ele>1435.70</ele>
<time>2015-11-22T16:45:01Z</time>
</trkpt>
<trkpt lat="30.6658223" lon="35.6162382">
<ele>1434.45</ele>
<time>2015-11-22T16:45:02Z</time>
</trkpt>
<trkpt lat="30.6658688" lon="35.6161872">
<ele>1432.82</ele>
<time>2015-11-22T16:45:03Z</time>
</trkpt>
<trkpt lat="30.6659152" lon="35.6161264">
<ele>1431.51</ele>
<time>2015-11-22T16:45:04Z</time>
</trkpt>
<trkpt lat="30.6659648" lon="35.6160624">
<ele>1429.85</ele>
<time>2015-11-22T16:45:05Z</time>
</trkpt>
<trkpt lat="30.6660120" lon="35.6159961">
<ele>1428.52</ele>
<time>2015-11-22T16:45:06Z</time>
</trkpt>
<trkpt lat="30.6660567" lon="35.6159372">
<ele>1427.86</ele>
<time>2015-11-22T16:45:07Z</time>
</trkpt>
<trkpt lat="30.6661018" lon="35.6158737">
<ele>1426.53</ele>
<time>2015-11-22T16:45:08Z</time>
</trkpt>
<trkpt lat="30.6661473" lon="35.6158125">
<ele>1425.36</ele>
<time>2015-11-22T16:45:09Z</time>
</trkpt>
<trkpt lat="30.6661938" lon="35.6157465">
<ele>1424.28</ele>
<time>2015-11-22T16:45:10Z</time>
</trkpt>
<trkpt lat="30.6662465" lon="35.6156781">
<ele>1422.74</ele>
<time>2015-11-22T16:45:11Z</time>
</trkpt>
<trkpt lat="30.6662964" lon="35.6156036">
<ele>1421.47</ele>
<time>2015-11-22T16:45:12Z</time>
</trkpt>
<trkpt lat="30.6663485" lon="35.6155274">
<ele>1420.33</ele>
<time>2015-11-22T16:45:13Z</time>
</trkpt>
<trkpt lat="30.6663982" lon="35.6154568">
<ele>1418.76</ele>
<time>2015-11-22T16:45:14Z</time>
</trkpt>
<trkpt lat="30.6664487" lon="35.6153775">
<ele>1417.48</ele>
<time>2015-11-22T16:45:15Z</time>
</trkpt>
<trkpt lat="30.6664982" lon="35.6152934">
<ele>1416.34</ele>
<time>2015-11-22T16:45:16Z</time>
</trkpt>
<trkpt lat="30.6665438" lon="35.6152089">
<ele>1415.27</ele>
<time>2015-11-22T16:45:17Z</time>
</trkpt>
<trkpt lat="30.6665835" lon="35.6151259">
<ele>1414.73</ele>
<time>2015-11-22T16:45:18Z</time>
</trkpt>
<trkpt lat="30.6666178" lon="35.6150403">
<ele>1414.46</ele>
<time>2015-11-22T16:45:19Z</time>
</trkpt>
<trkpt lat="30.6666569" lon="35.6149609">
<ele>1413.83</ele>
<time>2015-11-22T16:45:20Z</time>
</trkpt>
<trkpt lat="30.6666964" lon="35.6148845">
<ele>1413.01</ele>
<time>2015-11-22T16:45:21Z</time>
</trkpt>
<trkpt lat="30.6667373" lon="35.6148122">
<ele>1412.60</ele>
<time>2015-11-22T16:45:22Z</time>
</trkpt>
<trkpt lat="30.6667789" lon="35.6147440">
<ele>1411.90</ele>
<time>2015-11-22T16:45:23Z</time>
</trkpt>
<trkpt lat="30.6668202" lon="35.6146777">
<ele>1411.05</ele>
<time>2015-11-22T16:45:24Z</time>
</trkpt>
<trkpt lat="30.6668661" lon="35.6146162">
<ele>1410.12</ele>
<time>2015-11-22T16:45:25Z</time>
</trkpt>
<trkpt lat="30.6669145" lon="35.6145581">
<ele>1409.16</ele>
<time>2015-11-22T16:45:26Z</time>
</trkpt>
<trkpt lat="30.6669665" lon="35.6145078">
<ele>1408.68</ele>
<time>2015-11-22T16:45:27Z</time>
</trkpt>
<trkpt lat="30.6670173" lon="35.6144612">
<ele>1408.44</ele>
<time>2015-11-22T16:45:28Z</time>
</trkpt>
<trkpt lat="30.6670657" lon="35.6144195">
<ele>1407.82</ele>
<time>2015-11-22T16:45:29Z</time>
</trkpt>
<trkpt lat="30.6671135" lon="35.6143853">
<ele>1407.51</ele>
<time>2015-11-22T16:45:30Z</time>
</trkpt>
<trkpt lat="30.6671617" lon="35.6143592">
<ele>1406.85</ele>
<time>2015-11-22T16:45:31Z</time>
</trkpt>
<trkpt lat="30.6672116" lon="35.6143345">
<ele>1406.02</ele>
<time>2015-11-22T16:45:32Z</time>
</trkpt>
<trkpt lat="30.6672664" lon="35.6143099">
<ele>1405.11</ele>
<time>2015-11-22T16:45:33Z</time>
</trkpt>
<trkpt lat="30.6673202" lon="35.6142913">
<ele>1404.15</ele>
<time>2015-11-22T16:45:34Z</time>
</trkpt>
<trkpt lat="30.6673706" lon="35.6142736">
<ele>1403.17</ele>
<time>2015-11-22T16:45:35Z</time>
</trkpt>
<trkpt lat="30.6674254" lon="35.6142566">
<ele>1401.69</ele>
<time>2015-11-22T16:45:36Z</time>
</trkpt>
<trkpt lat="30.6674808" lon="35.6142315">
<ele>1400.44</ele>
<time>2015-11-22T16:45:37Z</time>
</trkpt>
<trkpt lat="30.6675406" lon="35.6142028">
<ele>1399.32</ele>
<time>2015-11-22T16:45:38Z</time>
</trkpt>
<trkpt lat="30.6676006" lon="35.6141734">
<ele>1398.26</ele>
<time>2015-11-22T16:45:39Z</time>
</trkpt>
<trkpt lat="30.6676606" lon="35.6141440">
<ele>1396.73</ele>
<time>2015-11-22T16:45:40Z</time>
</trkpt>
<trkpt lat="30.6677228" lon="35.6141156">
<ele>1394.96</ele>
<time>2015-11-22T16:45:41Z</time>
</trkpt>
<trkpt lat="30.6677807" lon="35.6140822">
<ele>1393.08</ele>
<time>2015-11-22T16:45:42Z</time>
</trkpt>
<trkpt lat="30.6678418" lon="35.6140468">
<ele>1391.14</ele>
<time>2015-11-22T16:45:43Z</time>
</trkpt>
<trkpt lat="30.6679103" lon="35.6140098">
<ele>1389.67</ele>
<time>2015-11-22T16:45:44Z</time>
</trkpt>
<trkpt lat="30.6679779" lon="35.6139692">
<ele>1388.43</ele>
<time>2015-11-22T16:45:45Z</time>
</trkpt>
<trkpt lat="30.6680549" lon="35.6139275">
<ele>1386.81</ele>
<time>2015-11-22T16:45:46Z</time>
</trkpt>
<trkpt lat="30.6681236" lon="35.6138854">
<ele>1385.00</ele>
<time>2015-11-22T16:45:47Z</time>
</trkpt>
<trkpt lat="30.6681972" lon="35.6138386">
<ele>1383.60</ele>
<time>2015-11-22T16:45:48Z</time>
</trkpt>
<trkpt lat="30.6682727" lon="35.6137956">
<ele>1381.90</ele>
<time>2015-11-22T16:45:49Z</time>
</trkpt>
<trkpt lat="30.6683435" lon="35.6137452">
<ele>1380.55</ele>
<time>2015-11-22T16:45:50Z</time>
</trkpt>
<trkpt lat="30.6684098" lon="35.6136846">
<ele>1378.87</ele>
<time>2015-11-22T16:45:51Z</time>
</trkpt>
<trkpt lat="30.6684742" lon="35.6136161">
<ele>1377.03</ele>
<time>2015-11-22T16:45:52Z</time>
</trkpt>
<trkpt lat="30.6685385" lon="35.6135416">
<ele>1375.11</ele>
<time>2015-11-22T16:45:53Z</time>
</trkpt>
<trkpt lat="30.6686052" lon="35.6134602">
<ele>1373.16</ele>
<time>2015-11-22T16:45:54Z</time>
</trkpt>
<trkpt lat="30.6686725" lon="35.6133757">
<ele>1370.68</ele>
<time>2015-11-22T16:45:55Z</time>
</trkpt>
<trkpt lat="30.6687404" lon="35.6132900">
<ele>1368.94</ele>
<time>2015-11-22T16:45:56Z</time>
</trkpt>
<trkpt lat="30.6688124" lon="35.6132095">
<ele>1367.07</ele>
<time>2015-11-22T16:45:57Z</time>
</trkpt>
<trkpt lat="30.6688905" lon="35.6131295">
<ele>1365.13</ele>
<time>2015-11-22T16:45:58Z</time>
</trkpt>
<trkpt lat="30.6689672" lon="35.6130453">
<ele>1363.16</ele>
<time>2015-11-22T16:45:59Z</time>
</trkpt>
<trkpt lat="30.6690493" lon="35.6129662">
<ele>1360.68</ele>
<time>2015-11-22T16:46:00Z</time>
</trkpt>
<trkpt lat="30.6691346" lon="35.6128849">
<ele>1358.94</ele>
<time>2015-11-22T16:46:01Z</time>
</trkpt>
<trkpt lat="30.6692213" lon="35.6127988">
<ele>1357.57</ele>
<time>2015-11-22T16:46:02Z</time>
</trkpt>
<trkpt lat="30.6693096" lon="35.6127135">
<ele>1356.38</ele>
<time>2015-11-22T16:46:03Z</time>
</trkpt>
<trkpt lat="30.6693883" lon="35.6126272">
<ele>1355.79</ele>
<time>2015-11-22T16:46:04Z</time>
</trkpt>
<trkpt lat="30.6694545" lon="35.6125456">
<ele>1354.99</ele>
<time>2015-11-22T16:46:05Z</time>
</trkpt>
<trkpt lat="30.6695251" lon="35.6124642">
<ele>1354.59</ele>
<time>2015-11-22T16:46:06Z</time>
</trkpt>
<trkpt lat="30.6695935" lon="35.6123860">
<ele>1353.90</ele>
<time>2015-11-22T16:46:07Z</time>
</trkpt>
<trkpt lat="30.6696665" lon="35.6122974">
<ele>1353.55</ele>
<time>2015-11-22T16:46:08Z</time>
</trkpt>
<trkpt lat="30.6697364" lon="35.6122164">
<ele>1352.87</ele>
<time>2015-11-22T16:46:09Z</time>
</trkpt>
<trkpt lat="30.6697923" lon="35.6121458">
<ele>1352.03</ele>
<time>2015-11-22T16:46:10Z</time>
</trkpt>
<trkpt lat="30.6698492" lon="35.6120797">
<ele>1351.61</ele>
<time>2015-11-22T16:46:11Z</time>
</trkpt>
<trkpt lat="30.6699086" lon="35.6120120">
<ele>1350.91</ele>
<time>2015-11-22T16:46:12Z</time>
</trkpt>
<trkpt lat="30.6699668" lon="35.6119437">
<ele>1350.55</ele>
<time>2015-11-22T16:46:13Z</time>
</trkpt>
<trkpt lat="30.6700259" lon="35.6118872">
<ele>1350.37</ele>
<time>2015-11-22T16:46:14Z</time>
</trkpt>
<trkpt lat="30.6700845" lon="35.6118403">
<ele>1350.28</ele>
<time>2015-11-22T16:46:15Z</time>
</trkpt>
<trkpt lat="30.6701452" lon="35.6117918">
<ele>1349.74</ele>
<time>2015-11-22T16:46:16Z</time>
</trkpt>
<trkpt lat="30.6702003" lon="35.6117489">
<ele>1349.47</ele>
<time>2015-11-22T16:46:17Z</time>
</trkpt>
<trkpt lat="30.6702543" lon="35.6117009">
<ele>1349.33</ele>
<time>2015-11-22T16:46:18Z</time>
</trkpt>
<trkpt lat="30.6703084" lon="35.6116434">
<ele>1349.26</ele>
<time>2015-11-22T16:46:19Z</time>
</trkpt>
<trkpt lat="30.6703669" lon="35.6115884">
<ele>1348.73</ele>
<time>2015-11-22T16:46:20Z</time>
</trkpt>
<trkpt lat="30.6704207" lon="35.6115272">
<ele>1348.46</ele>
<time>2015-11-22T16:46:21Z</time>
</trkpt>
<trkpt lat="30.6704740" lon="35.6114653">
<ele>1347.33</ele>
<time>2015-11-22T16:46:22Z</time>
</trkpt>
<trkpt lat="30.6705221" lon="35.6114053">
<ele>1346.26</ele>
<time>2015-11-22T16:46:23Z</time>
</trkpt>
<trkpt lat="30.6705752" lon="35.6113361">
<ele>1345.23</ele>
<time>2015-11-22T16:46:24Z</time>
</trkpt>
<trkpt lat="30.6706310" lon="35.6112627">
<ele>1343.71</ele>
<time>2015-11-22T16:46:25Z</time>
</trkpt>
<trkpt lat="30.6706763" lon="35.6111869">
<ele>1342.45</ele>
<time>2015-11-22T16:46:26Z</time>
</trkpt>
<trkpt lat="30.6707123" lon="35.6111045">
<ele>1341.33</ele>
<time>2015-11-22T16:46:27Z</time>
</trkpt>
<trkpt lat="30.6707418" lon="35.6110284">
<ele>1340.76</ele>
<time>2015-11-22T16:46:28Z</time>
</trkpt>
<trkpt lat="30.6707781" lon="35.6109449">
<ele>1339.98</ele>
<time>2015-11-22T16:46:29Z</time>
</trkpt>
<trkpt lat="30.6708103" lon="35.6108712">
<ele>1339.59</ele>
<time>2015-11-22T16:46:30Z</time>
</trkpt>
<trkpt lat="30.6708470" lon="35.6107950">
<ele>1339.39</ele>
<time>2015-11-22T16:46:31Z</time>
</trkpt>
<trkpt lat="30.6708758" lon="35.6107354">
<ele>1338.29</ele>
<time>2015-11-22T16:46:32Z</time>
</trkpt>
<trkpt lat="30.6709096" lon="35.6106707">
<ele>1337.74</ele>
<time>2015-11-22T16:46:33Z</time>
</trkpt>
<trkpt lat="30.6709484" lon="35.6106257">
<ele>1336.97</ele>
<time>2015-11-22T16:46:34Z</time>
</trkpt>
<trkpt lat="30.6709938" lon="35.6105876">
<ele>1336.08</ele>
<time>2015-11-22T16:46:35Z</time>
</trkpt>
<trkpt lat="30.6710326" lon="35.6105488">
<ele>1335.14</ele>
<time>2015-11-22T16:46:36Z</time>
</trkpt>
<trkpt lat="30.6710989" lon="35.6104825">
<ele>1333.93</ele>
<time>2015-11-22T16:46:38Z</time>
</trkpt>
<trkpt lat="30.6711411" lon="35.6104532">
<ele>1333.56</ele>
<time>2015-11-22T16:46:39Z</time>
</trkpt>
<trkpt lat="30.6712086" lon="35.6104131">
<ele>1332.54</ele>
<time>2015-11-22T16:46:41Z</time>
</trkpt>
<trkpt lat="30.6712656" lon="35.6104015">
<ele>1331.74</ele>
<time>2015-11-22T16:46:44Z</time>
</trkpt>
<trkpt lat="30.6713128" lon="35.6103896">
<ele>1330.83</ele>
<time>2015-11-22T16:46:46Z</time>
</trkpt>
<trkpt lat="30.6713647" lon="35.6103663">
<ele>1329.85</ele>
<time>2015-11-22T16:46:48Z</time>
</trkpt>
<trkpt lat="30.6714325" lon="35.6103382">
<ele>1329.11</ele>
<time>2015-11-22T16:46:50Z</time>
</trkpt>
<trkpt lat="30.6715156" lon="35.6103104">
<ele>1327.17</ele>
<time>2015-11-22T16:46:52Z</time>
</trkpt>
<trkpt lat="30.6715961" lon="35.6102870">
<ele>1336.19</ele>
<time>2015-11-22T16:46:54Z</time>
</trkpt>
<trkpt lat="30.6716660" lon="35.6102729">
<ele>1337.94</ele>
<time>2015-11-22T16:46:56Z</time>
</trkpt>
<trkpt lat="30.6717277" lon="35.6102659">
<ele>1337.38</ele>
<time>2015-11-22T16:46:58Z</time>
</trkpt>
<trkpt lat="30.6717871" lon="35.6102621">
<ele>1339.74</ele>
<time>2015-11-22T16:47:00Z</time>
</trkpt>
<trkpt lat="30.6718522" lon="35.6102795">
<ele>1342.08</ele>
<time>2015-11-22T16:47:02Z</time>
</trkpt>
<trkpt lat="30.6719221" lon="35.6103185">
<ele>1343.17</ele>
<time>2015-11-22T16:47:04Z</time>
</trkpt>
<trkpt lat="30.6719835" lon="35.6103692">
<ele>1343.19</ele>
<time>2015-11-22T16:47:06Z</time>
</trkpt>
<trkpt lat="30.6720375" lon="35.6104354">
<ele>1342.94</ele>
<time>2015-11-22T16:47:08Z</time>
</trkpt>
<trkpt lat="30.6720794" lon="35.6105110">
<ele>1344.38</ele>
<time>2015-11-22T16:47:10Z</time>
</trkpt>
<trkpt lat="30.6721143" lon="35.6105824">
<ele>1343.24</ele>
<time>2015-11-22T16:47:12Z</time>
</trkpt>
<trkpt lat="30.6721449" lon="35.6106447">
<ele>1342.96</ele>
<time>2015-11-22T16:47:14Z</time>
</trkpt>
<trkpt lat="30.6721642" lon="35.6106999">
<ele>1342.89</ele>
<time>2015-11-22T16:47:16Z</time>
</trkpt>
<trkpt lat="30.6721873" lon="35.6107534">
<ele>1341.62</ele>
<time>2015-11-22T16:47:49Z</time>
</trkpt>
<trkpt lat="30.6722138" lon="35.6108220">
<ele>1340.62</ele>
<time>2015-11-22T16:47:52Z</time>
</trkpt>
<trkpt lat="30.6722338" lon="35.6108873">
<ele>1339.30</ele>
<time>2015-11-22T16:47:54Z</time>
</trkpt>
<trkpt lat="30.6722496" lon="35.6109633">
<ele>1339.97</ele>
<time>2015-11-22T16:47:56Z</time>
</trkpt>
<trkpt lat="30.6722704" lon="35.6110425">
<ele>1338.14</ele>
<time>2015-11-22T16:47:58Z</time>
</trkpt>
<trkpt lat="30.6723019" lon="35.6111114">
<ele>1336.68</ele>
<time>2015-11-22T16:48:00Z</time>
</trkpt>
<trkpt lat="30.6723198" lon="35.6111848">
<ele>1334.32</ele>
<time>2015-11-22T16:48:02Z</time>
</trkpt>
<trkpt lat="30.6723244" lon="35.6112656">
<ele>1334.73</ele>
<time>2015-11-22T16:48:04Z</time>
</trkpt>
<trkpt lat="30.6723421" lon="35.6113920">
<ele>1340.08</ele>
<time>2015-11-22T16:48:06Z</time>
</trkpt>
<trkpt lat="30.6723603" lon="35.6114444">
<ele>1342.64</ele>
<time>2015-11-22T16:48:07Z</time>
</trkpt>
<trkpt lat="30.6723701" lon="35.6115079">
<ele>1344.92</ele>
<time>2015-11-22T16:48:08Z</time>
</trkpt>
<trkpt lat="30.6723698" lon="35.6115650">
<ele>1346.06</ele>
<time>2015-11-22T16:48:09Z</time>
</trkpt>
<trkpt lat="30.6723879" lon="35.6116198">
<ele>1346.63</ele>
<time>2015-11-22T16:48:10Z</time>
</trkpt>
<trkpt lat="30.6723869" lon="35.6116889">
<ele>1346.91</ele>
<time>2015-11-22T16:48:11Z</time>
</trkpt>
<trkpt lat="30.6723887" lon="35.6117452">
<ele>1347.05</ele>
<time>2015-11-22T16:48:12Z</time>
</trkpt>
<trkpt lat="30.6723888" lon="35.6118081">
<ele>1346.62</ele>
<time>2015-11-22T16:48:13Z</time>
</trkpt>
<trkpt lat="30.6724371" lon="35.6118732">
<ele>1346.05</ele>
<time>2015-11-22T16:48:15Z</time>
</trkpt>
<trkpt lat="30.6725010" lon="35.6119477">
<ele>1344.91</ele>
<time>2015-11-22T16:48:17Z</time>
</trkpt>
<trkpt lat="30.6725360" lon="35.6119853">
<ele>1344.55</ele>
<time>2015-11-22T16:48:18Z</time>
</trkpt>
<trkpt lat="30.6725792" lon="35.6120204">
<ele>1344.37</ele>
<time>2015-11-22T16:48:19Z</time>
</trkpt>
<trkpt lat="30.6726209" lon="35.6120604">
<ele>1344.29</ele>
<time>2015-11-22T16:48:20Z</time>
</trkpt>
<trkpt lat="30.6726558" lon="35.6120977">
<ele>1344.24</ele>
<time>2015-11-22T16:48:21Z</time>
</trkpt>
<trkpt lat="30.6726912" lon="35.6121375">
<ele>1344.22</ele>
<time>2015-11-22T16:48:22Z</time>
</trkpt>
<trkpt lat="30.6727272" lon="35.6121806">
<ele>1343.71</ele>
<time>2015-11-22T16:48:23Z</time>
</trkpt>
<trkpt lat="30.6727656" lon="35.6122214">
<ele>1342.95</ele>
<time>2015-11-22T16:48:24Z</time>
</trkpt>
<trkpt lat="30.6728153" lon="35.6122548">
<ele>1341.57</ele>
<time>2015-11-22T16:48:25Z</time>
</trkpt>
<trkpt lat="30.6728692" lon="35.6122884">
<ele>1341.88</ele>
<time>2015-11-22T16:48:26Z</time>
</trkpt>
<trkpt lat="30.6729167" lon="35.6123286">
<ele>1342.04</ele>
<time>2015-11-22T16:48:27Z</time>
</trkpt>
<trkpt lat="30.6729686" lon="35.6123712">
<ele>1341.62</ele>
<time>2015-11-22T16:48:28Z</time>
</trkpt>
<trkpt lat="30.6730249" lon="35.6124062">
<ele>1340.41</ele>
<time>2015-11-22T16:48:29Z</time>
</trkpt>
<trkpt lat="30.6730890" lon="35.6124436">
<ele>1339.30</ele>
<time>2015-11-22T16:48:30Z</time>
</trkpt>
<trkpt lat="30.6731439" lon="35.6124854">
<ele>1337.75</ele>
<time>2015-11-22T16:48:31Z</time>
</trkpt>
<trkpt lat="30.6732037" lon="35.6125218">
<ele>1336.47</ele>
<time>2015-11-22T16:48:32Z</time>
</trkpt>
<trkpt lat="30.6732554" lon="35.6125695">
<ele>1335.83</ele>
<time>2015-11-22T16:48:33Z</time>
</trkpt>
<trkpt lat="30.6733184" lon="35.6126098">
<ele>1335.02</ele>
<time>2015-11-22T16:48:34Z</time>
</trkpt>
<trkpt lat="30.6733682" lon="35.6126429">
<ele>1334.61</ele>
<time>2015-11-22T16:48:35Z</time>
</trkpt>
<trkpt lat="30.6734218" lon="35.6126861">
<ele>1334.40</ele>
<time>2015-11-22T16:48:36Z</time>
</trkpt>
<trkpt lat="30.6734749" lon="35.6127191">
<ele>1333.80</ele>
<time>2015-11-22T16:48:37Z</time>
</trkpt>
<trkpt lat="30.6735302" lon="35.6127436">
<ele>1331.00</ele>
<time>2015-11-22T16:48:38Z</time>
</trkpt>
<trkpt lat="30.6735925" lon="35.6127586">
<ele>1330.60</ele>
<time>2015-11-22T16:48:39Z</time>
</trkpt>
<trkpt lat="30.6736624" lon="35.6127702">
<ele>1330.40</ele>
<time>2015-11-22T16:48:40Z</time>
</trkpt>
<trkpt lat="30.6737198" lon="35.6127834">
<ele>1323.80</ele>
<time>2015-11-22T16:48:41Z</time>
</trkpt>
<trkpt lat="30.6737864" lon="35.6127967">
<ele>1320.00</ele>
<time>2015-11-22T16:48:42Z</time>
</trkpt>
<trkpt lat="30.6738470" lon="35.6128151">
<ele>1312.60</ele>
<time>2015-11-22T16:48:43Z</time>
</trkpt>
<trkpt lat="30.6739247" lon="35.6128210">
<ele>1306.90</ele>
<time>2015-11-22T16:48:44Z</time>
</trkpt>
<trkpt lat="30.6739895" lon="35.6128206">
<ele>1303.05</ele>
<time>2015-11-22T16:48:45Z</time>
</trkpt>
<trkpt lat="30.6740632" lon="35.6128280">
<ele>1301.12</ele>
<time>2015-11-22T16:48:46Z</time>
</trkpt>
<trkpt lat="30.6741323" lon="35.6128289">
<ele>1298.66</ele>
<time>2015-11-22T16:48:47Z</time>
</trkpt>
<trkpt lat="30.6742139" lon="35.6128311">
<ele>1296.93</ele>
<time>2015-11-22T16:48:48Z</time>
</trkpt>
<trkpt lat="30.6742918" lon="35.6128264">
<ele>1295.06</ele>
<time>2015-11-22T16:48:49Z</time>
</trkpt>
<trkpt lat="30.6743491" lon="35.6128340">
<ele>1294.63</ele>
<time>2015-11-22T16:48:50Z</time>
</trkpt>
<trkpt lat="30.6743992" lon="35.6128457">
<ele>1293.91</ele>
<time>2015-11-22T16:48:51Z</time>
</trkpt>
<trkpt lat="30.6744526" lon="35.6128591">
<ele>1293.05</ele>
<time>2015-11-22T16:48:52Z</time>
</trkpt>
<trkpt lat="30.6745287" lon="35.6128702">
<ele>1291.16</ele>
<time>2015-11-22T16:48:54Z</time>
</trkpt>
<trkpt lat="30.6745946" lon="35.6128710">
<ele>1289.69</ele>
<time>2015-11-22T16:48:56Z</time>
</trkpt>
<trkpt lat="30.6746579" lon="35.6128588">
<ele>1287.57</ele>
<time>2015-11-22T16:48:58Z</time>
</trkpt>
<trkpt lat="30.6747051" lon="35.6128131">
<ele>1285.54</ele>
<time>2015-11-22T16:49:00Z</time>
</trkpt>
<trkpt lat="30.6746784" lon="35.6127643">
<ele>1284.03</ele>
<time>2015-11-22T16:49:02Z</time>
</trkpt>
<trkpt lat="30.6746320" lon="35.6127270">
<ele>1283.40</ele>
<time>2015-11-22T16:49:04Z</time>
</trkpt>
<trkpt lat="30.6745867" lon="35.6127082">
<ele>1282.30</ele>
<time>2015-11-22T16:49:05Z</time>
</trkpt>
<trkpt lat="30.6745134" lon="35.6126757">
<ele>1281.25</ele>
<time>2015-11-22T16:49:06Z</time>
</trkpt>
<trkpt lat="30.6744452" lon="35.6126407">
<ele>1281.22</ele>
<time>2015-11-22T16:49:07Z</time>
</trkpt>
<trkpt lat="30.6743871" lon="35.6125971">
<ele>1280.21</ele>
<time>2015-11-22T16:49:08Z</time>
</trkpt>
<trkpt lat="30.6743266" lon="35.6125539">
<ele>1279.70</ele>
<time>2015-11-22T16:49:09Z</time>
</trkpt>
<trkpt lat="30.6742639" lon="35.6125119">
<ele>1278.95</ele>
<time>2015-11-22T16:49:10Z</time>
</trkpt>
<trkpt lat="30.6742041" lon="35.6124818">
<ele>1278.57</ele>
<time>2015-11-22T16:49:11Z</time>
</trkpt>
<trkpt lat="30.6741610" lon="35.6124464">
<ele>1277.88</ele>
<time>2015-11-22T16:49:12Z</time>
</trkpt>
<trkpt lat="30.6740903" lon="35.6123752">
<ele>1277.37</ele>
<time>2015-11-22T16:49:14Z</time>
</trkpt>
<trkpt lat="30.6740662" lon="35.6123201">
<ele>1276.28</ele>
<time>2015-11-22T16:49:15Z</time>
</trkpt>
<trkpt lat="30.6740540" lon="35.6122545">
<ele>1275.74</ele>
<time>2015-11-22T16:49:16Z</time>
</trkpt>
<trkpt lat="30.6740439" lon="35.6121891">
<ele>1275.47</ele>
<time>2015-11-22T16:49:17Z</time>
</trkpt>
<trkpt lat="30.6740337" lon="35.6121226">
<ele>1274.83</ele>
<time>2015-11-22T16:49:18Z</time>
</trkpt>
<trkpt lat="30.6740174" lon="35.6120647">
<ele>1274.01</ele>
<time>2015-11-22T16:49:19Z</time>
</trkpt>
<trkpt lat="30.6739961" lon="35.6120001">
<ele>1273.60</ele>
<time>2015-11-22T16:49:20Z</time>
</trkpt>
<trkpt lat="30.6739756" lon="35.6119459">
<ele>1272.90</ele>
<time>2015-11-22T16:49:21Z</time>
</trkpt>
<trkpt lat="30.6739472" lon="35.6118905">
<ele>1273.05</ele>
<time>2015-11-22T16:49:22Z</time>
</trkpt>
<trkpt lat="30.6739106" lon="35.6118410">
<ele>1273.12</ele>
<time>2015-11-22T16:49:23Z</time>
</trkpt>
<trkpt lat="30.6738916" lon="35.6117898">
<ele>1273.16</ele>
<time>2015-11-22T16:49:24Z</time>
</trkpt>
<trkpt lat="30.6738491" lon="35.6117168">
<ele>1272.44</ele>
<time>2015-11-22T16:49:26Z</time>
</trkpt>
<trkpt lat="30.6738753" lon="35.6116251">
<ele>1270.26</ele>
<time>2015-11-22T16:49:28Z</time>
</trkpt>
<trkpt lat="30.6739024" lon="35.6115754">
<ele>1269.46</ele>
<time>2015-11-22T16:49:30Z</time>
</trkpt>
<trkpt lat="30.6739332" lon="35.6115279">
<ele>1268.26</ele>
<time>2015-11-22T16:49:32Z</time>
</trkpt>
<trkpt lat="30.6739927" lon="35.6114613">
<ele>1267.46</ele>
<time>2015-11-22T16:49:34Z</time>
</trkpt>
<trkpt lat="30.6740444" lon="35.6113946">
<ele>1266.01</ele>
<time>2015-11-22T16:49:36Z</time>
</trkpt>
<trkpt lat="30.6740876" lon="35.6113197">
<ele>1264.15</ele>
<time>2015-11-22T16:49:38Z</time>
</trkpt>
<trkpt lat="30.6741360" lon="35.6112367">
<ele>1262.18</ele>
<time>2015-11-22T16:49:40Z</time>
</trkpt>
<trkpt lat="30.6741973" lon="35.6111657">
<ele>1260.19</ele>
<time>2015-11-22T16:49:41Z</time>
</trkpt>
<trkpt lat="30.6742421" lon="35.6111201">
<ele>1258.19</ele>
<time>2015-11-22T16:49:42Z</time>
</trkpt>
<trkpt lat="30.6742784" lon="35.6110791">
<ele>1256.69</ele>
<time>2015-11-22T16:49:43Z</time>
</trkpt>
<trkpt lat="30.6743269" lon="35.6110292">
<ele>1255.45</ele>
<time>2015-11-22T16:49:44Z</time>
</trkpt>
<trkpt lat="30.6743700" lon="35.6109886">
<ele>1253.82</ele>
<time>2015-11-22T16:49:45Z</time>
</trkpt>
<trkpt lat="30.6744143" lon="35.6109415">
<ele>1252.51</ele>
<time>2015-11-22T16:49:46Z</time>
</trkpt>
<trkpt lat="30.6744511" lon="35.6108985">
<ele>1251.85</ele>
<time>2015-11-22T16:49:47Z</time>
</trkpt>
<trkpt lat="30.6744916" lon="35.6108631">
<ele>1251.02</ele>
<time>2015-11-22T16:49:48Z</time>
</trkpt>
<trkpt lat="30.6745544" lon="35.6108077">
<ele>1249.90</ele>
<time>2015-11-22T16:49:50Z</time>
</trkpt>
<trkpt lat="30.6746246" lon="35.6107563">
<ele>1248.62</ele>
<time>2015-11-22T16:49:52Z</time>
</trkpt>
<trkpt lat="30.6746856" lon="35.6107059">
<ele>1247.55</ele>
<time>2015-11-22T16:49:54Z</time>
</trkpt>
<trkpt lat="30.6747271" lon="35.6106820">
<ele>1244.20</ele>
<time>2015-11-22T16:50:11Z</time>
</trkpt>
<trkpt lat="30.6746794" lon="35.6106650">
<ele>1241.19</ele>
<time>2015-11-22T16:51:41Z</time>
</trkpt>
<trkpt lat="30.6746577" lon="35.6106172">
<ele>1242.95</ele>
<time>2015-11-22T16:51:45Z</time>
</trkpt>
<trkpt lat="30.6746333" lon="35.6105705">
<ele>1243.18</ele>
<time>2015-11-22T16:51:49Z</time>
</trkpt>
<trkpt lat="30.6746322" lon="35.6105080">
<ele>1244.07</ele>
<time>2015-11-22T16:51:54Z</time>
</trkpt>
<trkpt lat="30.6746308" lon="35.6104515">
<ele>1245.07</ele>
<time>2015-11-22T16:52:00Z</time>
</trkpt>
</trkseg>
</trk>
</gpx>
